<?xml version='1.0' encoding='UTF-8'?><gpx version="1.1" creator="JPX - https://github.com/jenetics/jpx" xmlns="http://www.topografix.com/GPX/1/1"><trk><trkseg><trkpt lat="32.9449741" lon="10.4674722"><ele>239.00000000000003</ele><time>2026-04-27T09:03:27.827Z</time></trkpt><trkpt lat="32.9450159" lon="10.4675385"><ele>239.0</ele><time>2026-04-27T09:03:32.822Z</time></trkpt><trkpt lat="32.945071" lon="10.4675914"><ele>239.0</ele><time>2026-04-27T09:03:36.859Z</time></trkpt><trkpt lat="32.9451264" lon="10.4676303"><ele>239.0</ele><time>2026-04-27T09:03:40.829Z</time></trkpt><trkpt lat="32.9451886" lon="10.4676018"><ele>239.00000000000003</ele><time>2026-04-27T09:03:43.832Z</time></trkpt><trkpt lat="32.9452329" lon="10.4674936"><ele>239.0</ele><time>2026-04-27T09:03:45.844Z</time></trkpt><trkpt lat="32.945285" lon="10.467414"><ele>237.6</ele><time>2026-04-27T09:03:47.834Z</time></trkpt><trkpt lat="32.9453308" lon="10.4673451"><ele>236.2</ele><time>2026-04-27T09:03:49.838Z</time></trkpt><trkpt lat="32.9453825" lon="10.467255"><ele>234.79999999999998</ele><time>2026-04-27T09:03:51.858Z</time></trkpt><trkpt lat="32.945432" lon="10.4671701"><ele>233.39999999999998</ele><time>2026-04-27T09:03:53.845Z</time></trkpt><trkpt lat="32.9454891" lon="10.4670774"><ele>232.0</ele><time>2026-04-27T09:03:55.859Z</time></trkpt><trkpt lat="32.9455577" lon="10.4669805"><ele>231.66666666666666</ele><time>2026-04-27T09:03:57.816Z</time></trkpt><trkpt lat="32.9456255" lon="10.4668816"><ele>231.33333333333331</ele><time>2026-04-27T09:03:59.847Z</time></trkpt><trkpt lat="32.9456902" lon="10.4667835"><ele>231.0</ele><time>2026-04-27T09:04:01.847Z</time></trkpt><trkpt lat="32.9457433" lon="10.4667102"><ele>230.66666666666669</ele><time>2026-04-27T09:04:03.852Z</time></trkpt><trkpt lat="32.9457894" lon="10.4666319"><ele>230.33333333333334</ele><time>2026-04-27T09:04:07.849Z</time></trkpt><trkpt lat="32.9458271" lon="10.4665554"><ele>230.0</ele><time>2026-04-27T09:04:09.828Z</time></trkpt><trkpt lat="32.9458715" lon="10.4664494"><ele>229.33333333333334</ele><time>2026-04-27T09:04:11.845Z</time></trkpt><trkpt lat="32.9459243" lon="10.4663289"><ele>228.66666666666669</ele><time>2026-04-27T09:04:13.839Z</time></trkpt><trkpt lat="32.9459728" lon="10.4661945"><ele>228.0</ele><time>2026-04-27T09:04:15.833Z</time></trkpt><trkpt lat="32.9460062" lon="10.4661292"><ele>227.33333333333331</ele><time>2026-04-27T09:04:16.833Z</time></trkpt><trkpt lat="32.9460468" lon="10.4660583"><ele>226.66666666666666</ele><time>2026-04-27T09:04:17.836Z</time></trkpt><trkpt lat="32.9460831" lon="10.4659914"><ele>226.0</ele><time>2026-04-27T09:04:18.834Z</time></trkpt><trkpt lat="32.9461234" lon="10.4659221"><ele>225.99999999999997</ele><time>2026-04-27T09:04:19.831Z</time></trkpt><trkpt lat="32.9461676" lon="10.4658477"><ele>226.0</ele><time>2026-04-27T09:04:20.842Z</time></trkpt><trkpt lat="32.946209" lon="10.4657771"><ele>226.0</ele><time>2026-04-27T09:04:21.843Z</time></trkpt><trkpt lat="32.9462454" lon="10.465707"><ele>226.0</ele><time>2026-04-27T09:04:22.833Z</time></trkpt><trkpt lat="32.946276" lon="10.4656404"><ele>225.99999999999997</ele><time>2026-04-27T09:04:23.834Z</time></trkpt><trkpt lat="32.9463365" lon="10.4655311"><ele>226.0</ele><time>2026-04-27T09:04:25.848Z</time></trkpt><trkpt lat="32.9463989" lon="10.4654276"><ele>226.0</ele><time>2026-04-27T09:04:27.851Z</time></trkpt><trkpt lat="32.9464587" lon="10.4653331"><ele>226.00000000000003</ele><time>2026-04-27T09:04:29.844Z</time></trkpt><trkpt lat="32.9465081" lon="10.4652545"><ele>226.00000000000003</ele><time>2026-04-27T09:04:33.829Z</time></trkpt><trkpt lat="32.9465565" lon="10.4651839"><ele>226.0</ele><time>2026-04-27T09:04:35.835Z</time></trkpt><trkpt lat="32.9466061" lon="10.4650706"><ele>226.0</ele><time>2026-04-27T09:04:37.852Z</time></trkpt><trkpt lat="32.9466527" lon="10.4649535"><ele>225.99999999999997</ele><time>2026-04-27T09:04:39.838Z</time></trkpt><trkpt lat="32.9466819" lon="10.4648412"><ele>226.0</ele><time>2026-04-27T09:04:41.833Z</time></trkpt><trkpt lat="32.9467009" lon="10.4647494"><ele>226.0</ele><time>2026-04-27T09:04:43.852Z</time></trkpt><trkpt lat="32.9467323" lon="10.4646669"><ele>226.0</ele><time>2026-04-27T09:04:46.855Z</time></trkpt><trkpt lat="32.9467609" lon="10.4645779"><ele>225.99999999999997</ele><time>2026-04-27T09:05:35.838Z</time></trkpt><trkpt lat="32.9468685" lon="10.4645641"><ele>226.0</ele><time>2026-04-27T09:05:38.848Z</time></trkpt><trkpt lat="32.9469422" lon="10.4645767"><ele>225.83333333333331</ele><time>2026-04-27T09:05:39.84Z</time></trkpt><trkpt lat="32.9470316" lon="10.4645956"><ele>225.66666666666666</ele><time>2026-04-27T09:05:40.836Z</time></trkpt><trkpt lat="32.9471215" lon="10.4646251"><ele>225.5</ele><time>2026-04-27T09:05:41.838Z</time></trkpt><trkpt lat="32.9472115" lon="10.4646546"><ele>225.33333333333331</ele><time>2026-04-27T09:05:42.854Z</time></trkpt><trkpt lat="32.9472962" lon="10.4646824"><ele>225.16666666666666</ele><time>2026-04-27T09:05:43.85Z</time></trkpt><trkpt lat="32.9473715" lon="10.4647013"><ele>225.0</ele><time>2026-04-27T09:05:44.856Z</time></trkpt><trkpt lat="32.947442" lon="10.4647226"><ele>225.00000000000003</ele><time>2026-04-27T09:05:45.853Z</time></trkpt><trkpt lat="32.9475052" lon="10.4647426"><ele>225.0</ele><time>2026-04-27T09:05:46.841Z</time></trkpt><trkpt lat="32.9475674" lon="10.4647565"><ele>225.00000000000003</ele><time>2026-04-27T09:05:47.863Z</time></trkpt><trkpt lat="32.9476385" lon="10.4647738"><ele>225.00000000000003</ele><time>2026-04-27T09:05:48.828Z</time></trkpt><trkpt lat="32.9477098" lon="10.4647879"><ele>225.0</ele><time>2026-04-27T09:05:49.839Z</time></trkpt><trkpt lat="32.9477823" lon="10.4648052"><ele>225.00000000000003</ele><time>2026-04-27T09:05:50.837Z</time></trkpt><trkpt lat="32.9478551" lon="10.4648207"><ele>225.00000000000003</ele><time>2026-04-27T09:05:51.842Z</time></trkpt><trkpt lat="32.9479291" lon="10.4648418"><ele>224.5714285714286</ele><time>2026-04-27T09:05:52.835Z</time></trkpt><trkpt lat="32.9480107" lon="10.4648582"><ele>224.14285714285717</ele><time>2026-04-27T09:05:53.849Z</time></trkpt><trkpt lat="32.9480949" lon="10.464876"><ele>223.71428571428572</ele><time>2026-04-27T09:05:54.83Z</time></trkpt><trkpt lat="32.9481687" lon="10.4648966"><ele>223.2857142857143</ele><time>2026-04-27T09:05:55.843Z</time></trkpt><trkpt lat="32.948238" lon="10.4649106"><ele>222.8571428571429</ele><time>2026-04-27T09:05:56.842Z</time></trkpt><trkpt lat="32.9483021" lon="10.4649289"><ele>222.42857142857142</ele><time>2026-04-27T09:05:57.829Z</time></trkpt><trkpt lat="32.9483671" lon="10.4649444"><ele>222.0</ele><time>2026-04-27T09:05:58.848Z</time></trkpt><trkpt lat="32.9484301" lon="10.4649603"><ele>221.83333333333334</ele><time>2026-04-27T09:05:59.83Z</time></trkpt><trkpt lat="32.9485135" lon="10.4649857"><ele>221.66666666666669</ele><time>2026-04-27T09:06:01.828Z</time></trkpt><trkpt lat="32.9485894" lon="10.4650094"><ele>221.5</ele><time>2026-04-27T09:06:04.838Z</time></trkpt><trkpt lat="32.9486583" lon="10.4649902"><ele>221.33333333333334</ele><time>2026-04-27T09:06:07.835Z</time></trkpt><trkpt lat="32.9487099" lon="10.4648864"><ele>221.16666666666669</ele><time>2026-04-27T09:06:10.845Z</time></trkpt><trkpt lat="32.9487615" lon="10.4647686"><ele>221.0</ele><time>2026-04-27T09:06:12.841Z</time></trkpt><trkpt lat="32.9488003" lon="10.4647068"><ele>221.0</ele><time>2026-04-27T09:06:13.845Z</time></trkpt><trkpt lat="32.9488433" lon="10.4646395"><ele>221.00000000000003</ele><time>2026-04-27T09:06:14.843Z</time></trkpt><trkpt lat="32.948889" lon="10.4645663"><ele>221.00000000000003</ele><time>2026-04-27T09:06:15.847Z</time></trkpt><trkpt lat="32.9489421" lon="10.4644878"><ele>221.0</ele><time>2026-04-27T09:06:16.851Z</time></trkpt><trkpt lat="32.9490032" lon="10.4643891"><ele>221.0</ele><time>2026-04-27T09:06:17.84Z</time></trkpt><trkpt lat="32.9490678" lon="10.4642734"><ele>221.0</ele><time>2026-04-27T09:06:18.834Z</time></trkpt><trkpt lat="32.9491296" lon="10.4641661"><ele>221.00000000000003</ele><time>2026-04-27T09:06:19.857Z</time></trkpt><trkpt lat="32.9491874" lon="10.4640724"><ele>221.00000000000003</ele><time>2026-04-27T09:06:20.847Z</time></trkpt><trkpt lat="32.9492384" lon="10.4639749"><ele>221.0</ele><time>2026-04-27T09:06:21.849Z</time></trkpt><trkpt lat="32.9492906" lon="10.4638779"><ele>221.0</ele><time>2026-04-27T09:06:22.843Z</time></trkpt><trkpt lat="32.9493392" lon="10.463785"><ele>221.00000000000003</ele><time>2026-04-27T09:06:23.838Z</time></trkpt><trkpt lat="32.9493802" lon="10.4636948"><ele>221.0</ele><time>2026-04-27T09:06:24.867Z</time></trkpt><trkpt lat="32.9494248" lon="10.4636141"><ele>221.0</ele><time>2026-04-27T09:06:25.866Z</time></trkpt><trkpt lat="32.9494681" lon="10.4635233"><ele>221.0</ele><time>2026-04-27T09:06:26.847Z</time></trkpt><trkpt lat="32.949513" lon="10.4634352"><ele>221.00000000000003</ele><time>2026-04-27T09:06:27.837Z</time></trkpt><trkpt lat="32.9495542" lon="10.4633473"><ele>221.0</ele><time>2026-04-27T09:06:28.856Z</time></trkpt><trkpt lat="32.9495976" lon="10.4632631"><ele>221.00000000000003</ele><time>2026-04-27T09:06:29.851Z</time></trkpt><trkpt lat="32.9496381" lon="10.4631835"><ele>221.0</ele><time>2026-04-27T09:06:30.836Z</time></trkpt><trkpt lat="32.9496784" lon="10.4631082"><ele>221.0</ele><time>2026-04-27T09:06:31.841Z</time></trkpt><trkpt lat="32.949738" lon="10.4629989"><ele>221.0</ele><time>2026-04-27T09:06:33.839Z</time></trkpt><trkpt lat="32.9497846" lon="10.4629483"><ele>221.00000000000003</ele><time>2026-04-27T09:06:36.849Z</time></trkpt><trkpt lat="32.9498486" lon="10.4629636"><ele>221.0</ele><time>2026-04-27T09:06:39.844Z</time></trkpt><trkpt lat="32.9499334" lon="10.4630144"><ele>221.0</ele><time>2026-04-27T09:06:41.849Z</time></trkpt><trkpt lat="32.9500366" lon="10.4630794"><ele>221.00000000000003</ele><time>2026-04-27T09:06:43.853Z</time></trkpt><trkpt lat="32.9500924" lon="10.4631165"><ele>221.00000000000003</ele><time>2026-04-27T09:06:44.83Z</time></trkpt><trkpt lat="32.9502078" lon="10.4631786"><ele>221.0</ele><time>2026-04-27T09:06:46.85Z</time></trkpt><trkpt lat="32.9503219" lon="10.4632341"><ele>221.0</ele><time>2026-04-27T09:06:48.845Z</time></trkpt><trkpt lat="32.9504469" lon="10.4632633"><ele>220.71428571428572</ele><time>2026-04-27T09:06:50.835Z</time></trkpt><trkpt lat="32.9505117" lon="10.4632667"><ele>220.42857142857144</ele><time>2026-04-27T09:06:51.849Z</time></trkpt><trkpt lat="32.9505769" lon="10.4632918"><ele>220.14285714285717</ele><time>2026-04-27T09:06:52.851Z</time></trkpt><trkpt lat="32.9506399" lon="10.4633299"><ele>219.85714285714286</ele><time>2026-04-27T09:06:53.839Z</time></trkpt><trkpt lat="32.9506919" lon="10.4633824"><ele>219.57142857142856</ele><time>2026-04-27T09:06:54.834Z</time></trkpt><trkpt lat="32.9507509" lon="10.4634275"><ele>219.2857142857143</ele><time>2026-04-27T09:06:55.863Z</time></trkpt><trkpt lat="32.9508108" lon="10.4634775"><ele>219.0</ele><time>2026-04-27T09:06:56.844Z</time></trkpt><trkpt lat="32.9509168" lon="10.4635493"><ele>218.39999999999998</ele><time>2026-04-27T09:06:58.841Z</time></trkpt><trkpt lat="32.9510055" lon="10.4635739"><ele>217.79999999999998</ele><time>2026-04-27T09:07:00.838Z</time></trkpt><trkpt lat="32.9510735" lon="10.4634962"><ele>217.20000000000002</ele><time>2026-04-27T09:07:03.84Z</time></trkpt><trkpt lat="32.9511139" lon="10.4634006"><ele>216.60000000000002</ele><time>2026-04-27T09:07:05.84Z</time></trkpt><trkpt lat="32.9511607" lon="10.4632959"><ele>216.0</ele><time>2026-04-27T09:07:07.835Z</time></trkpt><trkpt lat="32.9512311" lon="10.4631961"><ele>216.0</ele><time>2026-04-27T09:07:09.833Z</time></trkpt><trkpt lat="32.9513021" lon="10.463083"><ele>216.0</ele><time>2026-04-27T09:07:11.839Z</time></trkpt><trkpt lat="32.9513393" lon="10.4629453"><ele>216.0</ele><time>2026-04-27T09:07:13.856Z</time></trkpt><trkpt lat="32.9513602" lon="10.4628127"><ele>216.0</ele><time>2026-04-27T09:07:15.844Z</time></trkpt><trkpt lat="32.9513989" lon="10.4626937"><ele>216.66666666666666</ele><time>2026-04-27T09:07:17.846Z</time></trkpt><trkpt lat="32.9514411" lon="10.462567"><ele>217.33333333333331</ele><time>2026-04-27T09:07:19.845Z</time></trkpt><trkpt lat="32.9514658" lon="10.4624454"><ele>218.0</ele><time>2026-04-27T09:07:21.849Z</time></trkpt><trkpt lat="32.9514897" lon="10.462345"><ele>218.66666666666666</ele><time>2026-04-27T09:07:23.842Z</time></trkpt><trkpt lat="32.9515174" lon="10.4622661"><ele>219.33333333333331</ele><time>2026-04-27T09:07:25.851Z</time></trkpt><trkpt lat="32.951546" lon="10.4621929"><ele>220.0</ele><time>2026-04-27T09:07:27.854Z</time></trkpt><trkpt lat="32.9515876" lon="10.4621005"><ele>220.2</ele><time>2026-04-27T09:07:30.851Z</time></trkpt><trkpt lat="32.9516288" lon="10.4620389"><ele>220.4</ele><time>2026-04-27T09:07:34.848Z</time></trkpt><trkpt lat="32.951657" lon="10.4619306"><ele>220.60000000000002</ele><time>2026-04-27T09:08:45.852Z</time></trkpt><trkpt lat="32.9517111" lon="10.4617705"><ele>220.8</ele><time>2026-04-27T09:08:47.856Z</time></trkpt><trkpt lat="32.9517324" lon="10.4616863"><ele>221.0</ele><time>2026-04-27T09:08:48.854Z</time></trkpt><trkpt lat="32.9517738" lon="10.4615842"><ele>221.0</ele><time>2026-04-27T09:08:49.844Z</time></trkpt><trkpt lat="32.9518171" lon="10.4614783"><ele>221.00000000000003</ele><time>2026-04-27T09:08:50.86Z</time></trkpt><trkpt lat="32.95186" lon="10.4613682"><ele>221.00000000000003</ele><time>2026-04-27T09:08:51.858Z</time></trkpt><trkpt lat="32.9519032" lon="10.4612574"><ele>221.0</ele><time>2026-04-27T09:08:52.867Z</time></trkpt><trkpt lat="32.951947" lon="10.4611429"><ele>221.0</ele><time>2026-04-27T09:08:53.856Z</time></trkpt><trkpt lat="32.9519823" lon="10.4610286"><ele>220.8</ele><time>2026-04-27T09:08:54.866Z</time></trkpt><trkpt lat="32.9520215" lon="10.4609219"><ele>220.60000000000002</ele><time>2026-04-27T09:08:55.871Z</time></trkpt><trkpt lat="32.9520665" lon="10.4608208"><ele>220.4</ele><time>2026-04-27T09:08:56.86Z</time></trkpt><trkpt lat="32.9521061" lon="10.4607189"><ele>220.2</ele><time>2026-04-27T09:08:57.876Z</time></trkpt><trkpt lat="32.9521401" lon="10.4606202"><ele>220.0</ele><time>2026-04-27T09:08:58.866Z</time></trkpt><trkpt lat="32.9521728" lon="10.4605171"><ele>219.6</ele><time>2026-04-27T09:08:59.86Z</time></trkpt><trkpt lat="32.9522031" lon="10.4604127"><ele>219.2</ele><time>2026-04-27T09:09:00.87Z</time></trkpt><trkpt lat="32.9522312" lon="10.4603069"><ele>218.8</ele><time>2026-04-27T09:09:01.856Z</time></trkpt><trkpt lat="32.9522629" lon="10.4602001"><ele>218.4</ele><time>2026-04-27T09:09:02.86Z</time></trkpt><trkpt lat="32.952298" lon="10.4601008"><ele>218.0</ele><time>2026-04-27T09:09:03.878Z</time></trkpt><trkpt lat="32.9523358" lon="10.4599961"><ele>218.0</ele><time>2026-04-27T09:09:04.879Z</time></trkpt><trkpt lat="32.9523767" lon="10.4598835"><ele>218.0</ele><time>2026-04-27T09:09:05.846Z</time></trkpt><trkpt lat="32.9524128" lon="10.4597732"><ele>218.0</ele><time>2026-04-27T09:09:06.814Z</time></trkpt><trkpt lat="32.9524546" lon="10.4596608"><ele>218.0</ele><time>2026-04-27T09:09:07.844Z</time></trkpt><trkpt lat="32.9525011" lon="10.4595476"><ele>218.0</ele><time>2026-04-27T09:09:08.861Z</time></trkpt><trkpt lat="32.9525476" lon="10.4594301"><ele>218.2</ele><time>2026-04-27T09:09:09.869Z</time></trkpt><trkpt lat="32.9525896" lon="10.4593207"><ele>218.4</ele><time>2026-04-27T09:09:10.845Z</time></trkpt><trkpt lat="32.9526302" lon="10.4592123"><ele>218.59999999999997</ele><time>2026-04-27T09:09:11.879Z</time></trkpt><trkpt lat="32.9526714" lon="10.4591046"><ele>218.79999999999998</ele><time>2026-04-27T09:09:12.878Z</time></trkpt><trkpt lat="32.9527097" lon="10.4589873"><ele>219.0</ele><time>2026-04-27T09:09:13.866Z</time></trkpt><trkpt lat="32.9527457" lon="10.4588638"><ele>219.79999999999998</ele><time>2026-04-27T09:09:14.859Z</time></trkpt><trkpt lat="32.9527832" lon="10.4587458"><ele>220.59999999999997</ele><time>2026-04-27T09:09:15.868Z</time></trkpt><trkpt lat="32.9528254" lon="10.4586183"><ele>221.4</ele><time>2026-04-27T09:09:16.851Z</time></trkpt><trkpt lat="32.9528632" lon="10.4584967"><ele>222.2</ele><time>2026-04-27T09:09:17.829Z</time></trkpt><trkpt lat="32.9529017" lon="10.4583768"><ele>223.0</ele><time>2026-04-27T09:09:18.856Z</time></trkpt><trkpt lat="32.952948" lon="10.4582576"><ele>223.0</ele><time>2026-04-27T09:09:19.837Z</time></trkpt><trkpt lat="32.9529953" lon="10.4581424"><ele>223.0</ele><time>2026-04-27T09:09:20.867Z</time></trkpt><trkpt lat="32.9530407" lon="10.458029"><ele>223.0</ele><time>2026-04-27T09:09:21.831Z</time></trkpt><trkpt lat="32.9530818" lon="10.4579223"><ele>223.0</ele><time>2026-04-27T09:09:22.863Z</time></trkpt><trkpt lat="32.9531142" lon="10.4578219"><ele>223.0</ele><time>2026-04-27T09:09:23.82Z</time></trkpt><trkpt lat="32.9531444" lon="10.4577264"><ele>223.16666666666666</ele><time>2026-04-27T09:09:24.861Z</time></trkpt><trkpt lat="32.9531778" lon="10.4576431"><ele>223.33333333333331</ele><time>2026-04-27T09:09:25.846Z</time></trkpt><trkpt lat="32.9532027" lon="10.4575626"><ele>223.5</ele><time>2026-04-27T09:09:26.851Z</time></trkpt><trkpt lat="32.9532387" lon="10.4574683"><ele>223.66666666666669</ele><time>2026-04-27T09:09:28.863Z</time></trkpt><trkpt lat="32.95328" lon="10.4574009"><ele>223.83333333333334</ele><time>2026-04-27T09:09:38.864Z</time></trkpt><trkpt lat="32.9533481" lon="10.4573933"><ele>224.0</ele><time>2026-04-27T09:09:40.835Z</time></trkpt><trkpt lat="32.953422" lon="10.4574298"><ele>224.0</ele><time>2026-04-27T09:09:41.851Z</time></trkpt><trkpt lat="32.9534964" lon="10.4574767"><ele>223.99999999999997</ele><time>2026-04-27T09:09:42.861Z</time></trkpt><trkpt lat="32.9535743" lon="10.4575099"><ele>223.99999999999997</ele><time>2026-04-27T09:09:43.853Z</time></trkpt><trkpt lat="32.9536615" lon="10.4575513"><ele>224.0</ele><time>2026-04-27T09:09:44.86Z</time></trkpt><trkpt lat="32.9537549" lon="10.4575988"><ele>224.0</ele><time>2026-04-27T09:09:45.854Z</time></trkpt><trkpt lat="32.9538541" lon="10.4576424"><ele>224.0</ele><time>2026-04-27T09:09:46.888Z</time></trkpt><trkpt lat="32.9539575" lon="10.4576932"><ele>223.99999999999997</ele><time>2026-04-27T09:09:47.872Z</time></trkpt><trkpt lat="32.9540578" lon="10.4577441"><ele>223.99999999999997</ele><time>2026-04-27T09:09:48.863Z</time></trkpt><trkpt lat="32.9541529" lon="10.4577915"><ele>224.0</ele><time>2026-04-27T09:09:49.849Z</time></trkpt><trkpt lat="32.9542492" lon="10.457845"><ele>224.0</ele><time>2026-04-27T09:09:50.86Z</time></trkpt><trkpt lat="32.954347" lon="10.4579027"><ele>223.5</ele><time>2026-04-27T09:09:51.884Z</time></trkpt><trkpt lat="32.9544454" lon="10.4579583"><ele>223.0</ele><time>2026-04-27T09:09:52.875Z</time></trkpt><trkpt lat="32.9545465" lon="10.4580208"><ele>222.5</ele><time>2026-04-27T09:09:53.863Z</time></trkpt><trkpt lat="32.9546541" lon="10.4580821"><ele>222.0</ele><time>2026-04-27T09:09:54.852Z</time></trkpt><trkpt lat="32.9547643" lon="10.4581443"><ele>222.0</ele><time>2026-04-27T09:09:55.859Z</time></trkpt><trkpt lat="32.9548711" lon="10.4582012"><ele>222.0</ele><time>2026-04-27T09:09:56.865Z</time></trkpt><trkpt lat="32.9549769" lon="10.4582583"><ele>222.0</ele><time>2026-04-27T09:09:57.85Z</time></trkpt><trkpt lat="32.9550848" lon="10.4583143"><ele>222.0</ele><time>2026-04-27T09:09:58.863Z</time></trkpt><trkpt lat="32.9551825" lon="10.4583728"><ele>222.0</ele><time>2026-04-27T09:09:59.861Z</time></trkpt><trkpt lat="32.9552848" lon="10.4584354"><ele>222.0</ele><time>2026-04-27T09:10:00.876Z</time></trkpt><trkpt lat="32.9553809" lon="10.4584979"><ele>222.0</ele><time>2026-04-27T09:10:01.864Z</time></trkpt><trkpt lat="32.9554707" lon="10.4585643"><ele>222.0</ele><time>2026-04-27T09:10:02.873Z</time></trkpt><trkpt lat="32.9555536" lon="10.4586337"><ele>222.0</ele><time>2026-04-27T09:10:03.879Z</time></trkpt><trkpt lat="32.9556312" lon="10.4587047"><ele>222.0</ele><time>2026-04-27T09:10:04.857Z</time></trkpt><trkpt lat="32.9557024" lon="10.4587644"><ele>222.0</ele><time>2026-04-27T09:10:05.839Z</time></trkpt><trkpt lat="32.9557781" lon="10.4588112"><ele>222.0</ele><time>2026-04-27T09:10:06.868Z</time></trkpt><trkpt lat="32.9558662" lon="10.4588307"><ele>222.0</ele><time>2026-04-27T09:10:07.858Z</time></trkpt><trkpt lat="32.9559544" lon="10.4588455"><ele>222.0</ele><time>2026-04-27T09:10:08.861Z</time></trkpt><trkpt lat="32.9560544" lon="10.4588716"><ele>222.0</ele><time>2026-04-27T09:10:09.876Z</time></trkpt><trkpt lat="32.9561658" lon="10.4589069"><ele>222.0</ele><time>2026-04-27T09:10:10.868Z</time></trkpt><trkpt lat="32.9562811" lon="10.4589491"><ele>222.0</ele><time>2026-04-27T09:10:11.866Z</time></trkpt><trkpt lat="32.9563993" lon="10.4589943"><ele>222.0</ele><time>2026-04-27T09:10:12.861Z</time></trkpt><trkpt lat="32.9565272" lon="10.4590489"><ele>222.0</ele><time>2026-04-27T09:10:13.861Z</time></trkpt><trkpt lat="32.9566525" lon="10.4590988"><ele>222.0</ele><time>2026-04-27T09:10:14.868Z</time></trkpt><trkpt lat="32.9567797" lon="10.4591579"><ele>222.0</ele><time>2026-04-27T09:10:15.871Z</time></trkpt><trkpt lat="32.9569123" lon="10.4592156"><ele>222.0</ele><time>2026-04-27T09:10:16.863Z</time></trkpt><trkpt lat="32.957048" lon="10.459272"><ele>221.5</ele><time>2026-04-27T09:10:17.855Z</time></trkpt><trkpt lat="32.9571885" lon="10.4593274"><ele>221.0</ele><time>2026-04-27T09:10:18.863Z</time></trkpt><trkpt lat="32.9573264" lon="10.4593823"><ele>220.5</ele><time>2026-04-27T09:10:19.864Z</time></trkpt><trkpt lat="32.9574675" lon="10.4594352"><ele>220.0</ele><time>2026-04-27T09:10:20.865Z</time></trkpt><trkpt lat="32.9576065" lon="10.4594865"><ele>219.5</ele><time>2026-04-27T09:10:21.877Z</time></trkpt><trkpt lat="32.9577477" lon="10.4595404"><ele>219.0</ele><time>2026-04-27T09:10:22.869Z</time></trkpt><trkpt lat="32.9578833" lon="10.4595942"><ele>218.5</ele><time>2026-04-27T09:10:23.838Z</time></trkpt><trkpt lat="32.9580303" lon="10.4596505"><ele>218.0</ele><time>2026-04-27T09:10:24.852Z</time></trkpt><trkpt lat="32.9581753" lon="10.4597032"><ele>217.33333333333334</ele><time>2026-04-27T09:10:25.859Z</time></trkpt><trkpt lat="32.9583229" lon="10.4597545"><ele>216.66666666666669</ele><time>2026-04-27T09:10:26.872Z</time></trkpt><trkpt lat="32.9584742" lon="10.4598033"><ele>216.0</ele><time>2026-04-27T09:10:27.863Z</time></trkpt><trkpt lat="32.9586237" lon="10.4598399"><ele>217.33333333333331</ele><time>2026-04-27T09:10:28.871Z</time></trkpt><trkpt lat="32.9587812" lon="10.4598744"><ele>218.66666666666666</ele><time>2026-04-27T09:10:29.878Z</time></trkpt><trkpt lat="32.9589383" lon="10.4598959"><ele>220.0</ele><time>2026-04-27T09:10:30.878Z</time></trkpt><trkpt lat="32.9591044" lon="10.4599177"><ele>219.33333333333331</ele><time>2026-04-27T09:10:31.862Z</time></trkpt><trkpt lat="32.9592749" lon="10.4599351"><ele>218.66666666666669</ele><time>2026-04-27T09:10:32.871Z</time></trkpt><trkpt lat="32.9594489" lon="10.4599397"><ele>218.0</ele><time>2026-04-27T09:10:33.86Z</time></trkpt><trkpt lat="32.9596252" lon="10.4599452"><ele>218.0</ele><time>2026-04-27T09:10:34.883Z</time></trkpt><trkpt lat="32.9598057" lon="10.4599524"><ele>218.0</ele><time>2026-04-27T09:10:35.876Z</time></trkpt><trkpt lat="32.959983" lon="10.4599578"><ele>218.0</ele><time>2026-04-27T09:10:36.861Z</time></trkpt><trkpt lat="32.960163" lon="10.4599646"><ele>217.33333333333334</ele><time>2026-04-27T09:10:37.862Z</time></trkpt><trkpt lat="32.9603445" lon="10.4599772"><ele>216.66666666666669</ele><time>2026-04-27T09:10:38.859Z</time></trkpt><trkpt lat="32.960521" lon="10.4599861"><ele>216.0</ele><time>2026-04-27T09:10:39.873Z</time></trkpt><trkpt lat="32.9606957" lon="10.4599937"><ele>215.66666666666669</ele><time>2026-04-27T09:10:40.853Z</time></trkpt><trkpt lat="32.9608715" lon="10.4600019"><ele>215.33333333333334</ele><time>2026-04-27T09:10:41.88Z</time></trkpt><trkpt lat="32.961055" lon="10.4600125"><ele>215.0</ele><time>2026-04-27T09:10:42.877Z</time></trkpt><trkpt lat="32.9612347" lon="10.4600214"><ele>215.0</ele><time>2026-04-27T09:10:43.874Z</time></trkpt><trkpt lat="32.9614154" lon="10.4600278"><ele>215.0</ele><time>2026-04-27T09:10:44.859Z</time></trkpt><trkpt lat="32.9615924" lon="10.4600336"><ele>215.0</ele><time>2026-04-27T09:10:45.879Z</time></trkpt><trkpt lat="32.9617709" lon="10.4600417"><ele>215.0</ele><time>2026-04-27T09:10:46.888Z</time></trkpt><trkpt lat="32.9619476" lon="10.4600511"><ele>215.0</ele><time>2026-04-27T09:10:47.866Z</time></trkpt><trkpt lat="32.9621186" lon="10.460063"><ele>215.0</ele><time>2026-04-27T09:10:48.84Z</time></trkpt><trkpt lat="32.9622909" lon="10.4600726"><ele>215.0</ele><time>2026-04-27T09:10:49.858Z</time></trkpt><trkpt lat="32.9624558" lon="10.4600811"><ele>215.0</ele><time>2026-04-27T09:10:50.86Z</time></trkpt><trkpt lat="32.962612" lon="10.460093"><ele>215.0</ele><time>2026-04-27T09:10:51.844Z</time></trkpt><trkpt lat="32.9627665" lon="10.4601001"><ele>215.0</ele><time>2026-04-27T09:10:52.874Z</time></trkpt><trkpt lat="32.9629233" lon="10.4601074"><ele>215.0</ele><time>2026-04-27T09:10:53.835Z</time></trkpt><trkpt lat="32.9630771" lon="10.4601142"><ele>215.0</ele><time>2026-04-27T09:10:54.857Z</time></trkpt><trkpt lat="32.9632221" lon="10.4601287"><ele>215.0</ele><time>2026-04-27T09:10:55.857Z</time></trkpt><trkpt lat="32.963353" lon="10.4601404"><ele>215.0</ele><time>2026-04-27T09:10:56.846Z</time></trkpt><trkpt lat="32.9634745" lon="10.4601723"><ele>215.0</ele><time>2026-04-27T09:10:57.842Z</time></trkpt><trkpt lat="32.9635943" lon="10.4602118"><ele>215.0</ele><time>2026-04-27T09:10:58.87Z</time></trkpt><trkpt lat="32.963716" lon="10.4602473"><ele>215.0</ele><time>2026-04-27T09:10:59.84Z</time></trkpt><trkpt lat="32.9638519" lon="10.4602756"><ele>215.0</ele><time>2026-04-27T09:11:00.867Z</time></trkpt><trkpt lat="32.9639931" lon="10.4602834"><ele>215.0</ele><time>2026-04-27T09:11:01.863Z</time></trkpt><trkpt lat="32.9641234" lon="10.4602903"><ele>215.0</ele><time>2026-04-27T09:11:02.86Z</time></trkpt><trkpt lat="32.9642551" lon="10.4603008"><ele>214.0</ele><time>2026-04-27T09:11:03.897Z</time></trkpt><trkpt lat="32.9643784" lon="10.4603074"><ele>213.0</ele><time>2026-04-27T09:11:04.883Z</time></trkpt><trkpt lat="32.9645052" lon="10.4603114"><ele>212.0</ele><time>2026-04-27T09:11:05.854Z</time></trkpt><trkpt lat="32.9646333" lon="10.4603142"><ele>211.0</ele><time>2026-04-27T09:11:06.864Z</time></trkpt><trkpt lat="32.9647634" lon="10.460322"><ele>211.0</ele><time>2026-04-27T09:11:07.867Z</time></trkpt><trkpt lat="32.9648978" lon="10.4603302"><ele>211.0</ele><time>2026-04-27T09:11:08.859Z</time></trkpt><trkpt lat="32.9650357" lon="10.4603401"><ele>211.0</ele><time>2026-04-27T09:11:09.87Z</time></trkpt><trkpt lat="32.9651648" lon="10.460354"><ele>211.0</ele><time>2026-04-27T09:11:10.85Z</time></trkpt><trkpt lat="32.9652912" lon="10.4603672"><ele>211.0</ele><time>2026-04-27T09:11:11.864Z</time></trkpt><trkpt lat="32.9654216" lon="10.4603737"><ele>211.0</ele><time>2026-04-27T09:11:12.866Z</time></trkpt><trkpt lat="32.9655538" lon="10.4603777"><ele>211.0</ele><time>2026-04-27T09:11:13.864Z</time></trkpt><trkpt lat="32.9656909" lon="10.4603814"><ele>211.0</ele><time>2026-04-27T09:11:14.864Z</time></trkpt><trkpt lat="32.9658272" lon="10.4603764"><ele>210.75</ele><time>2026-04-27T09:11:15.867Z</time></trkpt><trkpt lat="32.9659681" lon="10.460378"><ele>210.5</ele><time>2026-04-27T09:11:16.867Z</time></trkpt><trkpt lat="32.9661117" lon="10.4603832"><ele>210.25</ele><time>2026-04-27T09:11:17.864Z</time></trkpt><trkpt lat="32.9662511" lon="10.460388"><ele>210.0</ele><time>2026-04-27T09:11:18.84Z</time></trkpt><trkpt lat="32.966392" lon="10.4603985"><ele>210.0</ele><time>2026-04-27T09:11:19.865Z</time></trkpt><trkpt lat="32.9665344" lon="10.4604026"><ele>210.0</ele><time>2026-04-27T09:11:20.849Z</time></trkpt><trkpt lat="32.966685" lon="10.4604067"><ele>210.0</ele><time>2026-04-27T09:11:21.862Z</time></trkpt><trkpt lat="32.9668378" lon="10.4604134"><ele>210.0</ele><time>2026-04-27T09:11:22.847Z</time></trkpt><trkpt lat="32.9669903" lon="10.4604224"><ele>210.0</ele><time>2026-04-27T09:11:23.872Z</time></trkpt><trkpt lat="32.9671454" lon="10.4604323"><ele>210.0</ele><time>2026-04-27T09:11:24.869Z</time></trkpt><trkpt lat="32.9673045" lon="10.4604402"><ele>210.0</ele><time>2026-04-27T09:11:25.866Z</time></trkpt><trkpt lat="32.9674575" lon="10.4604486"><ele>210.25</ele><time>2026-04-27T09:11:26.86Z</time></trkpt><trkpt lat="32.9676045" lon="10.4604527"><ele>210.5</ele><time>2026-04-27T09:11:27.866Z</time></trkpt><trkpt lat="32.9677433" lon="10.4604634"><ele>210.75</ele><time>2026-04-27T09:11:28.858Z</time></trkpt><trkpt lat="32.9678683" lon="10.4604717"><ele>211.0</ele><time>2026-04-27T09:11:29.846Z</time></trkpt><trkpt lat="32.9679884" lon="10.4604835"><ele>210.99999999999997</ele><time>2026-04-27T09:11:30.87Z</time></trkpt><trkpt lat="32.9680973" lon="10.4604941"><ele>211.0</ele><time>2026-04-27T09:11:31.855Z</time></trkpt><trkpt lat="32.9681862" lon="10.4605103"><ele>211.0</ele><time>2026-04-27T09:11:32.843Z</time></trkpt><trkpt lat="32.9682623" lon="10.46052"><ele>211.0</ele><time>2026-04-27T09:11:33.834Z</time></trkpt><trkpt lat="32.9683269" lon="10.4605283"><ele>210.99999999999997</ele><time>2026-04-27T09:11:34.85Z</time></trkpt><trkpt lat="32.9684181" lon="10.4605736"><ele>211.0</ele><time>2026-04-27T09:11:36.861Z</time></trkpt><trkpt lat="32.9684695" lon="10.460623"><ele>210.66666666666666</ele><time>2026-04-27T09:11:39.854Z</time></trkpt><trkpt lat="32.9685223" lon="10.4606756"><ele>210.33333333333331</ele><time>2026-04-27T09:11:45.833Z</time></trkpt><trkpt lat="32.9686261" lon="10.4607713"><ele>210.0</ele><time>2026-04-27T09:21:24.829Z</time></trkpt><trkpt lat="32.9686893" lon="10.4607332"><ele>209.66666666666669</ele><time>2026-04-27T09:21:39.873Z</time></trkpt><trkpt lat="32.9687447" lon="10.4606618"><ele>209.33333333333334</ele><time>2026-04-27T09:21:42.865Z</time></trkpt><trkpt lat="32.9687889" lon="10.4606031"><ele>209.0</ele><time>2026-04-27T09:21:45.863Z</time></trkpt><trkpt lat="32.968892" lon="10.4605987"><ele>209.0</ele><time>2026-04-27T09:21:47.809Z</time></trkpt><trkpt lat="32.9689679" lon="10.4606019"><ele>209.0</ele><time>2026-04-27T09:21:48.8Z</time></trkpt><trkpt lat="32.96905" lon="10.4605982"><ele>209.0</ele><time>2026-04-27T09:21:49.837Z</time></trkpt><trkpt lat="32.9691392" lon="10.4605991"><ele>209.0</ele><time>2026-04-27T09:21:50.82Z</time></trkpt><trkpt lat="32.9692414" lon="10.4605996"><ele>209.0</ele><time>2026-04-27T09:21:51.821Z</time></trkpt><trkpt lat="32.9693483" lon="10.4605901"><ele>209.0</ele><time>2026-04-27T09:21:52.816Z</time></trkpt><trkpt lat="32.9695254" lon="10.4605638"><ele>209.0</ele><time>2026-04-27T09:21:54.826Z</time></trkpt><trkpt lat="32.9695925" lon="10.4605335"><ele>209.0</ele><time>2026-04-27T09:21:55.818Z</time></trkpt><trkpt lat="32.9696402" lon="10.4604834"><ele>209.0</ele><time>2026-04-27T09:21:56.816Z</time></trkpt><trkpt lat="32.9696399" lon="10.4603519"><ele>209.0</ele><time>2026-04-27T09:21:58.816Z</time></trkpt><trkpt lat="32.9695915" lon="10.4602973"><ele>209.0</ele><time>2026-04-27T09:21:59.839Z</time></trkpt><trkpt lat="32.9695384" lon="10.4602538"><ele>209.0</ele><time>2026-04-27T09:22:00.819Z</time></trkpt><trkpt lat="32.9694487" lon="10.4602508"><ele>209.0</ele><time>2026-04-27T09:22:01.833Z</time></trkpt><trkpt lat="32.9693441" lon="10.4602449"><ele>209.0</ele><time>2026-04-27T09:22:02.824Z</time></trkpt><trkpt lat="32.9692201" lon="10.4602491"><ele>209.0</ele><time>2026-04-27T09:22:03.818Z</time></trkpt><trkpt lat="32.9690982" lon="10.4602433"><ele>209.0</ele><time>2026-04-27T09:22:04.826Z</time></trkpt><trkpt lat="32.9689839" lon="10.4602385"><ele>209.0</ele><time>2026-04-27T09:22:05.836Z</time></trkpt><trkpt lat="32.9688705" lon="10.4602433"><ele>209.0</ele><time>2026-04-27T09:22:06.841Z</time></trkpt><trkpt lat="32.9687539" lon="10.4602359"><ele>209.0</ele><time>2026-04-27T09:22:07.856Z</time></trkpt><trkpt lat="32.9686322" lon="10.4602319"><ele>209.0</ele><time>2026-04-27T09:22:08.847Z</time></trkpt><trkpt lat="32.9685031" lon="10.4602319"><ele>209.0</ele><time>2026-04-27T09:22:09.831Z</time></trkpt><trkpt lat="32.9683711" lon="10.4602464"><ele>209.0</ele><time>2026-04-27T09:22:10.83Z</time></trkpt><trkpt lat="32.9682352" lon="10.4602698"><ele>209.0</ele><time>2026-04-27T09:22:11.829Z</time></trkpt><trkpt lat="32.9680878" lon="10.460287"><ele>209.0</ele><time>2026-04-27T09:22:12.846Z</time></trkpt><trkpt lat="32.9679375" lon="10.4602913"><ele>209.0</ele><time>2026-04-27T09:22:13.831Z</time></trkpt><trkpt lat="32.9677805" lon="10.4602804"><ele>209.0</ele><time>2026-04-27T09:22:14.852Z</time></trkpt><trkpt lat="32.9676144" lon="10.4602743"><ele>209.33333333333334</ele><time>2026-04-27T09:22:15.844Z</time></trkpt><trkpt lat="32.9674461" lon="10.4602738"><ele>209.66666666666669</ele><time>2026-04-27T09:22:16.817Z</time></trkpt><trkpt lat="32.9672745" lon="10.4602777"><ele>210.0</ele><time>2026-04-27T09:22:17.823Z</time></trkpt><trkpt lat="32.9670984" lon="10.4602749"><ele>210.0</ele><time>2026-04-27T09:22:18.839Z</time></trkpt><trkpt lat="32.9669249" lon="10.4602702"><ele>210.0</ele><time>2026-04-27T09:22:19.848Z</time></trkpt><trkpt lat="32.966758" lon="10.4602677"><ele>210.0</ele><time>2026-04-27T09:22:20.863Z</time></trkpt><trkpt lat="32.9665889" lon="10.4602606"><ele>210.0</ele><time>2026-04-27T09:22:21.832Z</time></trkpt><trkpt lat="32.9664192" lon="10.4602526"><ele>210.0</ele><time>2026-04-27T09:22:22.839Z</time></trkpt><trkpt lat="32.9662479" lon="10.4602425"><ele>210.0</ele><time>2026-04-27T09:22:23.846Z</time></trkpt><trkpt lat="32.9660772" lon="10.4602339"><ele>210.0</ele><time>2026-04-27T09:22:24.837Z</time></trkpt><trkpt lat="32.9659024" lon="10.4602278"><ele>210.0</ele><time>2026-04-27T09:22:25.835Z</time></trkpt><trkpt lat="32.965725" lon="10.4602172"><ele>210.0</ele><time>2026-04-27T09:22:26.84Z</time></trkpt><trkpt lat="32.9655537" lon="10.4602103"><ele>210.33333333333331</ele><time>2026-04-27T09:22:27.825Z</time></trkpt><trkpt lat="32.9653887" lon="10.4602052"><ele>210.66666666666666</ele><time>2026-04-27T09:22:28.848Z</time></trkpt><trkpt lat="32.9652405" lon="10.460198"><ele>211.0</ele><time>2026-04-27T09:22:29.831Z</time></trkpt><trkpt lat="32.9650993" lon="10.4601873"><ele>211.0</ele><time>2026-04-27T09:22:30.823Z</time></trkpt><trkpt lat="32.9649688" lon="10.460169"><ele>211.0</ele><time>2026-04-27T09:22:31.845Z</time></trkpt><trkpt lat="32.9648452" lon="10.4601521"><ele>211.0</ele><time>2026-04-27T09:22:32.846Z</time></trkpt><trkpt lat="32.9647293" lon="10.4601212"><ele>211.0</ele><time>2026-04-27T09:22:33.837Z</time></trkpt><trkpt lat="32.9646113" lon="10.460091"><ele>211.0</ele><time>2026-04-27T09:22:34.828Z</time></trkpt><trkpt lat="32.9644816" lon="10.4600593"><ele>211.0</ele><time>2026-04-27T09:22:35.836Z</time></trkpt><trkpt lat="32.9643366" lon="10.4600333"><ele>211.0</ele><time>2026-04-27T09:22:36.847Z</time></trkpt><trkpt lat="32.9641861" lon="10.4600174"><ele>211.0</ele><time>2026-04-27T09:22:37.847Z</time></trkpt><trkpt lat="32.9640362" lon="10.4600094"><ele>212.0</ele><time>2026-04-27T09:22:38.857Z</time></trkpt><trkpt lat="32.9638895" lon="10.4600128"><ele>213.0</ele><time>2026-04-27T09:22:39.841Z</time></trkpt><trkpt lat="32.963746" lon="10.4600205"><ele>214.0</ele><time>2026-04-27T09:22:40.84Z</time></trkpt><trkpt lat="32.9635978" lon="10.4600372"><ele>215.0</ele><time>2026-04-27T09:22:41.823Z</time></trkpt><trkpt lat="32.9634486" lon="10.460062"><ele>215.0</ele><time>2026-04-27T09:22:42.846Z</time></trkpt><trkpt lat="32.9633019" lon="10.4600772"><ele>215.0</ele><time>2026-04-27T09:22:43.85Z</time></trkpt><trkpt lat="32.9631473" lon="10.4600744"><ele>215.0</ele><time>2026-04-27T09:22:44.854Z</time></trkpt><trkpt lat="32.9629911" lon="10.4600662"><ele>215.0</ele><time>2026-04-27T09:22:45.836Z</time></trkpt><trkpt lat="32.9628385" lon="10.4600555"><ele>215.0</ele><time>2026-04-27T09:22:46.843Z</time></trkpt><trkpt lat="32.9626832" lon="10.4600461"><ele>215.0</ele><time>2026-04-27T09:22:47.841Z</time></trkpt><trkpt lat="32.9625248" lon="10.4600394"><ele>215.0</ele><time>2026-04-27T09:22:48.845Z</time></trkpt><trkpt lat="32.9623622" lon="10.4600301"><ele>215.0</ele><time>2026-04-27T09:22:49.836Z</time></trkpt><trkpt lat="32.9622024" lon="10.4600161"><ele>215.0</ele><time>2026-04-27T09:22:50.866Z</time></trkpt><trkpt lat="32.9620389" lon="10.460007"><ele>215.0</ele><time>2026-04-27T09:22:51.83Z</time></trkpt><trkpt lat="32.9618743" lon="10.459994"><ele>215.0</ele><time>2026-04-27T09:22:52.913Z</time></trkpt><trkpt lat="32.9615434" lon="10.4599761"><ele>215.0</ele><time>2026-04-27T09:22:54.832Z</time></trkpt><trkpt lat="32.9613721" lon="10.45997"><ele>215.0</ele><time>2026-04-27T09:22:55.816Z</time></trkpt><trkpt lat="32.9611952" lon="10.4599594"><ele>215.0</ele><time>2026-04-27T09:22:56.82Z</time></trkpt><trkpt lat="32.9610171" lon="10.4599417"><ele>215.33333333333334</ele><time>2026-04-27T09:22:57.827Z</time></trkpt><trkpt lat="32.9608355" lon="10.4599325"><ele>215.66666666666669</ele><time>2026-04-27T09:22:58.857Z</time></trkpt><trkpt lat="32.9606512" lon="10.4599226"><ele>216.0</ele><time>2026-04-27T09:22:59.833Z</time></trkpt><trkpt lat="32.9604626" lon="10.4599077"><ele>216.0</ele><time>2026-04-27T09:23:00.848Z</time></trkpt><trkpt lat="32.9602746" lon="10.4598948"><ele>216.0</ele><time>2026-04-27T09:23:01.853Z</time></trkpt><trkpt lat="32.960091" lon="10.4598833"><ele>216.0</ele><time>2026-04-27T09:23:02.816Z</time></trkpt><trkpt lat="32.9599105" lon="10.4598733"><ele>216.66666666666669</ele><time>2026-04-27T09:23:03.821Z</time></trkpt><trkpt lat="32.9597286" lon="10.4598656"><ele>217.33333333333334</ele><time>2026-04-27T09:23:04.855Z</time></trkpt><trkpt lat="32.9595478" lon="10.4598553"><ele>218.0</ele><time>2026-04-27T09:23:05.828Z</time></trkpt><trkpt lat="32.9593688" lon="10.459842"><ele>218.66666666666669</ele><time>2026-04-27T09:23:06.824Z</time></trkpt><trkpt lat="32.9591901" lon="10.4598291"><ele>219.33333333333331</ele><time>2026-04-27T09:23:07.847Z</time></trkpt><trkpt lat="32.9590091" lon="10.4598102"><ele>220.0</ele><time>2026-04-27T09:23:08.843Z</time></trkpt><trkpt lat="32.9588322" lon="10.4597832"><ele>220.0</ele><time>2026-04-27T09:23:09.841Z</time></trkpt><trkpt lat="32.9586506" lon="10.4597535"><ele>220.0</ele><time>2026-04-27T09:23:10.85Z</time></trkpt><trkpt lat="32.9584707" lon="10.4597066"><ele>220.0</ele><time>2026-04-27T09:23:11.826Z</time></trkpt><trkpt lat="32.9582933" lon="10.4596465"><ele>219.33333333333331</ele><time>2026-04-27T09:23:12.859Z</time></trkpt><trkpt lat="32.9581231" lon="10.459584"><ele>218.66666666666669</ele><time>2026-04-27T09:23:13.848Z</time></trkpt><trkpt lat="32.9579481" lon="10.4595194"><ele>218.0</ele><time>2026-04-27T09:23:14.841Z</time></trkpt><trkpt lat="32.9577796" lon="10.4594558"><ele>218.0</ele><time>2026-04-27T09:23:15.836Z</time></trkpt><trkpt lat="32.9576123" lon="10.4593941"><ele>218.0</ele><time>2026-04-27T09:23:16.845Z</time></trkpt><trkpt lat="32.9574489" lon="10.459333"><ele>218.0</ele><time>2026-04-27T09:23:17.85Z</time></trkpt><trkpt lat="32.9572914" lon="10.4592706"><ele>218.66666666666669</ele><time>2026-04-27T09:23:18.84Z</time></trkpt><trkpt lat="32.9571343" lon="10.4592075"><ele>219.33333333333331</ele><time>2026-04-27T09:23:19.841Z</time></trkpt><trkpt lat="32.9569841" lon="10.4591446"><ele>220.0</ele><time>2026-04-27T09:23:20.836Z</time></trkpt><trkpt lat="32.9568394" lon="10.4590788"><ele>220.5</ele><time>2026-04-27T09:23:21.832Z</time></trkpt><trkpt lat="32.9566997" lon="10.4590077"><ele>221.0</ele><time>2026-04-27T09:23:22.839Z</time></trkpt><trkpt lat="32.95657" lon="10.4589403"><ele>221.5</ele><time>2026-04-27T09:23:23.845Z</time></trkpt><trkpt lat="32.9564501" lon="10.4588721"><ele>222.0</ele><time>2026-04-27T09:23:24.858Z</time></trkpt><trkpt lat="32.9563458" lon="10.4588045"><ele>221.5</ele><time>2026-04-27T09:23:25.833Z</time></trkpt><trkpt lat="32.9562427" lon="10.458741"><ele>221.0</ele><time>2026-04-27T09:23:26.826Z</time></trkpt><trkpt lat="32.9561429" lon="10.4586741"><ele>220.5</ele><time>2026-04-27T09:23:27.833Z</time></trkpt><trkpt lat="32.9560407" lon="10.458608"><ele>220.0</ele><time>2026-04-27T09:23:28.852Z</time></trkpt><trkpt lat="32.955943" lon="10.4585413"><ele>220.5</ele><time>2026-04-27T09:23:29.846Z</time></trkpt><trkpt lat="32.9558425" lon="10.4584868"><ele>221.0</ele><time>2026-04-27T09:23:30.837Z</time></trkpt><trkpt lat="32.9557304" lon="10.4584453"><ele>221.5</ele><time>2026-04-27T09:23:31.822Z</time></trkpt><trkpt lat="32.9556133" lon="10.458412"><ele>222.0</ele><time>2026-04-27T09:23:32.85Z</time></trkpt><trkpt lat="32.9554967" lon="10.458381"><ele>222.0</ele><time>2026-04-27T09:23:33.841Z</time></trkpt><trkpt lat="32.9553726" lon="10.4583447"><ele>222.0</ele><time>2026-04-27T09:23:34.829Z</time></trkpt><trkpt lat="32.9552459" lon="10.4582981"><ele>222.0</ele><time>2026-04-27T09:23:35.819Z</time></trkpt><trkpt lat="32.95512" lon="10.4582499"><ele>222.0</ele><time>2026-04-27T09:23:36.843Z</time></trkpt><trkpt lat="32.9550003" lon="10.4581962"><ele>222.0</ele><time>2026-04-27T09:23:37.831Z</time></trkpt><trkpt lat="32.9548772" lon="10.4581381"><ele>222.0</ele><time>2026-04-27T09:23:38.84Z</time></trkpt><trkpt lat="32.9547554" lon="10.4580797"><ele>222.0</ele><time>2026-04-27T09:23:39.849Z</time></trkpt><trkpt lat="32.9546372" lon="10.4580203"><ele>222.0</ele><time>2026-04-27T09:23:40.841Z</time></trkpt><trkpt lat="32.9545198" lon="10.4579599"><ele>222.25</ele><time>2026-04-27T09:23:41.826Z</time></trkpt><trkpt lat="32.954404" lon="10.4578963"><ele>222.5</ele><time>2026-04-27T09:23:42.864Z</time></trkpt><trkpt lat="32.9542907" lon="10.4578365"><ele>222.75</ele><time>2026-04-27T09:23:43.84Z</time></trkpt><trkpt lat="32.9541757" lon="10.4577769"><ele>223.0</ele><time>2026-04-27T09:23:44.839Z</time></trkpt><trkpt lat="32.9540574" lon="10.45771"><ele>223.25</ele><time>2026-04-27T09:23:45.823Z</time></trkpt><trkpt lat="32.9539373" lon="10.4576478"><ele>223.5</ele><time>2026-04-27T09:23:46.824Z</time></trkpt><trkpt lat="32.953818" lon="10.4575826"><ele>223.75</ele><time>2026-04-27T09:23:47.849Z</time></trkpt><trkpt lat="32.9536951" lon="10.4575156"><ele>224.0</ele><time>2026-04-27T09:23:48.823Z</time></trkpt><trkpt lat="32.9535728" lon="10.4574531"><ele>224.0</ele><time>2026-04-27T09:23:49.814Z</time></trkpt><trkpt lat="32.9534552" lon="10.4573947"><ele>224.0</ele><time>2026-04-27T09:23:50.843Z</time></trkpt><trkpt lat="32.9533416" lon="10.4573376"><ele>224.0</ele><time>2026-04-27T09:23:51.822Z</time></trkpt><trkpt lat="32.9532311" lon="10.4572828"><ele>224.0</ele><time>2026-04-27T09:23:52.836Z</time></trkpt><trkpt lat="32.9531191" lon="10.4572295"><ele>224.0</ele><time>2026-04-27T09:23:53.846Z</time></trkpt><trkpt lat="32.9530174" lon="10.4571872"><ele>223.99999999999997</ele><time>2026-04-27T09:23:54.819Z</time></trkpt><trkpt lat="32.9529194" lon="10.4571455"><ele>223.99999999999997</ele><time>2026-04-27T09:23:55.849Z</time></trkpt><trkpt lat="32.9528352" lon="10.4571074"><ele>224.0</ele><time>2026-04-27T09:23:56.847Z</time></trkpt><trkpt lat="32.9527545" lon="10.4570736"><ele>224.0</ele><time>2026-04-27T09:23:57.85Z</time></trkpt><trkpt lat="32.9526712" lon="10.4570377"><ele>224.16666666666669</ele><time>2026-04-27T09:23:58.836Z</time></trkpt><trkpt lat="32.9525902" lon="10.4569998"><ele>224.33333333333334</ele><time>2026-04-27T09:23:59.826Z</time></trkpt><trkpt lat="32.9525093" lon="10.4569649"><ele>224.5</ele><time>2026-04-27T09:24:00.858Z</time></trkpt><trkpt lat="32.9524343" lon="10.4569304"><ele>224.66666666666669</ele><time>2026-04-27T09:24:01.862Z</time></trkpt><trkpt lat="32.9523617" lon="10.4569029"><ele>224.83333333333334</ele><time>2026-04-27T09:24:02.864Z</time></trkpt><trkpt lat="32.9522814" lon="10.4568733"><ele>225.0</ele><time>2026-04-27T09:24:03.87Z</time></trkpt><trkpt lat="32.9522001" lon="10.4568372"><ele>224.6</ele><time>2026-04-27T09:24:04.875Z</time></trkpt><trkpt lat="32.9521157" lon="10.4568008"><ele>224.2</ele><time>2026-04-27T09:24:05.865Z</time></trkpt><trkpt lat="32.9520272" lon="10.4567665"><ele>223.8</ele><time>2026-04-27T09:24:06.871Z</time></trkpt><trkpt lat="32.9519341" lon="10.4567375"><ele>223.4</ele><time>2026-04-27T09:24:07.862Z</time></trkpt><trkpt lat="32.9518417" lon="10.4567036"><ele>223.0</ele><time>2026-04-27T09:24:08.842Z</time></trkpt><trkpt lat="32.9517436" lon="10.4566726"><ele>223.0</ele><time>2026-04-27T09:24:09.864Z</time></trkpt><trkpt lat="32.9516427" lon="10.4566399"><ele>223.0</ele><time>2026-04-27T09:24:10.862Z</time></trkpt><trkpt lat="32.9515389" lon="10.4566054"><ele>223.0</ele><time>2026-04-27T09:24:11.827Z</time></trkpt><trkpt lat="32.9514322" lon="10.4565722"><ele>223.0</ele><time>2026-04-27T09:24:12.856Z</time></trkpt><trkpt lat="32.9513265" lon="10.4565398"><ele>223.0</ele><time>2026-04-27T09:24:13.838Z</time></trkpt><trkpt lat="32.9512305" lon="10.4565041"><ele>223.0</ele><time>2026-04-27T09:24:14.813Z</time></trkpt><trkpt lat="32.9511369" lon="10.4564748"><ele>223.0</ele><time>2026-04-27T09:24:15.847Z</time></trkpt><trkpt lat="32.9510398" lon="10.4564548"><ele>223.0</ele><time>2026-04-27T09:24:16.839Z</time></trkpt><trkpt lat="32.9509428" lon="10.4564379"><ele>223.0</ele><time>2026-04-27T09:24:17.85Z</time></trkpt><trkpt lat="32.9508478" lon="10.4564202"><ele>223.0</ele><time>2026-04-27T09:24:18.83Z</time></trkpt><trkpt lat="32.9507531" lon="10.4564096"><ele>222.99999999999997</ele><time>2026-04-27T09:24:19.825Z</time></trkpt><trkpt lat="32.9506587" lon="10.4564069"><ele>223.0</ele><time>2026-04-27T09:24:20.836Z</time></trkpt><trkpt lat="32.9505699" lon="10.4564016"><ele>223.0</ele><time>2026-04-27T09:24:21.854Z</time></trkpt><trkpt lat="32.9504861" lon="10.4564029"><ele>223.0</ele><time>2026-04-27T09:24:22.865Z</time></trkpt><trkpt lat="32.9504008" lon="10.4563993"><ele>222.99999999999997</ele><time>2026-04-27T09:24:23.86Z</time></trkpt><trkpt lat="32.9503185" lon="10.4563965"><ele>223.0</ele><time>2026-04-27T09:24:24.842Z</time></trkpt><trkpt lat="32.9502436" lon="10.4563908"><ele>223.0</ele><time>2026-04-27T09:24:25.864Z</time></trkpt><trkpt lat="32.9501302" lon="10.4563934"><ele>223.0</ele><time>2026-04-27T09:24:27.854Z</time></trkpt><trkpt lat="32.9500297" lon="10.4563965"><ele>223.0</ele><time>2026-04-27T09:24:29.865Z</time></trkpt><trkpt lat="32.9499107" lon="10.4564077"><ele>223.0</ele><time>2026-04-27T09:24:31.868Z</time></trkpt><trkpt lat="32.9497905" lon="10.4564037"><ele>223.2</ele><time>2026-04-27T09:24:33.865Z</time></trkpt><trkpt lat="32.9496628" lon="10.4564063"><ele>223.4</ele><time>2026-04-27T09:24:35.855Z</time></trkpt><trkpt lat="32.9495977" lon="10.4564101"><ele>223.59999999999997</ele><time>2026-04-27T09:24:36.858Z</time></trkpt><trkpt lat="32.9495236" lon="10.456413"><ele>223.79999999999998</ele><time>2026-04-27T09:24:37.841Z</time></trkpt><trkpt lat="32.9494346" lon="10.4564124"><ele>224.0</ele><time>2026-04-27T09:24:38.87Z</time></trkpt><trkpt lat="32.9493359" lon="10.4564132"><ele>224.0</ele><time>2026-04-27T09:24:39.843Z</time></trkpt><trkpt lat="32.9492326" lon="10.4564048"><ele>223.99999999999997</ele><time>2026-04-27T09:24:40.837Z</time></trkpt><trkpt lat="32.9491243" lon="10.4563958"><ele>223.99999999999997</ele><time>2026-04-27T09:24:41.81Z</time></trkpt><trkpt lat="32.949019" lon="10.4563895"><ele>224.0</ele><time>2026-04-27T09:24:42.808Z</time></trkpt><trkpt lat="32.9489134" lon="10.4563753"><ele>224.0</ele><time>2026-04-27T09:24:43.805Z</time></trkpt><trkpt lat="32.9488087" lon="10.4563578"><ele>223.79999999999998</ele><time>2026-04-27T09:24:44.81Z</time></trkpt><trkpt lat="32.9487093" lon="10.4563357"><ele>223.59999999999997</ele><time>2026-04-27T09:24:45.834Z</time></trkpt><trkpt lat="32.9486089" lon="10.4563076"><ele>223.4</ele><time>2026-04-27T09:24:46.839Z</time></trkpt><trkpt lat="32.9485083" lon="10.4562759"><ele>223.2</ele><time>2026-04-27T09:24:47.858Z</time></trkpt><trkpt lat="32.9484136" lon="10.4562416"><ele>223.0</ele><time>2026-04-27T09:24:48.871Z</time></trkpt><trkpt lat="32.9483175" lon="10.4562035"><ele>223.4</ele><time>2026-04-27T09:24:49.817Z</time></trkpt><trkpt lat="32.9482212" lon="10.4561674"><ele>223.8</ele><time>2026-04-27T09:24:50.858Z</time></trkpt><trkpt lat="32.9481256" lon="10.4561325"><ele>224.2</ele><time>2026-04-27T09:24:51.829Z</time></trkpt><trkpt lat="32.9480302" lon="10.4560946"><ele>224.6</ele><time>2026-04-27T09:24:52.842Z</time></trkpt><trkpt lat="32.9479468" lon="10.4560605"><ele>225.0</ele><time>2026-04-27T09:24:53.843Z</time></trkpt><trkpt lat="32.9478633" lon="10.4560253"><ele>225.0</ele><time>2026-04-27T09:24:54.849Z</time></trkpt><trkpt lat="32.9477837" lon="10.4559866"><ele>225.0</ele><time>2026-04-27T09:24:55.87Z</time></trkpt><trkpt lat="32.9477038" lon="10.4559464"><ele>225.0</ele><time>2026-04-27T09:24:56.851Z</time></trkpt><trkpt lat="32.9476275" lon="10.4558865"><ele>225.0</ele><time>2026-04-27T09:24:57.821Z</time></trkpt><trkpt lat="32.9475541" lon="10.4558456"><ele>225.0</ele><time>2026-04-27T09:24:58.821Z</time></trkpt><trkpt lat="32.947481" lon="10.4557918"><ele>225.0</ele><time>2026-04-27T09:24:59.857Z</time></trkpt><trkpt lat="32.9474061" lon="10.4557448"><ele>225.0</ele><time>2026-04-27T09:25:00.862Z</time></trkpt><trkpt lat="32.947337" lon="10.4556907"><ele>225.0</ele><time>2026-04-27T09:25:01.832Z</time></trkpt><trkpt lat="32.9472666" lon="10.4556368"><ele>225.0</ele><time>2026-04-27T09:25:02.825Z</time></trkpt><trkpt lat="32.9472001" lon="10.4555797"><ele>225.0</ele><time>2026-04-27T09:25:03.849Z</time></trkpt><trkpt lat="32.9471324" lon="10.4555147"><ele>225.0</ele><time>2026-04-27T09:25:04.859Z</time></trkpt><trkpt lat="32.9470654" lon="10.4554508"><ele>225.0</ele><time>2026-04-27T09:25:05.86Z</time></trkpt><trkpt lat="32.9469914" lon="10.4553869"><ele>225.33333333333334</ele><time>2026-04-27T09:25:06.866Z</time></trkpt><trkpt lat="32.9469214" lon="10.4553208"><ele>225.66666666666669</ele><time>2026-04-27T09:25:07.857Z</time></trkpt><trkpt lat="32.9468525" lon="10.4552517"><ele>226.0</ele><time>2026-04-27T09:25:08.802Z</time></trkpt><trkpt lat="32.9467818" lon="10.4551882"><ele>226.33333333333334</ele><time>2026-04-27T09:25:09.852Z</time></trkpt><trkpt lat="32.9467134" lon="10.4551276"><ele>226.66666666666669</ele><time>2026-04-27T09:25:10.855Z</time></trkpt><trkpt lat="32.9466447" lon="10.4550598"><ele>227.0</ele><time>2026-04-27T09:25:11.844Z</time></trkpt><trkpt lat="32.946576" lon="10.455001"><ele>227.0</ele><time>2026-04-27T09:25:12.855Z</time></trkpt><trkpt lat="32.9465067" lon="10.4549377"><ele>227.0</ele><time>2026-04-27T09:25:13.833Z</time></trkpt><trkpt lat="32.946436" lon="10.4548678"><ele>227.0</ele><time>2026-04-27T09:25:14.857Z</time></trkpt><trkpt lat="32.9463585" lon="10.4547919"><ele>227.0</ele><time>2026-04-27T09:25:15.858Z</time></trkpt><trkpt lat="32.9462853" lon="10.4547112"><ele>227.0</ele><time>2026-04-27T09:25:16.858Z</time></trkpt><trkpt lat="32.9462067" lon="10.4546234"><ele>226.8</ele><time>2026-04-27T09:25:17.84Z</time></trkpt><trkpt lat="32.9461256" lon="10.4545385"><ele>226.6</ele><time>2026-04-27T09:25:18.855Z</time></trkpt><trkpt lat="32.9460407" lon="10.4544524"><ele>226.40000000000003</ele><time>2026-04-27T09:25:19.83Z</time></trkpt><trkpt lat="32.9459527" lon="10.4543713"><ele>226.20000000000002</ele><time>2026-04-27T09:25:20.831Z</time></trkpt><trkpt lat="32.9458657" lon="10.4542864"><ele>226.0</ele><time>2026-04-27T09:25:21.86Z</time></trkpt><trkpt lat="32.9457808" lon="10.4542024"><ele>225.5</ele><time>2026-04-27T09:25:22.853Z</time></trkpt><trkpt lat="32.9456872" lon="10.4541211"><ele>225.0</ele><time>2026-04-27T09:25:23.862Z</time></trkpt><trkpt lat="32.9455879" lon="10.454032"><ele>224.5</ele><time>2026-04-27T09:25:24.865Z</time></trkpt><trkpt lat="32.9454818" lon="10.4539433"><ele>224.0</ele><time>2026-04-27T09:25:25.855Z</time></trkpt><trkpt lat="32.9453719" lon="10.4538578"><ele>225.0</ele><time>2026-04-27T09:25:26.863Z</time></trkpt><trkpt lat="32.9452587" lon="10.4537728"><ele>226.0</ele><time>2026-04-27T09:25:27.878Z</time></trkpt><trkpt lat="32.94514" lon="10.4536901"><ele>227.0</ele><time>2026-04-27T09:25:28.849Z</time></trkpt><trkpt lat="32.9450198" lon="10.4536133"><ele>228.0</ele><time>2026-04-27T09:25:29.838Z</time></trkpt><trkpt lat="32.9448913" lon="10.4535378"><ele>228.0</ele><time>2026-04-27T09:25:30.827Z</time></trkpt><trkpt lat="32.9447637" lon="10.4534684"><ele>228.0</ele><time>2026-04-27T09:25:31.868Z</time></trkpt><trkpt lat="32.9446362" lon="10.4533972"><ele>228.0</ele><time>2026-04-27T09:25:32.86Z</time></trkpt><trkpt lat="32.944505" lon="10.4533314"><ele>228.0</ele><time>2026-04-27T09:25:33.867Z</time></trkpt><trkpt lat="32.9443781" lon="10.4532736"><ele>228.0</ele><time>2026-04-27T09:25:34.867Z</time></trkpt><trkpt lat="32.9442493" lon="10.4532125"><ele>228.0</ele><time>2026-04-27T09:25:35.856Z</time></trkpt><trkpt lat="32.9441151" lon="10.4531579"><ele>228.0</ele><time>2026-04-27T09:25:36.853Z</time></trkpt><trkpt lat="32.9439845" lon="10.4531091"><ele>228.0</ele><time>2026-04-27T09:25:37.858Z</time></trkpt><trkpt lat="32.9438554" lon="10.4530574"><ele>228.0</ele><time>2026-04-27T09:25:38.86Z</time></trkpt><trkpt lat="32.9437264" lon="10.453007"><ele>228.0</ele><time>2026-04-27T09:25:39.86Z</time></trkpt><trkpt lat="32.9435956" lon="10.4529537"><ele>228.0</ele><time>2026-04-27T09:25:40.864Z</time></trkpt><trkpt lat="32.9434581" lon="10.4529051"><ele>228.0</ele><time>2026-04-27T09:25:41.838Z</time></trkpt><trkpt lat="32.9433234" lon="10.452863"><ele>227.25</ele><time>2026-04-27T09:25:42.837Z</time></trkpt><trkpt lat="32.943185" lon="10.4528201"><ele>226.5</ele><time>2026-04-27T09:25:43.858Z</time></trkpt><trkpt lat="32.9430511" lon="10.4527803"><ele>225.75</ele><time>2026-04-27T09:25:44.856Z</time></trkpt><trkpt lat="32.9429253" lon="10.4527448"><ele>225.0</ele><time>2026-04-27T09:25:45.847Z</time></trkpt><trkpt lat="32.9428005" lon="10.4527176"><ele>225.0</ele><time>2026-04-27T09:25:46.872Z</time></trkpt><trkpt lat="32.9426871" lon="10.4526934"><ele>225.0</ele><time>2026-04-27T09:25:47.863Z</time></trkpt><trkpt lat="32.942579" lon="10.4526759"><ele>225.0</ele><time>2026-04-27T09:25:48.863Z</time></trkpt><trkpt lat="32.9424817" lon="10.4526565"><ele>225.0</ele><time>2026-04-27T09:25:49.846Z</time></trkpt><trkpt lat="32.9423923" lon="10.4526417"><ele>225.0</ele><time>2026-04-27T09:25:50.861Z</time></trkpt><trkpt lat="32.9422977" lon="10.4526211"><ele>225.6</ele><time>2026-04-27T09:25:51.835Z</time></trkpt><trkpt lat="32.9421991" lon="10.4526026"><ele>226.2</ele><time>2026-04-27T09:25:52.844Z</time></trkpt><trkpt lat="32.9420959" lon="10.4525852"><ele>226.8</ele><time>2026-04-27T09:25:53.863Z</time></trkpt><trkpt lat="32.9419888" lon="10.452565"><ele>227.4</ele><time>2026-04-27T09:25:54.858Z</time></trkpt><trkpt lat="32.9418848" lon="10.4525451"><ele>228.0</ele><time>2026-04-27T09:25:55.839Z</time></trkpt><trkpt lat="32.9417873" lon="10.4525236"><ele>228.0</ele><time>2026-04-27T09:25:56.837Z</time></trkpt><trkpt lat="32.9416963" lon="10.452508"><ele>228.0</ele><time>2026-04-27T09:25:57.824Z</time></trkpt><trkpt lat="32.941611" lon="10.452492"><ele>228.0</ele><time>2026-04-27T09:25:58.834Z</time></trkpt><trkpt lat="32.941529" lon="10.4524747"><ele>228.0</ele><time>2026-04-27T09:25:59.857Z</time></trkpt><trkpt lat="32.9414489" lon="10.4524582"><ele>228.0</ele><time>2026-04-27T09:26:00.868Z</time></trkpt><trkpt lat="32.9413691" lon="10.4524355"><ele>228.0</ele><time>2026-04-27T09:26:01.826Z</time></trkpt><trkpt lat="32.9412962" lon="10.4524172"><ele>228.0</ele><time>2026-04-27T09:26:02.841Z</time></trkpt><trkpt lat="32.9412258" lon="10.4524026"><ele>228.0</ele><time>2026-04-27T09:26:03.845Z</time></trkpt><trkpt lat="32.9411603" lon="10.4523905"><ele>228.0</ele><time>2026-04-27T09:26:04.815Z</time></trkpt><trkpt lat="32.9410549" lon="10.4523633"><ele>228.0</ele><time>2026-04-27T09:26:06.859Z</time></trkpt><trkpt lat="32.940954" lon="10.4523362"><ele>228.0</ele><time>2026-04-27T09:26:08.853Z</time></trkpt><trkpt lat="32.9408503" lon="10.4523185"><ele>227.85714285714283</ele><time>2026-04-27T09:26:10.865Z</time></trkpt><trkpt lat="32.9407388" lon="10.4523039"><ele>227.7142857142857</ele><time>2026-04-27T09:26:12.867Z</time></trkpt><trkpt lat="32.9406739" lon="10.452297"><ele>227.57142857142856</ele><time>2026-04-27T09:26:13.835Z</time></trkpt><trkpt lat="32.9406063" lon="10.4522873"><ele>227.42857142857144</ele><time>2026-04-27T09:26:14.852Z</time></trkpt><trkpt lat="32.9405374" lon="10.4522758"><ele>227.2857142857143</ele><time>2026-04-27T09:26:15.839Z</time></trkpt><trkpt lat="32.9404733" lon="10.4522625"><ele>227.14285714285717</ele><time>2026-04-27T09:26:16.848Z</time></trkpt><trkpt lat="32.9404061" lon="10.4522458"><ele>227.0</ele><time>2026-04-27T09:26:17.855Z</time></trkpt><trkpt lat="32.9403336" lon="10.4522307"><ele>227.0</ele><time>2026-04-27T09:26:18.861Z</time></trkpt><trkpt lat="32.9402486" lon="10.4522145"><ele>227.0</ele><time>2026-04-27T09:26:19.867Z</time></trkpt><trkpt lat="32.9401494" lon="10.4521957"><ele>227.0</ele><time>2026-04-27T09:26:20.834Z</time></trkpt><trkpt lat="32.940043" lon="10.4521737"><ele>227.0</ele><time>2026-04-27T09:26:21.831Z</time></trkpt><trkpt lat="32.9399342" lon="10.4521456"><ele>227.0</ele><time>2026-04-27T09:26:22.847Z</time></trkpt><trkpt lat="32.9398228" lon="10.452124"><ele>227.75</ele><time>2026-04-27T09:26:23.829Z</time></trkpt><trkpt lat="32.9397074" lon="10.4520955"><ele>228.5</ele><time>2026-04-27T09:26:24.845Z</time></trkpt><trkpt lat="32.9395929" lon="10.4520694"><ele>229.25</ele><time>2026-04-27T09:26:25.845Z</time></trkpt><trkpt lat="32.9394749" lon="10.4520466"><ele>230.0</ele><time>2026-04-27T09:26:26.826Z</time></trkpt><trkpt lat="32.9393638" lon="10.4520258"><ele>230.0</ele><time>2026-04-27T09:26:27.82Z</time></trkpt><trkpt lat="32.9392505" lon="10.452004"><ele>230.0</ele><time>2026-04-27T09:26:28.838Z</time></trkpt><trkpt lat="32.9391377" lon="10.4519914"><ele>230.0</ele><time>2026-04-27T09:26:29.856Z</time></trkpt><trkpt lat="32.9390247" lon="10.4519735"><ele>230.0</ele><time>2026-04-27T09:26:30.861Z</time></trkpt><trkpt lat="32.938919" lon="10.4519571"><ele>230.0</ele><time>2026-04-27T09:26:31.859Z</time></trkpt><trkpt lat="32.9388196" lon="10.4519323"><ele>230.4</ele><time>2026-04-27T09:26:32.856Z</time></trkpt><trkpt lat="32.9387205" lon="10.4519122"><ele>230.8</ele><time>2026-04-27T09:26:33.843Z</time></trkpt><trkpt lat="32.9386285" lon="10.4518961"><ele>231.2</ele><time>2026-04-27T09:26:34.852Z</time></trkpt><trkpt lat="32.938533" lon="10.4518811"><ele>231.6</ele><time>2026-04-27T09:26:35.855Z</time></trkpt><trkpt lat="32.9384363" lon="10.451866"><ele>232.0</ele><time>2026-04-27T09:26:36.865Z</time></trkpt><trkpt lat="32.9383434" lon="10.4518475"><ele>232.0</ele><time>2026-04-27T09:26:37.864Z</time></trkpt><trkpt lat="32.9382554" lon="10.4518319"><ele>232.0</ele><time>2026-04-27T09:26:38.859Z</time></trkpt><trkpt lat="32.9381582" lon="10.4518155"><ele>232.0</ele><time>2026-04-27T09:26:39.849Z</time></trkpt><trkpt lat="32.9380421" lon="10.4518018"><ele>232.0</ele><time>2026-04-27T09:26:40.869Z</time></trkpt><trkpt lat="32.937924" lon="10.4517808"><ele>232.0</ele><time>2026-04-27T09:26:41.863Z</time></trkpt><trkpt lat="32.9378075" lon="10.4517593"><ele>231.99999999999997</ele><time>2026-04-27T09:26:42.851Z</time></trkpt><trkpt lat="32.9377065" lon="10.451738"><ele>232.0</ele><time>2026-04-27T09:26:43.856Z</time></trkpt><trkpt lat="32.9376146" lon="10.4517153"><ele>232.0</ele><time>2026-04-27T09:26:44.846Z</time></trkpt><trkpt lat="32.9375374" lon="10.4517007"><ele>232.0</ele><time>2026-04-27T09:26:45.831Z</time></trkpt><trkpt lat="32.9374647" lon="10.4516848"><ele>231.99999999999997</ele><time>2026-04-27T09:26:46.838Z</time></trkpt><trkpt lat="32.9373959" lon="10.4516745"><ele>232.0</ele><time>2026-04-27T09:26:47.866Z</time></trkpt><trkpt lat="32.9373272" lon="10.4516566"><ele>232.33333333333331</ele><time>2026-04-27T09:26:48.851Z</time></trkpt><trkpt lat="32.9372585" lon="10.4516452"><ele>232.66666666666666</ele><time>2026-04-27T09:26:49.839Z</time></trkpt><trkpt lat="32.9371926" lon="10.4516331"><ele>233.0</ele><time>2026-04-27T09:26:50.87Z</time></trkpt><trkpt lat="32.9371257" lon="10.4516176"><ele>233.33333333333331</ele><time>2026-04-27T09:26:51.832Z</time></trkpt><trkpt lat="32.9370649" lon="10.4515963"><ele>233.66666666666666</ele><time>2026-04-27T09:26:52.854Z</time></trkpt><trkpt lat="32.9369625" lon="10.4515784"><ele>234.0</ele><time>2026-04-27T09:26:54.828Z</time></trkpt><trkpt lat="32.9368721" lon="10.4515504"><ele>234.0</ele><time>2026-04-27T09:26:56.853Z</time></trkpt><trkpt lat="32.9367759" lon="10.4515309"><ele>233.99999999999997</ele><time>2026-04-27T09:26:58.849Z</time></trkpt><trkpt lat="32.9367069" lon="10.45152"><ele>233.99999999999997</ele><time>2026-04-27T09:26:59.823Z</time></trkpt><trkpt lat="32.9366155" lon="10.4515058"><ele>234.0</ele><time>2026-04-27T09:27:00.866Z</time></trkpt><trkpt lat="32.9365042" lon="10.4514873"><ele>234.0</ele><time>2026-04-27T09:27:01.861Z</time></trkpt><trkpt lat="32.9363967" lon="10.4514671"><ele>234.0</ele><time>2026-04-27T09:27:02.855Z</time></trkpt><trkpt lat="32.936305" lon="10.4514475"><ele>234.0</ele><time>2026-04-27T09:27:03.848Z</time></trkpt><trkpt lat="32.9362265" lon="10.451434"><ele>234.0</ele><time>2026-04-27T09:27:04.845Z</time></trkpt><trkpt lat="32.9361558" lon="10.4514186"><ele>234.0</ele><time>2026-04-27T09:27:05.857Z</time></trkpt><trkpt lat="32.9360857" lon="10.4514061"><ele>234.0</ele><time>2026-04-27T09:27:06.86Z</time></trkpt><trkpt lat="32.9360152" lon="10.4513952"><ele>234.0</ele><time>2026-04-27T09:27:07.852Z</time></trkpt><trkpt lat="32.9359455" lon="10.4513886"><ele>233.83333333333334</ele><time>2026-04-27T09:27:08.846Z</time></trkpt><trkpt lat="32.9358794" lon="10.4513805"><ele>233.66666666666669</ele><time>2026-04-27T09:27:09.84Z</time></trkpt><trkpt lat="32.9357573" lon="10.4513539"><ele>233.5</ele><time>2026-04-27T09:27:11.866Z</time></trkpt><trkpt lat="32.9356935" lon="10.4513424"><ele>233.33333333333334</ele><time>2026-04-27T09:27:12.855Z</time></trkpt><trkpt lat="32.9356113" lon="10.4513309"><ele>233.16666666666669</ele><time>2026-04-27T09:27:13.859Z</time></trkpt><trkpt lat="32.9355123" lon="10.4513177"><ele>233.0</ele><time>2026-04-27T09:27:14.848Z</time></trkpt><trkpt lat="32.9354027" lon="10.4512943"><ele>233.00000000000003</ele><time>2026-04-27T09:27:15.85Z</time></trkpt><trkpt lat="32.9352977" lon="10.4512733"><ele>233.0</ele><time>2026-04-27T09:27:16.852Z</time></trkpt><trkpt lat="32.9352103" lon="10.4512505"><ele>233.0</ele><time>2026-04-27T09:27:17.829Z</time></trkpt><trkpt lat="32.9351291" lon="10.4512299"><ele>233.0</ele><time>2026-04-27T09:27:18.852Z</time></trkpt><trkpt lat="32.9350498" lon="10.4512095"><ele>233.00000000000003</ele><time>2026-04-27T09:27:19.85Z</time></trkpt><trkpt lat="32.9349717" lon="10.4511937"><ele>233.0</ele><time>2026-04-27T09:27:20.816Z</time></trkpt><trkpt lat="32.9348904" lon="10.4511809"><ele>233.50000000000003</ele><time>2026-04-27T09:27:21.86Z</time></trkpt><trkpt lat="32.9348147" lon="10.4511645"><ele>234.0</ele><time>2026-04-27T09:27:22.86Z</time></trkpt><trkpt lat="32.934738" lon="10.4511527"><ele>234.5</ele><time>2026-04-27T09:27:23.85Z</time></trkpt><trkpt lat="32.9346613" lon="10.4511382"><ele>235.0</ele><time>2026-04-27T09:27:24.844Z</time></trkpt><trkpt lat="32.9345828" lon="10.451135"><ele>235.50000000000003</ele><time>2026-04-27T09:27:25.809Z</time></trkpt><trkpt lat="32.9345056" lon="10.4511234"><ele>236.0</ele><time>2026-04-27T09:27:26.82Z</time></trkpt><trkpt lat="32.9344362" lon="10.4511151"><ele>236.00000000000003</ele><time>2026-04-27T09:27:27.866Z</time></trkpt><trkpt lat="32.9343726" lon="10.4511055"><ele>236.0</ele><time>2026-04-27T09:27:28.811Z</time></trkpt><trkpt lat="32.9342447" lon="10.4510892"><ele>236.0</ele><time>2026-04-27T09:27:30.849Z</time></trkpt><trkpt lat="32.9341804" lon="10.4510795"><ele>236.0</ele><time>2026-04-27T09:27:31.821Z</time></trkpt><trkpt lat="32.9341135" lon="10.4510693"><ele>236.00000000000003</ele><time>2026-04-27T09:27:32.852Z</time></trkpt><trkpt lat="32.9340473" lon="10.4510548"><ele>236.0</ele><time>2026-04-27T09:27:33.833Z</time></trkpt><trkpt lat="32.9339268" lon="10.4510341"><ele>236.20000000000002</ele><time>2026-04-27T09:27:35.851Z</time></trkpt><trkpt lat="32.9338198" lon="10.4510086"><ele>236.40000000000003</ele><time>2026-04-27T09:27:37.858Z</time></trkpt><trkpt lat="32.9337053" lon="10.4509878"><ele>236.6</ele><time>2026-04-27T09:27:39.858Z</time></trkpt><trkpt lat="32.9336059" lon="10.4509611"><ele>236.8</ele><time>2026-04-27T09:27:41.838Z</time></trkpt><trkpt lat="32.9335045" lon="10.4509367"><ele>237.0</ele><time>2026-04-27T09:27:43.859Z</time></trkpt><trkpt lat="32.933386" lon="10.4509169"><ele>236.6</ele><time>2026-04-27T09:27:45.847Z</time></trkpt><trkpt lat="32.9332779" lon="10.4508973"><ele>236.2</ele><time>2026-04-27T09:27:47.857Z</time></trkpt><trkpt lat="32.9331685" lon="10.4508636"><ele>235.8</ele><time>2026-04-27T09:27:49.853Z</time></trkpt><trkpt lat="32.9330452" lon="10.450816"><ele>235.4</ele><time>2026-04-27T09:27:51.864Z</time></trkpt><trkpt lat="32.9329776" lon="10.4507934"><ele>235.0</ele><time>2026-04-27T09:27:52.848Z</time></trkpt><trkpt lat="32.932869" lon="10.4507645"><ele>234.99999999999997</ele><time>2026-04-27T09:27:54.853Z</time></trkpt><trkpt lat="32.9327774" lon="10.4507501"><ele>235.0</ele><time>2026-04-27T09:27:56.855Z</time></trkpt><trkpt lat="32.9327042" lon="10.4507308"><ele>235.0</ele><time>2026-04-27T09:27:58.85Z</time></trkpt><trkpt lat="32.9326099" lon="10.4507068"><ele>235.0</ele><time>2026-04-27T09:28:00.821Z</time></trkpt><trkpt lat="32.9325312" lon="10.4506903"><ele>234.99999999999997</ele><time>2026-04-27T09:28:03.87Z</time></trkpt><trkpt lat="32.9324686" lon="10.4506761"><ele>235.0</ele><time>2026-04-27T09:28:07.862Z</time></trkpt><trkpt lat="32.9323942" lon="10.4506533"><ele>235.33333333333331</ele><time>2026-04-27T09:28:11.811Z</time></trkpt><trkpt lat="32.9323102" lon="10.4506425"><ele>235.66666666666666</ele><time>2026-04-27T09:28:13.814Z</time></trkpt><trkpt lat="32.9322029" lon="10.4506124"><ele>236.0</ele><time>2026-04-27T09:28:15.81Z</time></trkpt><trkpt lat="32.9321056" lon="10.4505926"><ele>236.33333333333331</ele><time>2026-04-27T09:28:17.804Z</time></trkpt><trkpt lat="32.9320273" lon="10.4505715"><ele>236.66666666666666</ele><time>2026-04-27T09:28:19.805Z</time></trkpt><trkpt lat="32.9319584" lon="10.4505855"><ele>237.0</ele><time>2026-04-27T09:28:24.812Z</time></trkpt><trkpt lat="32.9318967" lon="10.4505578"><ele>237.0</ele><time>2026-04-27T09:28:26.815Z</time></trkpt><trkpt lat="32.9318289" lon="10.4505324"><ele>237.0</ele><time>2026-04-27T09:28:28.796Z</time></trkpt><trkpt lat="32.9317564" lon="10.4504898"><ele>237.0</ele><time>2026-04-27T09:28:30.807Z</time></trkpt><trkpt lat="32.9316768" lon="10.4504345"><ele>237.0</ele><time>2026-04-27T09:28:33.803Z</time></trkpt><trkpt lat="32.9315965" lon="10.4503811"><ele>237.0</ele><time>2026-04-27T09:28:36.802Z</time></trkpt><trkpt lat="32.9315478" lon="10.4503177"><ele>237.0</ele><time>2026-04-27T09:28:38.81Z</time></trkpt><trkpt lat="32.9315026" lon="10.4502256"><ele>237.33333333333334</ele><time>2026-04-27T09:28:41.811Z</time></trkpt><trkpt lat="32.9314591" lon="10.4501277"><ele>237.66666666666669</ele><time>2026-04-27T09:28:44.816Z</time></trkpt><trkpt lat="32.9314191" lon="10.4500614"><ele>238.0</ele><time>2026-04-27T09:28:46.812Z</time></trkpt><trkpt lat="32.9313857" lon="10.4499952"><ele>238.33333333333334</ele><time>2026-04-27T09:28:48.814Z</time></trkpt><trkpt lat="32.931338" lon="10.4499187"><ele>238.66666666666669</ele><time>2026-04-27T09:28:50.806Z</time></trkpt><trkpt lat="32.9312928" lon="10.4498193"><ele>239.0</ele><time>2026-04-27T09:28:52.803Z</time></trkpt><trkpt lat="32.9312482" lon="10.4497391"><ele>239.00000000000003</ele><time>2026-04-27T09:28:54.811Z</time></trkpt><trkpt lat="32.9312062" lon="10.4496639"><ele>239.0</ele><time>2026-04-27T09:28:56.813Z</time></trkpt><trkpt lat="32.9311566" lon="10.4495795"><ele>239.0</ele><time>2026-04-27T09:29:08.808Z</time></trkpt><trkpt lat="32.9311256" lon="10.4495117"><ele>239.0</ele><time>2026-04-27T09:29:10.81Z</time></trkpt><trkpt lat="32.9310784" lon="10.4494153"><ele>239.00000000000003</ele><time>2026-04-27T09:29:12.811Z</time></trkpt><trkpt lat="32.9310321" lon="10.4493066"><ele>239.0</ele><time>2026-04-27T09:29:14.808Z</time></trkpt><trkpt lat="32.9309721" lon="10.4491982"><ele>239.0</ele><time>2026-04-27T09:29:16.814Z</time></trkpt><trkpt lat="32.9309148" lon="10.4490879"><ele>239.0</ele><time>2026-04-27T09:29:18.813Z</time></trkpt><trkpt lat="32.9308598" lon="10.4489709"><ele>239.0</ele><time>2026-04-27T09:29:20.798Z</time></trkpt><trkpt lat="32.9307934" lon="10.4488517"><ele>239.0</ele><time>2026-04-27T09:29:22.812Z</time></trkpt><trkpt lat="32.9307277" lon="10.4487316"><ele>238.5</ele><time>2026-04-27T09:29:24.808Z</time></trkpt><trkpt lat="32.930664" lon="10.4486103"><ele>238.0</ele><time>2026-04-27T09:29:26.807Z</time></trkpt><trkpt lat="32.9306039" lon="10.4484848"><ele>237.5</ele><time>2026-04-27T09:29:28.819Z</time></trkpt><trkpt lat="32.9305435" lon="10.4483633"><ele>237.0</ele><time>2026-04-27T09:29:30.818Z</time></trkpt><trkpt lat="32.9304809" lon="10.4482401"><ele>237.0</ele><time>2026-04-27T09:29:32.816Z</time></trkpt><trkpt lat="32.9304245" lon="10.4481163"><ele>237.0</ele><time>2026-04-27T09:29:34.809Z</time></trkpt><trkpt lat="32.9303878" lon="10.4480543"><ele>237.0</ele><time>2026-04-27T09:29:35.806Z</time></trkpt><trkpt lat="32.9303277" lon="10.4479279"><ele>237.0</ele><time>2026-04-27T09:29:37.811Z</time></trkpt><trkpt lat="32.9302711" lon="10.4478131"><ele>237.0</ele><time>2026-04-27T09:29:39.815Z</time></trkpt><trkpt lat="32.9302374" lon="10.4477453"><ele>237.0</ele><time>2026-04-27T09:29:40.806Z</time></trkpt><trkpt lat="32.9302054" lon="10.4476749"><ele>237.0</ele><time>2026-04-27T09:29:41.815Z</time></trkpt><trkpt lat="32.9301345" lon="10.4475488"><ele>237.0</ele><time>2026-04-27T09:29:43.822Z</time></trkpt><trkpt lat="32.9300977" lon="10.447481"><ele>237.0</ele><time>2026-04-27T09:29:44.81Z</time></trkpt><trkpt lat="32.9300606" lon="10.4474137"><ele>237.0</ele><time>2026-04-27T09:29:45.812Z</time></trkpt><trkpt lat="32.9300248" lon="10.4473518"><ele>237.0</ele><time>2026-04-27T09:29:46.811Z</time></trkpt><trkpt lat="32.9299839" lon="10.4472886"><ele>237.0</ele><time>2026-04-27T09:29:47.802Z</time></trkpt><trkpt lat="32.9299157" lon="10.447191"><ele>237.0</ele><time>2026-04-27T09:29:49.8Z</time></trkpt><trkpt lat="32.9298446" lon="10.4471055"><ele>237.0</ele><time>2026-04-27T09:29:51.807Z</time></trkpt><trkpt lat="32.9297755" lon="10.4470284"><ele>237.0</ele><time>2026-04-27T09:29:53.816Z</time></trkpt><trkpt lat="32.9297064" lon="10.4469492"><ele>237.0</ele><time>2026-04-27T09:29:55.808Z</time></trkpt><trkpt lat="32.9296319" lon="10.4468705"><ele>237.0</ele><time>2026-04-27T09:29:57.811Z</time></trkpt><trkpt lat="32.929542" lon="10.4467968"><ele>237.0</ele><time>2026-04-27T09:29:59.807Z</time></trkpt><trkpt lat="32.929447" lon="10.4466994"><ele>237.0</ele><time>2026-04-27T09:30:01.812Z</time></trkpt><trkpt lat="32.9293976" lon="10.4466471"><ele>237.0</ele><time>2026-04-27T09:30:02.802Z</time></trkpt><trkpt lat="32.929304" lon="10.4465586"><ele>237.0</ele><time>2026-04-27T09:30:04.807Z</time></trkpt><trkpt lat="32.9292155" lon="10.4464735"><ele>236.8</ele><time>2026-04-27T09:30:06.809Z</time></trkpt><trkpt lat="32.9291334" lon="10.4463925"><ele>236.6</ele><time>2026-04-27T09:30:08.812Z</time></trkpt><trkpt lat="32.9290534" lon="10.4463144"><ele>236.40000000000003</ele><time>2026-04-27T09:30:10.807Z</time></trkpt><trkpt lat="32.9289719" lon="10.4462447"><ele>236.20000000000002</ele><time>2026-04-27T09:30:12.819Z</time></trkpt><trkpt lat="32.9288869" lon="10.4461632"><ele>236.0</ele><time>2026-04-27T09:30:14.814Z</time></trkpt><trkpt lat="32.9287983" lon="10.4460658"><ele>236.0</ele><time>2026-04-27T09:30:16.816Z</time></trkpt><trkpt lat="32.9287032" lon="10.4459664"><ele>236.00000000000003</ele><time>2026-04-27T09:30:18.812Z</time></trkpt><trkpt lat="32.9286517" lon="10.4459133"><ele>236.00000000000003</ele><time>2026-04-27T09:30:19.82Z</time></trkpt><trkpt lat="32.9285959" lon="10.4458621"><ele>236.0</ele><time>2026-04-27T09:30:20.815Z</time></trkpt><trkpt lat="32.928545" lon="10.445814"><ele>236.0</ele><time>2026-04-27T09:30:21.806Z</time></trkpt><trkpt lat="32.9284508" lon="10.4457226"><ele>236.0</ele><time>2026-04-27T09:30:23.804Z</time></trkpt><trkpt lat="32.9284014" lon="10.4456657"><ele>236.0</ele><time>2026-04-27T09:30:24.803Z</time></trkpt><trkpt lat="32.9283463" lon="10.4456103"><ele>236.0</ele><time>2026-04-27T09:30:25.813Z</time></trkpt><trkpt lat="32.9282898" lon="10.4455613"><ele>236.0</ele><time>2026-04-27T09:30:26.811Z</time></trkpt><trkpt lat="32.9282294" lon="10.4455114"><ele>236.0</ele><time>2026-04-27T09:30:27.801Z</time></trkpt><trkpt lat="32.9281703" lon="10.44546"><ele>236.0</ele><time>2026-04-27T09:30:28.818Z</time></trkpt><trkpt lat="32.9281156" lon="10.4454046"><ele>236.0</ele><time>2026-04-27T09:30:29.813Z</time></trkpt><trkpt lat="32.9280681" lon="10.4453511"><ele>236.50000000000003</ele><time>2026-04-27T09:30:30.805Z</time></trkpt><trkpt lat="32.9280158" lon="10.4453022"><ele>237.0</ele><time>2026-04-27T09:30:31.813Z</time></trkpt><trkpt lat="32.9279663" lon="10.4452472"><ele>237.5</ele><time>2026-04-27T09:30:32.815Z</time></trkpt><trkpt lat="32.9278868" lon="10.4451502"><ele>238.0</ele><time>2026-04-27T09:30:34.8Z</time></trkpt><trkpt lat="32.9278281" lon="10.4450826"><ele>238.50000000000003</ele><time>2026-04-27T09:30:36.812Z</time></trkpt><trkpt lat="32.9277748" lon="10.4450393"><ele>239.0</ele><time>2026-04-27T09:30:38.817Z</time></trkpt><trkpt lat="32.9277108" lon="10.4449719"><ele>239.0</ele><time>2026-04-27T09:30:40.821Z</time></trkpt><trkpt lat="32.9276349" lon="10.4448699"><ele>239.0</ele><time>2026-04-27T09:30:42.806Z</time></trkpt><trkpt lat="32.9275488" lon="10.4447708"><ele>239.0</ele><time>2026-04-27T09:30:44.806Z</time></trkpt><trkpt lat="32.9274735" lon="10.4446589"><ele>239.0</ele><time>2026-04-27T09:30:46.81Z</time></trkpt><trkpt lat="32.9274007" lon="10.4445455"><ele>238.83333333333334</ele><time>2026-04-27T09:30:48.8Z</time></trkpt><trkpt lat="32.9273607" lon="10.4444862"><ele>238.66666666666669</ele><time>2026-04-27T09:30:49.8Z</time></trkpt><trkpt lat="32.9273226" lon="10.4444233"><ele>238.5</ele><time>2026-04-27T09:30:50.814Z</time></trkpt><trkpt lat="32.9272794" lon="10.4443617"><ele>238.33333333333331</ele><time>2026-04-27T09:30:51.812Z</time></trkpt><trkpt lat="32.9272402" lon="10.4442967"><ele>238.16666666666666</ele><time>2026-04-27T09:30:52.884Z</time></trkpt><trkpt lat="32.9271766" lon="10.4441825"><ele>238.0</ele><time>2026-04-27T09:30:54.849Z</time></trkpt><trkpt lat="32.9271191" lon="10.4440944"><ele>238.0</ele><time>2026-04-27T09:30:56.805Z</time></trkpt><trkpt lat="32.9270691" lon="10.4440021"><ele>238.0</ele><time>2026-04-27T09:30:58.826Z</time></trkpt><trkpt lat="32.9270131" lon="10.4439114"><ele>238.0</ele><time>2026-04-27T09:31:00.805Z</time></trkpt><trkpt lat="32.9269508" lon="10.4437987"><ele>238.0</ele><time>2026-04-27T09:31:02.824Z</time></trkpt><trkpt lat="32.9268875" lon="10.4436712"><ele>238.0</ele><time>2026-04-27T09:31:04.807Z</time></trkpt><trkpt lat="32.9268288" lon="10.4435514"><ele>238.2</ele><time>2026-04-27T09:31:06.821Z</time></trkpt><trkpt lat="32.9267986" lon="10.4434519"><ele>238.4</ele><time>2026-04-27T09:31:08.813Z</time></trkpt><trkpt lat="32.926779" lon="10.4433516"><ele>238.59999999999997</ele><time>2026-04-27T09:31:10.814Z</time></trkpt><trkpt lat="32.9267508" lon="10.4432412"><ele>238.79999999999998</ele><time>2026-04-27T09:31:12.808Z</time></trkpt><trkpt lat="32.9267134" lon="10.443092"><ele>239.0</ele><time>2026-04-27T09:31:14.812Z</time></trkpt><trkpt lat="32.9266843" lon="10.4430047"><ele>239.33333333333334</ele><time>2026-04-27T09:31:15.805Z</time></trkpt><trkpt lat="32.9266502" lon="10.4429053"><ele>239.66666666666669</ele><time>2026-04-27T09:31:16.815Z</time></trkpt><trkpt lat="32.9266154" lon="10.4428095"><ele>240.0</ele><time>2026-04-27T09:31:17.807Z</time></trkpt><trkpt lat="32.9265793" lon="10.4427084"><ele>240.33333333333331</ele><time>2026-04-27T09:31:18.817Z</time></trkpt><trkpt lat="32.9265447" lon="10.4426097"><ele>240.66666666666666</ele><time>2026-04-27T09:31:19.802Z</time></trkpt><trkpt lat="32.9265092" lon="10.4425137"><ele>241.0</ele><time>2026-04-27T09:31:20.812Z</time></trkpt><trkpt lat="32.9264707" lon="10.4424247"><ele>241.0</ele><time>2026-04-27T09:31:21.813Z</time></trkpt><trkpt lat="32.9264376" lon="10.4423364"><ele>241.00000000000003</ele><time>2026-04-27T09:31:22.804Z</time></trkpt><trkpt lat="32.9264076" lon="10.4422582"><ele>241.0</ele><time>2026-04-27T09:31:23.82Z</time></trkpt><trkpt lat="32.9263711" lon="10.4421827"><ele>241.0</ele><time>2026-04-27T09:31:24.807Z</time></trkpt><trkpt lat="32.926337" lon="10.4421045"><ele>241.00000000000003</ele><time>2026-04-27T09:31:25.803Z</time></trkpt><trkpt lat="32.9263033" lon="10.4420259"><ele>241.0</ele><time>2026-04-27T09:31:26.814Z</time></trkpt><trkpt lat="32.9262694" lon="10.4419554"><ele>241.0</ele><time>2026-04-27T09:31:27.818Z</time></trkpt><trkpt lat="32.9262361" lon="10.4418801"><ele>240.99999999999997</ele><time>2026-04-27T09:31:28.814Z</time></trkpt><trkpt lat="32.926203" lon="10.4418038"><ele>241.0</ele><time>2026-04-27T09:31:29.813Z</time></trkpt><trkpt lat="32.926171" lon="10.4417319"><ele>241.0</ele><time>2026-04-27T09:31:30.806Z</time></trkpt><trkpt lat="32.9261381" lon="10.4416605"><ele>241.0</ele><time>2026-04-27T09:31:31.81Z</time></trkpt><trkpt lat="32.9260746" lon="10.4415234"><ele>240.99999999999997</ele><time>2026-04-27T09:31:33.817Z</time></trkpt><trkpt lat="32.9260425" lon="10.441452"><ele>241.0</ele><time>2026-04-27T09:31:34.812Z</time></trkpt><trkpt lat="32.9260062" lon="10.4413738"><ele>240.99999999999997</ele><time>2026-04-27T09:31:35.836Z</time></trkpt><trkpt lat="32.9259684" lon="10.4412908"><ele>241.0</ele><time>2026-04-27T09:31:36.815Z</time></trkpt><trkpt lat="32.9259269" lon="10.4412033"><ele>241.0</ele><time>2026-04-27T09:31:37.817Z</time></trkpt><trkpt lat="32.9258852" lon="10.4411183"><ele>241.0</ele><time>2026-04-27T09:31:38.811Z</time></trkpt><trkpt lat="32.9258454" lon="10.4410324"><ele>240.99999999999997</ele><time>2026-04-27T09:31:39.812Z</time></trkpt><trkpt lat="32.9258063" lon="10.4409475"><ele>241.0</ele><time>2026-04-27T09:31:40.813Z</time></trkpt><trkpt lat="32.9257687" lon="10.4408646"><ele>240.99999999999997</ele><time>2026-04-27T09:31:41.806Z</time></trkpt><trkpt lat="32.9257253" lon="10.4407808"><ele>241.0</ele><time>2026-04-27T09:31:42.814Z</time></trkpt><trkpt lat="32.9256862" lon="10.4407031"><ele>241.0</ele><time>2026-04-27T09:31:43.809Z</time></trkpt><trkpt lat="32.9256517" lon="10.4406314"><ele>241.0</ele><time>2026-04-27T09:31:44.805Z</time></trkpt><trkpt lat="32.9255894" lon="10.4404976"><ele>240.99999999999997</ele><time>2026-04-27T09:31:46.804Z</time></trkpt><trkpt lat="32.9255568" lon="10.4404317"><ele>241.0</ele><time>2026-04-27T09:31:47.801Z</time></trkpt><trkpt lat="32.9254916" lon="10.4403014"><ele>240.99999999999997</ele><time>2026-04-27T09:31:49.8Z</time></trkpt><trkpt lat="32.925457" lon="10.4401953"><ele>241.0</ele><time>2026-04-27T09:31:51.814Z</time></trkpt><trkpt lat="32.9254373" lon="10.4401158"><ele>241.0</ele><time>2026-04-27T09:31:53.815Z</time></trkpt><trkpt lat="32.9254169" lon="10.4400307"><ele>241.0</ele><time>2026-04-27T09:31:55.805Z</time></trkpt><trkpt lat="32.9253766" lon="10.4399333"><ele>240.99999999999997</ele><time>2026-04-27T09:31:57.807Z</time></trkpt><trkpt lat="32.9253168" lon="10.439885"><ele>241.0</ele><time>2026-04-27T09:31:58.807Z</time></trkpt><trkpt lat="32.9252492" lon="10.439832"><ele>241.0</ele><time>2026-04-27T09:31:59.8Z</time></trkpt><trkpt lat="32.9251775" lon="10.4397635"><ele>241.00000000000003</ele><time>2026-04-27T09:32:00.81Z</time></trkpt><trkpt lat="32.9251064" lon="10.4396632"><ele>241.00000000000003</ele><time>2026-04-27T09:32:01.811Z</time></trkpt><trkpt lat="32.9250313" lon="10.4395595"><ele>241.0</ele><time>2026-04-27T09:32:02.811Z</time></trkpt><trkpt lat="32.9249544" lon="10.4394436"><ele>241.0</ele><time>2026-04-27T09:32:03.806Z</time></trkpt><trkpt lat="32.9248761" lon="10.4393135"><ele>241.25</ele><time>2026-04-27T09:32:04.809Z</time></trkpt><trkpt lat="32.9247935" lon="10.4391835"><ele>241.5</ele><time>2026-04-27T09:32:05.811Z</time></trkpt><trkpt lat="32.9247117" lon="10.4390629"><ele>241.75</ele><time>2026-04-27T09:32:06.808Z</time></trkpt><trkpt lat="32.9246275" lon="10.4389479"><ele>242.0</ele><time>2026-04-27T09:32:07.817Z</time></trkpt><trkpt lat="32.9245459" lon="10.4388468"><ele>241.66666666666669</ele><time>2026-04-27T09:32:08.813Z</time></trkpt><trkpt lat="32.9244774" lon="10.4387592"><ele>241.33333333333334</ele><time>2026-04-27T09:32:09.812Z</time></trkpt><trkpt lat="32.9244192" lon="10.4386898"><ele>241.0</ele><time>2026-04-27T09:32:10.814Z</time></trkpt><trkpt lat="32.9243627" lon="10.4386303"><ele>240.66666666666669</ele><time>2026-04-27T09:32:11.811Z</time></trkpt><trkpt lat="32.9243112" lon="10.4385778"><ele>240.33333333333334</ele><time>2026-04-27T09:32:12.812Z</time></trkpt><trkpt lat="32.9242553" lon="10.4385158"><ele>240.0</ele><time>2026-04-27T09:32:13.821Z</time></trkpt><trkpt lat="32.9241959" lon="10.4384497"><ele>239.8</ele><time>2026-04-27T09:32:14.821Z</time></trkpt><trkpt lat="32.9241309" lon="10.4383834"><ele>239.6</ele><time>2026-04-27T09:32:15.8Z</time></trkpt><trkpt lat="32.9240632" lon="10.4383152"><ele>239.39999999999998</ele><time>2026-04-27T09:32:16.823Z</time></trkpt><trkpt lat="32.9239918" lon="10.4382381"><ele>239.2</ele><time>2026-04-27T09:32:17.82Z</time></trkpt><trkpt lat="32.9239188" lon="10.4381639"><ele>239.0</ele><time>2026-04-27T09:32:18.809Z</time></trkpt><trkpt lat="32.9238406" lon="10.4380865"><ele>239.0</ele><time>2026-04-27T09:32:19.812Z</time></trkpt><trkpt lat="32.9237575" lon="10.4380128"><ele>238.99999999999997</ele><time>2026-04-27T09:32:20.802Z</time></trkpt><trkpt lat="32.9236703" lon="10.4379396"><ele>238.99999999999997</ele><time>2026-04-27T09:32:21.802Z</time></trkpt><trkpt lat="32.9235793" lon="10.4378688"><ele>239.0</ele><time>2026-04-27T09:32:22.798Z</time></trkpt><trkpt lat="32.9234877" lon="10.4377973"><ele>239.0</ele><time>2026-04-27T09:32:23.826Z</time></trkpt><trkpt lat="32.9234016" lon="10.4377233"><ele>239.50000000000003</ele><time>2026-04-27T09:32:24.816Z</time></trkpt><trkpt lat="32.9233198" lon="10.4376573"><ele>240.0</ele><time>2026-04-27T09:32:25.807Z</time></trkpt><trkpt lat="32.9232461" lon="10.4376008"><ele>240.5</ele><time>2026-04-27T09:32:26.802Z</time></trkpt><trkpt lat="32.9231741" lon="10.4375565"><ele>241.0</ele><time>2026-04-27T09:32:27.814Z</time></trkpt><trkpt lat="32.9231038" lon="10.4375078"><ele>241.50000000000003</ele><time>2026-04-27T09:32:28.809Z</time></trkpt><trkpt lat="32.9230385" lon="10.4374667"><ele>242.0</ele><time>2026-04-27T09:32:29.812Z</time></trkpt><trkpt lat="32.9229817" lon="10.437429"><ele>242.00000000000003</ele><time>2026-04-27T09:32:30.81Z</time></trkpt><trkpt lat="32.9228712" lon="10.4373596"><ele>242.0</ele><time>2026-04-27T09:32:32.81Z</time></trkpt><trkpt lat="32.9228162" lon="10.4373185"><ele>242.0</ele><time>2026-04-27T09:32:33.807Z</time></trkpt><trkpt lat="32.9227571" lon="10.4372737"><ele>242.0</ele><time>2026-04-27T09:32:34.813Z</time></trkpt><trkpt lat="32.9226935" lon="10.4372269"><ele>242.00000000000003</ele><time>2026-04-27T09:32:35.803Z</time></trkpt><trkpt lat="32.9226233" lon="10.4371779"><ele>242.0</ele><time>2026-04-27T09:32:36.807Z</time></trkpt><trkpt lat="32.9225545" lon="10.4371254"><ele>242.50000000000003</ele><time>2026-04-27T09:32:37.816Z</time></trkpt><trkpt lat="32.9224853" lon="10.4370747"><ele>243.0</ele><time>2026-04-27T09:32:38.807Z</time></trkpt><trkpt lat="32.9224143" lon="10.437027"><ele>243.5</ele><time>2026-04-27T09:32:39.81Z</time></trkpt><trkpt lat="32.9223449" lon="10.4369804"><ele>244.0</ele><time>2026-04-27T09:32:40.804Z</time></trkpt><trkpt lat="32.9222788" lon="10.4369324"><ele>244.50000000000003</ele><time>2026-04-27T09:32:41.807Z</time></trkpt><trkpt lat="32.9222108" lon="10.4368851"><ele>245.0</ele><time>2026-04-27T09:32:42.809Z</time></trkpt><trkpt lat="32.922142" lon="10.4368391"><ele>245.00000000000003</ele><time>2026-04-27T09:32:43.821Z</time></trkpt><trkpt lat="32.9220665" lon="10.4367869"><ele>245.0</ele><time>2026-04-27T09:32:44.816Z</time></trkpt><trkpt lat="32.9219957" lon="10.4367349"><ele>245.0</ele><time>2026-04-27T09:32:45.82Z</time></trkpt><trkpt lat="32.9219305" lon="10.4366749"><ele>245.0</ele><time>2026-04-27T09:32:46.816Z</time></trkpt><trkpt lat="32.9218599" lon="10.4366098"><ele>245.00000000000003</ele><time>2026-04-27T09:32:47.805Z</time></trkpt><trkpt lat="32.9217896" lon="10.4365407"><ele>245.0</ele><time>2026-04-27T09:32:48.813Z</time></trkpt><trkpt lat="32.9217212" lon="10.4364687"><ele>245.4</ele><time>2026-04-27T09:32:49.813Z</time></trkpt><trkpt lat="32.9216482" lon="10.4363979"><ele>245.8</ele><time>2026-04-27T09:32:50.812Z</time></trkpt><trkpt lat="32.9215744" lon="10.4363295"><ele>246.2</ele><time>2026-04-27T09:32:51.814Z</time></trkpt><trkpt lat="32.9215029" lon="10.4362595"><ele>246.6</ele><time>2026-04-27T09:32:52.816Z</time></trkpt><trkpt lat="32.9214294" lon="10.4361936"><ele>247.0</ele><time>2026-04-27T09:32:53.809Z</time></trkpt><trkpt lat="32.9213534" lon="10.4361278"><ele>247.0</ele><time>2026-04-27T09:32:54.817Z</time></trkpt><trkpt lat="32.9212815" lon="10.4360643"><ele>247.0</ele><time>2026-04-27T09:32:55.806Z</time></trkpt><trkpt lat="32.9212065" lon="10.4360009"><ele>247.0</ele><time>2026-04-27T09:32:56.812Z</time></trkpt><trkpt lat="32.9211353" lon="10.4359316"><ele>247.0</ele><time>2026-04-27T09:32:57.826Z</time></trkpt><trkpt lat="32.9210594" lon="10.4358572"><ele>247.0</ele><time>2026-04-27T09:32:58.813Z</time></trkpt><trkpt lat="32.9209756" lon="10.4357816"><ele>247.0</ele><time>2026-04-27T09:32:59.808Z</time></trkpt><trkpt lat="32.9208843" lon="10.4356881"><ele>247.0</ele><time>2026-04-27T09:33:00.806Z</time></trkpt><trkpt lat="32.9207908" lon="10.4355956"><ele>247.0</ele><time>2026-04-27T09:33:01.806Z</time></trkpt><trkpt lat="32.9206967" lon="10.435505"><ele>247.0</ele><time>2026-04-27T09:33:02.821Z</time></trkpt><trkpt lat="32.920602" lon="10.4354184"><ele>247.0</ele><time>2026-04-27T09:33:03.814Z</time></trkpt><trkpt lat="32.9205127" lon="10.4353273"><ele>247.0</ele><time>2026-04-27T09:33:04.815Z</time></trkpt><trkpt lat="32.9204239" lon="10.4352386"><ele>247.0</ele><time>2026-04-27T09:33:05.815Z</time></trkpt><trkpt lat="32.9203375" lon="10.4351504"><ele>247.0</ele><time>2026-04-27T09:33:06.805Z</time></trkpt><trkpt lat="32.9202504" lon="10.4350622"><ele>247.0</ele><time>2026-04-27T09:33:07.818Z</time></trkpt><trkpt lat="32.9201643" lon="10.4349722"><ele>247.0</ele><time>2026-04-27T09:33:08.808Z</time></trkpt><trkpt lat="32.9200736" lon="10.4348808"><ele>247.0</ele><time>2026-04-27T09:33:09.816Z</time></trkpt><trkpt lat="32.9199887" lon="10.4347895"><ele>247.0</ele><time>2026-04-27T09:33:10.798Z</time></trkpt><trkpt lat="32.9199094" lon="10.434692"><ele>247.2</ele><time>2026-04-27T09:33:11.817Z</time></trkpt><trkpt lat="32.9198349" lon="10.434593"><ele>247.39999999999998</ele><time>2026-04-27T09:33:12.8Z</time></trkpt><trkpt lat="32.91976" lon="10.4344917"><ele>247.60000000000002</ele><time>2026-04-27T09:33:13.804Z</time></trkpt><trkpt lat="32.919693" lon="10.4343853"><ele>247.8</ele><time>2026-04-27T09:33:14.81Z</time></trkpt><trkpt lat="32.919629" lon="10.4342819"><ele>248.0</ele><time>2026-04-27T09:33:15.82Z</time></trkpt><trkpt lat="32.9195671" lon="10.4341838"><ele>248.0</ele><time>2026-04-27T09:33:16.815Z</time></trkpt><trkpt lat="32.9195113" lon="10.4340845"><ele>248.0</ele><time>2026-04-27T09:33:17.81Z</time></trkpt><trkpt lat="32.9194606" lon="10.4339884"><ele>248.0</ele><time>2026-04-27T09:33:18.81Z</time></trkpt><trkpt lat="32.9194124" lon="10.4338962"><ele>248.0</ele><time>2026-04-27T09:33:19.815Z</time></trkpt><trkpt lat="32.9193655" lon="10.4338096"><ele>248.0</ele><time>2026-04-27T09:33:20.811Z</time></trkpt><trkpt lat="32.9193197" lon="10.4337262"><ele>247.83333333333334</ele><time>2026-04-27T09:33:21.801Z</time></trkpt><trkpt lat="32.9192727" lon="10.433639"><ele>247.66666666666669</ele><time>2026-04-27T09:33:22.81Z</time></trkpt><trkpt lat="32.9192338" lon="10.4335593"><ele>247.5</ele><time>2026-04-27T09:33:23.853Z</time></trkpt><trkpt lat="32.9191919" lon="10.433484"><ele>247.33333333333331</ele><time>2026-04-27T09:33:24.817Z</time></trkpt><trkpt lat="32.919155" lon="10.4334084"><ele>247.16666666666666</ele><time>2026-04-27T09:33:25.812Z</time></trkpt><trkpt lat="32.9191247" lon="10.433342"><ele>247.0</ele><time>2026-04-27T09:33:26.816Z</time></trkpt><trkpt lat="32.9190733" lon="10.4332138"><ele>247.0</ele><time>2026-04-27T09:33:28.819Z</time></trkpt><trkpt lat="32.9190247" lon="10.4330918"><ele>247.0</ele><time>2026-04-27T09:33:30.812Z</time></trkpt><trkpt lat="32.9189839" lon="10.4329845"><ele>247.0</ele><time>2026-04-27T09:33:32.809Z</time></trkpt><trkpt lat="32.9189326" lon="10.4328626"><ele>247.0</ele><time>2026-04-27T09:33:34.812Z</time></trkpt><trkpt lat="32.9189006" lon="10.4327771"><ele>247.0</ele><time>2026-04-27T09:33:35.818Z</time></trkpt><trkpt lat="32.9188634" lon="10.4326774"><ele>247.0</ele><time>2026-04-27T09:33:36.806Z</time></trkpt><trkpt lat="32.9188334" lon="10.4325707"><ele>247.0</ele><time>2026-04-27T09:33:37.809Z</time></trkpt><trkpt lat="32.9187957" lon="10.4324618"><ele>247.0</ele><time>2026-04-27T09:33:38.846Z</time></trkpt><trkpt lat="32.9187657" lon="10.4323522"><ele>247.0</ele><time>2026-04-27T09:33:39.814Z</time></trkpt><trkpt lat="32.9187283" lon="10.432243"><ele>247.0</ele><time>2026-04-27T09:33:40.814Z</time></trkpt><trkpt lat="32.9186954" lon="10.4321423"><ele>247.2</ele><time>2026-04-27T09:33:41.805Z</time></trkpt><trkpt lat="32.918653" lon="10.4320323"><ele>247.39999999999998</ele><time>2026-04-27T09:33:42.812Z</time></trkpt><trkpt lat="32.9186078" lon="10.4319163"><ele>247.60000000000002</ele><time>2026-04-27T09:33:43.807Z</time></trkpt><trkpt lat="32.9185704" lon="10.4318073"><ele>247.8</ele><time>2026-04-27T09:33:44.818Z</time></trkpt><trkpt lat="32.9185247" lon="10.4316926"><ele>248.0</ele><time>2026-04-27T09:33:46.817Z</time></trkpt><trkpt lat="32.9184929" lon="10.4316167"><ele>248.0</ele><time>2026-04-27T09:33:47.823Z</time></trkpt><trkpt lat="32.9184496" lon="10.4315176"><ele>248.0</ele><time>2026-04-27T09:33:48.807Z</time></trkpt><trkpt lat="32.9183982" lon="10.4313933"><ele>248.0</ele><time>2026-04-27T09:33:49.809Z</time></trkpt><trkpt lat="32.9183341" lon="10.43126"><ele>248.0</ele><time>2026-04-27T09:33:50.802Z</time></trkpt><trkpt lat="32.9182662" lon="10.431116"><ele>248.75</ele><time>2026-04-27T09:33:51.82Z</time></trkpt><trkpt lat="32.9181995" lon="10.4309709"><ele>249.5</ele><time>2026-04-27T09:33:52.801Z</time></trkpt><trkpt lat="32.9181313" lon="10.430826"><ele>250.25</ele><time>2026-04-27T09:33:53.816Z</time></trkpt><trkpt lat="32.9180641" lon="10.430691"><ele>251.0</ele><time>2026-04-27T09:33:54.817Z</time></trkpt><trkpt lat="32.9179928" lon="10.4305466"><ele>251.25</ele><time>2026-04-27T09:33:55.804Z</time></trkpt><trkpt lat="32.917917" lon="10.4304114"><ele>251.5</ele><time>2026-04-27T09:33:56.813Z</time></trkpt><trkpt lat="32.9178416" lon="10.4302711"><ele>251.75</ele><time>2026-04-27T09:33:57.819Z</time></trkpt><trkpt lat="32.9177686" lon="10.4301377"><ele>252.0</ele><time>2026-04-27T09:33:58.817Z</time></trkpt><trkpt lat="32.9176953" lon="10.430005"><ele>252.0</ele><time>2026-04-27T09:33:59.841Z</time></trkpt><trkpt lat="32.917631" lon="10.4298695"><ele>252.0</ele><time>2026-04-27T09:34:00.804Z</time></trkpt><trkpt lat="32.91757" lon="10.4297346"><ele>252.0</ele><time>2026-04-27T09:34:01.807Z</time></trkpt><trkpt lat="32.9175163" lon="10.4296035"><ele>252.0</ele><time>2026-04-27T09:34:02.807Z</time></trkpt><trkpt lat="32.9174548" lon="10.4294681"><ele>252.75</ele><time>2026-04-27T09:34:03.803Z</time></trkpt><trkpt lat="32.9173981" lon="10.4293321"><ele>253.5</ele><time>2026-04-27T09:34:04.816Z</time></trkpt><trkpt lat="32.9173444" lon="10.4292097"><ele>254.25</ele><time>2026-04-27T09:34:05.81Z</time></trkpt><trkpt lat="32.9172943" lon="10.4290855"><ele>255.0</ele><time>2026-04-27T09:34:06.812Z</time></trkpt><trkpt lat="32.9172474" lon="10.4289622"><ele>255.0</ele><time>2026-04-27T09:34:07.81Z</time></trkpt><trkpt lat="32.9171962" lon="10.4288388"><ele>255.0</ele><time>2026-04-27T09:34:08.806Z</time></trkpt><trkpt lat="32.9171498" lon="10.4287111"><ele>255.0</ele><time>2026-04-27T09:34:09.821Z</time></trkpt><trkpt lat="32.9171013" lon="10.4285856"><ele>255.0</ele><time>2026-04-27T09:34:10.807Z</time></trkpt><trkpt lat="32.9170488" lon="10.4284611"><ele>254.75</ele><time>2026-04-27T09:34:11.814Z</time></trkpt><trkpt lat="32.9169967" lon="10.4283363"><ele>254.5</ele><time>2026-04-27T09:34:12.806Z</time></trkpt><trkpt lat="32.9169449" lon="10.4282093"><ele>254.25</ele><time>2026-04-27T09:34:13.813Z</time></trkpt><trkpt lat="32.9168874" lon="10.4280906"><ele>254.0</ele><time>2026-04-27T09:34:14.813Z</time></trkpt><trkpt lat="32.9168214" lon="10.4279695"><ele>254.0</ele><time>2026-04-27T09:34:15.817Z</time></trkpt><trkpt lat="32.916753" lon="10.427849"><ele>254.0</ele><time>2026-04-27T09:34:16.809Z</time></trkpt><trkpt lat="32.9166723" lon="10.4277327"><ele>254.0</ele><time>2026-04-27T09:34:17.82Z</time></trkpt><trkpt lat="32.9165862" lon="10.4276103"><ele>254.0</ele><time>2026-04-27T09:34:18.809Z</time></trkpt><trkpt lat="32.916502" lon="10.4274881"><ele>254.0</ele><time>2026-04-27T09:34:19.815Z</time></trkpt><trkpt lat="32.9164161" lon="10.4273713"><ele>254.0</ele><time>2026-04-27T09:34:20.819Z</time></trkpt><trkpt lat="32.9163282" lon="10.4272576"><ele>254.0</ele><time>2026-04-27T09:34:21.807Z</time></trkpt><trkpt lat="32.9162456" lon="10.4271521"><ele>254.0</ele><time>2026-04-27T09:34:22.81Z</time></trkpt><trkpt lat="32.9161634" lon="10.427042"><ele>253.6</ele><time>2026-04-27T09:34:23.806Z</time></trkpt><trkpt lat="32.9160813" lon="10.4269419"><ele>253.2</ele><time>2026-04-27T09:34:24.81Z</time></trkpt><trkpt lat="32.9160101" lon="10.4268442"><ele>252.79999999999998</ele><time>2026-04-27T09:34:25.806Z</time></trkpt><trkpt lat="32.9159513" lon="10.4267399"><ele>252.39999999999998</ele><time>2026-04-27T09:34:26.819Z</time></trkpt><trkpt lat="32.9159062" lon="10.4266289"><ele>252.0</ele><time>2026-04-27T09:34:27.805Z</time></trkpt><trkpt lat="32.9158809" lon="10.4265073"><ele>252.0</ele><time>2026-04-27T09:34:28.805Z</time></trkpt><trkpt lat="32.9158744" lon="10.4263686"><ele>252.0</ele><time>2026-04-27T09:34:29.818Z</time></trkpt><trkpt lat="32.9158731" lon="10.4262076"><ele>252.0</ele><time>2026-04-27T09:34:30.815Z</time></trkpt><trkpt lat="32.9158716" lon="10.4260358"><ele>252.0</ele><time>2026-04-27T09:34:31.813Z</time></trkpt><trkpt lat="32.9158861" lon="10.4258573"><ele>252.0</ele><time>2026-04-27T09:34:32.826Z</time></trkpt><trkpt lat="32.9159299" lon="10.4256612"><ele>252.0</ele><time>2026-04-27T09:34:33.806Z</time></trkpt><trkpt lat="32.9159821" lon="10.4254667"><ele>252.0</ele><time>2026-04-27T09:34:34.825Z</time></trkpt><trkpt lat="32.916033" lon="10.425282"><ele>252.0</ele><time>2026-04-27T09:34:35.817Z</time></trkpt><trkpt lat="32.9160859" lon="10.425096"><ele>252.0</ele><time>2026-04-27T09:34:36.819Z</time></trkpt><trkpt lat="32.916137" lon="10.4249094"><ele>252.0</ele><time>2026-04-27T09:34:37.807Z</time></trkpt><trkpt lat="32.9161858" lon="10.4247234"><ele>252.66666666666669</ele><time>2026-04-27T09:34:38.814Z</time></trkpt><trkpt lat="32.9162325" lon="10.4245448"><ele>253.33333333333334</ele><time>2026-04-27T09:34:39.814Z</time></trkpt><trkpt lat="32.9162772" lon="10.4243659"><ele>254.0</ele><time>2026-04-27T09:34:40.815Z</time></trkpt><trkpt lat="32.916321" lon="10.4241864"><ele>254.0</ele><time>2026-04-27T09:34:41.813Z</time></trkpt><trkpt lat="32.9163613" lon="10.4240108"><ele>254.0</ele><time>2026-04-27T09:34:42.81Z</time></trkpt><trkpt lat="32.9163955" lon="10.4238388"><ele>254.0</ele><time>2026-04-27T09:34:43.822Z</time></trkpt><trkpt lat="32.9164304" lon="10.423663"><ele>254.25</ele><time>2026-04-27T09:34:44.808Z</time></trkpt><trkpt lat="32.9164655" lon="10.4234845"><ele>254.5</ele><time>2026-04-27T09:34:45.805Z</time></trkpt><trkpt lat="32.9164994" lon="10.4233163"><ele>254.75</ele><time>2026-04-27T09:34:46.815Z</time></trkpt><trkpt lat="32.9165313" lon="10.4231464"><ele>255.0</ele><time>2026-04-27T09:34:47.816Z</time></trkpt><trkpt lat="32.9165642" lon="10.4229636"><ele>255.66666666666669</ele><time>2026-04-27T09:34:48.811Z</time></trkpt><trkpt lat="32.9165984" lon="10.4227874"><ele>256.33333333333337</ele><time>2026-04-27T09:34:49.802Z</time></trkpt><trkpt lat="32.9166366" lon="10.422613"><ele>257.0</ele><time>2026-04-27T09:34:50.816Z</time></trkpt><trkpt lat="32.9166702" lon="10.4224359"><ele>257.0</ele><time>2026-04-27T09:34:51.848Z</time></trkpt><trkpt lat="32.916703" lon="10.4222623"><ele>257.0</ele><time>2026-04-27T09:34:52.806Z</time></trkpt><trkpt lat="32.9167189" lon="10.4220809"><ele>257.0</ele><time>2026-04-27T09:34:53.812Z</time></trkpt><trkpt lat="32.9167128" lon="10.4218936"><ele>258.0</ele><time>2026-04-27T09:34:54.811Z</time></trkpt><trkpt lat="32.9166987" lon="10.4217059"><ele>259.0</ele><time>2026-04-27T09:34:55.809Z</time></trkpt><trkpt lat="32.9166851" lon="10.4215231"><ele>260.0</ele><time>2026-04-27T09:34:56.81Z</time></trkpt><trkpt lat="32.9166759" lon="10.421341"><ele>260.33333333333337</ele><time>2026-04-27T09:34:57.813Z</time></trkpt><trkpt lat="32.9166672" lon="10.4211615"><ele>260.6666666666667</ele><time>2026-04-27T09:34:58.805Z</time></trkpt><trkpt lat="32.9166631" lon="10.4209752"><ele>261.0</ele><time>2026-04-27T09:34:59.817Z</time></trkpt><trkpt lat="32.9166551" lon="10.4207904"><ele>261.0</ele><time>2026-04-27T09:35:00.808Z</time></trkpt><trkpt lat="32.9166425" lon="10.4206026"><ele>261.0</ele><time>2026-04-27T09:35:01.816Z</time></trkpt><trkpt lat="32.9166294" lon="10.42042"><ele>261.0</ele><time>2026-04-27T09:35:02.832Z</time></trkpt><trkpt lat="32.9166152" lon="10.420245"><ele>261.0</ele><time>2026-04-27T09:35:03.814Z</time></trkpt><trkpt lat="32.9166051" lon="10.4200809"><ele>261.0</ele><time>2026-04-27T09:35:04.815Z</time></trkpt><trkpt lat="32.9166005" lon="10.4199234"><ele>261.0</ele><time>2026-04-27T09:35:05.811Z</time></trkpt><trkpt lat="32.9165964" lon="10.4197969"><ele>261.0</ele><time>2026-04-27T09:35:06.812Z</time></trkpt><trkpt lat="32.91659" lon="10.4197005"><ele>261.3333333333333</ele><time>2026-04-27T09:35:07.817Z</time></trkpt><trkpt lat="32.9165807" lon="10.4196177"><ele>261.6666666666667</ele><time>2026-04-27T09:35:08.812Z</time></trkpt><trkpt lat="32.9165793" lon="10.4195382"><ele>262.0</ele><time>2026-04-27T09:35:09.804Z</time></trkpt><trkpt lat="32.91658" lon="10.4194404"><ele>262.33333333333337</ele><time>2026-04-27T09:35:10.826Z</time></trkpt><trkpt lat="32.9165792" lon="10.4193336"><ele>262.6666666666667</ele><time>2026-04-27T09:35:11.815Z</time></trkpt><trkpt lat="32.9165856" lon="10.419224"><ele>263.0</ele><time>2026-04-27T09:35:12.812Z</time></trkpt><trkpt lat="32.9165999" lon="10.419116"><ele>263.0</ele><time>2026-04-27T09:35:13.809Z</time></trkpt><trkpt lat="32.9166105" lon="10.4190136"><ele>263.0</ele><time>2026-04-27T09:35:14.815Z</time></trkpt><trkpt lat="32.9166151" lon="10.4189244"><ele>263.0</ele><time>2026-04-27T09:35:15.807Z</time></trkpt><trkpt lat="32.9166307" lon="10.4187647"><ele>263.0</ele><time>2026-04-27T09:35:17.832Z</time></trkpt><trkpt lat="32.9166382" lon="10.4186476"><ele>263.0</ele><time>2026-04-27T09:35:18.81Z</time></trkpt><trkpt lat="32.9166556" lon="10.4185194"><ele>263.25</ele><time>2026-04-27T09:35:19.808Z</time></trkpt><trkpt lat="32.916666" lon="10.4183714"><ele>263.5</ele><time>2026-04-27T09:35:20.809Z</time></trkpt><trkpt lat="32.9166798" lon="10.4182166"><ele>263.75</ele><time>2026-04-27T09:35:21.815Z</time></trkpt><trkpt lat="32.9167117" lon="10.4180521"><ele>264.0</ele><time>2026-04-27T09:35:22.809Z</time></trkpt><trkpt lat="32.916762" lon="10.4178766"><ele>264.6666666666667</ele><time>2026-04-27T09:35:23.816Z</time></trkpt><trkpt lat="32.9167993" lon="10.4176998"><ele>265.33333333333337</ele><time>2026-04-27T09:35:24.82Z</time></trkpt><trkpt lat="32.9168352" lon="10.417507"><ele>266.0</ele><time>2026-04-27T09:35:25.816Z</time></trkpt><trkpt lat="32.9168769" lon="10.4173174"><ele>265.33333333333337</ele><time>2026-04-27T09:35:26.819Z</time></trkpt><trkpt lat="32.9169238" lon="10.4171251"><ele>264.6666666666667</ele><time>2026-04-27T09:35:27.813Z</time></trkpt><trkpt lat="32.9169762" lon="10.4169345"><ele>264.0</ele><time>2026-04-27T09:35:28.819Z</time></trkpt><trkpt lat="32.9170204" lon="10.4167455"><ele>264.0</ele><time>2026-04-27T09:35:29.811Z</time></trkpt><trkpt lat="32.9170596" lon="10.416545"><ele>264.0</ele><time>2026-04-27T09:35:30.819Z</time></trkpt><trkpt lat="32.9171014" lon="10.4163503"><ele>264.0</ele><time>2026-04-27T09:35:31.806Z</time></trkpt><trkpt lat="32.9171385" lon="10.4161606"><ele>265.0</ele><time>2026-04-27T09:35:32.83Z</time></trkpt><trkpt lat="32.9171747" lon="10.4159801"><ele>266.0</ele><time>2026-04-27T09:35:33.822Z</time></trkpt><trkpt lat="32.9172138" lon="10.4158064"><ele>267.0</ele><time>2026-04-27T09:35:34.805Z</time></trkpt><trkpt lat="32.9172568" lon="10.4156378"><ele>266.75</ele><time>2026-04-27T09:35:35.81Z</time></trkpt><trkpt lat="32.9172982" lon="10.4154773"><ele>266.5</ele><time>2026-04-27T09:35:36.817Z</time></trkpt><trkpt lat="32.9173418" lon="10.4153163"><ele>266.25</ele><time>2026-04-27T09:35:37.813Z</time></trkpt><trkpt lat="32.9173875" lon="10.4151577"><ele>266.0</ele><time>2026-04-27T09:35:38.81Z</time></trkpt><trkpt lat="32.9174391" lon="10.4149958"><ele>266.0</ele><time>2026-04-27T09:35:39.813Z</time></trkpt><trkpt lat="32.9174944" lon="10.4148309"><ele>266.0</ele><time>2026-04-27T09:35:40.814Z</time></trkpt><trkpt lat="32.9175533" lon="10.4146644"><ele>266.0</ele><time>2026-04-27T09:35:41.804Z</time></trkpt><trkpt lat="32.9176188" lon="10.414498"><ele>267.6666666666667</ele><time>2026-04-27T09:35:42.816Z</time></trkpt><trkpt lat="32.9176841" lon="10.4143315"><ele>269.3333333333333</ele><time>2026-04-27T09:35:43.818Z</time></trkpt><trkpt lat="32.9177535" lon="10.4141674"><ele>271.0</ele><time>2026-04-27T09:35:44.804Z</time></trkpt><trkpt lat="32.9178177" lon="10.4140002"><ele>271.0</ele><time>2026-04-27T09:35:45.806Z</time></trkpt><trkpt lat="32.9178787" lon="10.413834"><ele>271.0</ele><time>2026-04-27T09:35:46.814Z</time></trkpt><trkpt lat="32.9179374" lon="10.4136703"><ele>271.0</ele><time>2026-04-27T09:35:47.811Z</time></trkpt><trkpt lat="32.9179939" lon="10.4134964"><ele>270.66666666666663</ele><time>2026-04-27T09:35:48.809Z</time></trkpt><trkpt lat="32.9180479" lon="10.4133319"><ele>270.3333333333333</ele><time>2026-04-27T09:35:49.809Z</time></trkpt><trkpt lat="32.9181074" lon="10.4131649"><ele>270.0</ele><time>2026-04-27T09:35:50.809Z</time></trkpt><trkpt lat="32.9181659" lon="10.412995"><ele>269.25</ele><time>2026-04-27T09:35:51.808Z</time></trkpt><trkpt lat="32.9182267" lon="10.412832"><ele>268.5</ele><time>2026-04-27T09:35:52.808Z</time></trkpt><trkpt lat="32.9182808" lon="10.4126695"><ele>267.75</ele><time>2026-04-27T09:35:53.806Z</time></trkpt><trkpt lat="32.9183393" lon="10.4125061"><ele>267.0</ele><time>2026-04-27T09:35:54.85Z</time></trkpt><trkpt lat="32.9183981" lon="10.4123402"><ele>267.75</ele><time>2026-04-27T09:35:55.808Z</time></trkpt><trkpt lat="32.9184567" lon="10.4121796"><ele>268.5</ele><time>2026-04-27T09:35:56.807Z</time></trkpt><trkpt lat="32.9185148" lon="10.4120176"><ele>269.25</ele><time>2026-04-27T09:35:57.82Z</time></trkpt><trkpt lat="32.9185787" lon="10.4118504"><ele>270.0</ele><time>2026-04-27T09:35:58.803Z</time></trkpt><trkpt lat="32.9186402" lon="10.411681"><ele>270.0</ele><time>2026-04-27T09:35:59.812Z</time></trkpt><trkpt lat="32.9187075" lon="10.4115147"><ele>270.0</ele><time>2026-04-27T09:36:00.817Z</time></trkpt><trkpt lat="32.9187691" lon="10.4113458"><ele>270.0</ele><time>2026-04-27T09:36:01.803Z</time></trkpt><trkpt lat="32.9188314" lon="10.4111768"><ele>270.0</ele><time>2026-04-27T09:36:02.808Z</time></trkpt><trkpt lat="32.9188961" lon="10.4110027"><ele>270.0</ele><time>2026-04-27T09:36:03.813Z</time></trkpt><trkpt lat="32.9189648" lon="10.4108232"><ele>270.0</ele><time>2026-04-27T09:36:04.816Z</time></trkpt><trkpt lat="32.9190317" lon="10.4106526"><ele>269.0</ele><time>2026-04-27T09:36:05.823Z</time></trkpt><trkpt lat="32.9190998" lon="10.4104823"><ele>268.0</ele><time>2026-04-27T09:36:06.818Z</time></trkpt><trkpt lat="32.9191646" lon="10.4103148"><ele>267.0</ele><time>2026-04-27T09:36:07.817Z</time></trkpt><trkpt lat="32.9192297" lon="10.4101525"><ele>268.5</ele><time>2026-04-27T09:36:08.807Z</time></trkpt><trkpt lat="32.9192916" lon="10.4099866"><ele>270.0</ele><time>2026-04-27T09:36:09.802Z</time></trkpt><trkpt lat="32.9193517" lon="10.4098272"><ele>271.5</ele><time>2026-04-27T09:36:10.808Z</time></trkpt><trkpt lat="32.9194105" lon="10.4096631"><ele>273.0</ele><time>2026-04-27T09:36:11.813Z</time></trkpt><trkpt lat="32.9194711" lon="10.4094967"><ele>273.3333333333333</ele><time>2026-04-27T09:36:12.801Z</time></trkpt><trkpt lat="32.919538" lon="10.4093343"><ele>273.66666666666663</ele><time>2026-04-27T09:36:13.801Z</time></trkpt><trkpt lat="32.9196028" lon="10.4091753"><ele>274.0</ele><time>2026-04-27T09:36:14.81Z</time></trkpt><trkpt lat="32.9196703" lon="10.4090137"><ele>274.0</ele><time>2026-04-27T09:36:15.807Z</time></trkpt><trkpt lat="32.9197353" lon="10.4088483"><ele>274.0</ele><time>2026-04-27T09:36:16.814Z</time></trkpt><trkpt lat="32.9197986" lon="10.4086805"><ele>274.0</ele><time>2026-04-27T09:36:17.807Z</time></trkpt><trkpt lat="32.9198654" lon="10.4085078"><ele>274.3333333333333</ele><time>2026-04-27T09:36:18.82Z</time></trkpt><trkpt lat="32.9199316" lon="10.4083326"><ele>274.6666666666667</ele><time>2026-04-27T09:36:19.816Z</time></trkpt><trkpt lat="32.9200057" lon="10.4081567"><ele>275.0</ele><time>2026-04-27T09:36:20.802Z</time></trkpt><trkpt lat="32.9200809" lon="10.4079809"><ele>275.0</ele><time>2026-04-27T09:36:21.797Z</time></trkpt><trkpt lat="32.920153" lon="10.4077994"><ele>275.0</ele><time>2026-04-27T09:36:22.797Z</time></trkpt><trkpt lat="32.9202215" lon="10.4076158"><ele>275.0</ele><time>2026-04-27T09:36:23.807Z</time></trkpt><trkpt lat="32.9202887" lon="10.4074331"><ele>275.0</ele><time>2026-04-27T09:36:24.817Z</time></trkpt><trkpt lat="32.920351" lon="10.4072478"><ele>275.0</ele><time>2026-04-27T09:36:25.814Z</time></trkpt><trkpt lat="32.9204147" lon="10.4070566"><ele>275.0</ele><time>2026-04-27T09:36:26.82Z</time></trkpt><trkpt lat="32.9204821" lon="10.4068625"><ele>274.33333333333337</ele><time>2026-04-27T09:36:27.804Z</time></trkpt><trkpt lat="32.9205536" lon="10.4066611"><ele>273.6666666666667</ele><time>2026-04-27T09:36:28.81Z</time></trkpt><trkpt lat="32.9206163" lon="10.4064644"><ele>273.0</ele><time>2026-04-27T09:36:29.815Z</time></trkpt><trkpt lat="32.9206708" lon="10.4062676"><ele>272.3333333333333</ele><time>2026-04-27T09:36:30.81Z</time></trkpt><trkpt lat="32.9207201" lon="10.4060771"><ele>271.66666666666663</ele><time>2026-04-27T09:36:31.837Z</time></trkpt><trkpt lat="32.9207724" lon="10.4058828"><ele>271.0</ele><time>2026-04-27T09:36:32.817Z</time></trkpt><trkpt lat="32.9208251" lon="10.4056818"><ele>271.0</ele><time>2026-04-27T09:36:33.815Z</time></trkpt><trkpt lat="32.9208701" lon="10.4054855"><ele>271.0</ele><time>2026-04-27T09:36:34.819Z</time></trkpt><trkpt lat="32.9209134" lon="10.4052866"><ele>271.0</ele><time>2026-04-27T09:36:35.809Z</time></trkpt><trkpt lat="32.9209602" lon="10.4050865"><ele>272.3333333333333</ele><time>2026-04-27T09:36:36.819Z</time></trkpt><trkpt lat="32.9210054" lon="10.4048875"><ele>273.6666666666667</ele><time>2026-04-27T09:36:37.822Z</time></trkpt><trkpt lat="32.921055" lon="10.404693"><ele>275.0</ele><time>2026-04-27T09:36:38.802Z</time></trkpt><trkpt lat="32.9211066" lon="10.4045004"><ele>275.0</ele><time>2026-04-27T09:36:39.81Z</time></trkpt><trkpt lat="32.9211589" lon="10.404307"><ele>275.0</ele><time>2026-04-27T09:36:40.799Z</time></trkpt><trkpt lat="32.9212105" lon="10.4041078"><ele>275.0</ele><time>2026-04-27T09:36:41.804Z</time></trkpt><trkpt lat="32.9212617" lon="10.4039178"><ele>275.0</ele><time>2026-04-27T09:36:42.804Z</time></trkpt><trkpt lat="32.921314" lon="10.4037216"><ele>275.0</ele><time>2026-04-27T09:36:43.804Z</time></trkpt><trkpt lat="32.92137" lon="10.4035249"><ele>275.0</ele><time>2026-04-27T09:36:44.813Z</time></trkpt><trkpt lat="32.9214292" lon="10.4033312"><ele>275.0</ele><time>2026-04-27T09:36:45.798Z</time></trkpt><trkpt lat="32.9214913" lon="10.4031371"><ele>275.0</ele><time>2026-04-27T09:36:46.807Z</time></trkpt><trkpt lat="32.9215523" lon="10.4029441"><ele>275.0</ele><time>2026-04-27T09:36:47.809Z</time></trkpt><trkpt lat="32.921615" lon="10.4027499"><ele>275.33333333333337</ele><time>2026-04-27T09:36:48.807Z</time></trkpt><trkpt lat="32.9216735" lon="10.4025537"><ele>275.6666666666667</ele><time>2026-04-27T09:36:49.812Z</time></trkpt><trkpt lat="32.9217278" lon="10.4023588"><ele>276.0</ele><time>2026-04-27T09:36:50.819Z</time></trkpt><trkpt lat="32.9217799" lon="10.4021702"><ele>276.3333333333333</ele><time>2026-04-27T09:36:51.807Z</time></trkpt><trkpt lat="32.9218387" lon="10.4019743"><ele>276.66666666666663</ele><time>2026-04-27T09:36:52.821Z</time></trkpt><trkpt lat="32.9218998" lon="10.401781"><ele>277.0</ele><time>2026-04-27T09:36:53.807Z</time></trkpt><trkpt lat="32.9219633" lon="10.4015898"><ele>277.0</ele><time>2026-04-27T09:36:54.805Z</time></trkpt><trkpt lat="32.9220269" lon="10.4014025"><ele>277.0</ele><time>2026-04-27T09:36:55.817Z</time></trkpt><trkpt lat="32.9220903" lon="10.4012171"><ele>277.0</ele><time>2026-04-27T09:36:56.81Z</time></trkpt><trkpt lat="32.9221615" lon="10.4010334"><ele>277.3333333333333</ele><time>2026-04-27T09:36:57.817Z</time></trkpt><trkpt lat="32.9222351" lon="10.4008435"><ele>277.6666666666667</ele><time>2026-04-27T09:36:58.805Z</time></trkpt><trkpt lat="32.9223092" lon="10.4006553"><ele>278.0</ele><time>2026-04-27T09:36:59.811Z</time></trkpt><trkpt lat="32.9223868" lon="10.4004637"><ele>278.6666666666667</ele><time>2026-04-27T09:37:00.811Z</time></trkpt><trkpt lat="32.9224605" lon="10.4002722"><ele>279.3333333333333</ele><time>2026-04-27T09:37:01.815Z</time></trkpt><trkpt lat="32.9225287" lon="10.4000747"><ele>280.0</ele><time>2026-04-27T09:37:02.813Z</time></trkpt><trkpt lat="32.9225867" lon="10.3998795"><ele>280.3333333333333</ele><time>2026-04-27T09:37:03.816Z</time></trkpt><trkpt lat="32.922637" lon="10.3996802"><ele>280.6666666666667</ele><time>2026-04-27T09:37:04.797Z</time></trkpt><trkpt lat="32.9226777" lon="10.3994856"><ele>281.0</ele><time>2026-04-27T09:37:05.794Z</time></trkpt><trkpt lat="32.9228145" lon="10.3984747"><ele>281.0</ele><time>2026-04-27T09:37:10.824Z</time></trkpt><trkpt lat="32.9228141" lon="10.3982621"><ele>281.0</ele><time>2026-04-27T09:37:11.792Z</time></trkpt><trkpt lat="32.9228381" lon="10.3980514"><ele>281.0</ele><time>2026-04-27T09:37:12.81Z</time></trkpt><trkpt lat="32.9228415" lon="10.3978828"><ele>282.0</ele><time>2026-04-27T09:37:13.791Z</time></trkpt><trkpt lat="32.9228492" lon="10.3976741"><ele>283.0</ele><time>2026-04-27T09:37:14.821Z</time></trkpt><trkpt lat="32.9228426" lon="10.397468"><ele>284.0</ele><time>2026-04-27T09:37:15.814Z</time></trkpt><trkpt lat="32.922802" lon="10.3972621"><ele>284.33333333333337</ele><time>2026-04-27T09:37:16.802Z</time></trkpt><trkpt lat="32.922734" lon="10.3970684"><ele>284.6666666666667</ele><time>2026-04-27T09:37:17.821Z</time></trkpt><trkpt lat="32.9226443" lon="10.3969047"><ele>285.0</ele><time>2026-04-27T09:37:18.81Z</time></trkpt><trkpt lat="32.9225367" lon="10.396749"><ele>285.0</ele><time>2026-04-27T09:37:19.826Z</time></trkpt><trkpt lat="32.922417" lon="10.3966071"><ele>285.0</ele><time>2026-04-27T09:37:20.807Z</time></trkpt><trkpt lat="32.9222953" lon="10.3964624"><ele>285.0</ele><time>2026-04-27T09:37:21.802Z</time></trkpt><trkpt lat="32.9221855" lon="10.3963048"><ele>287.3333333333333</ele><time>2026-04-27T09:37:22.795Z</time></trkpt><trkpt lat="32.9221014" lon="10.3961481"><ele>289.66666666666663</ele><time>2026-04-27T09:37:23.791Z</time></trkpt><trkpt lat="32.9220472" lon="10.3959817"><ele>292.0</ele><time>2026-04-27T09:37:24.805Z</time></trkpt><trkpt lat="32.9220263" lon="10.3957965"><ele>292.0</ele><time>2026-04-27T09:37:25.797Z</time></trkpt><trkpt lat="32.9220321" lon="10.3955946"><ele>292.0</ele><time>2026-04-27T09:37:26.794Z</time></trkpt><trkpt lat="32.9220646" lon="10.3953969"><ele>292.0</ele><time>2026-04-27T09:37:27.812Z</time></trkpt><trkpt lat="32.922114" lon="10.3952069"><ele>291.66666666666663</ele><time>2026-04-27T09:37:28.806Z</time></trkpt><trkpt lat="32.922177" lon="10.3950132"><ele>291.3333333333333</ele><time>2026-04-27T09:37:29.809Z</time></trkpt><trkpt lat="32.9222419" lon="10.3948198"><ele>291.0</ele><time>2026-04-27T09:37:30.81Z</time></trkpt><trkpt lat="32.9223146" lon="10.3946174"><ele>291.0</ele><time>2026-04-27T09:37:31.811Z</time></trkpt><trkpt lat="32.9223907" lon="10.394426"><ele>291.0</ele><time>2026-04-27T09:37:32.813Z</time></trkpt><trkpt lat="32.922473" lon="10.3942433"><ele>291.0</ele><time>2026-04-27T09:37:33.824Z</time></trkpt><trkpt lat="32.9225582" lon="10.3940617"><ele>290.6666666666667</ele><time>2026-04-27T09:37:34.806Z</time></trkpt><trkpt lat="32.9226452" lon="10.3938867"><ele>290.33333333333337</ele><time>2026-04-27T09:37:35.814Z</time></trkpt><trkpt lat="32.9227291" lon="10.3937234"><ele>290.0</ele><time>2026-04-27T09:37:36.809Z</time></trkpt><trkpt lat="32.9228087" lon="10.3935696"><ele>290.0</ele><time>2026-04-27T09:37:37.815Z</time></trkpt><trkpt lat="32.9228887" lon="10.3934288"><ele>290.0</ele><time>2026-04-27T09:37:38.814Z</time></trkpt><trkpt lat="32.9229729" lon="10.3933064"><ele>290.0</ele><time>2026-04-27T09:37:39.826Z</time></trkpt><trkpt lat="32.9230611" lon="10.3931921"><ele>290.0</ele><time>2026-04-27T09:37:40.82Z</time></trkpt><trkpt lat="32.9231394" lon="10.3931084"><ele>290.0</ele><time>2026-04-27T09:37:41.804Z</time></trkpt><trkpt lat="32.923217" lon="10.3930309"><ele>290.0</ele><time>2026-04-27T09:37:42.819Z</time></trkpt><trkpt lat="32.9232821" lon="10.3929621"><ele>290.0</ele><time>2026-04-27T09:37:43.82Z</time></trkpt><trkpt lat="32.9233095" lon="10.3928307"><ele>290.0</ele><time>2026-04-27T09:37:45.814Z</time></trkpt><trkpt lat="32.9232966" lon="10.3927555"><ele>290.0</ele><time>2026-04-27T09:37:46.808Z</time></trkpt><trkpt lat="32.9232666" lon="10.3926763"><ele>290.0</ele><time>2026-04-27T09:37:47.808Z</time></trkpt><trkpt lat="32.923253" lon="10.3925598"><ele>290.25</ele><time>2026-04-27T09:37:48.811Z</time></trkpt><trkpt lat="32.9232615" lon="10.3924197"><ele>290.5</ele><time>2026-04-27T09:37:49.812Z</time></trkpt><trkpt lat="32.9232746" lon="10.392263"><ele>290.75</ele><time>2026-04-27T09:37:50.822Z</time></trkpt><trkpt lat="32.9232884" lon="10.3920841"><ele>291.0</ele><time>2026-04-27T09:37:51.818Z</time></trkpt><trkpt lat="32.9233038" lon="10.3919029"><ele>291.0</ele><time>2026-04-27T09:37:52.813Z</time></trkpt><trkpt lat="32.923314" lon="10.3917072"><ele>291.0</ele><time>2026-04-27T09:37:53.811Z</time></trkpt><trkpt lat="32.9233197" lon="10.3915062"><ele>291.0</ele><time>2026-04-27T09:37:54.803Z</time></trkpt><trkpt lat="32.9233206" lon="10.3913095"><ele>291.6666666666667</ele><time>2026-04-27T09:37:55.815Z</time></trkpt><trkpt lat="32.9233124" lon="10.3911164"><ele>292.33333333333337</ele><time>2026-04-27T09:37:56.813Z</time></trkpt><trkpt lat="32.9233202" lon="10.3909312"><ele>293.0</ele><time>2026-04-27T09:37:57.81Z</time></trkpt><trkpt lat="32.923355" lon="10.3907601"><ele>293.0</ele><time>2026-04-27T09:37:58.818Z</time></trkpt><trkpt lat="32.9234104" lon="10.390602"><ele>293.0</ele><time>2026-04-27T09:37:59.81Z</time></trkpt><trkpt lat="32.9234734" lon="10.3904486"><ele>293.0</ele><time>2026-04-27T09:38:00.807Z</time></trkpt><trkpt lat="32.9235483" lon="10.390298"><ele>293.0</ele><time>2026-04-27T09:38:01.813Z</time></trkpt><trkpt lat="32.9236176" lon="10.3901329"><ele>293.33333333333337</ele><time>2026-04-27T09:38:02.805Z</time></trkpt><trkpt lat="32.9236767" lon="10.3899629"><ele>293.6666666666667</ele><time>2026-04-27T09:38:03.8Z</time></trkpt><trkpt lat="32.9237257" lon="10.3897884"><ele>294.0</ele><time>2026-04-27T09:38:04.802Z</time></trkpt><trkpt lat="32.9237718" lon="10.3896072"><ele>294.0</ele><time>2026-04-27T09:38:05.802Z</time></trkpt><trkpt lat="32.9238202" lon="10.3894239"><ele>294.0</ele><time>2026-04-27T09:38:06.811Z</time></trkpt><trkpt lat="32.9238742" lon="10.3892413"><ele>294.0</ele><time>2026-04-27T09:38:07.817Z</time></trkpt><trkpt lat="32.9239321" lon="10.3890563"><ele>294.0</ele><time>2026-04-27T09:38:08.805Z</time></trkpt><trkpt lat="32.9239918" lon="10.3888733"><ele>294.0</ele><time>2026-04-27T09:38:09.805Z</time></trkpt><trkpt lat="32.9240441" lon="10.3886921"><ele>294.0</ele><time>2026-04-27T09:38:10.823Z</time></trkpt><trkpt lat="32.9240984" lon="10.3885128"><ele>294.6666666666667</ele><time>2026-04-27T09:38:11.802Z</time></trkpt><trkpt lat="32.9241539" lon="10.3883356"><ele>295.33333333333337</ele><time>2026-04-27T09:38:12.801Z</time></trkpt><trkpt lat="32.9242154" lon="10.3881571"><ele>296.0</ele><time>2026-04-27T09:38:13.798Z</time></trkpt><trkpt lat="32.9242758" lon="10.3879747"><ele>297.0</ele><time>2026-04-27T09:38:14.806Z</time></trkpt><trkpt lat="32.9243329" lon="10.3877916"><ele>298.0</ele><time>2026-04-27T09:38:15.812Z</time></trkpt><trkpt lat="32.9243889" lon="10.3876062"><ele>299.0</ele><time>2026-04-27T09:38:16.801Z</time></trkpt><trkpt lat="32.9244401" lon="10.3874267"><ele>299.0</ele><time>2026-04-27T09:38:17.801Z</time></trkpt><trkpt lat="32.9244875" lon="10.3872474"><ele>299.0</ele><time>2026-04-27T09:38:18.809Z</time></trkpt><trkpt lat="32.9245371" lon="10.3870656"><ele>299.0</ele><time>2026-04-27T09:38:19.824Z</time></trkpt><trkpt lat="32.9245835" lon="10.3868742"><ele>300.33333333333337</ele><time>2026-04-27T09:38:20.8Z</time></trkpt><trkpt lat="32.9246209" lon="10.3866898"><ele>301.6666666666667</ele><time>2026-04-27T09:38:21.803Z</time></trkpt><trkpt lat="32.924642" lon="10.386504"><ele>303.0</ele><time>2026-04-27T09:38:22.811Z</time></trkpt><trkpt lat="32.9246466" lon="10.3863137"><ele>303.3333333333333</ele><time>2026-04-27T09:38:23.803Z</time></trkpt><trkpt lat="32.9246391" lon="10.3861229"><ele>303.66666666666663</ele><time>2026-04-27T09:38:24.806Z</time></trkpt><trkpt lat="32.9246235" lon="10.3859349"><ele>304.0</ele><time>2026-04-27T09:38:25.85Z</time></trkpt><trkpt lat="32.9246097" lon="10.3857439"><ele>304.0</ele><time>2026-04-27T09:38:26.809Z</time></trkpt><trkpt lat="32.9245993" lon="10.3855445"><ele>304.0</ele><time>2026-04-27T09:38:27.813Z</time></trkpt><trkpt lat="32.9245911" lon="10.3853436"><ele>304.0</ele><time>2026-04-27T09:38:28.81Z</time></trkpt><trkpt lat="32.9245794" lon="10.3851397"><ele>304.0</ele><time>2026-04-27T09:38:29.805Z</time></trkpt><trkpt lat="32.9245668" lon="10.3849319"><ele>304.0</ele><time>2026-04-27T09:38:30.809Z</time></trkpt><trkpt lat="32.9245539" lon="10.3847231"><ele>304.0</ele><time>2026-04-27T09:38:31.851Z</time></trkpt><trkpt lat="32.92454" lon="10.384519"><ele>304.3333333333333</ele><time>2026-04-27T09:38:32.805Z</time></trkpt><trkpt lat="32.9245212" lon="10.3843176"><ele>304.6666666666667</ele><time>2026-04-27T09:38:33.806Z</time></trkpt><trkpt lat="32.9245138" lon="10.3841248"><ele>305.0</ele><time>2026-04-27T09:38:34.805Z</time></trkpt><trkpt lat="32.9245156" lon="10.3839396"><ele>305.6666666666667</ele><time>2026-04-27T09:38:35.812Z</time></trkpt><trkpt lat="32.9245203" lon="10.383754"><ele>306.3333333333333</ele><time>2026-04-27T09:38:36.817Z</time></trkpt><trkpt lat="32.9245193" lon="10.3835633"><ele>307.0</ele><time>2026-04-27T09:38:37.817Z</time></trkpt><trkpt lat="32.9245216" lon="10.3833683"><ele>307.0</ele><time>2026-04-27T09:38:38.806Z</time></trkpt><trkpt lat="32.9245226" lon="10.3831838"><ele>307.0</ele><time>2026-04-27T09:38:39.803Z</time></trkpt><trkpt lat="32.9245218" lon="10.3830006"><ele>307.0</ele><time>2026-04-27T09:38:40.815Z</time></trkpt><trkpt lat="32.924515" lon="10.3828231"><ele>307.75</ele><time>2026-04-27T09:38:41.809Z</time></trkpt><trkpt lat="32.9245067" lon="10.3826454"><ele>308.5</ele><time>2026-04-27T09:38:42.811Z</time></trkpt><trkpt lat="32.9244999" lon="10.3824739"><ele>309.25</ele><time>2026-04-27T09:38:43.813Z</time></trkpt><trkpt lat="32.9244959" lon="10.3822945"><ele>310.0</ele><time>2026-04-27T09:38:44.809Z</time></trkpt><trkpt lat="32.9244936" lon="10.382113"><ele>310.66666666666663</ele><time>2026-04-27T09:38:45.818Z</time></trkpt><trkpt lat="32.9244907" lon="10.3819286"><ele>311.3333333333333</ele><time>2026-04-27T09:38:46.815Z</time></trkpt><trkpt lat="32.9244903" lon="10.381738"><ele>312.0</ele><time>2026-04-27T09:38:47.818Z</time></trkpt><trkpt lat="32.9244853" lon="10.3815446"><ele>312.0</ele><time>2026-04-27T09:38:48.82Z</time></trkpt><trkpt lat="32.9244835" lon="10.3813513"><ele>312.0</ele><time>2026-04-27T09:38:49.811Z</time></trkpt><trkpt lat="32.9244781" lon="10.381155"><ele>312.0</ele><time>2026-04-27T09:38:50.825Z</time></trkpt><trkpt lat="32.9244661" lon="10.3809563"><ele>312.0</ele><time>2026-04-27T09:38:51.807Z</time></trkpt><trkpt lat="32.9244473" lon="10.3807598"><ele>312.0</ele><time>2026-04-27T09:38:52.814Z</time></trkpt><trkpt lat="32.9244268" lon="10.3805657"><ele>312.0</ele><time>2026-04-27T09:38:53.815Z</time></trkpt><trkpt lat="32.9244041" lon="10.3803666"><ele>312.0</ele><time>2026-04-27T09:38:54.817Z</time></trkpt><trkpt lat="32.9243833" lon="10.3801592"><ele>312.0</ele><time>2026-04-27T09:38:55.807Z</time></trkpt><trkpt lat="32.9243624" lon="10.3799492"><ele>312.0</ele><time>2026-04-27T09:38:56.814Z</time></trkpt><trkpt lat="32.9243363" lon="10.3797424"><ele>312.6666666666667</ele><time>2026-04-27T09:38:57.835Z</time></trkpt><trkpt lat="32.9243068" lon="10.3795354"><ele>313.33333333333337</ele><time>2026-04-27T09:38:58.824Z</time></trkpt><trkpt lat="32.9242742" lon="10.3793336"><ele>314.0</ele><time>2026-04-27T09:38:59.811Z</time></trkpt><trkpt lat="32.9242386" lon="10.3791224"><ele>314.6666666666667</ele><time>2026-04-27T09:39:00.814Z</time></trkpt><trkpt lat="32.9242047" lon="10.3789108"><ele>315.3333333333333</ele><time>2026-04-27T09:39:01.809Z</time></trkpt><trkpt lat="32.9241802" lon="10.3787034"><ele>316.0</ele><time>2026-04-27T09:39:02.808Z</time></trkpt><trkpt lat="32.9241572" lon="10.3784979"><ele>316.0</ele><time>2026-04-27T09:39:03.803Z</time></trkpt><trkpt lat="32.9241357" lon="10.3782977"><ele>316.0</ele><time>2026-04-27T09:39:04.814Z</time></trkpt><trkpt lat="32.924113" lon="10.3781015"><ele>316.0</ele><time>2026-04-27T09:39:05.812Z</time></trkpt><trkpt lat="32.9240923" lon="10.3779108"><ele>317.3333333333333</ele><time>2026-04-27T09:39:06.817Z</time></trkpt><trkpt lat="32.9240647" lon="10.3777147"><ele>318.6666666666667</ele><time>2026-04-27T09:39:07.814Z</time></trkpt><trkpt lat="32.9240386" lon="10.3775181"><ele>320.0</ele><time>2026-04-27T09:39:08.807Z</time></trkpt><trkpt lat="32.9239963" lon="10.3771227"><ele>320.0</ele><time>2026-04-27T09:39:10.8Z</time></trkpt><trkpt lat="32.9239748" lon="10.376926"><ele>320.0</ele><time>2026-04-27T09:39:11.865Z</time></trkpt><trkpt lat="32.9239494" lon="10.3767326"><ele>320.0</ele><time>2026-04-27T09:39:12.802Z</time></trkpt><trkpt lat="32.9239239" lon="10.3765358"><ele>320.0</ele><time>2026-04-27T09:39:13.811Z</time></trkpt><trkpt lat="32.9239051" lon="10.376344"><ele>320.0</ele><time>2026-04-27T09:39:14.812Z</time></trkpt><trkpt lat="32.9238835" lon="10.3761519"><ele>320.0</ele><time>2026-04-27T09:39:15.81Z</time></trkpt><trkpt lat="32.9238642" lon="10.3759565"><ele>320.0</ele><time>2026-04-27T09:39:16.812Z</time></trkpt><trkpt lat="32.923843" lon="10.3757611"><ele>320.0</ele><time>2026-04-27T09:39:17.815Z</time></trkpt><trkpt lat="32.923822" lon="10.3755605"><ele>320.0</ele><time>2026-04-27T09:39:18.8Z</time></trkpt><trkpt lat="32.9238002" lon="10.3753637"><ele>319.33333333333337</ele><time>2026-04-27T09:39:19.822Z</time></trkpt><trkpt lat="32.9237776" lon="10.3751616"><ele>318.6666666666667</ele><time>2026-04-27T09:39:20.832Z</time></trkpt><trkpt lat="32.92375" lon="10.3749542"><ele>318.0</ele><time>2026-04-27T09:39:21.805Z</time></trkpt><trkpt lat="32.923734" lon="10.3747414"><ele>317.6666666666667</ele><time>2026-04-27T09:39:22.813Z</time></trkpt><trkpt lat="32.9237162" lon="10.3745187"><ele>317.33333333333337</ele><time>2026-04-27T09:39:23.812Z</time></trkpt><trkpt lat="32.9237" lon="10.3742914"><ele>317.0</ele><time>2026-04-27T09:39:24.816Z</time></trkpt><trkpt lat="32.9236883" lon="10.3740673"><ele>316.0</ele><time>2026-04-27T09:39:25.811Z</time></trkpt><trkpt lat="32.9236727" lon="10.3738503"><ele>315.0</ele><time>2026-04-27T09:39:26.818Z</time></trkpt><trkpt lat="32.9236544" lon="10.3736332"><ele>314.0</ele><time>2026-04-27T09:39:27.815Z</time></trkpt><trkpt lat="32.9236426" lon="10.3734217"><ele>314.0</ele><time>2026-04-27T09:39:28.818Z</time></trkpt><trkpt lat="32.9236385" lon="10.3732107"><ele>314.0</ele><time>2026-04-27T09:39:29.822Z</time></trkpt><trkpt lat="32.9236431" lon="10.3729986"><ele>314.0</ele><time>2026-04-27T09:39:30.808Z</time></trkpt><trkpt lat="32.9236658" lon="10.3727809"><ele>314.0</ele><time>2026-04-27T09:39:31.8Z</time></trkpt><trkpt lat="32.9237013" lon="10.3725705"><ele>314.0</ele><time>2026-04-27T09:39:32.805Z</time></trkpt><trkpt lat="32.9237448" lon="10.3723605"><ele>314.0</ele><time>2026-04-27T09:39:33.81Z</time></trkpt><trkpt lat="32.9237927" lon="10.372153"><ele>314.0</ele><time>2026-04-27T09:39:34.806Z</time></trkpt><trkpt lat="32.923843" lon="10.3719471"><ele>314.0</ele><time>2026-04-27T09:39:35.814Z</time></trkpt><trkpt lat="32.923903" lon="10.3717413"><ele>314.0</ele><time>2026-04-27T09:39:36.804Z</time></trkpt><trkpt lat="32.9239569" lon="10.3715332"><ele>314.0</ele><time>2026-04-27T09:39:37.807Z</time></trkpt><trkpt lat="32.9240062" lon="10.3713326"><ele>314.0</ele><time>2026-04-27T09:39:38.806Z</time></trkpt><trkpt lat="32.9240492" lon="10.3711296"><ele>314.0</ele><time>2026-04-27T09:39:39.805Z</time></trkpt><trkpt lat="32.924091" lon="10.3709234"><ele>314.0</ele><time>2026-04-27T09:39:40.81Z</time></trkpt><trkpt lat="32.9241335" lon="10.3707211"><ele>314.0</ele><time>2026-04-27T09:39:41.805Z</time></trkpt><trkpt lat="32.9241713" lon="10.3705245"><ele>314.0</ele><time>2026-04-27T09:39:42.807Z</time></trkpt><trkpt lat="32.9242085" lon="10.370328"><ele>313.33333333333337</ele><time>2026-04-27T09:39:43.809Z</time></trkpt><trkpt lat="32.924239" lon="10.3701375"><ele>312.6666666666667</ele><time>2026-04-27T09:39:44.817Z</time></trkpt><trkpt lat="32.924266" lon="10.369941"><ele>312.0</ele><time>2026-04-27T09:39:45.818Z</time></trkpt><trkpt lat="32.9242903" lon="10.3697473"><ele>311.3333333333333</ele><time>2026-04-27T09:39:46.818Z</time></trkpt><trkpt lat="32.9243152" lon="10.3695574"><ele>310.66666666666663</ele><time>2026-04-27T09:39:47.817Z</time></trkpt><trkpt lat="32.9243347" lon="10.3693687"><ele>310.0</ele><time>2026-04-27T09:39:48.816Z</time></trkpt><trkpt lat="32.9243537" lon="10.3691796"><ele>310.0</ele><time>2026-04-27T09:39:49.811Z</time></trkpt><trkpt lat="32.924375" lon="10.3689905"><ele>310.0</ele><time>2026-04-27T09:39:50.807Z</time></trkpt><trkpt lat="32.9244009" lon="10.3687974"><ele>310.0</ele><time>2026-04-27T09:39:51.81Z</time></trkpt><trkpt lat="32.9244287" lon="10.3686053"><ele>309.66666666666663</ele><time>2026-04-27T09:39:52.806Z</time></trkpt><trkpt lat="32.9244556" lon="10.3684172"><ele>309.3333333333333</ele><time>2026-04-27T09:39:53.813Z</time></trkpt><trkpt lat="32.9244838" lon="10.3682329"><ele>309.0</ele><time>2026-04-27T09:39:54.814Z</time></trkpt><trkpt lat="32.9245074" lon="10.3680531"><ele>310.0</ele><time>2026-04-27T09:39:55.821Z</time></trkpt><trkpt lat="32.9245288" lon="10.367873"><ele>311.0</ele><time>2026-04-27T09:39:56.813Z</time></trkpt><trkpt lat="32.9245478" lon="10.3676957"><ele>312.0</ele><time>2026-04-27T09:39:57.798Z</time></trkpt><trkpt lat="32.9245643" lon="10.3675204"><ele>312.0</ele><time>2026-04-27T09:39:58.805Z</time></trkpt><trkpt lat="32.9245798" lon="10.3673478"><ele>312.0</ele><time>2026-04-27T09:39:59.811Z</time></trkpt><trkpt lat="32.9246015" lon="10.3671728"><ele>312.0</ele><time>2026-04-27T09:40:00.812Z</time></trkpt><trkpt lat="32.9246197" lon="10.3669909"><ele>312.0</ele><time>2026-04-27T09:40:01.8Z</time></trkpt><trkpt lat="32.924641" lon="10.366814"><ele>313.25</ele><time>2026-04-27T09:40:02.804Z</time></trkpt><trkpt lat="32.924664" lon="10.3666367"><ele>314.5</ele><time>2026-04-27T09:40:03.811Z</time></trkpt><trkpt lat="32.9246838" lon="10.3664684"><ele>315.75</ele><time>2026-04-27T09:40:04.806Z</time></trkpt><trkpt lat="32.9247047" lon="10.3663038"><ele>317.0</ele><time>2026-04-27T09:40:05.844Z</time></trkpt><trkpt lat="32.9247238" lon="10.366137"><ele>317.5</ele><time>2026-04-27T09:40:06.813Z</time></trkpt><trkpt lat="32.9247415" lon="10.3659727"><ele>318.0</ele><time>2026-04-27T09:40:07.805Z</time></trkpt><trkpt lat="32.9247531" lon="10.365809"><ele>318.5</ele><time>2026-04-27T09:40:08.807Z</time></trkpt><trkpt lat="32.9247706" lon="10.3656445"><ele>319.0</ele><time>2026-04-27T09:40:09.804Z</time></trkpt><trkpt lat="32.92479" lon="10.365477"><ele>319.25</ele><time>2026-04-27T09:40:10.831Z</time></trkpt><trkpt lat="32.9248114" lon="10.3653134"><ele>319.5</ele><time>2026-04-27T09:40:11.81Z</time></trkpt><trkpt lat="32.9248366" lon="10.3651525"><ele>319.75</ele><time>2026-04-27T09:40:12.815Z</time></trkpt><trkpt lat="32.9248594" lon="10.3649885"><ele>320.0</ele><time>2026-04-27T09:40:13.813Z</time></trkpt><trkpt lat="32.9248883" lon="10.3648178"><ele>319.0</ele><time>2026-04-27T09:40:14.808Z</time></trkpt><trkpt lat="32.9249206" lon="10.3646414"><ele>318.0</ele><time>2026-04-27T09:40:15.808Z</time></trkpt><trkpt lat="32.9249517" lon="10.3644667"><ele>317.0</ele><time>2026-04-27T09:40:16.82Z</time></trkpt><trkpt lat="32.9249861" lon="10.3642886"><ele>317.0</ele><time>2026-04-27T09:40:17.804Z</time></trkpt><trkpt lat="32.925023" lon="10.3641043"><ele>317.0</ele><time>2026-04-27T09:40:18.811Z</time></trkpt><trkpt lat="32.925064" lon="10.363919"><ele>317.0</ele><time>2026-04-27T09:40:19.816Z</time></trkpt><trkpt lat="32.9251054" lon="10.3637369"><ele>315.6666666666667</ele><time>2026-04-27T09:40:20.808Z</time></trkpt><trkpt lat="32.9251477" lon="10.3635501"><ele>314.3333333333333</ele><time>2026-04-27T09:40:21.802Z</time></trkpt><trkpt lat="32.9251792" lon="10.3633594"><ele>313.0</ele><time>2026-04-27T09:40:22.807Z</time></trkpt><trkpt lat="32.9252013" lon="10.3631644"><ele>313.3333333333333</ele><time>2026-04-27T09:40:23.807Z</time></trkpt><trkpt lat="32.9252143" lon="10.3629701"><ele>313.6666666666667</ele><time>2026-04-27T09:40:24.811Z</time></trkpt><trkpt lat="32.9252135" lon="10.3627664"><ele>314.0</ele><time>2026-04-27T09:40:25.821Z</time></trkpt><trkpt lat="32.9252046" lon="10.3625661"><ele>314.0</ele><time>2026-04-27T09:40:26.812Z</time></trkpt><trkpt lat="32.9252019" lon="10.3623674"><ele>314.0</ele><time>2026-04-27T09:40:27.817Z</time></trkpt><trkpt lat="32.9251938" lon="10.3621695"><ele>314.0</ele><time>2026-04-27T09:40:28.82Z</time></trkpt><trkpt lat="32.9251838" lon="10.3619744"><ele>313.6666666666667</ele><time>2026-04-27T09:40:29.815Z</time></trkpt><trkpt lat="32.9251756" lon="10.3617864"><ele>313.3333333333333</ele><time>2026-04-27T09:40:30.808Z</time></trkpt><trkpt lat="32.9251656" lon="10.3615976"><ele>313.0</ele><time>2026-04-27T09:40:31.809Z</time></trkpt><trkpt lat="32.9251556" lon="10.3614116"><ele>314.0</ele><time>2026-04-27T09:40:32.796Z</time></trkpt><trkpt lat="32.9251435" lon="10.3612328"><ele>315.0</ele><time>2026-04-27T09:40:33.803Z</time></trkpt><trkpt lat="32.925131" lon="10.3610495"><ele>316.0</ele><time>2026-04-27T09:40:34.804Z</time></trkpt><trkpt lat="32.925124" lon="10.360862"><ele>316.0</ele><time>2026-04-27T09:40:35.807Z</time></trkpt><trkpt lat="32.925114" lon="10.3606756"><ele>316.0</ele><time>2026-04-27T09:40:36.804Z</time></trkpt><trkpt lat="32.9250997" lon="10.3604885"><ele>316.0</ele><time>2026-04-27T09:40:37.806Z</time></trkpt><trkpt lat="32.925085" lon="10.3603026"><ele>317.0</ele><time>2026-04-27T09:40:38.798Z</time></trkpt><trkpt lat="32.9250673" lon="10.3601196"><ele>318.0</ele><time>2026-04-27T09:40:39.84Z</time></trkpt><trkpt lat="32.9250513" lon="10.3599362"><ele>319.0</ele><time>2026-04-27T09:40:40.806Z</time></trkpt><trkpt lat="32.9250354" lon="10.3597513"><ele>320.0</ele><time>2026-04-27T09:40:41.814Z</time></trkpt><trkpt lat="32.9250171" lon="10.3595654"><ele>321.0</ele><time>2026-04-27T09:40:42.805Z</time></trkpt><trkpt lat="32.9249894" lon="10.3593828"><ele>322.0</ele><time>2026-04-27T09:40:43.806Z</time></trkpt><trkpt lat="32.9249639" lon="10.359195"><ele>322.0</ele><time>2026-04-27T09:40:44.802Z</time></trkpt><trkpt lat="32.9249423" lon="10.3590058"><ele>322.0</ele><time>2026-04-27T09:40:45.81Z</time></trkpt><trkpt lat="32.9249206" lon="10.3588147"><ele>322.0</ele><time>2026-04-27T09:40:46.817Z</time></trkpt><trkpt lat="32.9248966" lon="10.3586269"><ele>322.0</ele><time>2026-04-27T09:40:47.814Z</time></trkpt><trkpt lat="32.9248728" lon="10.3584403"><ele>322.0</ele><time>2026-04-27T09:40:48.82Z</time></trkpt><trkpt lat="32.9248448" lon="10.3582605"><ele>322.0</ele><time>2026-04-27T09:40:49.81Z</time></trkpt><trkpt lat="32.9248074" lon="10.3580878"><ele>322.3333333333333</ele><time>2026-04-27T09:40:50.812Z</time></trkpt><trkpt lat="32.9247596" lon="10.3579183"><ele>322.6666666666667</ele><time>2026-04-27T09:40:51.815Z</time></trkpt><trkpt lat="32.9247079" lon="10.3577339"><ele>323.0</ele><time>2026-04-27T09:40:52.815Z</time></trkpt><trkpt lat="32.9246523" lon="10.3575459"><ele>323.0</ele><time>2026-04-27T09:40:53.81Z</time></trkpt><trkpt lat="32.9245926" lon="10.3573629"><ele>323.0</ele><time>2026-04-27T09:40:54.803Z</time></trkpt><trkpt lat="32.9245362" lon="10.3571902"><ele>323.0</ele><time>2026-04-27T09:40:55.816Z</time></trkpt><trkpt lat="32.9244816" lon="10.3570207"><ele>323.33333333333337</ele><time>2026-04-27T09:40:56.804Z</time></trkpt><trkpt lat="32.9244368" lon="10.3568488"><ele>323.6666666666667</ele><time>2026-04-27T09:40:57.804Z</time></trkpt><trkpt lat="32.9243997" lon="10.3566682"><ele>324.0</ele><time>2026-04-27T09:40:58.804Z</time></trkpt><trkpt lat="32.9243768" lon="10.3564835"><ele>325.3333333333333</ele><time>2026-04-27T09:40:59.804Z</time></trkpt><trkpt lat="32.9243631" lon="10.3562932"><ele>326.66666666666663</ele><time>2026-04-27T09:41:00.817Z</time></trkpt><trkpt lat="32.9243471" lon="10.3561"><ele>328.0</ele><time>2026-04-27T09:41:01.827Z</time></trkpt><trkpt lat="32.9243272" lon="10.3559073"><ele>328.0</ele><time>2026-04-27T09:41:02.839Z</time></trkpt><trkpt lat="32.9243095" lon="10.3557144"><ele>328.0</ele><time>2026-04-27T09:41:03.83Z</time></trkpt><trkpt lat="32.9242868" lon="10.3555278"><ele>328.0</ele><time>2026-04-27T09:41:04.83Z</time></trkpt><trkpt lat="32.9242695" lon="10.3553354"><ele>328.66666666666663</ele><time>2026-04-27T09:41:05.828Z</time></trkpt><trkpt lat="32.9242571" lon="10.3551532"><ele>329.3333333333333</ele><time>2026-04-27T09:41:06.832Z</time></trkpt><trkpt lat="32.9242536" lon="10.3549671"><ele>330.0</ele><time>2026-04-27T09:41:07.84Z</time></trkpt><trkpt lat="32.9242494" lon="10.3547815"><ele>330.3333333333333</ele><time>2026-04-27T09:41:08.837Z</time></trkpt><trkpt lat="32.9242577" lon="10.3545883"><ele>330.66666666666663</ele><time>2026-04-27T09:41:09.844Z</time></trkpt><trkpt lat="32.9242726" lon="10.3543973"><ele>331.0</ele><time>2026-04-27T09:41:10.829Z</time></trkpt><trkpt lat="32.9242929" lon="10.3542104"><ele>331.0</ele><time>2026-04-27T09:41:11.846Z</time></trkpt><trkpt lat="32.9243231" lon="10.3540137"><ele>331.0</ele><time>2026-04-27T09:41:12.846Z</time></trkpt><trkpt lat="32.9243532" lon="10.3538223"><ele>331.0</ele><time>2026-04-27T09:41:13.805Z</time></trkpt><trkpt lat="32.9243862" lon="10.3536373"><ele>330.66666666666663</ele><time>2026-04-27T09:41:14.823Z</time></trkpt><trkpt lat="32.9244262" lon="10.3534478"><ele>330.3333333333333</ele><time>2026-04-27T09:41:15.8Z</time></trkpt><trkpt lat="32.9244697" lon="10.3532449"><ele>330.0</ele><time>2026-04-27T09:41:16.813Z</time></trkpt><trkpt lat="32.9245178" lon="10.3530415"><ele>328.3333333333333</ele><time>2026-04-27T09:41:17.808Z</time></trkpt><trkpt lat="32.9245652" lon="10.3528343"><ele>326.66666666666663</ele><time>2026-04-27T09:41:18.818Z</time></trkpt><trkpt lat="32.9246204" lon="10.3526288"><ele>325.0</ele><time>2026-04-27T09:41:19.81Z</time></trkpt><trkpt lat="32.9246791" lon="10.3524174"><ele>325.0</ele><time>2026-04-27T09:41:20.812Z</time></trkpt><trkpt lat="32.9247321" lon="10.3522139"><ele>325.0</ele><time>2026-04-27T09:41:21.799Z</time></trkpt><trkpt lat="32.924798" lon="10.3520048"><ele>325.0</ele><time>2026-04-27T09:41:22.84Z</time></trkpt><trkpt lat="32.9248668" lon="10.3518002"><ele>325.66666666666663</ele><time>2026-04-27T09:41:23.803Z</time></trkpt><trkpt lat="32.9249393" lon="10.3515878"><ele>326.3333333333333</ele><time>2026-04-27T09:41:24.809Z</time></trkpt><trkpt lat="32.9250146" lon="10.3513844"><ele>327.0</ele><time>2026-04-27T09:41:25.816Z</time></trkpt><trkpt lat="32.9250898" lon="10.3511817"><ele>327.0</ele><time>2026-04-27T09:41:26.805Z</time></trkpt><trkpt lat="32.9251689" lon="10.3509789"><ele>327.0</ele><time>2026-04-27T09:41:27.812Z</time></trkpt><trkpt lat="32.9252498" lon="10.3507725"><ele>327.0</ele><time>2026-04-27T09:41:28.803Z</time></trkpt><trkpt lat="32.9253334" lon="10.3505675"><ele>327.6666666666667</ele><time>2026-04-27T09:41:29.809Z</time></trkpt><trkpt lat="32.9254174" lon="10.3503642"><ele>328.33333333333337</ele><time>2026-04-27T09:41:30.841Z</time></trkpt><trkpt lat="32.9255011" lon="10.3501556"><ele>329.0</ele><time>2026-04-27T09:41:31.802Z</time></trkpt><trkpt lat="32.9255887" lon="10.3499514"><ele>329.0</ele><time>2026-04-27T09:41:32.842Z</time></trkpt><trkpt lat="32.9256762" lon="10.3497468"><ele>329.0</ele><time>2026-04-27T09:41:33.801Z</time></trkpt><trkpt lat="32.9257607" lon="10.3495476"><ele>329.0</ele><time>2026-04-27T09:41:34.807Z</time></trkpt><trkpt lat="32.9258406" lon="10.3493498"><ele>328.6666666666667</ele><time>2026-04-27T09:41:35.806Z</time></trkpt><trkpt lat="32.9259143" lon="10.349151"><ele>328.3333333333333</ele><time>2026-04-27T09:41:36.806Z</time></trkpt><trkpt lat="32.9259916" lon="10.3489498"><ele>328.0</ele><time>2026-04-27T09:41:37.816Z</time></trkpt><trkpt lat="32.9260679" lon="10.3487484"><ele>328.0</ele><time>2026-04-27T09:41:38.805Z</time></trkpt><trkpt lat="32.9261487" lon="10.3485508"><ele>328.0</ele><time>2026-04-27T09:41:39.796Z</time></trkpt><trkpt lat="32.9262328" lon="10.3483525"><ele>328.0</ele><time>2026-04-27T09:41:40.804Z</time></trkpt><trkpt lat="32.9263178" lon="10.3481542"><ele>327.3333333333333</ele><time>2026-04-27T09:41:41.802Z</time></trkpt><trkpt lat="32.9264068" lon="10.3479497"><ele>326.6666666666667</ele><time>2026-04-27T09:41:42.805Z</time></trkpt><trkpt lat="32.9264905" lon="10.347751"><ele>326.0</ele><time>2026-04-27T09:41:43.796Z</time></trkpt><trkpt lat="32.9265727" lon="10.3475528"><ele>326.0</ele><time>2026-04-27T09:41:44.812Z</time></trkpt><trkpt lat="32.9266543" lon="10.3473537"><ele>326.0</ele><time>2026-04-27T09:41:45.806Z</time></trkpt><trkpt lat="32.9267364" lon="10.3471545"><ele>326.0</ele><time>2026-04-27T09:41:46.805Z</time></trkpt><trkpt lat="32.9268189" lon="10.3469582"><ele>325.6666666666667</ele><time>2026-04-27T09:41:47.806Z</time></trkpt><trkpt lat="32.9269039" lon="10.3467647"><ele>325.3333333333333</ele><time>2026-04-27T09:41:48.801Z</time></trkpt><trkpt lat="32.9269868" lon="10.3465713"><ele>325.0</ele><time>2026-04-27T09:41:49.812Z</time></trkpt><trkpt lat="32.9270665" lon="10.3463784"><ele>325.66666666666663</ele><time>2026-04-27T09:41:50.805Z</time></trkpt><trkpt lat="32.9271465" lon="10.3461887"><ele>326.3333333333333</ele><time>2026-04-27T09:41:51.81Z</time></trkpt><trkpt lat="32.9272236" lon="10.3459976"><ele>327.0</ele><time>2026-04-27T09:41:52.809Z</time></trkpt><trkpt lat="32.9272965" lon="10.3458076"><ele>327.0</ele><time>2026-04-27T09:41:53.808Z</time></trkpt><trkpt lat="32.9273688" lon="10.3456139"><ele>327.0</ele><time>2026-04-27T09:41:54.811Z</time></trkpt><trkpt lat="32.9274442" lon="10.3454232"><ele>327.0</ele><time>2026-04-27T09:41:55.801Z</time></trkpt><trkpt lat="32.9275198" lon="10.3452313"><ele>327.0</ele><time>2026-04-27T09:41:56.814Z</time></trkpt><trkpt lat="32.9275936" lon="10.3450373"><ele>327.0</ele><time>2026-04-27T09:41:57.812Z</time></trkpt><trkpt lat="32.9276614" lon="10.3448465"><ele>327.0</ele><time>2026-04-27T09:41:58.812Z</time></trkpt><trkpt lat="32.9277296" lon="10.344658"><ele>327.0</ele><time>2026-04-27T09:41:59.798Z</time></trkpt><trkpt lat="32.9277899" lon="10.3444651"><ele>327.0</ele><time>2026-04-27T09:42:00.801Z</time></trkpt><trkpt lat="32.92785" lon="10.344268"><ele>327.0</ele><time>2026-04-27T09:42:01.801Z</time></trkpt><trkpt lat="32.9279035" lon="10.3440716"><ele>326.6666666666667</ele><time>2026-04-27T09:42:02.8Z</time></trkpt><trkpt lat="32.9279601" lon="10.3438692"><ele>326.33333333333337</ele><time>2026-04-27T09:42:03.798Z</time></trkpt><trkpt lat="32.9280075" lon="10.3436655"><ele>326.0</ele><time>2026-04-27T09:42:04.805Z</time></trkpt><trkpt lat="32.9280579" lon="10.3434536"><ele>326.0</ele><time>2026-04-27T09:42:05.819Z</time></trkpt><trkpt lat="32.9281131" lon="10.3432411"><ele>326.0</ele><time>2026-04-27T09:42:06.83Z</time></trkpt><trkpt lat="32.9281683" lon="10.3430303"><ele>326.0</ele><time>2026-04-27T09:42:07.804Z</time></trkpt><trkpt lat="32.9282161" lon="10.3428192"><ele>326.0</ele><time>2026-04-27T09:42:08.803Z</time></trkpt><trkpt lat="32.9282648" lon="10.3426069"><ele>326.0</ele><time>2026-04-27T09:42:09.801Z</time></trkpt><trkpt lat="32.9283082" lon="10.3423923"><ele>326.0</ele><time>2026-04-27T09:42:10.854Z</time></trkpt><trkpt lat="32.9283541" lon="10.3421794"><ele>326.0</ele><time>2026-04-27T09:42:11.801Z</time></trkpt><trkpt lat="32.9283986" lon="10.341964"><ele>326.0</ele><time>2026-04-27T09:42:12.803Z</time></trkpt><trkpt lat="32.9284372" lon="10.3417544"><ele>326.0</ele><time>2026-04-27T09:42:13.833Z</time></trkpt><trkpt lat="32.9284726" lon="10.3415468"><ele>326.0</ele><time>2026-04-27T09:42:14.808Z</time></trkpt><trkpt lat="32.9285081" lon="10.3413435"><ele>326.0</ele><time>2026-04-27T09:42:15.805Z</time></trkpt><trkpt lat="32.9285392" lon="10.3411366"><ele>326.0</ele><time>2026-04-27T09:42:16.808Z</time></trkpt><trkpt lat="32.9285675" lon="10.3409321"><ele>326.0</ele><time>2026-04-27T09:42:17.809Z</time></trkpt><trkpt lat="32.9285954" lon="10.3407267"><ele>326.0</ele><time>2026-04-27T09:42:18.8Z</time></trkpt><trkpt lat="32.9286247" lon="10.3405239"><ele>326.0</ele><time>2026-04-27T09:42:19.81Z</time></trkpt><trkpt lat="32.9286447" lon="10.3403193"><ele>326.33333333333337</ele><time>2026-04-27T09:42:20.799Z</time></trkpt><trkpt lat="32.9286626" lon="10.3401119"><ele>326.6666666666667</ele><time>2026-04-27T09:42:21.826Z</time></trkpt><trkpt lat="32.9286778" lon="10.3399052"><ele>327.0</ele><time>2026-04-27T09:42:22.809Z</time></trkpt><trkpt lat="32.9286872" lon="10.3396943"><ele>326.3333333333333</ele><time>2026-04-27T09:42:23.811Z</time></trkpt><trkpt lat="32.9286939" lon="10.339482"><ele>325.66666666666663</ele><time>2026-04-27T09:42:24.811Z</time></trkpt><trkpt lat="32.9286976" lon="10.3392677"><ele>325.0</ele><time>2026-04-27T09:42:25.805Z</time></trkpt><trkpt lat="32.9286923" lon="10.3390554"><ele>326.0</ele><time>2026-04-27T09:42:26.804Z</time></trkpt><trkpt lat="32.9286788" lon="10.3388426"><ele>327.0</ele><time>2026-04-27T09:42:27.81Z</time></trkpt><trkpt lat="32.9286541" lon="10.3386332"><ele>328.0</ele><time>2026-04-27T09:42:28.799Z</time></trkpt><trkpt lat="32.9286259" lon="10.338427"><ele>328.0</ele><time>2026-04-27T09:42:29.816Z</time></trkpt><trkpt lat="32.9285899" lon="10.3382266"><ele>328.0</ele><time>2026-04-27T09:42:30.804Z</time></trkpt><trkpt lat="32.9285547" lon="10.3380287"><ele>328.0</ele><time>2026-04-27T09:42:31.801Z</time></trkpt><trkpt lat="32.9285185" lon="10.3378326"><ele>327.66666666666663</ele><time>2026-04-27T09:42:32.804Z</time></trkpt><trkpt lat="32.9284816" lon="10.3376339"><ele>327.3333333333333</ele><time>2026-04-27T09:42:33.802Z</time></trkpt><trkpt lat="32.9284464" lon="10.3374311"><ele>327.0</ele><time>2026-04-27T09:42:34.805Z</time></trkpt><trkpt lat="32.9284065" lon="10.3372304"><ele>327.3333333333333</ele><time>2026-04-27T09:42:35.805Z</time></trkpt><trkpt lat="32.9283509" lon="10.337033"><ele>327.66666666666663</ele><time>2026-04-27T09:42:36.815Z</time></trkpt><trkpt lat="32.9282875" lon="10.3368409"><ele>328.0</ele><time>2026-04-27T09:42:37.8Z</time></trkpt><trkpt lat="32.9282135" lon="10.336644"><ele>328.0</ele><time>2026-04-27T09:42:38.807Z</time></trkpt><trkpt lat="32.9281297" lon="10.3364493"><ele>328.0</ele><time>2026-04-27T09:42:39.807Z</time></trkpt><trkpt lat="32.9280456" lon="10.3362525"><ele>328.0</ele><time>2026-04-27T09:42:40.808Z</time></trkpt><trkpt lat="32.9279597" lon="10.3360545"><ele>328.0</ele><time>2026-04-27T09:42:41.816Z</time></trkpt><trkpt lat="32.9278695" lon="10.335856"><ele>328.0</ele><time>2026-04-27T09:42:42.805Z</time></trkpt><trkpt lat="32.9277838" lon="10.3356589"><ele>328.0</ele><time>2026-04-27T09:42:43.81Z</time></trkpt><trkpt lat="32.9276991" lon="10.335466"><ele>327.66666666666663</ele><time>2026-04-27T09:42:44.813Z</time></trkpt><trkpt lat="32.927613" lon="10.3352743"><ele>327.3333333333333</ele><time>2026-04-27T09:42:45.809Z</time></trkpt><trkpt lat="32.9275277" lon="10.3350786"><ele>327.0</ele><time>2026-04-27T09:42:46.805Z</time></trkpt><trkpt lat="32.9274412" lon="10.3348842"><ele>327.3333333333333</ele><time>2026-04-27T09:42:47.815Z</time></trkpt><trkpt lat="32.9273596" lon="10.3346886"><ele>327.66666666666663</ele><time>2026-04-27T09:42:48.807Z</time></trkpt><trkpt lat="32.9272762" lon="10.3344927"><ele>328.0</ele><time>2026-04-27T09:42:49.81Z</time></trkpt><trkpt lat="32.9271929" lon="10.3342992"><ele>328.0</ele><time>2026-04-27T09:42:50.835Z</time></trkpt><trkpt lat="32.9271067" lon="10.3341011"><ele>328.0</ele><time>2026-04-27T09:42:51.803Z</time></trkpt><trkpt lat="32.9270242" lon="10.3339039"><ele>328.0</ele><time>2026-04-27T09:42:52.824Z</time></trkpt><trkpt lat="32.9269392" lon="10.3337069"><ele>327.0</ele><time>2026-04-27T09:42:53.815Z</time></trkpt><trkpt lat="32.9268517" lon="10.3335073"><ele>326.0</ele><time>2026-04-27T09:42:54.808Z</time></trkpt><trkpt lat="32.9267648" lon="10.3333065"><ele>325.0</ele><time>2026-04-27T09:42:55.803Z</time></trkpt><trkpt lat="32.9266811" lon="10.3331024"><ele>325.3333333333333</ele><time>2026-04-27T09:42:56.809Z</time></trkpt><trkpt lat="32.9265983" lon="10.3328989"><ele>325.6666666666667</ele><time>2026-04-27T09:42:57.811Z</time></trkpt><trkpt lat="32.926528" lon="10.3326965"><ele>326.0</ele><time>2026-04-27T09:42:58.812Z</time></trkpt><trkpt lat="32.9264591" lon="10.3324906"><ele>326.0</ele><time>2026-04-27T09:42:59.804Z</time></trkpt><trkpt lat="32.9264031" lon="10.3322847"><ele>326.0</ele><time>2026-04-27T09:43:00.807Z</time></trkpt><trkpt lat="32.9263509" lon="10.3320617"><ele>326.0</ele><time>2026-04-27T09:43:01.807Z</time></trkpt><trkpt lat="32.9263127" lon="10.331831"><ele>325.6666666666667</ele><time>2026-04-27T09:43:02.791Z</time></trkpt><trkpt lat="32.9262836" lon="10.3315991"><ele>325.3333333333333</ele><time>2026-04-27T09:43:03.803Z</time></trkpt><trkpt lat="32.9262548" lon="10.3313693"><ele>325.0</ele><time>2026-04-27T09:43:04.8Z</time></trkpt><trkpt lat="32.9262228" lon="10.3311364"><ele>324.0</ele><time>2026-04-27T09:43:05.803Z</time></trkpt><trkpt lat="32.9261885" lon="10.3309073"><ele>323.0</ele><time>2026-04-27T09:43:06.833Z</time></trkpt><trkpt lat="32.9261514" lon="10.3306717"><ele>322.0</ele><time>2026-04-27T09:43:07.81Z</time></trkpt><trkpt lat="32.9261077" lon="10.3304416"><ele>321.0</ele><time>2026-04-27T09:43:08.808Z</time></trkpt><trkpt lat="32.9260702" lon="10.3302071"><ele>320.0</ele><time>2026-04-27T09:43:09.805Z</time></trkpt><trkpt lat="32.926036" lon="10.3299708"><ele>319.0</ele><time>2026-04-27T09:43:10.801Z</time></trkpt><trkpt lat="32.9259996" lon="10.3297483"><ele>319.3333333333333</ele><time>2026-04-27T09:43:11.805Z</time></trkpt><trkpt lat="32.9259628" lon="10.3295301"><ele>319.6666666666667</ele><time>2026-04-27T09:43:12.811Z</time></trkpt><trkpt lat="32.9259248" lon="10.3293219"><ele>320.0</ele><time>2026-04-27T09:43:13.81Z</time></trkpt><trkpt lat="32.9258777" lon="10.3291121"><ele>321.0</ele><time>2026-04-27T09:43:14.809Z</time></trkpt><trkpt lat="32.925824" lon="10.3289081"><ele>322.0</ele><time>2026-04-27T09:43:15.804Z</time></trkpt><trkpt lat="32.9257633" lon="10.3287125"><ele>323.0</ele><time>2026-04-27T09:43:16.799Z</time></trkpt><trkpt lat="32.9257026" lon="10.328523"><ele>323.0</ele><time>2026-04-27T09:43:17.799Z</time></trkpt><trkpt lat="32.9256476" lon="10.3283288"><ele>323.0</ele><time>2026-04-27T09:43:18.798Z</time></trkpt><trkpt lat="32.9255987" lon="10.3281336"><ele>323.0</ele><time>2026-04-27T09:43:19.813Z</time></trkpt><trkpt lat="32.9255475" lon="10.3279374"><ele>323.6666666666667</ele><time>2026-04-27T09:43:20.809Z</time></trkpt><trkpt lat="32.9254965" lon="10.327741"><ele>324.3333333333333</ele><time>2026-04-27T09:43:21.807Z</time></trkpt><trkpt lat="32.9254446" lon="10.3275436"><ele>325.0</ele><time>2026-04-27T09:43:22.812Z</time></trkpt><trkpt lat="32.9253921" lon="10.3273432"><ele>325.3333333333333</ele><time>2026-04-27T09:43:23.813Z</time></trkpt><trkpt lat="32.9253412" lon="10.3271394"><ele>325.6666666666667</ele><time>2026-04-27T09:43:24.802Z</time></trkpt><trkpt lat="32.9252932" lon="10.3269436"><ele>326.0</ele><time>2026-04-27T09:43:25.816Z</time></trkpt><trkpt lat="32.925243" lon="10.3267509"><ele>326.0</ele><time>2026-04-27T09:43:26.793Z</time></trkpt><trkpt lat="32.9251947" lon="10.3265477"><ele>326.0</ele><time>2026-04-27T09:43:27.806Z</time></trkpt><trkpt lat="32.9251502" lon="10.3263493"><ele>326.0</ele><time>2026-04-27T09:43:28.809Z</time></trkpt><trkpt lat="32.9251079" lon="10.3261491"><ele>325.6666666666667</ele><time>2026-04-27T09:43:29.802Z</time></trkpt><trkpt lat="32.9250624" lon="10.3259531"><ele>325.3333333333333</ele><time>2026-04-27T09:43:30.823Z</time></trkpt><trkpt lat="32.9250146" lon="10.3257559"><ele>325.0</ele><time>2026-04-27T09:43:31.803Z</time></trkpt><trkpt lat="32.9249711" lon="10.3255596"><ele>326.0</ele><time>2026-04-27T09:43:32.807Z</time></trkpt><trkpt lat="32.9249253" lon="10.3253661"><ele>327.0</ele><time>2026-04-27T09:43:33.805Z</time></trkpt><trkpt lat="32.9248792" lon="10.3251771"><ele>328.0</ele><time>2026-04-27T09:43:34.81Z</time></trkpt><trkpt lat="32.9248341" lon="10.3249825"><ele>328.0</ele><time>2026-04-27T09:43:35.8Z</time></trkpt><trkpt lat="32.9247852" lon="10.3247895"><ele>328.0</ele><time>2026-04-27T09:43:36.801Z</time></trkpt><trkpt lat="32.9247388" lon="10.3245925"><ele>328.0</ele><time>2026-04-27T09:43:37.805Z</time></trkpt><trkpt lat="32.9246917" lon="10.3243928"><ele>329.0</ele><time>2026-04-27T09:43:38.825Z</time></trkpt><trkpt lat="32.9246439" lon="10.324193"><ele>330.0</ele><time>2026-04-27T09:43:39.806Z</time></trkpt><trkpt lat="32.9245936" lon="10.3239953"><ele>331.0</ele><time>2026-04-27T09:43:40.819Z</time></trkpt><trkpt lat="32.9245483" lon="10.3237948"><ele>331.0</ele><time>2026-04-27T09:43:41.81Z</time></trkpt><trkpt lat="32.924503" lon="10.3235843"><ele>331.0</ele><time>2026-04-27T09:43:42.801Z</time></trkpt><trkpt lat="32.9244558" lon="10.3233747"><ele>331.0</ele><time>2026-04-27T09:43:43.806Z</time></trkpt><trkpt lat="32.9244137" lon="10.3231667"><ele>330.66666666666663</ele><time>2026-04-27T09:43:44.804Z</time></trkpt><trkpt lat="32.9243735" lon="10.3229655"><ele>330.3333333333333</ele><time>2026-04-27T09:43:45.807Z</time></trkpt><trkpt lat="32.9243308" lon="10.3227651"><ele>330.0</ele><time>2026-04-27T09:43:46.806Z</time></trkpt><trkpt lat="32.924291" lon="10.3225625"><ele>330.0</ele><time>2026-04-27T09:43:47.811Z</time></trkpt><trkpt lat="32.9242534" lon="10.322364"><ele>330.0</ele><time>2026-04-27T09:43:48.813Z</time></trkpt><trkpt lat="32.9242154" lon="10.3221703"><ele>330.0</ele><time>2026-04-27T09:43:49.806Z</time></trkpt><trkpt lat="32.9241766" lon="10.3219768"><ele>329.6666666666667</ele><time>2026-04-27T09:43:50.809Z</time></trkpt><trkpt lat="32.9241356" lon="10.3217816"><ele>329.33333333333337</ele><time>2026-04-27T09:43:51.81Z</time></trkpt><trkpt lat="32.9240848" lon="10.3215783"><ele>329.0</ele><time>2026-04-27T09:43:52.817Z</time></trkpt><trkpt lat="32.9240256" lon="10.3213762"><ele>330.0</ele><time>2026-04-27T09:43:53.799Z</time></trkpt><trkpt lat="32.9239721" lon="10.3211731"><ele>331.0</ele><time>2026-04-27T09:43:54.811Z</time></trkpt><trkpt lat="32.9239148" lon="10.3209851"><ele>332.0</ele><time>2026-04-27T09:43:55.799Z</time></trkpt><trkpt lat="32.9238611" lon="10.3207893"><ele>332.0</ele><time>2026-04-27T09:43:56.81Z</time></trkpt><trkpt lat="32.9238082" lon="10.3205873"><ele>332.0</ele><time>2026-04-27T09:43:57.801Z</time></trkpt><trkpt lat="32.9237526" lon="10.3203806"><ele>332.0</ele><time>2026-04-27T09:43:58.812Z</time></trkpt><trkpt lat="32.9236901" lon="10.3201738"><ele>332.33333333333337</ele><time>2026-04-27T09:43:59.812Z</time></trkpt><trkpt lat="32.923635" lon="10.3199625"><ele>332.6666666666667</ele><time>2026-04-27T09:44:00.805Z</time></trkpt><trkpt lat="32.9235773" lon="10.3197461"><ele>333.0</ele><time>2026-04-27T09:44:01.83Z</time></trkpt><trkpt lat="32.9235159" lon="10.3195355"><ele>335.0</ele><time>2026-04-27T09:44:02.82Z</time></trkpt><trkpt lat="32.9234597" lon="10.319315"><ele>337.0</ele><time>2026-04-27T09:44:03.795Z</time></trkpt><trkpt lat="32.9234019" lon="10.319101"><ele>339.0</ele><time>2026-04-27T09:44:04.79Z</time></trkpt><trkpt lat="32.923349" lon="10.3188879"><ele>339.3333333333333</ele><time>2026-04-27T09:44:05.795Z</time></trkpt><trkpt lat="32.923299" lon="10.3186789"><ele>339.66666666666663</ele><time>2026-04-27T09:44:06.802Z</time></trkpt><trkpt lat="32.9232483" lon="10.3184727"><ele>340.0</ele><time>2026-04-27T09:44:07.817Z</time></trkpt><trkpt lat="32.9231944" lon="10.318264"><ele>341.0</ele><time>2026-04-27T09:44:08.794Z</time></trkpt><trkpt lat="32.9231406" lon="10.3180578"><ele>342.0</ele><time>2026-04-27T09:44:09.804Z</time></trkpt><trkpt lat="32.9230806" lon="10.3178623"><ele>343.0</ele><time>2026-04-27T09:44:10.837Z</time></trkpt><trkpt lat="32.9230184" lon="10.31768"><ele>343.0</ele><time>2026-04-27T09:44:11.806Z</time></trkpt><trkpt lat="32.922945" lon="10.3174915"><ele>343.0</ele><time>2026-04-27T09:44:12.828Z</time></trkpt><trkpt lat="32.9228619" lon="10.3173067"><ele>343.0</ele><time>2026-04-27T09:44:13.791Z</time></trkpt><trkpt lat="32.9227723" lon="10.3171285"><ele>342.66666666666663</ele><time>2026-04-27T09:44:14.795Z</time></trkpt><trkpt lat="32.9226829" lon="10.3169407"><ele>342.3333333333333</ele><time>2026-04-27T09:44:15.809Z</time></trkpt><trkpt lat="32.9225909" lon="10.3167552"><ele>342.0</ele><time>2026-04-27T09:44:16.812Z</time></trkpt><trkpt lat="32.9225" lon="10.3165664"><ele>340.0</ele><time>2026-04-27T09:44:17.809Z</time></trkpt><trkpt lat="32.9224019" lon="10.3163759"><ele>338.0</ele><time>2026-04-27T09:44:18.81Z</time></trkpt><trkpt lat="32.9223034" lon="10.3161863"><ele>336.0</ele><time>2026-04-27T09:44:19.819Z</time></trkpt><trkpt lat="32.9222076" lon="10.3159899"><ele>336.0</ele><time>2026-04-27T09:44:20.809Z</time></trkpt><trkpt lat="32.9221137" lon="10.3157905"><ele>336.0</ele><time>2026-04-27T09:44:21.807Z</time></trkpt><trkpt lat="32.9220227" lon="10.3155931"><ele>336.0</ele><time>2026-04-27T09:44:22.801Z</time></trkpt><trkpt lat="32.9219281" lon="10.3153947"><ele>336.0</ele><time>2026-04-27T09:44:23.829Z</time></trkpt><trkpt lat="32.9218346" lon="10.3151913"><ele>336.0</ele><time>2026-04-27T09:44:24.805Z</time></trkpt><trkpt lat="32.9217388" lon="10.3149907"><ele>336.0</ele><time>2026-04-27T09:44:25.809Z</time></trkpt><trkpt lat="32.9216478" lon="10.314794"><ele>336.6666666666667</ele><time>2026-04-27T09:44:26.808Z</time></trkpt><trkpt lat="32.9215525" lon="10.3145972"><ele>337.33333333333337</ele><time>2026-04-27T09:44:27.802Z</time></trkpt><trkpt lat="32.9214553" lon="10.3143992"><ele>338.0</ele><time>2026-04-27T09:44:28.82Z</time></trkpt><trkpt lat="32.9213589" lon="10.3141961"><ele>338.0</ele><time>2026-04-27T09:44:29.815Z</time></trkpt><trkpt lat="32.9212603" lon="10.3139894"><ele>338.0</ele><time>2026-04-27T09:44:30.799Z</time></trkpt><trkpt lat="32.9211618" lon="10.3137895"><ele>338.0</ele><time>2026-04-27T09:44:31.792Z</time></trkpt><trkpt lat="32.9210641" lon="10.3135908"><ele>338.0</ele><time>2026-04-27T09:44:32.798Z</time></trkpt><trkpt lat="32.9209691" lon="10.3133963"><ele>338.0</ele><time>2026-04-27T09:44:33.811Z</time></trkpt><trkpt lat="32.9208779" lon="10.3132038"><ele>338.0</ele><time>2026-04-27T09:44:34.809Z</time></trkpt><trkpt lat="32.9207872" lon="10.3130098"><ele>338.0</ele><time>2026-04-27T09:44:35.806Z</time></trkpt><trkpt lat="32.9206961" lon="10.312816"><ele>338.0</ele><time>2026-04-27T09:44:36.805Z</time></trkpt><trkpt lat="32.9206047" lon="10.3126213"><ele>338.0</ele><time>2026-04-27T09:44:37.822Z</time></trkpt><trkpt lat="32.9205121" lon="10.3124289"><ele>337.6666666666667</ele><time>2026-04-27T09:44:38.795Z</time></trkpt><trkpt lat="32.9204193" lon="10.3122381"><ele>337.3333333333333</ele><time>2026-04-27T09:44:39.795Z</time></trkpt><trkpt lat="32.92033" lon="10.3120549"><ele>337.0</ele><time>2026-04-27T09:44:40.804Z</time></trkpt><trkpt lat="32.9202367" lon="10.3118686"><ele>337.0</ele><time>2026-04-27T09:44:41.801Z</time></trkpt><trkpt lat="32.9201442" lon="10.3116861"><ele>337.0</ele><time>2026-04-27T09:44:42.792Z</time></trkpt><trkpt lat="32.9200539" lon="10.3114946"><ele>337.0</ele><time>2026-04-27T09:44:43.81Z</time></trkpt><trkpt lat="32.9199641" lon="10.3112995"><ele>337.66666666666663</ele><time>2026-04-27T09:44:44.796Z</time></trkpt><trkpt lat="32.9198732" lon="10.311102"><ele>338.3333333333333</ele><time>2026-04-27T09:44:45.806Z</time></trkpt><trkpt lat="32.9197917" lon="10.3108977"><ele>339.0</ele><time>2026-04-27T09:44:46.804Z</time></trkpt><trkpt lat="32.9197238" lon="10.3106945"><ele>339.3333333333333</ele><time>2026-04-27T09:44:47.798Z</time></trkpt><trkpt lat="32.9196612" lon="10.3104824"><ele>339.66666666666663</ele><time>2026-04-27T09:44:48.805Z</time></trkpt><trkpt lat="32.9196041" lon="10.3102743"><ele>340.0</ele><time>2026-04-27T09:44:49.813Z</time></trkpt><trkpt lat="32.9195471" lon="10.3100606"><ele>340.0</ele><time>2026-04-27T09:44:50.792Z</time></trkpt><trkpt lat="32.9194958" lon="10.3098458"><ele>340.0</ele><time>2026-04-27T09:44:51.825Z</time></trkpt><trkpt lat="32.9194459" lon="10.3096467"><ele>340.0</ele><time>2026-04-27T09:44:52.798Z</time></trkpt><trkpt lat="32.9193973" lon="10.3094552"><ele>340.0</ele><time>2026-04-27T09:44:53.807Z</time></trkpt><trkpt lat="32.9193553" lon="10.3092831"><ele>340.0</ele><time>2026-04-27T09:44:54.803Z</time></trkpt><trkpt lat="32.9193149" lon="10.3091238"><ele>340.0</ele><time>2026-04-27T09:44:55.807Z</time></trkpt><trkpt lat="32.9192811" lon="10.3089859"><ele>340.0</ele><time>2026-04-27T09:44:56.805Z</time></trkpt><trkpt lat="32.9192552" lon="10.3088939"><ele>339.8333333333333</ele><time>2026-04-27T09:44:57.796Z</time></trkpt><trkpt lat="32.9192348" lon="10.30882"><ele>339.66666666666663</ele><time>2026-04-27T09:44:58.8Z</time></trkpt><trkpt lat="32.9192244" lon="10.3087386"><ele>339.5</ele><time>2026-04-27T09:45:00.805Z</time></trkpt><trkpt lat="32.9192168" lon="10.308652"><ele>339.3333333333333</ele><time>2026-04-27T09:46:32.085Z</time></trkpt><trkpt lat="32.9191938" lon="10.3085352"><ele>339.1666666666667</ele><time>2026-04-27T09:46:34.066Z</time></trkpt><trkpt lat="32.9191618" lon="10.3084676"><ele>339.0</ele><time>2026-04-27T09:46:35.094Z</time></trkpt><trkpt lat="32.9191254" lon="10.3083836"><ele>340.25</ele><time>2026-04-27T09:46:36.059Z</time></trkpt><trkpt lat="32.9190864" lon="10.3082824"><ele>341.5</ele><time>2026-04-27T09:46:37.068Z</time></trkpt><trkpt lat="32.9190474" lon="10.3081395"><ele>342.75</ele><time>2026-04-27T09:46:38.051Z</time></trkpt><trkpt lat="32.9190032" lon="10.30797"><ele>344.0</ele><time>2026-04-27T09:46:39.075Z</time></trkpt><trkpt lat="32.9189582" lon="10.307794"><ele>344.0</ele><time>2026-04-27T09:46:40.079Z</time></trkpt><trkpt lat="32.9189024" lon="10.3076107"><ele>344.0</ele><time>2026-04-27T09:46:41.099Z</time></trkpt><trkpt lat="32.918847" lon="10.3074174"><ele>344.0</ele><time>2026-04-27T09:46:42.053Z</time></trkpt><trkpt lat="32.918795" lon="10.3072299"><ele>344.0</ele><time>2026-04-27T09:46:43.064Z</time></trkpt><trkpt lat="32.9187367" lon="10.307036"><ele>344.0</ele><time>2026-04-27T09:46:44.068Z</time></trkpt><trkpt lat="32.9186781" lon="10.3068472"><ele>344.0</ele><time>2026-04-27T09:46:45.059Z</time></trkpt><trkpt lat="32.9186234" lon="10.3066574"><ele>344.0</ele><time>2026-04-27T09:46:46.057Z</time></trkpt><trkpt lat="32.918571" lon="10.3064694"><ele>344.0</ele><time>2026-04-27T09:46:47.058Z</time></trkpt><trkpt lat="32.9183648" lon="10.3057074"><ele>343.6666666666667</ele><time>2026-04-27T09:46:51.084Z</time></trkpt><trkpt lat="32.918309" lon="10.305523"><ele>343.3333333333333</ele><time>2026-04-27T09:46:52.058Z</time></trkpt><trkpt lat="32.9182544" lon="10.3053419"><ele>343.0</ele><time>2026-04-27T09:46:53.042Z</time></trkpt><trkpt lat="32.9181998" lon="10.3051456"><ele>343.0</ele><time>2026-04-27T09:46:54.046Z</time></trkpt><trkpt lat="32.9181446" lon="10.3049528"><ele>343.0</ele><time>2026-04-27T09:46:55.079Z</time></trkpt><trkpt lat="32.9180923" lon="10.3047693"><ele>343.0</ele><time>2026-04-27T09:46:56.092Z</time></trkpt><trkpt lat="32.9180405" lon="10.3045921"><ele>343.3333333333333</ele><time>2026-04-27T09:46:57.071Z</time></trkpt><trkpt lat="32.9179897" lon="10.3044057"><ele>343.6666666666667</ele><time>2026-04-27T09:46:58.039Z</time></trkpt><trkpt lat="32.9179397" lon="10.3042244"><ele>344.0</ele><time>2026-04-27T09:46:59.061Z</time></trkpt><trkpt lat="32.9178889" lon="10.3040381"><ele>343.6666666666667</ele><time>2026-04-27T09:47:00.058Z</time></trkpt><trkpt lat="32.9178342" lon="10.3038488"><ele>343.3333333333333</ele><time>2026-04-27T09:47:01.053Z</time></trkpt><trkpt lat="32.9177795" lon="10.3036621"><ele>343.0</ele><time>2026-04-27T09:47:02.072Z</time></trkpt><trkpt lat="32.9177211" lon="10.3034802"><ele>343.0</ele><time>2026-04-27T09:47:03.062Z</time></trkpt><trkpt lat="32.9176611" lon="10.3032927"><ele>343.0</ele><time>2026-04-27T09:47:04.05Z</time></trkpt><trkpt lat="32.9176014" lon="10.3031055"><ele>343.0</ele><time>2026-04-27T09:47:05.051Z</time></trkpt><trkpt lat="32.9175458" lon="10.3029202"><ele>342.66666666666663</ele><time>2026-04-27T09:47:06.088Z</time></trkpt><trkpt lat="32.9174885" lon="10.302727"><ele>342.3333333333333</ele><time>2026-04-27T09:47:07.06Z</time></trkpt><trkpt lat="32.9174281" lon="10.3025351"><ele>342.0</ele><time>2026-04-27T09:47:08.061Z</time></trkpt><trkpt lat="32.917366" lon="10.3023433"><ele>342.6666666666667</ele><time>2026-04-27T09:47:09.063Z</time></trkpt><trkpt lat="32.9173045" lon="10.302146"><ele>343.33333333333337</ele><time>2026-04-27T09:47:10.069Z</time></trkpt><trkpt lat="32.9172453" lon="10.3019558"><ele>344.0</ele><time>2026-04-27T09:47:11.124Z</time></trkpt><trkpt lat="32.9171876" lon="10.3017624"><ele>344.0</ele><time>2026-04-27T09:47:12.074Z</time></trkpt><trkpt lat="32.9171277" lon="10.3015765"><ele>344.0</ele><time>2026-04-27T09:47:13.071Z</time></trkpt><trkpt lat="32.917068" lon="10.3013873"><ele>344.0</ele><time>2026-04-27T09:47:14.068Z</time></trkpt><trkpt lat="32.9170089" lon="10.3012011"><ele>344.0</ele><time>2026-04-27T09:47:15.074Z</time></trkpt><trkpt lat="32.9169471" lon="10.3010157"><ele>344.0</ele><time>2026-04-27T09:47:16.063Z</time></trkpt><trkpt lat="32.9168919" lon="10.30083"><ele>344.0</ele><time>2026-04-27T09:47:17.072Z</time></trkpt><trkpt lat="32.9168359" lon="10.3006441"><ele>344.0</ele><time>2026-04-27T09:47:18.08Z</time></trkpt><trkpt lat="32.9167782" lon="10.3004605"><ele>344.0</ele><time>2026-04-27T09:47:19.082Z</time></trkpt><trkpt lat="32.9167228" lon="10.3002767"><ele>344.0</ele><time>2026-04-27T09:47:20.075Z</time></trkpt><trkpt lat="32.9166673" lon="10.3000899"><ele>344.33333333333337</ele><time>2026-04-27T09:47:21.075Z</time></trkpt><trkpt lat="32.9166085" lon="10.2998988"><ele>344.6666666666667</ele><time>2026-04-27T09:47:22.09Z</time></trkpt><trkpt lat="32.9165527" lon="10.2997024"><ele>345.0</ele><time>2026-04-27T09:47:23.059Z</time></trkpt><trkpt lat="32.9164988" lon="10.2994968"><ele>345.0</ele><time>2026-04-27T09:47:24.058Z</time></trkpt><trkpt lat="32.9164492" lon="10.2992977"><ele>345.0</ele><time>2026-04-27T09:47:25.074Z</time></trkpt><trkpt lat="32.9163971" lon="10.2990962"><ele>345.0</ele><time>2026-04-27T09:47:26.069Z</time></trkpt><trkpt lat="32.9163434" lon="10.2988941"><ele>345.3333333333333</ele><time>2026-04-27T09:47:27.069Z</time></trkpt><trkpt lat="32.9162867" lon="10.2986985"><ele>345.66666666666663</ele><time>2026-04-27T09:47:28.075Z</time></trkpt><trkpt lat="32.9162279" lon="10.2984957"><ele>346.0</ele><time>2026-04-27T09:47:29.073Z</time></trkpt><trkpt lat="32.9161764" lon="10.2982897"><ele>346.0</ele><time>2026-04-27T09:47:30.057Z</time></trkpt><trkpt lat="32.9161254" lon="10.2980854"><ele>346.0</ele><time>2026-04-27T09:47:31.061Z</time></trkpt><trkpt lat="32.9160771" lon="10.2978767"><ele>346.0</ele><time>2026-04-27T09:47:32.096Z</time></trkpt><trkpt lat="32.9160297" lon="10.2976701"><ele>346.0</ele><time>2026-04-27T09:47:33.082Z</time></trkpt><trkpt lat="32.9159824" lon="10.2974631"><ele>346.0</ele><time>2026-04-27T09:47:34.082Z</time></trkpt><trkpt lat="32.9159412" lon="10.297264"><ele>346.0</ele><time>2026-04-27T09:47:35.084Z</time></trkpt><trkpt lat="32.9159014" lon="10.2970665"><ele>346.0</ele><time>2026-04-27T09:47:36.082Z</time></trkpt><trkpt lat="32.9158576" lon="10.2968685"><ele>346.0</ele><time>2026-04-27T09:47:37.072Z</time></trkpt><trkpt lat="32.9158124" lon="10.2966677"><ele>346.0</ele><time>2026-04-27T09:47:38.067Z</time></trkpt><trkpt lat="32.9157704" lon="10.2964642"><ele>347.0</ele><time>2026-04-27T09:47:39.064Z</time></trkpt><trkpt lat="32.9157312" lon="10.2962595"><ele>348.0</ele><time>2026-04-27T09:47:40.078Z</time></trkpt><trkpt lat="32.9156954" lon="10.2960574"><ele>349.0</ele><time>2026-04-27T09:47:41.082Z</time></trkpt><trkpt lat="32.9156675" lon="10.2958559"><ele>349.0</ele><time>2026-04-27T09:47:42.067Z</time></trkpt><trkpt lat="32.9156416" lon="10.295649"><ele>349.0</ele><time>2026-04-27T09:47:43.076Z</time></trkpt><trkpt lat="32.9156159" lon="10.2954372"><ele>349.0</ele><time>2026-04-27T09:47:44.085Z</time></trkpt><trkpt lat="32.9155974" lon="10.2952259"><ele>349.0</ele><time>2026-04-27T09:47:45.069Z</time></trkpt><trkpt lat="32.9155753" lon="10.2950167"><ele>349.0</ele><time>2026-04-27T09:47:46.073Z</time></trkpt><trkpt lat="32.9155564" lon="10.2948038"><ele>349.0</ele><time>2026-04-27T09:47:47.077Z</time></trkpt><trkpt lat="32.9155358" lon="10.2945961"><ele>349.0</ele><time>2026-04-27T09:47:48.069Z</time></trkpt><trkpt lat="32.9155125" lon="10.2943866"><ele>349.0</ele><time>2026-04-27T09:47:49.062Z</time></trkpt><trkpt lat="32.9154905" lon="10.2941765"><ele>349.0</ele><time>2026-04-27T09:47:50.07Z</time></trkpt><trkpt lat="32.9154662" lon="10.2939698"><ele>349.66666666666663</ele><time>2026-04-27T09:47:51.071Z</time></trkpt><trkpt lat="32.9154421" lon="10.2937646"><ele>350.3333333333333</ele><time>2026-04-27T09:47:52.07Z</time></trkpt><trkpt lat="32.9154169" lon="10.2935602"><ele>351.0</ele><time>2026-04-27T09:47:53.074Z</time></trkpt><trkpt lat="32.9153945" lon="10.2933537"><ele>351.0</ele><time>2026-04-27T09:47:54.089Z</time></trkpt><trkpt lat="32.9153728" lon="10.2931498"><ele>351.0</ele><time>2026-04-27T09:47:55.062Z</time></trkpt><trkpt lat="32.9153481" lon="10.2929494"><ele>351.0</ele><time>2026-04-27T09:47:56.072Z</time></trkpt><trkpt lat="32.9153246" lon="10.2927478"><ele>351.0</ele><time>2026-04-27T09:47:57.066Z</time></trkpt><trkpt lat="32.9152985" lon="10.2925473"><ele>351.0</ele><time>2026-04-27T09:47:58.079Z</time></trkpt><trkpt lat="32.9152748" lon="10.2923393"><ele>351.0</ele><time>2026-04-27T09:47:59.086Z</time></trkpt><trkpt lat="32.9152488" lon="10.2921371"><ele>350.6666666666667</ele><time>2026-04-27T09:48:00.077Z</time></trkpt><trkpt lat="32.915224" lon="10.2919324"><ele>350.33333333333337</ele><time>2026-04-27T09:48:01.071Z</time></trkpt><trkpt lat="32.9152029" lon="10.2917255"><ele>350.0</ele><time>2026-04-27T09:48:02.067Z</time></trkpt><trkpt lat="32.9151802" lon="10.2915209"><ele>350.0</ele><time>2026-04-27T09:48:03.061Z</time></trkpt><trkpt lat="32.9151548" lon="10.2913203"><ele>350.0</ele><time>2026-04-27T09:48:04.058Z</time></trkpt><trkpt lat="32.9151289" lon="10.2911142"><ele>350.0</ele><time>2026-04-27T09:48:05.082Z</time></trkpt><trkpt lat="32.9150969" lon="10.2909068"><ele>351.0</ele><time>2026-04-27T09:48:06.087Z</time></trkpt><trkpt lat="32.9150617" lon="10.2907014"><ele>352.0</ele><time>2026-04-27T09:48:07.093Z</time></trkpt><trkpt lat="32.9150175" lon="10.2905007"><ele>353.0</ele><time>2026-04-27T09:48:08.065Z</time></trkpt><trkpt lat="32.9149701" lon="10.2903031"><ele>353.33333333333337</ele><time>2026-04-27T09:48:09.076Z</time></trkpt><trkpt lat="32.9149164" lon="10.2901101"><ele>353.6666666666667</ele><time>2026-04-27T09:48:10.086Z</time></trkpt><trkpt lat="32.9148582" lon="10.2899159"><ele>354.0</ele><time>2026-04-27T09:48:11.093Z</time></trkpt><trkpt lat="32.9148" lon="10.2897221"><ele>354.0</ele><time>2026-04-27T09:48:12.074Z</time></trkpt><trkpt lat="32.9147413" lon="10.2895289"><ele>354.0</ele><time>2026-04-27T09:48:13.069Z</time></trkpt><trkpt lat="32.914683" lon="10.2893345"><ele>354.0</ele><time>2026-04-27T09:48:14.079Z</time></trkpt><trkpt lat="32.9146307" lon="10.2891377"><ele>354.0</ele><time>2026-04-27T09:48:15.077Z</time></trkpt><trkpt lat="32.9145768" lon="10.2889424"><ele>354.0</ele><time>2026-04-27T09:48:16.083Z</time></trkpt><trkpt lat="32.9145237" lon="10.2887467"><ele>354.0</ele><time>2026-04-27T09:48:17.079Z</time></trkpt><trkpt lat="32.9144713" lon="10.2885562"><ele>354.6666666666667</ele><time>2026-04-27T09:48:18.073Z</time></trkpt><trkpt lat="32.9144196" lon="10.288365"><ele>355.33333333333337</ele><time>2026-04-27T09:48:19.083Z</time></trkpt><trkpt lat="32.9143696" lon="10.2881759"><ele>356.0</ele><time>2026-04-27T09:48:20.075Z</time></trkpt><trkpt lat="32.9143203" lon="10.2879835"><ele>357.0</ele><time>2026-04-27T09:48:21.069Z</time></trkpt><trkpt lat="32.9142735" lon="10.2877956"><ele>358.0</ele><time>2026-04-27T09:48:22.06Z</time></trkpt><trkpt lat="32.914222" lon="10.2875997"><ele>359.0</ele><time>2026-04-27T09:48:23.066Z</time></trkpt><trkpt lat="32.914169" lon="10.2874093"><ele>359.33333333333337</ele><time>2026-04-27T09:48:24.084Z</time></trkpt><trkpt lat="32.9141158" lon="10.2872206"><ele>359.6666666666667</ele><time>2026-04-27T09:48:25.067Z</time></trkpt><trkpt lat="32.9140594" lon="10.2870291"><ele>360.0</ele><time>2026-04-27T09:48:26.072Z</time></trkpt><trkpt lat="32.9140041" lon="10.2868285"><ele>360.0</ele><time>2026-04-27T09:48:27.091Z</time></trkpt><trkpt lat="32.913947" lon="10.2866407"><ele>360.0</ele><time>2026-04-27T09:48:28.078Z</time></trkpt><trkpt lat="32.9138905" lon="10.2864504"><ele>360.0</ele><time>2026-04-27T09:48:29.079Z</time></trkpt><trkpt lat="32.9138307" lon="10.2862575"><ele>360.3333333333333</ele><time>2026-04-27T09:48:30.084Z</time></trkpt><trkpt lat="32.9137747" lon="10.286064"><ele>360.66666666666663</ele><time>2026-04-27T09:48:31.079Z</time></trkpt><trkpt lat="32.913719" lon="10.2858725"><ele>361.0</ele><time>2026-04-27T09:48:32.082Z</time></trkpt><trkpt lat="32.9136626" lon="10.285676"><ele>361.0</ele><time>2026-04-27T09:48:33.087Z</time></trkpt><trkpt lat="32.9136086" lon="10.2854773"><ele>361.0</ele><time>2026-04-27T09:48:34.065Z</time></trkpt><trkpt lat="32.9135554" lon="10.2852776"><ele>361.0</ele><time>2026-04-27T09:48:35.109Z</time></trkpt><trkpt lat="32.9135034" lon="10.2850777"><ele>361.0</ele><time>2026-04-27T09:48:36.07Z</time></trkpt><trkpt lat="32.9134526" lon="10.2848833"><ele>361.0</ele><time>2026-04-27T09:48:37.074Z</time></trkpt><trkpt lat="32.9133982" lon="10.284688"><ele>361.0</ele><time>2026-04-27T09:48:38.061Z</time></trkpt><trkpt lat="32.9133476" lon="10.2844897"><ele>362.66666666666663</ele><time>2026-04-27T09:48:39.064Z</time></trkpt><trkpt lat="32.9133033" lon="10.2842936"><ele>364.3333333333333</ele><time>2026-04-27T09:48:40.074Z</time></trkpt><trkpt lat="32.9132621" lon="10.2840995"><ele>366.0</ele><time>2026-04-27T09:48:41.09Z</time></trkpt><trkpt lat="32.9132269" lon="10.2838953"><ele>366.0</ele><time>2026-04-27T09:48:42.086Z</time></trkpt><trkpt lat="32.9132093" lon="10.2836838"><ele>366.0</ele><time>2026-04-27T09:48:43.087Z</time></trkpt><trkpt lat="32.9132132" lon="10.2834755"><ele>366.0</ele><time>2026-04-27T09:48:44.082Z</time></trkpt><trkpt lat="32.9132187" lon="10.283272"><ele>366.0</ele><time>2026-04-27T09:48:45.082Z</time></trkpt><trkpt lat="32.9132181" lon="10.2830725"><ele>366.0</ele><time>2026-04-27T09:48:46.08Z</time></trkpt><trkpt lat="32.913224" lon="10.2828814"><ele>366.0</ele><time>2026-04-27T09:48:47.088Z</time></trkpt><trkpt lat="32.9132541" lon="10.2826905"><ele>366.0</ele><time>2026-04-27T09:48:48.082Z</time></trkpt><trkpt lat="32.9132907" lon="10.2824987"><ele>366.0</ele><time>2026-04-27T09:48:49.074Z</time></trkpt><trkpt lat="32.9133322" lon="10.2823173"><ele>366.0</ele><time>2026-04-27T09:48:50.08Z</time></trkpt><trkpt lat="32.9133777" lon="10.282146"><ele>365.75</ele><time>2026-04-27T09:48:51.087Z</time></trkpt><trkpt lat="32.9134262" lon="10.2819741"><ele>365.5</ele><time>2026-04-27T09:48:52.083Z</time></trkpt><trkpt lat="32.913473" lon="10.2818102"><ele>365.25</ele><time>2026-04-27T09:48:53.076Z</time></trkpt><trkpt lat="32.9135191" lon="10.2816427"><ele>365.0</ele><time>2026-04-27T09:48:54.077Z</time></trkpt><trkpt lat="32.9135649" lon="10.281483"><ele>365.75</ele><time>2026-04-27T09:48:55.083Z</time></trkpt><trkpt lat="32.9136171" lon="10.281324"><ele>366.5</ele><time>2026-04-27T09:48:56.068Z</time></trkpt><trkpt lat="32.9136745" lon="10.281173"><ele>367.25</ele><time>2026-04-27T09:48:57.07Z</time></trkpt><trkpt lat="32.9137425" lon="10.2810212"><ele>368.0</ele><time>2026-04-27T09:48:58.083Z</time></trkpt><trkpt lat="32.9138143" lon="10.2808663"><ele>368.0</ele><time>2026-04-27T09:48:59.081Z</time></trkpt><trkpt lat="32.9138885" lon="10.2807113"><ele>368.0</ele><time>2026-04-27T09:49:00.081Z</time></trkpt><trkpt lat="32.9139548" lon="10.2805606"><ele>368.0</ele><time>2026-04-27T09:49:01.083Z</time></trkpt><trkpt lat="32.9140188" lon="10.2804035"><ele>368.0</ele><time>2026-04-27T09:49:02.09Z</time></trkpt><trkpt lat="32.9140818" lon="10.2802452"><ele>367.75</ele><time>2026-04-27T09:49:03.084Z</time></trkpt><trkpt lat="32.9141401" lon="10.2800866"><ele>367.5</ele><time>2026-04-27T09:49:04.085Z</time></trkpt><trkpt lat="32.914197" lon="10.2799256"><ele>367.25</ele><time>2026-04-27T09:49:05.072Z</time></trkpt><trkpt lat="32.9142587" lon="10.2797633"><ele>367.0</ele><time>2026-04-27T09:49:06.076Z</time></trkpt><trkpt lat="32.9143203" lon="10.279595"><ele>367.0</ele><time>2026-04-27T09:49:07.092Z</time></trkpt><trkpt lat="32.9143824" lon="10.2794284"><ele>367.0</ele><time>2026-04-27T09:49:08.075Z</time></trkpt><trkpt lat="32.914447" lon="10.279262"><ele>367.0</ele><time>2026-04-27T09:49:09.087Z</time></trkpt><trkpt lat="32.9145096" lon="10.2791022"><ele>367.0</ele><time>2026-04-27T09:49:10.063Z</time></trkpt><trkpt lat="32.9145768" lon="10.27894"><ele>367.0</ele><time>2026-04-27T09:49:11.072Z</time></trkpt><trkpt lat="32.9146375" lon="10.2787818"><ele>367.0</ele><time>2026-04-27T09:49:12.085Z</time></trkpt><trkpt lat="32.9146965" lon="10.278627"><ele>367.0</ele><time>2026-04-27T09:49:13.064Z</time></trkpt><trkpt lat="32.9147528" lon="10.2784831"><ele>368.25</ele><time>2026-04-27T09:49:14.083Z</time></trkpt><trkpt lat="32.9148082" lon="10.2783423"><ele>369.5</ele><time>2026-04-27T09:49:15.076Z</time></trkpt><trkpt lat="32.9148635" lon="10.2782028"><ele>370.75</ele><time>2026-04-27T09:49:16.088Z</time></trkpt><trkpt lat="32.9149195" lon="10.2780614"><ele>372.0</ele><time>2026-04-27T09:49:17.204Z</time></trkpt><trkpt lat="32.9149739" lon="10.2779196"><ele>372.5</ele><time>2026-04-27T09:49:18.137Z</time></trkpt><trkpt lat="32.9150371" lon="10.2777874"><ele>373.0</ele><time>2026-04-27T09:49:19.137Z</time></trkpt><trkpt lat="32.9151086" lon="10.2776512"><ele>373.5</ele><time>2026-04-27T09:49:20.126Z</time></trkpt><trkpt lat="32.9151889" lon="10.2775204"><ele>374.0</ele><time>2026-04-27T09:49:21.133Z</time></trkpt><trkpt lat="32.9152759" lon="10.2773917"><ele>372.75</ele><time>2026-04-27T09:49:22.118Z</time></trkpt><trkpt lat="32.9153619" lon="10.2772612"><ele>371.5</ele><time>2026-04-27T09:49:23.116Z</time></trkpt><trkpt lat="32.9154486" lon="10.2771418"><ele>370.25</ele><time>2026-04-27T09:49:24.131Z</time></trkpt><trkpt lat="32.9155462" lon="10.27702"><ele>369.0</ele><time>2026-04-27T09:49:25.12Z</time></trkpt><trkpt lat="32.9156474" lon="10.2768971"><ele>369.0</ele><time>2026-04-27T09:49:26.139Z</time></trkpt><trkpt lat="32.9157472" lon="10.2767733"><ele>369.0</ele><time>2026-04-27T09:49:27.131Z</time></trkpt><trkpt lat="32.9158447" lon="10.276646"><ele>369.0</ele><time>2026-04-27T09:49:28.132Z</time></trkpt><trkpt lat="32.9159329" lon="10.2765065"><ele>369.0</ele><time>2026-04-27T09:49:29.136Z</time></trkpt><trkpt lat="32.9160065" lon="10.276358"><ele>368.3333333333333</ele><time>2026-04-27T09:49:30.123Z</time></trkpt><trkpt lat="32.9160626" lon="10.2761901"><ele>367.66666666666663</ele><time>2026-04-27T09:49:31.129Z</time></trkpt><trkpt lat="32.9161047" lon="10.2760185"><ele>367.0</ele><time>2026-04-27T09:49:32.117Z</time></trkpt><trkpt lat="32.9161406" lon="10.2758441"><ele>367.0</ele><time>2026-04-27T09:49:33.131Z</time></trkpt><trkpt lat="32.9161832" lon="10.2756771"><ele>367.0</ele><time>2026-04-27T09:49:34.137Z</time></trkpt><trkpt lat="32.9162338" lon="10.2755191"><ele>367.0</ele><time>2026-04-27T09:49:35.123Z</time></trkpt><trkpt lat="32.9162988" lon="10.275362"><ele>367.0</ele><time>2026-04-27T09:49:36.17Z</time></trkpt><trkpt lat="32.9163831" lon="10.2752224"><ele>367.25</ele><time>2026-04-27T09:49:37.114Z</time></trkpt><trkpt lat="32.9164686" lon="10.275107"><ele>367.5</ele><time>2026-04-27T09:49:38.117Z</time></trkpt><trkpt lat="32.9165619" lon="10.2750154"><ele>367.75</ele><time>2026-04-27T09:49:39.128Z</time></trkpt><trkpt lat="32.916656" lon="10.2749289"><ele>368.0</ele><time>2026-04-27T09:49:40.125Z</time></trkpt><trkpt lat="32.9167491" lon="10.274828"><ele>366.0</ele><time>2026-04-27T09:49:41.123Z</time></trkpt><trkpt lat="32.9168387" lon="10.2747061"><ele>364.0</ele><time>2026-04-27T09:49:42.152Z</time></trkpt><trkpt lat="32.9169138" lon="10.2745662"><ele>362.0</ele><time>2026-04-27T09:49:43.123Z</time></trkpt><trkpt lat="32.9169794" lon="10.2744116"><ele>360.0</ele><time>2026-04-27T09:49:44.128Z</time></trkpt><trkpt lat="32.9170288" lon="10.2742448"><ele>360.0</ele><time>2026-04-27T09:49:45.127Z</time></trkpt><trkpt lat="32.917059" lon="10.2740635"><ele>360.0</ele><time>2026-04-27T09:49:46.136Z</time></trkpt><trkpt lat="32.917071" lon="10.2738736"><ele>360.0</ele><time>2026-04-27T09:49:47.123Z</time></trkpt><trkpt lat="32.9170742" lon="10.2736832"><ele>360.0</ele><time>2026-04-27T09:49:48.113Z</time></trkpt><trkpt lat="32.9170739" lon="10.2734789"><ele>360.0</ele><time>2026-04-27T09:49:49.132Z</time></trkpt><trkpt lat="32.9170889" lon="10.2732862"><ele>360.0</ele><time>2026-04-27T09:49:50.123Z</time></trkpt><trkpt lat="32.9170938" lon="10.2730914"><ele>360.3333333333333</ele><time>2026-04-27T09:49:51.12Z</time></trkpt><trkpt lat="32.9170969" lon="10.2729005"><ele>360.66666666666663</ele><time>2026-04-27T09:49:52.127Z</time></trkpt><trkpt lat="32.9171036" lon="10.2727081"><ele>361.0</ele><time>2026-04-27T09:49:53.15Z</time></trkpt><trkpt lat="32.9171068" lon="10.2725201"><ele>361.0</ele><time>2026-04-27T09:49:54.119Z</time></trkpt><trkpt lat="32.917114" lon="10.2723322"><ele>361.0</ele><time>2026-04-27T09:49:55.136Z</time></trkpt><trkpt lat="32.9171244" lon="10.2721415"><ele>361.0</ele><time>2026-04-27T09:49:56.131Z</time></trkpt><trkpt lat="32.9171378" lon="10.2719477"><ele>361.66666666666663</ele><time>2026-04-27T09:49:57.125Z</time></trkpt><trkpt lat="32.9171469" lon="10.27175"><ele>362.3333333333333</ele><time>2026-04-27T09:49:58.121Z</time></trkpt><trkpt lat="32.9171544" lon="10.2715491"><ele>363.0</ele><time>2026-04-27T09:49:59.125Z</time></trkpt><trkpt lat="32.9171588" lon="10.2713515"><ele>363.3333333333333</ele><time>2026-04-27T09:50:00.09Z</time></trkpt><trkpt lat="32.9171653" lon="10.2711484"><ele>363.66666666666663</ele><time>2026-04-27T09:50:01.085Z</time></trkpt><trkpt lat="32.9171732" lon="10.2709438"><ele>364.0</ele><time>2026-04-27T09:50:02.062Z</time></trkpt><trkpt lat="32.9171816" lon="10.2707337"><ele>365.0</ele><time>2026-04-27T09:50:03.134Z</time></trkpt><trkpt lat="32.917196" lon="10.2705263"><ele>366.0</ele><time>2026-04-27T09:50:04.094Z</time></trkpt><trkpt lat="32.9172074" lon="10.2703216"><ele>367.0</ele><time>2026-04-27T09:50:05.127Z</time></trkpt><trkpt lat="32.9172242" lon="10.2701124"><ele>367.0</ele><time>2026-04-27T09:50:06.128Z</time></trkpt><trkpt lat="32.9172377" lon="10.2699057"><ele>367.0</ele><time>2026-04-27T09:50:07.131Z</time></trkpt><trkpt lat="32.9172455" lon="10.269701"><ele>367.0</ele><time>2026-04-27T09:50:08.121Z</time></trkpt><trkpt lat="32.91725" lon="10.269494"><ele>367.0</ele><time>2026-04-27T09:50:09.129Z</time></trkpt><trkpt lat="32.9172531" lon="10.2692919"><ele>367.0</ele><time>2026-04-27T09:50:10.132Z</time></trkpt><trkpt lat="32.9172477" lon="10.2690954"><ele>367.0</ele><time>2026-04-27T09:50:11.138Z</time></trkpt><trkpt lat="32.9172373" lon="10.2688933"><ele>367.0</ele><time>2026-04-27T09:50:12.126Z</time></trkpt><trkpt lat="32.9172148" lon="10.2686927"><ele>367.0</ele><time>2026-04-27T09:50:13.125Z</time></trkpt><trkpt lat="32.9171888" lon="10.268487"><ele>367.0</ele><time>2026-04-27T09:50:14.109Z</time></trkpt><trkpt lat="32.9171591" lon="10.2682805"><ele>367.3333333333333</ele><time>2026-04-27T09:50:15.129Z</time></trkpt><trkpt lat="32.9171376" lon="10.2680711"><ele>367.6666666666667</ele><time>2026-04-27T09:50:16.118Z</time></trkpt><trkpt lat="32.9171196" lon="10.2678591"><ele>368.0</ele><time>2026-04-27T09:50:17.124Z</time></trkpt><trkpt lat="32.9171031" lon="10.2676513"><ele>368.0</ele><time>2026-04-27T09:50:18.109Z</time></trkpt><trkpt lat="32.9170849" lon="10.2674398"><ele>368.0</ele><time>2026-04-27T09:50:19.128Z</time></trkpt><trkpt lat="32.917062" lon="10.2672443"><ele>368.0</ele><time>2026-04-27T09:50:20.12Z</time></trkpt><trkpt lat="32.9170289" lon="10.2670514"><ele>368.6666666666667</ele><time>2026-04-27T09:50:21.113Z</time></trkpt><trkpt lat="32.9169944" lon="10.2668694"><ele>369.3333333333333</ele><time>2026-04-27T09:50:22.119Z</time></trkpt><trkpt lat="32.9169547" lon="10.2666861"><ele>370.0</ele><time>2026-04-27T09:50:23.119Z</time></trkpt><trkpt lat="32.9169146" lon="10.2664999"><ele>370.0</ele><time>2026-04-27T09:50:24.124Z</time></trkpt><trkpt lat="32.9168705" lon="10.266319"><ele>370.0</ele><time>2026-04-27T09:50:25.123Z</time></trkpt><trkpt lat="32.9168233" lon="10.2661384"><ele>370.0</ele><time>2026-04-27T09:50:26.138Z</time></trkpt><trkpt lat="32.9167736" lon="10.2659614"><ele>371.66666666666663</ele><time>2026-04-27T09:50:27.115Z</time></trkpt><trkpt lat="32.9167153" lon="10.2657919"><ele>373.3333333333333</ele><time>2026-04-27T09:50:28.116Z</time></trkpt><trkpt lat="32.9166599" lon="10.2656208"><ele>375.0</ele><time>2026-04-27T09:50:29.126Z</time></trkpt><trkpt lat="32.9166042" lon="10.2654503"><ele>375.3333333333333</ele><time>2026-04-27T09:50:30.127Z</time></trkpt><trkpt lat="32.9165467" lon="10.2652792"><ele>375.66666666666663</ele><time>2026-04-27T09:50:31.128Z</time></trkpt><trkpt lat="32.916494" lon="10.2651064"><ele>376.0</ele><time>2026-04-27T09:50:32.123Z</time></trkpt><trkpt lat="32.9164402" lon="10.2649333"><ele>376.3333333333333</ele><time>2026-04-27T09:50:33.126Z</time></trkpt><trkpt lat="32.9163875" lon="10.2647568"><ele>376.6666666666667</ele><time>2026-04-27T09:50:34.13Z</time></trkpt><trkpt lat="32.9163342" lon="10.2645854"><ele>377.0</ele><time>2026-04-27T09:50:35.119Z</time></trkpt><trkpt lat="32.9162821" lon="10.2644106"><ele>377.0</ele><time>2026-04-27T09:50:36.138Z</time></trkpt><trkpt lat="32.9162255" lon="10.2642421"><ele>377.0</ele><time>2026-04-27T09:50:37.134Z</time></trkpt><trkpt lat="32.9161804" lon="10.26407"><ele>377.0</ele><time>2026-04-27T09:50:38.133Z</time></trkpt><trkpt lat="32.9161289" lon="10.2639091"><ele>377.0</ele><time>2026-04-27T09:50:39.113Z</time></trkpt><trkpt lat="32.9160586" lon="10.2637471"><ele>377.75</ele><time>2026-04-27T09:50:40.124Z</time></trkpt><trkpt lat="32.9159751" lon="10.2636012"><ele>378.5</ele><time>2026-04-27T09:50:41.152Z</time></trkpt><trkpt lat="32.9158764" lon="10.2634668"><ele>379.25</ele><time>2026-04-27T09:50:42.134Z</time></trkpt><trkpt lat="32.9157736" lon="10.2633395"><ele>380.0</ele><time>2026-04-27T09:50:43.132Z</time></trkpt><trkpt lat="32.9156752" lon="10.2632099"><ele>381.5</ele><time>2026-04-27T09:50:44.119Z</time></trkpt><trkpt lat="32.9155772" lon="10.2630835"><ele>383.0</ele><time>2026-04-27T09:50:45.132Z</time></trkpt><trkpt lat="32.9154816" lon="10.2629433"><ele>384.5</ele><time>2026-04-27T09:50:46.119Z</time></trkpt><trkpt lat="32.915389" lon="10.2627997"><ele>386.0</ele><time>2026-04-27T09:50:47.128Z</time></trkpt><trkpt lat="32.9152974" lon="10.2626513"><ele>386.0</ele><time>2026-04-27T09:50:48.122Z</time></trkpt><trkpt lat="32.9152035" lon="10.2625045"><ele>386.0</ele><time>2026-04-27T09:50:49.143Z</time></trkpt><trkpt lat="32.9151084" lon="10.2623578"><ele>386.0</ele><time>2026-04-27T09:50:50.146Z</time></trkpt><trkpt lat="32.9150253" lon="10.2622018"><ele>389.0</ele><time>2026-04-27T09:50:51.13Z</time></trkpt><trkpt lat="32.9149466" lon="10.2620438"><ele>392.0</ele><time>2026-04-27T09:50:52.125Z</time></trkpt><trkpt lat="32.9148588" lon="10.2619031"><ele>395.0</ele><time>2026-04-27T09:50:53.14Z</time></trkpt><trkpt lat="32.9147615" lon="10.2617788"><ele>398.0</ele><time>2026-04-27T09:50:54.13Z</time></trkpt><trkpt lat="32.9146662" lon="10.2616556"><ele>398.0</ele><time>2026-04-27T09:50:55.114Z</time></trkpt><trkpt lat="32.9145774" lon="10.2615334"><ele>398.0</ele><time>2026-04-27T09:50:56.137Z</time></trkpt><trkpt lat="32.9145014" lon="10.2614264"><ele>398.0</ele><time>2026-04-27T09:50:57.14Z</time></trkpt><trkpt lat="32.9144391" lon="10.2613238"><ele>398.0</ele><time>2026-04-27T09:50:58.125Z</time></trkpt><trkpt lat="32.9143894" lon="10.2612262"><ele>397.66666666666663</ele><time>2026-04-27T09:50:59.118Z</time></trkpt><trkpt lat="32.9143572" lon="10.2611297"><ele>397.3333333333333</ele><time>2026-04-27T09:51:00.119Z</time></trkpt><trkpt lat="32.9143502" lon="10.2610346"><ele>397.0</ele><time>2026-04-27T09:51:01.115Z</time></trkpt><trkpt lat="32.9143765" lon="10.2609491"><ele>396.66666666666663</ele><time>2026-04-27T09:51:02.126Z</time></trkpt><trkpt lat="32.914423" lon="10.2608667"><ele>396.3333333333333</ele><time>2026-04-27T09:51:03.118Z</time></trkpt><trkpt lat="32.9144683" lon="10.2607996"><ele>396.0</ele><time>2026-04-27T09:51:04.116Z</time></trkpt><trkpt lat="32.9145039" lon="10.2606918"><ele>396.0</ele><time>2026-04-27T09:51:06.137Z</time></trkpt><trkpt lat="32.9144466" lon="10.2606025"><ele>396.0</ele><time>2026-04-27T09:51:08.104Z</time></trkpt><trkpt lat="32.9143714" lon="10.2606001"><ele>396.0</ele><time>2026-04-27T09:51:10.135Z</time></trkpt><trkpt lat="32.9143273" lon="10.2606613"><ele>396.0</ele><time>2026-04-27T09:51:12.13Z</time></trkpt><trkpt lat="32.9142979" lon="10.2607752"><ele>396.0</ele><time>2026-04-27T09:51:14.129Z</time></trkpt><trkpt lat="32.9142764" lon="10.2608528"><ele>396.0</ele><time>2026-04-27T09:51:15.129Z</time></trkpt><trkpt lat="32.9142662" lon="10.2609948"><ele>400.0</ele><time>2026-04-27T09:51:17.135Z</time></trkpt><trkpt lat="32.9142308" lon="10.2611039"><ele>404.0</ele><time>2026-04-27T09:51:18.122Z</time></trkpt><trkpt lat="32.9142034" lon="10.2611849"><ele>408.0</ele><time>2026-04-27T09:51:19.11Z</time></trkpt><trkpt lat="32.914157" lon="10.2612681"><ele>412.0</ele><time>2026-04-27T09:51:21.116Z</time></trkpt><trkpt lat="32.9141796" lon="10.2613615"><ele>416.0</ele><time>2026-04-27T09:51:25.129Z</time></trkpt><trkpt lat="32.9141724" lon="10.2614426"><ele>420.0</ele><time>2026-04-27T09:51:30.136Z</time></trkpt><trkpt lat="32.9141779" lon="10.2615216"><ele>421.0</ele><time>2026-04-27T09:51:36.134Z</time></trkpt><trkpt lat="32.9142142" lon="10.2615937"><ele>422.0</ele><time>2026-04-27T09:51:39.13Z</time></trkpt><trkpt lat="32.9142165" lon="10.2619965"><ele>423.0</ele><time>2026-04-27T09:51:40.077Z</time></trkpt><trkpt lat="32.9142551" lon="10.2619309"><ele>423.0</ele><time>2026-04-27T09:51:46.079Z</time></trkpt><trkpt lat="32.9142352" lon="10.2618056"><ele>423.0</ele><time>2026-04-27T09:51:49.057Z</time></trkpt><trkpt lat="32.9142195" lon="10.2616966"><ele>423.0</ele><time>2026-04-27T09:51:51.061Z</time></trkpt><trkpt lat="32.9142074" lon="10.2615924"><ele>423.0</ele><time>2026-04-27T09:51:53.062Z</time></trkpt><trkpt lat="32.9141858" lon="10.2614658"><ele>423.0</ele><time>2026-04-27T09:51:55.066Z</time></trkpt><trkpt lat="32.9141766" lon="10.2613311"><ele>422.4</ele><time>2026-04-27T09:51:57.062Z</time></trkpt><trkpt lat="32.9141804" lon="10.2612051"><ele>421.79999999999995</ele><time>2026-04-27T09:51:59.071Z</time></trkpt><trkpt lat="32.9141906" lon="10.261102"><ele>421.2</ele><time>2026-04-27T09:52:01.064Z</time></trkpt><trkpt lat="32.9142" lon="10.2610027"><ele>420.6</ele><time>2026-04-27T09:52:03.066Z</time></trkpt><trkpt lat="32.9142366" lon="10.2609032"><ele>420.0</ele><time>2026-04-27T09:52:06.067Z</time></trkpt><trkpt lat="32.9142938" lon="10.2608205"><ele>416.0</ele><time>2026-04-27T09:52:08.078Z</time></trkpt><trkpt lat="32.9143501" lon="10.2607469"><ele>412.0</ele><time>2026-04-27T09:52:10.067Z</time></trkpt><trkpt lat="32.9143958" lon="10.2606763"><ele>408.0</ele><time>2026-04-27T09:52:12.074Z</time></trkpt><trkpt lat="32.9144273" lon="10.2606101"><ele>404.0</ele><time>2026-04-27T09:52:14.075Z</time></trkpt><trkpt lat="32.9144217" lon="10.2605305"><ele>400.0</ele><time>2026-04-27T09:52:16.055Z</time></trkpt><trkpt lat="32.9143697" lon="10.260422"><ele>396.0</ele><time>2026-04-27T09:52:18.08Z</time></trkpt><trkpt lat="32.9143238" lon="10.2603507"><ele>395.0</ele><time>2026-04-27T09:52:19.073Z</time></trkpt><trkpt lat="32.9142587" lon="10.260278"><ele>394.0</ele><time>2026-04-27T09:52:20.062Z</time></trkpt><trkpt lat="32.9141826" lon="10.2602225"><ele>393.0</ele><time>2026-04-27T09:52:21.084Z</time></trkpt><trkpt lat="32.9141047" lon="10.2601844"><ele>392.0</ele><time>2026-04-27T09:52:22.08Z</time></trkpt><trkpt lat="32.9140094" lon="10.2601696"><ele>391.0</ele><time>2026-04-27T09:52:23.065Z</time></trkpt><trkpt lat="32.9139219" lon="10.2601331"><ele>391.0</ele><time>2026-04-27T09:52:24.07Z</time></trkpt><trkpt lat="32.913832" lon="10.2600556"><ele>391.0</ele><time>2026-04-27T09:52:25.082Z</time></trkpt><trkpt lat="32.9137616" lon="10.2599341"><ele>391.0</ele><time>2026-04-27T09:52:26.077Z</time></trkpt><trkpt lat="32.9136907" lon="10.2598066"><ele>391.0</ele><time>2026-04-27T09:52:27.076Z</time></trkpt><trkpt lat="32.9136146" lon="10.2596737"><ele>391.0</ele><time>2026-04-27T09:52:28.061Z</time></trkpt><trkpt lat="32.913543" lon="10.2595592"><ele>391.0</ele><time>2026-04-27T09:52:29.075Z</time></trkpt><trkpt lat="32.913459" lon="10.2594432"><ele>391.0</ele><time>2026-04-27T09:52:30.061Z</time></trkpt><trkpt lat="32.9133587" lon="10.2593574"><ele>391.0</ele><time>2026-04-27T09:52:31.077Z</time></trkpt><trkpt lat="32.9132467" lon="10.2592948"><ele>395.5</ele><time>2026-04-27T09:52:32.073Z</time></trkpt><trkpt lat="32.9131242" lon="10.2592427"><ele>400.0</ele><time>2026-04-27T09:52:33.069Z</time></trkpt><trkpt lat="32.9130046" lon="10.2592074"><ele>404.5</ele><time>2026-04-27T09:52:34.074Z</time></trkpt><trkpt lat="32.9128847" lon="10.2591848"><ele>409.0</ele><time>2026-04-27T09:52:35.075Z</time></trkpt><trkpt lat="32.9127648" lon="10.2591829"><ele>409.0</ele><time>2026-04-27T09:52:36.084Z</time></trkpt><trkpt lat="32.9126317" lon="10.2591888"><ele>409.0</ele><time>2026-04-27T09:52:37.075Z</time></trkpt><trkpt lat="32.9125109" lon="10.2592295"><ele>409.0</ele><time>2026-04-27T09:52:38.078Z</time></trkpt><trkpt lat="32.9123898" lon="10.2592877"><ele>409.0</ele><time>2026-04-27T09:52:39.064Z</time></trkpt><trkpt lat="32.9122821" lon="10.2593507"><ele>410.5</ele><time>2026-04-27T09:52:40.081Z</time></trkpt><trkpt lat="32.912172" lon="10.2594172"><ele>412.0</ele><time>2026-04-27T09:52:41.079Z</time></trkpt><trkpt lat="32.9120623" lon="10.2594772"><ele>413.5</ele><time>2026-04-27T09:52:42.076Z</time></trkpt><trkpt lat="32.9119484" lon="10.2595178"><ele>415.0</ele><time>2026-04-27T09:52:43.08Z</time></trkpt><trkpt lat="32.9118321" lon="10.2595391"><ele>414.0</ele><time>2026-04-27T09:52:44.072Z</time></trkpt><trkpt lat="32.911712" lon="10.259543"><ele>413.0</ele><time>2026-04-27T09:52:45.056Z</time></trkpt><trkpt lat="32.9115945" lon="10.2595338"><ele>412.0</ele><time>2026-04-27T09:52:46.063Z</time></trkpt><trkpt lat="32.9114847" lon="10.2595243"><ele>411.0</ele><time>2026-04-27T09:52:47.075Z</time></trkpt><trkpt lat="32.9113757" lon="10.2595377"><ele>411.0</ele><time>2026-04-27T09:52:48.077Z</time></trkpt><trkpt lat="32.9112619" lon="10.2595733"><ele>411.0</ele><time>2026-04-27T09:52:49.086Z</time></trkpt><trkpt lat="32.9111489" lon="10.259621"><ele>411.0</ele><time>2026-04-27T09:52:50.069Z</time></trkpt><trkpt lat="32.9110456" lon="10.2596754"><ele>411.0</ele><time>2026-04-27T09:52:51.068Z</time></trkpt><trkpt lat="32.9109552" lon="10.2597391"><ele>413.6</ele><time>2026-04-27T09:52:52.087Z</time></trkpt><trkpt lat="32.9108743" lon="10.2598143"><ele>416.20000000000005</ele><time>2026-04-27T09:52:53.081Z</time></trkpt><trkpt lat="32.910806" lon="10.2599002"><ele>418.79999999999995</ele><time>2026-04-27T09:52:54.089Z</time></trkpt><trkpt lat="32.9107703" lon="10.2599969"><ele>421.4</ele><time>2026-04-27T09:52:55.093Z</time></trkpt><trkpt lat="32.9107551" lon="10.2601049"><ele>424.0</ele><time>2026-04-27T09:52:56.066Z</time></trkpt><trkpt lat="32.9107356" lon="10.2602109"><ele>424.00000000000006</ele><time>2026-04-27T09:52:57.08Z</time></trkpt><trkpt lat="32.9107296" lon="10.2603281"><ele>424.0</ele><time>2026-04-27T09:52:58.067Z</time></trkpt><trkpt lat="32.9107215" lon="10.2604306"><ele>424.0</ele><time>2026-04-27T09:52:59.068Z</time></trkpt><trkpt lat="32.91072" lon="10.2605302"><ele>424.0</ele><time>2026-04-27T09:53:00.073Z</time></trkpt><trkpt lat="32.910715" lon="10.2606317"><ele>424.00000000000006</ele><time>2026-04-27T09:53:01.084Z</time></trkpt><trkpt lat="32.910706" lon="10.2607276"><ele>424.0</ele><time>2026-04-27T09:53:02.078Z</time></trkpt><trkpt lat="32.9107038" lon="10.2608131"><ele>425.50000000000006</ele><time>2026-04-27T09:53:03.082Z</time></trkpt><trkpt lat="32.9106972" lon="10.2608916"><ele>427.0</ele><time>2026-04-27T09:53:04.091Z</time></trkpt><trkpt lat="32.9106647" lon="10.2610228"><ele>428.5</ele><time>2026-04-27T09:53:06.087Z</time></trkpt><trkpt lat="32.9106081" lon="10.2610956"><ele>430.0</ele><time>2026-04-27T09:53:08.068Z</time></trkpt><trkpt lat="32.9105494" lon="10.2611233"><ele>431.50000000000006</ele><time>2026-04-27T09:53:13.067Z</time></trkpt><trkpt lat="32.9105864" lon="10.2612162"><ele>433.0</ele><time>2026-04-27T09:53:33.081Z</time></trkpt><trkpt lat="32.9106424" lon="10.2612922"><ele>433.0</ele><time>2026-04-27T09:53:35.092Z</time></trkpt><trkpt lat="32.9107003" lon="10.261386"><ele>432.99999999999994</ele><time>2026-04-27T09:53:37.074Z</time></trkpt><trkpt lat="32.9107618" lon="10.2614912"><ele>432.99999999999994</ele><time>2026-04-27T09:53:39.069Z</time></trkpt><trkpt lat="32.9108287" lon="10.2615568"><ele>433.0</ele><time>2026-04-27T09:53:41.09Z</time></trkpt><trkpt lat="32.9109072" lon="10.2616191"><ele>433.0</ele><time>2026-04-27T09:53:44.07Z</time></trkpt><trkpt lat="32.9109564" lon="10.2616849"><ele>436.0</ele><time>2026-04-27T09:53:46.079Z</time></trkpt><trkpt lat="32.9110056" lon="10.2617472"><ele>439.0</ele><time>2026-04-27T09:53:48.081Z</time></trkpt><trkpt lat="32.9110668" lon="10.2617096"><ele>442.0</ele><time>2026-04-27T09:53:51.064Z</time></trkpt><trkpt lat="32.9110978" lon="10.2616341"><ele>445.0</ele><time>2026-04-27T09:53:53.072Z</time></trkpt><trkpt lat="32.9111357" lon="10.2615484"><ele>448.00000000000006</ele><time>2026-04-27T09:53:56.074Z</time></trkpt><trkpt lat="32.9111388" lon="10.2614689"><ele>451.0</ele><time>2026-04-27T09:54:37.076Z</time></trkpt><trkpt lat="32.9111071" lon="10.2613965"><ele>454.0</ele><time>2026-04-27T09:57:40.083Z</time></trkpt><trkpt lat="32.9111733" lon="10.261384"><ele>455.6666666666667</ele><time>2026-04-27T09:57:46.043Z</time></trkpt><trkpt lat="32.9111316" lon="10.2614766"><ele>457.33333333333337</ele><time>2026-04-27T09:57:50.032Z</time></trkpt><trkpt lat="32.9110924" lon="10.2615532"><ele>459.0</ele><time>2026-04-27T09:57:53.08Z</time></trkpt><trkpt lat="32.9110646" lon="10.2616263"><ele>460.66666666666663</ele><time>2026-04-27T09:57:56.065Z</time></trkpt><trkpt lat="32.9110462" lon="10.261731"><ele>462.3333333333333</ele><time>2026-04-27T09:58:01.064Z</time></trkpt><trkpt lat="32.9109277" lon="10.2617105"><ele>464.0</ele><time>2026-04-27T09:58:06.04Z</time></trkpt><trkpt lat="32.9108746" lon="10.2616473"><ele>459.8333333333333</ele><time>2026-04-27T09:58:09.051Z</time></trkpt><trkpt lat="32.9108139" lon="10.2615813"><ele>455.66666666666663</ele><time>2026-04-27T09:58:12.059Z</time></trkpt><trkpt lat="32.9107503" lon="10.2615181"><ele>451.5</ele><time>2026-04-27T09:58:15.068Z</time></trkpt><trkpt lat="32.9107025" lon="10.2614536"><ele>447.33333333333337</ele><time>2026-04-27T09:58:19.059Z</time></trkpt><trkpt lat="32.9106628" lon="10.2613694"><ele>443.1666666666667</ele><time>2026-04-27T09:58:23.047Z</time></trkpt><trkpt lat="32.9106239" lon="10.2612996"><ele>439.0</ele><time>2026-04-27T09:58:25.035Z</time></trkpt><trkpt lat="32.9105698" lon="10.2612177"><ele>437.79999999999995</ele><time>2026-04-27T09:58:28.064Z</time></trkpt><trkpt lat="32.9104415" lon="10.2611686"><ele>436.59999999999997</ele><time>2026-04-27T09:58:32.065Z</time></trkpt><trkpt lat="32.9103069" lon="10.2611958"><ele>435.4</ele><time>2026-04-27T09:58:34.053Z</time></trkpt><trkpt lat="32.9102315" lon="10.2612004"><ele>434.2</ele><time>2026-04-27T09:58:35.068Z</time></trkpt><trkpt lat="32.9101535" lon="10.2612083"><ele>433.0</ele><time>2026-04-27T09:58:36.062Z</time></trkpt><trkpt lat="32.9100841" lon="10.2611938"><ele>430.83333333333337</ele><time>2026-04-27T09:58:37.057Z</time></trkpt><trkpt lat="32.910017" lon="10.2611639"><ele>428.6666666666667</ele><time>2026-04-27T09:58:38.063Z</time></trkpt><trkpt lat="32.9099494" lon="10.2611206"><ele>426.5</ele><time>2026-04-27T09:58:39.05Z</time></trkpt><trkpt lat="32.9098797" lon="10.2610643"><ele>424.33333333333337</ele><time>2026-04-27T09:58:40.067Z</time></trkpt><trkpt lat="32.9098082" lon="10.2610095"><ele>422.1666666666667</ele><time>2026-04-27T09:58:41.072Z</time></trkpt><trkpt lat="32.9097258" lon="10.2609561"><ele>420.0</ele><time>2026-04-27T09:58:42.062Z</time></trkpt><trkpt lat="32.9096389" lon="10.2609104"><ele>420.0</ele><time>2026-04-27T09:58:43.062Z</time></trkpt><trkpt lat="32.9095393" lon="10.260869"><ele>420.0</ele><time>2026-04-27T09:58:44.065Z</time></trkpt><trkpt lat="32.9094428" lon="10.2608131"><ele>420.0</ele><time>2026-04-27T09:58:45.067Z</time></trkpt><trkpt lat="32.909352" lon="10.2607493"><ele>420.0</ele><time>2026-04-27T09:58:46.083Z</time></trkpt><trkpt lat="32.9092768" lon="10.2606939"><ele>420.0</ele><time>2026-04-27T09:58:47.07Z</time></trkpt><trkpt lat="32.9091927" lon="10.2606432"><ele>419.2</ele><time>2026-04-27T09:58:48.061Z</time></trkpt><trkpt lat="32.9091008" lon="10.2606043"><ele>418.4</ele><time>2026-04-27T09:58:49.052Z</time></trkpt><trkpt lat="32.9090009" lon="10.2605991"><ele>417.6</ele><time>2026-04-27T09:58:50.068Z</time></trkpt><trkpt lat="32.9088989" lon="10.2606194"><ele>416.8</ele><time>2026-04-27T09:58:51.067Z</time></trkpt><trkpt lat="32.908807" lon="10.2606514"><ele>416.0</ele><time>2026-04-27T09:58:52.068Z</time></trkpt><trkpt lat="32.9087207" lon="10.2606815"><ele>415.16666666666663</ele><time>2026-04-27T09:58:53.063Z</time></trkpt><trkpt lat="32.9086419" lon="10.2607079"><ele>414.3333333333333</ele><time>2026-04-27T09:58:54.074Z</time></trkpt><trkpt lat="32.9085576" lon="10.26072"><ele>413.5</ele><time>2026-04-27T09:58:55.086Z</time></trkpt><trkpt lat="32.9084674" lon="10.2607018"><ele>412.66666666666663</ele><time>2026-04-27T09:58:56.068Z</time></trkpt><trkpt lat="32.908379" lon="10.260669"><ele>411.8333333333333</ele><time>2026-04-27T09:58:57.073Z</time></trkpt><trkpt lat="32.9082908" lon="10.260635"><ele>411.0</ele><time>2026-04-27T09:58:58.076Z</time></trkpt><trkpt lat="32.9081999" lon="10.2606023"><ele>411.0</ele><time>2026-04-27T09:58:59.058Z</time></trkpt><trkpt lat="32.9080941" lon="10.260592"><ele>411.0</ele><time>2026-04-27T09:59:00.078Z</time></trkpt><trkpt lat="32.9079826" lon="10.2606101"><ele>411.0</ele><time>2026-04-27T09:59:01.062Z</time></trkpt><trkpt lat="32.907876" lon="10.2606559"><ele>411.0</ele><time>2026-04-27T09:59:02.064Z</time></trkpt><trkpt lat="32.9077682" lon="10.2607033"><ele>411.0</ele><time>2026-04-27T09:59:03.06Z</time></trkpt><trkpt lat="32.9076572" lon="10.2607539"><ele>414.4</ele><time>2026-04-27T09:59:04.065Z</time></trkpt><trkpt lat="32.9075548" lon="10.2608078"><ele>417.8</ele><time>2026-04-27T09:59:05.059Z</time></trkpt><trkpt lat="32.9074595" lon="10.2608585"><ele>421.19999999999993</ele><time>2026-04-27T09:59:06.07Z</time></trkpt><trkpt lat="32.9073635" lon="10.2609052"><ele>424.59999999999997</ele><time>2026-04-27T09:59:07.057Z</time></trkpt><trkpt lat="32.9072729" lon="10.2609494"><ele>428.0</ele><time>2026-04-27T09:59:08.066Z</time></trkpt><trkpt lat="32.9071868" lon="10.2609925"><ele>428.0</ele><time>2026-04-27T09:59:09.077Z</time></trkpt><trkpt lat="32.9071023" lon="10.2610411"><ele>427.99999999999994</ele><time>2026-04-27T09:59:10.07Z</time></trkpt><trkpt lat="32.9070153" lon="10.2610958"><ele>427.99999999999994</ele><time>2026-04-27T09:59:11.081Z</time></trkpt><trkpt lat="32.9069387" lon="10.2611588"><ele>428.0</ele><time>2026-04-27T09:59:12.075Z</time></trkpt><trkpt lat="32.9068649" lon="10.2612202"><ele>428.0</ele><time>2026-04-27T09:59:13.074Z</time></trkpt><trkpt lat="32.9068" lon="10.2612827"><ele>427.99999999999994</ele><time>2026-04-27T09:59:14.045Z</time></trkpt><trkpt lat="32.9067336" lon="10.2613411"><ele>428.0</ele><time>2026-04-27T09:59:15.071Z</time></trkpt><trkpt lat="32.9066705" lon="10.261403"><ele>428.0</ele><time>2026-04-27T09:59:16.084Z</time></trkpt><trkpt lat="32.9066044" lon="10.2614737"><ele>428.0</ele><time>2026-04-27T09:59:17.077Z</time></trkpt><trkpt lat="32.9065368" lon="10.2615398"><ele>427.99999999999994</ele><time>2026-04-27T09:59:18.075Z</time></trkpt><trkpt lat="32.9064745" lon="10.2616118"><ele>428.0</ele><time>2026-04-27T09:59:19.065Z</time></trkpt><trkpt lat="32.9064236" lon="10.2616888"><ele>427.99999999999994</ele><time>2026-04-27T09:59:20.073Z</time></trkpt><trkpt lat="32.9063897" lon="10.2617688"><ele>428.0</ele><time>2026-04-27T09:59:21.06Z</time></trkpt><trkpt lat="32.9063564" lon="10.2618571"><ele>428.0</ele><time>2026-04-27T09:59:22.085Z</time></trkpt><trkpt lat="32.9063236" lon="10.2619458"><ele>428.0</ele><time>2026-04-27T09:59:23.071Z</time></trkpt><trkpt lat="32.9062709" lon="10.2620298"><ele>427.99999999999994</ele><time>2026-04-27T09:59:24.084Z</time></trkpt><trkpt lat="32.9062104" lon="10.2621029"><ele>428.0</ele><time>2026-04-27T09:59:25.078Z</time></trkpt><trkpt lat="32.9061374" lon="10.2621632"><ele>427.99999999999994</ele><time>2026-04-27T09:59:26.066Z</time></trkpt><trkpt lat="32.9060532" lon="10.2622116"><ele>428.0</ele><time>2026-04-27T09:59:27.071Z</time></trkpt><trkpt lat="32.9059682" lon="10.262236"><ele>428.0</ele><time>2026-04-27T09:59:28.07Z</time></trkpt><trkpt lat="32.9058808" lon="10.2622389"><ele>428.0</ele><time>2026-04-27T09:59:29.093Z</time></trkpt><trkpt lat="32.905792" lon="10.2622166"><ele>427.99999999999994</ele><time>2026-04-27T09:59:30.077Z</time></trkpt><trkpt lat="32.9057107" lon="10.2621707"><ele>428.0</ele><time>2026-04-27T09:59:31.069Z</time></trkpt><trkpt lat="32.9056387" lon="10.2621172"><ele>425.66666666666663</ele><time>2026-04-27T09:59:32.058Z</time></trkpt><trkpt lat="32.9055766" lon="10.2620554"><ele>423.3333333333333</ele><time>2026-04-27T09:59:33.07Z</time></trkpt><trkpt lat="32.905513" lon="10.2620014"><ele>421.0</ele><time>2026-04-27T09:59:34.079Z</time></trkpt><trkpt lat="32.9054466" lon="10.2619454"><ele>418.66666666666663</ele><time>2026-04-27T09:59:35.078Z</time></trkpt><trkpt lat="32.9053795" lon="10.2618927"><ele>416.3333333333333</ele><time>2026-04-27T09:59:36.063Z</time></trkpt><trkpt lat="32.9053186" lon="10.2618118"><ele>414.0</ele><time>2026-04-27T09:59:37.083Z</time></trkpt><trkpt lat="32.9052735" lon="10.2617194"><ele>414.0</ele><time>2026-04-27T09:59:38.079Z</time></trkpt><trkpt lat="32.9052317" lon="10.2616258"><ele>414.0</ele><time>2026-04-27T09:59:39.099Z</time></trkpt><trkpt lat="32.9051938" lon="10.2615321"><ele>414.0</ele><time>2026-04-27T09:59:40.072Z</time></trkpt><trkpt lat="32.9051528" lon="10.2614429"><ele>414.0</ele><time>2026-04-27T09:59:41.057Z</time></trkpt><trkpt lat="32.9051136" lon="10.2613521"><ele>414.0</ele><time>2026-04-27T09:59:42.082Z</time></trkpt><trkpt lat="32.905062" lon="10.2612701"><ele>414.0</ele><time>2026-04-27T09:59:43.082Z</time></trkpt><trkpt lat="32.9049941" lon="10.2612024"><ele>414.2</ele><time>2026-04-27T09:59:44.08Z</time></trkpt><trkpt lat="32.9049244" lon="10.2611444"><ele>414.4</ele><time>2026-04-27T09:59:45.086Z</time></trkpt><trkpt lat="32.9048497" lon="10.2610945"><ele>414.6</ele><time>2026-04-27T09:59:46.061Z</time></trkpt><trkpt lat="32.9047632" lon="10.2610504"><ele>414.8</ele><time>2026-04-27T09:59:47.085Z</time></trkpt><trkpt lat="32.9046722" lon="10.2610218"><ele>415.0</ele><time>2026-04-27T09:59:48.057Z</time></trkpt><trkpt lat="32.9045564" lon="10.2610155"><ele>415.0</ele><time>2026-04-27T09:59:49.067Z</time></trkpt><trkpt lat="32.9044221" lon="10.2610104"><ele>415.0</ele><time>2026-04-27T09:59:50.082Z</time></trkpt><trkpt lat="32.9042825" lon="10.2610171"><ele>415.0</ele><time>2026-04-27T09:59:51.08Z</time></trkpt><trkpt lat="32.9041354" lon="10.2610337"><ele>415.0</ele><time>2026-04-27T09:59:52.085Z</time></trkpt><trkpt lat="32.9039824" lon="10.2610544"><ele>416.75</ele><time>2026-04-27T09:59:53.058Z</time></trkpt><trkpt lat="32.9038369" lon="10.2610778"><ele>418.5</ele><time>2026-04-27T09:59:54.079Z</time></trkpt><trkpt lat="32.9036962" lon="10.2611027"><ele>420.25</ele><time>2026-04-27T09:59:55.076Z</time></trkpt><trkpt lat="32.9035606" lon="10.2611368"><ele>422.0</ele><time>2026-04-27T09:59:56.084Z</time></trkpt><trkpt lat="32.9034363" lon="10.2611805"><ele>421.5</ele><time>2026-04-27T09:59:57.082Z</time></trkpt><trkpt lat="32.9033278" lon="10.2612345"><ele>421.0</ele><time>2026-04-27T09:59:58.081Z</time></trkpt><trkpt lat="32.9032304" lon="10.2613264"><ele>420.5</ele><time>2026-04-27T09:59:59.065Z</time></trkpt><trkpt lat="32.903147" lon="10.261434"><ele>420.0</ele><time>2026-04-27T10:00:00.064Z</time></trkpt><trkpt lat="32.9030692" lon="10.2615567"><ele>423.2</ele><time>2026-04-27T10:00:01.07Z</time></trkpt><trkpt lat="32.9030054" lon="10.2616873"><ele>426.4</ele><time>2026-04-27T10:00:02.064Z</time></trkpt><trkpt lat="32.9029417" lon="10.2618125"><ele>429.6</ele><time>2026-04-27T10:00:03.066Z</time></trkpt><trkpt lat="32.9028839" lon="10.2619123"><ele>432.8</ele><time>2026-04-27T10:00:04.071Z</time></trkpt><trkpt lat="32.9028198" lon="10.2619942"><ele>436.0</ele><time>2026-04-27T10:00:05.06Z</time></trkpt><trkpt lat="32.9027328" lon="10.2620433"><ele>436.0</ele><time>2026-04-27T10:00:06.078Z</time></trkpt><trkpt lat="32.9026413" lon="10.2620532"><ele>436.0</ele><time>2026-04-27T10:00:07.078Z</time></trkpt><trkpt lat="32.9025564" lon="10.262045"><ele>436.0</ele><time>2026-04-27T10:00:08.072Z</time></trkpt><trkpt lat="32.902472" lon="10.2619748"><ele>436.0</ele><time>2026-04-27T10:00:09.05Z</time></trkpt><trkpt lat="32.9023974" lon="10.2618691"><ele>436.0</ele><time>2026-04-27T10:00:10.063Z</time></trkpt><trkpt lat="32.9023362" lon="10.2617761"><ele>431.75</ele><time>2026-04-27T10:00:11.069Z</time></trkpt><trkpt lat="32.9022715" lon="10.2616691"><ele>427.5</ele><time>2026-04-27T10:00:12.06Z</time></trkpt><trkpt lat="32.9022008" lon="10.2615569"><ele>423.25</ele><time>2026-04-27T10:00:13.061Z</time></trkpt><trkpt lat="32.9021337" lon="10.2614426"><ele>419.0</ele><time>2026-04-27T10:00:14.068Z</time></trkpt><trkpt lat="32.9020633" lon="10.2613367"><ele>417.2</ele><time>2026-04-27T10:00:15.067Z</time></trkpt><trkpt lat="32.9019992" lon="10.2612273"><ele>415.4</ele><time>2026-04-27T10:00:16.058Z</time></trkpt><trkpt lat="32.9019489" lon="10.2611273"><ele>413.6</ele><time>2026-04-27T10:00:17.07Z</time></trkpt><trkpt lat="32.9019252" lon="10.2610299"><ele>411.8</ele><time>2026-04-27T10:00:18.064Z</time></trkpt><trkpt lat="32.901944" lon="10.2609294"><ele>410.0</ele><time>2026-04-27T10:00:19.079Z</time></trkpt><trkpt lat="32.901974" lon="10.2608495"><ele>409.99999999999994</ele><time>2026-04-27T10:00:20.084Z</time></trkpt><trkpt lat="32.9020172" lon="10.2607691"><ele>410.0</ele><time>2026-04-27T10:00:21.058Z</time></trkpt><trkpt lat="32.9020489" lon="10.2606826"><ele>410.0</ele><time>2026-04-27T10:00:22.083Z</time></trkpt><trkpt lat="32.9020883" lon="10.2606022"><ele>410.0</ele><time>2026-04-27T10:00:23.083Z</time></trkpt><trkpt lat="32.9021171" lon="10.2605228"><ele>409.99999999999994</ele><time>2026-04-27T10:00:24.075Z</time></trkpt><trkpt lat="32.9021388" lon="10.260432"><ele>410.0</ele><time>2026-04-27T10:00:25.066Z</time></trkpt><trkpt lat="32.9021549" lon="10.2603415"><ele>409.99999999999994</ele><time>2026-04-27T10:00:26.075Z</time></trkpt><trkpt lat="32.9021639" lon="10.2602517"><ele>410.0</ele><time>2026-04-27T10:00:27.068Z</time></trkpt><trkpt lat="32.9021628" lon="10.2601575"><ele>410.0</ele><time>2026-04-27T10:00:28.078Z</time></trkpt><trkpt lat="32.9021571" lon="10.2600568"><ele>410.0</ele><time>2026-04-27T10:00:29.09Z</time></trkpt><trkpt lat="32.9021588" lon="10.2599511"><ele>409.99999999999994</ele><time>2026-04-27T10:00:30.064Z</time></trkpt><trkpt lat="32.9021626" lon="10.2598493"><ele>410.0</ele><time>2026-04-27T10:00:31.058Z</time></trkpt><trkpt lat="32.9021728" lon="10.2597448"><ele>409.99999999999994</ele><time>2026-04-27T10:00:32.081Z</time></trkpt><trkpt lat="32.9021802" lon="10.2596446"><ele>410.0</ele><time>2026-04-27T10:00:33.09Z</time></trkpt><trkpt lat="32.9021818" lon="10.2595429"><ele>410.0</ele><time>2026-04-27T10:00:34.06Z</time></trkpt><trkpt lat="32.9021887" lon="10.2594439"><ele>410.0</ele><time>2026-04-27T10:00:35.082Z</time></trkpt><trkpt lat="32.9021992" lon="10.2593493"><ele>409.99999999999994</ele><time>2026-04-27T10:00:36.066Z</time></trkpt><trkpt lat="32.9022123" lon="10.2592605"><ele>410.0</ele><time>2026-04-27T10:00:37.071Z</time></trkpt><trkpt lat="32.9022365" lon="10.2591818"><ele>410.0</ele><time>2026-04-27T10:00:38.056Z</time></trkpt><trkpt lat="32.9022777" lon="10.2590626"><ele>410.0</ele><time>2026-04-27T10:00:40.073Z</time></trkpt><trkpt lat="32.9023176" lon="10.2589994"><ele>410.0</ele><time>2026-04-27T10:00:42.082Z</time></trkpt><trkpt lat="32.9023189" lon="10.2589122"><ele>410.0</ele><time>2026-04-27T10:02:42.041Z</time></trkpt><trkpt lat="32.9022967" lon="10.2588201"><ele>410.0</ele><time>2026-04-27T10:02:44.111Z</time></trkpt><trkpt lat="32.9022793" lon="10.2586675"><ele>409.66666666666663</ele><time>2026-04-27T10:02:46.078Z</time></trkpt><trkpt lat="32.9022684" lon="10.2585806"><ele>409.3333333333333</ele><time>2026-04-27T10:02:47.056Z</time></trkpt><trkpt lat="32.9022536" lon="10.2584821"><ele>409.0</ele><time>2026-04-27T10:02:48.046Z</time></trkpt><trkpt lat="32.9022318" lon="10.258374"><ele>408.66666666666663</ele><time>2026-04-27T10:02:49.057Z</time></trkpt><trkpt lat="32.9022037" lon="10.2582609"><ele>408.3333333333333</ele><time>2026-04-27T10:02:50.078Z</time></trkpt><trkpt lat="32.9021625" lon="10.2581552"><ele>408.0</ele><time>2026-04-27T10:02:51.034Z</time></trkpt><trkpt lat="32.9021105" lon="10.2580485"><ele>407.59999999999997</ele><time>2026-04-27T10:02:52.051Z</time></trkpt><trkpt lat="32.9020599" lon="10.2579405"><ele>407.2</ele><time>2026-04-27T10:02:53.067Z</time></trkpt><trkpt lat="32.901999" lon="10.2578305"><ele>406.8</ele><time>2026-04-27T10:02:54.039Z</time></trkpt><trkpt lat="32.9019333" lon="10.2577281"><ele>406.4</ele><time>2026-04-27T10:02:55.05Z</time></trkpt><trkpt lat="32.9018716" lon="10.2576236"><ele>406.0</ele><time>2026-04-27T10:02:56.077Z</time></trkpt><trkpt lat="32.9018174" lon="10.257522"><ele>406.0</ele><time>2026-04-27T10:02:57.046Z</time></trkpt><trkpt lat="32.9017827" lon="10.2574212"><ele>406.0</ele><time>2026-04-27T10:02:58.052Z</time></trkpt><trkpt lat="32.9017817" lon="10.257043"><ele>406.0</ele><time>2026-04-27T10:03:01.117Z</time></trkpt><trkpt lat="32.9017962" lon="10.2569202"><ele>406.75</ele><time>2026-04-27T10:03:02.075Z</time></trkpt><trkpt lat="32.9019585" lon="10.2566791"><ele>407.5</ele><time>2026-04-27T10:03:05.036Z</time></trkpt><trkpt lat="32.9020099" lon="10.2566163"><ele>408.25</ele><time>2026-04-27T10:03:06.052Z</time></trkpt><trkpt lat="32.9020189" lon="10.2565155"><ele>409.0</ele><time>2026-04-27T10:03:07.063Z</time></trkpt><trkpt lat="32.9019974" lon="10.2564082"><ele>409.2</ele><time>2026-04-27T10:03:08.076Z</time></trkpt><trkpt lat="32.9019721" lon="10.2562924"><ele>409.4</ele><time>2026-04-27T10:03:09.072Z</time></trkpt><trkpt lat="32.9019379" lon="10.2561752"><ele>409.6</ele><time>2026-04-27T10:03:10.087Z</time></trkpt><trkpt lat="32.9019135" lon="10.2560416"><ele>409.8</ele><time>2026-04-27T10:03:11.06Z</time></trkpt><trkpt lat="32.9019069" lon="10.2558963"><ele>410.0</ele><time>2026-04-27T10:03:12.09Z</time></trkpt><trkpt lat="32.9018995" lon="10.2557479"><ele>409.5</ele><time>2026-04-27T10:03:13.038Z</time></trkpt><trkpt lat="32.9018905" lon="10.2556055"><ele>409.0</ele><time>2026-04-27T10:03:14.046Z</time></trkpt><trkpt lat="32.9018836" lon="10.2554662"><ele>408.5</ele><time>2026-04-27T10:03:15.081Z</time></trkpt><trkpt lat="32.9018525" lon="10.2553353"><ele>408.0</ele><time>2026-04-27T10:03:16.054Z</time></trkpt><trkpt lat="32.9017974" lon="10.2552128"><ele>408.25</ele><time>2026-04-27T10:03:17.055Z</time></trkpt><trkpt lat="32.9017125" lon="10.255092"><ele>408.5</ele><time>2026-04-27T10:03:18.038Z</time></trkpt><trkpt lat="32.9016146" lon="10.2549727"><ele>408.75</ele><time>2026-04-27T10:03:19.034Z</time></trkpt><trkpt lat="32.9014928" lon="10.2548492"><ele>409.0</ele><time>2026-04-27T10:03:20.046Z</time></trkpt><trkpt lat="32.9013698" lon="10.2547181"><ele>409.0</ele><time>2026-04-27T10:03:21.048Z</time></trkpt><trkpt lat="32.9012637" lon="10.2545677"><ele>409.0</ele><time>2026-04-27T10:03:22.05Z</time></trkpt><trkpt lat="32.901166" lon="10.2544063"><ele>409.0</ele><time>2026-04-27T10:03:23.061Z</time></trkpt><trkpt lat="32.9010845" lon="10.2542325"><ele>409.0</ele><time>2026-04-27T10:03:24.046Z</time></trkpt><trkpt lat="32.9010033" lon="10.2540619"><ele>409.0</ele><time>2026-04-27T10:03:25.05Z</time></trkpt><trkpt lat="32.9009275" lon="10.2538898"><ele>409.0</ele><time>2026-04-27T10:03:26.049Z</time></trkpt><trkpt lat="32.9008724" lon="10.2537106"><ele>411.0</ele><time>2026-04-27T10:03:27.074Z</time></trkpt><trkpt lat="32.9008191" lon="10.253533"><ele>413.0</ele><time>2026-04-27T10:03:28.058Z</time></trkpt><trkpt lat="32.9007759" lon="10.2533637"><ele>415.0</ele><time>2026-04-27T10:03:29.06Z</time></trkpt><trkpt lat="32.9007297" lon="10.2531998"><ele>414.5</ele><time>2026-04-27T10:03:30.074Z</time></trkpt><trkpt lat="32.9006952" lon="10.2530431"><ele>414.0</ele><time>2026-04-27T10:03:31.062Z</time></trkpt><trkpt lat="32.9006762" lon="10.2528964"><ele>413.5</ele><time>2026-04-27T10:03:32.06Z</time></trkpt><trkpt lat="32.9006646" lon="10.2527378"><ele>413.0</ele><time>2026-04-27T10:03:33.067Z</time></trkpt><trkpt lat="32.9006563" lon="10.2525876"><ele>413.0</ele><time>2026-04-27T10:03:34.065Z</time></trkpt><trkpt lat="32.9006357" lon="10.2524492"><ele>413.0</ele><time>2026-04-27T10:03:35.058Z</time></trkpt><trkpt lat="32.9005981" lon="10.2523158"><ele>413.0</ele><time>2026-04-27T10:03:36.069Z</time></trkpt><trkpt lat="32.900549" lon="10.2521687"><ele>413.0</ele><time>2026-04-27T10:03:37.06Z</time></trkpt><trkpt lat="32.9004853" lon="10.2520171"><ele>413.25</ele><time>2026-04-27T10:03:38.065Z</time></trkpt><trkpt lat="32.9004173" lon="10.2518714"><ele>413.5</ele><time>2026-04-27T10:03:39.057Z</time></trkpt><trkpt lat="32.900341" lon="10.2517209"><ele>413.75</ele><time>2026-04-27T10:03:40.085Z</time></trkpt><trkpt lat="32.900268" lon="10.2515698"><ele>414.0</ele><time>2026-04-27T10:03:41.04Z</time></trkpt><trkpt lat="32.9001969" lon="10.2514241"><ele>414.0</ele><time>2026-04-27T10:03:42.044Z</time></trkpt><trkpt lat="32.9001286" lon="10.2512785"><ele>414.0</ele><time>2026-04-27T10:03:43.061Z</time></trkpt><trkpt lat="32.9000671" lon="10.2511397"><ele>414.0</ele><time>2026-04-27T10:03:44.046Z</time></trkpt><trkpt lat="32.9000037" lon="10.2510012"><ele>414.0</ele><time>2026-04-27T10:03:45.063Z</time></trkpt><trkpt lat="32.899944" lon="10.2508638"><ele>414.0</ele><time>2026-04-27T10:03:46.07Z</time></trkpt><trkpt lat="32.8998874" lon="10.2507339"><ele>414.0</ele><time>2026-04-27T10:03:47.057Z</time></trkpt><trkpt lat="32.8998241" lon="10.2506002"><ele>414.0</ele><time>2026-04-27T10:03:48.074Z</time></trkpt><trkpt lat="32.8997601" lon="10.2504594"><ele>414.0</ele><time>2026-04-27T10:03:49.059Z</time></trkpt><trkpt lat="32.8996928" lon="10.2503213"><ele>414.75</ele><time>2026-04-27T10:03:50.058Z</time></trkpt><trkpt lat="32.8996284" lon="10.2501755"><ele>415.5</ele><time>2026-04-27T10:03:51.054Z</time></trkpt><trkpt lat="32.8995652" lon="10.2500261"><ele>416.25</ele><time>2026-04-27T10:03:52.074Z</time></trkpt><trkpt lat="32.8995074" lon="10.2498714"><ele>417.0</ele><time>2026-04-27T10:03:53.068Z</time></trkpt><trkpt lat="32.8994642" lon="10.249714"><ele>418.5</ele><time>2026-04-27T10:03:54.064Z</time></trkpt><trkpt lat="32.899421" lon="10.2495598"><ele>420.0</ele><time>2026-04-27T10:03:55.061Z</time></trkpt><trkpt lat="32.8993653" lon="10.2494012"><ele>421.5</ele><time>2026-04-27T10:03:56.058Z</time></trkpt><trkpt lat="32.8993087" lon="10.2492343"><ele>423.0</ele><time>2026-04-27T10:03:57.055Z</time></trkpt><trkpt lat="32.8992562" lon="10.2490692"><ele>423.5</ele><time>2026-04-27T10:03:58.059Z</time></trkpt><trkpt lat="32.8992049" lon="10.2489051"><ele>424.0</ele><time>2026-04-27T10:03:59.071Z</time></trkpt><trkpt lat="32.8991553" lon="10.2487408"><ele>424.5</ele><time>2026-04-27T10:04:00.073Z</time></trkpt><trkpt lat="32.899104" lon="10.2485851"><ele>425.0</ele><time>2026-04-27T10:04:01.077Z</time></trkpt><trkpt lat="32.8990498" lon="10.2484314"><ele>425.0</ele><time>2026-04-27T10:04:02.064Z</time></trkpt><trkpt lat="32.8989876" lon="10.2482914"><ele>425.0</ele><time>2026-04-27T10:04:03.072Z</time></trkpt><trkpt lat="32.8989157" lon="10.2481725"><ele>425.0</ele><time>2026-04-27T10:04:04.072Z</time></trkpt><trkpt lat="32.898832" lon="10.2480801"><ele>425.0</ele><time>2026-04-27T10:04:05.062Z</time></trkpt><trkpt lat="32.8987424" lon="10.248013"><ele>426.5</ele><time>2026-04-27T10:04:06.07Z</time></trkpt><trkpt lat="32.8986444" lon="10.2479933"><ele>428.0</ele><time>2026-04-27T10:04:07.072Z</time></trkpt><trkpt lat="32.8985302" lon="10.2479928"><ele>429.5</ele><time>2026-04-27T10:04:08.052Z</time></trkpt><trkpt lat="32.8984125" lon="10.247981"><ele>431.0</ele><time>2026-04-27T10:04:09.052Z</time></trkpt><trkpt lat="32.8982862" lon="10.2479452"><ele>431.0</ele><time>2026-04-27T10:04:10.059Z</time></trkpt><trkpt lat="32.8981554" lon="10.2479008"><ele>431.0</ele><time>2026-04-27T10:04:11.059Z</time></trkpt><trkpt lat="32.8980241" lon="10.2478695"><ele>431.0</ele><time>2026-04-27T10:04:12.065Z</time></trkpt><trkpt lat="32.8978882" lon="10.2478332"><ele>431.0</ele><time>2026-04-27T10:04:13.071Z</time></trkpt><trkpt lat="32.8977517" lon="10.2478006"><ele>431.0</ele><time>2026-04-27T10:04:14.05Z</time></trkpt><trkpt lat="32.8976209" lon="10.2477678"><ele>431.0</ele><time>2026-04-27T10:04:15.061Z</time></trkpt><trkpt lat="32.8974925" lon="10.2477292"><ele>431.0</ele><time>2026-04-27T10:04:16.062Z</time></trkpt><trkpt lat="32.8973527" lon="10.2476772"><ele>431.0</ele><time>2026-04-27T10:04:17.081Z</time></trkpt><trkpt lat="32.8972115" lon="10.2476152"><ele>430.0</ele><time>2026-04-27T10:04:18.067Z</time></trkpt><trkpt lat="32.8970687" lon="10.2475399"><ele>429.0</ele><time>2026-04-27T10:04:19.047Z</time></trkpt><trkpt lat="32.8969281" lon="10.2474567"><ele>428.0</ele><time>2026-04-27T10:04:20.077Z</time></trkpt><trkpt lat="32.8967869" lon="10.2473717"><ele>428.3333333333333</ele><time>2026-04-27T10:04:21.132Z</time></trkpt><trkpt lat="32.8966387" lon="10.2472848"><ele>428.66666666666663</ele><time>2026-04-27T10:04:22.061Z</time></trkpt><trkpt lat="32.8964905" lon="10.2471999"><ele>429.0</ele><time>2026-04-27T10:04:23.057Z</time></trkpt><trkpt lat="32.8963475" lon="10.2471131"><ele>429.0</ele><time>2026-04-27T10:04:24.052Z</time></trkpt><trkpt lat="32.8962141" lon="10.2470249"><ele>429.0</ele><time>2026-04-27T10:04:25.052Z</time></trkpt><trkpt lat="32.8960957" lon="10.2469245"><ele>429.0</ele><time>2026-04-27T10:04:26.055Z</time></trkpt><trkpt lat="32.8959897" lon="10.2468094"><ele>429.0</ele><time>2026-04-27T10:04:27.081Z</time></trkpt><trkpt lat="32.8958836" lon="10.2466951"><ele>429.66666666666663</ele><time>2026-04-27T10:04:28.06Z</time></trkpt><trkpt lat="32.8957831" lon="10.2465642"><ele>430.3333333333333</ele><time>2026-04-27T10:04:29.068Z</time></trkpt><trkpt lat="32.8956759" lon="10.2464351"><ele>431.0</ele><time>2026-04-27T10:04:30.069Z</time></trkpt><trkpt lat="32.8955669" lon="10.2463134"><ele>432.0</ele><time>2026-04-27T10:04:31.057Z</time></trkpt><trkpt lat="32.8954518" lon="10.2461957"><ele>433.0</ele><time>2026-04-27T10:04:32.064Z</time></trkpt><trkpt lat="32.8953333" lon="10.2460802"><ele>434.0</ele><time>2026-04-27T10:04:33.074Z</time></trkpt><trkpt lat="32.8952082" lon="10.2459697"><ele>435.0</ele><time>2026-04-27T10:04:34.074Z</time></trkpt><trkpt lat="32.8950813" lon="10.2458622"><ele>436.0</ele><time>2026-04-27T10:04:35.055Z</time></trkpt><trkpt lat="32.8949507" lon="10.2457554"><ele>437.0</ele><time>2026-04-27T10:04:36.079Z</time></trkpt><trkpt lat="32.8948127" lon="10.2456463"><ele>437.66666666666663</ele><time>2026-04-27T10:04:37.062Z</time></trkpt><trkpt lat="32.8946717" lon="10.2455457"><ele>438.33333333333337</ele><time>2026-04-27T10:04:38.075Z</time></trkpt><trkpt lat="32.8945351" lon="10.2454509"><ele>439.0</ele><time>2026-04-27T10:04:39.054Z</time></trkpt><trkpt lat="32.8944011" lon="10.2453558"><ele>439.0</ele><time>2026-04-27T10:04:40.078Z</time></trkpt><trkpt lat="32.8942628" lon="10.2452633"><ele>439.0</ele><time>2026-04-27T10:04:41.085Z</time></trkpt><trkpt lat="32.8941263" lon="10.2451739"><ele>439.0</ele><time>2026-04-27T10:04:42.067Z</time></trkpt><trkpt lat="32.8939929" lon="10.2450942"><ele>437.33333333333337</ele><time>2026-04-27T10:04:43.07Z</time></trkpt><trkpt lat="32.8938543" lon="10.2450251"><ele>435.66666666666663</ele><time>2026-04-27T10:04:44.06Z</time></trkpt><trkpt lat="32.8937095" lon="10.2449581"><ele>434.0</ele><time>2026-04-27T10:04:45.058Z</time></trkpt><trkpt lat="32.8935725" lon="10.2448849"><ele>434.0</ele><time>2026-04-27T10:04:46.064Z</time></trkpt><trkpt lat="32.8934477" lon="10.2448102"><ele>434.0</ele><time>2026-04-27T10:04:47.064Z</time></trkpt><trkpt lat="32.893334" lon="10.2447454"><ele>434.0</ele><time>2026-04-27T10:04:48.068Z</time></trkpt><trkpt lat="32.8932337" lon="10.244659"><ele>434.0</ele><time>2026-04-27T10:04:49.059Z</time></trkpt><trkpt lat="32.8931625" lon="10.2445677"><ele>435.75</ele><time>2026-04-27T10:04:50.066Z</time></trkpt><trkpt lat="32.8931038" lon="10.2444539"><ele>437.5</ele><time>2026-04-27T10:04:51.067Z</time></trkpt><trkpt lat="32.8930503" lon="10.2443238"><ele>439.25</ele><time>2026-04-27T10:04:52.076Z</time></trkpt><trkpt lat="32.8929881" lon="10.2441924"><ele>441.0</ele><time>2026-04-27T10:04:53.07Z</time></trkpt><trkpt lat="32.8929196" lon="10.2440671"><ele>441.0</ele><time>2026-04-27T10:04:54.065Z</time></trkpt><trkpt lat="32.8928475" lon="10.2439634"><ele>441.0</ele><time>2026-04-27T10:04:55.058Z</time></trkpt><trkpt lat="32.8927635" lon="10.2438713"><ele>441.0</ele><time>2026-04-27T10:04:56.064Z</time></trkpt><trkpt lat="32.8926549" lon="10.2438071"><ele>441.0</ele><time>2026-04-27T10:04:57.069Z</time></trkpt><trkpt lat="32.892558" lon="10.2437752"><ele>441.0</ele><time>2026-04-27T10:04:58.062Z</time></trkpt><trkpt lat="32.8924494" lon="10.243776"><ele>442.6</ele><time>2026-04-27T10:04:59.06Z</time></trkpt><trkpt lat="32.8923379" lon="10.2437785"><ele>444.20000000000005</ele><time>2026-04-27T10:05:00.078Z</time></trkpt><trkpt lat="32.8922331" lon="10.2437763"><ele>445.79999999999995</ele><time>2026-04-27T10:05:01.06Z</time></trkpt><trkpt lat="32.8921447" lon="10.2437632"><ele>447.4</ele><time>2026-04-27T10:05:02.077Z</time></trkpt><trkpt lat="32.8920684" lon="10.2437058"><ele>449.0</ele><time>2026-04-27T10:05:03.072Z</time></trkpt><trkpt lat="32.8920099" lon="10.2436157"><ele>449.0</ele><time>2026-04-27T10:05:04.074Z</time></trkpt><trkpt lat="32.8919594" lon="10.2435193"><ele>449.0</ele><time>2026-04-27T10:05:05.082Z</time></trkpt><trkpt lat="32.891902" lon="10.2434097"><ele>449.0</ele><time>2026-04-27T10:05:06.062Z</time></trkpt><trkpt lat="32.8918526" lon="10.2432929"><ele>449.0</ele><time>2026-04-27T10:05:07.079Z</time></trkpt><trkpt lat="32.8917846" lon="10.2431669"><ele>449.0</ele><time>2026-04-27T10:05:08.07Z</time></trkpt><trkpt lat="32.891711" lon="10.2430311"><ele>448.0</ele><time>2026-04-27T10:05:09.041Z</time></trkpt><trkpt lat="32.8916399" lon="10.2429003"><ele>447.0</ele><time>2026-04-27T10:05:10.057Z</time></trkpt><trkpt lat="32.8915718" lon="10.242763"><ele>446.0</ele><time>2026-04-27T10:05:11.075Z</time></trkpt><trkpt lat="32.8914995" lon="10.2426424"><ele>445.0</ele><time>2026-04-27T10:05:12.068Z</time></trkpt><trkpt lat="32.8914311" lon="10.2425259"><ele>445.0</ele><time>2026-04-27T10:05:13.062Z</time></trkpt><trkpt lat="32.8913777" lon="10.2424166"><ele>445.0</ele><time>2026-04-27T10:05:14.064Z</time></trkpt><trkpt lat="32.8913522" lon="10.2423081"><ele>445.0</ele><time>2026-04-27T10:05:15.071Z</time></trkpt><trkpt lat="32.8913523" lon="10.2422"><ele>445.0</ele><time>2026-04-27T10:05:16.077Z</time></trkpt><trkpt lat="32.8913721" lon="10.2420848"><ele>445.0</ele><time>2026-04-27T10:05:17.06Z</time></trkpt><trkpt lat="32.8914019" lon="10.2419734"><ele>445.6</ele><time>2026-04-27T10:05:18.061Z</time></trkpt><trkpt lat="32.8914388" lon="10.2418653"><ele>446.2</ele><time>2026-04-27T10:05:19.054Z</time></trkpt><trkpt lat="32.8914635" lon="10.2417501"><ele>446.79999999999995</ele><time>2026-04-27T10:05:20.059Z</time></trkpt><trkpt lat="32.8914725" lon="10.2416349"><ele>447.4</ele><time>2026-04-27T10:05:21.072Z</time></trkpt><trkpt lat="32.8914504" lon="10.2415115"><ele>448.0</ele><time>2026-04-27T10:05:22.066Z</time></trkpt><trkpt lat="32.8914182" lon="10.2413957"><ele>448.0</ele><time>2026-04-27T10:05:23.088Z</time></trkpt><trkpt lat="32.8913735" lon="10.2412778"><ele>447.99999999999994</ele><time>2026-04-27T10:05:24.066Z</time></trkpt><trkpt lat="32.8913221" lon="10.2411754"><ele>447.99999999999994</ele><time>2026-04-27T10:05:25.077Z</time></trkpt><trkpt lat="32.8912757" lon="10.2410768"><ele>448.0</ele><time>2026-04-27T10:05:26.095Z</time></trkpt><trkpt lat="32.8912402" lon="10.2409773"><ele>448.0</ele><time>2026-04-27T10:05:27.076Z</time></trkpt><trkpt lat="32.8912174" lon="10.2408778"><ele>448.0</ele><time>2026-04-27T10:05:28.081Z</time></trkpt><trkpt lat="32.8912153" lon="10.2407695"><ele>447.99999999999994</ele><time>2026-04-27T10:05:29.066Z</time></trkpt><trkpt lat="32.891223" lon="10.2406461"><ele>447.99999999999994</ele><time>2026-04-27T10:05:30.064Z</time></trkpt><trkpt lat="32.8912502" lon="10.2405134"><ele>448.0</ele><time>2026-04-27T10:05:31.054Z</time></trkpt><trkpt lat="32.8912834" lon="10.2403639"><ele>448.0</ele><time>2026-04-27T10:05:32.064Z</time></trkpt><trkpt lat="32.8913265" lon="10.2401968"><ele>447.6666666666667</ele><time>2026-04-27T10:05:33.059Z</time></trkpt><trkpt lat="32.8913808" lon="10.2400146"><ele>447.33333333333337</ele><time>2026-04-27T10:05:34.074Z</time></trkpt><trkpt lat="32.8914354" lon="10.2398207"><ele>447.0</ele><time>2026-04-27T10:05:35.064Z</time></trkpt><trkpt lat="32.8914943" lon="10.2396182"><ele>448.33333333333337</ele><time>2026-04-27T10:05:36.066Z</time></trkpt><trkpt lat="32.8915593" lon="10.2394178"><ele>449.6666666666667</ele><time>2026-04-27T10:05:37.07Z</time></trkpt><trkpt lat="32.8916209" lon="10.2392115"><ele>451.0</ele><time>2026-04-27T10:05:38.081Z</time></trkpt><trkpt lat="32.8916876" lon="10.2390059"><ele>452.0</ele><time>2026-04-27T10:05:39.067Z</time></trkpt><trkpt lat="32.891751" lon="10.2388104"><ele>453.0</ele><time>2026-04-27T10:05:40.076Z</time></trkpt><trkpt lat="32.8918059" lon="10.2386269"><ele>454.0</ele><time>2026-04-27T10:05:41.071Z</time></trkpt><trkpt lat="32.8918672" lon="10.2384729"><ele>454.0</ele><time>2026-04-27T10:05:42.067Z</time></trkpt><trkpt lat="32.8919511" lon="10.2383344"><ele>454.0</ele><time>2026-04-27T10:05:43.062Z</time></trkpt><trkpt lat="32.8920579" lon="10.2382195"><ele>454.0</ele><time>2026-04-27T10:05:44.064Z</time></trkpt><trkpt lat="32.8921825" lon="10.2381132"><ele>454.0</ele><time>2026-04-27T10:05:45.05Z</time></trkpt><trkpt lat="32.8923153" lon="10.2380122"><ele>455.75</ele><time>2026-04-27T10:05:46.078Z</time></trkpt><trkpt lat="32.8924537" lon="10.2379289"><ele>457.5</ele><time>2026-04-27T10:05:47.071Z</time></trkpt><trkpt lat="32.8925957" lon="10.2378816"><ele>459.25</ele><time>2026-04-27T10:05:48.061Z</time></trkpt><trkpt lat="32.8927366" lon="10.2378634"><ele>461.0</ele><time>2026-04-27T10:05:49.079Z</time></trkpt><trkpt lat="32.8928781" lon="10.237845"><ele>461.0</ele><time>2026-04-27T10:05:50.054Z</time></trkpt><trkpt lat="32.8930176" lon="10.237817"><ele>461.0</ele><time>2026-04-27T10:05:51.073Z</time></trkpt><trkpt lat="32.8931582" lon="10.2377763"><ele>461.0</ele><time>2026-04-27T10:05:52.077Z</time></trkpt><trkpt lat="32.8932976" lon="10.2377239"><ele>461.0</ele><time>2026-04-27T10:05:53.066Z</time></trkpt><trkpt lat="32.8934295" lon="10.2376487"><ele>460.3333333333333</ele><time>2026-04-27T10:05:54.069Z</time></trkpt><trkpt lat="32.8935673" lon="10.237565"><ele>459.66666666666663</ele><time>2026-04-27T10:05:55.078Z</time></trkpt><trkpt lat="32.8936992" lon="10.2374739"><ele>459.0</ele><time>2026-04-27T10:05:56.073Z</time></trkpt><trkpt lat="32.8938255" lon="10.2373763"><ele>460.5</ele><time>2026-04-27T10:05:57.054Z</time></trkpt><trkpt lat="32.8939479" lon="10.2372775"><ele>462.0</ele><time>2026-04-27T10:05:58.074Z</time></trkpt><trkpt lat="32.894068" lon="10.2371665"><ele>463.5</ele><time>2026-04-27T10:05:59.069Z</time></trkpt><trkpt lat="32.8941753" lon="10.2370452"><ele>465.0</ele><time>2026-04-27T10:06:00.059Z</time></trkpt><trkpt lat="32.8942817" lon="10.2369183"><ele>465.0</ele><time>2026-04-27T10:06:01.062Z</time></trkpt><trkpt lat="32.894388" lon="10.2367885"><ele>465.0</ele><time>2026-04-27T10:06:02.078Z</time></trkpt><trkpt lat="32.8944916" lon="10.2366603"><ele>465.0</ele><time>2026-04-27T10:06:03.051Z</time></trkpt><trkpt lat="32.8945925" lon="10.2365324"><ele>465.0</ele><time>2026-04-27T10:06:04.074Z</time></trkpt><trkpt lat="32.8946966" lon="10.2364004"><ele>464.75</ele><time>2026-04-27T10:06:05.073Z</time></trkpt><trkpt lat="32.8947998" lon="10.2362701"><ele>464.5</ele><time>2026-04-27T10:06:06.061Z</time></trkpt><trkpt lat="32.8948904" lon="10.2361379"><ele>464.25</ele><time>2026-04-27T10:06:07.075Z</time></trkpt><trkpt lat="32.8949569" lon="10.2359774"><ele>464.0</ele><time>2026-04-27T10:06:08.077Z</time></trkpt><trkpt lat="32.8950083" lon="10.2358102"><ele>464.0</ele><time>2026-04-27T10:06:09.067Z</time></trkpt><trkpt lat="32.8950449" lon="10.2356429"><ele>464.0</ele><time>2026-04-27T10:06:10.066Z</time></trkpt><trkpt lat="32.8950632" lon="10.2354761"><ele>464.0</ele><time>2026-04-27T10:06:11.071Z</time></trkpt><trkpt lat="32.8950743" lon="10.2353156"><ele>464.0</ele><time>2026-04-27T10:06:12.082Z</time></trkpt><trkpt lat="32.8950877" lon="10.2351552"><ele>465.0</ele><time>2026-04-27T10:06:13.062Z</time></trkpt><trkpt lat="32.8950826" lon="10.2349953"><ele>466.0</ele><time>2026-04-27T10:06:14.069Z</time></trkpt><trkpt lat="32.8950641" lon="10.2348366"><ele>467.0</ele><time>2026-04-27T10:06:15.074Z</time></trkpt><trkpt lat="32.8950154" lon="10.2346779"><ele>468.0</ele><time>2026-04-27T10:06:16.07Z</time></trkpt><trkpt lat="32.8949517" lon="10.2345179"><ele>468.33333333333337</ele><time>2026-04-27T10:06:17.062Z</time></trkpt><trkpt lat="32.894869" lon="10.2343583"><ele>468.6666666666667</ele><time>2026-04-27T10:06:18.066Z</time></trkpt><trkpt lat="32.8947816" lon="10.2341889"><ele>469.0</ele><time>2026-04-27T10:06:19.063Z</time></trkpt><trkpt lat="32.8946949" lon="10.2340147"><ele>472.0</ele><time>2026-04-27T10:06:20.095Z</time></trkpt><trkpt lat="32.8946136" lon="10.2338356"><ele>475.0</ele><time>2026-04-27T10:06:21.07Z</time></trkpt><trkpt lat="32.8945347" lon="10.2336629"><ele>478.0</ele><time>2026-04-27T10:06:22.055Z</time></trkpt><trkpt lat="32.8944522" lon="10.23349"><ele>478.0</ele><time>2026-04-27T10:06:23.069Z</time></trkpt><trkpt lat="32.8943755" lon="10.2333255"><ele>478.0</ele><time>2026-04-27T10:06:24.075Z</time></trkpt><trkpt lat="32.8942849" lon="10.2331747"><ele>478.0</ele><time>2026-04-27T10:06:25.072Z</time></trkpt><trkpt lat="32.894174" lon="10.2330479"><ele>476.33333333333337</ele><time>2026-04-27T10:06:26.061Z</time></trkpt><trkpt lat="32.8940389" lon="10.2329451"><ele>474.66666666666663</ele><time>2026-04-27T10:06:27.067Z</time></trkpt><trkpt lat="32.8938868" lon="10.2328444"><ele>473.0</ele><time>2026-04-27T10:06:28.067Z</time></trkpt><trkpt lat="32.8937391" lon="10.2327595"><ele>473.0</ele><time>2026-04-27T10:06:29.076Z</time></trkpt><trkpt lat="32.8935917" lon="10.2326701"><ele>473.0</ele><time>2026-04-27T10:06:30.076Z</time></trkpt><trkpt lat="32.8934434" lon="10.2325721"><ele>473.0</ele><time>2026-04-27T10:06:31.063Z</time></trkpt><trkpt lat="32.8933071" lon="10.2324579"><ele>473.3333333333333</ele><time>2026-04-27T10:06:32.12Z</time></trkpt><trkpt lat="32.8931803" lon="10.2323399"><ele>473.66666666666663</ele><time>2026-04-27T10:06:33.072Z</time></trkpt><trkpt lat="32.893062" lon="10.2321878"><ele>474.0</ele><time>2026-04-27T10:06:34.069Z</time></trkpt><trkpt lat="32.8929475" lon="10.2320401"><ele>476.33333333333337</ele><time>2026-04-27T10:06:35.075Z</time></trkpt><trkpt lat="32.8928291" lon="10.231899"><ele>478.6666666666667</ele><time>2026-04-27T10:06:36.064Z</time></trkpt><trkpt lat="32.8927138" lon="10.2317636"><ele>481.0</ele><time>2026-04-27T10:06:37.073Z</time></trkpt><trkpt lat="32.8925953" lon="10.2316377"><ele>481.5</ele><time>2026-04-27T10:06:38.07Z</time></trkpt><trkpt lat="32.8924813" lon="10.2315101"><ele>482.0</ele><time>2026-04-27T10:06:39.066Z</time></trkpt><trkpt lat="32.8923658" lon="10.2313932"><ele>482.5</ele><time>2026-04-27T10:06:40.073Z</time></trkpt><trkpt lat="32.8922549" lon="10.2312926"><ele>483.0</ele><time>2026-04-27T10:06:41.066Z</time></trkpt><trkpt lat="32.8921422" lon="10.231206"><ele>483.0</ele><time>2026-04-27T10:06:42.061Z</time></trkpt><trkpt lat="32.8920243" lon="10.231132"><ele>483.0</ele><time>2026-04-27T10:06:43.064Z</time></trkpt><trkpt lat="32.8919141" lon="10.2310695"><ele>483.0</ele><time>2026-04-27T10:06:44.075Z</time></trkpt><trkpt lat="32.8918003" lon="10.231024"><ele>483.0</ele><time>2026-04-27T10:06:45.065Z</time></trkpt><trkpt lat="32.8916798" lon="10.2310151"><ele>481.75</ele><time>2026-04-27T10:06:46.078Z</time></trkpt><trkpt lat="32.8915532" lon="10.2310304"><ele>480.5</ele><time>2026-04-27T10:06:47.081Z</time></trkpt><trkpt lat="32.8914264" lon="10.2310379"><ele>479.25</ele><time>2026-04-27T10:06:48.076Z</time></trkpt><trkpt lat="32.8913099" lon="10.2310187"><ele>478.0</ele><time>2026-04-27T10:06:49.076Z</time></trkpt><trkpt lat="32.8911941" lon="10.2309524"><ele>478.0</ele><time>2026-04-27T10:06:50.069Z</time></trkpt><trkpt lat="32.8910837" lon="10.2308738"><ele>478.0</ele><time>2026-04-27T10:06:51.06Z</time></trkpt><trkpt lat="32.8909737" lon="10.2307873"><ele>478.0</ele><time>2026-04-27T10:06:52.057Z</time></trkpt><trkpt lat="32.8908538" lon="10.2307182"><ele>478.0</ele><time>2026-04-27T10:06:53.065Z</time></trkpt><trkpt lat="32.8907637" lon="10.2306665"><ele>479.4</ele><time>2026-04-27T10:06:54.076Z</time></trkpt><trkpt lat="32.8906822" lon="10.2305933"><ele>480.79999999999995</ele><time>2026-04-27T10:06:55.063Z</time></trkpt><trkpt lat="32.8906366" lon="10.2305154"><ele>482.2</ele><time>2026-04-27T10:06:56.077Z</time></trkpt><trkpt lat="32.8905981" lon="10.2304294"><ele>483.6</ele><time>2026-04-27T10:06:57.078Z</time></trkpt><trkpt lat="32.8905927" lon="10.2303318"><ele>485.0</ele><time>2026-04-27T10:06:58.087Z</time></trkpt><trkpt lat="32.8906082" lon="10.2301936"><ele>485.0</ele><time>2026-04-27T10:06:59.068Z</time></trkpt><trkpt lat="32.8906166" lon="10.230049"><ele>485.0</ele><time>2026-04-27T10:07:00.075Z</time></trkpt><trkpt lat="32.8906015" lon="10.2299039"><ele>485.0</ele><time>2026-04-27T10:07:01.063Z</time></trkpt><trkpt lat="32.8905527" lon="10.2297758"><ele>485.0</ele><time>2026-04-27T10:07:02.074Z</time></trkpt><trkpt lat="32.8904764" lon="10.2296661"><ele>486.75</ele><time>2026-04-27T10:07:03.088Z</time></trkpt><trkpt lat="32.8903757" lon="10.229593"><ele>488.5</ele><time>2026-04-27T10:07:04.064Z</time></trkpt><trkpt lat="32.8902409" lon="10.2295479"><ele>490.25</ele><time>2026-04-27T10:07:05.071Z</time></trkpt><trkpt lat="32.8900925" lon="10.2295252"><ele>492.0</ele><time>2026-04-27T10:07:06.046Z</time></trkpt><trkpt lat="32.8899447" lon="10.2295118"><ele>492.0</ele><time>2026-04-27T10:07:07.066Z</time></trkpt><trkpt lat="32.8898018" lon="10.2295082"><ele>492.0</ele><time>2026-04-27T10:07:08.13Z</time></trkpt><trkpt lat="32.889669" lon="10.2294978"><ele>492.0</ele><time>2026-04-27T10:07:09.085Z</time></trkpt><trkpt lat="32.8895606" lon="10.229463"><ele>492.0</ele><time>2026-04-27T10:07:10.062Z</time></trkpt><trkpt lat="32.8894485" lon="10.2294002"><ele>492.0</ele><time>2026-04-27T10:07:11.074Z</time></trkpt><trkpt lat="32.8893293" lon="10.229323"><ele>492.0</ele><time>2026-04-27T10:07:12.058Z</time></trkpt><trkpt lat="32.8892148" lon="10.2292341"><ele>492.0</ele><time>2026-04-27T10:07:13.088Z</time></trkpt><trkpt lat="32.8891004" lon="10.2291474"><ele>492.0</ele><time>2026-04-27T10:07:14.071Z</time></trkpt><trkpt lat="32.8889769" lon="10.2290741"><ele>490.75</ele><time>2026-04-27T10:07:15.066Z</time></trkpt><trkpt lat="32.888862" lon="10.2290075"><ele>489.5</ele><time>2026-04-27T10:07:16.061Z</time></trkpt><trkpt lat="32.8887499" lon="10.2289378"><ele>488.25</ele><time>2026-04-27T10:07:17.054Z</time></trkpt><trkpt lat="32.8886325" lon="10.2288612"><ele>487.0</ele><time>2026-04-27T10:07:18.071Z</time></trkpt><trkpt lat="32.8885132" lon="10.2287844"><ele>488.75</ele><time>2026-04-27T10:07:19.065Z</time></trkpt><trkpt lat="32.8883897" lon="10.2287095"><ele>490.5</ele><time>2026-04-27T10:07:20.074Z</time></trkpt><trkpt lat="32.888261" lon="10.2286253"><ele>492.25</ele><time>2026-04-27T10:07:21.076Z</time></trkpt><trkpt lat="32.8881267" lon="10.2285457"><ele>494.0</ele><time>2026-04-27T10:07:22.063Z</time></trkpt><trkpt lat="32.8879917" lon="10.2284747"><ele>494.0</ele><time>2026-04-27T10:07:23.063Z</time></trkpt><trkpt lat="32.8878523" lon="10.2284053"><ele>494.0</ele><time>2026-04-27T10:07:24.063Z</time></trkpt><trkpt lat="32.8877118" lon="10.2283418"><ele>494.0</ele><time>2026-04-27T10:07:25.068Z</time></trkpt><trkpt lat="32.8875819" lon="10.2282839"><ele>494.0</ele><time>2026-04-27T10:07:26.064Z</time></trkpt><trkpt lat="32.8874585" lon="10.2282053"><ele>496.0</ele><time>2026-04-27T10:07:27.069Z</time></trkpt><trkpt lat="32.8873456" lon="10.2281109"><ele>498.0</ele><time>2026-04-27T10:07:28.102Z</time></trkpt><trkpt lat="32.8872295" lon="10.2280111"><ele>500.0</ele><time>2026-04-27T10:07:29.07Z</time></trkpt><trkpt lat="32.8871184" lon="10.2279103"><ele>502.0</ele><time>2026-04-27T10:07:30.075Z</time></trkpt><trkpt lat="32.8870042" lon="10.2278193"><ele>502.0</ele><time>2026-04-27T10:07:31.084Z</time></trkpt><trkpt lat="32.8868837" lon="10.2277328"><ele>502.0</ele><time>2026-04-27T10:07:32.09Z</time></trkpt><trkpt lat="32.8867583" lon="10.2276536"><ele>502.0</ele><time>2026-04-27T10:07:33.094Z</time></trkpt><trkpt lat="32.8866354" lon="10.2275656"><ele>502.0</ele><time>2026-04-27T10:07:34.076Z</time></trkpt><trkpt lat="32.8865236" lon="10.2274695"><ele>500.75</ele><time>2026-04-27T10:07:35.079Z</time></trkpt><trkpt lat="32.8864148" lon="10.2273632"><ele>499.5</ele><time>2026-04-27T10:07:36.059Z</time></trkpt><trkpt lat="32.8863066" lon="10.2272359"><ele>498.25</ele><time>2026-04-27T10:07:37.083Z</time></trkpt><trkpt lat="32.8862155" lon="10.2271008"><ele>497.0</ele><time>2026-04-27T10:07:38.086Z</time></trkpt><trkpt lat="32.886117" lon="10.2269577"><ele>497.0</ele><time>2026-04-27T10:07:39.072Z</time></trkpt><trkpt lat="32.8860209" lon="10.2268206"><ele>497.0</ele><time>2026-04-27T10:07:40.073Z</time></trkpt><trkpt lat="32.8859296" lon="10.2266923"><ele>497.0</ele><time>2026-04-27T10:07:41.072Z</time></trkpt><trkpt lat="32.8858415" lon="10.2265681"><ele>497.0</ele><time>2026-04-27T10:07:42.082Z</time></trkpt><trkpt lat="32.8857554" lon="10.2264404"><ele>496.8</ele><time>2026-04-27T10:07:43.079Z</time></trkpt><trkpt lat="32.8856712" lon="10.2263276"><ele>496.6</ele><time>2026-04-27T10:07:44.068Z</time></trkpt><trkpt lat="32.8855844" lon="10.2262333"><ele>496.40000000000003</ele><time>2026-04-27T10:07:45.074Z</time></trkpt><trkpt lat="32.8854916" lon="10.226162"><ele>496.20000000000005</ele><time>2026-04-27T10:07:46.094Z</time></trkpt><trkpt lat="32.8854158" lon="10.226123"><ele>496.0</ele><time>2026-04-27T10:07:47.065Z</time></trkpt><trkpt lat="32.8853415" lon="10.2261106"><ele>496.0</ele><time>2026-04-27T10:07:48.055Z</time></trkpt><trkpt lat="32.8852742" lon="10.2260924"><ele>496.0</ele><time>2026-04-27T10:07:49.089Z</time></trkpt><trkpt lat="32.8852052" lon="10.2260798"><ele>496.0</ele><time>2026-04-27T10:07:50.082Z</time></trkpt><trkpt lat="32.8850962" lon="10.2260721"><ele>496.0</ele><time>2026-04-27T10:07:52.074Z</time></trkpt><trkpt lat="32.884993" lon="10.2260465"><ele>496.0</ele><time>2026-04-27T10:07:54.09Z</time></trkpt><trkpt lat="32.8848956" lon="10.2260149"><ele>497.20000000000005</ele><time>2026-04-27T10:07:56.071Z</time></trkpt><trkpt lat="32.8848188" lon="10.2259242"><ele>498.40000000000003</ele><time>2026-04-27T10:07:58.074Z</time></trkpt><trkpt lat="32.8847879" lon="10.2257881"><ele>499.6</ele><time>2026-04-27T10:08:00.071Z</time></trkpt><trkpt lat="32.8848247" lon="10.225655"><ele>500.8</ele><time>2026-04-27T10:08:02.079Z</time></trkpt><trkpt lat="32.8848579" lon="10.2255715"><ele>502.0</ele><time>2026-04-27T10:08:04.069Z</time></trkpt><trkpt lat="32.8847962" lon="10.2255899"><ele>502.00000000000006</ele><time>2026-04-27T10:08:18.066Z</time></trkpt><trkpt lat="32.8847472" lon="10.2257314"><ele>502.0</ele><time>2026-04-27T10:08:20.069Z</time></trkpt><trkpt lat="32.8847106" lon="10.225803"><ele>502.0</ele><time>2026-04-27T10:08:21.063Z</time></trkpt><trkpt lat="32.8846761" lon="10.2258797"><ele>502.0</ele><time>2026-04-27T10:08:22.071Z</time></trkpt><trkpt lat="32.8845897" lon="10.2259632"><ele>502.00000000000006</ele><time>2026-04-27T10:08:24.054Z</time></trkpt><trkpt lat="32.8845302" lon="10.2259965"><ele>502.0</ele><time>2026-04-27T10:08:25.068Z</time></trkpt><trkpt lat="32.8844574" lon="10.2260239"><ele>502.00000000000006</ele><time>2026-04-27T10:08:26.063Z</time></trkpt><trkpt lat="32.8843821" lon="10.2260421"><ele>502.0</ele><time>2026-04-27T10:08:27.069Z</time></trkpt><trkpt lat="32.8842921" lon="10.2260714"><ele>502.0</ele><time>2026-04-27T10:08:28.075Z</time></trkpt><trkpt lat="32.8842098" lon="10.2260909"><ele>502.0</ele><time>2026-04-27T10:08:29.055Z</time></trkpt><trkpt lat="32.8841171" lon="10.2260922"><ele>502.00000000000006</ele><time>2026-04-27T10:08:30.073Z</time></trkpt><trkpt lat="32.884029" lon="10.2260764"><ele>502.0</ele><time>2026-04-27T10:08:31.066Z</time></trkpt><trkpt lat="32.8839456" lon="10.2260405"><ele>502.20000000000005</ele><time>2026-04-27T10:08:32.079Z</time></trkpt><trkpt lat="32.8838734" lon="10.2259745"><ele>502.40000000000003</ele><time>2026-04-27T10:08:33.081Z</time></trkpt><trkpt lat="32.8838005" lon="10.2258961"><ele>502.59999999999997</ele><time>2026-04-27T10:08:34.07Z</time></trkpt><trkpt lat="32.8837364" lon="10.225804"><ele>502.79999999999995</ele><time>2026-04-27T10:08:35.063Z</time></trkpt><trkpt lat="32.8836701" lon="10.2257197"><ele>503.0</ele><time>2026-04-27T10:08:36.078Z</time></trkpt><trkpt lat="32.8836001" lon="10.2256292"><ele>503.4</ele><time>2026-04-27T10:08:37.066Z</time></trkpt><trkpt lat="32.8835295" lon="10.2255477"><ele>503.79999999999995</ele><time>2026-04-27T10:08:38.056Z</time></trkpt><trkpt lat="32.8834566" lon="10.2254691"><ele>504.2</ele><time>2026-04-27T10:08:39.066Z</time></trkpt><trkpt lat="32.8833873" lon="10.2253864"><ele>504.6</ele><time>2026-04-27T10:08:40.076Z</time></trkpt><trkpt lat="32.8833182" lon="10.2252996"><ele>505.0</ele><time>2026-04-27T10:08:41.054Z</time></trkpt><trkpt lat="32.883247" lon="10.2252138"><ele>503.6666666666667</ele><time>2026-04-27T10:08:42.067Z</time></trkpt><trkpt lat="32.8831795" lon="10.2251382"><ele>502.33333333333337</ele><time>2026-04-27T10:08:43.074Z</time></trkpt><trkpt lat="32.8831193" lon="10.2250747"><ele>501.0</ele><time>2026-04-27T10:08:44.067Z</time></trkpt><trkpt lat="32.8830555" lon="10.2250066"><ele>499.66666666666663</ele><time>2026-04-27T10:08:45.068Z</time></trkpt><trkpt lat="32.8829912" lon="10.2249464"><ele>498.3333333333333</ele><time>2026-04-27T10:08:46.063Z</time></trkpt><trkpt lat="32.8829241" lon="10.2248922"><ele>497.0</ele><time>2026-04-27T10:08:47.045Z</time></trkpt><trkpt lat="32.8828572" lon="10.2248382"><ele>497.0</ele><time>2026-04-27T10:08:48.084Z</time></trkpt><trkpt lat="32.8827974" lon="10.2247824"><ele>497.0</ele><time>2026-04-27T10:08:49.069Z</time></trkpt><trkpt lat="32.8827268" lon="10.2247155"><ele>497.0</ele><time>2026-04-27T10:08:51.069Z</time></trkpt><trkpt lat="32.8826779" lon="10.2246676"><ele>497.0</ele><time>2026-04-27T10:09:04.064Z</time></trkpt><trkpt lat="32.8827283" lon="10.2247274"><ele>497.0</ele><time>2026-04-27T10:09:17.074Z</time></trkpt><trkpt lat="32.8827871" lon="10.2247752"><ele>497.0</ele><time>2026-04-27T10:28:08.058Z</time></trkpt><trkpt lat="32.882834" lon="10.2248288"><ele>497.0</ele><time>2026-04-27T10:28:10.066Z</time></trkpt><trkpt lat="32.8829217" lon="10.2249157"><ele>496.99999999999994</ele><time>2026-04-27T10:28:13.056Z</time></trkpt><trkpt lat="32.882989" lon="10.224971"><ele>497.0</ele><time>2026-04-27T10:28:16.053Z</time></trkpt><trkpt lat="32.8829818" lon="10.2248932"><ele>497.0</ele><time>2026-04-27T10:28:25.036Z</time></trkpt><trkpt lat="32.8829415" lon="10.2248108"><ele>497.0</ele><time>2026-04-27T10:28:40.065Z</time></trkpt><trkpt lat="32.882868" lon="10.2247199"><ele>496.99999999999994</ele><time>2026-04-27T10:28:42.062Z</time></trkpt><trkpt lat="32.8828229" lon="10.224663"><ele>497.0</ele><time>2026-04-27T10:28:43.067Z</time></trkpt><trkpt lat="32.8827684" lon="10.2246014"><ele>496.99999999999994</ele><time>2026-04-27T10:28:44.06Z</time></trkpt><trkpt lat="32.882715" lon="10.2245327"><ele>497.0</ele><time>2026-04-27T10:28:45.077Z</time></trkpt><trkpt lat="32.8826618" lon="10.2244741"><ele>497.0</ele><time>2026-04-27T10:28:46.066Z</time></trkpt><trkpt lat="32.8826018" lon="10.2244161"><ele>497.0</ele><time>2026-04-27T10:28:47.065Z</time></trkpt><trkpt lat="32.8825456" lon="10.2243512"><ele>496.99999999999994</ele><time>2026-04-27T10:28:48.058Z</time></trkpt><trkpt lat="32.8824874" lon="10.2242768"><ele>497.0</ele><time>2026-04-27T10:28:49.06Z</time></trkpt><trkpt lat="32.882423" lon="10.2242084"><ele>495.6</ele><time>2026-04-27T10:28:50.036Z</time></trkpt><trkpt lat="32.8823635" lon="10.224127"><ele>494.20000000000005</ele><time>2026-04-27T10:28:51.068Z</time></trkpt><trkpt lat="32.882308" lon="10.2240365"><ele>492.8</ele><time>2026-04-27T10:28:52.062Z</time></trkpt><trkpt lat="32.8822565" lon="10.2239286"><ele>491.4</ele><time>2026-04-27T10:28:53.053Z</time></trkpt><trkpt lat="32.8822059" lon="10.2238158"><ele>490.0</ele><time>2026-04-27T10:28:54.066Z</time></trkpt><trkpt lat="32.8821517" lon="10.22371"><ele>489.6</ele><time>2026-04-27T10:28:55.067Z</time></trkpt><trkpt lat="32.8820982" lon="10.2236062"><ele>489.2</ele><time>2026-04-27T10:28:56.064Z</time></trkpt><trkpt lat="32.8820484" lon="10.2235025"><ele>488.79999999999995</ele><time>2026-04-27T10:28:57.068Z</time></trkpt><trkpt lat="32.881989" lon="10.2234019"><ele>488.4</ele><time>2026-04-27T10:28:58.078Z</time></trkpt><trkpt lat="32.8819381" lon="10.2233019"><ele>488.0</ele><time>2026-04-27T10:28:59.075Z</time></trkpt><trkpt lat="32.8818909" lon="10.2232029"><ele>488.0</ele><time>2026-04-27T10:29:00.074Z</time></trkpt><trkpt lat="32.8818378" lon="10.2230998"><ele>487.99999999999994</ele><time>2026-04-27T10:29:01.048Z</time></trkpt><trkpt lat="32.8817956" lon="10.2230024"><ele>487.99999999999994</ele><time>2026-04-27T10:29:02.058Z</time></trkpt><trkpt lat="32.8817706" lon="10.2228983"><ele>488.0</ele><time>2026-04-27T10:29:03.069Z</time></trkpt><trkpt lat="32.8817617" lon="10.2227889"><ele>488.0</ele><time>2026-04-27T10:29:04.068Z</time></trkpt><trkpt lat="32.8817555" lon="10.2226673"><ele>488.0</ele><time>2026-04-27T10:29:05.085Z</time></trkpt><trkpt lat="32.8817637" lon="10.2225487"><ele>487.99999999999994</ele><time>2026-04-27T10:29:06.068Z</time></trkpt><trkpt lat="32.8817778" lon="10.2224236"><ele>487.99999999999994</ele><time>2026-04-27T10:29:07.08Z</time></trkpt><trkpt lat="32.8817992" lon="10.2223082"><ele>488.0</ele><time>2026-04-27T10:29:08.067Z</time></trkpt><trkpt lat="32.881823" lon="10.2222082"><ele>488.0</ele><time>2026-04-27T10:29:09.071Z</time></trkpt><trkpt lat="32.8818633" lon="10.2221161"><ele>487.59999999999997</ele><time>2026-04-27T10:29:10.066Z</time></trkpt><trkpt lat="32.8819183" lon="10.2220125"><ele>487.19999999999993</ele><time>2026-04-27T10:29:11.072Z</time></trkpt><trkpt lat="32.8819693" lon="10.2219161"><ele>486.8</ele><time>2026-04-27T10:29:12.146Z</time></trkpt><trkpt lat="32.8820187" lon="10.2218009"><ele>486.4</ele><time>2026-04-27T10:29:13.083Z</time></trkpt><trkpt lat="32.8820494" lon="10.2216852"><ele>486.0</ele><time>2026-04-27T10:29:14.086Z</time></trkpt><trkpt lat="32.8820619" lon="10.2215606"><ele>486.4</ele><time>2026-04-27T10:29:15.053Z</time></trkpt><trkpt lat="32.8820653" lon="10.2214225"><ele>486.8</ele><time>2026-04-27T10:29:16.057Z</time></trkpt><trkpt lat="32.8820699" lon="10.2212902"><ele>487.19999999999993</ele><time>2026-04-27T10:29:17.064Z</time></trkpt><trkpt lat="32.8820706" lon="10.221156"><ele>487.59999999999997</ele><time>2026-04-27T10:29:18.077Z</time></trkpt><trkpt lat="32.8820626" lon="10.2210267"><ele>488.0</ele><time>2026-04-27T10:29:19.057Z</time></trkpt><trkpt lat="32.8820548" lon="10.2209001"><ele>488.0</ele><time>2026-04-27T10:29:20.051Z</time></trkpt><trkpt lat="32.8820649" lon="10.2207782"><ele>487.99999999999994</ele><time>2026-04-27T10:29:21.053Z</time></trkpt><trkpt lat="32.8820734" lon="10.2206571"><ele>487.99999999999994</ele><time>2026-04-27T10:29:22.07Z</time></trkpt><trkpt lat="32.8820817" lon="10.2205366"><ele>488.0</ele><time>2026-04-27T10:29:23.071Z</time></trkpt><trkpt lat="32.8820947" lon="10.2204148"><ele>488.0</ele><time>2026-04-27T10:29:24.073Z</time></trkpt><trkpt lat="32.882113" lon="10.2202997"><ele>488.79999999999995</ele><time>2026-04-27T10:29:25.07Z</time></trkpt><trkpt lat="32.8821388" lon="10.2201814"><ele>489.59999999999997</ele><time>2026-04-27T10:29:26.071Z</time></trkpt><trkpt lat="32.8821518" lon="10.220068"><ele>490.40000000000003</ele><time>2026-04-27T10:29:27.063Z</time></trkpt><trkpt lat="32.8821528" lon="10.2199477"><ele>491.20000000000005</ele><time>2026-04-27T10:29:28.064Z</time></trkpt><trkpt lat="32.8821352" lon="10.2198175"><ele>492.0</ele><time>2026-04-27T10:29:29.077Z</time></trkpt><trkpt lat="32.8821062" lon="10.2196913"><ele>492.75</ele><time>2026-04-27T10:29:30.052Z</time></trkpt><trkpt lat="32.8820685" lon="10.2195568"><ele>493.5</ele><time>2026-04-27T10:29:31.056Z</time></trkpt><trkpt lat="32.8820352" lon="10.2194174"><ele>494.25</ele><time>2026-04-27T10:29:32.091Z</time></trkpt><trkpt lat="32.8820048" lon="10.2192919"><ele>495.0</ele><time>2026-04-27T10:29:33.067Z</time></trkpt><trkpt lat="32.8819722" lon="10.2191723"><ele>495.0</ele><time>2026-04-27T10:29:34.093Z</time></trkpt><trkpt lat="32.881951" lon="10.2190462"><ele>495.0</ele><time>2026-04-27T10:29:35.096Z</time></trkpt><trkpt lat="32.881937" lon="10.218918"><ele>495.0</ele><time>2026-04-27T10:29:36.059Z</time></trkpt><trkpt lat="32.881933" lon="10.2187823"><ele>495.0</ele><time>2026-04-27T10:29:37.084Z</time></trkpt><trkpt lat="32.8819326" lon="10.218654"><ele>495.0</ele><time>2026-04-27T10:29:38.069Z</time></trkpt><trkpt lat="32.8819334" lon="10.2185313"><ele>494.1666666666667</ele><time>2026-04-27T10:29:39.058Z</time></trkpt><trkpt lat="32.8819378" lon="10.2184178"><ele>493.33333333333337</ele><time>2026-04-27T10:29:40.088Z</time></trkpt><trkpt lat="32.8819329" lon="10.2183232"><ele>492.5</ele><time>2026-04-27T10:29:41.085Z</time></trkpt><trkpt lat="32.8819103" lon="10.218242"><ele>491.6666666666667</ele><time>2026-04-27T10:29:42.095Z</time></trkpt><trkpt lat="32.8818611" lon="10.2181632"><ele>490.83333333333337</ele><time>2026-04-27T10:29:43.091Z</time></trkpt><trkpt lat="32.8818168" lon="10.2180773"><ele>490.0</ele><time>2026-04-27T10:29:44.05Z</time></trkpt><trkpt lat="32.8817876" lon="10.2179824"><ele>490.0</ele><time>2026-04-27T10:29:45.04Z</time></trkpt><trkpt lat="32.8817711" lon="10.2178667"><ele>490.0</ele><time>2026-04-27T10:29:46.037Z</time></trkpt><trkpt lat="32.8817688" lon="10.2177296"><ele>490.0</ele><time>2026-04-27T10:29:47.088Z</time></trkpt><trkpt lat="32.8817612" lon="10.2175929"><ele>490.0</ele><time>2026-04-27T10:29:48.094Z</time></trkpt><trkpt lat="32.8817485" lon="10.2174472"><ele>488.5</ele><time>2026-04-27T10:29:49.082Z</time></trkpt><trkpt lat="32.8817372" lon="10.2173024"><ele>487.0</ele><time>2026-04-27T10:29:50.046Z</time></trkpt><trkpt lat="32.8817244" lon="10.2171692"><ele>485.5</ele><time>2026-04-27T10:29:51.051Z</time></trkpt><trkpt lat="32.8817148" lon="10.217033"><ele>484.0</ele><time>2026-04-27T10:29:52.039Z</time></trkpt><trkpt lat="32.881711" lon="10.2168981"><ele>484.0</ele><time>2026-04-27T10:29:53.069Z</time></trkpt><trkpt lat="32.8816956" lon="10.2167723"><ele>484.0</ele><time>2026-04-27T10:29:54.085Z</time></trkpt><trkpt lat="32.8816662" lon="10.2166527"><ele>484.0</ele><time>2026-04-27T10:29:55.083Z</time></trkpt><trkpt lat="32.881631" lon="10.2165317"><ele>484.0</ele><time>2026-04-27T10:29:56.067Z</time></trkpt><trkpt lat="32.8815788" lon="10.2164046"><ele>484.0</ele><time>2026-04-27T10:29:57.084Z</time></trkpt><trkpt lat="32.8815351" lon="10.2162663"><ele>484.0</ele><time>2026-04-27T10:29:58.076Z</time></trkpt><trkpt lat="32.8814932" lon="10.2161278"><ele>484.0</ele><time>2026-04-27T10:29:59.077Z</time></trkpt><trkpt lat="32.8814404" lon="10.2159914"><ele>484.0</ele><time>2026-04-27T10:30:00.078Z</time></trkpt><trkpt lat="32.8813855" lon="10.2158615"><ele>484.0</ele><time>2026-04-27T10:30:01.077Z</time></trkpt><trkpt lat="32.881326" lon="10.2157198"><ele>484.5</ele><time>2026-04-27T10:30:02.058Z</time></trkpt><trkpt lat="32.8812758" lon="10.2155834"><ele>485.0</ele><time>2026-04-27T10:30:03.063Z</time></trkpt><trkpt lat="32.8812297" lon="10.2154475"><ele>485.5</ele><time>2026-04-27T10:30:04.095Z</time></trkpt><trkpt lat="32.8811795" lon="10.2153222"><ele>486.0</ele><time>2026-04-27T10:30:05.079Z</time></trkpt><trkpt lat="32.8811378" lon="10.2152016"><ele>486.0</ele><time>2026-04-27T10:30:06.103Z</time></trkpt><trkpt lat="32.8811043" lon="10.2150735"><ele>486.0</ele><time>2026-04-27T10:30:07.093Z</time></trkpt><trkpt lat="32.8810803" lon="10.2149337"><ele>486.0</ele><time>2026-04-27T10:30:08.086Z</time></trkpt><trkpt lat="32.8810395" lon="10.2147968"><ele>486.0</ele><time>2026-04-27T10:30:09.06Z</time></trkpt><trkpt lat="32.8809879" lon="10.2146625"><ele>485.0</ele><time>2026-04-27T10:30:10.089Z</time></trkpt><trkpt lat="32.880929" lon="10.2145382"><ele>484.0</ele><time>2026-04-27T10:30:11.061Z</time></trkpt><trkpt lat="32.8808829" lon="10.2144028"><ele>483.0</ele><time>2026-04-27T10:30:12.102Z</time></trkpt><trkpt lat="32.8808542" lon="10.2142669"><ele>482.0</ele><time>2026-04-27T10:30:13.044Z</time></trkpt><trkpt lat="32.880836" lon="10.2141398"><ele>482.0</ele><time>2026-04-27T10:30:14.039Z</time></trkpt><trkpt lat="32.8808131" lon="10.2140173"><ele>482.00000000000006</ele><time>2026-04-27T10:30:15.044Z</time></trkpt><trkpt lat="32.8807859" lon="10.2139059"><ele>482.00000000000006</ele><time>2026-04-27T10:30:16.099Z</time></trkpt><trkpt lat="32.880731" lon="10.2138191"><ele>482.0</ele><time>2026-04-27T10:30:17.059Z</time></trkpt><trkpt lat="32.8806635" lon="10.2137396"><ele>482.0</ele><time>2026-04-27T10:30:18.092Z</time></trkpt><trkpt lat="32.8806048" lon="10.2136617"><ele>481.8</ele><time>2026-04-27T10:30:19.094Z</time></trkpt><trkpt lat="32.880574" lon="10.2135761"><ele>481.6</ele><time>2026-04-27T10:30:20.089Z</time></trkpt><trkpt lat="32.8805645" lon="10.2134744"><ele>481.40000000000003</ele><time>2026-04-27T10:30:21.091Z</time></trkpt><trkpt lat="32.880565" lon="10.2133659"><ele>481.20000000000005</ele><time>2026-04-27T10:30:22.077Z</time></trkpt><trkpt lat="32.880548" lon="10.2132432"><ele>481.0</ele><time>2026-04-27T10:30:23.071Z</time></trkpt><trkpt lat="32.8805062" lon="10.2131105"><ele>481.8</ele><time>2026-04-27T10:30:24.09Z</time></trkpt><trkpt lat="32.88046" lon="10.2129862"><ele>482.6</ele><time>2026-04-27T10:30:25.088Z</time></trkpt><trkpt lat="32.8804165" lon="10.2128748"><ele>483.4</ele><time>2026-04-27T10:30:26.079Z</time></trkpt><trkpt lat="32.8803593" lon="10.2127709"><ele>484.2</ele><time>2026-04-27T10:30:27.055Z</time></trkpt><trkpt lat="32.8802958" lon="10.2126683"><ele>485.0</ele><time>2026-04-27T10:30:28.09Z</time></trkpt><trkpt lat="32.8802253" lon="10.2125732"><ele>485.0</ele><time>2026-04-27T10:30:29.083Z</time></trkpt><trkpt lat="32.8801588" lon="10.2124793"><ele>485.0</ele><time>2026-04-27T10:30:30.109Z</time></trkpt><trkpt lat="32.8800987" lon="10.2123894"><ele>485.0</ele><time>2026-04-27T10:30:31.079Z</time></trkpt><trkpt lat="32.8800343" lon="10.2122994"><ele>485.0</ele><time>2026-04-27T10:30:32.075Z</time></trkpt><trkpt lat="32.879971" lon="10.2122179"><ele>485.0</ele><time>2026-04-27T10:30:33.087Z</time></trkpt><trkpt lat="32.8799217" lon="10.2121306"><ele>484.2</ele><time>2026-04-27T10:30:34.085Z</time></trkpt><trkpt lat="32.8798953" lon="10.2120299"><ele>483.4</ele><time>2026-04-27T10:30:35.038Z</time></trkpt><trkpt lat="32.879881" lon="10.2119233"><ele>482.6</ele><time>2026-04-27T10:30:36.097Z</time></trkpt><trkpt lat="32.8798831" lon="10.2118152"><ele>481.8</ele><time>2026-04-27T10:30:37.055Z</time></trkpt><trkpt lat="32.8799012" lon="10.2117066"><ele>481.0</ele><time>2026-04-27T10:30:38.078Z</time></trkpt><trkpt lat="32.8799256" lon="10.2115959"><ele>480.4</ele><time>2026-04-27T10:30:39.099Z</time></trkpt><trkpt lat="32.8799441" lon="10.211488"><ele>479.8</ele><time>2026-04-27T10:30:40.083Z</time></trkpt><trkpt lat="32.8799561" lon="10.2113739"><ele>479.19999999999993</ele><time>2026-04-27T10:30:41.096Z</time></trkpt><trkpt lat="32.8799741" lon="10.211256"><ele>478.59999999999997</ele><time>2026-04-27T10:30:42.047Z</time></trkpt><trkpt lat="32.8800144" lon="10.2111489"><ele>478.0</ele><time>2026-04-27T10:30:43.088Z</time></trkpt><trkpt lat="32.8800714" lon="10.2110673"><ele>479.4</ele><time>2026-04-27T10:30:44.036Z</time></trkpt><trkpt lat="32.8801389" lon="10.2109874"><ele>480.79999999999995</ele><time>2026-04-27T10:30:45.057Z</time></trkpt><trkpt lat="32.8802108" lon="10.2109028"><ele>482.2</ele><time>2026-04-27T10:30:46.081Z</time></trkpt><trkpt lat="32.8802812" lon="10.2108206"><ele>483.6</ele><time>2026-04-27T10:30:47.092Z</time></trkpt><trkpt lat="32.8803416" lon="10.210736"><ele>485.0</ele><time>2026-04-27T10:30:48.078Z</time></trkpt><trkpt lat="32.8803832" lon="10.210636"><ele>485.0</ele><time>2026-04-27T10:30:49.065Z</time></trkpt><trkpt lat="32.8804081" lon="10.2105072"><ele>485.0</ele><time>2026-04-27T10:30:50.068Z</time></trkpt><trkpt lat="32.8804285" lon="10.2103722"><ele>485.0</ele><time>2026-04-27T10:30:51.027Z</time></trkpt><trkpt lat="32.8804534" lon="10.2102304"><ele>485.0</ele><time>2026-04-27T10:30:52.052Z</time></trkpt><trkpt lat="32.8804773" lon="10.2100949"><ele>485.0</ele><time>2026-04-27T10:30:53.036Z</time></trkpt><trkpt lat="32.8805038" lon="10.2099664"><ele>485.0</ele><time>2026-04-27T10:30:54.031Z</time></trkpt><trkpt lat="32.8805313" lon="10.20985"><ele>485.0</ele><time>2026-04-27T10:30:55.091Z</time></trkpt><trkpt lat="32.8805635" lon="10.2097467"><ele>485.0</ele><time>2026-04-27T10:30:56.075Z</time></trkpt><trkpt lat="32.8806028" lon="10.2096454"><ele>485.0</ele><time>2026-04-27T10:30:57.046Z</time></trkpt><trkpt lat="32.8806426" lon="10.2095439"><ele>483.66666666666663</ele><time>2026-04-27T10:30:58.084Z</time></trkpt><trkpt lat="32.8806859" lon="10.2094529"><ele>482.3333333333333</ele><time>2026-04-27T10:30:59.092Z</time></trkpt><trkpt lat="32.8807265" lon="10.2093753"><ele>481.0</ele><time>2026-04-27T10:31:00.066Z</time></trkpt><trkpt lat="32.8807648" lon="10.2093035"><ele>479.66666666666663</ele><time>2026-04-27T10:31:01.079Z</time></trkpt><trkpt lat="32.8808013" lon="10.2092404"><ele>478.3333333333333</ele><time>2026-04-27T10:31:02.079Z</time></trkpt><trkpt lat="32.8808684" lon="10.2091273"><ele>477.0</ele><time>2026-04-27T10:31:04.042Z</time></trkpt><trkpt lat="32.8809298" lon="10.2090144"><ele>477.1666666666667</ele><time>2026-04-27T10:31:06.092Z</time></trkpt><trkpt lat="32.8809888" lon="10.2089168"><ele>477.33333333333337</ele><time>2026-04-27T10:31:08.062Z</time></trkpt><trkpt lat="32.8810427" lon="10.2088292"><ele>477.5</ele><time>2026-04-27T10:31:10.085Z</time></trkpt><trkpt lat="32.881093" lon="10.2087449"><ele>477.6666666666667</ele><time>2026-04-27T10:31:12.086Z</time></trkpt><trkpt lat="32.8811308" lon="10.2086599"><ele>477.83333333333337</ele><time>2026-04-27T10:31:14.068Z</time></trkpt><trkpt lat="32.8811784" lon="10.2085812"><ele>478.0</ele><time>2026-04-27T10:31:16.067Z</time></trkpt><trkpt lat="32.8812247" lon="10.208507"><ele>478.0</ele><time>2026-04-27T10:31:18.069Z</time></trkpt><trkpt lat="32.8812705" lon="10.2084333"><ele>477.99999999999994</ele><time>2026-04-27T10:31:21.103Z</time></trkpt><trkpt lat="32.8813234" lon="10.2083509"><ele>477.99999999999994</ele><time>2026-04-27T10:31:56.086Z</time></trkpt><trkpt lat="32.881382" lon="10.2082561"><ele>478.0</ele><time>2026-04-27T10:31:58.067Z</time></trkpt><trkpt lat="32.8814243" lon="10.2081599"><ele>478.0</ele><time>2026-04-27T10:32:00.068Z</time></trkpt><trkpt lat="32.8814802" lon="10.2080375"><ele>477.4</ele><time>2026-04-27T10:32:02.075Z</time></trkpt><trkpt lat="32.8815567" lon="10.2079392"><ele>476.79999999999995</ele><time>2026-04-27T10:32:04.066Z</time></trkpt><trkpt lat="32.8816531" lon="10.2078775"><ele>476.2</ele><time>2026-04-27T10:32:06.093Z</time></trkpt><trkpt lat="32.8817243" lon="10.2077844"><ele>475.6</ele><time>2026-04-27T10:32:08.063Z</time></trkpt><trkpt lat="32.8817373" lon="10.2076904"><ele>475.0</ele><time>2026-04-27T10:32:10.077Z</time></trkpt><trkpt lat="32.8817181" lon="10.207591"><ele>475.0</ele><time>2026-04-27T10:32:12.049Z</time></trkpt><trkpt lat="32.8816604" lon="10.2074989"><ele>475.0</ele><time>2026-04-27T10:32:14.097Z</time></trkpt><trkpt lat="32.8815726" lon="10.2074357"><ele>475.0</ele><time>2026-04-27T10:32:16.078Z</time></trkpt><trkpt lat="32.8814792" lon="10.2073422"><ele>475.0</ele><time>2026-04-27T10:32:18.101Z</time></trkpt><trkpt lat="32.8814059" lon="10.2072389"><ele>475.0</ele><time>2026-04-27T10:32:20.089Z</time></trkpt><trkpt lat="32.8813243" lon="10.2071493"><ele>474.8</ele><time>2026-04-27T10:32:22.087Z</time></trkpt><trkpt lat="32.8812529" lon="10.2070609"><ele>474.6</ele><time>2026-04-27T10:32:24.071Z</time></trkpt><trkpt lat="32.88123" lon="10.2069442"><ele>474.4</ele><time>2026-04-27T10:32:26.06Z</time></trkpt><trkpt lat="32.881251" lon="10.2068024"><ele>474.2</ele><time>2026-04-27T10:32:28.025Z</time></trkpt><trkpt lat="32.8813105" lon="10.2066763"><ele>474.0</ele><time>2026-04-27T10:32:30.09Z</time></trkpt><trkpt lat="32.8813903" lon="10.2065567"><ele>474.6666666666667</ele><time>2026-04-27T10:32:32.093Z</time></trkpt><trkpt lat="32.8814584" lon="10.2064382"><ele>475.33333333333337</ele><time>2026-04-27T10:32:34.042Z</time></trkpt><trkpt lat="32.8814983" lon="10.2063627"><ele>476.0</ele><time>2026-04-27T10:32:35.085Z</time></trkpt><trkpt lat="32.8815323" lon="10.2062899"><ele>476.6666666666667</ele><time>2026-04-27T10:32:36.082Z</time></trkpt><trkpt lat="32.8815669" lon="10.2062179"><ele>477.33333333333337</ele><time>2026-04-27T10:32:37.068Z</time></trkpt><trkpt lat="32.8816049" lon="10.2061462"><ele>478.0</ele><time>2026-04-27T10:32:38.098Z</time></trkpt><trkpt lat="32.8816438" lon="10.2060754"><ele>478.00000000000006</ele><time>2026-04-27T10:32:39.091Z</time></trkpt><trkpt lat="32.8816818" lon="10.2060056"><ele>478.0</ele><time>2026-04-27T10:32:40.085Z</time></trkpt><trkpt lat="32.8817211" lon="10.2059408"><ele>478.00000000000006</ele><time>2026-04-27T10:32:41.066Z</time></trkpt><trkpt lat="32.8817646" lon="10.2058671"><ele>478.00000000000006</ele><time>2026-04-27T10:32:42.087Z</time></trkpt><trkpt lat="32.8817988" lon="10.2057966"><ele>478.0</ele><time>2026-04-27T10:32:43.076Z</time></trkpt><trkpt lat="32.8818321" lon="10.2057214"><ele>478.00000000000006</ele><time>2026-04-27T10:32:44.057Z</time></trkpt><trkpt lat="32.8818637" lon="10.2056469"><ele>478.00000000000006</ele><time>2026-04-27T10:32:45.065Z</time></trkpt><trkpt lat="32.8818909" lon="10.2055702"><ele>477.00000000000006</ele><time>2026-04-27T10:32:46.068Z</time></trkpt><trkpt lat="32.8819169" lon="10.2054831"><ele>476.0</ele><time>2026-04-27T10:32:47.075Z</time></trkpt><trkpt lat="32.8819342" lon="10.205401"><ele>475.00000000000006</ele><time>2026-04-27T10:32:48.093Z</time></trkpt><trkpt lat="32.8819489" lon="10.2053196"><ele>474.00000000000006</ele><time>2026-04-27T10:32:49.098Z</time></trkpt><trkpt lat="32.8819482" lon="10.2052306"><ele>473.0</ele><time>2026-04-27T10:32:50.084Z</time></trkpt><trkpt lat="32.8819442" lon="10.2051417"><ele>472.00000000000006</ele><time>2026-04-27T10:32:51.096Z</time></trkpt><trkpt lat="32.8819361" lon="10.2050543"><ele>471.00000000000006</ele><time>2026-04-27T10:32:52.083Z</time></trkpt><trkpt lat="32.8819365" lon="10.2049691"><ele>471.00000000000006</ele><time>2026-04-27T10:32:53.08Z</time></trkpt><trkpt lat="32.8819349" lon="10.2048852"><ele>471.0</ele><time>2026-04-27T10:32:54.098Z</time></trkpt><trkpt lat="32.8819365" lon="10.2048027"><ele>471.00000000000006</ele><time>2026-04-27T10:32:55.093Z</time></trkpt><trkpt lat="32.8819411" lon="10.204724"><ele>471.00000000000006</ele><time>2026-04-27T10:32:56.093Z</time></trkpt><trkpt lat="32.8819423" lon="10.2046421"><ele>471.0</ele><time>2026-04-27T10:32:57.077Z</time></trkpt><trkpt lat="32.881937" lon="10.2045627"><ele>471.00000000000006</ele><time>2026-04-27T10:32:58.09Z</time></trkpt><trkpt lat="32.881932" lon="10.2044824"><ele>471.00000000000006</ele><time>2026-04-27T10:32:59.08Z</time></trkpt><trkpt lat="32.8819284" lon="10.2044056"><ele>471.1428571428572</ele><time>2026-04-27T10:33:00.057Z</time></trkpt><trkpt lat="32.8819309" lon="10.2043272"><ele>471.28571428571433</ele><time>2026-04-27T10:33:01.084Z</time></trkpt><trkpt lat="32.8819438" lon="10.2042516"><ele>471.42857142857144</ele><time>2026-04-27T10:33:02.1Z</time></trkpt><trkpt lat="32.881979" lon="10.2041723"><ele>471.5714285714286</ele><time>2026-04-27T10:33:03.093Z</time></trkpt><trkpt lat="32.8820178" lon="10.2040964"><ele>471.7142857142858</ele><time>2026-04-27T10:33:04.089Z</time></trkpt><trkpt lat="32.8820618" lon="10.2040309"><ele>471.85714285714283</ele><time>2026-04-27T10:33:05.079Z</time></trkpt><trkpt lat="32.8821082" lon="10.2039734"><ele>472.0</ele><time>2026-04-27T10:33:06.081Z</time></trkpt><trkpt lat="32.8821616" lon="10.2039143"><ele>472.00000000000006</ele><time>2026-04-27T10:33:07.068Z</time></trkpt><trkpt lat="32.882212" lon="10.2038533"><ele>472.0</ele><time>2026-04-27T10:33:08.095Z</time></trkpt><trkpt lat="32.8822682" lon="10.2037993"><ele>472.0</ele><time>2026-04-27T10:33:09.096Z</time></trkpt><trkpt lat="32.8823201" lon="10.2037528"><ele>472.0</ele><time>2026-04-27T10:33:10.05Z</time></trkpt><trkpt lat="32.8823766" lon="10.2037111"><ele>472.00000000000006</ele><time>2026-04-27T10:33:11.095Z</time></trkpt><trkpt lat="32.882498" lon="10.203664"><ele>472.0</ele><time>2026-04-27T10:33:13.067Z</time></trkpt><trkpt lat="32.8826173" lon="10.2036443"><ele>471.6666666666667</ele><time>2026-04-27T10:33:15.066Z</time></trkpt><trkpt lat="32.8827233" lon="10.2035687"><ele>471.33333333333337</ele><time>2026-04-27T10:33:17.085Z</time></trkpt><trkpt lat="32.8827731" lon="10.2035139"><ele>471.0</ele><time>2026-04-27T10:33:18.096Z</time></trkpt><trkpt lat="32.8828224" lon="10.2034573"><ele>470.66666666666663</ele><time>2026-04-27T10:33:19.091Z</time></trkpt><trkpt lat="32.8828761" lon="10.203388"><ele>470.3333333333333</ele><time>2026-04-27T10:33:20.033Z</time></trkpt><trkpt lat="32.8829298" lon="10.2033181"><ele>470.0</ele><time>2026-04-27T10:33:21.083Z</time></trkpt><trkpt lat="32.8829836" lon="10.2032418"><ele>470.0</ele><time>2026-04-27T10:33:22.095Z</time></trkpt><trkpt lat="32.8830308" lon="10.2031685"><ele>469.99999999999994</ele><time>2026-04-27T10:33:23.086Z</time></trkpt><trkpt lat="32.8830733" lon="10.2030949"><ele>470.0</ele><time>2026-04-27T10:33:24.068Z</time></trkpt><trkpt lat="32.8831179" lon="10.2030297"><ele>470.0</ele><time>2026-04-27T10:33:25.073Z</time></trkpt><trkpt lat="32.8831748" lon="10.2029739"><ele>469.99999999999994</ele><time>2026-04-27T10:33:26.069Z</time></trkpt><trkpt lat="32.8832352" lon="10.2029273"><ele>470.0</ele><time>2026-04-27T10:33:27.088Z</time></trkpt><trkpt lat="32.8832967" lon="10.2028808"><ele>470.0</ele><time>2026-04-27T10:33:28.059Z</time></trkpt><trkpt lat="32.8833626" lon="10.2028354"><ele>470.16666666666663</ele><time>2026-04-27T10:33:29.098Z</time></trkpt><trkpt lat="32.8834348" lon="10.2027928"><ele>470.3333333333333</ele><time>2026-04-27T10:33:30.085Z</time></trkpt><trkpt lat="32.8835074" lon="10.2027403"><ele>470.5</ele><time>2026-04-27T10:33:31.063Z</time></trkpt><trkpt lat="32.8835814" lon="10.2026808"><ele>470.66666666666663</ele><time>2026-04-27T10:33:32.083Z</time></trkpt><trkpt lat="32.8836612" lon="10.202628"><ele>470.8333333333333</ele><time>2026-04-27T10:33:33.079Z</time></trkpt><trkpt lat="32.8837329" lon="10.2025693"><ele>471.0</ele><time>2026-04-27T10:33:34.087Z</time></trkpt><trkpt lat="32.8837941" lon="10.2025011"><ele>471.0</ele><time>2026-04-27T10:33:35.03Z</time></trkpt><trkpt lat="32.8838486" lon="10.202423"><ele>471.0</ele><time>2026-04-27T10:33:36.038Z</time></trkpt><trkpt lat="32.8838971" lon="10.2023381"><ele>471.0</ele><time>2026-04-27T10:33:37.058Z</time></trkpt><trkpt lat="32.8839355" lon="10.2022493"><ele>471.0</ele><time>2026-04-27T10:33:38.069Z</time></trkpt><trkpt lat="32.8839891" lon="10.2021732"><ele>471.0</ele><time>2026-04-27T10:33:39.088Z</time></trkpt><trkpt lat="32.8840497" lon="10.2020998"><ele>471.0</ele><time>2026-04-27T10:33:40.046Z</time></trkpt><trkpt lat="32.8841173" lon="10.202019"><ele>470.8</ele><time>2026-04-27T10:33:41.075Z</time></trkpt><trkpt lat="32.8841788" lon="10.2019366"><ele>470.6</ele><time>2026-04-27T10:33:42.056Z</time></trkpt><trkpt lat="32.884241" lon="10.2018609"><ele>470.4</ele><time>2026-04-27T10:33:43.052Z</time></trkpt><trkpt lat="32.8843059" lon="10.201789"><ele>470.2</ele><time>2026-04-27T10:33:44.05Z</time></trkpt><trkpt lat="32.8843819" lon="10.2017221"><ele>470.0</ele><time>2026-04-27T10:33:45.092Z</time></trkpt><trkpt lat="32.8844597" lon="10.2016623"><ele>469.99999999999994</ele><time>2026-04-27T10:33:46.081Z</time></trkpt><trkpt lat="32.8845352" lon="10.2015996"><ele>470.0</ele><time>2026-04-27T10:33:47.094Z</time></trkpt><trkpt lat="32.8846066" lon="10.201546"><ele>470.0</ele><time>2026-04-27T10:33:48.092Z</time></trkpt><trkpt lat="32.8846804" lon="10.2014937"><ele>470.0</ele><time>2026-04-27T10:33:49.083Z</time></trkpt><trkpt lat="32.8847605" lon="10.2014391"><ele>469.99999999999994</ele><time>2026-04-27T10:33:50.056Z</time></trkpt><trkpt lat="32.8848382" lon="10.2013838"><ele>470.0</ele><time>2026-04-27T10:33:51.09Z</time></trkpt><trkpt lat="32.8849076" lon="10.2013227"><ele>469.99999999999994</ele><time>2026-04-27T10:33:52.084Z</time></trkpt><trkpt lat="32.8849622" lon="10.2012492"><ele>470.0</ele><time>2026-04-27T10:33:53.087Z</time></trkpt><trkpt lat="32.885009" lon="10.2011631"><ele>470.0</ele><time>2026-04-27T10:33:54.066Z</time></trkpt><trkpt lat="32.8850388" lon="10.2010741"><ele>470.0</ele><time>2026-04-27T10:33:55.083Z</time></trkpt><trkpt lat="32.8850658" lon="10.2009851"><ele>469.99999999999994</ele><time>2026-04-27T10:33:56.092Z</time></trkpt><trkpt lat="32.8851026" lon="10.2008968"><ele>470.0</ele><time>2026-04-27T10:33:57.097Z</time></trkpt><trkpt lat="32.8851519" lon="10.2008154"><ele>470.16666666666663</ele><time>2026-04-27T10:33:58.076Z</time></trkpt><trkpt lat="32.8852085" lon="10.2007365"><ele>470.3333333333333</ele><time>2026-04-27T10:33:59.09Z</time></trkpt><trkpt lat="32.8852625" lon="10.2006567"><ele>470.5</ele><time>2026-04-27T10:34:00.053Z</time></trkpt><trkpt lat="32.8853164" lon="10.2005766"><ele>470.66666666666663</ele><time>2026-04-27T10:34:01.083Z</time></trkpt><trkpt lat="32.8853671" lon="10.2004965"><ele>470.8333333333333</ele><time>2026-04-27T10:34:02.068Z</time></trkpt><trkpt lat="32.8854118" lon="10.2004173"><ele>471.0</ele><time>2026-04-27T10:34:03.097Z</time></trkpt><trkpt lat="32.8854551" lon="10.2003325"><ele>470.4</ele><time>2026-04-27T10:34:04.091Z</time></trkpt><trkpt lat="32.8855049" lon="10.2002425"><ele>469.8</ele><time>2026-04-27T10:34:05.101Z</time></trkpt><trkpt lat="32.885562" lon="10.2001524"><ele>469.19999999999993</ele><time>2026-04-27T10:34:06.086Z</time></trkpt><trkpt lat="32.8856175" lon="10.2000636"><ele>468.59999999999997</ele><time>2026-04-27T10:34:07.068Z</time></trkpt><trkpt lat="32.885669" lon="10.1999741"><ele>468.0</ele><time>2026-04-27T10:34:08.074Z</time></trkpt><trkpt lat="32.8857276" lon="10.1998777"><ele>468.2</ele><time>2026-04-27T10:34:09.085Z</time></trkpt><trkpt lat="32.8857832" lon="10.1997749"><ele>468.4</ele><time>2026-04-27T10:34:10.068Z</time></trkpt><trkpt lat="32.8858358" lon="10.199664"><ele>468.59999999999997</ele><time>2026-04-27T10:34:11.089Z</time></trkpt><trkpt lat="32.8858735" lon="10.1995408"><ele>468.79999999999995</ele><time>2026-04-27T10:34:12.075Z</time></trkpt><trkpt lat="32.8859075" lon="10.1994162"><ele>469.0</ele><time>2026-04-27T10:34:13.072Z</time></trkpt><trkpt lat="32.885939" lon="10.1992967"><ele>468.79999999999995</ele><time>2026-04-27T10:34:14.04Z</time></trkpt><trkpt lat="32.8859661" lon="10.1991722"><ele>468.59999999999997</ele><time>2026-04-27T10:34:15.094Z</time></trkpt><trkpt lat="32.8859993" lon="10.1990586"><ele>468.4</ele><time>2026-04-27T10:34:16.1Z</time></trkpt><trkpt lat="32.8860358" lon="10.1989475"><ele>468.2</ele><time>2026-04-27T10:34:17.082Z</time></trkpt><trkpt lat="32.8860723" lon="10.198832"><ele>468.0</ele><time>2026-04-27T10:34:18.053Z</time></trkpt><trkpt lat="32.8861001" lon="10.1987114"><ele>468.0</ele><time>2026-04-27T10:34:19.085Z</time></trkpt><trkpt lat="32.8861177" lon="10.1985979"><ele>467.99999999999994</ele><time>2026-04-27T10:34:20.059Z</time></trkpt><trkpt lat="32.8861346" lon="10.198482"><ele>467.99999999999994</ele><time>2026-04-27T10:34:21.088Z</time></trkpt><trkpt lat="32.8861444" lon="10.1983707"><ele>468.0</ele><time>2026-04-27T10:34:22.068Z</time></trkpt><trkpt lat="32.8861476" lon="10.1982682"><ele>468.0</ele><time>2026-04-27T10:34:23.088Z</time></trkpt><trkpt lat="32.8861546" lon="10.1981775"><ele>468.8333333333333</ele><time>2026-04-27T10:34:24.076Z</time></trkpt><trkpt lat="32.8861619" lon="10.1980805"><ele>469.66666666666663</ele><time>2026-04-27T10:34:25.078Z</time></trkpt><trkpt lat="32.8861732" lon="10.1979925"><ele>470.5</ele><time>2026-04-27T10:34:26.104Z</time></trkpt><trkpt lat="32.8861824" lon="10.1978958"><ele>471.3333333333333</ele><time>2026-04-27T10:34:27.063Z</time></trkpt><trkpt lat="32.8861772" lon="10.1977997"><ele>472.16666666666663</ele><time>2026-04-27T10:34:28.082Z</time></trkpt><trkpt lat="32.8861616" lon="10.1977153"><ele>473.0</ele><time>2026-04-27T10:34:29.03Z</time></trkpt><trkpt lat="32.8861355" lon="10.1976269"><ele>472.99999999999994</ele><time>2026-04-27T10:34:30.072Z</time></trkpt><trkpt lat="32.8861048" lon="10.1975419"><ele>473.0</ele><time>2026-04-27T10:34:31.066Z</time></trkpt><trkpt lat="32.8860766" lon="10.1974531"><ele>473.0</ele><time>2026-04-27T10:34:32.091Z</time></trkpt><trkpt lat="32.886049" lon="10.1973651"><ele>473.0</ele><time>2026-04-27T10:34:33.075Z</time></trkpt><trkpt lat="32.8860199" lon="10.1972757"><ele>472.99999999999994</ele><time>2026-04-27T10:34:34.061Z</time></trkpt><trkpt lat="32.8859905" lon="10.1971902"><ele>473.0</ele><time>2026-04-27T10:34:35.064Z</time></trkpt><trkpt lat="32.8859691" lon="10.1970963"><ele>473.57142857142856</ele><time>2026-04-27T10:34:36.097Z</time></trkpt><trkpt lat="32.8859627" lon="10.19701"><ele>474.1428571428571</ele><time>2026-04-27T10:34:37.064Z</time></trkpt><trkpt lat="32.8859523" lon="10.1969295"><ele>474.71428571428567</ele><time>2026-04-27T10:34:38.064Z</time></trkpt><trkpt lat="32.8859335" lon="10.1968568"><ele>475.2857142857143</ele><time>2026-04-27T10:34:39.078Z</time></trkpt><trkpt lat="32.8859051" lon="10.1967852"><ele>475.8571428571428</ele><time>2026-04-27T10:34:40.076Z</time></trkpt><trkpt lat="32.8858628" lon="10.196714"><ele>476.4285714285714</ele><time>2026-04-27T10:34:41.099Z</time></trkpt><trkpt lat="32.8858092" lon="10.1966342"><ele>477.0</ele><time>2026-04-27T10:34:42.09Z</time></trkpt><trkpt lat="32.8857604" lon="10.1965508"><ele>477.6666666666667</ele><time>2026-04-27T10:34:43.07Z</time></trkpt><trkpt lat="32.8857154" lon="10.1964721"><ele>478.33333333333337</ele><time>2026-04-27T10:34:44.083Z</time></trkpt><trkpt lat="32.8856917" lon="10.1963814"><ele>479.0</ele><time>2026-04-27T10:34:45.095Z</time></trkpt><trkpt lat="32.8856732" lon="10.1962896"><ele>479.6666666666667</ele><time>2026-04-27T10:34:46.11Z</time></trkpt><trkpt lat="32.885662" lon="10.1962027"><ele>480.33333333333337</ele><time>2026-04-27T10:34:47.066Z</time></trkpt><trkpt lat="32.8856475" lon="10.1961125"><ele>481.0</ele><time>2026-04-27T10:34:48.071Z</time></trkpt><trkpt lat="32.8856331" lon="10.1960219"><ele>481.00000000000006</ele><time>2026-04-27T10:34:49.09Z</time></trkpt><trkpt lat="32.8856135" lon="10.1959358"><ele>481.0</ele><time>2026-04-27T10:34:50.095Z</time></trkpt><trkpt lat="32.8855943" lon="10.195864"><ele>481.0</ele><time>2026-04-27T10:34:51.078Z</time></trkpt><trkpt lat="32.8855651" lon="10.1957914"><ele>481.0</ele><time>2026-04-27T10:34:52.078Z</time></trkpt><trkpt lat="32.8855243" lon="10.1956484"><ele>481.00000000000006</ele><time>2026-04-27T10:34:54.098Z</time></trkpt><trkpt lat="32.8855197" lon="10.1955706"><ele>481.0</ele><time>2026-04-27T10:34:55.088Z</time></trkpt><trkpt lat="32.8855292" lon="10.1954926"><ele>481.1666666666667</ele><time>2026-04-27T10:34:56.094Z</time></trkpt><trkpt lat="32.885537" lon="10.1954078"><ele>481.33333333333337</ele><time>2026-04-27T10:34:57.081Z</time></trkpt><trkpt lat="32.8855496" lon="10.1953215"><ele>481.5</ele><time>2026-04-27T10:34:58.073Z</time></trkpt><trkpt lat="32.8855656" lon="10.1952241"><ele>481.66666666666663</ele><time>2026-04-27T10:34:59.085Z</time></trkpt><trkpt lat="32.8855796" lon="10.195129"><ele>481.8333333333333</ele><time>2026-04-27T10:35:00.077Z</time></trkpt><trkpt lat="32.8856129" lon="10.1950381"><ele>482.0</ele><time>2026-04-27T10:35:01.091Z</time></trkpt><trkpt lat="32.885651" lon="10.1949458"><ele>481.99999999999994</ele><time>2026-04-27T10:35:02.083Z</time></trkpt><trkpt lat="32.8856843" lon="10.1948553"><ele>482.0</ele><time>2026-04-27T10:35:03.091Z</time></trkpt><trkpt lat="32.8857212" lon="10.1947543"><ele>482.0</ele><time>2026-04-27T10:35:04.062Z</time></trkpt><trkpt lat="32.8857574" lon="10.1946558"><ele>482.0</ele><time>2026-04-27T10:35:05.102Z</time></trkpt><trkpt lat="32.8857919" lon="10.1945572"><ele>481.99999999999994</ele><time>2026-04-27T10:35:06.086Z</time></trkpt><trkpt lat="32.8858179" lon="10.1944608"><ele>482.0</ele><time>2026-04-27T10:35:07.08Z</time></trkpt><trkpt lat="32.8858264" lon="10.1943643"><ele>481.28571428571433</ele><time>2026-04-27T10:35:08.084Z</time></trkpt><trkpt lat="32.8858228" lon="10.1942688"><ele>480.5714285714286</ele><time>2026-04-27T10:35:09.096Z</time></trkpt><trkpt lat="32.8858047" lon="10.1941766"><ele>479.8571428571429</ele><time>2026-04-27T10:35:10.086Z</time></trkpt><trkpt lat="32.8857819" lon="10.1940877"><ele>479.1428571428571</ele><time>2026-04-27T10:35:11.1Z</time></trkpt><trkpt lat="32.8857518" lon="10.1940074"><ele>478.4285714285714</ele><time>2026-04-27T10:35:12.097Z</time></trkpt><trkpt lat="32.8857401" lon="10.1939251"><ele>477.71428571428567</ele><time>2026-04-27T10:35:13.08Z</time></trkpt><trkpt lat="32.8857494" lon="10.1938478"><ele>477.0</ele><time>2026-04-27T10:35:14.091Z</time></trkpt><trkpt lat="32.885753" lon="10.1937564"><ele>476.5</ele><time>2026-04-27T10:35:15.09Z</time></trkpt><trkpt lat="32.8857451" lon="10.1936611"><ele>476.0</ele><time>2026-04-27T10:35:16.053Z</time></trkpt><trkpt lat="32.8857331" lon="10.1935798"><ele>475.5</ele><time>2026-04-27T10:35:17.084Z</time></trkpt><trkpt lat="32.8857304" lon="10.1934958"><ele>475.0</ele><time>2026-04-27T10:35:18.085Z</time></trkpt><trkpt lat="32.8857223" lon="10.1934153"><ele>474.5</ele><time>2026-04-27T10:35:19.087Z</time></trkpt><trkpt lat="32.8857121" lon="10.1933324"><ele>474.0</ele><time>2026-04-27T10:35:20.088Z</time></trkpt><trkpt lat="32.8856871" lon="10.193211"><ele>474.0</ele><time>2026-04-27T10:35:22.086Z</time></trkpt><trkpt lat="32.8856621" lon="10.1931298"><ele>474.0</ele><time>2026-04-27T10:35:24.089Z</time></trkpt><trkpt lat="32.885642" lon="10.1930511"><ele>474.0</ele><time>2026-04-27T10:35:29.081Z</time></trkpt><trkpt lat="32.8856105" lon="10.1929808"><ele>474.0</ele><time>2026-04-27T10:35:34.074Z</time></trkpt><trkpt lat="32.885575" lon="10.1929156"><ele>474.0</ele><time>2026-04-27T10:35:36.065Z</time></trkpt><trkpt lat="32.8854824" lon="10.1928081"><ele>474.0</ele><time>2026-04-27T10:35:38.068Z</time></trkpt><trkpt lat="32.8854219" lon="10.1927509"><ele>474.0</ele><time>2026-04-27T10:35:39.076Z</time></trkpt><trkpt lat="32.8853479" lon="10.1926749"><ele>474.0</ele><time>2026-04-27T10:35:40.087Z</time></trkpt><trkpt lat="32.8852776" lon="10.1926056"><ele>474.0</ele><time>2026-04-27T10:35:41.075Z</time></trkpt><trkpt lat="32.8852195" lon="10.1925316"><ele>474.0</ele><time>2026-04-27T10:35:42.082Z</time></trkpt><trkpt lat="32.8851554" lon="10.1924559"><ele>474.0</ele><time>2026-04-27T10:35:43.074Z</time></trkpt><trkpt lat="32.8851071" lon="10.1923702"><ele>472.79999999999995</ele><time>2026-04-27T10:35:44.062Z</time></trkpt><trkpt lat="32.885062" lon="10.192277"><ele>471.59999999999997</ele><time>2026-04-27T10:35:45.093Z</time></trkpt><trkpt lat="32.8850296" lon="10.1921715"><ele>470.4</ele><time>2026-04-27T10:35:46.096Z</time></trkpt><trkpt lat="32.8849984" lon="10.1920604"><ele>469.2</ele><time>2026-04-27T10:35:47.082Z</time></trkpt><trkpt lat="32.8849565" lon="10.1919486"><ele>468.0</ele><time>2026-04-27T10:35:48.084Z</time></trkpt><trkpt lat="32.8849127" lon="10.1918474"><ele>468.0</ele><time>2026-04-27T10:35:49.089Z</time></trkpt><trkpt lat="32.8848604" lon="10.1917393"><ele>467.99999999999994</ele><time>2026-04-27T10:35:50.073Z</time></trkpt><trkpt lat="32.8848085" lon="10.1916308"><ele>467.99999999999994</ele><time>2026-04-27T10:35:51.079Z</time></trkpt><trkpt lat="32.884767" lon="10.1915302"><ele>468.0</ele><time>2026-04-27T10:35:52.064Z</time></trkpt><trkpt lat="32.8847332" lon="10.1914287"><ele>468.0</ele><time>2026-04-27T10:35:53.082Z</time></trkpt><trkpt lat="32.8847027" lon="10.191336"><ele>467.5</ele><time>2026-04-27T10:35:54.086Z</time></trkpt><trkpt lat="32.8846667" lon="10.1912472"><ele>467.0</ele><time>2026-04-27T10:35:55.087Z</time></trkpt><trkpt lat="32.8846271" lon="10.1911561"><ele>466.5</ele><time>2026-04-27T10:35:56.082Z</time></trkpt><trkpt lat="32.8845807" lon="10.1910643"><ele>466.0</ele><time>2026-04-27T10:35:57.065Z</time></trkpt><trkpt lat="32.8845333" lon="10.1909804"><ele>465.5</ele><time>2026-04-27T10:35:58.086Z</time></trkpt><trkpt lat="32.8844846" lon="10.1908889"><ele>465.0</ele><time>2026-04-27T10:35:59.058Z</time></trkpt><trkpt lat="32.8844443" lon="10.1907912"><ele>465.0</ele><time>2026-04-27T10:36:00.087Z</time></trkpt><trkpt lat="32.8844206" lon="10.1906856"><ele>465.0</ele><time>2026-04-27T10:36:01.074Z</time></trkpt><trkpt lat="32.8844032" lon="10.1905898"><ele>465.0</ele><time>2026-04-27T10:36:02.066Z</time></trkpt><trkpt lat="32.8843911" lon="10.1904965"><ele>465.0</ele><time>2026-04-27T10:36:03.087Z</time></trkpt><trkpt lat="32.8843836" lon="10.1904136"><ele>465.0</ele><time>2026-04-27T10:36:04.076Z</time></trkpt><trkpt lat="32.8843824" lon="10.1903316"><ele>465.0</ele><time>2026-04-27T10:36:05.082Z</time></trkpt><trkpt lat="32.8843742" lon="10.1902473"><ele>465.0</ele><time>2026-04-27T10:36:06.094Z</time></trkpt><trkpt lat="32.8843126" lon="10.1901043"><ele>465.0</ele><time>2026-04-27T10:36:08.094Z</time></trkpt><trkpt lat="32.8842642" lon="10.1900276"><ele>465.0</ele><time>2026-04-27T10:36:09.103Z</time></trkpt><trkpt lat="32.8842139" lon="10.1899684"><ele>465.0</ele><time>2026-04-27T10:36:10.088Z</time></trkpt><trkpt lat="32.8841815" lon="10.1899032"><ele>465.0</ele><time>2026-04-27T10:36:11.071Z</time></trkpt><trkpt lat="32.8841268" lon="10.1897691"><ele>464.85714285714283</ele><time>2026-04-27T10:36:13.074Z</time></trkpt><trkpt lat="32.8840916" lon="10.1896936"><ele>464.7142857142858</ele><time>2026-04-27T10:36:14.064Z</time></trkpt><trkpt lat="32.8840576" lon="10.1896241"><ele>464.5714285714286</ele><time>2026-04-27T10:36:15.081Z</time></trkpt><trkpt lat="32.8840291" lon="10.1895553"><ele>464.42857142857144</ele><time>2026-04-27T10:36:16.071Z</time></trkpt><trkpt lat="32.8840062" lon="10.1894815"><ele>464.28571428571433</ele><time>2026-04-27T10:36:17.069Z</time></trkpt><trkpt lat="32.8839809" lon="10.1894015"><ele>464.1428571428572</ele><time>2026-04-27T10:36:18.094Z</time></trkpt><trkpt lat="32.8839513" lon="10.1893096"><ele>464.00000000000006</ele><time>2026-04-27T10:36:19.078Z</time></trkpt><trkpt lat="32.8839174" lon="10.1892202"><ele>463.99999999999994</ele><time>2026-04-27T10:36:20.075Z</time></trkpt><trkpt lat="32.8838826" lon="10.1891323"><ele>464.0</ele><time>2026-04-27T10:36:21.077Z</time></trkpt><trkpt lat="32.8838421" lon="10.1890388"><ele>464.0</ele><time>2026-04-27T10:36:22.083Z</time></trkpt><trkpt lat="32.8837983" lon="10.1889512"><ele>464.0</ele><time>2026-04-27T10:36:23.084Z</time></trkpt><trkpt lat="32.8837645" lon="10.188869"><ele>463.99999999999994</ele><time>2026-04-27T10:36:24.069Z</time></trkpt><trkpt lat="32.8837341" lon="10.188788"><ele>464.0</ele><time>2026-04-27T10:36:25.088Z</time></trkpt><trkpt lat="32.8837053" lon="10.1887061"><ele>463.99999999999994</ele><time>2026-04-27T10:36:26.075Z</time></trkpt><trkpt lat="32.8836841" lon="10.1886181"><ele>464.0</ele><time>2026-04-27T10:36:27.099Z</time></trkpt><trkpt lat="32.8836631" lon="10.1885273"><ele>464.0</ele><time>2026-04-27T10:36:28.081Z</time></trkpt><trkpt lat="32.8836438" lon="10.1884362"><ele>464.0</ele><time>2026-04-27T10:36:29.047Z</time></trkpt><trkpt lat="32.8836193" lon="10.1883481"><ele>463.99999999999994</ele><time>2026-04-27T10:36:30.052Z</time></trkpt><trkpt lat="32.8835862" lon="10.1882683"><ele>464.0</ele><time>2026-04-27T10:36:31.051Z</time></trkpt><trkpt lat="32.8835501" lon="10.1881996"><ele>464.00000000000006</ele><time>2026-04-27T10:36:32.079Z</time></trkpt><trkpt lat="32.8835102" lon="10.1881269"><ele>464.0</ele><time>2026-04-27T10:36:33.082Z</time></trkpt><trkpt lat="32.8834677" lon="10.1880448"><ele>464.00000000000006</ele><time>2026-04-27T10:36:34.067Z</time></trkpt><trkpt lat="32.8834269" lon="10.1879691"><ele>464.00000000000006</ele><time>2026-04-27T10:36:35.093Z</time></trkpt><trkpt lat="32.8833887" lon="10.1879014"><ele>464.0</ele><time>2026-04-27T10:36:36.089Z</time></trkpt><trkpt lat="32.8833594" lon="10.1878269"><ele>464.00000000000006</ele><time>2026-04-27T10:36:37.083Z</time></trkpt><trkpt lat="32.883338" lon="10.1877481"><ele>464.00000000000006</ele><time>2026-04-27T10:36:38.089Z</time></trkpt><trkpt lat="32.8833241" lon="10.1876641"><ele>463.99999999999994</ele><time>2026-04-27T10:36:39.045Z</time></trkpt><trkpt lat="32.8833084" lon="10.1875778"><ele>464.0</ele><time>2026-04-27T10:36:40.087Z</time></trkpt><trkpt lat="32.8832885" lon="10.1874861"><ele>464.0</ele><time>2026-04-27T10:36:41.08Z</time></trkpt><trkpt lat="32.8832509" lon="10.187403"><ele>464.0</ele><time>2026-04-27T10:36:42.07Z</time></trkpt><trkpt lat="32.8832105" lon="10.1873208"><ele>463.99999999999994</ele><time>2026-04-27T10:36:43.082Z</time></trkpt><trkpt lat="32.8831701" lon="10.1872428"><ele>464.0</ele><time>2026-04-27T10:36:44.057Z</time></trkpt><trkpt lat="32.8831269" lon="10.1871642"><ele>463.49999999999994</ele><time>2026-04-27T10:36:45.091Z</time></trkpt><trkpt lat="32.8830763" lon="10.1870919"><ele>463.0</ele><time>2026-04-27T10:36:46.098Z</time></trkpt><trkpt lat="32.8830318" lon="10.1870208"><ele>462.5</ele><time>2026-04-27T10:36:47.047Z</time></trkpt><trkpt lat="32.8829835" lon="10.1869461"><ele>462.0</ele><time>2026-04-27T10:36:48.101Z</time></trkpt><trkpt lat="32.8829335" lon="10.1868759"><ele>461.49999999999994</ele><time>2026-04-27T10:36:49.1Z</time></trkpt><trkpt lat="32.8828868" lon="10.1868019"><ele>461.0</ele><time>2026-04-27T10:36:50.043Z</time></trkpt><trkpt lat="32.8828424" lon="10.1867297"><ele>461.0</ele><time>2026-04-27T10:36:51.085Z</time></trkpt><trkpt lat="32.8828021" lon="10.1866514"><ele>461.00000000000006</ele><time>2026-04-27T10:36:52.082Z</time></trkpt><trkpt lat="32.8827787" lon="10.1865634"><ele>461.0</ele><time>2026-04-27T10:36:53.072Z</time></trkpt><trkpt lat="32.8827578" lon="10.1864702"><ele>461.0</ele><time>2026-04-27T10:36:54.07Z</time></trkpt><trkpt lat="32.8827438" lon="10.186384"><ele>461.00000000000006</ele><time>2026-04-27T10:36:55.083Z</time></trkpt><trkpt lat="32.8827274" lon="10.1863026"><ele>461.0</ele><time>2026-04-27T10:36:56.098Z</time></trkpt><trkpt lat="32.8826991" lon="10.1862338"><ele>461.0</ele><time>2026-04-27T10:36:57.099Z</time></trkpt><trkpt lat="32.8826361" lon="10.1861274"><ele>461.0</ele><time>2026-04-27T10:36:59.065Z</time></trkpt><trkpt lat="32.8825783" lon="10.1860851"><ele>461.0</ele><time>2026-04-27T10:37:00.062Z</time></trkpt><trkpt lat="32.8825031" lon="10.1860314"><ele>461.0</ele><time>2026-04-27T10:37:01.07Z</time></trkpt><trkpt lat="32.8824149" lon="10.1859737"><ele>461.0</ele><time>2026-04-27T10:37:02.077Z</time></trkpt><trkpt lat="32.8823387" lon="10.1859017"><ele>461.0</ele><time>2026-04-27T10:37:03.089Z</time></trkpt><trkpt lat="32.8822636" lon="10.1858142"><ele>461.0</ele><time>2026-04-27T10:37:04.058Z</time></trkpt><trkpt lat="32.8822048" lon="10.1857163"><ele>461.0</ele><time>2026-04-27T10:37:05.097Z</time></trkpt><trkpt lat="32.8821407" lon="10.1856181"><ele>461.0</ele><time>2026-04-27T10:37:06.089Z</time></trkpt><trkpt lat="32.8820781" lon="10.1855306"><ele>461.0</ele><time>2026-04-27T10:37:07.092Z</time></trkpt><trkpt lat="32.8820163" lon="10.1854358"><ele>461.0</ele><time>2026-04-27T10:37:08.078Z</time></trkpt><trkpt lat="32.8819548" lon="10.18534"><ele>460.99999999999994</ele><time>2026-04-27T10:37:09.072Z</time></trkpt><trkpt lat="32.8818927" lon="10.1852551"><ele>461.0</ele><time>2026-04-27T10:37:10.088Z</time></trkpt><trkpt lat="32.8818269" lon="10.1851829"><ele>461.0</ele><time>2026-04-27T10:37:11.088Z</time></trkpt><trkpt lat="32.8817572" lon="10.1851244"><ele>461.0</ele><time>2026-04-27T10:37:12.082Z</time></trkpt><trkpt lat="32.8816922" lon="10.185066"><ele>460.99999999999994</ele><time>2026-04-27T10:37:13.08Z</time></trkpt><trkpt lat="32.8816276" lon="10.1849956"><ele>461.0</ele><time>2026-04-27T10:37:14.076Z</time></trkpt><trkpt lat="32.8815756" lon="10.1849162"><ele>460.66666666666663</ele><time>2026-04-27T10:37:15.094Z</time></trkpt><trkpt lat="32.8815305" lon="10.1848301"><ele>460.3333333333333</ele><time>2026-04-27T10:37:16.085Z</time></trkpt><trkpt lat="32.8814852" lon="10.1847396"><ele>460.0</ele><time>2026-04-27T10:37:17.056Z</time></trkpt><trkpt lat="32.8814442" lon="10.1846607"><ele>459.66666666666663</ele><time>2026-04-27T10:37:18.082Z</time></trkpt><trkpt lat="32.8814141" lon="10.1845767"><ele>459.3333333333333</ele><time>2026-04-27T10:37:19.038Z</time></trkpt><trkpt lat="32.8813913" lon="10.1844855"><ele>459.0</ele><time>2026-04-27T10:37:20.071Z</time></trkpt><trkpt lat="32.8813768" lon="10.1843872"><ele>459.0</ele><time>2026-04-27T10:37:21.094Z</time></trkpt><trkpt lat="32.8813614" lon="10.1842929"><ele>459.0</ele><time>2026-04-27T10:37:22.072Z</time></trkpt><trkpt lat="32.8813419" lon="10.1842041"><ele>459.0</ele><time>2026-04-27T10:37:23.078Z</time></trkpt><trkpt lat="32.8813099" lon="10.1841156"><ele>459.0</ele><time>2026-04-27T10:37:24.05Z</time></trkpt><trkpt lat="32.8812915" lon="10.1840374"><ele>459.0</ele><time>2026-04-27T10:37:25.089Z</time></trkpt><trkpt lat="32.8812781" lon="10.1839608"><ele>459.0</ele><time>2026-04-27T10:37:26.082Z</time></trkpt><trkpt lat="32.8813049" lon="10.1838054"><ele>459.0</ele><time>2026-04-27T10:37:28.09Z</time></trkpt><trkpt lat="32.8813344" lon="10.1837083"><ele>459.0</ele><time>2026-04-27T10:37:29.077Z</time></trkpt><trkpt lat="32.8813699" lon="10.1836058"><ele>459.0</ele><time>2026-04-27T10:37:30.085Z</time></trkpt><trkpt lat="32.8814056" lon="10.1835086"><ele>459.0</ele><time>2026-04-27T10:37:31.072Z</time></trkpt><trkpt lat="32.8814449" lon="10.1834066"><ele>459.0</ele><time>2026-04-27T10:37:32.08Z</time></trkpt><trkpt lat="32.8814777" lon="10.18331"><ele>459.0</ele><time>2026-04-27T10:37:33.07Z</time></trkpt><trkpt lat="32.881506" lon="10.1832167"><ele>459.0</ele><time>2026-04-27T10:37:34.055Z</time></trkpt><trkpt lat="32.8815459" lon="10.1831209"><ele>459.0</ele><time>2026-04-27T10:37:35.079Z</time></trkpt><trkpt lat="32.8815853" lon="10.1830236"><ele>459.0</ele><time>2026-04-27T10:37:36.08Z</time></trkpt><trkpt lat="32.8816258" lon="10.1829266"><ele>459.0</ele><time>2026-04-27T10:37:37.081Z</time></trkpt><trkpt lat="32.8816638" lon="10.1828319"><ele>459.0</ele><time>2026-04-27T10:37:38.065Z</time></trkpt><trkpt lat="32.881701" lon="10.1827346"><ele>458.8333333333333</ele><time>2026-04-27T10:37:39.091Z</time></trkpt><trkpt lat="32.881734" lon="10.1826412"><ele>458.66666666666663</ele><time>2026-04-27T10:37:40.075Z</time></trkpt><trkpt lat="32.8817647" lon="10.1825455"><ele>458.5</ele><time>2026-04-27T10:37:41.064Z</time></trkpt><trkpt lat="32.8817911" lon="10.1824528"><ele>458.3333333333333</ele><time>2026-04-27T10:37:42.059Z</time></trkpt><trkpt lat="32.8818208" lon="10.1823641"><ele>458.16666666666663</ele><time>2026-04-27T10:37:43.068Z</time></trkpt><trkpt lat="32.8818465" lon="10.1822829"><ele>458.0</ele><time>2026-04-27T10:37:44.055Z</time></trkpt><trkpt lat="32.881866" lon="10.1821914"><ele>458.49999999999994</ele><time>2026-04-27T10:37:45.082Z</time></trkpt><trkpt lat="32.8818876" lon="10.1820997"><ele>459.0</ele><time>2026-04-27T10:37:46.078Z</time></trkpt><trkpt lat="32.8819046" lon="10.1820011"><ele>459.5</ele><time>2026-04-27T10:37:47.067Z</time></trkpt><trkpt lat="32.8819161" lon="10.1819056"><ele>460.0</ele><time>2026-04-27T10:37:48.079Z</time></trkpt><trkpt lat="32.8819135" lon="10.1817888"><ele>460.49999999999994</ele><time>2026-04-27T10:37:49.069Z</time></trkpt><trkpt lat="32.8819105" lon="10.1816766"><ele>461.0</ele><time>2026-04-27T10:37:50.071Z</time></trkpt><trkpt lat="32.8819016" lon="10.1815638"><ele>461.20000000000005</ele><time>2026-04-27T10:37:51.031Z</time></trkpt><trkpt lat="32.8818909" lon="10.1814509"><ele>461.40000000000003</ele><time>2026-04-27T10:37:52.037Z</time></trkpt><trkpt lat="32.8818837" lon="10.1813387"><ele>461.6</ele><time>2026-04-27T10:37:53.076Z</time></trkpt><trkpt lat="32.8818773" lon="10.1812231"><ele>461.8</ele><time>2026-04-27T10:37:54.044Z</time></trkpt><trkpt lat="32.8818686" lon="10.1811134"><ele>462.0</ele><time>2026-04-27T10:37:55.08Z</time></trkpt><trkpt lat="32.8818588" lon="10.1810094"><ele>462.0</ele><time>2026-04-27T10:37:56.075Z</time></trkpt><trkpt lat="32.8818501" lon="10.1809152"><ele>462.0</ele><time>2026-04-27T10:37:57.075Z</time></trkpt><trkpt lat="32.8818429" lon="10.1808235"><ele>462.0</ele><time>2026-04-27T10:37:58.083Z</time></trkpt><trkpt lat="32.8818417" lon="10.1807277"><ele>462.0</ele><time>2026-04-27T10:37:59.077Z</time></trkpt><trkpt lat="32.8818378" lon="10.1806318"><ele>462.0</ele><time>2026-04-27T10:38:00.093Z</time></trkpt><trkpt lat="32.8818336" lon="10.1805397"><ele>462.0</ele><time>2026-04-27T10:38:01.055Z</time></trkpt><trkpt lat="32.881828" lon="10.1804405"><ele>461.6666666666667</ele><time>2026-04-27T10:38:02.086Z</time></trkpt><trkpt lat="32.8818195" lon="10.1803413"><ele>461.33333333333337</ele><time>2026-04-27T10:38:03.087Z</time></trkpt><trkpt lat="32.8818048" lon="10.1802455"><ele>461.0</ele><time>2026-04-27T10:38:04.077Z</time></trkpt><trkpt lat="32.8818031" lon="10.1801568"><ele>460.6666666666667</ele><time>2026-04-27T10:38:05.083Z</time></trkpt><trkpt lat="32.8818067" lon="10.1800664"><ele>460.33333333333337</ele><time>2026-04-27T10:38:06.09Z</time></trkpt><trkpt lat="32.8818156" lon="10.1799776"><ele>460.0</ele><time>2026-04-27T10:38:07.085Z</time></trkpt><trkpt lat="32.8818378" lon="10.179895"><ele>459.1666666666667</ele><time>2026-04-27T10:38:08.091Z</time></trkpt><trkpt lat="32.8818679" lon="10.1798089"><ele>458.33333333333337</ele><time>2026-04-27T10:38:09.074Z</time></trkpt><trkpt lat="32.8818973" lon="10.179728"><ele>457.5</ele><time>2026-04-27T10:38:10.072Z</time></trkpt><trkpt lat="32.8819336" lon="10.1796373"><ele>456.66666666666663</ele><time>2026-04-27T10:38:11.072Z</time></trkpt><trkpt lat="32.8819716" lon="10.1795456"><ele>455.8333333333333</ele><time>2026-04-27T10:38:12.075Z</time></trkpt><trkpt lat="32.882013" lon="10.1794649"><ele>455.0</ele><time>2026-04-27T10:38:13.061Z</time></trkpt><trkpt lat="32.8820636" lon="10.1793942"><ele>454.99999999999994</ele><time>2026-04-27T10:38:14.077Z</time></trkpt><trkpt lat="32.8821184" lon="10.1793148"><ele>455.0</ele><time>2026-04-27T10:38:15.092Z</time></trkpt><trkpt lat="32.8821763" lon="10.1792411"><ele>455.0</ele><time>2026-04-27T10:38:16.085Z</time></trkpt><trkpt lat="32.8822232" lon="10.1791819"><ele>455.0</ele><time>2026-04-27T10:38:17.076Z</time></trkpt><trkpt lat="32.8822649" lon="10.179119"><ele>454.99999999999994</ele><time>2026-04-27T10:38:18.087Z</time></trkpt><trkpt lat="32.8823208" lon="10.1790042"><ele>455.0</ele><time>2026-04-27T10:38:20.091Z</time></trkpt><trkpt lat="32.8823985" lon="10.1789354"><ele>454.66666666666663</ele><time>2026-04-27T10:38:22.088Z</time></trkpt><trkpt lat="32.8824933" lon="10.1788992"><ele>454.3333333333333</ele><time>2026-04-27T10:38:24.059Z</time></trkpt><trkpt lat="32.8825584" lon="10.1789083"><ele>454.0</ele><time>2026-04-27T10:38:25.083Z</time></trkpt><trkpt lat="32.8826264" lon="10.178911"><ele>453.66666666666663</ele><time>2026-04-27T10:38:26.083Z</time></trkpt><trkpt lat="32.8826951" lon="10.1788992"><ele>453.3333333333333</ele><time>2026-04-27T10:38:27.078Z</time></trkpt><trkpt lat="32.8828037" lon="10.1788638"><ele>453.0</ele><time>2026-04-27T10:38:29.066Z</time></trkpt><trkpt lat="32.8828876" lon="10.1787815"><ele>453.6666666666667</ele><time>2026-04-27T10:38:31.061Z</time></trkpt><trkpt lat="32.8829505" lon="10.1786616"><ele>454.33333333333337</ele><time>2026-04-27T10:38:33.088Z</time></trkpt><trkpt lat="32.883017" lon="10.1785437"><ele>455.0</ele><time>2026-04-27T10:38:35.078Z</time></trkpt><trkpt lat="32.8830591" lon="10.1784837"><ele>455.6666666666667</ele><time>2026-04-27T10:38:36.062Z</time></trkpt><trkpt lat="32.8831047" lon="10.1784294"><ele>456.33333333333337</ele><time>2026-04-27T10:38:37.088Z</time></trkpt><trkpt lat="32.8831496" lon="10.1783736"><ele>457.0</ele><time>2026-04-27T10:38:38.087Z</time></trkpt><trkpt lat="32.8832528" lon="10.178309"><ele>457.0</ele><time>2026-04-27T10:38:40.052Z</time></trkpt><trkpt lat="32.8833616" lon="10.1782478"><ele>457.0</ele><time>2026-04-27T10:38:42.102Z</time></trkpt><trkpt lat="32.8834446" lon="10.1781776"><ele>457.0</ele><time>2026-04-27T10:38:44.087Z</time></trkpt><trkpt lat="32.8835297" lon="10.1780806"><ele>457.0</ele><time>2026-04-27T10:38:46.089Z</time></trkpt><trkpt lat="32.8836221" lon="10.1779954"><ele>456.8</ele><time>2026-04-27T10:38:48.084Z</time></trkpt><trkpt lat="32.8837078" lon="10.1778966"><ele>456.6</ele><time>2026-04-27T10:38:50.095Z</time></trkpt><trkpt lat="32.8837925" lon="10.177794"><ele>456.40000000000003</ele><time>2026-04-27T10:38:52.077Z</time></trkpt><trkpt lat="32.8838389" lon="10.1777429"><ele>456.20000000000005</ele><time>2026-04-27T10:38:53.066Z</time></trkpt><trkpt lat="32.8839347" lon="10.1776416"><ele>456.0</ele><time>2026-04-27T10:38:55.085Z</time></trkpt><trkpt lat="32.8839974" lon="10.177586"><ele>456.0</ele><time>2026-04-27T10:38:56.095Z</time></trkpt><trkpt lat="32.8840552" lon="10.1775336"><ele>455.99999999999994</ele><time>2026-04-27T10:38:57.049Z</time></trkpt><trkpt lat="32.8841119" lon="10.1774875"><ele>456.0</ele><time>2026-04-27T10:38:58.092Z</time></trkpt><trkpt lat="32.8841635" lon="10.1774424"><ele>456.0</ele><time>2026-04-27T10:38:59.081Z</time></trkpt><trkpt lat="32.8842168" lon="10.177399"><ele>455.99999999999994</ele><time>2026-04-27T10:39:00.048Z</time></trkpt><trkpt lat="32.8842742" lon="10.1773536"><ele>456.0</ele><time>2026-04-27T10:39:01.09Z</time></trkpt><trkpt lat="32.8843398" lon="10.1773114"><ele>456.0</ele><time>2026-04-27T10:39:02.058Z</time></trkpt><trkpt lat="32.8844056" lon="10.1772701"><ele>455.1666666666667</ele><time>2026-04-27T10:39:03.077Z</time></trkpt><trkpt lat="32.884476" lon="10.1772301"><ele>454.33333333333337</ele><time>2026-04-27T10:39:04.076Z</time></trkpt><trkpt lat="32.8845462" lon="10.1771901"><ele>453.5</ele><time>2026-04-27T10:39:05.076Z</time></trkpt><trkpt lat="32.8846182" lon="10.1771507"><ele>452.6666666666667</ele><time>2026-04-27T10:39:06.077Z</time></trkpt><trkpt lat="32.8846888" lon="10.1771042"><ele>451.83333333333337</ele><time>2026-04-27T10:39:07.078Z</time></trkpt><trkpt lat="32.8847614" lon="10.1770519"><ele>451.0</ele><time>2026-04-27T10:39:08.096Z</time></trkpt><trkpt lat="32.8848303" lon="10.1770049"><ele>451.00000000000006</ele><time>2026-04-27T10:39:09.057Z</time></trkpt><trkpt lat="32.8849043" lon="10.1769543"><ele>451.0</ele><time>2026-04-27T10:39:10.084Z</time></trkpt><trkpt lat="32.8849785" lon="10.1769058"><ele>451.0</ele><time>2026-04-27T10:39:11.084Z</time></trkpt><trkpt lat="32.8850499" lon="10.1768548"><ele>451.0</ele><time>2026-04-27T10:39:12.078Z</time></trkpt><trkpt lat="32.8851175" lon="10.1768058"><ele>451.00000000000006</ele><time>2026-04-27T10:39:13.075Z</time></trkpt><trkpt lat="32.8851809" lon="10.1767484"><ele>451.0</ele><time>2026-04-27T10:39:14.082Z</time></trkpt><trkpt lat="32.8852373" lon="10.1766903"><ele>451.1666666666667</ele><time>2026-04-27T10:39:15.08Z</time></trkpt><trkpt lat="32.8852892" lon="10.1766269"><ele>451.33333333333337</ele><time>2026-04-27T10:39:16.092Z</time></trkpt><trkpt lat="32.8853404" lon="10.1765518"><ele>451.5</ele><time>2026-04-27T10:39:17.081Z</time></trkpt><trkpt lat="32.885386" lon="10.1764722"><ele>451.66666666666663</ele><time>2026-04-27T10:39:18.077Z</time></trkpt><trkpt lat="32.8854192" lon="10.1763818"><ele>451.8333333333333</ele><time>2026-04-27T10:39:19.086Z</time></trkpt><trkpt lat="32.8854515" lon="10.176292"><ele>452.0</ele><time>2026-04-27T10:39:20.072Z</time></trkpt><trkpt lat="32.8854787" lon="10.1762019"><ele>451.66666666666663</ele><time>2026-04-27T10:39:21.086Z</time></trkpt><trkpt lat="32.8855168" lon="10.176112"><ele>451.3333333333333</ele><time>2026-04-27T10:39:22.068Z</time></trkpt><trkpt lat="32.8855452" lon="10.1760239"><ele>451.0</ele><time>2026-04-27T10:39:23.042Z</time></trkpt><trkpt lat="32.8855738" lon="10.17593"><ele>450.66666666666663</ele><time>2026-04-27T10:39:24.027Z</time></trkpt><trkpt lat="32.8856122" lon="10.1758331"><ele>450.3333333333333</ele><time>2026-04-27T10:39:25.08Z</time></trkpt><trkpt lat="32.8856453" lon="10.1757304"><ele>450.0</ele><time>2026-04-27T10:39:26.077Z</time></trkpt><trkpt lat="32.8856734" lon="10.1756191"><ele>450.0</ele><time>2026-04-27T10:39:27.068Z</time></trkpt><trkpt lat="32.8856981" lon="10.1754933"><ele>450.0</ele><time>2026-04-27T10:39:28.085Z</time></trkpt><trkpt lat="32.88572" lon="10.1753607"><ele>450.0</ele><time>2026-04-27T10:39:29.086Z</time></trkpt><trkpt lat="32.8857483" lon="10.1752335"><ele>450.0</ele><time>2026-04-27T10:39:30.091Z</time></trkpt><trkpt lat="32.8857925" lon="10.175109"><ele>450.0</ele><time>2026-04-27T10:39:31.079Z</time></trkpt><trkpt lat="32.8858545" lon="10.1749688"><ele>450.0</ele><time>2026-04-27T10:39:32.045Z</time></trkpt><trkpt lat="32.8859289" lon="10.1748187"><ele>450.0</ele><time>2026-04-27T10:39:33.073Z</time></trkpt><trkpt lat="32.8860054" lon="10.1746748"><ele>450.0</ele><time>2026-04-27T10:39:34.059Z</time></trkpt><trkpt lat="32.8860705" lon="10.174553"><ele>450.0</ele><time>2026-04-27T10:39:35.064Z</time></trkpt><trkpt lat="32.886133" lon="10.1744444"><ele>450.0</ele><time>2026-04-27T10:39:36.079Z</time></trkpt><trkpt lat="32.8861918" lon="10.174348"><ele>450.0</ele><time>2026-04-27T10:39:37.083Z</time></trkpt><trkpt lat="32.8862487" lon="10.1742474"><ele>450.0</ele><time>2026-04-27T10:39:38.077Z</time></trkpt><trkpt lat="32.8863147" lon="10.1741523"><ele>450.0</ele><time>2026-04-27T10:39:39.087Z</time></trkpt><trkpt lat="32.8863818" lon="10.1740693"><ele>450.0</ele><time>2026-04-27T10:39:40.059Z</time></trkpt><trkpt lat="32.8864435" lon="10.1739982"><ele>449.8333333333333</ele><time>2026-04-27T10:39:41.075Z</time></trkpt><trkpt lat="32.886509" lon="10.1739343"><ele>449.66666666666663</ele><time>2026-04-27T10:39:42.067Z</time></trkpt><trkpt lat="32.8865723" lon="10.1738723"><ele>449.5</ele><time>2026-04-27T10:39:43.074Z</time></trkpt><trkpt lat="32.8866317" lon="10.1737985"><ele>449.3333333333333</ele><time>2026-04-27T10:39:44.07Z</time></trkpt><trkpt lat="32.8866817" lon="10.1737198"><ele>449.16666666666663</ele><time>2026-04-27T10:39:45.067Z</time></trkpt><trkpt lat="32.8867293" lon="10.1736465"><ele>449.0</ele><time>2026-04-27T10:39:46.069Z</time></trkpt><trkpt lat="32.8867818" lon="10.1735732"><ele>448.8333333333333</ele><time>2026-04-27T10:39:47.07Z</time></trkpt><trkpt lat="32.8868394" lon="10.1735056"><ele>448.66666666666663</ele><time>2026-04-27T10:39:48.105Z</time></trkpt><trkpt lat="32.8868999" lon="10.1734373"><ele>448.5</ele><time>2026-04-27T10:39:49.079Z</time></trkpt><trkpt lat="32.886958" lon="10.1733668"><ele>448.33333333333337</ele><time>2026-04-27T10:39:50.056Z</time></trkpt><trkpt lat="32.8870185" lon="10.173298"><ele>448.1666666666667</ele><time>2026-04-27T10:39:51.083Z</time></trkpt><trkpt lat="32.8870732" lon="10.173229"><ele>448.0</ele><time>2026-04-27T10:39:52.093Z</time></trkpt><trkpt lat="32.8871228" lon="10.1731492"><ele>448.00000000000006</ele><time>2026-04-27T10:39:53.095Z</time></trkpt><trkpt lat="32.8871723" lon="10.1730745"><ele>448.0</ele><time>2026-04-27T10:39:54.051Z</time></trkpt><trkpt lat="32.887218" lon="10.1730099"><ele>448.0</ele><time>2026-04-27T10:39:55.069Z</time></trkpt><trkpt lat="32.8872648" lon="10.1729456"><ele>448.0</ele><time>2026-04-27T10:39:57.079Z</time></trkpt><trkpt lat="32.8873272" lon="10.1729101"><ele>448.00000000000006</ele><time>2026-04-27T10:41:55.069Z</time></trkpt><trkpt lat="32.8874287" lon="10.1728665"><ele>448.0</ele><time>2026-04-27T10:41:57.078Z</time></trkpt><trkpt lat="32.8874941" lon="10.1728434"><ele>448.0</ele><time>2026-04-27T10:41:58.059Z</time></trkpt><trkpt lat="32.8875927" lon="10.1728218"><ele>447.99999999999994</ele><time>2026-04-27T10:42:00.069Z</time></trkpt><trkpt lat="32.8876809" lon="10.1727818"><ele>447.99999999999994</ele><time>2026-04-27T10:42:02.085Z</time></trkpt><trkpt lat="32.8877483" lon="10.17273"><ele>448.0</ele><time>2026-04-27T10:42:04.079Z</time></trkpt><trkpt lat="32.8877865" lon="10.1726307"><ele>448.0</ele><time>2026-04-27T10:42:07.075Z</time></trkpt><trkpt lat="32.8877901" lon="10.1725306"><ele>448.59999999999997</ele><time>2026-04-27T10:42:09.086Z</time></trkpt><trkpt lat="32.8877907" lon="10.1724207"><ele>449.19999999999993</ele><time>2026-04-27T10:42:11.057Z</time></trkpt><trkpt lat="32.8877908" lon="10.1722864"><ele>449.8</ele><time>2026-04-27T10:42:13.109Z</time></trkpt><trkpt lat="32.8878049" lon="10.1722123"><ele>450.4</ele><time>2026-04-27T10:42:14.061Z</time></trkpt><trkpt lat="32.8878652" lon="10.1720989"><ele>451.0</ele><time>2026-04-27T10:42:16.085Z</time></trkpt><trkpt lat="32.8879408" lon="10.1719968"><ele>451.20000000000005</ele><time>2026-04-27T10:42:18.1Z</time></trkpt><trkpt lat="32.8880089" lon="10.1718697"><ele>451.40000000000003</ele><time>2026-04-27T10:42:20.089Z</time></trkpt><trkpt lat="32.8880458" lon="10.1717286"><ele>451.6</ele><time>2026-04-27T10:42:22.088Z</time></trkpt><trkpt lat="32.8880625" lon="10.1716457"><ele>451.8</ele><time>2026-04-27T10:42:23.088Z</time></trkpt><trkpt lat="32.8880749" lon="10.171562"><ele>452.0</ele><time>2026-04-27T10:42:24.048Z</time></trkpt><trkpt lat="32.888083" lon="10.1714797"><ele>452.57142857142856</ele><time>2026-04-27T10:42:25.052Z</time></trkpt><trkpt lat="32.8880854" lon="10.1713977"><ele>453.1428571428571</ele><time>2026-04-27T10:42:26.087Z</time></trkpt><trkpt lat="32.88809" lon="10.1713184"><ele>453.71428571428567</ele><time>2026-04-27T10:42:27.076Z</time></trkpt><trkpt lat="32.8881089" lon="10.1712356"><ele>454.2857142857143</ele><time>2026-04-27T10:42:28.069Z</time></trkpt><trkpt lat="32.888135" lon="10.1711616"><ele>454.8571428571428</ele><time>2026-04-27T10:42:29.074Z</time></trkpt><trkpt lat="32.8881738" lon="10.1710932"><ele>455.4285714285714</ele><time>2026-04-27T10:42:30.082Z</time></trkpt><trkpt lat="32.8882236" lon="10.1710329"><ele>456.0</ele><time>2026-04-27T10:42:31.058Z</time></trkpt><trkpt lat="32.888276" lon="10.1709797"><ele>456.0</ele><time>2026-04-27T10:42:32.067Z</time></trkpt><trkpt lat="32.888337" lon="10.1709265"><ele>455.99999999999994</ele><time>2026-04-27T10:42:33.076Z</time></trkpt><trkpt lat="32.8883992" lon="10.1708802"><ele>456.0</ele><time>2026-04-27T10:42:34.061Z</time></trkpt><trkpt lat="32.888465" lon="10.17083"><ele>456.0</ele><time>2026-04-27T10:42:35.085Z</time></trkpt><trkpt lat="32.8885316" lon="10.1707886"><ele>455.99999999999994</ele><time>2026-04-27T10:42:36.116Z</time></trkpt><trkpt lat="32.8885875" lon="10.1707445"><ele>456.0</ele><time>2026-04-27T10:42:37.084Z</time></trkpt><trkpt lat="32.8886394" lon="10.1706771"><ele>456.0</ele><time>2026-04-27T10:42:38.088Z</time></trkpt><trkpt lat="32.8886919" lon="10.1706115"><ele>456.1666666666667</ele><time>2026-04-27T10:42:39.069Z</time></trkpt><trkpt lat="32.8887376" lon="10.1705483"><ele>456.33333333333337</ele><time>2026-04-27T10:42:40.087Z</time></trkpt><trkpt lat="32.888777" lon="10.1704835"><ele>456.5</ele><time>2026-04-27T10:42:41.086Z</time></trkpt><trkpt lat="32.8888081" lon="10.1704153"><ele>456.6666666666667</ele><time>2026-04-27T10:42:42.082Z</time></trkpt><trkpt lat="32.8888442" lon="10.1702865"><ele>456.83333333333337</ele><time>2026-04-27T10:42:44.059Z</time></trkpt><trkpt lat="32.8888562" lon="10.1701854"><ele>457.0</ele><time>2026-04-27T10:42:46.096Z</time></trkpt><trkpt lat="32.8888565" lon="10.1700799"><ele>457.00000000000006</ele><time>2026-04-27T10:42:49.087Z</time></trkpt><trkpt lat="32.8888453" lon="10.1699947"><ele>457.0</ele><time>2026-04-27T10:42:53.082Z</time></trkpt><trkpt lat="32.888843" lon="10.1699163"><ele>457.00000000000006</ele><time>2026-04-27T10:42:56.079Z</time></trkpt><trkpt lat="32.8888447" lon="10.1698381"><ele>457.00000000000006</ele><time>2026-04-27T10:42:59.084Z</time></trkpt><trkpt lat="32.8888393" lon="10.1697609"><ele>457.0</ele><time>2026-04-27T10:43:03.085Z</time></trkpt><trkpt lat="32.8888346" lon="10.1696677"><ele>457.00000000000006</ele><time>2026-04-27T10:44:49.077Z</time></trkpt><trkpt lat="32.8888319" lon="10.1695469"><ele>457.00000000000006</ele><time>2026-04-27T10:44:50.09Z</time></trkpt><trkpt lat="32.8888264" lon="10.1693831"><ele>456.5</ele><time>2026-04-27T10:44:51.069Z</time></trkpt><trkpt lat="32.8888267" lon="10.1692093"><ele>456.0</ele><time>2026-04-27T10:44:52.055Z</time></trkpt><trkpt lat="32.8888054" lon="10.1690366"><ele>455.5</ele><time>2026-04-27T10:44:53.088Z</time></trkpt><trkpt lat="32.8887784" lon="10.1688682"><ele>455.0</ele><time>2026-04-27T10:44:54.022Z</time></trkpt><trkpt lat="32.8887485" lon="10.1686822"><ele>455.0</ele><time>2026-04-27T10:44:55.062Z</time></trkpt><trkpt lat="32.8887318" lon="10.1684767"><ele>455.0</ele><time>2026-04-27T10:44:56.087Z</time></trkpt><trkpt lat="32.8887268" lon="10.1682514"><ele>455.0</ele><time>2026-04-27T10:44:57.089Z</time></trkpt><trkpt lat="32.8887182" lon="10.1680091"><ele>455.0</ele><time>2026-04-27T10:44:58.081Z</time></trkpt><trkpt lat="32.888709" lon="10.1677653"><ele>455.0</ele><time>2026-04-27T10:44:59.058Z</time></trkpt><trkpt lat="32.888686" lon="10.16753"><ele>455.0</ele><time>2026-04-27T10:45:00.07Z</time></trkpt><trkpt lat="32.8886817" lon="10.1673035"><ele>454.66666666666663</ele><time>2026-04-27T10:45:01.044Z</time></trkpt><trkpt lat="32.8886758" lon="10.1670457"><ele>454.33333333333337</ele><time>2026-04-27T10:45:02.044Z</time></trkpt><trkpt lat="32.8886727" lon="10.1668016"><ele>454.0</ele><time>2026-04-27T10:45:03.125Z</time></trkpt><trkpt lat="32.888673" lon="10.1665899"><ele>452.33333333333337</ele><time>2026-04-27T10:45:04.035Z</time></trkpt><trkpt lat="32.8886789" lon="10.166392"><ele>450.66666666666663</ele><time>2026-04-27T10:45:05.077Z</time></trkpt><trkpt lat="32.888672" lon="10.166204"><ele>449.0</ele><time>2026-04-27T10:45:06.067Z</time></trkpt><trkpt lat="32.8886815" lon="10.16604"><ele>449.0</ele><time>2026-04-27T10:45:07.084Z</time></trkpt><trkpt lat="32.8886993" lon="10.1658618"><ele>449.0</ele><time>2026-04-27T10:45:08.079Z</time></trkpt><trkpt lat="32.8887162" lon="10.1656621"><ele>449.0</ele><time>2026-04-27T10:45:09.094Z</time></trkpt><trkpt lat="32.8887206" lon="10.1654519"><ele>448.0</ele><time>2026-04-27T10:45:10.097Z</time></trkpt><trkpt lat="32.8887177" lon="10.1652413"><ele>447.0</ele><time>2026-04-27T10:45:11.058Z</time></trkpt><trkpt lat="32.8887145" lon="10.1650262"><ele>446.0</ele><time>2026-04-27T10:45:12.071Z</time></trkpt><trkpt lat="32.8887019" lon="10.1648128"><ele>445.75</ele><time>2026-04-27T10:45:13.036Z</time></trkpt><trkpt lat="32.8886925" lon="10.1646331"><ele>445.5</ele><time>2026-04-27T10:45:14.043Z</time></trkpt><trkpt lat="32.8886959" lon="10.1644594"><ele>445.25</ele><time>2026-04-27T10:45:15.074Z</time></trkpt><trkpt lat="32.8887203" lon="10.164286"><ele>445.0</ele><time>2026-04-27T10:45:16.101Z</time></trkpt><trkpt lat="32.8887442" lon="10.1641018"><ele>445.0</ele><time>2026-04-27T10:45:17.073Z</time></trkpt><trkpt lat="32.8887478" lon="10.1639302"><ele>445.0</ele><time>2026-04-27T10:45:18.203Z</time></trkpt><trkpt lat="32.8887227" lon="10.1635493"><ele>445.0</ele><time>2026-04-27T10:45:20.085Z</time></trkpt><trkpt lat="32.8887132" lon="10.1633629"><ele>445.0</ele><time>2026-04-27T10:45:21.067Z</time></trkpt><trkpt lat="32.8887078" lon="10.1631999"><ele>445.0</ele><time>2026-04-27T10:45:22.086Z</time></trkpt><trkpt lat="32.8886981" lon="10.1630422"><ele>445.0</ele><time>2026-04-27T10:45:23.078Z</time></trkpt><trkpt lat="32.8886835" lon="10.1628941"><ele>445.25</ele><time>2026-04-27T10:45:24.07Z</time></trkpt><trkpt lat="32.8886515" lon="10.1627499"><ele>445.5</ele><time>2026-04-27T10:45:25.089Z</time></trkpt><trkpt lat="32.8886117" lon="10.1626158"><ele>445.75</ele><time>2026-04-27T10:45:26.084Z</time></trkpt><trkpt lat="32.8885582" lon="10.1624907"><ele>446.0</ele><time>2026-04-27T10:45:27.09Z</time></trkpt><trkpt lat="32.8884922" lon="10.1623628"><ele>445.66666666666663</ele><time>2026-04-27T10:45:28.08Z</time></trkpt><trkpt lat="32.8883996" lon="10.1622123"><ele>445.33333333333337</ele><time>2026-04-27T10:45:29.081Z</time></trkpt><trkpt lat="32.8882809" lon="10.1620326"><ele>445.0</ele><time>2026-04-27T10:45:30.078Z</time></trkpt><trkpt lat="32.8881573" lon="10.1618561"><ele>445.0</ele><time>2026-04-27T10:45:31.078Z</time></trkpt><trkpt lat="32.8880315" lon="10.1616842"><ele>445.0</ele><time>2026-04-27T10:45:32.079Z</time></trkpt><trkpt lat="32.8879128" lon="10.1615193"><ele>445.0</ele><time>2026-04-27T10:45:33.056Z</time></trkpt><trkpt lat="32.8878112" lon="10.1613746"><ele>445.25</ele><time>2026-04-27T10:45:34.058Z</time></trkpt><trkpt lat="32.8877284" lon="10.1612545"><ele>445.5</ele><time>2026-04-27T10:45:35.069Z</time></trkpt><trkpt lat="32.8876622" lon="10.1611359"><ele>445.75</ele><time>2026-04-27T10:45:36.115Z</time></trkpt><trkpt lat="32.8876007" lon="10.1610196"><ele>446.0</ele><time>2026-04-27T10:45:37.084Z</time></trkpt><trkpt lat="32.8875717" lon="10.1608991"><ele>446.0</ele><time>2026-04-27T10:45:38.068Z</time></trkpt><trkpt lat="32.8875684" lon="10.1607917"><ele>446.0</ele><time>2026-04-27T10:45:39.082Z</time></trkpt><trkpt lat="32.8875785" lon="10.1607019"><ele>446.0</ele><time>2026-04-27T10:45:40.097Z</time></trkpt><trkpt lat="32.8876252" lon="10.16059"><ele>446.0</ele><time>2026-04-27T10:45:41.099Z</time></trkpt><trkpt lat="32.8877033" lon="10.1604514"><ele>446.0</ele><time>2026-04-27T10:45:42.079Z</time></trkpt><trkpt lat="32.8877928" lon="10.160277"><ele>446.0</ele><time>2026-04-27T10:45:43.061Z</time></trkpt><trkpt lat="32.8878776" lon="10.1600625"><ele>446.0</ele><time>2026-04-27T10:45:44.043Z</time></trkpt><trkpt lat="32.8879855" lon="10.1598147"><ele>446.0</ele><time>2026-04-27T10:45:45.08Z</time></trkpt><trkpt lat="32.8880823" lon="10.1595687"><ele>446.0</ele><time>2026-04-27T10:45:46.082Z</time></trkpt><trkpt lat="32.8881699" lon="10.1593569"><ele>446.0</ele><time>2026-04-27T10:45:47.09Z</time></trkpt><trkpt lat="32.8882414" lon="10.1591625"><ele>446.0</ele><time>2026-04-27T10:45:48.094Z</time></trkpt><trkpt lat="32.8883277" lon="10.1589844"><ele>446.0</ele><time>2026-04-27T10:45:49.083Z</time></trkpt><trkpt lat="32.8884142" lon="10.1588317"><ele>446.0</ele><time>2026-04-27T10:45:50.072Z</time></trkpt><trkpt lat="32.8884836" lon="10.1586748"><ele>446.0</ele><time>2026-04-27T10:45:51.026Z</time></trkpt><trkpt lat="32.8885468" lon="10.1585289"><ele>446.0</ele><time>2026-04-27T10:45:52.031Z</time></trkpt><trkpt lat="32.8886049" lon="10.1584102"><ele>446.0</ele><time>2026-04-27T10:45:53.022Z</time></trkpt><trkpt lat="32.888652" lon="10.1583161"><ele>446.0</ele><time>2026-04-27T10:45:54.032Z</time></trkpt><trkpt lat="32.8887426" lon="10.1580896"><ele>446.0</ele><time>2026-04-27T10:45:56.025Z</time></trkpt><trkpt lat="32.8890076" lon="10.1574348"><ele>447.0</ele><time>2026-04-27T10:46:01.036Z</time></trkpt><trkpt lat="32.8890475" lon="10.1572995"><ele>448.0</ele><time>2026-04-27T10:46:02.05Z</time></trkpt><trkpt lat="32.8890874" lon="10.1571381"><ele>449.0</ele><time>2026-04-27T10:46:03.04Z</time></trkpt><trkpt lat="32.8891335" lon="10.1569598"><ele>450.0</ele><time>2026-04-27T10:46:04.058Z</time></trkpt><trkpt lat="32.8891692" lon="10.1568075"><ele>450.0</ele><time>2026-04-27T10:46:05.083Z</time></trkpt><trkpt lat="32.8891953" lon="10.1566929"><ele>450.0</ele><time>2026-04-27T10:46:06.055Z</time></trkpt><trkpt lat="32.8892142" lon="10.1565946"><ele>450.0</ele><time>2026-04-27T10:46:07.04Z</time></trkpt><trkpt lat="32.8892319" lon="10.1564905"><ele>450.0</ele><time>2026-04-27T10:46:08.037Z</time></trkpt><trkpt lat="32.8892486" lon="10.1563998"><ele>450.0</ele><time>2026-04-27T10:46:09.063Z</time></trkpt><trkpt lat="32.8892617" lon="10.1563202"><ele>450.0</ele><time>2026-04-27T10:46:10.042Z</time></trkpt><trkpt lat="32.8892749" lon="10.1562377"><ele>450.25</ele><time>2026-04-27T10:46:11.042Z</time></trkpt><trkpt lat="32.8892984" lon="10.1561468"><ele>450.5</ele><time>2026-04-27T10:46:12.038Z</time></trkpt><trkpt lat="32.8893293" lon="10.1560248"><ele>450.75</ele><time>2026-04-27T10:46:13.036Z</time></trkpt><trkpt lat="32.889366" lon="10.1558855"><ele>451.0</ele><time>2026-04-27T10:46:14.038Z</time></trkpt><trkpt lat="32.8893982" lon="10.1557201"><ele>451.5</ele><time>2026-04-27T10:46:15.041Z</time></trkpt><trkpt lat="32.8894276" lon="10.1555436"><ele>452.0</ele><time>2026-04-27T10:46:16.036Z</time></trkpt><trkpt lat="32.8894465" lon="10.1553813"><ele>452.5</ele><time>2026-04-27T10:46:17.068Z</time></trkpt><trkpt lat="32.8894588" lon="10.1552472"><ele>453.0</ele><time>2026-04-27T10:46:18.036Z</time></trkpt><trkpt lat="32.889476" lon="10.1551425"><ele>453.0</ele><time>2026-04-27T10:46:19.033Z</time></trkpt><trkpt lat="32.8894905" lon="10.155058"><ele>452.99999999999994</ele><time>2026-04-27T10:46:20.04Z</time></trkpt><trkpt lat="32.8894948" lon="10.1549755"><ele>452.99999999999994</ele><time>2026-04-27T10:46:21.045Z</time></trkpt><trkpt lat="32.8895034" lon="10.1548388"><ele>453.0</ele><time>2026-04-27T10:46:23.037Z</time></trkpt><trkpt lat="32.8895059" lon="10.1547184"><ele>453.0</ele><time>2026-04-27T10:46:25.036Z</time></trkpt><trkpt lat="32.8895129" lon="10.1546005"><ele>453.0</ele><time>2026-04-27T10:46:27.047Z</time></trkpt><trkpt lat="32.889521" lon="10.1544832"><ele>452.99999999999994</ele><time>2026-04-27T10:46:29.039Z</time></trkpt><trkpt lat="32.8895178" lon="10.154363"><ele>452.99999999999994</ele><time>2026-04-27T10:46:31.045Z</time></trkpt><trkpt lat="32.8895095" lon="10.1542283"><ele>453.0</ele><time>2026-04-27T10:46:33.063Z</time></trkpt><trkpt lat="32.8895054" lon="10.1540972"><ele>453.0</ele><time>2026-04-27T10:46:35.041Z</time></trkpt><trkpt lat="32.8894973" lon="10.1539823"><ele>453.0</ele><time>2026-04-27T10:46:37.039Z</time></trkpt><trkpt lat="32.8894839" lon="10.1538636"><ele>452.99999999999994</ele><time>2026-04-27T10:46:39.046Z</time></trkpt><trkpt lat="32.8894591" lon="10.1537485"><ele>452.99999999999994</ele><time>2026-04-27T10:46:41.068Z</time></trkpt><trkpt lat="32.8894323" lon="10.1535973"><ele>453.0</ele><time>2026-04-27T10:46:43.042Z</time></trkpt><trkpt lat="32.8894152" lon="10.1535066"><ele>453.0</ele><time>2026-04-27T10:46:44.042Z</time></trkpt><trkpt lat="32.889387" lon="10.1533897"><ele>453.0</ele><time>2026-04-27T10:46:45.038Z</time></trkpt><trkpt lat="32.889358" lon="10.1532597"><ele>452.99999999999994</ele><time>2026-04-27T10:46:46.032Z</time></trkpt><trkpt lat="32.8893349" lon="10.1531484"><ele>452.99999999999994</ele><time>2026-04-27T10:46:47.036Z</time></trkpt><trkpt lat="32.8893119" lon="10.1530273"><ele>453.0</ele><time>2026-04-27T10:46:48.038Z</time></trkpt><trkpt lat="32.8892867" lon="10.1528805"><ele>453.0</ele><time>2026-04-27T10:46:49.05Z</time></trkpt><trkpt lat="32.8892459" lon="10.1527127"><ele>453.33333333333337</ele><time>2026-04-27T10:46:50.031Z</time></trkpt><trkpt lat="32.889196" lon="10.1525135"><ele>453.6666666666667</ele><time>2026-04-27T10:46:51.032Z</time></trkpt><trkpt lat="32.8891333" lon="10.1522644"><ele>454.0</ele><time>2026-04-27T10:46:52.029Z</time></trkpt><trkpt lat="32.8890704" lon="10.1520219"><ele>453.0</ele><time>2026-04-27T10:46:53.037Z</time></trkpt><trkpt lat="32.8890115" lon="10.1517956"><ele>452.0</ele><time>2026-04-27T10:46:54.036Z</time></trkpt><trkpt lat="32.8889578" lon="10.151591"><ele>451.0</ele><time>2026-04-27T10:46:55.098Z</time></trkpt><trkpt lat="32.8889174" lon="10.1514004"><ele>451.0</ele><time>2026-04-27T10:46:56.034Z</time></trkpt><trkpt lat="32.8888793" lon="10.151227"><ele>451.0</ele><time>2026-04-27T10:46:57.022Z</time></trkpt><trkpt lat="32.888845" lon="10.1510821"><ele>451.0</ele><time>2026-04-27T10:46:58.036Z</time></trkpt><trkpt lat="32.8888144" lon="10.1509467"><ele>451.0</ele><time>2026-04-27T10:46:59.034Z</time></trkpt><trkpt lat="32.8887926" lon="10.1508053"><ele>451.0</ele><time>2026-04-27T10:47:00.041Z</time></trkpt><trkpt lat="32.8887679" lon="10.1506655"><ele>451.0</ele><time>2026-04-27T10:47:01.042Z</time></trkpt><trkpt lat="32.888753" lon="10.150538"><ele>451.0</ele><time>2026-04-27T10:47:02.049Z</time></trkpt><trkpt lat="32.8887347" lon="10.1504176"><ele>451.0</ele><time>2026-04-27T10:47:03.044Z</time></trkpt><trkpt lat="32.8887191" lon="10.1503015"><ele>451.0</ele><time>2026-04-27T10:47:04.039Z</time></trkpt><trkpt lat="32.8887009" lon="10.150191"><ele>451.0</ele><time>2026-04-27T10:47:05.06Z</time></trkpt><trkpt lat="32.8886828" lon="10.1500751"><ele>451.0</ele><time>2026-04-27T10:47:06.047Z</time></trkpt><trkpt lat="32.8886597" lon="10.1499567"><ele>451.0</ele><time>2026-04-27T10:47:07.039Z</time></trkpt><trkpt lat="32.8886366" lon="10.1498349"><ele>451.0</ele><time>2026-04-27T10:47:08.041Z</time></trkpt><trkpt lat="32.8886121" lon="10.1497069"><ele>451.0</ele><time>2026-04-27T10:47:09.041Z</time></trkpt><trkpt lat="32.8885886" lon="10.1495756"><ele>450.8</ele><time>2026-04-27T10:47:10.043Z</time></trkpt><trkpt lat="32.8885673" lon="10.1494429"><ele>450.6</ele><time>2026-04-27T10:47:11.05Z</time></trkpt><trkpt lat="32.8885577" lon="10.149304"><ele>450.4</ele><time>2026-04-27T10:47:12.043Z</time></trkpt><trkpt lat="32.8885426" lon="10.149178"><ele>450.2</ele><time>2026-04-27T10:47:13.035Z</time></trkpt><trkpt lat="32.8885201" lon="10.1490698"><ele>450.0</ele><time>2026-04-27T10:47:14.042Z</time></trkpt><trkpt lat="32.8885009" lon="10.1489645"><ele>450.0</ele><time>2026-04-27T10:47:15.041Z</time></trkpt><trkpt lat="32.8884852" lon="10.1488527"><ele>450.0</ele><time>2026-04-27T10:47:16.04Z</time></trkpt><trkpt lat="32.8884694" lon="10.1487463"><ele>450.0</ele><time>2026-04-27T10:47:17.045Z</time></trkpt><trkpt lat="32.8884516" lon="10.1486404"><ele>450.0</ele><time>2026-04-27T10:47:18.041Z</time></trkpt><trkpt lat="32.8884357" lon="10.148535"><ele>450.0</ele><time>2026-04-27T10:47:19.037Z</time></trkpt><trkpt lat="32.8884219" lon="10.1484277"><ele>449.8</ele><time>2026-04-27T10:47:20.033Z</time></trkpt><trkpt lat="32.8884061" lon="10.1483131"><ele>449.6</ele><time>2026-04-27T10:47:21.04Z</time></trkpt><trkpt lat="32.8883945" lon="10.1481947"><ele>449.4</ele><time>2026-04-27T10:47:22.08Z</time></trkpt><trkpt lat="32.8883823" lon="10.1480769"><ele>449.2</ele><time>2026-04-27T10:47:23.041Z</time></trkpt><trkpt lat="32.8883741" lon="10.1479468"><ele>449.0</ele><time>2026-04-27T10:47:24.061Z</time></trkpt><trkpt lat="32.8883653" lon="10.1478013"><ele>449.0</ele><time>2026-04-27T10:47:25.046Z</time></trkpt><trkpt lat="32.8883588" lon="10.1476578"><ele>449.0</ele><time>2026-04-27T10:47:26.038Z</time></trkpt><trkpt lat="32.8883499" lon="10.1475265"><ele>449.0</ele><time>2026-04-27T10:47:27.037Z</time></trkpt><trkpt lat="32.8883463" lon="10.147404"><ele>449.0</ele><time>2026-04-27T10:47:28.024Z</time></trkpt><trkpt lat="32.8883374" lon="10.1472808"><ele>449.0</ele><time>2026-04-27T10:47:29.041Z</time></trkpt><trkpt lat="32.8883278" lon="10.147155"><ele>448.2</ele><time>2026-04-27T10:47:30.039Z</time></trkpt><trkpt lat="32.8883152" lon="10.1470331"><ele>447.4</ele><time>2026-04-27T10:47:31.039Z</time></trkpt><trkpt lat="32.8883044" lon="10.1469068"><ele>446.6</ele><time>2026-04-27T10:47:32.037Z</time></trkpt><trkpt lat="32.8882929" lon="10.1467812"><ele>445.8</ele><time>2026-04-27T10:47:33.035Z</time></trkpt><trkpt lat="32.8882777" lon="10.1466675"><ele>445.0</ele><time>2026-04-27T10:47:34.04Z</time></trkpt><trkpt lat="32.8882691" lon="10.1465603"><ele>445.2</ele><time>2026-04-27T10:47:35.039Z</time></trkpt><trkpt lat="32.8882632" lon="10.1464534"><ele>445.4</ele><time>2026-04-27T10:47:36.044Z</time></trkpt><trkpt lat="32.8882628" lon="10.1463367"><ele>445.6</ele><time>2026-04-27T10:47:37.048Z</time></trkpt><trkpt lat="32.888267" lon="10.146207"><ele>445.8</ele><time>2026-04-27T10:47:38.075Z</time></trkpt><trkpt lat="32.8882728" lon="10.1460787"><ele>446.0</ele><time>2026-04-27T10:47:39.04Z</time></trkpt><trkpt lat="32.8882792" lon="10.145956"><ele>446.0</ele><time>2026-04-27T10:47:40.042Z</time></trkpt><trkpt lat="32.8882831" lon="10.1458284"><ele>446.0</ele><time>2026-04-27T10:47:41.044Z</time></trkpt><trkpt lat="32.8882918" lon="10.1457055"><ele>446.0</ele><time>2026-04-27T10:47:42.044Z</time></trkpt><trkpt lat="32.8883" lon="10.1455877"><ele>446.0</ele><time>2026-04-27T10:47:43.032Z</time></trkpt><trkpt lat="32.8883027" lon="10.1454734"><ele>446.0</ele><time>2026-04-27T10:47:44.051Z</time></trkpt><trkpt lat="32.8883002" lon="10.1453519"><ele>445.8</ele><time>2026-04-27T10:47:45.048Z</time></trkpt><trkpt lat="32.8882958" lon="10.1452253"><ele>445.6</ele><time>2026-04-27T10:47:46.047Z</time></trkpt><trkpt lat="32.888298" lon="10.1451028"><ele>445.4</ele><time>2026-04-27T10:47:47.043Z</time></trkpt><trkpt lat="32.8882922" lon="10.144979"><ele>445.2</ele><time>2026-04-27T10:47:48.039Z</time></trkpt><trkpt lat="32.8882871" lon="10.1448509"><ele>445.0</ele><time>2026-04-27T10:47:49.043Z</time></trkpt><trkpt lat="32.8882901" lon="10.1447211"><ele>444.6</ele><time>2026-04-27T10:47:50.04Z</time></trkpt><trkpt lat="32.8882946" lon="10.1445973"><ele>444.2</ele><time>2026-04-27T10:47:51.04Z</time></trkpt><trkpt lat="32.8883036" lon="10.1444742"><ele>443.79999999999995</ele><time>2026-04-27T10:47:52.037Z</time></trkpt><trkpt lat="32.8883176" lon="10.1443599"><ele>443.4</ele><time>2026-04-27T10:47:53.038Z</time></trkpt><trkpt lat="32.8883355" lon="10.1442378"><ele>443.0</ele><time>2026-04-27T10:47:54.032Z</time></trkpt><trkpt lat="32.8883476" lon="10.1441121"><ele>442.79999999999995</ele><time>2026-04-27T10:47:55.043Z</time></trkpt><trkpt lat="32.8883549" lon="10.1439821"><ele>442.59999999999997</ele><time>2026-04-27T10:47:56.029Z</time></trkpt><trkpt lat="32.8883616" lon="10.1438621"><ele>442.40000000000003</ele><time>2026-04-27T10:47:57.038Z</time></trkpt><trkpt lat="32.8883698" lon="10.1437408"><ele>442.20000000000005</ele><time>2026-04-27T10:47:58.024Z</time></trkpt><trkpt lat="32.8883756" lon="10.1436185"><ele>442.0</ele><time>2026-04-27T10:47:59.047Z</time></trkpt><trkpt lat="32.8883714" lon="10.143496"><ele>442.0</ele><time>2026-04-27T10:48:00.037Z</time></trkpt><trkpt lat="32.8883726" lon="10.1433661"><ele>442.00000000000006</ele><time>2026-04-27T10:48:01.049Z</time></trkpt><trkpt lat="32.8883702" lon="10.1432372"><ele>442.00000000000006</ele><time>2026-04-27T10:48:02.042Z</time></trkpt><trkpt lat="32.8883709" lon="10.1431134"><ele>442.0</ele><time>2026-04-27T10:48:03.035Z</time></trkpt><trkpt lat="32.8883743" lon="10.1429844"><ele>442.0</ele><time>2026-04-27T10:48:04.034Z</time></trkpt><trkpt lat="32.8883784" lon="10.1428546"><ele>441.6</ele><time>2026-04-27T10:48:05.039Z</time></trkpt><trkpt lat="32.8883836" lon="10.1427246"><ele>441.20000000000005</ele><time>2026-04-27T10:48:06.046Z</time></trkpt><trkpt lat="32.888391" lon="10.142597"><ele>440.8</ele><time>2026-04-27T10:48:07.04Z</time></trkpt><trkpt lat="32.8883986" lon="10.1424631"><ele>440.4</ele><time>2026-04-27T10:48:08.042Z</time></trkpt><trkpt lat="32.8884059" lon="10.1423302"><ele>440.0</ele><time>2026-04-27T10:48:09.043Z</time></trkpt><trkpt lat="32.8884214" lon="10.1422043"><ele>440.0</ele><time>2026-04-27T10:48:10.037Z</time></trkpt><trkpt lat="32.888441" lon="10.1420757"><ele>440.0</ele><time>2026-04-27T10:48:11.042Z</time></trkpt><trkpt lat="32.8884566" lon="10.1419562"><ele>440.0</ele><time>2026-04-27T10:48:12.042Z</time></trkpt><trkpt lat="32.8884674" lon="10.141848"><ele>440.0</ele><time>2026-04-27T10:48:13.044Z</time></trkpt><trkpt lat="32.8884782" lon="10.1417488"><ele>440.0</ele><time>2026-04-27T10:48:14.035Z</time></trkpt><trkpt lat="32.8884935" lon="10.1416528"><ele>440.0</ele><time>2026-04-27T10:48:15.042Z</time></trkpt><trkpt lat="32.8885149" lon="10.141549"><ele>440.0</ele><time>2026-04-27T10:48:16.04Z</time></trkpt><trkpt lat="32.8885471" lon="10.1414409"><ele>440.0</ele><time>2026-04-27T10:48:17.042Z</time></trkpt><trkpt lat="32.8885851" lon="10.1413325"><ele>440.0</ele><time>2026-04-27T10:48:18.052Z</time></trkpt><trkpt lat="32.8886205" lon="10.1412189"><ele>440.0</ele><time>2026-04-27T10:48:19.078Z</time></trkpt><trkpt lat="32.888659" lon="10.1411091"><ele>440.2</ele><time>2026-04-27T10:48:20.044Z</time></trkpt><trkpt lat="32.8886941" lon="10.1409993"><ele>440.4</ele><time>2026-04-27T10:48:21.042Z</time></trkpt><trkpt lat="32.8887193" lon="10.140888"><ele>440.6</ele><time>2026-04-27T10:48:22.06Z</time></trkpt><trkpt lat="32.8887354" lon="10.140768"><ele>440.8</ele><time>2026-04-27T10:48:23.045Z</time></trkpt><trkpt lat="32.8887535" lon="10.1406474"><ele>441.0</ele><time>2026-04-27T10:48:24.045Z</time></trkpt><trkpt lat="32.888758" lon="10.1405309"><ele>440.6666666666667</ele><time>2026-04-27T10:48:25.044Z</time></trkpt><trkpt lat="32.8887615" lon="10.1404257"><ele>440.33333333333337</ele><time>2026-04-27T10:48:26.029Z</time></trkpt><trkpt lat="32.8887497" lon="10.1403269"><ele>440.0</ele><time>2026-04-27T10:48:27.037Z</time></trkpt><trkpt lat="32.8887303" lon="10.14024"><ele>439.6666666666667</ele><time>2026-04-27T10:48:28.04Z</time></trkpt><trkpt lat="32.8886894" lon="10.140161"><ele>439.33333333333337</ele><time>2026-04-27T10:48:29.038Z</time></trkpt><trkpt lat="32.8886428" lon="10.1400882"><ele>439.0</ele><time>2026-04-27T10:48:30.041Z</time></trkpt><trkpt lat="32.8886018" lon="10.140015"><ele>439.0</ele><time>2026-04-27T10:48:31.044Z</time></trkpt><trkpt lat="32.8885753" lon="10.1399254"><ele>439.0</ele><time>2026-04-27T10:48:32.045Z</time></trkpt><trkpt lat="32.8885581" lon="10.1398307"><ele>439.0</ele><time>2026-04-27T10:48:33.041Z</time></trkpt><trkpt lat="32.8885562" lon="10.13974"><ele>439.0</ele><time>2026-04-27T10:48:34.042Z</time></trkpt><trkpt lat="32.8885501" lon="10.1396624"><ele>439.0</ele><time>2026-04-27T10:48:35.046Z</time></trkpt><trkpt lat="32.8885388" lon="10.1395782"><ele>439.0</ele><time>2026-04-27T10:48:36.047Z</time></trkpt><trkpt lat="32.8885226" lon="10.1394952"><ele>439.0</ele><time>2026-04-27T10:48:37.037Z</time></trkpt><trkpt lat="32.8885306" lon="10.13934"><ele>439.0</ele><time>2026-04-27T10:48:39.047Z</time></trkpt><trkpt lat="32.8885588" lon="10.1392505"><ele>439.0</ele><time>2026-04-27T10:48:40.069Z</time></trkpt><trkpt lat="32.8886106" lon="10.1391532"><ele>439.0</ele><time>2026-04-27T10:48:41.046Z</time></trkpt><trkpt lat="32.8886695" lon="10.139043"><ele>439.0</ele><time>2026-04-27T10:48:42.044Z</time></trkpt><trkpt lat="32.8887366" lon="10.1388896"><ele>439.0</ele><time>2026-04-27T10:48:43.042Z</time></trkpt><trkpt lat="32.8888024" lon="10.1387179"><ele>439.5</ele><time>2026-04-27T10:48:44.051Z</time></trkpt><trkpt lat="32.8888605" lon="10.1385482"><ele>440.0</ele><time>2026-04-27T10:48:45.04Z</time></trkpt><trkpt lat="32.8889063" lon="10.1384041"><ele>440.5</ele><time>2026-04-27T10:48:46.031Z</time></trkpt><trkpt lat="32.8889491" lon="10.1382659"><ele>441.0</ele><time>2026-04-27T10:48:47.035Z</time></trkpt><trkpt lat="32.8889925" lon="10.1381345"><ele>442.0</ele><time>2026-04-27T10:48:48.036Z</time></trkpt><trkpt lat="32.8890262" lon="10.1379993"><ele>443.0</ele><time>2026-04-27T10:48:49.041Z</time></trkpt><trkpt lat="32.889062" lon="10.1378635"><ele>444.0</ele><time>2026-04-27T10:48:50.036Z</time></trkpt><trkpt lat="32.8890967" lon="10.1377349"><ele>445.0</ele><time>2026-04-27T10:48:51.033Z</time></trkpt><trkpt lat="32.8891264" lon="10.1376063"><ele>445.0</ele><time>2026-04-27T10:48:52.037Z</time></trkpt><trkpt lat="32.8891518" lon="10.137479"><ele>445.0</ele><time>2026-04-27T10:48:53.033Z</time></trkpt><trkpt lat="32.8891703" lon="10.1373492"><ele>445.0</ele><time>2026-04-27T10:48:54.038Z</time></trkpt><trkpt lat="32.8892047" lon="10.1372214"><ele>445.0</ele><time>2026-04-27T10:48:55.038Z</time></trkpt><trkpt lat="32.8892414" lon="10.1370931"><ele>445.0</ele><time>2026-04-27T10:48:56.037Z</time></trkpt><trkpt lat="32.8892677" lon="10.1369722"><ele>446.0</ele><time>2026-04-27T10:48:57.042Z</time></trkpt><trkpt lat="32.8892908" lon="10.1368543"><ele>447.0</ele><time>2026-04-27T10:48:58.044Z</time></trkpt><trkpt lat="32.8893155" lon="10.1367369"><ele>448.0</ele><time>2026-04-27T10:48:59.031Z</time></trkpt><trkpt lat="32.889344" lon="10.1366186"><ele>449.0</ele><time>2026-04-27T10:49:00.049Z</time></trkpt><trkpt lat="32.8893739" lon="10.1365044"><ele>450.0</ele><time>2026-04-27T10:49:01.03Z</time></trkpt><trkpt lat="32.8894002" lon="10.1363848"><ele>450.0</ele><time>2026-04-27T10:49:02.057Z</time></trkpt><trkpt lat="32.8894236" lon="10.1362642"><ele>450.0</ele><time>2026-04-27T10:49:03.041Z</time></trkpt><trkpt lat="32.8894415" lon="10.136144"><ele>450.0</ele><time>2026-04-27T10:49:04.036Z</time></trkpt><trkpt lat="32.8894595" lon="10.1360265"><ele>450.0</ele><time>2026-04-27T10:49:05.042Z</time></trkpt><trkpt lat="32.8894728" lon="10.1359055"><ele>450.0</ele><time>2026-04-27T10:49:06.048Z</time></trkpt><trkpt lat="32.8894951" lon="10.1357927"><ele>449.6</ele><time>2026-04-27T10:49:07.049Z</time></trkpt><trkpt lat="32.889508" lon="10.135681"><ele>449.2</ele><time>2026-04-27T10:49:08.028Z</time></trkpt><trkpt lat="32.8895247" lon="10.1355753"><ele>448.79999999999995</ele><time>2026-04-27T10:49:09.035Z</time></trkpt><trkpt lat="32.8895465" lon="10.1354687"><ele>448.4</ele><time>2026-04-27T10:49:10.025Z</time></trkpt><trkpt lat="32.8895705" lon="10.1353641"><ele>448.0</ele><time>2026-04-27T10:49:11.036Z</time></trkpt><trkpt lat="32.8895879" lon="10.1352602"><ele>448.0</ele><time>2026-04-27T10:49:12.034Z</time></trkpt><trkpt lat="32.8896007" lon="10.1351537"><ele>447.99999999999994</ele><time>2026-04-27T10:49:13.045Z</time></trkpt><trkpt lat="32.8896031" lon="10.1350429"><ele>447.99999999999994</ele><time>2026-04-27T10:49:14.031Z</time></trkpt><trkpt lat="32.8896052" lon="10.1349336"><ele>448.0</ele><time>2026-04-27T10:49:15.047Z</time></trkpt><trkpt lat="32.8896004" lon="10.1348185"><ele>448.0</ele><time>2026-04-27T10:49:16.07Z</time></trkpt><trkpt lat="32.8895955" lon="10.1346993"><ele>447.79999999999995</ele><time>2026-04-27T10:49:17.029Z</time></trkpt><trkpt lat="32.8895924" lon="10.1345844"><ele>447.59999999999997</ele><time>2026-04-27T10:49:18.084Z</time></trkpt><trkpt lat="32.8895917" lon="10.1344647"><ele>447.40000000000003</ele><time>2026-04-27T10:49:19.071Z</time></trkpt><trkpt lat="32.889588" lon="10.1343535"><ele>447.20000000000005</ele><time>2026-04-27T10:49:20.075Z</time></trkpt><trkpt lat="32.8895955" lon="10.1342344"><ele>447.0</ele><time>2026-04-27T10:49:21.084Z</time></trkpt><trkpt lat="32.8896028" lon="10.1341006"><ele>446.40000000000003</ele><time>2026-04-27T10:49:22.07Z</time></trkpt><trkpt lat="32.889616" lon="10.1339703"><ele>445.80000000000007</ele><time>2026-04-27T10:49:23.068Z</time></trkpt><trkpt lat="32.8896294" lon="10.1338395"><ele>445.2</ele><time>2026-04-27T10:49:24.056Z</time></trkpt><trkpt lat="32.8896471" lon="10.1337099"><ele>444.6</ele><time>2026-04-27T10:49:25.042Z</time></trkpt><trkpt lat="32.8896657" lon="10.1335801"><ele>444.0</ele><time>2026-04-27T10:49:26.057Z</time></trkpt><trkpt lat="32.8896818" lon="10.1334499"><ele>444.0</ele><time>2026-04-27T10:49:27.091Z</time></trkpt><trkpt lat="32.889702" lon="10.1333175"><ele>444.0</ele><time>2026-04-27T10:49:28.078Z</time></trkpt><trkpt lat="32.8897153" lon="10.1331806"><ele>444.0</ele><time>2026-04-27T10:49:29.082Z</time></trkpt><trkpt lat="32.8897256" lon="10.1330483"><ele>444.0</ele><time>2026-04-27T10:49:30.081Z</time></trkpt><trkpt lat="32.8897374" lon="10.1329278"><ele>444.0</ele><time>2026-04-27T10:49:31.082Z</time></trkpt><trkpt lat="32.8897411" lon="10.1328016"><ele>444.0</ele><time>2026-04-27T10:49:32.076Z</time></trkpt><trkpt lat="32.889745" lon="10.1326792"><ele>444.0</ele><time>2026-04-27T10:49:33.084Z</time></trkpt><trkpt lat="32.8897476" lon="10.1325543"><ele>444.0</ele><time>2026-04-27T10:49:34.061Z</time></trkpt><trkpt lat="32.8897452" lon="10.1324284"><ele>444.0</ele><time>2026-04-27T10:49:35.085Z</time></trkpt><trkpt lat="32.8897386" lon="10.1323042"><ele>444.0</ele><time>2026-04-27T10:49:36.054Z</time></trkpt><trkpt lat="32.8897256" lon="10.1321849"><ele>444.0</ele><time>2026-04-27T10:49:37.062Z</time></trkpt><trkpt lat="32.8897105" lon="10.1320625"><ele>444.0</ele><time>2026-04-27T10:49:38.073Z</time></trkpt><trkpt lat="32.8896932" lon="10.1319353"><ele>444.0</ele><time>2026-04-27T10:49:39.07Z</time></trkpt><trkpt lat="32.8896816" lon="10.1318094"><ele>444.0</ele><time>2026-04-27T10:49:40.038Z</time></trkpt><trkpt lat="32.8896792" lon="10.1316884"><ele>444.0</ele><time>2026-04-27T10:49:41.116Z</time></trkpt><trkpt lat="32.8896751" lon="10.1315609"><ele>444.0</ele><time>2026-04-27T10:49:42.103Z</time></trkpt><trkpt lat="32.8896692" lon="10.1314276"><ele>444.0</ele><time>2026-04-27T10:49:43.076Z</time></trkpt><trkpt lat="32.889657" lon="10.1312988"><ele>444.0</ele><time>2026-04-27T10:49:44.042Z</time></trkpt><trkpt lat="32.889643" lon="10.1311692"><ele>444.0</ele><time>2026-04-27T10:49:45.1Z</time></trkpt><trkpt lat="32.8896243" lon="10.1310464"><ele>444.0</ele><time>2026-04-27T10:49:46.096Z</time></trkpt><trkpt lat="32.889603" lon="10.1309195"><ele>444.0</ele><time>2026-04-27T10:49:47.048Z</time></trkpt><trkpt lat="32.8895852" lon="10.130797"><ele>444.0</ele><time>2026-04-27T10:49:48.097Z</time></trkpt><trkpt lat="32.8895717" lon="10.1306762"><ele>444.0</ele><time>2026-04-27T10:49:49.097Z</time></trkpt><trkpt lat="32.8895572" lon="10.1305459"><ele>444.0</ele><time>2026-04-27T10:49:50.06Z</time></trkpt><trkpt lat="32.8895419" lon="10.1304246"><ele>444.0</ele><time>2026-04-27T10:49:51.069Z</time></trkpt><trkpt lat="32.8895217" lon="10.1303068"><ele>444.2</ele><time>2026-04-27T10:49:52.079Z</time></trkpt><trkpt lat="32.8894999" lon="10.1301937"><ele>444.4</ele><time>2026-04-27T10:49:53.064Z</time></trkpt><trkpt lat="32.8894737" lon="10.130078"><ele>444.6</ele><time>2026-04-27T10:49:54.057Z</time></trkpt><trkpt lat="32.8894492" lon="10.1299644"><ele>444.8</ele><time>2026-04-27T10:49:55.084Z</time></trkpt><trkpt lat="32.8894278" lon="10.1298544"><ele>445.0</ele><time>2026-04-27T10:49:56.106Z</time></trkpt><trkpt lat="32.889408" lon="10.1297406"><ele>444.6</ele><time>2026-04-27T10:49:57.042Z</time></trkpt><trkpt lat="32.8893871" lon="10.1296224"><ele>444.2</ele><time>2026-04-27T10:49:58.1Z</time></trkpt><trkpt lat="32.8893733" lon="10.1295035"><ele>443.79999999999995</ele><time>2026-04-27T10:49:59.053Z</time></trkpt><trkpt lat="32.8893644" lon="10.1293746"><ele>443.4</ele><time>2026-04-27T10:50:00.092Z</time></trkpt><trkpt lat="32.8893637" lon="10.1292469"><ele>443.0</ele><time>2026-04-27T10:50:01.097Z</time></trkpt><trkpt lat="32.8893595" lon="10.1291137"><ele>443.0</ele><time>2026-04-27T10:50:02.084Z</time></trkpt><trkpt lat="32.8893627" lon="10.1289774"><ele>443.0</ele><time>2026-04-27T10:50:03.067Z</time></trkpt><trkpt lat="32.8893686" lon="10.1288452"><ele>443.0</ele><time>2026-04-27T10:50:04.067Z</time></trkpt><trkpt lat="32.8893683" lon="10.1287074"><ele>443.0</ele><time>2026-04-27T10:50:05.095Z</time></trkpt><trkpt lat="32.8893658" lon="10.1285745"><ele>443.0</ele><time>2026-04-27T10:50:06.076Z</time></trkpt><trkpt lat="32.889358" lon="10.1284386"><ele>442.99999999999994</ele><time>2026-04-27T10:50:07.107Z</time></trkpt><trkpt lat="32.8893535" lon="10.1283068"><ele>442.99999999999994</ele><time>2026-04-27T10:50:08.08Z</time></trkpt><trkpt lat="32.8893495" lon="10.1281764"><ele>443.0</ele><time>2026-04-27T10:50:09.102Z</time></trkpt><trkpt lat="32.8893425" lon="10.1280521"><ele>443.0</ele><time>2026-04-27T10:50:10.088Z</time></trkpt><trkpt lat="32.8893339" lon="10.1279267"><ele>442.4</ele><time>2026-04-27T10:50:11.092Z</time></trkpt><trkpt lat="32.8893199" lon="10.1278016"><ele>441.79999999999995</ele><time>2026-04-27T10:50:12.099Z</time></trkpt><trkpt lat="32.8893114" lon="10.1276763"><ele>441.2</ele><time>2026-04-27T10:50:13.097Z</time></trkpt><trkpt lat="32.8892946" lon="10.1275534"><ele>440.6</ele><time>2026-04-27T10:50:14.071Z</time></trkpt><trkpt lat="32.8892788" lon="10.1274318"><ele>440.0</ele><time>2026-04-27T10:50:15.088Z</time></trkpt><trkpt lat="32.8892562" lon="10.1273141"><ele>440.0</ele><time>2026-04-27T10:50:16.101Z</time></trkpt><trkpt lat="32.8892259" lon="10.1271891"><ele>440.0</ele><time>2026-04-27T10:50:17.089Z</time></trkpt><trkpt lat="32.8891827" lon="10.1270468"><ele>440.0</ele><time>2026-04-27T10:50:18.156Z</time></trkpt><trkpt lat="32.8891377" lon="10.1268621"><ele>440.0</ele><time>2026-04-27T10:50:19.101Z</time></trkpt><trkpt lat="32.8890894" lon="10.126667"><ele>439.3333333333333</ele><time>2026-04-27T10:50:20.071Z</time></trkpt><trkpt lat="32.8890471" lon="10.1264747"><ele>438.66666666666663</ele><time>2026-04-27T10:50:21.102Z</time></trkpt><trkpt lat="32.8890069" lon="10.1263014"><ele>438.0</ele><time>2026-04-27T10:50:22.108Z</time></trkpt><trkpt lat="32.8889733" lon="10.1261417"><ele>438.0</ele><time>2026-04-27T10:50:23.096Z</time></trkpt><trkpt lat="32.8889463" lon="10.125988"><ele>438.0</ele><time>2026-04-27T10:50:24.045Z</time></trkpt><trkpt lat="32.8889245" lon="10.1258328"><ele>438.0</ele><time>2026-04-27T10:50:25.086Z</time></trkpt><trkpt lat="32.8889089" lon="10.1256795"><ele>438.0</ele><time>2026-04-27T10:50:26.094Z</time></trkpt><trkpt lat="32.8888974" lon="10.1255244"><ele>437.5</ele><time>2026-04-27T10:50:27.083Z</time></trkpt><trkpt lat="32.8888987" lon="10.1253631"><ele>437.0</ele><time>2026-04-27T10:50:28.101Z</time></trkpt><trkpt lat="32.8888965" lon="10.1252117"><ele>436.5</ele><time>2026-04-27T10:50:29.108Z</time></trkpt><trkpt lat="32.8888939" lon="10.1250674"><ele>436.0</ele><time>2026-04-27T10:50:30.099Z</time></trkpt><trkpt lat="32.8888949" lon="10.1249224"><ele>436.4</ele><time>2026-04-27T10:50:31.055Z</time></trkpt><trkpt lat="32.888898" lon="10.1247919"><ele>436.8</ele><time>2026-04-27T10:50:32.069Z</time></trkpt><trkpt lat="32.8889094" lon="10.124667"><ele>437.19999999999993</ele><time>2026-04-27T10:50:33.111Z</time></trkpt><trkpt lat="32.8889247" lon="10.1245353"><ele>437.59999999999997</ele><time>2026-04-27T10:50:34.101Z</time></trkpt><trkpt lat="32.888945" lon="10.1244065"><ele>438.0</ele><time>2026-04-27T10:50:35.048Z</time></trkpt><trkpt lat="32.8889734" lon="10.1242729"><ele>438.0</ele><time>2026-04-27T10:50:36.051Z</time></trkpt><trkpt lat="32.8890011" lon="10.1241486"><ele>438.0</ele><time>2026-04-27T10:50:37.047Z</time></trkpt><trkpt lat="32.8890273" lon="10.1240155"><ele>438.0</ele><time>2026-04-27T10:50:38.037Z</time></trkpt><trkpt lat="32.8890493" lon="10.1238724"><ele>438.0</ele><time>2026-04-27T10:50:39.05Z</time></trkpt><trkpt lat="32.8890874" lon="10.1236054"><ele>437.4</ele><time>2026-04-27T10:50:41.046Z</time></trkpt><trkpt lat="32.8891068" lon="10.1234722"><ele>436.79999999999995</ele><time>2026-04-27T10:50:42.071Z</time></trkpt><trkpt lat="32.8891259" lon="10.1233396"><ele>436.2</ele><time>2026-04-27T10:50:43.039Z</time></trkpt><trkpt lat="32.8891471" lon="10.1232175"><ele>435.6</ele><time>2026-04-27T10:50:44.046Z</time></trkpt><trkpt lat="32.8891807" lon="10.1231024"><ele>435.0</ele><time>2026-04-27T10:50:45.046Z</time></trkpt><trkpt lat="32.8892153" lon="10.122977"><ele>435.0</ele><time>2026-04-27T10:50:46.051Z</time></trkpt><trkpt lat="32.8892425" lon="10.1228457"><ele>435.0</ele><time>2026-04-27T10:50:47.106Z</time></trkpt><trkpt lat="32.8892751" lon="10.1227105"><ele>435.0</ele><time>2026-04-27T10:50:48.035Z</time></trkpt><trkpt lat="32.8893105" lon="10.1225819"><ele>435.0</ele><time>2026-04-27T10:50:49.029Z</time></trkpt><trkpt lat="32.8893401" lon="10.1224518"><ele>434.75</ele><time>2026-04-27T10:50:50.027Z</time></trkpt><trkpt lat="32.889364" lon="10.1223215"><ele>434.5</ele><time>2026-04-27T10:50:51.049Z</time></trkpt><trkpt lat="32.889395" lon="10.1221843"><ele>434.25</ele><time>2026-04-27T10:50:52.037Z</time></trkpt><trkpt lat="32.8894323" lon="10.1220559"><ele>434.0</ele><time>2026-04-27T10:50:53.034Z</time></trkpt><trkpt lat="32.8894735" lon="10.1219377"><ele>434.0</ele><time>2026-04-27T10:50:54.037Z</time></trkpt><trkpt lat="32.8895197" lon="10.1218174"><ele>434.0</ele><time>2026-04-27T10:50:55.038Z</time></trkpt><trkpt lat="32.8895592" lon="10.1217012"><ele>434.0</ele><time>2026-04-27T10:50:56.024Z</time></trkpt><trkpt lat="32.8896024" lon="10.121581"><ele>434.0</ele><time>2026-04-27T10:50:57.033Z</time></trkpt><trkpt lat="32.8896417" lon="10.121463"><ele>434.0</ele><time>2026-04-27T10:50:58.036Z</time></trkpt><trkpt lat="32.8896819" lon="10.121346"><ele>434.0</ele><time>2026-04-27T10:50:59.04Z</time></trkpt><trkpt lat="32.8897354" lon="10.1212259"><ele>434.0</ele><time>2026-04-27T10:51:00.056Z</time></trkpt><trkpt lat="32.8897898" lon="10.1211154"><ele>434.0</ele><time>2026-04-27T10:51:01.037Z</time></trkpt><trkpt lat="32.8898398" lon="10.1210031"><ele>434.0</ele><time>2026-04-27T10:51:02.037Z</time></trkpt><trkpt lat="32.8898891" lon="10.120884"><ele>434.0</ele><time>2026-04-27T10:51:03.041Z</time></trkpt><trkpt lat="32.8899273" lon="10.1207659"><ele>433.6</ele><time>2026-04-27T10:51:04.042Z</time></trkpt><trkpt lat="32.8899619" lon="10.1206425"><ele>433.2</ele><time>2026-04-27T10:51:05.043Z</time></trkpt><trkpt lat="32.8900091" lon="10.120514"><ele>432.80000000000007</ele><time>2026-04-27T10:51:06.043Z</time></trkpt><trkpt lat="32.8900542" lon="10.1203962"><ele>432.40000000000003</ele><time>2026-04-27T10:51:07.044Z</time></trkpt><trkpt lat="32.8900959" lon="10.1202811"><ele>432.0</ele><time>2026-04-27T10:51:08.043Z</time></trkpt><trkpt lat="32.8901239" lon="10.1201525"><ele>431.5</ele><time>2026-04-27T10:51:09.033Z</time></trkpt><trkpt lat="32.890149" lon="10.1200233"><ele>431.0</ele><time>2026-04-27T10:51:10.038Z</time></trkpt><trkpt lat="32.8901694" lon="10.1198884"><ele>430.5</ele><time>2026-04-27T10:51:11.042Z</time></trkpt><trkpt lat="32.890195" lon="10.1197562"><ele>430.0</ele><time>2026-04-27T10:51:12.04Z</time></trkpt><trkpt lat="32.890227" lon="10.1196229"><ele>429.5</ele><time>2026-04-27T10:51:13.036Z</time></trkpt><trkpt lat="32.8902645" lon="10.1194961"><ele>429.0</ele><time>2026-04-27T10:51:14.037Z</time></trkpt><trkpt lat="32.8903081" lon="10.1193737"><ele>428.5</ele><time>2026-04-27T10:51:15.043Z</time></trkpt><trkpt lat="32.8903531" lon="10.1192511"><ele>428.0</ele><time>2026-04-27T10:51:16.04Z</time></trkpt><trkpt lat="32.8903976" lon="10.1191275"><ele>428.2</ele><time>2026-04-27T10:51:17.054Z</time></trkpt><trkpt lat="32.8904425" lon="10.1190125"><ele>428.4</ele><time>2026-04-27T10:51:18.045Z</time></trkpt><trkpt lat="32.8904927" lon="10.1188908"><ele>428.59999999999997</ele><time>2026-04-27T10:51:19.038Z</time></trkpt><trkpt lat="32.8905411" lon="10.1187721"><ele>428.79999999999995</ele><time>2026-04-27T10:51:20.026Z</time></trkpt><trkpt lat="32.890588" lon="10.1186503"><ele>429.0</ele><time>2026-04-27T10:51:21.04Z</time></trkpt><trkpt lat="32.8906352" lon="10.1185274"><ele>429.0</ele><time>2026-04-27T10:51:22.043Z</time></trkpt><trkpt lat="32.8906788" lon="10.1184057"><ele>429.0</ele><time>2026-04-27T10:51:23.033Z</time></trkpt><trkpt lat="32.8907609" lon="10.1181538"><ele>429.0</ele><time>2026-04-27T10:51:25.059Z</time></trkpt><trkpt lat="32.8907949" lon="10.1180315"><ele>429.0</ele><time>2026-04-27T10:51:26.099Z</time></trkpt><trkpt lat="32.8908308" lon="10.1179029"><ele>429.4</ele><time>2026-04-27T10:51:27.069Z</time></trkpt><trkpt lat="32.8908689" lon="10.1177814"><ele>429.79999999999995</ele><time>2026-04-27T10:51:28.026Z</time></trkpt><trkpt lat="32.8909048" lon="10.117658"><ele>430.20000000000005</ele><time>2026-04-27T10:51:29.032Z</time></trkpt><trkpt lat="32.8909444" lon="10.1175345"><ele>430.6</ele><time>2026-04-27T10:51:30.023Z</time></trkpt><trkpt lat="32.8909856" lon="10.1174158"><ele>431.0</ele><time>2026-04-27T10:51:31.044Z</time></trkpt><trkpt lat="32.8910236" lon="10.1173093"><ele>430.0</ele><time>2026-04-27T10:51:32.038Z</time></trkpt><trkpt lat="32.8910615" lon="10.1171939"><ele>429.0</ele><time>2026-04-27T10:51:33.028Z</time></trkpt><trkpt lat="32.8911056" lon="10.1170744"><ele>428.0</ele><time>2026-04-27T10:51:34.028Z</time></trkpt><trkpt lat="32.8911586" lon="10.1169451"><ele>427.0</ele><time>2026-04-27T10:51:35.035Z</time></trkpt><trkpt lat="32.891222" lon="10.1167982"><ele>427.0</ele><time>2026-04-27T10:51:36.03Z</time></trkpt><trkpt lat="32.891288" lon="10.1166417"><ele>427.0</ele><time>2026-04-27T10:51:37.024Z</time></trkpt><trkpt lat="32.891356" lon="10.1164935"><ele>427.0</ele><time>2026-04-27T10:51:38.039Z</time></trkpt><trkpt lat="32.8914251" lon="10.1163436"><ele>427.0</ele><time>2026-04-27T10:51:39.03Z</time></trkpt><trkpt lat="32.8914797" lon="10.1161914"><ele>427.25</ele><time>2026-04-27T10:51:40.046Z</time></trkpt><trkpt lat="32.891524" lon="10.1160383"><ele>427.5</ele><time>2026-04-27T10:51:41.045Z</time></trkpt><trkpt lat="32.891564" lon="10.1158873"><ele>427.75</ele><time>2026-04-27T10:51:42.035Z</time></trkpt><trkpt lat="32.8915906" lon="10.1157309"><ele>428.0</ele><time>2026-04-27T10:51:43.035Z</time></trkpt><trkpt lat="32.8916233" lon="10.115578"><ele>428.0</ele><time>2026-04-27T10:51:44.051Z</time></trkpt><trkpt lat="32.8916603" lon="10.1154176"><ele>428.0</ele><time>2026-04-27T10:51:45.04Z</time></trkpt><trkpt lat="32.8917069" lon="10.1152706"><ele>428.0</ele><time>2026-04-27T10:51:46.032Z</time></trkpt><trkpt lat="32.8917574" lon="10.1151313"><ele>428.0</ele><time>2026-04-27T10:51:47.043Z</time></trkpt><trkpt lat="32.891807" lon="10.1149897"><ele>427.5</ele><time>2026-04-27T10:51:48.055Z</time></trkpt><trkpt lat="32.8918555" lon="10.1148494"><ele>427.0</ele><time>2026-04-27T10:51:49.044Z</time></trkpt><trkpt lat="32.8919035" lon="10.1147073"><ele>426.5</ele><time>2026-04-27T10:51:50.024Z</time></trkpt><trkpt lat="32.8919533" lon="10.1145845"><ele>426.0</ele><time>2026-04-27T10:51:51.041Z</time></trkpt><trkpt lat="32.8920011" lon="10.1144726"><ele>426.0</ele><time>2026-04-27T10:51:52.037Z</time></trkpt><trkpt lat="32.8920404" lon="10.1143717"><ele>426.0</ele><time>2026-04-27T10:51:53.088Z</time></trkpt><trkpt lat="32.8920748" lon="10.1142694"><ele>426.0</ele><time>2026-04-27T10:51:54.036Z</time></trkpt><trkpt lat="32.8921071" lon="10.1141608"><ele>426.0</ele><time>2026-04-27T10:51:55.029Z</time></trkpt><trkpt lat="32.8921319" lon="10.1140587"><ele>426.0</ele><time>2026-04-27T10:51:56.04Z</time></trkpt><trkpt lat="32.8921667" lon="10.113951"><ele>426.0</ele><time>2026-04-27T10:51:57.037Z</time></trkpt><trkpt lat="32.8922093" lon="10.1138394"><ele>426.0</ele><time>2026-04-27T10:51:58.029Z</time></trkpt><trkpt lat="32.8922604" lon="10.1137229"><ele>426.0</ele><time>2026-04-27T10:51:59.04Z</time></trkpt><trkpt lat="32.8923091" lon="10.1136073"><ele>426.0</ele><time>2026-04-27T10:52:00.085Z</time></trkpt><trkpt lat="32.8923578" lon="10.1134887"><ele>426.0</ele><time>2026-04-27T10:52:01.035Z</time></trkpt><trkpt lat="32.8924056" lon="10.1133711"><ele>426.0</ele><time>2026-04-27T10:52:02.034Z</time></trkpt><trkpt lat="32.8924526" lon="10.1132538"><ele>426.0</ele><time>2026-04-27T10:52:03.039Z</time></trkpt><trkpt lat="32.8924907" lon="10.1131368"><ele>426.0</ele><time>2026-04-27T10:52:04.028Z</time></trkpt><trkpt lat="32.8925294" lon="10.1130121"><ele>426.0</ele><time>2026-04-27T10:52:05.031Z</time></trkpt><trkpt lat="32.8925715" lon="10.1128878"><ele>426.0</ele><time>2026-04-27T10:52:06.028Z</time></trkpt><trkpt lat="32.8926085" lon="10.1127622"><ele>425.25</ele><time>2026-04-27T10:52:07.029Z</time></trkpt><trkpt lat="32.8926454" lon="10.1126285"><ele>424.5</ele><time>2026-04-27T10:52:08.03Z</time></trkpt><trkpt lat="32.8926778" lon="10.1124996"><ele>423.75</ele><time>2026-04-27T10:52:09.033Z</time></trkpt><trkpt lat="32.8927081" lon="10.1123707"><ele>423.0</ele><time>2026-04-27T10:52:10.028Z</time></trkpt><trkpt lat="32.8927341" lon="10.1122424"><ele>423.0</ele><time>2026-04-27T10:52:11.034Z</time></trkpt><trkpt lat="32.8927665" lon="10.1121233"><ele>423.0</ele><time>2026-04-27T10:52:12.033Z</time></trkpt><trkpt lat="32.8928143" lon="10.1120099"><ele>423.0</ele><time>2026-04-27T10:52:13.045Z</time></trkpt><trkpt lat="32.8928628" lon="10.111892"><ele>423.0</ele><time>2026-04-27T10:52:14.045Z</time></trkpt><trkpt lat="32.8929087" lon="10.1117682"><ele>423.0</ele><time>2026-04-27T10:52:15.045Z</time></trkpt><trkpt lat="32.8929595" lon="10.1116398"><ele>423.0</ele><time>2026-04-27T10:52:16.05Z</time></trkpt><trkpt lat="32.8929995" lon="10.1115038"><ele>423.0</ele><time>2026-04-27T10:52:17.071Z</time></trkpt><trkpt lat="32.8930422" lon="10.1113668"><ele>423.0</ele><time>2026-04-27T10:52:18.041Z</time></trkpt><trkpt lat="32.8930794" lon="10.1112278"><ele>423.0</ele><time>2026-04-27T10:52:19.044Z</time></trkpt><trkpt lat="32.8931177" lon="10.1110957"><ele>423.0</ele><time>2026-04-27T10:52:20.041Z</time></trkpt><trkpt lat="32.8931575" lon="10.1109633"><ele>423.0</ele><time>2026-04-27T10:52:21.041Z</time></trkpt><trkpt lat="32.8932079" lon="10.1108337"><ele>423.0</ele><time>2026-04-27T10:52:22.052Z</time></trkpt><trkpt lat="32.8932589" lon="10.1107004"><ele>423.0</ele><time>2026-04-27T10:52:23.021Z</time></trkpt><trkpt lat="32.8933112" lon="10.1105699"><ele>423.0</ele><time>2026-04-27T10:52:24.037Z</time></trkpt><trkpt lat="32.8933569" lon="10.1104412"><ele>423.0</ele><time>2026-04-27T10:52:25.044Z</time></trkpt><trkpt lat="32.8933977" lon="10.1103187"><ele>423.0</ele><time>2026-04-27T10:52:26.036Z</time></trkpt><trkpt lat="32.8934411" lon="10.1101925"><ele>423.0</ele><time>2026-04-27T10:52:27.038Z</time></trkpt><trkpt lat="32.8934767" lon="10.1100604"><ele>422.5</ele><time>2026-04-27T10:52:28.035Z</time></trkpt><trkpt lat="32.8935076" lon="10.1099287"><ele>422.0</ele><time>2026-04-27T10:52:29.057Z</time></trkpt><trkpt lat="32.8935343" lon="10.1097947"><ele>421.5</ele><time>2026-04-27T10:52:30.04Z</time></trkpt><trkpt lat="32.8935533" lon="10.1096562"><ele>421.0</ele><time>2026-04-27T10:52:31.04Z</time></trkpt><trkpt lat="32.8935714" lon="10.1095233"><ele>420.75</ele><time>2026-04-27T10:52:32.032Z</time></trkpt><trkpt lat="32.8936011" lon="10.1093879"><ele>420.5</ele><time>2026-04-27T10:52:33.04Z</time></trkpt><trkpt lat="32.8936372" lon="10.1092591"><ele>420.25</ele><time>2026-04-27T10:52:34.037Z</time></trkpt><trkpt lat="32.8936786" lon="10.1091232"><ele>420.0</ele><time>2026-04-27T10:52:35.029Z</time></trkpt><trkpt lat="32.8937123" lon="10.1089965"><ele>420.0</ele><time>2026-04-27T10:52:36.035Z</time></trkpt><trkpt lat="32.8937459" lon="10.1088778"><ele>420.0</ele><time>2026-04-27T10:52:37.034Z</time></trkpt><trkpt lat="32.8937882" lon="10.1087537"><ele>420.0</ele><time>2026-04-27T10:52:38.035Z</time></trkpt><trkpt lat="32.8938331" lon="10.108626"><ele>420.0</ele><time>2026-04-27T10:52:39.021Z</time></trkpt><trkpt lat="32.8938717" lon="10.1084917"><ele>420.0</ele><time>2026-04-27T10:52:40.079Z</time></trkpt><trkpt lat="32.8939071" lon="10.1083534"><ele>420.0</ele><time>2026-04-27T10:52:41.038Z</time></trkpt><trkpt lat="32.8939354" lon="10.1082143"><ele>420.0</ele><time>2026-04-27T10:52:42.047Z</time></trkpt><trkpt lat="32.8939638" lon="10.1080745"><ele>420.0</ele><time>2026-04-27T10:52:43.032Z</time></trkpt><trkpt lat="32.8939961" lon="10.1079367"><ele>420.75</ele><time>2026-04-27T10:52:44.026Z</time></trkpt><trkpt lat="32.8940266" lon="10.107804"><ele>421.5</ele><time>2026-04-27T10:52:45.04Z</time></trkpt><trkpt lat="32.8940597" lon="10.1076684"><ele>422.25</ele><time>2026-04-27T10:52:46.024Z</time></trkpt><trkpt lat="32.8940916" lon="10.1075328"><ele>423.0</ele><time>2026-04-27T10:52:47.031Z</time></trkpt><trkpt lat="32.8941278" lon="10.107395"><ele>423.0</ele><time>2026-04-27T10:52:48.03Z</time></trkpt><trkpt lat="32.8941609" lon="10.1072644"><ele>423.0</ele><time>2026-04-27T10:52:49.036Z</time></trkpt><trkpt lat="32.8941921" lon="10.1071289"><ele>423.0</ele><time>2026-04-27T10:52:50.027Z</time></trkpt><trkpt lat="32.8942222" lon="10.1070038"><ele>423.0</ele><time>2026-04-27T10:52:51.032Z</time></trkpt><trkpt lat="32.8942514" lon="10.1068771"><ele>422.0</ele><time>2026-04-27T10:52:52.028Z</time></trkpt><trkpt lat="32.8942801" lon="10.1067521"><ele>421.0</ele><time>2026-04-27T10:52:53.045Z</time></trkpt><trkpt lat="32.8943068" lon="10.1066301"><ele>420.0</ele><time>2026-04-27T10:52:54.042Z</time></trkpt><trkpt lat="32.8943351" lon="10.1065147"><ele>419.0</ele><time>2026-04-27T10:52:55.025Z</time></trkpt><trkpt lat="32.8943652" lon="10.1063968"><ele>418.0</ele><time>2026-04-27T10:52:56.025Z</time></trkpt><trkpt lat="32.894391" lon="10.1062719"><ele>418.0</ele><time>2026-04-27T10:52:57.029Z</time></trkpt><trkpt lat="32.8944135" lon="10.1061503"><ele>418.0</ele><time>2026-04-27T10:52:58.03Z</time></trkpt><trkpt lat="32.8944329" lon="10.1060317"><ele>418.0</ele><time>2026-04-27T10:52:59.026Z</time></trkpt><trkpt lat="32.8944517" lon="10.1059133"><ele>418.0</ele><time>2026-04-27T10:53:00.043Z</time></trkpt><trkpt lat="32.894485" lon="10.1057994"><ele>418.0</ele><time>2026-04-27T10:53:01.036Z</time></trkpt><trkpt lat="32.8945167" lon="10.1056886"><ele>418.2</ele><time>2026-04-27T10:53:02.044Z</time></trkpt><trkpt lat="32.8945521" lon="10.1055639"><ele>418.4</ele><time>2026-04-27T10:53:03.028Z</time></trkpt><trkpt lat="32.894588" lon="10.1054415"><ele>418.59999999999997</ele><time>2026-04-27T10:53:04.036Z</time></trkpt><trkpt lat="32.8946235" lon="10.1053174"><ele>418.79999999999995</ele><time>2026-04-27T10:53:05.039Z</time></trkpt><trkpt lat="32.8946541" lon="10.1051968"><ele>419.0</ele><time>2026-04-27T10:53:06.046Z</time></trkpt><trkpt lat="32.8946783" lon="10.1050692"><ele>419.0</ele><time>2026-04-27T10:53:07.043Z</time></trkpt><trkpt lat="32.8947013" lon="10.1049408"><ele>419.0</ele><time>2026-04-27T10:53:08.029Z</time></trkpt><trkpt lat="32.8947287" lon="10.1048119"><ele>419.0</ele><time>2026-04-27T10:53:09.02Z</time></trkpt><trkpt lat="32.8947584" lon="10.1046902"><ele>419.0</ele><time>2026-04-27T10:53:10.027Z</time></trkpt><trkpt lat="32.8947845" lon="10.1045699"><ele>419.0</ele><time>2026-04-27T10:53:11.033Z</time></trkpt><trkpt lat="32.8948107" lon="10.1044497"><ele>419.0</ele><time>2026-04-27T10:53:12.036Z</time></trkpt><trkpt lat="32.8948373" lon="10.1043342"><ele>419.0</ele><time>2026-04-27T10:53:13.033Z</time></trkpt><trkpt lat="32.8948522" lon="10.1042223"><ele>419.0</ele><time>2026-04-27T10:53:14.019Z</time></trkpt><trkpt lat="32.8948494" lon="10.1041175"><ele>419.0</ele><time>2026-04-27T10:53:15.036Z</time></trkpt><trkpt lat="32.8948583" lon="10.1040052"><ele>419.0</ele><time>2026-04-27T10:53:16.037Z</time></trkpt><trkpt lat="32.8948772" lon="10.103896"><ele>419.4</ele><time>2026-04-27T10:53:17.029Z</time></trkpt><trkpt lat="32.8949019" lon="10.1037808"><ele>419.79999999999995</ele><time>2026-04-27T10:53:18.034Z</time></trkpt><trkpt lat="32.8949339" lon="10.1036566"><ele>420.20000000000005</ele><time>2026-04-27T10:53:19.036Z</time></trkpt><trkpt lat="32.8949748" lon="10.1035302"><ele>420.6</ele><time>2026-04-27T10:53:20.024Z</time></trkpt><trkpt lat="32.895014" lon="10.1034018"><ele>421.0</ele><time>2026-04-27T10:53:21.053Z</time></trkpt><trkpt lat="32.8950571" lon="10.1032738"><ele>420.6</ele><time>2026-04-27T10:53:22.043Z</time></trkpt><trkpt lat="32.8950895" lon="10.1031507"><ele>420.20000000000005</ele><time>2026-04-27T10:53:23.041Z</time></trkpt><trkpt lat="32.8951232" lon="10.1030226"><ele>419.79999999999995</ele><time>2026-04-27T10:53:24.032Z</time></trkpt><trkpt lat="32.8951536" lon="10.1028908"><ele>419.4</ele><time>2026-04-27T10:53:25.038Z</time></trkpt><trkpt lat="32.8951818" lon="10.1027609"><ele>419.0</ele><time>2026-04-27T10:53:26.03Z</time></trkpt><trkpt lat="32.895213" lon="10.1026277"><ele>419.0</ele><time>2026-04-27T10:53:27.033Z</time></trkpt><trkpt lat="32.8952455" lon="10.1024966"><ele>419.0</ele><time>2026-04-27T10:53:28.035Z</time></trkpt><trkpt lat="32.8952781" lon="10.1023652"><ele>419.0</ele><time>2026-04-27T10:53:29.02Z</time></trkpt><trkpt lat="32.8953105" lon="10.1022348"><ele>419.0</ele><time>2026-04-27T10:53:30.064Z</time></trkpt><trkpt lat="32.8953433" lon="10.1020975"><ele>418.6</ele><time>2026-04-27T10:53:31.035Z</time></trkpt><trkpt lat="32.8953706" lon="10.1019675"><ele>418.2</ele><time>2026-04-27T10:53:32.035Z</time></trkpt><trkpt lat="32.8954002" lon="10.1018368"><ele>417.8</ele><time>2026-04-27T10:53:33.04Z</time></trkpt><trkpt lat="32.8954261" lon="10.1017056"><ele>417.40000000000003</ele><time>2026-04-27T10:53:34.033Z</time></trkpt><trkpt lat="32.8954592" lon="10.1015832"><ele>417.0</ele><time>2026-04-27T10:53:35.042Z</time></trkpt><trkpt lat="32.895492" lon="10.101462"><ele>416.6</ele><time>2026-04-27T10:53:36.039Z</time></trkpt><trkpt lat="32.8955159" lon="10.1013457"><ele>416.20000000000005</ele><time>2026-04-27T10:53:37.038Z</time></trkpt><trkpt lat="32.8955428" lon="10.1012243"><ele>415.8</ele><time>2026-04-27T10:53:38.046Z</time></trkpt><trkpt lat="32.8955686" lon="10.1011101"><ele>415.4</ele><time>2026-04-27T10:53:39.038Z</time></trkpt><trkpt lat="32.8955949" lon="10.1009968"><ele>415.0</ele><time>2026-04-27T10:53:40.044Z</time></trkpt><trkpt lat="32.8956159" lon="10.1008821"><ele>415.0</ele><time>2026-04-27T10:53:41.028Z</time></trkpt><trkpt lat="32.8956294" lon="10.1007692"><ele>415.0</ele><time>2026-04-27T10:53:42.032Z</time></trkpt><trkpt lat="32.8956397" lon="10.100655"><ele>415.0</ele><time>2026-04-27T10:53:43.043Z</time></trkpt><trkpt lat="32.8956495" lon="10.1005364"><ele>415.0</ele><time>2026-04-27T10:53:44.083Z</time></trkpt><trkpt lat="32.8956604" lon="10.1004144"><ele>415.0</ele><time>2026-04-27T10:53:45.074Z</time></trkpt><trkpt lat="32.8956702" lon="10.1002931"><ele>415.8</ele><time>2026-04-27T10:53:46.083Z</time></trkpt><trkpt lat="32.8956858" lon="10.1001723"><ele>416.6</ele><time>2026-04-27T10:53:47.084Z</time></trkpt><trkpt lat="32.8957044" lon="10.1000578"><ele>417.4</ele><time>2026-04-27T10:53:48.032Z</time></trkpt><trkpt lat="32.8957216" lon="10.099936"><ele>418.2</ele><time>2026-04-27T10:53:49.069Z</time></trkpt><trkpt lat="32.8957348" lon="10.0998176"><ele>419.0</ele><time>2026-04-27T10:53:50.063Z</time></trkpt><trkpt lat="32.8957428" lon="10.099696"><ele>419.0</ele><time>2026-04-27T10:53:51.082Z</time></trkpt><trkpt lat="32.895752" lon="10.0995711"><ele>419.0</ele><time>2026-04-27T10:53:52.044Z</time></trkpt><trkpt lat="32.895764" lon="10.0994483"><ele>419.0</ele><time>2026-04-27T10:53:53.079Z</time></trkpt><trkpt lat="32.8957769" lon="10.0993183"><ele>419.0</ele><time>2026-04-27T10:53:54.065Z</time></trkpt><trkpt lat="32.8957891" lon="10.0991851"><ele>419.0</ele><time>2026-04-27T10:53:55.076Z</time></trkpt><trkpt lat="32.8957992" lon="10.0990593"><ele>418.0</ele><time>2026-04-27T10:53:56.089Z</time></trkpt><trkpt lat="32.8958071" lon="10.0989302"><ele>417.0</ele><time>2026-04-27T10:53:57.04Z</time></trkpt><trkpt lat="32.8958176" lon="10.0987877"><ele>416.0</ele><time>2026-04-27T10:53:58.067Z</time></trkpt><trkpt lat="32.8958261" lon="10.0986447"><ele>415.0</ele><time>2026-04-27T10:53:59.026Z</time></trkpt><trkpt lat="32.895837" lon="10.0985007"><ele>415.0</ele><time>2026-04-27T10:54:00.081Z</time></trkpt><trkpt lat="32.8958499" lon="10.0983557"><ele>415.0</ele><time>2026-04-27T10:54:01.041Z</time></trkpt><trkpt lat="32.8958705" lon="10.0982112"><ele>415.0</ele><time>2026-04-27T10:54:02.058Z</time></trkpt><trkpt lat="32.895893" lon="10.0980706"><ele>415.0</ele><time>2026-04-27T10:54:03.064Z</time></trkpt><trkpt lat="32.8959065" lon="10.0979238"><ele>414.75</ele><time>2026-04-27T10:54:04.084Z</time></trkpt><trkpt lat="32.895918" lon="10.0977811"><ele>414.5</ele><time>2026-04-27T10:54:05.072Z</time></trkpt><trkpt lat="32.8959272" lon="10.0976385"><ele>414.25</ele><time>2026-04-27T10:54:06.071Z</time></trkpt><trkpt lat="32.8959401" lon="10.0975011"><ele>414.0</ele><time>2026-04-27T10:54:07.065Z</time></trkpt><trkpt lat="32.8959521" lon="10.097364"><ele>414.0</ele><time>2026-04-27T10:54:08.064Z</time></trkpt><trkpt lat="32.8959679" lon="10.0972285"><ele>414.0</ele><time>2026-04-27T10:54:09.027Z</time></trkpt><trkpt lat="32.8959818" lon="10.097094"><ele>414.0</ele><time>2026-04-27T10:54:10.07Z</time></trkpt><trkpt lat="32.8959935" lon="10.0969618"><ele>414.0</ele><time>2026-04-27T10:54:11.051Z</time></trkpt><trkpt lat="32.8960155" lon="10.0968348"><ele>414.0</ele><time>2026-04-27T10:54:12.032Z</time></trkpt><trkpt lat="32.8960869" lon="10.0963241"><ele>414.0</ele><time>2026-04-27T10:54:16.109Z</time></trkpt><trkpt lat="32.8961418" lon="10.0959025"><ele>414.0</ele><time>2026-04-27T10:54:19.042Z</time></trkpt><trkpt lat="32.8961689" lon="10.0957506"><ele>414.0</ele><time>2026-04-27T10:54:20.048Z</time></trkpt><trkpt lat="32.8961936" lon="10.0955751"><ele>414.0</ele><time>2026-04-27T10:54:21.046Z</time></trkpt><trkpt lat="32.8962302" lon="10.095397"><ele>414.0</ele><time>2026-04-27T10:54:22.033Z</time></trkpt><trkpt lat="32.8962657" lon="10.095213"><ele>414.0</ele><time>2026-04-27T10:54:23.025Z</time></trkpt><trkpt lat="32.8962957" lon="10.0950353"><ele>414.0</ele><time>2026-04-27T10:54:24.025Z</time></trkpt><trkpt lat="32.8963206" lon="10.0948648"><ele>414.0</ele><time>2026-04-27T10:54:25.042Z</time></trkpt><trkpt lat="32.8963436" lon="10.0946986"><ele>414.0</ele><time>2026-04-27T10:54:26.041Z</time></trkpt><trkpt lat="32.8963654" lon="10.0945497"><ele>413.75</ele><time>2026-04-27T10:54:27.027Z</time></trkpt><trkpt lat="32.8963818" lon="10.0944066"><ele>413.5</ele><time>2026-04-27T10:54:28.035Z</time></trkpt><trkpt lat="32.896399" lon="10.0942594"><ele>413.25</ele><time>2026-04-27T10:54:29.035Z</time></trkpt><trkpt lat="32.8964167" lon="10.0941126"><ele>413.0</ele><time>2026-04-27T10:54:30.033Z</time></trkpt><trkpt lat="32.8964333" lon="10.0939688"><ele>413.75</ele><time>2026-04-27T10:54:31.028Z</time></trkpt><trkpt lat="32.8964571" lon="10.0938243"><ele>414.5</ele><time>2026-04-27T10:54:32.067Z</time></trkpt><trkpt lat="32.8964814" lon="10.0936851"><ele>415.25</ele><time>2026-04-27T10:54:33.031Z</time></trkpt><trkpt lat="32.8965053" lon="10.093546"><ele>416.0</ele><time>2026-04-27T10:54:34.034Z</time></trkpt><trkpt lat="32.8965236" lon="10.0934093"><ele>416.0</ele><time>2026-04-27T10:54:35.035Z</time></trkpt><trkpt lat="32.89654" lon="10.0932775"><ele>416.0</ele><time>2026-04-27T10:54:36.018Z</time></trkpt><trkpt lat="32.8965555" lon="10.0931607"><ele>416.0</ele><time>2026-04-27T10:54:37.084Z</time></trkpt><trkpt lat="32.896576" lon="10.0930429"><ele>416.0</ele><time>2026-04-27T10:54:38.03Z</time></trkpt><trkpt lat="32.8966007" lon="10.0929196"><ele>416.0</ele><time>2026-04-27T10:54:39.049Z</time></trkpt><trkpt lat="32.8966218" lon="10.0928098"><ele>415.66666666666663</ele><time>2026-04-27T10:54:40.039Z</time></trkpt><trkpt lat="32.8966412" lon="10.0927011"><ele>415.3333333333333</ele><time>2026-04-27T10:54:41.045Z</time></trkpt><trkpt lat="32.8966556" lon="10.0926059"><ele>415.0</ele><time>2026-04-27T10:54:42.057Z</time></trkpt><trkpt lat="32.8966632" lon="10.0925195"><ele>414.66666666666663</ele><time>2026-04-27T10:54:43.024Z</time></trkpt><trkpt lat="32.8966696" lon="10.0924272"><ele>414.3333333333333</ele><time>2026-04-27T10:54:44.028Z</time></trkpt><trkpt lat="32.8966548" lon="10.0923119"><ele>414.0</ele><time>2026-04-27T10:54:46.162Z</time></trkpt><trkpt lat="32.8966345" lon="10.0922171"><ele>413.79999999999995</ele><time>2026-04-27T10:54:50.076Z</time></trkpt><trkpt lat="32.8966288" lon="10.0921047"><ele>413.59999999999997</ele><time>2026-04-27T10:55:29.099Z</time></trkpt><trkpt lat="32.8966116" lon="10.0919428"><ele>413.4</ele><time>2026-04-27T10:55:31.126Z</time></trkpt><trkpt lat="32.8965868" lon="10.0918543"><ele>413.2</ele><time>2026-04-27T10:55:32.094Z</time></trkpt><trkpt lat="32.8965586" lon="10.0917616"><ele>413.0</ele><time>2026-04-27T10:55:33.096Z</time></trkpt><trkpt lat="32.8965291" lon="10.0916657"><ele>413.59999999999997</ele><time>2026-04-27T10:55:34.092Z</time></trkpt><trkpt lat="32.8964923" lon="10.0915547"><ele>414.2</ele><time>2026-04-27T10:55:35.088Z</time></trkpt><trkpt lat="32.8964524" lon="10.0914379"><ele>414.8</ele><time>2026-04-27T10:55:36.091Z</time></trkpt><trkpt lat="32.8964141" lon="10.0913193"><ele>415.4</ele><time>2026-04-27T10:55:37.087Z</time></trkpt><trkpt lat="32.8963811" lon="10.0911997"><ele>416.0</ele><time>2026-04-27T10:55:38.091Z</time></trkpt><trkpt lat="32.8963434" lon="10.0910775"><ele>416.0</ele><time>2026-04-27T10:55:39.084Z</time></trkpt><trkpt lat="32.8963076" lon="10.0909431"><ele>416.0</ele><time>2026-04-27T10:55:40.092Z</time></trkpt><trkpt lat="32.8962711" lon="10.0908091"><ele>416.0</ele><time>2026-04-27T10:55:41.09Z</time></trkpt><trkpt lat="32.8962315" lon="10.0906663"><ele>416.0</ele><time>2026-04-27T10:55:42.084Z</time></trkpt><trkpt lat="32.89619" lon="10.090521"><ele>416.0</ele><time>2026-04-27T10:55:43.095Z</time></trkpt><trkpt lat="32.8961496" lon="10.0903718"><ele>416.0</ele><time>2026-04-27T10:55:44.085Z</time></trkpt><trkpt lat="32.8961092" lon="10.090219"><ele>416.0</ele><time>2026-04-27T10:55:45.096Z</time></trkpt><trkpt lat="32.896066" lon="10.0900688"><ele>416.0</ele><time>2026-04-27T10:55:46.073Z</time></trkpt><trkpt lat="32.8960222" lon="10.089914"><ele>416.75</ele><time>2026-04-27T10:55:47.094Z</time></trkpt><trkpt lat="32.8959832" lon="10.0897584"><ele>417.5</ele><time>2026-04-27T10:55:48.089Z</time></trkpt><trkpt lat="32.8959473" lon="10.089601"><ele>418.25</ele><time>2026-04-27T10:55:49.097Z</time></trkpt><trkpt lat="32.8959169" lon="10.0894416"><ele>419.0</ele><time>2026-04-27T10:55:50.072Z</time></trkpt><trkpt lat="32.8958891" lon="10.0892834"><ele>419.0</ele><time>2026-04-27T10:55:51.072Z</time></trkpt><trkpt lat="32.8958556" lon="10.0891301"><ele>419.0</ele><time>2026-04-27T10:55:52.09Z</time></trkpt><trkpt lat="32.8958279" lon="10.0889766"><ele>419.0</ele><time>2026-04-27T10:55:53.084Z</time></trkpt><trkpt lat="32.8957933" lon="10.0888254"><ele>419.0</ele><time>2026-04-27T10:55:54.081Z</time></trkpt><trkpt lat="32.8957647" lon="10.088682"><ele>418.75</ele><time>2026-04-27T10:55:55.098Z</time></trkpt><trkpt lat="32.8957332" lon="10.0885446"><ele>418.5</ele><time>2026-04-27T10:55:56.087Z</time></trkpt><trkpt lat="32.8957057" lon="10.0884095"><ele>418.25</ele><time>2026-04-27T10:55:57.089Z</time></trkpt><trkpt lat="32.895681" lon="10.0882789"><ele>418.0</ele><time>2026-04-27T10:55:58.104Z</time></trkpt><trkpt lat="32.8956544" lon="10.0881559"><ele>418.0</ele><time>2026-04-27T10:55:59.099Z</time></trkpt><trkpt lat="32.8956324" lon="10.0880341"><ele>418.0</ele><time>2026-04-27T10:56:00.108Z</time></trkpt><trkpt lat="32.8956205" lon="10.0879169"><ele>418.0</ele><time>2026-04-27T10:56:01.082Z</time></trkpt><trkpt lat="32.8956004" lon="10.0877988"><ele>418.0</ele><time>2026-04-27T10:56:02.096Z</time></trkpt><trkpt lat="32.8955821" lon="10.0876737"><ele>418.0</ele><time>2026-04-27T10:56:03.093Z</time></trkpt><trkpt lat="32.8955676" lon="10.0875425"><ele>418.75</ele><time>2026-04-27T10:56:04.093Z</time></trkpt><trkpt lat="32.8955495" lon="10.0874069"><ele>419.5</ele><time>2026-04-27T10:56:05.085Z</time></trkpt><trkpt lat="32.8955375" lon="10.0872695"><ele>420.25</ele><time>2026-04-27T10:56:06.084Z</time></trkpt><trkpt lat="32.8955184" lon="10.0871327"><ele>421.0</ele><time>2026-04-27T10:56:07.034Z</time></trkpt><trkpt lat="32.8954944" lon="10.0869975"><ele>421.0</ele><time>2026-04-27T10:56:08.025Z</time></trkpt><trkpt lat="32.8954723" lon="10.0868659"><ele>421.0</ele><time>2026-04-27T10:56:09.031Z</time></trkpt><trkpt lat="32.8954533" lon="10.0867386"><ele>421.0</ele><time>2026-04-27T10:56:10.034Z</time></trkpt><trkpt lat="32.8954384" lon="10.0866134"><ele>421.0</ele><time>2026-04-27T10:56:11.088Z</time></trkpt><trkpt lat="32.8954211" lon="10.0864857"><ele>421.0</ele><time>2026-04-27T10:56:12.091Z</time></trkpt><trkpt lat="32.8954038" lon="10.0863588"><ele>421.75</ele><time>2026-04-27T10:56:13.129Z</time></trkpt><trkpt lat="32.8953889" lon="10.0862328"><ele>422.5</ele><time>2026-04-27T10:56:14.083Z</time></trkpt><trkpt lat="32.8953695" lon="10.0860941"><ele>423.25</ele><time>2026-04-27T10:56:15.083Z</time></trkpt><trkpt lat="32.8953501" lon="10.0859526"><ele>424.0</ele><time>2026-04-27T10:56:16.087Z</time></trkpt><trkpt lat="32.8953326" lon="10.085821"><ele>424.0</ele><time>2026-04-27T10:56:17.104Z</time></trkpt><trkpt lat="32.8953175" lon="10.085694"><ele>424.0</ele><time>2026-04-27T10:56:18.102Z</time></trkpt><trkpt lat="32.8952988" lon="10.0855779"><ele>424.0</ele><time>2026-04-27T10:56:19.085Z</time></trkpt><trkpt lat="32.8952857" lon="10.0854617"><ele>424.0</ele><time>2026-04-27T10:56:20.094Z</time></trkpt><trkpt lat="32.8952755" lon="10.0853481"><ele>424.0</ele><time>2026-04-27T10:56:21.088Z</time></trkpt><trkpt lat="32.8952701" lon="10.0852404"><ele>424.00000000000006</ele><time>2026-04-27T10:56:22.094Z</time></trkpt><trkpt lat="32.8952682" lon="10.0851355"><ele>424.0</ele><time>2026-04-27T10:56:23.091Z</time></trkpt><trkpt lat="32.8952679" lon="10.085038"><ele>424.0</ele><time>2026-04-27T10:56:24.101Z</time></trkpt><trkpt lat="32.8952679" lon="10.0849459"><ele>424.0</ele><time>2026-04-27T10:56:25.122Z</time></trkpt><trkpt lat="32.8952688" lon="10.0848482"><ele>424.00000000000006</ele><time>2026-04-27T10:56:26.091Z</time></trkpt><trkpt lat="32.8952738" lon="10.0847482"><ele>424.0</ele><time>2026-04-27T10:56:27.091Z</time></trkpt><trkpt lat="32.8952772" lon="10.084642"><ele>424.2</ele><time>2026-04-27T10:56:28.099Z</time></trkpt><trkpt lat="32.8952799" lon="10.0845404"><ele>424.4</ele><time>2026-04-27T10:56:29.095Z</time></trkpt><trkpt lat="32.8952744" lon="10.0844323"><ele>424.6</ele><time>2026-04-27T10:56:30.103Z</time></trkpt><trkpt lat="32.8952746" lon="10.0843223"><ele>424.8</ele><time>2026-04-27T10:56:31.087Z</time></trkpt><trkpt lat="32.8952874" lon="10.0842075"><ele>425.0</ele><time>2026-04-27T10:56:32.085Z</time></trkpt><trkpt lat="32.8953009" lon="10.0840932"><ele>425.0</ele><time>2026-04-27T10:56:33.089Z</time></trkpt><trkpt lat="32.895309" lon="10.0839722"><ele>425.0</ele><time>2026-04-27T10:56:34.08Z</time></trkpt><trkpt lat="32.8953127" lon="10.0838429"><ele>425.0</ele><time>2026-04-27T10:56:35.095Z</time></trkpt><trkpt lat="32.895318" lon="10.0837049"><ele>425.0</ele><time>2026-04-27T10:56:36.091Z</time></trkpt><trkpt lat="32.8953196" lon="10.0835633"><ele>425.0</ele><time>2026-04-27T10:56:37.084Z</time></trkpt><trkpt lat="32.8953198" lon="10.0834191"><ele>425.0</ele><time>2026-04-27T10:56:38.112Z</time></trkpt><trkpt lat="32.8953211" lon="10.0832703"><ele>425.0</ele><time>2026-04-27T10:56:39.096Z</time></trkpt><trkpt lat="32.8953209" lon="10.0831247"><ele>425.0</ele><time>2026-04-27T10:56:40.082Z</time></trkpt><trkpt lat="32.8953202" lon="10.0829719"><ele>425.0</ele><time>2026-04-27T10:56:41.1Z</time></trkpt><trkpt lat="32.8953161" lon="10.0828183"><ele>425.0</ele><time>2026-04-27T10:56:42.097Z</time></trkpt><trkpt lat="32.8953097" lon="10.0826684"><ele>425.0</ele><time>2026-04-27T10:56:43.102Z</time></trkpt><trkpt lat="32.8952983" lon="10.0825118"><ele>425.0</ele><time>2026-04-27T10:56:44.081Z</time></trkpt><trkpt lat="32.8952858" lon="10.0823488"><ele>425.0</ele><time>2026-04-27T10:56:45.095Z</time></trkpt><trkpt lat="32.8952664" lon="10.0821882"><ele>424.75</ele><time>2026-04-27T10:56:46.1Z</time></trkpt><trkpt lat="32.895247" lon="10.0820152"><ele>424.5</ele><time>2026-04-27T10:56:47.098Z</time></trkpt><trkpt lat="32.8952219" lon="10.0818437"><ele>424.25</ele><time>2026-04-27T10:56:48.098Z</time></trkpt><trkpt lat="32.8951983" lon="10.0816717"><ele>424.0</ele><time>2026-04-27T10:56:49.093Z</time></trkpt><trkpt lat="32.8951724" lon="10.0814989"><ele>424.0</ele><time>2026-04-27T10:56:50.086Z</time></trkpt><trkpt lat="32.8951439" lon="10.0813254"><ele>424.0</ele><time>2026-04-27T10:56:51.088Z</time></trkpt><trkpt lat="32.8951158" lon="10.0811439"><ele>424.0</ele><time>2026-04-27T10:56:52.096Z</time></trkpt><trkpt lat="32.8950893" lon="10.0809566"><ele>424.0</ele><time>2026-04-27T10:56:53.087Z</time></trkpt><trkpt lat="32.895061" lon="10.0807723"><ele>424.0</ele><time>2026-04-27T10:56:54.087Z</time></trkpt><trkpt lat="32.8950288" lon="10.0805907"><ele>424.0</ele><time>2026-04-27T10:56:55.085Z</time></trkpt><trkpt lat="32.894999" lon="10.0804056"><ele>423.6666666666667</ele><time>2026-04-27T10:56:56.094Z</time></trkpt><trkpt lat="32.8949683" lon="10.0802246"><ele>423.33333333333337</ele><time>2026-04-27T10:56:57.097Z</time></trkpt><trkpt lat="32.8949372" lon="10.0800402"><ele>423.0</ele><time>2026-04-27T10:56:58.076Z</time></trkpt><trkpt lat="32.8949036" lon="10.0798607"><ele>423.0</ele><time>2026-04-27T10:56:59.098Z</time></trkpt><trkpt lat="32.8948724" lon="10.0796754"><ele>423.0</ele><time>2026-04-27T10:57:00.094Z</time></trkpt><trkpt lat="32.8948415" lon="10.0794809"><ele>423.0</ele><time>2026-04-27T10:57:01.101Z</time></trkpt><trkpt lat="32.8948127" lon="10.0792884"><ele>422.33333333333337</ele><time>2026-04-27T10:57:02.096Z</time></trkpt><trkpt lat="32.8947815" lon="10.0790997"><ele>421.6666666666667</ele><time>2026-04-27T10:57:03.096Z</time></trkpt><trkpt lat="32.8947516" lon="10.0789116"><ele>421.0</ele><time>2026-04-27T10:57:04.09Z</time></trkpt><trkpt lat="32.8947217" lon="10.0787221"><ele>421.0</ele><time>2026-04-27T10:57:05.093Z</time></trkpt><trkpt lat="32.8946871" lon="10.0785329"><ele>421.0</ele><time>2026-04-27T10:57:06.076Z</time></trkpt><trkpt lat="32.8946544" lon="10.0783425"><ele>421.0</ele><time>2026-04-27T10:57:07.093Z</time></trkpt><trkpt lat="32.8946237" lon="10.0781479"><ele>420.6666666666667</ele><time>2026-04-27T10:57:08.133Z</time></trkpt><trkpt lat="32.8945912" lon="10.0779533"><ele>420.33333333333337</ele><time>2026-04-27T10:57:09.074Z</time></trkpt><trkpt lat="32.8945555" lon="10.0777584"><ele>420.0</ele><time>2026-04-27T10:57:10.079Z</time></trkpt><trkpt lat="32.8945246" lon="10.0775687"><ele>420.33333333333337</ele><time>2026-04-27T10:57:11.085Z</time></trkpt><trkpt lat="32.8944937" lon="10.0773759"><ele>420.6666666666667</ele><time>2026-04-27T10:57:12.084Z</time></trkpt><trkpt lat="32.8944659" lon="10.0771866"><ele>421.0</ele><time>2026-04-27T10:57:13.08Z</time></trkpt><trkpt lat="32.8944402" lon="10.0770027"><ele>421.0</ele><time>2026-04-27T10:57:14.089Z</time></trkpt><trkpt lat="32.8944159" lon="10.0768097"><ele>421.0</ele><time>2026-04-27T10:57:15.09Z</time></trkpt><trkpt lat="32.8943944" lon="10.0766193"><ele>421.0</ele><time>2026-04-27T10:57:16.094Z</time></trkpt><trkpt lat="32.8943801" lon="10.0764254"><ele>421.6666666666667</ele><time>2026-04-27T10:57:17.084Z</time></trkpt><trkpt lat="32.8943754" lon="10.0762308"><ele>422.33333333333337</ele><time>2026-04-27T10:57:18.085Z</time></trkpt><trkpt lat="32.894376" lon="10.0760378"><ele>423.0</ele><time>2026-04-27T10:57:19.094Z</time></trkpt><trkpt lat="32.8943843" lon="10.0758369"><ele>422.66666666666663</ele><time>2026-04-27T10:57:20.084Z</time></trkpt><trkpt lat="32.8944018" lon="10.0756348"><ele>422.3333333333333</ele><time>2026-04-27T10:57:21.087Z</time></trkpt><trkpt lat="32.8944276" lon="10.0754333"><ele>422.0</ele><time>2026-04-27T10:57:22.084Z</time></trkpt><trkpt lat="32.8944633" lon="10.0752298"><ele>422.0</ele><time>2026-04-27T10:57:23.075Z</time></trkpt><trkpt lat="32.8945064" lon="10.0750271"><ele>422.0</ele><time>2026-04-27T10:57:24.108Z</time></trkpt><trkpt lat="32.894557" lon="10.0748209"><ele>422.0</ele><time>2026-04-27T10:57:25.094Z</time></trkpt><trkpt lat="32.8946136" lon="10.0746183"><ele>421.66666666666663</ele><time>2026-04-27T10:57:26.096Z</time></trkpt><trkpt lat="32.8946784" lon="10.0744105"><ele>421.33333333333337</ele><time>2026-04-27T10:57:27.097Z</time></trkpt><trkpt lat="32.8947519" lon="10.074201"><ele>421.0</ele><time>2026-04-27T10:57:28.083Z</time></trkpt><trkpt lat="32.8948272" lon="10.0739901"><ele>421.0</ele><time>2026-04-27T10:57:29.128Z</time></trkpt><trkpt lat="32.894903" lon="10.0737788"><ele>421.0</ele><time>2026-04-27T10:57:30.099Z</time></trkpt><trkpt lat="32.8949749" lon="10.0735742"><ele>421.0</ele><time>2026-04-27T10:57:31.092Z</time></trkpt><trkpt lat="32.8950431" lon="10.0733699"><ele>419.0</ele><time>2026-04-27T10:57:32.09Z</time></trkpt><trkpt lat="32.8951115" lon="10.0731673"><ele>417.0</ele><time>2026-04-27T10:57:33.094Z</time></trkpt><trkpt lat="32.8951898" lon="10.0729614"><ele>415.0</ele><time>2026-04-27T10:57:34.098Z</time></trkpt><trkpt lat="32.8952736" lon="10.0727523"><ele>415.0</ele><time>2026-04-27T10:57:35.1Z</time></trkpt><trkpt lat="32.8953628" lon="10.0725477"><ele>415.0</ele><time>2026-04-27T10:57:36.092Z</time></trkpt><trkpt lat="32.8954616" lon="10.0723407"><ele>415.0</ele><time>2026-04-27T10:57:37.096Z</time></trkpt><trkpt lat="32.8955584" lon="10.0721367"><ele>414.6666666666667</ele><time>2026-04-27T10:57:38.087Z</time></trkpt><trkpt lat="32.8956627" lon="10.0719362"><ele>414.33333333333337</ele><time>2026-04-27T10:57:39.089Z</time></trkpt><trkpt lat="32.8957717" lon="10.0717392"><ele>414.0</ele><time>2026-04-27T10:57:40.103Z</time></trkpt><trkpt lat="32.8958833" lon="10.0715442"><ele>413.66666666666663</ele><time>2026-04-27T10:57:41.104Z</time></trkpt><trkpt lat="32.8960015" lon="10.0713536"><ele>413.3333333333333</ele><time>2026-04-27T10:57:42.091Z</time></trkpt><trkpt lat="32.8961265" lon="10.07117"><ele>413.0</ele><time>2026-04-27T10:57:43.088Z</time></trkpt><trkpt lat="32.8962581" lon="10.0709949"><ele>413.0</ele><time>2026-04-27T10:57:44.096Z</time></trkpt><trkpt lat="32.8963898" lon="10.0708184"><ele>413.0</ele><time>2026-04-27T10:57:45.095Z</time></trkpt><trkpt lat="32.8965308" lon="10.0706499"><ele>413.0</ele><time>2026-04-27T10:57:46.112Z</time></trkpt><trkpt lat="32.8966776" lon="10.070484"><ele>411.66666666666663</ele><time>2026-04-27T10:57:47.096Z</time></trkpt><trkpt lat="32.8968225" lon="10.0703295"><ele>410.33333333333337</ele><time>2026-04-27T10:57:48.103Z</time></trkpt><trkpt lat="32.896969" lon="10.0701716"><ele>409.0</ele><time>2026-04-27T10:57:49.097Z</time></trkpt><trkpt lat="32.8971162" lon="10.0700207"><ele>408.6666666666667</ele><time>2026-04-27T10:57:50.078Z</time></trkpt><trkpt lat="32.8972682" lon="10.0698693"><ele>408.33333333333337</ele><time>2026-04-27T10:57:51.088Z</time></trkpt><trkpt lat="32.89742" lon="10.0697151"><ele>408.0</ele><time>2026-04-27T10:57:52.095Z</time></trkpt><trkpt lat="32.8975663" lon="10.0695572"><ele>408.33333333333337</ele><time>2026-04-27T10:57:53.086Z</time></trkpt><trkpt lat="32.8977158" lon="10.069396"><ele>408.6666666666667</ele><time>2026-04-27T10:57:54.088Z</time></trkpt><trkpt lat="32.8978617" lon="10.0692385"><ele>409.0</ele><time>2026-04-27T10:57:55.094Z</time></trkpt><trkpt lat="32.8980056" lon="10.0690827"><ele>409.0</ele><time>2026-04-27T10:57:56.093Z</time></trkpt><trkpt lat="32.8981479" lon="10.0689219"><ele>409.0</ele><time>2026-04-27T10:57:57.094Z</time></trkpt><trkpt lat="32.8982886" lon="10.0687552"><ele>409.0</ele><time>2026-04-27T10:57:58.088Z</time></trkpt><trkpt lat="32.8984193" lon="10.0685832"><ele>408.0</ele><time>2026-04-27T10:57:59.088Z</time></trkpt><trkpt lat="32.8985449" lon="10.0684117"><ele>407.0</ele><time>2026-04-27T10:58:00.091Z</time></trkpt><trkpt lat="32.898667" lon="10.0682231"><ele>406.0</ele><time>2026-04-27T10:58:01.117Z</time></trkpt><trkpt lat="32.8987713" lon="10.0680182"><ele>406.0</ele><time>2026-04-27T10:58:02.097Z</time></trkpt><trkpt lat="32.8988629" lon="10.067819"><ele>406.0</ele><time>2026-04-27T10:58:03.098Z</time></trkpt><trkpt lat="32.898949" lon="10.0676088"><ele>406.0</ele><time>2026-04-27T10:58:04.122Z</time></trkpt><trkpt lat="32.8990264" lon="10.0673943"><ele>406.33333333333337</ele><time>2026-04-27T10:58:05.099Z</time></trkpt><trkpt lat="32.8991019" lon="10.067177"><ele>406.66666666666663</ele><time>2026-04-27T10:58:06.094Z</time></trkpt><trkpt lat="32.8991715" lon="10.0669564"><ele>407.0</ele><time>2026-04-27T10:58:07.096Z</time></trkpt><trkpt lat="32.8992332" lon="10.0667364"><ele>406.3333333333333</ele><time>2026-04-27T10:58:08.119Z</time></trkpt><trkpt lat="32.8992851" lon="10.0665059"><ele>405.66666666666663</ele><time>2026-04-27T10:58:09.096Z</time></trkpt><trkpt lat="32.8993382" lon="10.0662791"><ele>405.0</ele><time>2026-04-27T10:58:10.089Z</time></trkpt><trkpt lat="32.8993967" lon="10.0660526"><ele>405.0</ele><time>2026-04-27T10:58:11.1Z</time></trkpt><trkpt lat="32.8994518" lon="10.0658295"><ele>405.0</ele><time>2026-04-27T10:58:12.081Z</time></trkpt><trkpt lat="32.8995066" lon="10.0656051"><ele>405.0</ele><time>2026-04-27T10:58:13.136Z</time></trkpt><trkpt lat="32.8995587" lon="10.0653793"><ele>406.0</ele><time>2026-04-27T10:58:14.084Z</time></trkpt><trkpt lat="32.8996097" lon="10.0651513"><ele>407.0</ele><time>2026-04-27T10:58:15.087Z</time></trkpt><trkpt lat="32.8996595" lon="10.0649267"><ele>408.0</ele><time>2026-04-27T10:58:16.099Z</time></trkpt><trkpt lat="32.8997126" lon="10.0646991"><ele>407.66666666666663</ele><time>2026-04-27T10:58:17.095Z</time></trkpt><trkpt lat="32.8997705" lon="10.0644721"><ele>407.3333333333333</ele><time>2026-04-27T10:58:18.081Z</time></trkpt><trkpt lat="32.8998321" lon="10.0642459"><ele>407.0</ele><time>2026-04-27T10:58:19.123Z</time></trkpt><trkpt lat="32.8998904" lon="10.0640212"><ele>407.0</ele><time>2026-04-27T10:58:20.095Z</time></trkpt><trkpt lat="32.8999505" lon="10.0637952"><ele>407.0</ele><time>2026-04-27T10:58:21.099Z</time></trkpt><trkpt lat="32.900007" lon="10.0635652"><ele>407.0</ele><time>2026-04-27T10:58:22.087Z</time></trkpt><trkpt lat="32.9000634" lon="10.0633381"><ele>405.66666666666663</ele><time>2026-04-27T10:58:23.09Z</time></trkpt><trkpt lat="32.9001223" lon="10.0631122"><ele>404.33333333333337</ele><time>2026-04-27T10:58:24.094Z</time></trkpt><trkpt lat="32.9001782" lon="10.0628863"><ele>403.0</ele><time>2026-04-27T10:58:25.084Z</time></trkpt><trkpt lat="32.900238" lon="10.0626637"><ele>403.6666666666667</ele><time>2026-04-27T10:58:26.092Z</time></trkpt><trkpt lat="32.9002932" lon="10.0624442"><ele>404.33333333333337</ele><time>2026-04-27T10:58:27.091Z</time></trkpt><trkpt lat="32.9003468" lon="10.0622157"><ele>405.0</ele><time>2026-04-27T10:58:28.08Z</time></trkpt><trkpt lat="32.9004045" lon="10.0619961"><ele>405.0</ele><time>2026-04-27T10:58:29.097Z</time></trkpt><trkpt lat="32.9004633" lon="10.0617729"><ele>405.0</ele><time>2026-04-27T10:58:30.084Z</time></trkpt><trkpt lat="32.900519" lon="10.0615509"><ele>405.0</ele><time>2026-04-27T10:58:31.094Z</time></trkpt><trkpt lat="32.9005747" lon="10.0613278"><ele>404.66666666666663</ele><time>2026-04-27T10:58:32.104Z</time></trkpt><trkpt lat="32.9006291" lon="10.0610977"><ele>404.3333333333333</ele><time>2026-04-27T10:58:33.071Z</time></trkpt><trkpt lat="32.9006711" lon="10.0609016"><ele>404.0</ele><time>2026-04-27T10:58:34.095Z</time></trkpt><trkpt lat="32.9007271" lon="10.0606739"><ele>404.0</ele><time>2026-04-27T10:58:35.095Z</time></trkpt><trkpt lat="32.9007855" lon="10.0604499"><ele>404.0</ele><time>2026-04-27T10:58:36.091Z</time></trkpt><trkpt lat="32.9008435" lon="10.0602237"><ele>404.0</ele><time>2026-04-27T10:58:37.096Z</time></trkpt><trkpt lat="32.900898" lon="10.0599972"><ele>402.66666666666663</ele><time>2026-04-27T10:58:38.102Z</time></trkpt><trkpt lat="32.9009502" lon="10.0597699"><ele>401.33333333333337</ele><time>2026-04-27T10:58:39.121Z</time></trkpt><trkpt lat="32.9010062" lon="10.0595418"><ele>400.0</ele><time>2026-04-27T10:58:40.091Z</time></trkpt><trkpt lat="32.9010646" lon="10.0593173"><ele>399.33333333333337</ele><time>2026-04-27T10:58:41.111Z</time></trkpt><trkpt lat="32.9011202" lon="10.0590922"><ele>398.66666666666663</ele><time>2026-04-27T10:58:42.097Z</time></trkpt><trkpt lat="32.9011744" lon="10.0588704"><ele>398.0</ele><time>2026-04-27T10:58:43.095Z</time></trkpt><trkpt lat="32.9012285" lon="10.0586476"><ele>398.0</ele><time>2026-04-27T10:58:44.078Z</time></trkpt><trkpt lat="32.9012795" lon="10.0584248"><ele>398.0</ele><time>2026-04-27T10:58:45.097Z</time></trkpt><trkpt lat="32.9013332" lon="10.0581971"><ele>398.0</ele><time>2026-04-27T10:58:46.097Z</time></trkpt><trkpt lat="32.9013885" lon="10.0579724"><ele>398.0</ele><time>2026-04-27T10:58:47.095Z</time></trkpt><trkpt lat="32.9014471" lon="10.0577443"><ele>398.0</ele><time>2026-04-27T10:58:48.097Z</time></trkpt><trkpt lat="32.9015053" lon="10.057518"><ele>398.0</ele><time>2026-04-27T10:58:49.099Z</time></trkpt><trkpt lat="32.9015638" lon="10.057292"><ele>398.3333333333333</ele><time>2026-04-27T10:58:50.097Z</time></trkpt><trkpt lat="32.9016207" lon="10.0570661"><ele>398.66666666666663</ele><time>2026-04-27T10:58:51.098Z</time></trkpt><trkpt lat="32.9016765" lon="10.0568413"><ele>399.0</ele><time>2026-04-27T10:58:52.11Z</time></trkpt><trkpt lat="32.9017319" lon="10.0566151"><ele>398.0</ele><time>2026-04-27T10:58:53.099Z</time></trkpt><trkpt lat="32.9017856" lon="10.05639"><ele>397.0</ele><time>2026-04-27T10:58:54.101Z</time></trkpt><trkpt lat="32.9018395" lon="10.0561663"><ele>396.0</ele><time>2026-04-27T10:58:55.102Z</time></trkpt><trkpt lat="32.9018922" lon="10.0559405"><ele>396.33333333333337</ele><time>2026-04-27T10:58:56.09Z</time></trkpt><trkpt lat="32.901947" lon="10.0557161"><ele>396.6666666666667</ele><time>2026-04-27T10:58:57.09Z</time></trkpt><trkpt lat="32.9019981" lon="10.0554889"><ele>397.0</ele><time>2026-04-27T10:58:58.097Z</time></trkpt><trkpt lat="32.9020427" lon="10.0552609"><ele>397.0</ele><time>2026-04-27T10:58:59.1Z</time></trkpt><trkpt lat="32.9020812" lon="10.0550326"><ele>397.0</ele><time>2026-04-27T10:59:00.098Z</time></trkpt><trkpt lat="32.9021172" lon="10.0548031"><ele>397.0</ele><time>2026-04-27T10:59:01.094Z</time></trkpt><trkpt lat="32.9021475" lon="10.0545739"><ele>397.0</ele><time>2026-04-27T10:59:02.094Z</time></trkpt><trkpt lat="32.9021747" lon="10.0543395"><ele>397.0</ele><time>2026-04-27T10:59:03.094Z</time></trkpt><trkpt lat="32.9021948" lon="10.0541079"><ele>397.0</ele><time>2026-04-27T10:59:04.096Z</time></trkpt><trkpt lat="32.9022115" lon="10.0538744"><ele>397.0</ele><time>2026-04-27T10:59:05.099Z</time></trkpt><trkpt lat="32.9022238" lon="10.0536417"><ele>397.0</ele><time>2026-04-27T10:59:06.096Z</time></trkpt><trkpt lat="32.9022325" lon="10.0534091"><ele>397.0</ele><time>2026-04-27T10:59:07.103Z</time></trkpt><trkpt lat="32.9022383" lon="10.0531761"><ele>397.6666666666667</ele><time>2026-04-27T10:59:08.098Z</time></trkpt><trkpt lat="32.9022423" lon="10.0529439"><ele>398.33333333333337</ele><time>2026-04-27T10:59:09.094Z</time></trkpt><trkpt lat="32.9022466" lon="10.0527092"><ele>399.0</ele><time>2026-04-27T10:59:10.089Z</time></trkpt><trkpt lat="32.9022512" lon="10.0524577"><ele>398.33333333333337</ele><time>2026-04-27T10:59:11.103Z</time></trkpt><trkpt lat="32.9022555" lon="10.0521931"><ele>397.6666666666667</ele><time>2026-04-27T10:59:12.097Z</time></trkpt><trkpt lat="32.9022596" lon="10.0519225"><ele>397.0</ele><time>2026-04-27T10:59:13.079Z</time></trkpt><trkpt lat="32.9022673" lon="10.0516405"><ele>396.5</ele><time>2026-04-27T10:59:14.086Z</time></trkpt><trkpt lat="32.9022747" lon="10.0513557"><ele>396.0</ele><time>2026-04-27T10:59:15.089Z</time></trkpt><trkpt lat="32.9022829" lon="10.051074"><ele>396.0</ele><time>2026-04-27T10:59:16.091Z</time></trkpt><trkpt lat="32.9022925" lon="10.050788"><ele>396.0</ele><time>2026-04-27T10:59:17.091Z</time></trkpt><trkpt lat="32.9022968" lon="10.0505061"><ele>396.0</ele><time>2026-04-27T10:59:18.101Z</time></trkpt><trkpt lat="32.9023005" lon="10.0502289"><ele>396.0</ele><time>2026-04-27T10:59:19.09Z</time></trkpt><trkpt lat="32.9023054" lon="10.0499538"><ele>395.0</ele><time>2026-04-27T10:59:20.088Z</time></trkpt><trkpt lat="32.902312" lon="10.0496767"><ele>394.0</ele><time>2026-04-27T10:59:21.093Z</time></trkpt><trkpt lat="32.9023228" lon="10.0494008"><ele>394.5</ele><time>2026-04-27T10:59:22.097Z</time></trkpt><trkpt lat="32.9023354" lon="10.0491219"><ele>395.0</ele><time>2026-04-27T10:59:23.092Z</time></trkpt><trkpt lat="32.9023445" lon="10.048841"><ele>395.0</ele><time>2026-04-27T10:59:24.091Z</time></trkpt><trkpt lat="32.9023533" lon="10.0485568"><ele>395.0</ele><time>2026-04-27T10:59:25.088Z</time></trkpt><trkpt lat="32.9023625" lon="10.0482765"><ele>393.5</ele><time>2026-04-27T10:59:26.087Z</time></trkpt><trkpt lat="32.9023677" lon="10.0479921"><ele>392.0</ele><time>2026-04-27T10:59:27.116Z</time></trkpt><trkpt lat="32.9023697" lon="10.0477105"><ele>393.5</ele><time>2026-04-27T10:59:28.081Z</time></trkpt><trkpt lat="32.9023733" lon="10.0474294"><ele>395.0</ele><time>2026-04-27T10:59:29.095Z</time></trkpt><trkpt lat="32.9023781" lon="10.0471503"><ele>395.0</ele><time>2026-04-27T10:59:30.087Z</time></trkpt><trkpt lat="32.9023873" lon="10.0468686"><ele>395.0</ele><time>2026-04-27T10:59:31.097Z</time></trkpt><trkpt lat="32.9023974" lon="10.0465897"><ele>395.0</ele><time>2026-04-27T10:59:32.098Z</time></trkpt><trkpt lat="32.9024067" lon="10.0463096"><ele>395.0</ele><time>2026-04-27T10:59:33.097Z</time></trkpt><trkpt lat="32.9024086" lon="10.046027"><ele>393.5</ele><time>2026-04-27T10:59:34.095Z</time></trkpt><trkpt lat="32.9024156" lon="10.0457511"><ele>392.0</ele><time>2026-04-27T10:59:35.097Z</time></trkpt><trkpt lat="32.9024239" lon="10.0454707"><ele>392.0</ele><time>2026-04-27T10:59:36.083Z</time></trkpt><trkpt lat="32.902432" lon="10.0451916"><ele>392.0</ele><time>2026-04-27T10:59:37.096Z</time></trkpt><trkpt lat="32.902442" lon="10.0449144"><ele>393.0</ele><time>2026-04-27T10:59:38.095Z</time></trkpt><trkpt lat="32.9024494" lon="10.0446363"><ele>394.0</ele><time>2026-04-27T10:59:39.094Z</time></trkpt><trkpt lat="32.9024585" lon="10.0443564"><ele>394.0</ele><time>2026-04-27T10:59:40.102Z</time></trkpt><trkpt lat="32.9024625" lon="10.0440739"><ele>394.0</ele><time>2026-04-27T10:59:41.098Z</time></trkpt><trkpt lat="32.9024724" lon="10.0437916"><ele>394.0</ele><time>2026-04-27T10:59:42.103Z</time></trkpt><trkpt lat="32.902482" lon="10.0435131"><ele>394.0</ele><time>2026-04-27T10:59:43.086Z</time></trkpt><trkpt lat="32.9024936" lon="10.043238"><ele>393.5</ele><time>2026-04-27T10:59:44.1Z</time></trkpt><trkpt lat="32.9025003" lon="10.0429639"><ele>393.0</ele><time>2026-04-27T10:59:45.094Z</time></trkpt><trkpt lat="32.9025087" lon="10.0426863"><ele>393.5</ele><time>2026-04-27T10:59:46.102Z</time></trkpt><trkpt lat="32.902514" lon="10.0424101"><ele>394.0</ele><time>2026-04-27T10:59:47.103Z</time></trkpt><trkpt lat="32.9025225" lon="10.0421289"><ele>394.0</ele><time>2026-04-27T10:59:48.098Z</time></trkpt><trkpt lat="32.9025344" lon="10.0418494"><ele>394.0</ele><time>2026-04-27T10:59:49.099Z</time></trkpt><trkpt lat="32.9025425" lon="10.0415713"><ele>395.0</ele><time>2026-04-27T10:59:50.094Z</time></trkpt><trkpt lat="32.9025507" lon="10.0412912"><ele>396.0</ele><time>2026-04-27T10:59:51.093Z</time></trkpt><trkpt lat="32.9025579" lon="10.0410145"><ele>398.5</ele><time>2026-04-27T10:59:52.099Z</time></trkpt><trkpt lat="32.9025635" lon="10.0407377"><ele>401.0</ele><time>2026-04-27T10:59:53.106Z</time></trkpt><trkpt lat="32.9025696" lon="10.0404593"><ele>401.0</ele><time>2026-04-27T10:59:54.104Z</time></trkpt><trkpt lat="32.9025783" lon="10.0401808"><ele>401.0</ele><time>2026-04-27T10:59:55.083Z</time></trkpt><trkpt lat="32.9025883" lon="10.0399025"><ele>399.5</ele><time>2026-04-27T10:59:56.098Z</time></trkpt><trkpt lat="32.9025987" lon="10.0396197"><ele>398.0</ele><time>2026-04-27T10:59:57.104Z</time></trkpt><trkpt lat="32.902606" lon="10.0393436"><ele>398.0</ele><time>2026-04-27T10:59:58.099Z</time></trkpt><trkpt lat="32.9026075" lon="10.0390662"><ele>398.0</ele><time>2026-04-27T10:59:59.084Z</time></trkpt><trkpt lat="32.9026044" lon="10.0387868"><ele>398.0</ele><time>2026-04-27T11:00:00.093Z</time></trkpt><trkpt lat="32.9025934" lon="10.0385104"><ele>398.0</ele><time>2026-04-27T11:00:01.097Z</time></trkpt><trkpt lat="32.9025774" lon="10.0382277"><ele>398.0</ele><time>2026-04-27T11:00:02.093Z</time></trkpt><trkpt lat="32.9025569" lon="10.0379485"><ele>398.0</ele><time>2026-04-27T11:00:03.111Z</time></trkpt><trkpt lat="32.9025317" lon="10.0376682"><ele>395.5</ele><time>2026-04-27T11:00:04.098Z</time></trkpt><trkpt lat="32.9025025" lon="10.0373883"><ele>393.0</ele><time>2026-04-27T11:00:05.094Z</time></trkpt><trkpt lat="32.9024699" lon="10.037109"><ele>393.0</ele><time>2026-04-27T11:00:06.102Z</time></trkpt><trkpt lat="32.9024355" lon="10.0368286"><ele>393.0</ele><time>2026-04-27T11:00:07.091Z</time></trkpt><trkpt lat="32.902403" lon="10.0365542"><ele>393.0</ele><time>2026-04-27T11:00:08.101Z</time></trkpt><trkpt lat="32.9023691" lon="10.0362775"><ele>393.0</ele><time>2026-04-27T11:00:09.08Z</time></trkpt><trkpt lat="32.9023355" lon="10.0360008"><ele>392.5</ele><time>2026-04-27T11:00:10.118Z</time></trkpt><trkpt lat="32.9023038" lon="10.0357241"><ele>392.0</ele><time>2026-04-27T11:00:11.099Z</time></trkpt><trkpt lat="32.9022673" lon="10.0354467"><ele>392.0</ele><time>2026-04-27T11:00:12.099Z</time></trkpt><trkpt lat="32.9022328" lon="10.0351728"><ele>392.0</ele><time>2026-04-27T11:00:13.099Z</time></trkpt><trkpt lat="32.9021994" lon="10.0348964"><ele>393.0</ele><time>2026-04-27T11:00:14.092Z</time></trkpt><trkpt lat="32.9021688" lon="10.0346195"><ele>394.0</ele><time>2026-04-27T11:00:15.099Z</time></trkpt><trkpt lat="32.9021358" lon="10.0343445"><ele>393.0</ele><time>2026-04-27T11:00:16.124Z</time></trkpt><trkpt lat="32.9021039" lon="10.0340665"><ele>392.0</ele><time>2026-04-27T11:00:17.085Z</time></trkpt><trkpt lat="32.9020674" lon="10.0337894"><ele>392.0</ele><time>2026-04-27T11:00:18.091Z</time></trkpt><trkpt lat="32.9020334" lon="10.0335134"><ele>392.0</ele><time>2026-04-27T11:00:19.101Z</time></trkpt><trkpt lat="32.902" lon="10.033234"><ele>390.5</ele><time>2026-04-27T11:00:20.099Z</time></trkpt><trkpt lat="32.9019637" lon="10.0329576"><ele>389.0</ele><time>2026-04-27T11:00:21.078Z</time></trkpt><trkpt lat="32.9019273" lon="10.0326804"><ele>386.5</ele><time>2026-04-27T11:00:22.091Z</time></trkpt><trkpt lat="32.9018895" lon="10.0324064"><ele>384.0</ele><time>2026-04-27T11:00:23.108Z</time></trkpt><trkpt lat="32.9018534" lon="10.0321305"><ele>384.0</ele><time>2026-04-27T11:00:24.096Z</time></trkpt><trkpt lat="32.9018204" lon="10.0318556"><ele>384.0</ele><time>2026-04-27T11:00:25.101Z</time></trkpt><trkpt lat="32.9017885" lon="10.0315802"><ele>383.5</ele><time>2026-04-27T11:00:26.086Z</time></trkpt><trkpt lat="32.9017555" lon="10.0312999"><ele>383.0</ele><time>2026-04-27T11:00:27.086Z</time></trkpt><trkpt lat="32.9017198" lon="10.0310223"><ele>382.5</ele><time>2026-04-27T11:00:28.105Z</time></trkpt><trkpt lat="32.9016878" lon="10.0307489"><ele>382.0</ele><time>2026-04-27T11:00:29.091Z</time></trkpt><trkpt lat="32.9016553" lon="10.0304763"><ele>382.0</ele><time>2026-04-27T11:00:30.076Z</time></trkpt><trkpt lat="32.9016215" lon="10.0302022"><ele>382.0</ele><time>2026-04-27T11:00:31.086Z</time></trkpt><trkpt lat="32.9015895" lon="10.0299291"><ele>382.5</ele><time>2026-04-27T11:00:32.079Z</time></trkpt><trkpt lat="32.9015559" lon="10.0296513"><ele>383.0</ele><time>2026-04-27T11:00:33.087Z</time></trkpt><trkpt lat="32.901524" lon="10.0293753"><ele>384.0</ele><time>2026-04-27T11:00:34.086Z</time></trkpt><trkpt lat="32.9014921" lon="10.0291004"><ele>385.0</ele><time>2026-04-27T11:00:35.089Z</time></trkpt><trkpt lat="32.9014607" lon="10.0288239"><ele>385.0</ele><time>2026-04-27T11:00:36.081Z</time></trkpt><trkpt lat="32.9014301" lon="10.0285509"><ele>385.0</ele><time>2026-04-27T11:00:37.093Z</time></trkpt><trkpt lat="32.901403" lon="10.0282723"><ele>383.5</ele><time>2026-04-27T11:00:38.098Z</time></trkpt><trkpt lat="32.9013815" lon="10.0279942"><ele>382.0</ele><time>2026-04-27T11:00:39.092Z</time></trkpt><trkpt lat="32.9013649" lon="10.0277168"><ele>382.0</ele><time>2026-04-27T11:00:40.087Z</time></trkpt><trkpt lat="32.9013562" lon="10.0274371"><ele>382.0</ele><time>2026-04-27T11:00:41.087Z</time></trkpt><trkpt lat="32.9013492" lon="10.0271565"><ele>382.0</ele><time>2026-04-27T11:00:42.087Z</time></trkpt><trkpt lat="32.9013457" lon="10.026873"><ele>382.0</ele><time>2026-04-27T11:00:43.082Z</time></trkpt><trkpt lat="32.901347" lon="10.0265926"><ele>381.0</ele><time>2026-04-27T11:00:44.094Z</time></trkpt><trkpt lat="32.9013476" lon="10.0263145"><ele>380.0</ele><time>2026-04-27T11:00:45.099Z</time></trkpt><trkpt lat="32.9013459" lon="10.0260331"><ele>379.0</ele><time>2026-04-27T11:00:46.088Z</time></trkpt><trkpt lat="32.9013428" lon="10.0257536"><ele>378.0</ele><time>2026-04-27T11:00:47.088Z</time></trkpt><trkpt lat="32.9013368" lon="10.0254751"><ele>378.0</ele><time>2026-04-27T11:00:48.087Z</time></trkpt><trkpt lat="32.9013329" lon="10.0251952"><ele>378.0</ele><time>2026-04-27T11:00:49.088Z</time></trkpt><trkpt lat="32.9013292" lon="10.0249134"><ele>376.5</ele><time>2026-04-27T11:00:50.087Z</time></trkpt><trkpt lat="32.9013267" lon="10.0246335"><ele>375.0</ele><time>2026-04-27T11:00:51.095Z</time></trkpt><trkpt lat="32.9013272" lon="10.0243549"><ele>374.5</ele><time>2026-04-27T11:00:52.088Z</time></trkpt><trkpt lat="32.901327" lon="10.0240758"><ele>374.0</ele><time>2026-04-27T11:00:53.081Z</time></trkpt><trkpt lat="32.901328" lon="10.0237944"><ele>374.0</ele><time>2026-04-27T11:00:54.1Z</time></trkpt><trkpt lat="32.9013309" lon="10.0235153"><ele>374.0</ele><time>2026-04-27T11:00:55.087Z</time></trkpt><trkpt lat="32.9013312" lon="10.0232346"><ele>374.5</ele><time>2026-04-27T11:00:56.083Z</time></trkpt><trkpt lat="32.9013261" lon="10.0229577"><ele>375.0</ele><time>2026-04-27T11:00:57.09Z</time></trkpt><trkpt lat="32.9013216" lon="10.0226798"><ele>374.5</ele><time>2026-04-27T11:00:58.091Z</time></trkpt><trkpt lat="32.9013165" lon="10.0224009"><ele>374.0</ele><time>2026-04-27T11:00:59.089Z</time></trkpt><trkpt lat="32.9013176" lon="10.0221213"><ele>374.0</ele><time>2026-04-27T11:01:00.089Z</time></trkpt><trkpt lat="32.9013179" lon="10.0218427"><ele>374.0</ele><time>2026-04-27T11:01:01.095Z</time></trkpt><trkpt lat="32.9013194" lon="10.021564"><ele>373.0</ele><time>2026-04-27T11:01:02.09Z</time></trkpt><trkpt lat="32.90132" lon="10.0212829"><ele>372.0</ele><time>2026-04-27T11:01:03.086Z</time></trkpt><trkpt lat="32.9013192" lon="10.0210042"><ele>371.5</ele><time>2026-04-27T11:01:04.092Z</time></trkpt><trkpt lat="32.9013195" lon="10.0207257"><ele>371.0</ele><time>2026-04-27T11:01:05.091Z</time></trkpt><trkpt lat="32.9013182" lon="10.020445"><ele>371.0</ele><time>2026-04-27T11:01:06.097Z</time></trkpt><trkpt lat="32.9013153" lon="10.0201656"><ele>371.0</ele><time>2026-04-27T11:01:07.086Z</time></trkpt><trkpt lat="32.901314" lon="10.0198866"><ele>372.0</ele><time>2026-04-27T11:01:08.09Z</time></trkpt><trkpt lat="32.9013121" lon="10.0196082"><ele>373.0</ele><time>2026-04-27T11:01:09.087Z</time></trkpt><trkpt lat="32.9013131" lon="10.0193292"><ele>372.5</ele><time>2026-04-27T11:01:10.088Z</time></trkpt><trkpt lat="32.9013123" lon="10.0190505"><ele>372.0</ele><time>2026-04-27T11:01:11.088Z</time></trkpt><trkpt lat="32.9013162" lon="10.0187703"><ele>372.0</ele><time>2026-04-27T11:01:12.082Z</time></trkpt><trkpt lat="32.901316" lon="10.0184903"><ele>372.0</ele><time>2026-04-27T11:01:13.092Z</time></trkpt><trkpt lat="32.9013133" lon="10.0182107"><ele>371.5</ele><time>2026-04-27T11:01:14.087Z</time></trkpt><trkpt lat="32.9013089" lon="10.0179324"><ele>371.0</ele><time>2026-04-27T11:01:15.074Z</time></trkpt><trkpt lat="32.9013041" lon="10.0176529"><ele>369.5</ele><time>2026-04-27T11:01:16.091Z</time></trkpt><trkpt lat="32.9013019" lon="10.0173745"><ele>368.0</ele><time>2026-04-27T11:01:17.077Z</time></trkpt><trkpt lat="32.901302" lon="10.0170971"><ele>368.0</ele><time>2026-04-27T11:01:18.08Z</time></trkpt><trkpt lat="32.9013036" lon="10.0168172"><ele>368.0</ele><time>2026-04-27T11:01:19.082Z</time></trkpt><trkpt lat="32.9013044" lon="10.0165362"><ele>369.0</ele><time>2026-04-27T11:01:20.086Z</time></trkpt><trkpt lat="32.9013049" lon="10.0162559"><ele>370.0</ele><time>2026-04-27T11:01:21.084Z</time></trkpt><trkpt lat="32.901302" lon="10.0159776"><ele>369.0</ele><time>2026-04-27T11:01:22.086Z</time></trkpt><trkpt lat="32.9012985" lon="10.0156981"><ele>368.0</ele><time>2026-04-27T11:01:23.083Z</time></trkpt><trkpt lat="32.9012944" lon="10.0154181"><ele>368.0</ele><time>2026-04-27T11:01:24.076Z</time></trkpt><trkpt lat="32.9012916" lon="10.0151379"><ele>368.0</ele><time>2026-04-27T11:01:25.079Z</time></trkpt><trkpt lat="32.9012942" lon="10.0148593"><ele>368.0</ele><time>2026-04-27T11:01:26.096Z</time></trkpt><trkpt lat="32.901293" lon="10.0145806"><ele>368.0</ele><time>2026-04-27T11:01:27.094Z</time></trkpt><trkpt lat="32.9012954" lon="10.0143016"><ele>368.0</ele><time>2026-04-27T11:01:28.098Z</time></trkpt><trkpt lat="32.901296" lon="10.0140233"><ele>368.0</ele><time>2026-04-27T11:01:29.09Z</time></trkpt><trkpt lat="32.9012979" lon="10.0137435"><ele>368.0</ele><time>2026-04-27T11:01:30.119Z</time></trkpt><trkpt lat="32.9012997" lon="10.0134626"><ele>368.0</ele><time>2026-04-27T11:01:31.085Z</time></trkpt><trkpt lat="32.9013053" lon="10.0131824"><ele>367.0</ele><time>2026-04-27T11:01:32.08Z</time></trkpt><trkpt lat="32.901308" lon="10.0129025"><ele>366.0</ele><time>2026-04-27T11:01:33.083Z</time></trkpt><trkpt lat="32.9013054" lon="10.0126219"><ele>365.5</ele><time>2026-04-27T11:01:34.09Z</time></trkpt><trkpt lat="32.9013054" lon="10.0123449"><ele>365.0</ele><time>2026-04-27T11:01:35.091Z</time></trkpt><trkpt lat="32.9013051" lon="10.0120677"><ele>365.0</ele><time>2026-04-27T11:01:36.084Z</time></trkpt><trkpt lat="32.9012943" lon="10.0117871"><ele>365.0</ele><time>2026-04-27T11:01:37.095Z</time></trkpt><trkpt lat="32.9012941" lon="10.011509"><ele>365.0</ele><time>2026-04-27T11:01:38.087Z</time></trkpt><trkpt lat="32.9013155" lon="10.0112177"><ele>365.0</ele><time>2026-04-27T11:01:39.038Z</time></trkpt><trkpt lat="32.9013198" lon="10.0109437"><ele>365.0</ele><time>2026-04-27T11:01:40.037Z</time></trkpt><trkpt lat="32.9013126" lon="10.0106609"><ele>365.0</ele><time>2026-04-27T11:01:41.033Z</time></trkpt><trkpt lat="32.9013035" lon="10.0103866"><ele>365.0</ele><time>2026-04-27T11:01:42.021Z</time></trkpt><trkpt lat="32.9013151" lon="10.0101142"><ele>365.0</ele><time>2026-04-27T11:01:43.026Z</time></trkpt><trkpt lat="32.9012989" lon="10.0098339"><ele>363.5</ele><time>2026-04-27T11:01:44.024Z</time></trkpt><trkpt lat="32.901281" lon="10.0095585"><ele>362.0</ele><time>2026-04-27T11:01:45.027Z</time></trkpt><trkpt lat="32.9012657" lon="10.0092858"><ele>361.0</ele><time>2026-04-27T11:01:46.022Z</time></trkpt><trkpt lat="32.9012724" lon="10.0090088"><ele>360.0</ele><time>2026-04-27T11:01:47.025Z</time></trkpt><trkpt lat="32.9012818" lon="10.008725"><ele>360.0</ele><time>2026-04-27T11:01:48.022Z</time></trkpt><trkpt lat="32.9012629" lon="10.0084421"><ele>360.0</ele><time>2026-04-27T11:01:49.02Z</time></trkpt><trkpt lat="32.9012603" lon="10.0081692"><ele>360.0</ele><time>2026-04-27T11:01:50.027Z</time></trkpt><trkpt lat="32.9012711" lon="10.0078843"><ele>360.0</ele><time>2026-04-27T11:01:51.031Z</time></trkpt><trkpt lat="32.9012773" lon="10.0075998"><ele>360.5</ele><time>2026-04-27T11:01:52.032Z</time></trkpt><trkpt lat="32.9012599" lon="10.0073196"><ele>361.0</ele><time>2026-04-27T11:01:53.024Z</time></trkpt><trkpt lat="32.9012557" lon="10.0070379"><ele>361.0</ele><time>2026-04-27T11:01:54.029Z</time></trkpt><trkpt lat="32.901275" lon="10.006762"><ele>361.0</ele><time>2026-04-27T11:01:55.029Z</time></trkpt><trkpt lat="32.9012763" lon="10.0064856"><ele>359.5</ele><time>2026-04-27T11:01:56.027Z</time></trkpt><trkpt lat="32.9012734" lon="10.0062093"><ele>358.0</ele><time>2026-04-27T11:01:57.018Z</time></trkpt><trkpt lat="32.9012707" lon="10.0059326"><ele>358.0</ele><time>2026-04-27T11:01:58.03Z</time></trkpt><trkpt lat="32.9012863" lon="10.0056572"><ele>358.0</ele><time>2026-04-27T11:01:59.027Z</time></trkpt><trkpt lat="32.9012904" lon="10.0053777"><ele>358.0</ele><time>2026-04-27T11:02:00.027Z</time></trkpt><trkpt lat="32.9012813" lon="10.0050946"><ele>358.0</ele><time>2026-04-27T11:02:01.023Z</time></trkpt><trkpt lat="32.901287" lon="10.0048108"><ele>357.5</ele><time>2026-04-27T11:02:02.025Z</time></trkpt><trkpt lat="32.9012979" lon="10.0045328"><ele>357.0</ele><time>2026-04-27T11:02:03.031Z</time></trkpt><trkpt lat="32.9012775" lon="10.0042597"><ele>357.0</ele><time>2026-04-27T11:02:04.02Z</time></trkpt><trkpt lat="32.9012615" lon="10.003985"><ele>357.0</ele><time>2026-04-27T11:02:05.019Z</time></trkpt><trkpt lat="32.9012745" lon="10.0037003"><ele>357.0</ele><time>2026-04-27T11:02:06.029Z</time></trkpt><trkpt lat="32.9012825" lon="10.003431"><ele>357.0</ele><time>2026-04-27T11:02:07.026Z</time></trkpt><trkpt lat="32.9012717" lon="10.0031548"><ele>357.0</ele><time>2026-04-27T11:02:08.021Z</time></trkpt><trkpt lat="32.9012552" lon="10.0028864"><ele>357.0</ele><time>2026-04-27T11:02:09.027Z</time></trkpt><trkpt lat="32.9012541" lon="10.0026037"><ele>356.5</ele><time>2026-04-27T11:02:10.019Z</time></trkpt><trkpt lat="32.9012753" lon="10.0023233"><ele>356.0</ele><time>2026-04-27T11:02:11.029Z</time></trkpt><trkpt lat="32.901293" lon="10.0020474"><ele>356.0</ele><time>2026-04-27T11:02:12.026Z</time></trkpt><trkpt lat="32.901288" lon="10.0017744"><ele>356.0</ele><time>2026-04-27T11:02:13.035Z</time></trkpt><trkpt lat="32.9012654" lon="10.0014996"><ele>355.0</ele><time>2026-04-27T11:02:14.028Z</time></trkpt><trkpt lat="32.9012504" lon="10.0012139"><ele>354.0</ele><time>2026-04-27T11:02:15.02Z</time></trkpt><trkpt lat="32.9012671" lon="10.0009339"><ele>354.5</ele><time>2026-04-27T11:02:16.02Z</time></trkpt><trkpt lat="32.9012847" lon="10.0006624"><ele>355.0</ele><time>2026-04-27T11:02:17.026Z</time></trkpt><trkpt lat="32.9012827" lon="10.0003877"><ele>355.0</ele><time>2026-04-27T11:02:18.022Z</time></trkpt><trkpt lat="32.9012623" lon="10.0001116"><ele>355.0</ele><time>2026-04-27T11:02:19.023Z</time></trkpt><trkpt lat="32.9012533" lon="9.9998317"><ele>355.0</ele><time>2026-04-27T11:02:20.016Z</time></trkpt><trkpt lat="32.9012575" lon="9.9995547"><ele>355.0</ele><time>2026-04-27T11:02:21.024Z</time></trkpt><trkpt lat="32.9012712" lon="9.9992764"><ele>354.0</ele><time>2026-04-27T11:02:22.029Z</time></trkpt><trkpt lat="32.9012739" lon="9.9990046"><ele>353.0</ele><time>2026-04-27T11:02:23.046Z</time></trkpt><trkpt lat="32.9012551" lon="9.9987334"><ele>353.0</ele><time>2026-04-27T11:02:24.027Z</time></trkpt><trkpt lat="32.901238" lon="9.9984545"><ele>353.0</ele><time>2026-04-27T11:02:25.026Z</time></trkpt><trkpt lat="32.9012363" lon="9.9981767"><ele>353.0</ele><time>2026-04-27T11:02:26.028Z</time></trkpt><trkpt lat="32.9012533" lon="9.9978988"><ele>353.0</ele><time>2026-04-27T11:02:27.029Z</time></trkpt><trkpt lat="32.9012665" lon="9.9976263"><ele>354.0</ele><time>2026-04-27T11:02:28.027Z</time></trkpt><trkpt lat="32.9012619" lon="9.9973528"><ele>355.0</ele><time>2026-04-27T11:02:29.02Z</time></trkpt><trkpt lat="32.901241" lon="9.9970709"><ele>355.0</ele><time>2026-04-27T11:02:30.029Z</time></trkpt><trkpt lat="32.9012263" lon="9.9967997"><ele>355.0</ele><time>2026-04-27T11:02:31.022Z</time></trkpt><trkpt lat="32.9012316" lon="9.9965249"><ele>356.0</ele><time>2026-04-27T11:02:32.022Z</time></trkpt><trkpt lat="32.9012557" lon="9.9962484"><ele>357.0</ele><time>2026-04-27T11:02:33.023Z</time></trkpt><trkpt lat="32.9012532" lon="9.9959758"><ele>357.0</ele><time>2026-04-27T11:02:34.023Z</time></trkpt><trkpt lat="32.9012313" lon="9.9957042"><ele>357.0</ele><time>2026-04-27T11:02:35.022Z</time></trkpt><trkpt lat="32.9012326" lon="9.9954263"><ele>357.0</ele><time>2026-04-27T11:02:36.023Z</time></trkpt><trkpt lat="32.9012492" lon="9.9951433"><ele>357.0</ele><time>2026-04-27T11:02:37.023Z</time></trkpt><trkpt lat="32.9012574" lon="9.99486"><ele>354.5</ele><time>2026-04-27T11:02:38.026Z</time></trkpt><trkpt lat="32.9012537" lon="9.9945854"><ele>352.0</ele><time>2026-04-27T11:02:39.024Z</time></trkpt><trkpt lat="32.9012507" lon="9.9943074"><ele>351.0</ele><time>2026-04-27T11:02:40.027Z</time></trkpt><trkpt lat="32.9012513" lon="9.994036"><ele>350.0</ele><time>2026-04-27T11:02:41.029Z</time></trkpt><trkpt lat="32.9012524" lon="9.9937559"><ele>350.0</ele><time>2026-04-27T11:02:42.018Z</time></trkpt><trkpt lat="32.9012558" lon="9.9934762"><ele>350.0</ele><time>2026-04-27T11:02:43.022Z</time></trkpt><trkpt lat="32.9012469" lon="9.9932018"><ele>352.0</ele><time>2026-04-27T11:02:44.027Z</time></trkpt><trkpt lat="32.9012376" lon="9.9929278"><ele>354.0</ele><time>2026-04-27T11:02:45.019Z</time></trkpt><trkpt lat="32.9012341" lon="9.9926527"><ele>357.5</ele><time>2026-04-27T11:02:46.024Z</time></trkpt><trkpt lat="32.9012336" lon="9.992373"><ele>361.0</ele><time>2026-04-27T11:02:47.017Z</time></trkpt><trkpt lat="32.90123" lon="9.9920887"><ele>361.0</ele><time>2026-04-27T11:02:48.026Z</time></trkpt><trkpt lat="32.9012281" lon="9.9917987"><ele>361.0</ele><time>2026-04-27T11:02:49.019Z</time></trkpt><trkpt lat="32.9012253" lon="9.9915059"><ele>360.5</ele><time>2026-04-27T11:02:50.025Z</time></trkpt><trkpt lat="32.9012273" lon="9.9912194"><ele>360.0</ele><time>2026-04-27T11:02:51.021Z</time></trkpt><trkpt lat="32.9012249" lon="9.9909377"><ele>359.0</ele><time>2026-04-27T11:02:52.023Z</time></trkpt><trkpt lat="32.9012175" lon="9.9906631"><ele>358.0</ele><time>2026-04-27T11:02:53.026Z</time></trkpt><trkpt lat="32.9012208" lon="9.9903877"><ele>358.0</ele><time>2026-04-27T11:02:54.028Z</time></trkpt><trkpt lat="32.9012471" lon="9.9901152"><ele>358.0</ele><time>2026-04-27T11:02:55.028Z</time></trkpt><trkpt lat="32.901294" lon="9.989842"><ele>356.0</ele><time>2026-04-27T11:02:56.026Z</time></trkpt><trkpt lat="32.9013537" lon="9.9895743"><ele>354.0</ele><time>2026-04-27T11:02:57.029Z</time></trkpt><trkpt lat="32.9014386" lon="9.9893142"><ele>351.5</ele><time>2026-04-27T11:02:58.031Z</time></trkpt><trkpt lat="32.901551" lon="9.9890677"><ele>349.0</ele><time>2026-04-27T11:02:59.028Z</time></trkpt><trkpt lat="32.9016658" lon="9.9888392"><ele>347.5</ele><time>2026-04-27T11:03:00.027Z</time></trkpt><trkpt lat="32.9017952" lon="9.9886112"><ele>346.0</ele><time>2026-04-27T11:03:01.027Z</time></trkpt><trkpt lat="32.9019304" lon="9.9883818"><ele>344.5</ele><time>2026-04-27T11:03:02.023Z</time></trkpt><trkpt lat="32.9020554" lon="9.9881418"><ele>343.0</ele><time>2026-04-27T11:03:03.026Z</time></trkpt><trkpt lat="32.9021816" lon="9.9878989"><ele>343.0</ele><time>2026-04-27T11:03:04.031Z</time></trkpt><trkpt lat="32.902313" lon="9.9876674"><ele>343.0</ele><time>2026-04-27T11:03:05.032Z</time></trkpt><trkpt lat="32.9024513" lon="9.9874422"><ele>344.0</ele><time>2026-04-27T11:03:06.026Z</time></trkpt><trkpt lat="32.9025831" lon="9.98721"><ele>345.0</ele><time>2026-04-27T11:03:07.016Z</time></trkpt><trkpt lat="32.9026987" lon="9.9869675"><ele>345.0</ele><time>2026-04-27T11:03:08.024Z</time></trkpt><trkpt lat="32.9028265" lon="9.9867343"><ele>345.0</ele><time>2026-04-27T11:03:09.032Z</time></trkpt><trkpt lat="32.9029642" lon="9.9865126"><ele>345.0</ele><time>2026-04-27T11:03:10.025Z</time></trkpt><trkpt lat="32.9030891" lon="9.9863015"><ele>345.0</ele><time>2026-04-27T11:03:11.027Z</time></trkpt><trkpt lat="32.9031927" lon="9.9860994"><ele>345.0</ele><time>2026-04-27T11:03:12.033Z</time></trkpt><trkpt lat="32.903295" lon="9.9858937"><ele>345.0</ele><time>2026-04-27T11:03:13.031Z</time></trkpt><trkpt lat="32.9033855" lon="9.9856954"><ele>345.0</ele><time>2026-04-27T11:03:14.022Z</time></trkpt><trkpt lat="32.9034646" lon="9.9854864"><ele>345.0</ele><time>2026-04-27T11:03:15.029Z</time></trkpt><trkpt lat="32.9035234" lon="9.9852752"><ele>345.0</ele><time>2026-04-27T11:03:16.015Z</time></trkpt><trkpt lat="32.9035787" lon="9.9850639"><ele>345.0</ele><time>2026-04-27T11:03:17.033Z</time></trkpt><trkpt lat="32.9036484" lon="9.9848547"><ele>345.0</ele><time>2026-04-27T11:03:18.027Z</time></trkpt><trkpt lat="32.9036867" lon="9.9846486"><ele>346.0</ele><time>2026-04-27T11:03:19.02Z</time></trkpt><trkpt lat="32.9037042" lon="9.9844293"><ele>347.0</ele><time>2026-04-27T11:03:20.028Z</time></trkpt><trkpt lat="32.9037358" lon="9.9842133"><ele>348.0</ele><time>2026-04-27T11:03:21.03Z</time></trkpt><trkpt lat="32.9037751" lon="9.9839958"><ele>348.6666666666667</ele><time>2026-04-27T11:03:22.017Z</time></trkpt><trkpt lat="32.9038027" lon="9.9837732"><ele>349.33333333333337</ele><time>2026-04-27T11:03:23.027Z</time></trkpt><trkpt lat="32.9038259" lon="9.983541"><ele>350.0</ele><time>2026-04-27T11:03:24.03Z</time></trkpt><trkpt lat="32.9038558" lon="9.9833111"><ele>350.6666666666667</ele><time>2026-04-27T11:03:25.031Z</time></trkpt><trkpt lat="32.9038876" lon="9.9830767"><ele>351.3333333333333</ele><time>2026-04-27T11:03:26.024Z</time></trkpt><trkpt lat="32.9039216" lon="9.982838"><ele>352.0</ele><time>2026-04-27T11:03:27.026Z</time></trkpt><trkpt lat="32.9039479" lon="9.9826017"><ele>352.66666666666663</ele><time>2026-04-27T11:03:28.023Z</time></trkpt><trkpt lat="32.9039738" lon="9.9823645"><ele>353.3333333333333</ele><time>2026-04-27T11:03:29.026Z</time></trkpt><trkpt lat="32.9040069" lon="9.982133"><ele>354.0</ele><time>2026-04-27T11:03:30.029Z</time></trkpt><trkpt lat="32.9040394" lon="9.9818963"><ele>354.6666666666667</ele><time>2026-04-27T11:03:31.023Z</time></trkpt><trkpt lat="32.9040708" lon="9.9816601"><ele>355.33333333333337</ele><time>2026-04-27T11:03:32.025Z</time></trkpt><trkpt lat="32.9040973" lon="9.9814247"><ele>356.0</ele><time>2026-04-27T11:03:33.027Z</time></trkpt><trkpt lat="32.9041249" lon="9.9811866"><ele>356.0</ele><time>2026-04-27T11:03:34.025Z</time></trkpt><trkpt lat="32.9041474" lon="9.9809513"><ele>356.0</ele><time>2026-04-27T11:03:35.029Z</time></trkpt><trkpt lat="32.9041713" lon="9.9807091"><ele>356.0</ele><time>2026-04-27T11:03:36.018Z</time></trkpt><trkpt lat="32.9041738" lon="9.9804665"><ele>355.6666666666667</ele><time>2026-04-27T11:03:37.018Z</time></trkpt><trkpt lat="32.9041761" lon="9.9802281"><ele>355.3333333333333</ele><time>2026-04-27T11:03:38.016Z</time></trkpt><trkpt lat="32.9041847" lon="9.9799828"><ele>355.0</ele><time>2026-04-27T11:03:39.022Z</time></trkpt><trkpt lat="32.9042167" lon="9.9797387"><ele>355.3333333333333</ele><time>2026-04-27T11:03:40.02Z</time></trkpt><trkpt lat="32.9042532" lon="9.9795061"><ele>355.6666666666667</ele><time>2026-04-27T11:03:41.027Z</time></trkpt><trkpt lat="32.9042687" lon="9.9792731"><ele>356.0</ele><time>2026-04-27T11:03:42.028Z</time></trkpt><trkpt lat="32.9042595" lon="9.9790374"><ele>354.0</ele><time>2026-04-27T11:03:43.028Z</time></trkpt><trkpt lat="32.904264" lon="9.9787941"><ele>352.0</ele><time>2026-04-27T11:03:44.019Z</time></trkpt><trkpt lat="32.9042887" lon="9.9785535"><ele>350.0</ele><time>2026-04-27T11:03:45.018Z</time></trkpt><trkpt lat="32.9043218" lon="9.9783258"><ele>349.0</ele><time>2026-04-27T11:03:46.025Z</time></trkpt><trkpt lat="32.9043319" lon="9.9780915"><ele>348.0</ele><time>2026-04-27T11:03:47.024Z</time></trkpt><trkpt lat="32.9043268" lon="9.977848"><ele>347.0</ele><time>2026-04-27T11:03:48.029Z</time></trkpt><trkpt lat="32.9043257" lon="9.9776118"><ele>347.6666666666667</ele><time>2026-04-27T11:03:49.02Z</time></trkpt><trkpt lat="32.9043597" lon="9.9773908"><ele>348.3333333333333</ele><time>2026-04-27T11:03:50.026Z</time></trkpt><trkpt lat="32.904384" lon="9.9771894"><ele>349.0</ele><time>2026-04-27T11:03:51.023Z</time></trkpt><trkpt lat="32.9043767" lon="9.9769726"><ele>349.0</ele><time>2026-04-27T11:03:52.022Z</time></trkpt><trkpt lat="32.9043814" lon="9.976748"><ele>349.0</ele><time>2026-04-27T11:03:53.024Z</time></trkpt><trkpt lat="32.9043947" lon="9.9765178"><ele>349.0</ele><time>2026-04-27T11:03:54.028Z</time></trkpt><trkpt lat="32.9044176" lon="9.9763004"><ele>349.0</ele><time>2026-04-27T11:03:55.024Z</time></trkpt><trkpt lat="32.9044303" lon="9.9760836"><ele>349.0</ele><time>2026-04-27T11:03:56.026Z</time></trkpt><trkpt lat="32.9044443" lon="9.9758663"><ele>349.0</ele><time>2026-04-27T11:03:57.027Z</time></trkpt><trkpt lat="32.904459" lon="9.9756333"><ele>349.0</ele><time>2026-04-27T11:03:58.034Z</time></trkpt><trkpt lat="32.9044765" lon="9.9754132"><ele>349.0</ele><time>2026-04-27T11:03:59.028Z</time></trkpt><trkpt lat="32.9044971" lon="9.9751931"><ele>349.0</ele><time>2026-04-27T11:04:00.022Z</time></trkpt><trkpt lat="32.9045211" lon="9.9749715"><ele>349.0</ele><time>2026-04-27T11:04:01.025Z</time></trkpt><trkpt lat="32.9045673" lon="9.9747612"><ele>349.0</ele><time>2026-04-27T11:04:02.027Z</time></trkpt><trkpt lat="32.9046162" lon="9.9745429"><ele>349.0</ele><time>2026-04-27T11:04:03.024Z</time></trkpt><trkpt lat="32.904641" lon="9.9743277"><ele>347.3333333333333</ele><time>2026-04-27T11:04:04.026Z</time></trkpt><trkpt lat="32.9046647" lon="9.9741066"><ele>345.6666666666667</ele><time>2026-04-27T11:04:05.023Z</time></trkpt><trkpt lat="32.9047167" lon="9.9738868"><ele>344.0</ele><time>2026-04-27T11:04:06.026Z</time></trkpt><trkpt lat="32.9047777" lon="9.9736774"><ele>344.0</ele><time>2026-04-27T11:04:07.029Z</time></trkpt><trkpt lat="32.9048089" lon="9.9734433"><ele>344.0</ele><time>2026-04-27T11:04:08.021Z</time></trkpt><trkpt lat="32.9048255" lon="9.973219"><ele>344.0</ele><time>2026-04-27T11:04:09.019Z</time></trkpt><trkpt lat="32.9048789" lon="9.973007"><ele>342.6666666666667</ele><time>2026-04-27T11:04:10.026Z</time></trkpt><trkpt lat="32.9049357" lon="9.972801"><ele>341.3333333333333</ele><time>2026-04-27T11:04:11.03Z</time></trkpt><trkpt lat="32.9049828" lon="9.9725785"><ele>340.0</ele><time>2026-04-27T11:04:12.022Z</time></trkpt><trkpt lat="32.9050091" lon="9.9723539"><ele>340.3333333333333</ele><time>2026-04-27T11:04:13.017Z</time></trkpt><trkpt lat="32.9050395" lon="9.972125"><ele>340.6666666666667</ele><time>2026-04-27T11:04:14.021Z</time></trkpt><trkpt lat="32.9050972" lon="9.9719196"><ele>341.0</ele><time>2026-04-27T11:04:15.025Z</time></trkpt><trkpt lat="32.9051544" lon="9.9717091"><ele>341.0</ele><time>2026-04-27T11:04:16.024Z</time></trkpt><trkpt lat="32.905198" lon="9.9714962"><ele>341.0</ele><time>2026-04-27T11:04:17.021Z</time></trkpt><trkpt lat="32.9052208" lon="9.971278"><ele>341.0</ele><time>2026-04-27T11:04:18.03Z</time></trkpt><trkpt lat="32.9052535" lon="9.9710498"><ele>340.6666666666667</ele><time>2026-04-27T11:04:19.021Z</time></trkpt><trkpt lat="32.9053016" lon="9.970843"><ele>340.3333333333333</ele><time>2026-04-27T11:04:20.022Z</time></trkpt><trkpt lat="32.905364" lon="9.97063"><ele>340.0</ele><time>2026-04-27T11:04:21.029Z</time></trkpt><trkpt lat="32.9053954" lon="9.9704005"><ele>340.0</ele><time>2026-04-27T11:04:22.02Z</time></trkpt><trkpt lat="32.9054287" lon="9.9701708"><ele>340.0</ele><time>2026-04-27T11:04:23.029Z</time></trkpt><trkpt lat="32.9054611" lon="9.9699452"><ele>340.0</ele><time>2026-04-27T11:04:24.028Z</time></trkpt><trkpt lat="32.9054895" lon="9.96972"><ele>339.66666666666663</ele><time>2026-04-27T11:04:25.022Z</time></trkpt><trkpt lat="32.9055056" lon="9.9694999"><ele>339.3333333333333</ele><time>2026-04-27T11:04:26.029Z</time></trkpt><trkpt lat="32.9055243" lon="9.9692795"><ele>339.0</ele><time>2026-04-27T11:04:27.033Z</time></trkpt><trkpt lat="32.9055349" lon="9.9690594"><ele>339.0</ele><time>2026-04-27T11:04:28.034Z</time></trkpt><trkpt lat="32.9055405" lon="9.9688406"><ele>339.0</ele><time>2026-04-27T11:04:29.032Z</time></trkpt><trkpt lat="32.9055435" lon="9.9686297"><ele>339.0</ele><time>2026-04-27T11:04:30.026Z</time></trkpt><trkpt lat="32.9055508" lon="9.9684182"><ele>339.0</ele><time>2026-04-27T11:04:31.019Z</time></trkpt><trkpt lat="32.9055525" lon="9.9682124"><ele>339.0</ele><time>2026-04-27T11:04:32.021Z</time></trkpt><trkpt lat="32.9055533" lon="9.9680002"><ele>339.0</ele><time>2026-04-27T11:04:33.032Z</time></trkpt><trkpt lat="32.9055518" lon="9.9677799"><ele>339.0</ele><time>2026-04-27T11:04:34.024Z</time></trkpt><trkpt lat="32.9055506" lon="9.9675625"><ele>339.0</ele><time>2026-04-27T11:04:35.028Z</time></trkpt><trkpt lat="32.9055523" lon="9.967348"><ele>339.0</ele><time>2026-04-27T11:04:36.033Z</time></trkpt><trkpt lat="32.905556" lon="9.9671402"><ele>338.0</ele><time>2026-04-27T11:04:37.029Z</time></trkpt><trkpt lat="32.9055602" lon="9.9669327"><ele>337.0</ele><time>2026-04-27T11:04:38.023Z</time></trkpt><trkpt lat="32.9055605" lon="9.9667296"><ele>336.0</ele><time>2026-04-27T11:04:39.024Z</time></trkpt><trkpt lat="32.905566" lon="9.9665272"><ele>336.0</ele><time>2026-04-27T11:04:40.027Z</time></trkpt><trkpt lat="32.9055748" lon="9.966328"><ele>336.0</ele><time>2026-04-27T11:04:41.031Z</time></trkpt><trkpt lat="32.9055962" lon="9.9661191"><ele>336.0</ele><time>2026-04-27T11:04:42.029Z</time></trkpt><trkpt lat="32.905628" lon="9.9659129"><ele>335.3333333333333</ele><time>2026-04-27T11:04:43.025Z</time></trkpt><trkpt lat="32.9056635" lon="9.9657072"><ele>334.66666666666663</ele><time>2026-04-27T11:04:44.015Z</time></trkpt><trkpt lat="32.9057059" lon="9.9654966"><ele>334.0</ele><time>2026-04-27T11:04:45.017Z</time></trkpt><trkpt lat="32.9057579" lon="9.9652885"><ele>334.0</ele><time>2026-04-27T11:04:46.029Z</time></trkpt><trkpt lat="32.905826" lon="9.9650811"><ele>334.0</ele><time>2026-04-27T11:04:47.018Z</time></trkpt><trkpt lat="32.9058914" lon="9.9648657"><ele>334.0</ele><time>2026-04-27T11:04:48.023Z</time></trkpt><trkpt lat="32.9059493" lon="9.9646414"><ele>334.66666666666663</ele><time>2026-04-27T11:04:49.023Z</time></trkpt><trkpt lat="32.9060249" lon="9.9644247"><ele>335.3333333333333</ele><time>2026-04-27T11:04:50.013Z</time></trkpt><trkpt lat="32.9061076" lon="9.9642042"><ele>336.0</ele><time>2026-04-27T11:04:51.028Z</time></trkpt><trkpt lat="32.9061721" lon="9.963988"><ele>334.3333333333333</ele><time>2026-04-27T11:04:52.027Z</time></trkpt><trkpt lat="32.9062243" lon="9.9637523"><ele>332.66666666666663</ele><time>2026-04-27T11:04:53.027Z</time></trkpt><trkpt lat="32.9062879" lon="9.9635301"><ele>331.0</ele><time>2026-04-27T11:04:54.029Z</time></trkpt><trkpt lat="32.9063724" lon="9.9633165"><ele>330.66666666666663</ele><time>2026-04-27T11:04:55.029Z</time></trkpt><trkpt lat="32.906449" lon="9.9630941"><ele>330.3333333333333</ele><time>2026-04-27T11:04:56.019Z</time></trkpt><trkpt lat="32.9065082" lon="9.9628616"><ele>330.0</ele><time>2026-04-27T11:04:57.017Z</time></trkpt><trkpt lat="32.9065748" lon="9.9626337"><ele>330.0</ele><time>2026-04-27T11:04:58.03Z</time></trkpt><trkpt lat="32.906658" lon="9.9624191"><ele>330.0</ele><time>2026-04-27T11:04:59.023Z</time></trkpt><trkpt lat="32.9067396" lon="9.9621996"><ele>330.0</ele><time>2026-04-27T11:05:00.026Z</time></trkpt><trkpt lat="32.9067966" lon="9.9619669"><ele>330.0</ele><time>2026-04-27T11:05:01.027Z</time></trkpt><trkpt lat="32.9068491" lon="9.9617317"><ele>330.0</ele><time>2026-04-27T11:05:02.026Z</time></trkpt><trkpt lat="32.90691" lon="9.9615122"><ele>330.0</ele><time>2026-04-27T11:05:03.029Z</time></trkpt><trkpt lat="32.9069561" lon="9.9612906"><ele>330.0</ele><time>2026-04-27T11:05:04.03Z</time></trkpt><trkpt lat="32.9069855" lon="9.9610651"><ele>330.0</ele><time>2026-04-27T11:05:05.027Z</time></trkpt><trkpt lat="32.9070224" lon="9.9608393"><ele>330.0</ele><time>2026-04-27T11:05:06.016Z</time></trkpt><trkpt lat="32.9070517" lon="9.9606234"><ele>329.3333333333333</ele><time>2026-04-27T11:05:07.024Z</time></trkpt><trkpt lat="32.9070738" lon="9.9603976"><ele>328.66666666666663</ele><time>2026-04-27T11:05:08.029Z</time></trkpt><trkpt lat="32.9070726" lon="9.9601672"><ele>328.0</ele><time>2026-04-27T11:05:09.033Z</time></trkpt><trkpt lat="32.9070675" lon="9.9599409"><ele>328.0</ele><time>2026-04-27T11:05:10.027Z</time></trkpt><trkpt lat="32.9070624" lon="9.9597133"><ele>328.0</ele><time>2026-04-27T11:05:11.019Z</time></trkpt><trkpt lat="32.9070483" lon="9.959481"><ele>328.0</ele><time>2026-04-27T11:05:12.022Z</time></trkpt><trkpt lat="32.907025" lon="9.9592546"><ele>329.3333333333333</ele><time>2026-04-27T11:05:13.029Z</time></trkpt><trkpt lat="32.9070172" lon="9.9590304"><ele>330.6666666666667</ele><time>2026-04-27T11:05:14.029Z</time></trkpt><trkpt lat="32.9069988" lon="9.9588097"><ele>332.0</ele><time>2026-04-27T11:05:15.023Z</time></trkpt><trkpt lat="32.9069704" lon="9.9585825"><ele>332.33333333333337</ele><time>2026-04-27T11:05:16.014Z</time></trkpt><trkpt lat="32.9069519" lon="9.9583531"><ele>332.6666666666667</ele><time>2026-04-27T11:05:17.025Z</time></trkpt><trkpt lat="32.9069439" lon="9.9581277"><ele>333.0</ele><time>2026-04-27T11:05:18.026Z</time></trkpt><trkpt lat="32.9069243" lon="9.9578963"><ele>333.0</ele><time>2026-04-27T11:05:19.029Z</time></trkpt><trkpt lat="32.9068973" lon="9.9576704"><ele>333.0</ele><time>2026-04-27T11:05:20.02Z</time></trkpt><trkpt lat="32.9068822" lon="9.9574414"><ele>333.0</ele><time>2026-04-27T11:05:21.017Z</time></trkpt><trkpt lat="32.9068775" lon="9.957209"><ele>332.0</ele><time>2026-04-27T11:05:22.026Z</time></trkpt><trkpt lat="32.9068585" lon="9.9569783"><ele>331.0</ele><time>2026-04-27T11:05:23.016Z</time></trkpt><trkpt lat="32.9068195" lon="9.9567541"><ele>330.0</ele><time>2026-04-27T11:05:24.031Z</time></trkpt><trkpt lat="32.9067918" lon="9.9565237"><ele>329.3333333333333</ele><time>2026-04-27T11:05:25.017Z</time></trkpt><trkpt lat="32.9067818" lon="9.9562913"><ele>328.66666666666663</ele><time>2026-04-27T11:05:26.028Z</time></trkpt><trkpt lat="32.9067722" lon="9.9560534"><ele>328.0</ele><time>2026-04-27T11:05:27.022Z</time></trkpt><trkpt lat="32.9067389" lon="9.9558208"><ele>326.66666666666663</ele><time>2026-04-27T11:05:28.017Z</time></trkpt><trkpt lat="32.9067186" lon="9.9555854"><ele>325.3333333333333</ele><time>2026-04-27T11:05:29.027Z</time></trkpt><trkpt lat="32.9067137" lon="9.9553586"><ele>324.0</ele><time>2026-04-27T11:05:30.025Z</time></trkpt><trkpt lat="32.9067006" lon="9.9551171"><ele>324.0</ele><time>2026-04-27T11:05:31.03Z</time></trkpt><trkpt lat="32.906667" lon="9.9548836"><ele>324.0</ele><time>2026-04-27T11:05:32.021Z</time></trkpt><trkpt lat="32.9066417" lon="9.9546509"><ele>324.0</ele><time>2026-04-27T11:05:33.022Z</time></trkpt><trkpt lat="32.9066266" lon="9.9544158"><ele>323.6666666666667</ele><time>2026-04-27T11:05:34.027Z</time></trkpt><trkpt lat="32.9066242" lon="9.9541776"><ele>323.33333333333337</ele><time>2026-04-27T11:05:35.016Z</time></trkpt><trkpt lat="32.9066022" lon="9.9539447"><ele>323.0</ele><time>2026-04-27T11:05:36.028Z</time></trkpt><trkpt lat="32.9065779" lon="9.9537077"><ele>323.0</ele><time>2026-04-27T11:05:37.019Z</time></trkpt><trkpt lat="32.906566" lon="9.9534737"><ele>323.0</ele><time>2026-04-27T11:05:38.025Z</time></trkpt><trkpt lat="32.9065491" lon="9.9532408"><ele>323.0</ele><time>2026-04-27T11:05:39.031Z</time></trkpt><trkpt lat="32.906519" lon="9.9530114"><ele>323.33333333333337</ele><time>2026-04-27T11:05:40.024Z</time></trkpt><trkpt lat="32.9065027" lon="9.9527785"><ele>323.6666666666667</ele><time>2026-04-27T11:05:41.018Z</time></trkpt><trkpt lat="32.9065046" lon="9.9525351"><ele>324.0</ele><time>2026-04-27T11:05:42.022Z</time></trkpt><trkpt lat="32.9064949" lon="9.9523004"><ele>324.0</ele><time>2026-04-27T11:05:43.03Z</time></trkpt><trkpt lat="32.9064654" lon="9.9520717"><ele>324.0</ele><time>2026-04-27T11:05:44.018Z</time></trkpt><trkpt lat="32.9064404" lon="9.9518446"><ele>324.0</ele><time>2026-04-27T11:05:45.027Z</time></trkpt><trkpt lat="32.9064404" lon="9.9516083"><ele>323.3333333333333</ele><time>2026-04-27T11:05:46.032Z</time></trkpt><trkpt lat="32.9064551" lon="9.9513679"><ele>322.66666666666663</ele><time>2026-04-27T11:05:47.024Z</time></trkpt><trkpt lat="32.9064477" lon="9.9511306"><ele>322.0</ele><time>2026-04-27T11:05:48.023Z</time></trkpt><trkpt lat="32.9064482" lon="9.9508962"><ele>321.3333333333333</ele><time>2026-04-27T11:05:49.024Z</time></trkpt><trkpt lat="32.9064787" lon="9.9506621"><ele>320.6666666666667</ele><time>2026-04-27T11:05:50.02Z</time></trkpt><trkpt lat="32.9065064" lon="9.9504282"><ele>320.0</ele><time>2026-04-27T11:05:51.028Z</time></trkpt><trkpt lat="32.9065244" lon="9.9501938"><ele>319.33333333333337</ele><time>2026-04-27T11:05:52.02Z</time></trkpt><trkpt lat="32.9065463" lon="9.9499594"><ele>318.6666666666667</ele><time>2026-04-27T11:05:53.017Z</time></trkpt><trkpt lat="32.9065828" lon="9.9497283"><ele>318.0</ele><time>2026-04-27T11:05:54.02Z</time></trkpt><trkpt lat="32.9066181" lon="9.9494926"><ele>318.0</ele><time>2026-04-27T11:05:55.025Z</time></trkpt><trkpt lat="32.9066369" lon="9.9492522"><ele>318.0</ele><time>2026-04-27T11:05:56.019Z</time></trkpt><trkpt lat="32.9066627" lon="9.9490153"><ele>318.0</ele><time>2026-04-27T11:05:57.025Z</time></trkpt><trkpt lat="32.9066914" lon="9.9487804"><ele>318.0</ele><time>2026-04-27T11:05:58.022Z</time></trkpt><trkpt lat="32.9067182" lon="9.9485499"><ele>318.0</ele><time>2026-04-27T11:05:59.026Z</time></trkpt><trkpt lat="32.9067416" lon="9.9483308"><ele>318.0</ele><time>2026-04-27T11:06:00.035Z</time></trkpt><trkpt lat="32.9067582" lon="9.9481332"><ele>318.0</ele><time>2026-04-27T11:06:01.026Z</time></trkpt><trkpt lat="32.9067642" lon="9.9479398"><ele>318.0</ele><time>2026-04-27T11:06:02.025Z</time></trkpt><trkpt lat="32.9067556" lon="9.9477595"><ele>318.0</ele><time>2026-04-27T11:06:03.032Z</time></trkpt><trkpt lat="32.9067359" lon="9.947592"><ele>317.75</ele><time>2026-04-27T11:06:04.018Z</time></trkpt><trkpt lat="32.9067062" lon="9.9474266"><ele>317.5</ele><time>2026-04-27T11:06:05.025Z</time></trkpt><trkpt lat="32.9066683" lon="9.9472696"><ele>317.25</ele><time>2026-04-27T11:06:06.031Z</time></trkpt><trkpt lat="32.9066242" lon="9.947123"><ele>317.0</ele><time>2026-04-27T11:06:07.016Z</time></trkpt><trkpt lat="32.9065767" lon="9.9469803"><ele>317.0</ele><time>2026-04-27T11:06:08.017Z</time></trkpt><trkpt lat="32.9065194" lon="9.9468317"><ele>317.0</ele><time>2026-04-27T11:06:09.02Z</time></trkpt><trkpt lat="32.9064481" lon="9.9466887"><ele>317.0</ele><time>2026-04-27T11:06:10.026Z</time></trkpt><trkpt lat="32.9063774" lon="9.9465449"><ele>317.0</ele><time>2026-04-27T11:06:11.029Z</time></trkpt><trkpt lat="32.9062941" lon="9.946411"><ele>316.25</ele><time>2026-04-27T11:06:12.025Z</time></trkpt><trkpt lat="32.90621" lon="9.9462716"><ele>315.5</ele><time>2026-04-27T11:06:13.021Z</time></trkpt><trkpt lat="32.9061173" lon="9.9461366"><ele>314.75</ele><time>2026-04-27T11:06:14.015Z</time></trkpt><trkpt lat="32.9060237" lon="9.945998"><ele>314.0</ele><time>2026-04-27T11:06:15.025Z</time></trkpt><trkpt lat="32.905937" lon="9.945854"><ele>315.33333333333337</ele><time>2026-04-27T11:06:16.024Z</time></trkpt><trkpt lat="32.9058469" lon="9.9457058"><ele>316.6666666666667</ele><time>2026-04-27T11:06:17.019Z</time></trkpt><trkpt lat="32.9057572" lon="9.9455615"><ele>318.0</ele><time>2026-04-27T11:06:18.017Z</time></trkpt><trkpt lat="32.9056695" lon="9.9454171"><ele>318.0</ele><time>2026-04-27T11:06:19.026Z</time></trkpt><trkpt lat="32.9055766" lon="9.9452773"><ele>318.0</ele><time>2026-04-27T11:06:20.026Z</time></trkpt><trkpt lat="32.9054919" lon="9.9451382"><ele>318.0</ele><time>2026-04-27T11:06:21.017Z</time></trkpt><trkpt lat="32.9054123" lon="9.9450056"><ele>318.0</ele><time>2026-04-27T11:06:22.016Z</time></trkpt><trkpt lat="32.9053325" lon="9.9448707"><ele>318.25</ele><time>2026-04-27T11:06:23.024Z</time></trkpt><trkpt lat="32.9052462" lon="9.9447394"><ele>318.5</ele><time>2026-04-27T11:06:24.028Z</time></trkpt><trkpt lat="32.9051552" lon="9.9446092"><ele>318.75</ele><time>2026-04-27T11:06:25.025Z</time></trkpt><trkpt lat="32.9050665" lon="9.9444757"><ele>319.0</ele><time>2026-04-27T11:06:26.027Z</time></trkpt><trkpt lat="32.9049804" lon="9.9443359"><ele>319.25</ele><time>2026-04-27T11:06:27.027Z</time></trkpt><trkpt lat="32.9048968" lon="9.9441924"><ele>319.5</ele><time>2026-04-27T11:06:28.023Z</time></trkpt><trkpt lat="32.9048131" lon="9.9440489"><ele>319.75</ele><time>2026-04-27T11:06:29.017Z</time></trkpt><trkpt lat="32.9047305" lon="9.9439059"><ele>320.0</ele><time>2026-04-27T11:06:30.016Z</time></trkpt><trkpt lat="32.9046449" lon="9.9437665"><ele>320.0</ele><time>2026-04-27T11:06:31.029Z</time></trkpt><trkpt lat="32.9045512" lon="9.9436293"><ele>320.0</ele><time>2026-04-27T11:06:32.031Z</time></trkpt><trkpt lat="32.9044611" lon="9.9434932"><ele>320.0</ele><time>2026-04-27T11:06:33.027Z</time></trkpt><trkpt lat="32.904371" lon="9.9433501"><ele>320.0</ele><time>2026-04-27T11:06:34.027Z</time></trkpt><trkpt lat="32.9042804" lon="9.9432054"><ele>319.25</ele><time>2026-04-27T11:06:35.029Z</time></trkpt><trkpt lat="32.9041965" lon="9.9430629"><ele>318.5</ele><time>2026-04-27T11:06:36.02Z</time></trkpt><trkpt lat="32.9041039" lon="9.9429235"><ele>317.75</ele><time>2026-04-27T11:06:37.03Z</time></trkpt><trkpt lat="32.9040159" lon="9.9427849"><ele>317.0</ele><time>2026-04-27T11:06:38.021Z</time></trkpt><trkpt lat="32.903928" lon="9.9426491"><ele>318.75</ele><time>2026-04-27T11:06:39.018Z</time></trkpt><trkpt lat="32.9038431" lon="9.9425149"><ele>320.5</ele><time>2026-04-27T11:06:40.023Z</time></trkpt><trkpt lat="32.9037533" lon="9.942379"><ele>322.25</ele><time>2026-04-27T11:06:41.018Z</time></trkpt><trkpt lat="32.9036605" lon="9.9422431"><ele>324.0</ele><time>2026-04-27T11:06:42.026Z</time></trkpt><trkpt lat="32.9035755" lon="9.9421007"><ele>324.0</ele><time>2026-04-27T11:06:43.027Z</time></trkpt><trkpt lat="32.9034909" lon="9.9419632"><ele>324.0</ele><time>2026-04-27T11:06:44.025Z</time></trkpt><trkpt lat="32.9034063" lon="9.9418195"><ele>324.0</ele><time>2026-04-27T11:06:45.017Z</time></trkpt><trkpt lat="32.9033219" lon="9.9416769"><ele>324.0</ele><time>2026-04-27T11:06:46.027Z</time></trkpt><trkpt lat="32.9032399" lon="9.9415448"><ele>323.25</ele><time>2026-04-27T11:06:47.018Z</time></trkpt><trkpt lat="32.9031556" lon="9.9414116"><ele>322.5</ele><time>2026-04-27T11:06:48.019Z</time></trkpt><trkpt lat="32.9030705" lon="9.9412767"><ele>321.75</ele><time>2026-04-27T11:06:49.027Z</time></trkpt><trkpt lat="32.9029808" lon="9.9411419"><ele>321.0</ele><time>2026-04-27T11:06:50.016Z</time></trkpt><trkpt lat="32.9028888" lon="9.9410086"><ele>322.0</ele><time>2026-04-27T11:06:51.024Z</time></trkpt><trkpt lat="32.90279" lon="9.9408745"><ele>323.0</ele><time>2026-04-27T11:06:52.024Z</time></trkpt><trkpt lat="32.9026893" lon="9.9407392"><ele>324.0</ele><time>2026-04-27T11:06:53.023Z</time></trkpt><trkpt lat="32.9025914" lon="9.9406026"><ele>322.6666666666667</ele><time>2026-04-27T11:06:54.026Z</time></trkpt><trkpt lat="32.9024935" lon="9.9404666"><ele>321.33333333333337</ele><time>2026-04-27T11:06:55.029Z</time></trkpt><trkpt lat="32.9023921" lon="9.9403292"><ele>320.0</ele><time>2026-04-27T11:06:56.03Z</time></trkpt><trkpt lat="32.9022918" lon="9.9401976"><ele>320.0</ele><time>2026-04-27T11:06:57.031Z</time></trkpt><trkpt lat="32.9021819" lon="9.9400716"><ele>320.0</ele><time>2026-04-27T11:06:58.025Z</time></trkpt><trkpt lat="32.9020735" lon="9.939952"><ele>320.0</ele><time>2026-04-27T11:06:59.02Z</time></trkpt><trkpt lat="32.9019681" lon="9.9398224"><ele>320.25</ele><time>2026-04-27T11:07:00.027Z</time></trkpt><trkpt lat="32.901864" lon="9.9397007"><ele>320.5</ele><time>2026-04-27T11:07:01.025Z</time></trkpt><trkpt lat="32.9017499" lon="9.9395813"><ele>320.75</ele><time>2026-04-27T11:07:02.029Z</time></trkpt><trkpt lat="32.9016335" lon="9.9394722"><ele>321.0</ele><time>2026-04-27T11:07:03.028Z</time></trkpt><trkpt lat="32.9015239" lon="9.939343"><ele>321.0</ele><time>2026-04-27T11:07:04.017Z</time></trkpt><trkpt lat="32.9014082" lon="9.9392216"><ele>321.0</ele><time>2026-04-27T11:07:05.019Z</time></trkpt><trkpt lat="32.9012886" lon="9.9391067"><ele>321.0</ele><time>2026-04-27T11:07:06.029Z</time></trkpt><trkpt lat="32.9011684" lon="9.9389806"><ele>321.3333333333333</ele><time>2026-04-27T11:07:07.02Z</time></trkpt><trkpt lat="32.9010504" lon="9.938851"><ele>321.66666666666663</ele><time>2026-04-27T11:07:08.03Z</time></trkpt><trkpt lat="32.9009291" lon="9.9387143"><ele>322.0</ele><time>2026-04-27T11:07:09.035Z</time></trkpt><trkpt lat="32.9008096" lon="9.9385901"><ele>322.0</ele><time>2026-04-27T11:07:10.022Z</time></trkpt><trkpt lat="32.9006963" lon="9.9384575"><ele>322.0</ele><time>2026-04-27T11:07:11.026Z</time></trkpt><trkpt lat="32.900583" lon="9.9383347"><ele>322.0</ele><time>2026-04-27T11:07:12.022Z</time></trkpt><trkpt lat="32.9004677" lon="9.9382167"><ele>322.3333333333333</ele><time>2026-04-27T11:07:13.02Z</time></trkpt><trkpt lat="32.9003511" lon="9.9380956"><ele>322.6666666666667</ele><time>2026-04-27T11:07:14.016Z</time></trkpt><trkpt lat="32.9002325" lon="9.9379708"><ele>323.0</ele><time>2026-04-27T11:07:15.017Z</time></trkpt><trkpt lat="32.9001163" lon="9.9378604"><ele>323.0</ele><time>2026-04-27T11:07:16.031Z</time></trkpt><trkpt lat="32.9000031" lon="9.9377482"><ele>323.0</ele><time>2026-04-27T11:07:17.031Z</time></trkpt><trkpt lat="32.8998964" lon="9.9376293"><ele>323.0</ele><time>2026-04-27T11:07:18.029Z</time></trkpt><trkpt lat="32.8997917" lon="9.9375124"><ele>323.0</ele><time>2026-04-27T11:07:19.028Z</time></trkpt><trkpt lat="32.8996808" lon="9.9373966"><ele>323.0</ele><time>2026-04-27T11:07:20.018Z</time></trkpt><trkpt lat="32.8995765" lon="9.9372828"><ele>323.0</ele><time>2026-04-27T11:07:21.017Z</time></trkpt><trkpt lat="32.8994645" lon="9.9371666"><ele>323.0</ele><time>2026-04-27T11:07:22.022Z</time></trkpt><trkpt lat="32.8993539" lon="9.9370567"><ele>323.0</ele><time>2026-04-27T11:07:23.019Z</time></trkpt><trkpt lat="32.8992415" lon="9.9369351"><ele>323.0</ele><time>2026-04-27T11:07:24.032Z</time></trkpt><trkpt lat="32.8991258" lon="9.9368201"><ele>323.0</ele><time>2026-04-27T11:07:25.034Z</time></trkpt><trkpt lat="32.8990102" lon="9.9366995"><ele>323.0</ele><time>2026-04-27T11:07:26.032Z</time></trkpt><trkpt lat="32.8988926" lon="9.9365725"><ele>322.6666666666667</ele><time>2026-04-27T11:07:27.027Z</time></trkpt><trkpt lat="32.8987735" lon="9.936447"><ele>322.3333333333333</ele><time>2026-04-27T11:07:28.034Z</time></trkpt><trkpt lat="32.8986545" lon="9.9363203"><ele>322.0</ele><time>2026-04-27T11:07:29.023Z</time></trkpt><trkpt lat="32.898534" lon="9.9362008"><ele>323.0</ele><time>2026-04-27T11:07:30.034Z</time></trkpt><trkpt lat="32.8984176" lon="9.9360753"><ele>324.0</ele><time>2026-04-27T11:07:31.023Z</time></trkpt><trkpt lat="32.8983057" lon="9.9359509"><ele>325.0</ele><time>2026-04-27T11:07:32.029Z</time></trkpt><trkpt lat="32.8981919" lon="9.9358296"><ele>325.0</ele><time>2026-04-27T11:07:33.034Z</time></trkpt><trkpt lat="32.8980723" lon="9.9357045"><ele>325.0</ele><time>2026-04-27T11:07:34.028Z</time></trkpt><trkpt lat="32.8979564" lon="9.9355795"><ele>325.0</ele><time>2026-04-27T11:07:35.03Z</time></trkpt><trkpt lat="32.8978377" lon="9.9354567"><ele>325.0</ele><time>2026-04-27T11:07:36.023Z</time></trkpt><trkpt lat="32.8977222" lon="9.9353359"><ele>325.0</ele><time>2026-04-27T11:07:37.031Z</time></trkpt><trkpt lat="32.8976071" lon="9.9352163"><ele>325.0</ele><time>2026-04-27T11:07:38.026Z</time></trkpt><trkpt lat="32.8974915" lon="9.9350962"><ele>324.3333333333333</ele><time>2026-04-27T11:07:39.031Z</time></trkpt><trkpt lat="32.8973773" lon="9.9349789"><ele>323.6666666666667</ele><time>2026-04-27T11:07:40.027Z</time></trkpt><trkpt lat="32.8972648" lon="9.9348535"><ele>323.0</ele><time>2026-04-27T11:07:41.027Z</time></trkpt><trkpt lat="32.897154" lon="9.9347336"><ele>323.0</ele><time>2026-04-27T11:07:42.023Z</time></trkpt><trkpt lat="32.8970429" lon="9.9346137"><ele>323.0</ele><time>2026-04-27T11:07:43.027Z</time></trkpt><trkpt lat="32.8969281" lon="9.9344924"><ele>323.0</ele><time>2026-04-27T11:07:44.027Z</time></trkpt><trkpt lat="32.8968152" lon="9.934364"><ele>323.33333333333337</ele><time>2026-04-27T11:07:45.024Z</time></trkpt><trkpt lat="32.8967057" lon="9.934238"><ele>323.6666666666667</ele><time>2026-04-27T11:07:46.031Z</time></trkpt><trkpt lat="32.8965971" lon="9.9341099"><ele>324.0</ele><time>2026-04-27T11:07:47.024Z</time></trkpt><trkpt lat="32.8964873" lon="9.9339833"><ele>324.0</ele><time>2026-04-27T11:07:48.03Z</time></trkpt><trkpt lat="32.8963838" lon="9.9338506"><ele>324.0</ele><time>2026-04-27T11:07:49.029Z</time></trkpt><trkpt lat="32.896284" lon="9.9337131"><ele>324.0</ele><time>2026-04-27T11:07:50.028Z</time></trkpt><trkpt lat="32.8961923" lon="9.9335742"><ele>324.0</ele><time>2026-04-27T11:07:51.02Z</time></trkpt><trkpt lat="32.8961011" lon="9.9334344"><ele>324.0</ele><time>2026-04-27T11:07:52.026Z</time></trkpt><trkpt lat="32.8960125" lon="9.9332913"><ele>324.0</ele><time>2026-04-27T11:07:53.022Z</time></trkpt><trkpt lat="32.8959234" lon="9.9331391"><ele>324.6666666666667</ele><time>2026-04-27T11:07:54.017Z</time></trkpt><trkpt lat="32.8958403" lon="9.9329923"><ele>325.33333333333337</ele><time>2026-04-27T11:07:55.032Z</time></trkpt><trkpt lat="32.8957599" lon="9.9328438"><ele>326.0</ele><time>2026-04-27T11:07:56.028Z</time></trkpt><trkpt lat="32.8956832" lon="9.9326848"><ele>326.6666666666667</ele><time>2026-04-27T11:07:57.028Z</time></trkpt><trkpt lat="32.8956065" lon="9.9325234"><ele>327.3333333333333</ele><time>2026-04-27T11:07:58.027Z</time></trkpt><trkpt lat="32.8955284" lon="9.9323571"><ele>328.0</ele><time>2026-04-27T11:07:59.03Z</time></trkpt><trkpt lat="32.8954493" lon="9.9321839"><ele>328.0</ele><time>2026-04-27T11:08:00.028Z</time></trkpt><trkpt lat="32.8953704" lon="9.9320108"><ele>328.0</ele><time>2026-04-27T11:08:01.024Z</time></trkpt><trkpt lat="32.8952952" lon="9.9318391"><ele>328.0</ele><time>2026-04-27T11:08:02.025Z</time></trkpt><trkpt lat="32.8952185" lon="9.9316674"><ele>329.0</ele><time>2026-04-27T11:08:03.03Z</time></trkpt><trkpt lat="32.8951364" lon="9.9314913"><ele>330.0</ele><time>2026-04-27T11:08:04.014Z</time></trkpt><trkpt lat="32.8950512" lon="9.9313213"><ele>331.0</ele><time>2026-04-27T11:08:05.024Z</time></trkpt><trkpt lat="32.8949578" lon="9.9311556"><ele>332.0</ele><time>2026-04-27T11:08:06.028Z</time></trkpt><trkpt lat="32.8948602" lon="9.9310016"><ele>333.0</ele><time>2026-04-27T11:08:07.023Z</time></trkpt><trkpt lat="32.8947534" lon="9.9308485"><ele>334.0</ele><time>2026-04-27T11:08:08.026Z</time></trkpt><trkpt lat="32.8946422" lon="9.9307025"><ele>335.66666666666663</ele><time>2026-04-27T11:08:09.025Z</time></trkpt><trkpt lat="32.8945273" lon="9.9305636"><ele>337.3333333333333</ele><time>2026-04-27T11:08:10.045Z</time></trkpt><trkpt lat="32.8944096" lon="9.9304269"><ele>339.0</ele><time>2026-04-27T11:08:11.045Z</time></trkpt><trkpt lat="32.8942867" lon="9.9302968"><ele>339.6666666666667</ele><time>2026-04-27T11:08:12.072Z</time></trkpt><trkpt lat="32.8941613" lon="9.9301805"><ele>340.33333333333337</ele><time>2026-04-27T11:08:13.076Z</time></trkpt><trkpt lat="32.8940292" lon="9.9300725"><ele>341.0</ele><time>2026-04-27T11:08:14.056Z</time></trkpt><trkpt lat="32.8938914" lon="9.9299714"><ele>342.0</ele><time>2026-04-27T11:08:15.044Z</time></trkpt><trkpt lat="32.8937522" lon="9.9298699"><ele>343.0</ele><time>2026-04-27T11:08:16.021Z</time></trkpt><trkpt lat="32.8936099" lon="9.929772"><ele>344.0</ele><time>2026-04-27T11:08:17.028Z</time></trkpt><trkpt lat="32.8934695" lon="9.9296822"><ele>344.33333333333337</ele><time>2026-04-27T11:08:18.017Z</time></trkpt><trkpt lat="32.8933312" lon="9.9295923"><ele>344.6666666666667</ele><time>2026-04-27T11:08:19.026Z</time></trkpt><trkpt lat="32.8931913" lon="9.9295042"><ele>345.0</ele><time>2026-04-27T11:08:20.025Z</time></trkpt><trkpt lat="32.8930557" lon="9.9294131"><ele>345.0</ele><time>2026-04-27T11:08:21.024Z</time></trkpt><trkpt lat="32.8929221" lon="9.9293122"><ele>345.0</ele><time>2026-04-27T11:08:22.029Z</time></trkpt><trkpt lat="32.8927953" lon="9.9292096"><ele>345.0</ele><time>2026-04-27T11:08:23.029Z</time></trkpt><trkpt lat="32.8926756" lon="9.9291049"><ele>345.25</ele><time>2026-04-27T11:08:24.027Z</time></trkpt><trkpt lat="32.8925577" lon="9.9289968"><ele>345.5</ele><time>2026-04-27T11:08:25.033Z</time></trkpt><trkpt lat="32.8924462" lon="9.9288838"><ele>345.75</ele><time>2026-04-27T11:08:26.078Z</time></trkpt><trkpt lat="32.8923368" lon="9.9287732"><ele>346.0</ele><time>2026-04-27T11:08:27.022Z</time></trkpt><trkpt lat="32.8922334" lon="9.9286575"><ele>346.0</ele><time>2026-04-27T11:08:28.024Z</time></trkpt><trkpt lat="32.8921347" lon="9.9285351"><ele>346.0</ele><time>2026-04-27T11:08:29.075Z</time></trkpt><trkpt lat="32.8920427" lon="9.9284101"><ele>346.0</ele><time>2026-04-27T11:08:30.035Z</time></trkpt><trkpt lat="32.8919544" lon="9.9282821"><ele>346.0</ele><time>2026-04-27T11:08:31.032Z</time></trkpt><trkpt lat="32.8918687" lon="9.9281498"><ele>346.25</ele><time>2026-04-27T11:08:32.042Z</time></trkpt><trkpt lat="32.8917849" lon="9.9280247"><ele>346.5</ele><time>2026-04-27T11:08:33.021Z</time></trkpt><trkpt lat="32.8917027" lon="9.9278975"><ele>346.75</ele><time>2026-04-27T11:08:34.027Z</time></trkpt><trkpt lat="32.8916202" lon="9.927768"><ele>347.0</ele><time>2026-04-27T11:08:35.03Z</time></trkpt><trkpt lat="32.891547" lon="9.9276335"><ele>347.0</ele><time>2026-04-27T11:08:36.02Z</time></trkpt><trkpt lat="32.8914753" lon="9.9275098"><ele>347.0</ele><time>2026-04-27T11:08:37.032Z</time></trkpt><trkpt lat="32.8914005" lon="9.927388"><ele>347.0</ele><time>2026-04-27T11:08:38.021Z</time></trkpt><trkpt lat="32.8913174" lon="9.9272587"><ele>347.0</ele><time>2026-04-27T11:08:39.02Z</time></trkpt><trkpt lat="32.891237" lon="9.9271218"><ele>347.0</ele><time>2026-04-27T11:08:40.115Z</time></trkpt><trkpt lat="32.8911635" lon="9.9269851"><ele>347.0</ele><time>2026-04-27T11:08:41.03Z</time></trkpt><trkpt lat="32.8910881" lon="9.9268418"><ele>347.0</ele><time>2026-04-27T11:08:42.021Z</time></trkpt><trkpt lat="32.8910194" lon="9.9266953"><ele>347.0</ele><time>2026-04-27T11:08:43.025Z</time></trkpt><trkpt lat="32.8909554" lon="9.9265503"><ele>347.5</ele><time>2026-04-27T11:08:44.017Z</time></trkpt><trkpt lat="32.89089" lon="9.9264039"><ele>348.0</ele><time>2026-04-27T11:08:45.028Z</time></trkpt><trkpt lat="32.8908317" lon="9.9262507"><ele>348.5</ele><time>2026-04-27T11:08:46.026Z</time></trkpt><trkpt lat="32.8907675" lon="9.926099"><ele>349.0</ele><time>2026-04-27T11:08:47.034Z</time></trkpt><trkpt lat="32.8907006" lon="9.9259371"><ele>349.0</ele><time>2026-04-27T11:08:48.031Z</time></trkpt><trkpt lat="32.8906412" lon="9.925773"><ele>349.0</ele><time>2026-04-27T11:08:49.023Z</time></trkpt><trkpt lat="32.8905936" lon="9.9256046"><ele>349.0</ele><time>2026-04-27T11:08:50.027Z</time></trkpt><trkpt lat="32.8905355" lon="9.9254376"><ele>349.0</ele><time>2026-04-27T11:08:51.021Z</time></trkpt><trkpt lat="32.8904707" lon="9.9252645"><ele>349.0</ele><time>2026-04-27T11:08:52.029Z</time></trkpt><trkpt lat="32.8904202" lon="9.9250875"><ele>349.0</ele><time>2026-04-27T11:08:53.024Z</time></trkpt><trkpt lat="32.8903841" lon="9.9249118"><ele>349.3333333333333</ele><time>2026-04-27T11:08:54.026Z</time></trkpt><trkpt lat="32.8903438" lon="9.9247282"><ele>349.6666666666667</ele><time>2026-04-27T11:08:55.037Z</time></trkpt><trkpt lat="32.8903029" lon="9.9245433"><ele>350.0</ele><time>2026-04-27T11:08:56.037Z</time></trkpt><trkpt lat="32.8902663" lon="9.9243527"><ele>350.6666666666667</ele><time>2026-04-27T11:08:57.035Z</time></trkpt><trkpt lat="32.8902291" lon="9.9241568"><ele>351.3333333333333</ele><time>2026-04-27T11:08:58.02Z</time></trkpt><trkpt lat="32.8901883" lon="9.9239637"><ele>352.0</ele><time>2026-04-27T11:08:59.023Z</time></trkpt><trkpt lat="32.8901459" lon="9.9237719"><ele>352.0</ele><time>2026-04-27T11:09:00.033Z</time></trkpt><trkpt lat="32.8901012" lon="9.9235782"><ele>352.0</ele><time>2026-04-27T11:09:01.023Z</time></trkpt><trkpt lat="32.8900537" lon="9.9233865"><ele>352.0</ele><time>2026-04-27T11:09:02.037Z</time></trkpt><trkpt lat="32.8900115" lon="9.923198"><ele>352.66666666666663</ele><time>2026-04-27T11:09:03.029Z</time></trkpt><trkpt lat="32.8899689" lon="9.9230063"><ele>353.3333333333333</ele><time>2026-04-27T11:09:04.025Z</time></trkpt><trkpt lat="32.8899294" lon="9.9228126"><ele>354.0</ele><time>2026-04-27T11:09:05.036Z</time></trkpt><trkpt lat="32.8898889" lon="9.922621"><ele>354.3333333333333</ele><time>2026-04-27T11:09:06.028Z</time></trkpt><trkpt lat="32.8898385" lon="9.9224268"><ele>354.66666666666663</ele><time>2026-04-27T11:09:07.028Z</time></trkpt><trkpt lat="32.8897916" lon="9.9222313"><ele>355.0</ele><time>2026-04-27T11:09:08.025Z</time></trkpt><trkpt lat="32.8897452" lon="9.9220427"><ele>355.0</ele><time>2026-04-27T11:09:09.031Z</time></trkpt><trkpt lat="32.8897004" lon="9.9218588"><ele>355.0</ele><time>2026-04-27T11:09:10.037Z</time></trkpt><trkpt lat="32.8896488" lon="9.9216739"><ele>355.0</ele><time>2026-04-27T11:09:11.034Z</time></trkpt><trkpt lat="32.8895926" lon="9.9214912"><ele>355.3333333333333</ele><time>2026-04-27T11:09:12.033Z</time></trkpt><trkpt lat="32.8895387" lon="9.9213118"><ele>355.6666666666667</ele><time>2026-04-27T11:09:13.031Z</time></trkpt><trkpt lat="32.8894843" lon="9.9211283"><ele>356.0</ele><time>2026-04-27T11:09:14.028Z</time></trkpt><trkpt lat="32.8894244" lon="9.9209438"><ele>356.33333333333337</ele><time>2026-04-27T11:09:15.039Z</time></trkpt><trkpt lat="32.8893653" lon="9.9207622"><ele>356.6666666666667</ele><time>2026-04-27T11:09:16.023Z</time></trkpt><trkpt lat="32.8893087" lon="9.9205815"><ele>357.0</ele><time>2026-04-27T11:09:17.02Z</time></trkpt><trkpt lat="32.8892557" lon="9.9203934"><ele>357.0</ele><time>2026-04-27T11:09:18.029Z</time></trkpt><trkpt lat="32.8891998" lon="9.9202096"><ele>357.0</ele><time>2026-04-27T11:09:19.031Z</time></trkpt><trkpt lat="32.8891414" lon="9.9200371"><ele>357.0</ele><time>2026-04-27T11:09:20.031Z</time></trkpt><trkpt lat="32.8890834" lon="9.9198625"><ele>356.5</ele><time>2026-04-27T11:09:21.03Z</time></trkpt><trkpt lat="32.8890298" lon="9.919697"><ele>356.0</ele><time>2026-04-27T11:09:22.028Z</time></trkpt><trkpt lat="32.8889706" lon="9.9195432"><ele>355.5</ele><time>2026-04-27T11:09:23.035Z</time></trkpt><trkpt lat="32.8889137" lon="9.9194"><ele>355.0</ele><time>2026-04-27T11:09:24.03Z</time></trkpt><trkpt lat="32.8888515" lon="9.919274"><ele>355.25</ele><time>2026-04-27T11:09:25.025Z</time></trkpt><trkpt lat="32.8887922" lon="9.9191588"><ele>355.5</ele><time>2026-04-27T11:09:26.024Z</time></trkpt><trkpt lat="32.8887263" lon="9.919047"><ele>355.75</ele><time>2026-04-27T11:09:27.03Z</time></trkpt><trkpt lat="32.8886573" lon="9.9189431"><ele>356.0</ele><time>2026-04-27T11:09:28.017Z</time></trkpt><trkpt lat="32.8885679" lon="9.9188441"><ele>356.0</ele><time>2026-04-27T11:09:29.026Z</time></trkpt><trkpt lat="32.8884771" lon="9.9187549"><ele>356.0</ele><time>2026-04-27T11:09:30.026Z</time></trkpt><trkpt lat="32.8883807" lon="9.9186718"><ele>356.0</ele><time>2026-04-27T11:09:31.032Z</time></trkpt><trkpt lat="32.8882841" lon="9.9186071"><ele>356.0</ele><time>2026-04-27T11:09:32.023Z</time></trkpt><trkpt lat="32.8881837" lon="9.9185458"><ele>356.75</ele><time>2026-04-27T11:09:33.028Z</time></trkpt><trkpt lat="32.8880829" lon="9.9184824"><ele>357.5</ele><time>2026-04-27T11:09:34.027Z</time></trkpt><trkpt lat="32.8879769" lon="9.9184268"><ele>358.25</ele><time>2026-04-27T11:09:35.026Z</time></trkpt><trkpt lat="32.8878648" lon="9.9183803"><ele>359.0</ele><time>2026-04-27T11:09:36.016Z</time></trkpt><trkpt lat="32.887746" lon="9.9183306"><ele>359.5</ele><time>2026-04-27T11:09:37.032Z</time></trkpt><trkpt lat="32.8876265" lon="9.9182712"><ele>360.0</ele><time>2026-04-27T11:09:38.033Z</time></trkpt><trkpt lat="32.8875052" lon="9.9182116"><ele>360.5</ele><time>2026-04-27T11:09:39.014Z</time></trkpt><trkpt lat="32.8873823" lon="9.9181464"><ele>361.0</ele><time>2026-04-27T11:09:40.029Z</time></trkpt><trkpt lat="32.8872608" lon="9.9180781"><ele>361.0</ele><time>2026-04-27T11:09:41.031Z</time></trkpt><trkpt lat="32.8871422" lon="9.9180127"><ele>361.0</ele><time>2026-04-27T11:09:42.031Z</time></trkpt><trkpt lat="32.8870224" lon="9.9179379"><ele>361.0</ele><time>2026-04-27T11:09:43.029Z</time></trkpt><trkpt lat="32.8869069" lon="9.9178586"><ele>361.0</ele><time>2026-04-27T11:09:44.02Z</time></trkpt><trkpt lat="32.886797" lon="9.9177617"><ele>361.0</ele><time>2026-04-27T11:09:45.03Z</time></trkpt><trkpt lat="32.88669" lon="9.9176663"><ele>361.0</ele><time>2026-04-27T11:09:46.028Z</time></trkpt><trkpt lat="32.8865835" lon="9.9175642"><ele>361.0</ele><time>2026-04-27T11:09:47.035Z</time></trkpt><trkpt lat="32.8864822" lon="9.9174591"><ele>361.0</ele><time>2026-04-27T11:09:48.03Z</time></trkpt><trkpt lat="32.8863815" lon="9.9173534"><ele>361.25</ele><time>2026-04-27T11:09:49.033Z</time></trkpt><trkpt lat="32.8862809" lon="9.9172446"><ele>361.5</ele><time>2026-04-27T11:09:50.023Z</time></trkpt><trkpt lat="32.8861813" lon="9.9171329"><ele>361.75</ele><time>2026-04-27T11:09:51.028Z</time></trkpt><trkpt lat="32.8860896" lon="9.9170153"><ele>362.0</ele><time>2026-04-27T11:09:52.03Z</time></trkpt><trkpt lat="32.8860031" lon="9.9168992"><ele>362.0</ele><time>2026-04-27T11:09:53.034Z</time></trkpt><trkpt lat="32.8859138" lon="9.9167826"><ele>362.0</ele><time>2026-04-27T11:09:54.023Z</time></trkpt><trkpt lat="32.8858278" lon="9.9166656"><ele>362.0</ele><time>2026-04-27T11:09:55.031Z</time></trkpt><trkpt lat="32.8857442" lon="9.9165465"><ele>362.0</ele><time>2026-04-27T11:09:56.028Z</time></trkpt><trkpt lat="32.8856752" lon="9.9164172"><ele>362.0</ele><time>2026-04-27T11:09:57.025Z</time></trkpt><trkpt lat="32.885619" lon="9.9162783"><ele>362.0</ele><time>2026-04-27T11:09:58.027Z</time></trkpt><trkpt lat="32.8855747" lon="9.9161324"><ele>362.0</ele><time>2026-04-27T11:09:59.026Z</time></trkpt><trkpt lat="32.885547" lon="9.9159849"><ele>362.0</ele><time>2026-04-27T11:10:00.024Z</time></trkpt><trkpt lat="32.8855381" lon="9.9158445"><ele>362.0</ele><time>2026-04-27T11:10:01.021Z</time></trkpt><trkpt lat="32.8855403" lon="9.9157056"><ele>362.0</ele><time>2026-04-27T11:10:02.023Z</time></trkpt><trkpt lat="32.8855494" lon="9.9155703"><ele>362.0</ele><time>2026-04-27T11:10:03.03Z</time></trkpt><trkpt lat="32.885569" lon="9.9154364"><ele>362.0</ele><time>2026-04-27T11:10:04.024Z</time></trkpt><trkpt lat="32.8856073" lon="9.9153123"><ele>362.0</ele><time>2026-04-27T11:10:05.048Z</time></trkpt><trkpt lat="32.8856538" lon="9.9151989"><ele>362.0</ele><time>2026-04-27T11:10:06.017Z</time></trkpt><trkpt lat="32.8857037" lon="9.9150925"><ele>362.0</ele><time>2026-04-27T11:10:07.017Z</time></trkpt><trkpt lat="32.8857573" lon="9.9149881"><ele>362.0</ele><time>2026-04-27T11:10:08.027Z</time></trkpt><trkpt lat="32.8858113" lon="9.9148941"><ele>362.0</ele><time>2026-04-27T11:10:09.018Z</time></trkpt><trkpt lat="32.8858588" lon="9.9147977"><ele>361.5</ele><time>2026-04-27T11:10:10.025Z</time></trkpt><trkpt lat="32.8859095" lon="9.914706"><ele>361.0</ele><time>2026-04-27T11:10:11.029Z</time></trkpt><trkpt lat="32.8859556" lon="9.914623"><ele>360.5</ele><time>2026-04-27T11:10:12.028Z</time></trkpt><trkpt lat="32.8860043" lon="9.9145389"><ele>360.0</ele><time>2026-04-27T11:10:13.036Z</time></trkpt><trkpt lat="32.8860634" lon="9.9144571"><ele>359.5</ele><time>2026-04-27T11:10:14.025Z</time></trkpt><trkpt lat="32.8861252" lon="9.9143789"><ele>359.0</ele><time>2026-04-27T11:10:15.053Z</time></trkpt><trkpt lat="32.8861775" lon="9.9142934"><ele>359.2</ele><time>2026-04-27T11:10:16.042Z</time></trkpt><trkpt lat="32.886228" lon="9.9142058"><ele>359.4</ele><time>2026-04-27T11:10:17.03Z</time></trkpt><trkpt lat="32.8862733" lon="9.9141155"><ele>359.6</ele><time>2026-04-27T11:10:18.03Z</time></trkpt><trkpt lat="32.8863215" lon="9.9140201"><ele>359.8</ele><time>2026-04-27T11:10:19.037Z</time></trkpt><trkpt lat="32.8863836" lon="9.9139198"><ele>360.0</ele><time>2026-04-27T11:10:20.027Z</time></trkpt><trkpt lat="32.886446" lon="9.9138222"><ele>360.0</ele><time>2026-04-27T11:10:21.019Z</time></trkpt><trkpt lat="32.8865116" lon="9.9137131"><ele>360.0</ele><time>2026-04-27T11:10:22.031Z</time></trkpt><trkpt lat="32.8865737" lon="9.9136009"><ele>360.0</ele><time>2026-04-27T11:10:23.031Z</time></trkpt><trkpt lat="32.8866407" lon="9.913485"><ele>360.0</ele><time>2026-04-27T11:10:24.033Z</time></trkpt><trkpt lat="32.8867135" lon="9.9133578"><ele>359.25</ele><time>2026-04-27T11:10:25.031Z</time></trkpt><trkpt lat="32.8867853" lon="9.9132384"><ele>358.5</ele><time>2026-04-27T11:10:26.032Z</time></trkpt><trkpt lat="32.8868579" lon="9.9131174"><ele>357.75</ele><time>2026-04-27T11:10:27.032Z</time></trkpt><trkpt lat="32.8869329" lon="9.9129999"><ele>357.0</ele><time>2026-04-27T11:10:28.024Z</time></trkpt><trkpt lat="32.88701" lon="9.9128895"><ele>357.0</ele><time>2026-04-27T11:10:29.021Z</time></trkpt><trkpt lat="32.8870928" lon="9.9127818"><ele>357.0</ele><time>2026-04-27T11:10:30.021Z</time></trkpt><trkpt lat="32.8871949" lon="9.9126807"><ele>357.0</ele><time>2026-04-27T11:10:31.032Z</time></trkpt><trkpt lat="32.8873137" lon="9.9125984"><ele>357.0</ele><time>2026-04-27T11:10:32.026Z</time></trkpt><trkpt lat="32.8874486" lon="9.9125361"><ele>357.0</ele><time>2026-04-27T11:10:33.027Z</time></trkpt><trkpt lat="32.8875978" lon="9.9124827"><ele>357.0</ele><time>2026-04-27T11:10:34.025Z</time></trkpt><trkpt lat="32.8877412" lon="9.9124461"><ele>357.0</ele><time>2026-04-27T11:10:35.03Z</time></trkpt><trkpt lat="32.8878836" lon="9.9124099"><ele>357.0</ele><time>2026-04-27T11:10:36.033Z</time></trkpt><trkpt lat="32.888022" lon="9.9123779"><ele>357.0</ele><time>2026-04-27T11:10:37.018Z</time></trkpt><trkpt lat="32.888158" lon="9.9123414"><ele>357.0</ele><time>2026-04-27T11:10:38.022Z</time></trkpt><trkpt lat="32.8882941" lon="9.9122918"><ele>357.0</ele><time>2026-04-27T11:10:39.03Z</time></trkpt><trkpt lat="32.8884253" lon="9.9122307"><ele>357.0</ele><time>2026-04-27T11:10:40.025Z</time></trkpt><trkpt lat="32.8885497" lon="9.9121545"><ele>357.0</ele><time>2026-04-27T11:10:41.023Z</time></trkpt><trkpt lat="32.8886573" lon="9.9120643"><ele>357.0</ele><time>2026-04-27T11:10:42.032Z</time></trkpt><trkpt lat="32.8887623" lon="9.911958"><ele>357.0</ele><time>2026-04-27T11:10:43.021Z</time></trkpt><trkpt lat="32.888859" lon="9.9118404"><ele>357.0</ele><time>2026-04-27T11:10:44.021Z</time></trkpt><trkpt lat="32.8889409" lon="9.911715"><ele>357.75</ele><time>2026-04-27T11:10:45.035Z</time></trkpt><trkpt lat="32.8890165" lon="9.9115888"><ele>358.5</ele><time>2026-04-27T11:10:46.02Z</time></trkpt><trkpt lat="32.8890758" lon="9.9114553"><ele>359.25</ele><time>2026-04-27T11:10:47.022Z</time></trkpt><trkpt lat="32.8891213" lon="9.9113185"><ele>360.0</ele><time>2026-04-27T11:10:48.024Z</time></trkpt><trkpt lat="32.8891617" lon="9.9111731"><ele>360.0</ele><time>2026-04-27T11:10:49.028Z</time></trkpt><trkpt lat="32.8891968" lon="9.9110201"><ele>360.0</ele><time>2026-04-27T11:10:50.029Z</time></trkpt><trkpt lat="32.8892206" lon="9.9108606"><ele>360.0</ele><time>2026-04-27T11:10:51.026Z</time></trkpt><trkpt lat="32.8892276" lon="9.9106963"><ele>360.0</ele><time>2026-04-27T11:10:52.048Z</time></trkpt><trkpt lat="32.8892263" lon="9.9105253"><ele>360.0</ele><time>2026-04-27T11:10:53.033Z</time></trkpt><trkpt lat="32.8892152" lon="9.9103566"><ele>360.0</ele><time>2026-04-27T11:10:54.026Z</time></trkpt><trkpt lat="32.8891898" lon="9.910184"><ele>360.0</ele><time>2026-04-27T11:10:55.028Z</time></trkpt><trkpt lat="32.8891555" lon="9.91001"><ele>360.0</ele><time>2026-04-27T11:10:56.034Z</time></trkpt><trkpt lat="32.8891135" lon="9.9098355"><ele>360.0</ele><time>2026-04-27T11:10:57.031Z</time></trkpt><trkpt lat="32.8890738" lon="9.9096648"><ele>360.0</ele><time>2026-04-27T11:10:58.021Z</time></trkpt><trkpt lat="32.8890357" lon="9.909493"><ele>360.0</ele><time>2026-04-27T11:10:59.03Z</time></trkpt><trkpt lat="32.8890029" lon="9.909321"><ele>360.0</ele><time>2026-04-27T11:11:00.026Z</time></trkpt><trkpt lat="32.8889697" lon="9.9091421"><ele>360.0</ele><time>2026-04-27T11:11:01.025Z</time></trkpt><trkpt lat="32.8889306" lon="9.9089595"><ele>360.0</ele><time>2026-04-27T11:11:02.026Z</time></trkpt><trkpt lat="32.8888887" lon="9.9087722"><ele>360.0</ele><time>2026-04-27T11:11:03.028Z</time></trkpt><trkpt lat="32.8888425" lon="9.9085874"><ele>358.6666666666667</ele><time>2026-04-27T11:11:04.035Z</time></trkpt><trkpt lat="32.8888062" lon="9.908399"><ele>357.33333333333337</ele><time>2026-04-27T11:11:05.026Z</time></trkpt><trkpt lat="32.88877" lon="9.90821"><ele>356.0</ele><time>2026-04-27T11:11:06.032Z</time></trkpt><trkpt lat="32.8887301" lon="9.9080234"><ele>356.0</ele><time>2026-04-27T11:11:07.028Z</time></trkpt><trkpt lat="32.8886898" lon="9.9078351"><ele>356.0</ele><time>2026-04-27T11:11:08.016Z</time></trkpt><trkpt lat="32.888653" lon="9.9076458"><ele>356.0</ele><time>2026-04-27T11:11:09.018Z</time></trkpt><trkpt lat="32.8886216" lon="9.9074521"><ele>355.33333333333337</ele><time>2026-04-27T11:11:10.019Z</time></trkpt><trkpt lat="32.8885951" lon="9.907251"><ele>354.6666666666667</ele><time>2026-04-27T11:11:11.029Z</time></trkpt><trkpt lat="32.8885686" lon="9.9070532"><ele>354.0</ele><time>2026-04-27T11:11:12.036Z</time></trkpt><trkpt lat="32.8885521" lon="9.9068499"><ele>353.3333333333333</ele><time>2026-04-27T11:11:13.032Z</time></trkpt><trkpt lat="32.8885398" lon="9.9066444"><ele>352.66666666666663</ele><time>2026-04-27T11:11:14.024Z</time></trkpt><trkpt lat="32.8885328" lon="9.9064393"><ele>352.0</ele><time>2026-04-27T11:11:15.022Z</time></trkpt><trkpt lat="32.8885311" lon="9.9062383"><ele>352.0</ele><time>2026-04-27T11:11:16.021Z</time></trkpt><trkpt lat="32.8885294" lon="9.9060395"><ele>352.0</ele><time>2026-04-27T11:11:17.027Z</time></trkpt><trkpt lat="32.8885315" lon="9.9058483"><ele>352.0</ele><time>2026-04-27T11:11:18.032Z</time></trkpt><trkpt lat="32.8885344" lon="9.9056545"><ele>352.0</ele><time>2026-04-27T11:11:19.04Z</time></trkpt><trkpt lat="32.8885378" lon="9.9054646"><ele>352.0</ele><time>2026-04-27T11:11:20.029Z</time></trkpt><trkpt lat="32.8885351" lon="9.905266"><ele>352.0</ele><time>2026-04-27T11:11:21.033Z</time></trkpt><trkpt lat="32.8885347" lon="9.9050679"><ele>352.0</ele><time>2026-04-27T11:11:22.032Z</time></trkpt><trkpt lat="32.8885344" lon="9.9048699"><ele>352.0</ele><time>2026-04-27T11:11:23.023Z</time></trkpt><trkpt lat="32.8885323" lon="9.9046769"><ele>352.0</ele><time>2026-04-27T11:11:24.036Z</time></trkpt><trkpt lat="32.8885301" lon="9.9044793"><ele>352.0</ele><time>2026-04-27T11:11:25.028Z</time></trkpt><trkpt lat="32.8885266" lon="9.9042873"><ele>352.0</ele><time>2026-04-27T11:11:26.035Z</time></trkpt><trkpt lat="32.8885252" lon="9.9040851"><ele>352.0</ele><time>2026-04-27T11:11:27.032Z</time></trkpt><trkpt lat="32.8885248" lon="9.9038859"><ele>351.3333333333333</ele><time>2026-04-27T11:11:28.033Z</time></trkpt><trkpt lat="32.8885244" lon="9.9036961"><ele>350.6666666666667</ele><time>2026-04-27T11:11:29.036Z</time></trkpt><trkpt lat="32.8885223" lon="9.9035023"><ele>350.0</ele><time>2026-04-27T11:11:30.023Z</time></trkpt><trkpt lat="32.8885213" lon="9.9033097"><ele>349.33333333333337</ele><time>2026-04-27T11:11:31.026Z</time></trkpt><trkpt lat="32.8885186" lon="9.9031225"><ele>348.6666666666667</ele><time>2026-04-27T11:11:32.031Z</time></trkpt><trkpt lat="32.888516" lon="9.9029439"><ele>348.0</ele><time>2026-04-27T11:11:33.026Z</time></trkpt><trkpt lat="32.8885128" lon="9.9027654"><ele>348.0</ele><time>2026-04-27T11:11:34.032Z</time></trkpt><trkpt lat="32.8885081" lon="9.9025915"><ele>348.0</ele><time>2026-04-27T11:11:35.03Z</time></trkpt><trkpt lat="32.8885044" lon="9.9024089"><ele>348.0</ele><time>2026-04-27T11:11:36.029Z</time></trkpt><trkpt lat="32.8884988" lon="9.9022227"><ele>347.6666666666667</ele><time>2026-04-27T11:11:37.03Z</time></trkpt><trkpt lat="32.8884965" lon="9.9020289"><ele>347.33333333333337</ele><time>2026-04-27T11:11:38.036Z</time></trkpt><trkpt lat="32.8884895" lon="9.9018339"><ele>347.0</ele><time>2026-04-27T11:11:39.032Z</time></trkpt><trkpt lat="32.8884844" lon="9.9016353"><ele>346.6666666666667</ele><time>2026-04-27T11:11:40.019Z</time></trkpt><trkpt lat="32.88848" lon="9.9014387"><ele>346.3333333333333</ele><time>2026-04-27T11:11:41.023Z</time></trkpt><trkpt lat="32.8884755" lon="9.901239"><ele>346.0</ele><time>2026-04-27T11:11:42.031Z</time></trkpt><trkpt lat="32.8884756" lon="9.9010365"><ele>346.0</ele><time>2026-04-27T11:11:43.023Z</time></trkpt><trkpt lat="32.8884795" lon="9.9008384"><ele>346.0</ele><time>2026-04-27T11:11:44.029Z</time></trkpt><trkpt lat="32.888485" lon="9.9006357"><ele>346.0</ele><time>2026-04-27T11:11:45.032Z</time></trkpt><trkpt lat="32.8884932" lon="9.9004436"><ele>346.0</ele><time>2026-04-27T11:11:46.015Z</time></trkpt><trkpt lat="32.8885069" lon="9.9002522"><ele>346.0</ele><time>2026-04-27T11:11:47.019Z</time></trkpt><trkpt lat="32.8885403" lon="9.9000686"><ele>346.0</ele><time>2026-04-27T11:11:48.022Z</time></trkpt><trkpt lat="32.8885916" lon="9.8998951"><ele>346.66666666666663</ele><time>2026-04-27T11:11:49.016Z</time></trkpt><trkpt lat="32.888659" lon="9.8997178"><ele>347.3333333333333</ele><time>2026-04-27T11:11:50.024Z</time></trkpt><trkpt lat="32.888732" lon="9.8995351"><ele>348.0</ele><time>2026-04-27T11:11:51.025Z</time></trkpt><trkpt lat="32.8888132" lon="9.8993505"><ele>347.6666666666667</ele><time>2026-04-27T11:11:52.021Z</time></trkpt><trkpt lat="32.8888953" lon="9.8991667"><ele>347.33333333333337</ele><time>2026-04-27T11:11:53.024Z</time></trkpt><trkpt lat="32.8889789" lon="9.8989808"><ele>347.0</ele><time>2026-04-27T11:11:54.028Z</time></trkpt><trkpt lat="32.8890594" lon="9.8987942"><ele>347.0</ele><time>2026-04-27T11:11:55.017Z</time></trkpt><trkpt lat="32.889136" lon="9.8986051"><ele>347.0</ele><time>2026-04-27T11:11:56.029Z</time></trkpt><trkpt lat="32.8892145" lon="9.898415"><ele>347.0</ele><time>2026-04-27T11:11:57.025Z</time></trkpt><trkpt lat="32.8892948" lon="9.8982167"><ele>346.33333333333337</ele><time>2026-04-27T11:11:58.023Z</time></trkpt><trkpt lat="32.8893725" lon="9.8980268"><ele>345.6666666666667</ele><time>2026-04-27T11:11:59.017Z</time></trkpt><trkpt lat="32.8894517" lon="9.8978344"><ele>345.0</ele><time>2026-04-27T11:12:00.032Z</time></trkpt><trkpt lat="32.8895337" lon="9.8976428"><ele>345.3333333333333</ele><time>2026-04-27T11:12:01.024Z</time></trkpt><trkpt lat="32.8896144" lon="9.8974468"><ele>345.66666666666663</ele><time>2026-04-27T11:12:02.03Z</time></trkpt><trkpt lat="32.8896944" lon="9.8972587"><ele>346.0</ele><time>2026-04-27T11:12:03.036Z</time></trkpt><trkpt lat="32.8897737" lon="9.8970698"><ele>346.0</ele><time>2026-04-27T11:12:04.028Z</time></trkpt><trkpt lat="32.8898544" lon="9.8968846"><ele>346.0</ele><time>2026-04-27T11:12:05.029Z</time></trkpt><trkpt lat="32.8899391" lon="9.8966997"><ele>346.0</ele><time>2026-04-27T11:12:06.025Z</time></trkpt><trkpt lat="32.8900207" lon="9.8965135"><ele>345.3333333333333</ele><time>2026-04-27T11:12:07.024Z</time></trkpt><trkpt lat="32.8901011" lon="9.8963278"><ele>344.6666666666667</ele><time>2026-04-27T11:12:08.015Z</time></trkpt><trkpt lat="32.8901807" lon="9.8961448"><ele>344.0</ele><time>2026-04-27T11:12:09.035Z</time></trkpt><trkpt lat="32.8902621" lon="9.8959605"><ele>344.33333333333337</ele><time>2026-04-27T11:12:10.016Z</time></trkpt><trkpt lat="32.890344" lon="9.8957779"><ele>344.6666666666667</ele><time>2026-04-27T11:12:11.023Z</time></trkpt><trkpt lat="32.8904264" lon="9.8955945"><ele>345.0</ele><time>2026-04-27T11:12:12.026Z</time></trkpt><trkpt lat="32.890507" lon="9.8954102"><ele>345.0</ele><time>2026-04-27T11:12:13.019Z</time></trkpt><trkpt lat="32.8905873" lon="9.8952253"><ele>345.0</ele><time>2026-04-27T11:12:14.023Z</time></trkpt><trkpt lat="32.8906669" lon="9.8950427"><ele>345.0</ele><time>2026-04-27T11:12:15.072Z</time></trkpt><trkpt lat="32.8907472" lon="9.8948631"><ele>345.3333333333333</ele><time>2026-04-27T11:12:16.043Z</time></trkpt><trkpt lat="32.8908204" lon="9.8946763"><ele>345.66666666666663</ele><time>2026-04-27T11:12:17.027Z</time></trkpt><trkpt lat="32.8908882" lon="9.8944867"><ele>346.0</ele><time>2026-04-27T11:12:18.023Z</time></trkpt><trkpt lat="32.8909492" lon="9.8942951"><ele>345.0</ele><time>2026-04-27T11:12:19.016Z</time></trkpt><trkpt lat="32.8910016" lon="9.8940926"><ele>344.0</ele><time>2026-04-27T11:12:20.037Z</time></trkpt><trkpt lat="32.891048" lon="9.8938838"><ele>343.0</ele><time>2026-04-27T11:12:21.023Z</time></trkpt><trkpt lat="32.891101" lon="9.8936792"><ele>343.0</ele><time>2026-04-27T11:12:22.022Z</time></trkpt><trkpt lat="32.891156" lon="9.8934718"><ele>343.0</ele><time>2026-04-27T11:12:23.032Z</time></trkpt><trkpt lat="32.8912102" lon="9.8932607"><ele>343.0</ele><time>2026-04-27T11:12:24.023Z</time></trkpt><trkpt lat="32.8912661" lon="9.8930518"><ele>342.66666666666663</ele><time>2026-04-27T11:12:25.046Z</time></trkpt><trkpt lat="32.8913299" lon="9.8928467"><ele>342.3333333333333</ele><time>2026-04-27T11:12:26.024Z</time></trkpt><trkpt lat="32.8913974" lon="9.8926462"><ele>342.0</ele><time>2026-04-27T11:12:27.027Z</time></trkpt><trkpt lat="32.8914701" lon="9.8924537"><ele>342.0</ele><time>2026-04-27T11:12:28.028Z</time></trkpt><trkpt lat="32.8915571" lon="9.8922679"><ele>342.0</ele><time>2026-04-27T11:12:29.025Z</time></trkpt><trkpt lat="32.8916541" lon="9.8920929"><ele>342.0</ele><time>2026-04-27T11:12:30.028Z</time></trkpt><trkpt lat="32.8917582" lon="9.8919265"><ele>341.6666666666667</ele><time>2026-04-27T11:12:31.03Z</time></trkpt><trkpt lat="32.8918703" lon="9.891768"><ele>341.33333333333337</ele><time>2026-04-27T11:12:32.035Z</time></trkpt><trkpt lat="32.8919903" lon="9.8916139"><ele>341.0</ele><time>2026-04-27T11:12:33.034Z</time></trkpt><trkpt lat="32.8921104" lon="9.8914615"><ele>341.0</ele><time>2026-04-27T11:12:34.032Z</time></trkpt><trkpt lat="32.8922384" lon="9.8913108"><ele>341.0</ele><time>2026-04-27T11:12:35.025Z</time></trkpt><trkpt lat="32.8923643" lon="9.8911639"><ele>341.0</ele><time>2026-04-27T11:12:36.031Z</time></trkpt><trkpt lat="32.892485" lon="9.891015"><ele>340.33333333333337</ele><time>2026-04-27T11:12:37.034Z</time></trkpt><trkpt lat="32.8926054" lon="9.8908597"><ele>339.6666666666667</ele><time>2026-04-27T11:12:38.032Z</time></trkpt><trkpt lat="32.8927172" lon="9.8906941"><ele>339.0</ele><time>2026-04-27T11:12:39.019Z</time></trkpt><trkpt lat="32.8928199" lon="9.8905181"><ele>339.0</ele><time>2026-04-27T11:12:40.031Z</time></trkpt><trkpt lat="32.8929067" lon="9.8903454"><ele>339.0</ele><time>2026-04-27T11:12:41.048Z</time></trkpt><trkpt lat="32.8929754" lon="9.8901602"><ele>339.0</ele><time>2026-04-27T11:12:42.032Z</time></trkpt><trkpt lat="32.8930351" lon="9.8899623"><ele>338.3333333333333</ele><time>2026-04-27T11:12:43.018Z</time></trkpt><trkpt lat="32.8930837" lon="9.889759"><ele>337.66666666666663</ele><time>2026-04-27T11:12:44.022Z</time></trkpt><trkpt lat="32.8931253" lon="9.8895479"><ele>337.0</ele><time>2026-04-27T11:12:45.032Z</time></trkpt><trkpt lat="32.8931669" lon="9.8893292"><ele>336.66666666666663</ele><time>2026-04-27T11:12:46.04Z</time></trkpt><trkpt lat="32.8931968" lon="9.8891114"><ele>336.3333333333333</ele><time>2026-04-27T11:12:47.028Z</time></trkpt><trkpt lat="32.8932228" lon="9.8888819"><ele>336.0</ele><time>2026-04-27T11:12:48.035Z</time></trkpt><trkpt lat="32.893253" lon="9.8886488"><ele>335.6666666666667</ele><time>2026-04-27T11:12:49.029Z</time></trkpt><trkpt lat="32.8932811" lon="9.8884175"><ele>335.33333333333337</ele><time>2026-04-27T11:12:50.029Z</time></trkpt><trkpt lat="32.8933123" lon="9.8881863"><ele>335.0</ele><time>2026-04-27T11:12:51.026Z</time></trkpt><trkpt lat="32.8933373" lon="9.8879577"><ele>335.0</ele><time>2026-04-27T11:12:52.032Z</time></trkpt><trkpt lat="32.8933596" lon="9.8877268"><ele>335.0</ele><time>2026-04-27T11:12:53.034Z</time></trkpt><trkpt lat="32.8933877" lon="9.8874899"><ele>335.0</ele><time>2026-04-27T11:12:54.034Z</time></trkpt><trkpt lat="32.8934198" lon="9.8872559"><ele>334.0</ele><time>2026-04-27T11:12:55.019Z</time></trkpt><trkpt lat="32.8934506" lon="9.8870243"><ele>333.0</ele><time>2026-04-27T11:12:56.027Z</time></trkpt><trkpt lat="32.8934798" lon="9.8867969"><ele>332.0</ele><time>2026-04-27T11:12:57.032Z</time></trkpt><trkpt lat="32.893512" lon="9.8865646"><ele>331.6666666666667</ele><time>2026-04-27T11:12:58.048Z</time></trkpt><trkpt lat="32.8935424" lon="9.886333"><ele>331.3333333333333</ele><time>2026-04-27T11:12:59.029Z</time></trkpt><trkpt lat="32.8935736" lon="9.8861068"><ele>331.0</ele><time>2026-04-27T11:13:00.032Z</time></trkpt><trkpt lat="32.8936039" lon="9.8858805"><ele>330.66666666666663</ele><time>2026-04-27T11:13:01.03Z</time></trkpt><trkpt lat="32.893629" lon="9.8856526"><ele>330.3333333333333</ele><time>2026-04-27T11:13:02.029Z</time></trkpt><trkpt lat="32.8936543" lon="9.8854207"><ele>330.0</ele><time>2026-04-27T11:13:03.032Z</time></trkpt><trkpt lat="32.8936799" lon="9.8851899"><ele>330.0</ele><time>2026-04-27T11:13:04.028Z</time></trkpt><trkpt lat="32.8937092" lon="9.8849552"><ele>330.0</ele><time>2026-04-27T11:13:05.02Z</time></trkpt><trkpt lat="32.8937388" lon="9.8847232"><ele>330.0</ele><time>2026-04-27T11:13:06.029Z</time></trkpt><trkpt lat="32.8937717" lon="9.8844898"><ele>330.0</ele><time>2026-04-27T11:13:07.038Z</time></trkpt><trkpt lat="32.8938026" lon="9.8842545"><ele>330.0</ele><time>2026-04-27T11:13:08.029Z</time></trkpt><trkpt lat="32.8938313" lon="9.8840303"><ele>330.0</ele><time>2026-04-27T11:13:09.027Z</time></trkpt><trkpt lat="32.8938503" lon="9.8838008"><ele>330.0</ele><time>2026-04-27T11:13:10.022Z</time></trkpt><trkpt lat="32.893877" lon="9.8835687"><ele>330.0</ele><time>2026-04-27T11:13:11.025Z</time></trkpt><trkpt lat="32.8939061" lon="9.8833357"><ele>330.0</ele><time>2026-04-27T11:13:12.026Z</time></trkpt><trkpt lat="32.8939332" lon="9.8831035"><ele>330.0</ele><time>2026-04-27T11:13:13.023Z</time></trkpt><trkpt lat="32.8939601" lon="9.8828652"><ele>330.0</ele><time>2026-04-27T11:13:14.05Z</time></trkpt><trkpt lat="32.8939848" lon="9.8826321"><ele>330.0</ele><time>2026-04-27T11:13:15.03Z</time></trkpt><trkpt lat="32.8940147" lon="9.8823998"><ele>330.0</ele><time>2026-04-27T11:13:16.026Z</time></trkpt><trkpt lat="32.8940409" lon="9.8821682"><ele>330.0</ele><time>2026-04-27T11:13:17.023Z</time></trkpt><trkpt lat="32.8940666" lon="9.8819351"><ele>330.0</ele><time>2026-04-27T11:13:18.035Z</time></trkpt><trkpt lat="32.894091" lon="9.8817017"><ele>330.6666666666667</ele><time>2026-04-27T11:13:19.031Z</time></trkpt><trkpt lat="32.8941179" lon="9.8814714"><ele>331.33333333333337</ele><time>2026-04-27T11:13:20.03Z</time></trkpt><trkpt lat="32.8941455" lon="9.8812345"><ele>332.0</ele><time>2026-04-27T11:13:21.037Z</time></trkpt><trkpt lat="32.8941749" lon="9.8810057"><ele>331.33333333333337</ele><time>2026-04-27T11:13:22.044Z</time></trkpt><trkpt lat="32.8941974" lon="9.8807701"><ele>330.6666666666667</ele><time>2026-04-27T11:13:23.034Z</time></trkpt><trkpt lat="32.8942048" lon="9.8805389"><ele>330.0</ele><time>2026-04-27T11:13:24.031Z</time></trkpt><trkpt lat="32.8942024" lon="9.8803079"><ele>330.0</ele><time>2026-04-27T11:13:25.024Z</time></trkpt><trkpt lat="32.8941784" lon="9.8800806"><ele>330.0</ele><time>2026-04-27T11:13:26.029Z</time></trkpt><trkpt lat="32.894138" lon="9.8798535"><ele>330.0</ele><time>2026-04-27T11:13:27.031Z</time></trkpt><trkpt lat="32.8940798" lon="9.8796338"><ele>330.0</ele><time>2026-04-27T11:13:28.04Z</time></trkpt><trkpt lat="32.8940152" lon="9.8794158"><ele>330.0</ele><time>2026-04-27T11:13:29.036Z</time></trkpt><trkpt lat="32.8939444" lon="9.8791927"><ele>330.0</ele><time>2026-04-27T11:13:30.047Z</time></trkpt><trkpt lat="32.8938767" lon="9.8789688"><ele>330.0</ele><time>2026-04-27T11:13:31.025Z</time></trkpt><trkpt lat="32.8938196" lon="9.8787521"><ele>330.0</ele><time>2026-04-27T11:13:32.03Z</time></trkpt><trkpt lat="32.8937818" lon="9.8785359"><ele>330.0</ele><time>2026-04-27T11:13:33.027Z</time></trkpt><trkpt lat="32.8937702" lon="9.8783224"><ele>329.0</ele><time>2026-04-27T11:13:34.03Z</time></trkpt><trkpt lat="32.8937567" lon="9.8781132"><ele>328.0</ele><time>2026-04-27T11:13:35.029Z</time></trkpt><trkpt lat="32.8937675" lon="9.8779042"><ele>327.0</ele><time>2026-04-27T11:13:36.024Z</time></trkpt><trkpt lat="32.893797" lon="9.8776974"><ele>327.0</ele><time>2026-04-27T11:13:37.06Z</time></trkpt><trkpt lat="32.8938403" lon="9.8774919"><ele>327.0</ele><time>2026-04-27T11:13:38.031Z</time></trkpt><trkpt lat="32.8938969" lon="9.8772849"><ele>327.0</ele><time>2026-04-27T11:13:39.027Z</time></trkpt><trkpt lat="32.8939686" lon="9.8770884"><ele>327.0</ele><time>2026-04-27T11:13:40.033Z</time></trkpt><trkpt lat="32.8940403" lon="9.876892"><ele>327.0</ele><time>2026-04-27T11:13:41.036Z</time></trkpt><trkpt lat="32.8941071" lon="9.8766968"><ele>327.0</ele><time>2026-04-27T11:13:42.034Z</time></trkpt><trkpt lat="32.8941548" lon="9.8764948"><ele>327.3333333333333</ele><time>2026-04-27T11:13:43.031Z</time></trkpt><trkpt lat="32.8941974" lon="9.8762868"><ele>327.66666666666663</ele><time>2026-04-27T11:13:44.034Z</time></trkpt><trkpt lat="32.8942245" lon="9.876076"><ele>328.0</ele><time>2026-04-27T11:13:45.032Z</time></trkpt><trkpt lat="32.894238" lon="9.8758658"><ele>328.3333333333333</ele><time>2026-04-27T11:13:46.037Z</time></trkpt><trkpt lat="32.8942464" lon="9.8756447"><ele>328.6666666666667</ele><time>2026-04-27T11:13:47.035Z</time></trkpt><trkpt lat="32.8942455" lon="9.875425"><ele>329.0</ele><time>2026-04-27T11:13:48.028Z</time></trkpt><trkpt lat="32.8942314" lon="9.8752062"><ele>329.33333333333337</ele><time>2026-04-27T11:13:49.028Z</time></trkpt><trkpt lat="32.8942141" lon="9.8749791"><ele>329.6666666666667</ele><time>2026-04-27T11:13:50.033Z</time></trkpt><trkpt lat="32.8941864" lon="9.8747547"><ele>330.0</ele><time>2026-04-27T11:13:51.023Z</time></trkpt><trkpt lat="32.8941577" lon="9.8745277"><ele>330.0</ele><time>2026-04-27T11:13:52.026Z</time></trkpt><trkpt lat="32.8941213" lon="9.8743017"><ele>330.0</ele><time>2026-04-27T11:13:53.022Z</time></trkpt><trkpt lat="32.8940858" lon="9.8740708"><ele>330.0</ele><time>2026-04-27T11:13:54.026Z</time></trkpt><trkpt lat="32.8940589" lon="9.8738396"><ele>329.3333333333333</ele><time>2026-04-27T11:13:55.043Z</time></trkpt><trkpt lat="32.8940356" lon="9.8736057"><ele>328.66666666666663</ele><time>2026-04-27T11:13:56.018Z</time></trkpt><trkpt lat="32.8940178" lon="9.8733776"><ele>328.0</ele><time>2026-04-27T11:13:57.021Z</time></trkpt><trkpt lat="32.8940009" lon="9.8731507"><ele>328.0</ele><time>2026-04-27T11:13:58.03Z</time></trkpt><trkpt lat="32.8939793" lon="9.8729207"><ele>328.0</ele><time>2026-04-27T11:13:59.023Z</time></trkpt><trkpt lat="32.8939587" lon="9.8726935"><ele>328.0</ele><time>2026-04-27T11:14:00.021Z</time></trkpt><trkpt lat="32.8939455" lon="9.8724705"><ele>328.3333333333333</ele><time>2026-04-27T11:14:01.023Z</time></trkpt><trkpt lat="32.8939243" lon="9.8722433"><ele>328.6666666666667</ele><time>2026-04-27T11:14:02.027Z</time></trkpt><trkpt lat="32.8938935" lon="9.8720155"><ele>329.0</ele><time>2026-04-27T11:14:03.029Z</time></trkpt><trkpt lat="32.8938619" lon="9.8717921"><ele>329.0</ele><time>2026-04-27T11:14:04.019Z</time></trkpt><trkpt lat="32.8938435" lon="9.8715673"><ele>329.0</ele><time>2026-04-27T11:14:05.02Z</time></trkpt><trkpt lat="32.8938208" lon="9.8713413"><ele>329.0</ele><time>2026-04-27T11:14:06.023Z</time></trkpt><trkpt lat="32.8938028" lon="9.8711228"><ele>329.33333333333337</ele><time>2026-04-27T11:14:07.036Z</time></trkpt><trkpt lat="32.8937804" lon="9.8709024"><ele>329.6666666666667</ele><time>2026-04-27T11:14:08.017Z</time></trkpt><trkpt lat="32.8937652" lon="9.8706878"><ele>330.0</ele><time>2026-04-27T11:14:09.014Z</time></trkpt><trkpt lat="32.8937558" lon="9.8704714"><ele>330.0</ele><time>2026-04-27T11:14:10.029Z</time></trkpt><trkpt lat="32.8937447" lon="9.8702542"><ele>330.0</ele><time>2026-04-27T11:14:11.028Z</time></trkpt><trkpt lat="32.893742" lon="9.8700415"><ele>330.0</ele><time>2026-04-27T11:14:12.027Z</time></trkpt><trkpt lat="32.8937502" lon="9.8698316"><ele>330.0</ele><time>2026-04-27T11:14:13.027Z</time></trkpt><trkpt lat="32.8937653" lon="9.8696455"><ele>330.0</ele><time>2026-04-27T11:14:14.021Z</time></trkpt><trkpt lat="32.8937819" lon="9.8694892"><ele>330.0</ele><time>2026-04-27T11:14:15.026Z</time></trkpt><trkpt lat="32.8937989" lon="9.8693365"><ele>330.0</ele><time>2026-04-27T11:14:16.032Z</time></trkpt><trkpt lat="32.8938244" lon="9.8691789"><ele>330.0</ele><time>2026-04-27T11:14:17.051Z</time></trkpt><trkpt lat="32.8938604" lon="9.8690139"><ele>330.0</ele><time>2026-04-27T11:14:18.02Z</time></trkpt><trkpt lat="32.8939107" lon="9.8688339"><ele>330.0</ele><time>2026-04-27T11:14:19.033Z</time></trkpt><trkpt lat="32.8939586" lon="9.8686398"><ele>329.6666666666667</ele><time>2026-04-27T11:14:20.026Z</time></trkpt><trkpt lat="32.8940041" lon="9.8684376"><ele>329.33333333333337</ele><time>2026-04-27T11:14:21.024Z</time></trkpt><trkpt lat="32.894048" lon="9.8682387"><ele>329.0</ele><time>2026-04-27T11:14:22.03Z</time></trkpt><trkpt lat="32.8940974" lon="9.8680423"><ele>329.0</ele><time>2026-04-27T11:14:23.017Z</time></trkpt><trkpt lat="32.8941514" lon="9.867837"><ele>329.0</ele><time>2026-04-27T11:14:24.027Z</time></trkpt><trkpt lat="32.894203" lon="9.8676329"><ele>329.0</ele><time>2026-04-27T11:14:25.032Z</time></trkpt><trkpt lat="32.8942533" lon="9.8674212"><ele>328.0</ele><time>2026-04-27T11:14:26.028Z</time></trkpt><trkpt lat="32.8942989" lon="9.8672136"><ele>327.0</ele><time>2026-04-27T11:14:27.028Z</time></trkpt><trkpt lat="32.8943351" lon="9.8670129"><ele>326.0</ele><time>2026-04-27T11:14:28.025Z</time></trkpt><trkpt lat="32.894364" lon="9.866807"><ele>325.33333333333337</ele><time>2026-04-27T11:14:29.025Z</time></trkpt><trkpt lat="32.8943999" lon="9.8665836"><ele>324.6666666666667</ele><time>2026-04-27T11:14:30.019Z</time></trkpt><trkpt lat="32.8944405" lon="9.8663578"><ele>324.0</ele><time>2026-04-27T11:14:31.027Z</time></trkpt><trkpt lat="32.8944755" lon="9.8661263"><ele>323.3333333333333</ele><time>2026-04-27T11:14:32.026Z</time></trkpt><trkpt lat="32.8945076" lon="9.8658972"><ele>322.66666666666663</ele><time>2026-04-27T11:14:33.018Z</time></trkpt><trkpt lat="32.8945412" lon="9.8656693"><ele>322.0</ele><time>2026-04-27T11:14:34.026Z</time></trkpt><trkpt lat="32.8945733" lon="9.8654438"><ele>322.0</ele><time>2026-04-27T11:14:35.024Z</time></trkpt><trkpt lat="32.8945859" lon="9.8652062"><ele>322.0</ele><time>2026-04-27T11:14:36.027Z</time></trkpt><trkpt lat="32.8945864" lon="9.8649711"><ele>322.0</ele><time>2026-04-27T11:14:37.023Z</time></trkpt><trkpt lat="32.8945766" lon="9.8647401"><ele>321.3333333333333</ele><time>2026-04-27T11:14:38.028Z</time></trkpt><trkpt lat="32.894571" lon="9.8645126"><ele>320.6666666666667</ele><time>2026-04-27T11:14:39.025Z</time></trkpt><trkpt lat="32.8945625" lon="9.8642771"><ele>320.0</ele><time>2026-04-27T11:14:40.02Z</time></trkpt><trkpt lat="32.8945567" lon="9.864045"><ele>320.0</ele><time>2026-04-27T11:14:41.035Z</time></trkpt><trkpt lat="32.8945522" lon="9.8638114"><ele>320.0</ele><time>2026-04-27T11:14:42.007Z</time></trkpt><trkpt lat="32.8945557" lon="9.86358"><ele>320.0</ele><time>2026-04-27T11:14:43.022Z</time></trkpt><trkpt lat="32.8945562" lon="9.86335"><ele>320.6666666666667</ele><time>2026-04-27T11:14:44.017Z</time></trkpt><trkpt lat="32.8945676" lon="9.8631135"><ele>321.3333333333333</ele><time>2026-04-27T11:14:45.022Z</time></trkpt><trkpt lat="32.894581" lon="9.8628814"><ele>322.0</ele><time>2026-04-27T11:14:46.023Z</time></trkpt><trkpt lat="32.8945913" lon="9.8626499"><ele>321.66666666666663</ele><time>2026-04-27T11:14:47.017Z</time></trkpt><trkpt lat="32.8946025" lon="9.862415"><ele>321.3333333333333</ele><time>2026-04-27T11:14:48.03Z</time></trkpt><trkpt lat="32.8946077" lon="9.8621831"><ele>321.0</ele><time>2026-04-27T11:14:49.025Z</time></trkpt><trkpt lat="32.8946098" lon="9.8619448"><ele>321.3333333333333</ele><time>2026-04-27T11:14:50.019Z</time></trkpt><trkpt lat="32.8946171" lon="9.8617084"><ele>321.66666666666663</ele><time>2026-04-27T11:14:51.025Z</time></trkpt><trkpt lat="32.894613" lon="9.8614744"><ele>322.0</ele><time>2026-04-27T11:14:52.022Z</time></trkpt><trkpt lat="32.8946016" lon="9.8612398"><ele>322.0</ele><time>2026-04-27T11:14:53.042Z</time></trkpt><trkpt lat="32.8945807" lon="9.861005"><ele>322.0</ele><time>2026-04-27T11:14:54.025Z</time></trkpt><trkpt lat="32.8945521" lon="9.8607752"><ele>322.0</ele><time>2026-04-27T11:14:55.019Z</time></trkpt><trkpt lat="32.8945298" lon="9.8605425"><ele>321.66666666666663</ele><time>2026-04-27T11:14:56.027Z</time></trkpt><trkpt lat="32.8945014" lon="9.8603104"><ele>321.3333333333333</ele><time>2026-04-27T11:14:57.021Z</time></trkpt><trkpt lat="32.8944688" lon="9.8600746"><ele>321.0</ele><time>2026-04-27T11:14:58.031Z</time></trkpt><trkpt lat="32.8944371" lon="9.8598487"><ele>320.6666666666667</ele><time>2026-04-27T11:14:59.026Z</time></trkpt><trkpt lat="32.8944071" lon="9.8596218"><ele>320.33333333333337</ele><time>2026-04-27T11:15:00.025Z</time></trkpt><trkpt lat="32.8943774" lon="9.8593926"><ele>320.0</ele><time>2026-04-27T11:15:01.019Z</time></trkpt><trkpt lat="32.8943549" lon="9.8591556"><ele>320.0</ele><time>2026-04-27T11:15:02.028Z</time></trkpt><trkpt lat="32.8943232" lon="9.8589208"><ele>320.0</ele><time>2026-04-27T11:15:03.024Z</time></trkpt><trkpt lat="32.8942865" lon="9.8586889"><ele>320.0</ele><time>2026-04-27T11:15:04.021Z</time></trkpt><trkpt lat="32.8942559" lon="9.8584545"><ele>319.33333333333337</ele><time>2026-04-27T11:15:05.028Z</time></trkpt><trkpt lat="32.8942299" lon="9.8582191"><ele>318.6666666666667</ele><time>2026-04-27T11:15:06.024Z</time></trkpt><trkpt lat="32.8942033" lon="9.8579874"><ele>318.0</ele><time>2026-04-27T11:15:07.032Z</time></trkpt><trkpt lat="32.8941803" lon="9.8577526"><ele>317.3333333333333</ele><time>2026-04-27T11:15:08.051Z</time></trkpt><trkpt lat="32.8941571" lon="9.8575215"><ele>316.66666666666663</ele><time>2026-04-27T11:15:09.029Z</time></trkpt><trkpt lat="32.8941392" lon="9.8572905"><ele>316.0</ele><time>2026-04-27T11:15:10.03Z</time></trkpt><trkpt lat="32.8941177" lon="9.8570584"><ele>316.0</ele><time>2026-04-27T11:15:11.02Z</time></trkpt><trkpt lat="32.8940943" lon="9.8568232"><ele>316.0</ele><time>2026-04-27T11:15:12.029Z</time></trkpt><trkpt lat="32.8940703" lon="9.8565912"><ele>316.0</ele><time>2026-04-27T11:15:13.026Z</time></trkpt><trkpt lat="32.8940394" lon="9.8563523"><ele>316.0</ele><time>2026-04-27T11:15:14.033Z</time></trkpt><trkpt lat="32.8940102" lon="9.8561186"><ele>316.0</ele><time>2026-04-27T11:15:15.023Z</time></trkpt><trkpt lat="32.8939844" lon="9.8558847"><ele>316.0</ele><time>2026-04-27T11:15:16.027Z</time></trkpt><trkpt lat="32.8939529" lon="9.8556542"><ele>315.0</ele><time>2026-04-27T11:15:17.032Z</time></trkpt><trkpt lat="32.893919" lon="9.8554257"><ele>314.0</ele><time>2026-04-27T11:15:18.031Z</time></trkpt><trkpt lat="32.8938814" lon="9.855199"><ele>313.0</ele><time>2026-04-27T11:15:19.03Z</time></trkpt><trkpt lat="32.8938513" lon="9.8549688"><ele>312.66666666666663</ele><time>2026-04-27T11:15:20.016Z</time></trkpt><trkpt lat="32.8938235" lon="9.8547419"><ele>312.3333333333333</ele><time>2026-04-27T11:15:21.021Z</time></trkpt><trkpt lat="32.8937938" lon="9.8545119"><ele>312.0</ele><time>2026-04-27T11:15:22.033Z</time></trkpt><trkpt lat="32.893757" lon="9.8542821"><ele>312.0</ele><time>2026-04-27T11:15:23.033Z</time></trkpt><trkpt lat="32.8937217" lon="9.8540494"><ele>312.0</ele><time>2026-04-27T11:15:24.037Z</time></trkpt><trkpt lat="32.8936956" lon="9.8538152"><ele>312.0</ele><time>2026-04-27T11:15:25.064Z</time></trkpt><trkpt lat="32.8936719" lon="9.8535788"><ele>311.6666666666667</ele><time>2026-04-27T11:15:26.03Z</time></trkpt><trkpt lat="32.8936482" lon="9.8533415"><ele>311.33333333333337</ele><time>2026-04-27T11:15:27.015Z</time></trkpt><trkpt lat="32.8936303" lon="9.8531119"><ele>311.0</ele><time>2026-04-27T11:15:28.022Z</time></trkpt><trkpt lat="32.8936088" lon="9.8528805"><ele>311.0</ele><time>2026-04-27T11:15:29.028Z</time></trkpt><trkpt lat="32.8935865" lon="9.8526458"><ele>311.0</ele><time>2026-04-27T11:15:30.024Z</time></trkpt><trkpt lat="32.8935523" lon="9.8524145"><ele>311.0</ele><time>2026-04-27T11:15:31.026Z</time></trkpt><trkpt lat="32.893514" lon="9.8521832"><ele>310.6666666666667</ele><time>2026-04-27T11:15:32.03Z</time></trkpt><trkpt lat="32.8934784" lon="9.8519538"><ele>310.3333333333333</ele><time>2026-04-27T11:15:33.024Z</time></trkpt><trkpt lat="32.8934571" lon="9.8517158"><ele>310.0</ele><time>2026-04-27T11:15:34.024Z</time></trkpt><trkpt lat="32.8934304" lon="9.8514873"><ele>309.66666666666663</ele><time>2026-04-27T11:15:35.026Z</time></trkpt><trkpt lat="32.8934059" lon="9.8512647"><ele>309.3333333333333</ele><time>2026-04-27T11:15:36.022Z</time></trkpt><trkpt lat="32.8933803" lon="9.8510381"><ele>309.0</ele><time>2026-04-27T11:15:37.03Z</time></trkpt><trkpt lat="32.8933593" lon="9.8508175"><ele>309.0</ele><time>2026-04-27T11:15:38.018Z</time></trkpt><trkpt lat="32.893338" lon="9.8505865"><ele>309.0</ele><time>2026-04-27T11:15:39.027Z</time></trkpt><trkpt lat="32.8933149" lon="9.8503532"><ele>309.0</ele><time>2026-04-27T11:15:40.029Z</time></trkpt><trkpt lat="32.8932922" lon="9.8501132"><ele>309.3333333333333</ele><time>2026-04-27T11:15:41.041Z</time></trkpt><trkpt lat="32.8932659" lon="9.8498711"><ele>309.66666666666663</ele><time>2026-04-27T11:15:42.033Z</time></trkpt><trkpt lat="32.8932396" lon="9.8496312"><ele>310.0</ele><time>2026-04-27T11:15:43.024Z</time></trkpt><trkpt lat="32.8932156" lon="9.8493972"><ele>309.66666666666663</ele><time>2026-04-27T11:15:44.029Z</time></trkpt><trkpt lat="32.8931931" lon="9.8491573"><ele>309.3333333333333</ele><time>2026-04-27T11:15:45.025Z</time></trkpt><trkpt lat="32.8931662" lon="9.8489242"><ele>309.0</ele><time>2026-04-27T11:15:46.028Z</time></trkpt><trkpt lat="32.8931443" lon="9.848692"><ele>309.0</ele><time>2026-04-27T11:15:47.022Z</time></trkpt><trkpt lat="32.8931227" lon="9.8484601"><ele>309.0</ele><time>2026-04-27T11:15:48.077Z</time></trkpt><trkpt lat="32.8930949" lon="9.8482313"><ele>309.0</ele><time>2026-04-27T11:15:49.071Z</time></trkpt><trkpt lat="32.8930727" lon="9.8480022"><ele>308.6666666666667</ele><time>2026-04-27T11:15:50.066Z</time></trkpt><trkpt lat="32.8930494" lon="9.8477726"><ele>308.33333333333337</ele><time>2026-04-27T11:15:51.042Z</time></trkpt><trkpt lat="32.8930259" lon="9.8475372"><ele>308.0</ele><time>2026-04-27T11:15:52.07Z</time></trkpt><trkpt lat="32.8930004" lon="9.8473039"><ele>308.0</ele><time>2026-04-27T11:15:53.057Z</time></trkpt><trkpt lat="32.8929766" lon="9.8470712"><ele>308.0</ele><time>2026-04-27T11:15:54.061Z</time></trkpt><trkpt lat="32.8929571" lon="9.8468378"><ele>308.0</ele><time>2026-04-27T11:15:55.085Z</time></trkpt><trkpt lat="32.8929349" lon="9.8466047"><ele>307.6666666666667</ele><time>2026-04-27T11:15:56.044Z</time></trkpt><trkpt lat="32.8929141" lon="9.846374"><ele>307.3333333333333</ele><time>2026-04-27T11:15:57.074Z</time></trkpt><trkpt lat="32.8928933" lon="9.8461404"><ele>307.0</ele><time>2026-04-27T11:15:58.076Z</time></trkpt><trkpt lat="32.8928692" lon="9.8459082"><ele>306.66666666666663</ele><time>2026-04-27T11:15:59.062Z</time></trkpt><trkpt lat="32.8928444" lon="9.8456724"><ele>306.3333333333333</ele><time>2026-04-27T11:16:00.073Z</time></trkpt><trkpt lat="32.8928225" lon="9.8454386"><ele>306.0</ele><time>2026-04-27T11:16:01.061Z</time></trkpt><trkpt lat="32.8927974" lon="9.8452082"><ele>305.6666666666667</ele><time>2026-04-27T11:16:02.07Z</time></trkpt><trkpt lat="32.8927742" lon="9.8449767"><ele>305.33333333333337</ele><time>2026-04-27T11:16:03.067Z</time></trkpt><trkpt lat="32.892747" lon="9.8447451"><ele>305.0</ele><time>2026-04-27T11:16:04.071Z</time></trkpt><trkpt lat="32.8927199" lon="9.8445142"><ele>304.0</ele><time>2026-04-27T11:16:05.068Z</time></trkpt><trkpt lat="32.8926973" lon="9.8442823"><ele>303.0</ele><time>2026-04-27T11:16:06.068Z</time></trkpt><trkpt lat="32.8926731" lon="9.8440449"><ele>302.0</ele><time>2026-04-27T11:16:07.062Z</time></trkpt><trkpt lat="32.8926518" lon="9.8438145"><ele>302.0</ele><time>2026-04-27T11:16:08.063Z</time></trkpt><trkpt lat="32.8926252" lon="9.8435837"><ele>302.0</ele><time>2026-04-27T11:16:09.074Z</time></trkpt><trkpt lat="32.8926052" lon="9.8433515"><ele>302.0</ele><time>2026-04-27T11:16:10.081Z</time></trkpt><trkpt lat="32.8925961" lon="9.8431111"><ele>302.0</ele><time>2026-04-27T11:16:11.088Z</time></trkpt><trkpt lat="32.8925987" lon="9.8428756"><ele>302.0</ele><time>2026-04-27T11:16:12.062Z</time></trkpt><trkpt lat="32.8926" lon="9.8426389"><ele>302.0</ele><time>2026-04-27T11:16:13.061Z</time></trkpt><trkpt lat="32.8926157" lon="9.8423999"><ele>302.0</ele><time>2026-04-27T11:16:14.075Z</time></trkpt><trkpt lat="32.8926391" lon="9.8421691"><ele>302.0</ele><time>2026-04-27T11:16:15.046Z</time></trkpt><trkpt lat="32.892672" lon="9.8419391"><ele>302.0</ele><time>2026-04-27T11:16:16.062Z</time></trkpt><trkpt lat="32.8927065" lon="9.841713"><ele>301.6666666666667</ele><time>2026-04-27T11:16:17.056Z</time></trkpt><trkpt lat="32.892743" lon="9.8414857"><ele>301.3333333333333</ele><time>2026-04-27T11:16:18.066Z</time></trkpt><trkpt lat="32.8927809" lon="9.8412558"><ele>301.0</ele><time>2026-04-27T11:16:19.078Z</time></trkpt><trkpt lat="32.8928248" lon="9.8410302"><ele>300.3333333333333</ele><time>2026-04-27T11:16:20.076Z</time></trkpt><trkpt lat="32.8928724" lon="9.8408041"><ele>299.6666666666667</ele><time>2026-04-27T11:16:21.046Z</time></trkpt><trkpt lat="32.8929157" lon="9.8405723"><ele>299.0</ele><time>2026-04-27T11:16:22.074Z</time></trkpt><trkpt lat="32.8929608" lon="9.8403408"><ele>298.6666666666667</ele><time>2026-04-27T11:16:23.07Z</time></trkpt><trkpt lat="32.8930036" lon="9.8401035"><ele>298.3333333333333</ele><time>2026-04-27T11:16:24.079Z</time></trkpt><trkpt lat="32.8930412" lon="9.839873"><ele>298.0</ele><time>2026-04-27T11:16:25.064Z</time></trkpt><trkpt lat="32.8930819" lon="9.8396366"><ele>298.0</ele><time>2026-04-27T11:16:26.016Z</time></trkpt><trkpt lat="32.8931248" lon="9.8394058"><ele>298.0</ele><time>2026-04-27T11:16:27.064Z</time></trkpt><trkpt lat="32.8931615" lon="9.8391718"><ele>298.0</ele><time>2026-04-27T11:16:28.058Z</time></trkpt><trkpt lat="32.8931936" lon="9.8389457"><ele>297.3333333333333</ele><time>2026-04-27T11:16:29.04Z</time></trkpt><trkpt lat="32.8932243" lon="9.8387132"><ele>296.6666666666667</ele><time>2026-04-27T11:16:30.066Z</time></trkpt><trkpt lat="32.8932541" lon="9.8384848"><ele>296.0</ele><time>2026-04-27T11:16:31.057Z</time></trkpt><trkpt lat="32.8932836" lon="9.8382526"><ele>295.6666666666667</ele><time>2026-04-27T11:16:32.101Z</time></trkpt><trkpt lat="32.8933109" lon="9.838022"><ele>295.3333333333333</ele><time>2026-04-27T11:16:33.072Z</time></trkpt><trkpt lat="32.8933414" lon="9.8377889"><ele>295.0</ele><time>2026-04-27T11:16:34.095Z</time></trkpt><trkpt lat="32.8933713" lon="9.8375571"><ele>295.0</ele><time>2026-04-27T11:16:35.084Z</time></trkpt><trkpt lat="32.8934035" lon="9.8373223"><ele>295.0</ele><time>2026-04-27T11:16:36.09Z</time></trkpt><trkpt lat="32.893431" lon="9.8370934"><ele>295.0</ele><time>2026-04-27T11:16:37.081Z</time></trkpt><trkpt lat="32.8934515" lon="9.8368618"><ele>293.66666666666663</ele><time>2026-04-27T11:16:38.094Z</time></trkpt><trkpt lat="32.8934737" lon="9.8366309"><ele>292.3333333333333</ele><time>2026-04-27T11:16:39.079Z</time></trkpt><trkpt lat="32.8934987" lon="9.8364029"><ele>291.0</ele><time>2026-04-27T11:16:40.067Z</time></trkpt><trkpt lat="32.8935202" lon="9.8361726"><ele>291.0</ele><time>2026-04-27T11:16:41.095Z</time></trkpt><trkpt lat="32.8935502" lon="9.8359386"><ele>291.0</ele><time>2026-04-27T11:16:42.081Z</time></trkpt><trkpt lat="32.8935699" lon="9.8357128"><ele>291.0</ele><time>2026-04-27T11:16:43.082Z</time></trkpt><trkpt lat="32.8935917" lon="9.8354958"><ele>291.0</ele><time>2026-04-27T11:16:44.083Z</time></trkpt><trkpt lat="32.8936089" lon="9.8352877"><ele>291.0</ele><time>2026-04-27T11:16:45.079Z</time></trkpt><trkpt lat="32.8936259" lon="9.8350908"><ele>291.0</ele><time>2026-04-27T11:16:46.096Z</time></trkpt><trkpt lat="32.8936447" lon="9.8348977"><ele>290.6666666666667</ele><time>2026-04-27T11:16:47.042Z</time></trkpt><trkpt lat="32.8936634" lon="9.8346984"><ele>290.33333333333337</ele><time>2026-04-27T11:16:48.031Z</time></trkpt><trkpt lat="32.8936824" lon="9.8344903"><ele>290.0</ele><time>2026-04-27T11:16:49.059Z</time></trkpt><trkpt lat="32.8937091" lon="9.8342772"><ele>290.0</ele><time>2026-04-27T11:16:50.036Z</time></trkpt><trkpt lat="32.89373" lon="9.834063"><ele>290.0</ele><time>2026-04-27T11:16:51.046Z</time></trkpt><trkpt lat="32.8937456" lon="9.8338461"><ele>290.0</ele><time>2026-04-27T11:16:52.059Z</time></trkpt><trkpt lat="32.8937557" lon="9.8336378"><ele>289.6666666666667</ele><time>2026-04-27T11:16:53.069Z</time></trkpt><trkpt lat="32.8937673" lon="9.8334271"><ele>289.3333333333333</ele><time>2026-04-27T11:16:54.068Z</time></trkpt><trkpt lat="32.8937708" lon="9.8332165"><ele>289.0</ele><time>2026-04-27T11:16:55.07Z</time></trkpt><trkpt lat="32.8937659" lon="9.8330046"><ele>289.0</ele><time>2026-04-27T11:16:56.075Z</time></trkpt><trkpt lat="32.8937679" lon="9.8327852"><ele>289.0</ele><time>2026-04-27T11:16:57.071Z</time></trkpt><trkpt lat="32.8937634" lon="9.8325656"><ele>289.0</ele><time>2026-04-27T11:16:58.079Z</time></trkpt><trkpt lat="32.8937619" lon="9.8323427"><ele>288.66666666666663</ele><time>2026-04-27T11:16:59.083Z</time></trkpt><trkpt lat="32.8937687" lon="9.8321171"><ele>288.3333333333333</ele><time>2026-04-27T11:17:00.075Z</time></trkpt><trkpt lat="32.8937751" lon="9.8319001"><ele>288.0</ele><time>2026-04-27T11:17:01.088Z</time></trkpt><trkpt lat="32.8937888" lon="9.8316713"><ele>288.0</ele><time>2026-04-27T11:17:02.104Z</time></trkpt><trkpt lat="32.8938037" lon="9.8314523"><ele>288.0</ele><time>2026-04-27T11:17:03.054Z</time></trkpt><trkpt lat="32.8938332" lon="9.831235"><ele>288.0</ele><time>2026-04-27T11:17:04.047Z</time></trkpt><trkpt lat="32.8938668" lon="9.8310204"><ele>288.0</ele><time>2026-04-27T11:17:05.058Z</time></trkpt><trkpt lat="32.8939097" lon="9.830809"><ele>288.0</ele><time>2026-04-27T11:17:06.092Z</time></trkpt><trkpt lat="32.8939528" lon="9.8305918"><ele>288.0</ele><time>2026-04-27T11:17:07.076Z</time></trkpt><trkpt lat="32.8939954" lon="9.8303758"><ele>288.0</ele><time>2026-04-27T11:17:08.08Z</time></trkpt><trkpt lat="32.8940381" lon="9.8301632"><ele>288.0</ele><time>2026-04-27T11:17:09.071Z</time></trkpt><trkpt lat="32.8940846" lon="9.8299464"><ele>288.0</ele><time>2026-04-27T11:17:10.059Z</time></trkpt><trkpt lat="32.8941271" lon="9.8297267"><ele>287.0</ele><time>2026-04-27T11:17:11.073Z</time></trkpt><trkpt lat="32.8941659" lon="9.8295098"><ele>286.0</ele><time>2026-04-27T11:17:12.065Z</time></trkpt><trkpt lat="32.8942079" lon="9.8292892"><ele>285.0</ele><time>2026-04-27T11:17:13.054Z</time></trkpt><trkpt lat="32.8942488" lon="9.8290682"><ele>284.0</ele><time>2026-04-27T11:17:14.092Z</time></trkpt><trkpt lat="32.8942871" lon="9.8288473"><ele>283.0</ele><time>2026-04-27T11:17:15.058Z</time></trkpt><trkpt lat="32.8943233" lon="9.8286228"><ele>282.0</ele><time>2026-04-27T11:17:16.079Z</time></trkpt><trkpt lat="32.8943638" lon="9.828399"><ele>282.0</ele><time>2026-04-27T11:17:17.082Z</time></trkpt><trkpt lat="32.8944011" lon="9.8281829"><ele>282.0</ele><time>2026-04-27T11:17:18.063Z</time></trkpt><trkpt lat="32.8944438" lon="9.8279603"><ele>282.0</ele><time>2026-04-27T11:17:19.037Z</time></trkpt><trkpt lat="32.8944859" lon="9.8277328"><ele>281.6666666666667</ele><time>2026-04-27T11:17:20.059Z</time></trkpt><trkpt lat="32.8945273" lon="9.8275086"><ele>281.33333333333337</ele><time>2026-04-27T11:17:21.037Z</time></trkpt><trkpt lat="32.8945717" lon="9.8272796"><ele>281.0</ele><time>2026-04-27T11:17:22.056Z</time></trkpt><trkpt lat="32.8946145" lon="9.8270463"><ele>281.0</ele><time>2026-04-27T11:17:23.04Z</time></trkpt><trkpt lat="32.8946575" lon="9.8268137"><ele>281.0</ele><time>2026-04-27T11:17:24.078Z</time></trkpt><trkpt lat="32.8946959" lon="9.8265825"><ele>281.0</ele><time>2026-04-27T11:17:25.071Z</time></trkpt><trkpt lat="32.894736" lon="9.8263493"><ele>281.33333333333337</ele><time>2026-04-27T11:17:26.065Z</time></trkpt><trkpt lat="32.894776" lon="9.8261207"><ele>281.6666666666667</ele><time>2026-04-27T11:17:27.084Z</time></trkpt><trkpt lat="32.8948203" lon="9.8258908"><ele>282.0</ele><time>2026-04-27T11:17:28.045Z</time></trkpt><trkpt lat="32.8948647" lon="9.8256655"><ele>281.6666666666667</ele><time>2026-04-27T11:17:29.077Z</time></trkpt><trkpt lat="32.8949096" lon="9.8254381"><ele>281.33333333333337</ele><time>2026-04-27T11:17:30.022Z</time></trkpt><trkpt lat="32.8949479" lon="9.8252097"><ele>281.0</ele><time>2026-04-27T11:17:31.063Z</time></trkpt><trkpt lat="32.8949849" lon="9.8249801"><ele>281.0</ele><time>2026-04-27T11:17:32.081Z</time></trkpt><trkpt lat="32.8950235" lon="9.824751"><ele>281.0</ele><time>2026-04-27T11:17:33.089Z</time></trkpt><trkpt lat="32.8950686" lon="9.8245216"><ele>281.0</ele><time>2026-04-27T11:17:34.083Z</time></trkpt><trkpt lat="32.8951101" lon="9.824293"><ele>280.33333333333337</ele><time>2026-04-27T11:17:35.073Z</time></trkpt><trkpt lat="32.895147" lon="9.8240659"><ele>279.6666666666667</ele><time>2026-04-27T11:17:36.075Z</time></trkpt><trkpt lat="32.8951849" lon="9.8238369"><ele>279.0</ele><time>2026-04-27T11:17:37.075Z</time></trkpt><trkpt lat="32.8952329" lon="9.8236045"><ele>278.3333333333333</ele><time>2026-04-27T11:17:38.086Z</time></trkpt><trkpt lat="32.8952796" lon="9.8233734"><ele>277.66666666666663</ele><time>2026-04-27T11:17:39.066Z</time></trkpt><trkpt lat="32.8953237" lon="9.8231383"><ele>277.0</ele><time>2026-04-27T11:17:40.068Z</time></trkpt><trkpt lat="32.8953653" lon="9.8229083"><ele>277.0</ele><time>2026-04-27T11:17:41.083Z</time></trkpt><trkpt lat="32.8954101" lon="9.8226822"><ele>277.0</ele><time>2026-04-27T11:17:42.087Z</time></trkpt><trkpt lat="32.8954599" lon="9.8224543"><ele>277.0</ele><time>2026-04-27T11:17:43.073Z</time></trkpt><trkpt lat="32.8955043" lon="9.822226"><ele>276.66666666666663</ele><time>2026-04-27T11:17:44.091Z</time></trkpt><trkpt lat="32.8955499" lon="9.8219967"><ele>276.3333333333333</ele><time>2026-04-27T11:17:45.067Z</time></trkpt><trkpt lat="32.8955979" lon="9.8217662"><ele>276.0</ele><time>2026-04-27T11:17:46.07Z</time></trkpt><trkpt lat="32.8956385" lon="9.8215402"><ele>276.0</ele><time>2026-04-27T11:17:47.06Z</time></trkpt><trkpt lat="32.8956832" lon="9.8213106"><ele>276.0</ele><time>2026-04-27T11:17:48.085Z</time></trkpt><trkpt lat="32.8957316" lon="9.8210814"><ele>276.0</ele><time>2026-04-27T11:17:49.079Z</time></trkpt><trkpt lat="32.8957811" lon="9.8208499"><ele>276.0</ele><time>2026-04-27T11:17:50.042Z</time></trkpt><trkpt lat="32.8958313" lon="9.820628"><ele>276.0</ele><time>2026-04-27T11:17:51.047Z</time></trkpt><trkpt lat="32.8958729" lon="9.8203996"><ele>276.0</ele><time>2026-04-27T11:17:52.079Z</time></trkpt><trkpt lat="32.8959183" lon="9.820173"><ele>276.6666666666667</ele><time>2026-04-27T11:17:53.053Z</time></trkpt><trkpt lat="32.8959671" lon="9.8199472"><ele>277.33333333333337</ele><time>2026-04-27T11:17:54.062Z</time></trkpt><trkpt lat="32.8960127" lon="9.81972"><ele>278.0</ele><time>2026-04-27T11:17:55.055Z</time></trkpt><trkpt lat="32.8960574" lon="9.8194904"><ele>277.0</ele><time>2026-04-27T11:17:56.083Z</time></trkpt><trkpt lat="32.8961054" lon="9.8192644"><ele>276.0</ele><time>2026-04-27T11:17:57.09Z</time></trkpt><trkpt lat="32.8961532" lon="9.8190391"><ele>275.0</ele><time>2026-04-27T11:17:58.05Z</time></trkpt><trkpt lat="32.8961969" lon="9.8188129"><ele>275.0</ele><time>2026-04-27T11:17:59.087Z</time></trkpt><trkpt lat="32.896239" lon="9.8185823"><ele>275.0</ele><time>2026-04-27T11:18:00.072Z</time></trkpt><trkpt lat="32.8962816" lon="9.8183527"><ele>275.0</ele><time>2026-04-27T11:18:01.044Z</time></trkpt><trkpt lat="32.8963257" lon="9.8181253"><ele>274.6666666666667</ele><time>2026-04-27T11:18:02.091Z</time></trkpt><trkpt lat="32.8963676" lon="9.817894"><ele>274.3333333333333</ele><time>2026-04-27T11:18:03.084Z</time></trkpt><trkpt lat="32.8964111" lon="9.8176658"><ele>274.0</ele><time>2026-04-27T11:18:04.078Z</time></trkpt><trkpt lat="32.8964504" lon="9.8174379"><ele>274.0</ele><time>2026-04-27T11:18:05.087Z</time></trkpt><trkpt lat="32.8964897" lon="9.8172066"><ele>274.0</ele><time>2026-04-27T11:18:06.088Z</time></trkpt><trkpt lat="32.8965369" lon="9.8169773"><ele>274.0</ele><time>2026-04-27T11:18:07.087Z</time></trkpt><trkpt lat="32.8965867" lon="9.8167464"><ele>274.0</ele><time>2026-04-27T11:18:08.086Z</time></trkpt><trkpt lat="32.8966388" lon="9.8165248"><ele>274.0</ele><time>2026-04-27T11:18:09.069Z</time></trkpt><trkpt lat="32.8966948" lon="9.8162978"><ele>274.0</ele><time>2026-04-27T11:18:10.073Z</time></trkpt><trkpt lat="32.8967557" lon="9.8160756"><ele>274.0</ele><time>2026-04-27T11:18:11.046Z</time></trkpt><trkpt lat="32.8968176" lon="9.8158513"><ele>274.0</ele><time>2026-04-27T11:18:12.067Z</time></trkpt><trkpt lat="32.8968854" lon="9.8156243"><ele>274.0</ele><time>2026-04-27T11:18:13.027Z</time></trkpt><trkpt lat="32.896962" lon="9.8154059"><ele>274.0</ele><time>2026-04-27T11:18:14.056Z</time></trkpt><trkpt lat="32.8970359" lon="9.8151882"><ele>274.0</ele><time>2026-04-27T11:18:15.02Z</time></trkpt><trkpt lat="32.8971103" lon="9.8149695"><ele>274.0</ele><time>2026-04-27T11:18:16.058Z</time></trkpt><trkpt lat="32.8971802" lon="9.8147522"><ele>274.3333333333333</ele><time>2026-04-27T11:18:17.02Z</time></trkpt><trkpt lat="32.8972554" lon="9.8145328"><ele>274.6666666666667</ele><time>2026-04-27T11:18:18.015Z</time></trkpt><trkpt lat="32.8973292" lon="9.8143107"><ele>275.0</ele><time>2026-04-27T11:18:19.028Z</time></trkpt><trkpt lat="32.897402" lon="9.8140926"><ele>274.33333333333337</ele><time>2026-04-27T11:18:20.02Z</time></trkpt><trkpt lat="32.8974733" lon="9.8138751"><ele>273.6666666666667</ele><time>2026-04-27T11:18:21.033Z</time></trkpt><trkpt lat="32.8975452" lon="9.8136579"><ele>273.0</ele><time>2026-04-27T11:18:22.03Z</time></trkpt><trkpt lat="32.8976218" lon="9.8134399"><ele>272.6666666666667</ele><time>2026-04-27T11:18:23.029Z</time></trkpt><trkpt lat="32.8976941" lon="9.8132212"><ele>272.33333333333337</ele><time>2026-04-27T11:18:24.026Z</time></trkpt><trkpt lat="32.8977678" lon="9.8130033"><ele>272.0</ele><time>2026-04-27T11:18:25.019Z</time></trkpt><trkpt lat="32.8978409" lon="9.8127823"><ele>271.6666666666667</ele><time>2026-04-27T11:18:26.026Z</time></trkpt><trkpt lat="32.8979136" lon="9.8125638"><ele>271.3333333333333</ele><time>2026-04-27T11:18:27.024Z</time></trkpt><trkpt lat="32.8979898" lon="9.8123428"><ele>271.0</ele><time>2026-04-27T11:18:28.035Z</time></trkpt><trkpt lat="32.8980565" lon="9.8121217"><ele>271.0</ele><time>2026-04-27T11:18:29.031Z</time></trkpt><trkpt lat="32.8981271" lon="9.8119008"><ele>271.0</ele><time>2026-04-27T11:18:30.022Z</time></trkpt><trkpt lat="32.8981973" lon="9.8116829"><ele>271.0</ele><time>2026-04-27T11:18:31.042Z</time></trkpt><trkpt lat="32.8982696" lon="9.8114648"><ele>271.0</ele><time>2026-04-27T11:18:32.034Z</time></trkpt><trkpt lat="32.8983394" lon="9.8112493"><ele>271.0</ele><time>2026-04-27T11:18:33.036Z</time></trkpt><trkpt lat="32.8984079" lon="9.8110367"><ele>271.0</ele><time>2026-04-27T11:18:34.031Z</time></trkpt><trkpt lat="32.8984687" lon="9.8108286"><ele>271.0</ele><time>2026-04-27T11:18:35.031Z</time></trkpt><trkpt lat="32.8985346" lon="9.8106333"><ele>271.0</ele><time>2026-04-27T11:18:36.039Z</time></trkpt><trkpt lat="32.8985971" lon="9.810442"><ele>271.0</ele><time>2026-04-27T11:18:37.038Z</time></trkpt><trkpt lat="32.8986568" lon="9.8102435"><ele>272.0</ele><time>2026-04-27T11:18:38.027Z</time></trkpt><trkpt lat="32.8987128" lon="9.8100526"><ele>273.0</ele><time>2026-04-27T11:18:39.031Z</time></trkpt><trkpt lat="32.8987683" lon="9.8098547"><ele>274.0</ele><time>2026-04-27T11:18:40.025Z</time></trkpt><trkpt lat="32.8988234" lon="9.8096573"><ele>274.0</ele><time>2026-04-27T11:18:41.021Z</time></trkpt><trkpt lat="32.8988808" lon="9.8094599"><ele>274.0</ele><time>2026-04-27T11:18:42.035Z</time></trkpt><trkpt lat="32.8989361" lon="9.8092567"><ele>274.0</ele><time>2026-04-27T11:18:43.035Z</time></trkpt><trkpt lat="32.8989951" lon="9.8090525"><ele>273.0</ele><time>2026-04-27T11:18:44.032Z</time></trkpt><trkpt lat="32.899055" lon="9.8088493"><ele>272.0</ele><time>2026-04-27T11:18:45.029Z</time></trkpt><trkpt lat="32.8991135" lon="9.808642"><ele>271.0</ele><time>2026-04-27T11:18:46.036Z</time></trkpt><trkpt lat="32.8991731" lon="9.808433"><ele>271.0</ele><time>2026-04-27T11:18:47.034Z</time></trkpt><trkpt lat="32.8992287" lon="9.808227"><ele>271.0</ele><time>2026-04-27T11:18:48.035Z</time></trkpt><trkpt lat="32.8992857" lon="9.8080159"><ele>271.0</ele><time>2026-04-27T11:18:49.038Z</time></trkpt><trkpt lat="32.8993419" lon="9.8078043"><ele>270.0</ele><time>2026-04-27T11:18:50.026Z</time></trkpt><trkpt lat="32.8993926" lon="9.8075965"><ele>269.0</ele><time>2026-04-27T11:18:51.021Z</time></trkpt><trkpt lat="32.8994464" lon="9.8073888"><ele>268.0</ele><time>2026-04-27T11:18:52.027Z</time></trkpt><trkpt lat="32.8995043" lon="9.8071798"><ele>268.0</ele><time>2026-04-27T11:18:53.029Z</time></trkpt><trkpt lat="32.8995609" lon="9.8069734"><ele>268.0</ele><time>2026-04-27T11:18:54.026Z</time></trkpt><trkpt lat="32.8996205" lon="9.8067592"><ele>268.0</ele><time>2026-04-27T11:18:55.03Z</time></trkpt><trkpt lat="32.8996786" lon="9.8065504"><ele>268.3333333333333</ele><time>2026-04-27T11:18:56.021Z</time></trkpt><trkpt lat="32.8997324" lon="9.8063439"><ele>268.6666666666667</ele><time>2026-04-27T11:18:57.027Z</time></trkpt><trkpt lat="32.8997832" lon="9.8061435"><ele>269.0</ele><time>2026-04-27T11:18:58.02Z</time></trkpt><trkpt lat="32.8998305" lon="9.8059402"><ele>269.0</ele><time>2026-04-27T11:18:59.069Z</time></trkpt><trkpt lat="32.8998825" lon="9.8057381"><ele>269.0</ele><time>2026-04-27T11:19:00.028Z</time></trkpt><trkpt lat="32.8999358" lon="9.8055346"><ele>269.0</ele><time>2026-04-27T11:19:01.016Z</time></trkpt><trkpt lat="32.899993" lon="9.8053381"><ele>268.33333333333337</ele><time>2026-04-27T11:19:02.028Z</time></trkpt><trkpt lat="32.9000526" lon="9.8051352"><ele>267.6666666666667</ele><time>2026-04-27T11:19:03.021Z</time></trkpt><trkpt lat="32.9001093" lon="9.8049244"><ele>267.0</ele><time>2026-04-27T11:19:04.034Z</time></trkpt><trkpt lat="32.9001631" lon="9.8047135"><ele>267.0</ele><time>2026-04-27T11:19:05.037Z</time></trkpt><trkpt lat="32.900213" lon="9.8045024"><ele>267.0</ele><time>2026-04-27T11:19:06.037Z</time></trkpt><trkpt lat="32.9002707" lon="9.8042978"><ele>267.0</ele><time>2026-04-27T11:19:07.04Z</time></trkpt><trkpt lat="32.9003292" lon="9.8040928"><ele>267.0</ele><time>2026-04-27T11:19:08.029Z</time></trkpt><trkpt lat="32.9003845" lon="9.8038876"><ele>267.0</ele><time>2026-04-27T11:19:09.018Z</time></trkpt><trkpt lat="32.9004927" lon="9.8034731"><ele>266.6666666666667</ele><time>2026-04-27T11:19:11.074Z</time></trkpt><trkpt lat="32.9005473" lon="9.8032628"><ele>266.33333333333337</ele><time>2026-04-27T11:19:12.028Z</time></trkpt><trkpt lat="32.9006019" lon="9.8030546"><ele>266.0</ele><time>2026-04-27T11:19:13.03Z</time></trkpt><trkpt lat="32.900659" lon="9.8028436"><ele>266.0</ele><time>2026-04-27T11:19:14.035Z</time></trkpt><trkpt lat="32.9007124" lon="9.8026353"><ele>266.0</ele><time>2026-04-27T11:19:15.035Z</time></trkpt><trkpt lat="32.9007661" lon="9.8024206"><ele>266.0</ele><time>2026-04-27T11:19:16.038Z</time></trkpt><trkpt lat="32.900829" lon="9.8022048"><ele>266.0</ele><time>2026-04-27T11:19:17.027Z</time></trkpt><trkpt lat="32.900887" lon="9.8019866"><ele>266.0</ele><time>2026-04-27T11:19:18.032Z</time></trkpt><trkpt lat="32.9009445" lon="9.8017748"><ele>266.0</ele><time>2026-04-27T11:19:19.026Z</time></trkpt><trkpt lat="32.9010024" lon="9.8015605"><ele>266.0</ele><time>2026-04-27T11:19:20.02Z</time></trkpt><trkpt lat="32.9010588" lon="9.8013512"><ele>266.0</ele><time>2026-04-27T11:19:21.03Z</time></trkpt><trkpt lat="32.9011172" lon="9.8011347"><ele>266.0</ele><time>2026-04-27T11:19:22.022Z</time></trkpt><trkpt lat="32.9011742" lon="9.8009167"><ele>266.0</ele><time>2026-04-27T11:19:23.032Z</time></trkpt><trkpt lat="32.9012309" lon="9.8007002"><ele>266.0</ele><time>2026-04-27T11:19:24.044Z</time></trkpt><trkpt lat="32.9012825" lon="9.8004887"><ele>266.0</ele><time>2026-04-27T11:19:25.028Z</time></trkpt><trkpt lat="32.9013395" lon="9.8002777"><ele>265.6666666666667</ele><time>2026-04-27T11:19:26.02Z</time></trkpt><trkpt lat="32.9013963" lon="9.8000634"><ele>265.3333333333333</ele><time>2026-04-27T11:19:27.019Z</time></trkpt><trkpt lat="32.9014457" lon="9.7998515"><ele>265.0</ele><time>2026-04-27T11:19:28.031Z</time></trkpt><trkpt lat="32.9015" lon="9.7996402"><ele>265.0</ele><time>2026-04-27T11:19:29.024Z</time></trkpt><trkpt lat="32.9015563" lon="9.7994313"><ele>265.0</ele><time>2026-04-27T11:19:30.017Z</time></trkpt><trkpt lat="32.9016074" lon="9.7992218"><ele>265.0</ele><time>2026-04-27T11:19:31.03Z</time></trkpt><trkpt lat="32.9016605" lon="9.7990108"><ele>264.66666666666663</ele><time>2026-04-27T11:19:32.02Z</time></trkpt><trkpt lat="32.9017113" lon="9.7987953"><ele>264.3333333333333</ele><time>2026-04-27T11:19:33.025Z</time></trkpt><trkpt lat="32.9017701" lon="9.7985683"><ele>264.0</ele><time>2026-04-27T11:19:34.039Z</time></trkpt><trkpt lat="32.9018241" lon="9.7983497"><ele>264.0</ele><time>2026-04-27T11:19:35.022Z</time></trkpt><trkpt lat="32.9018752" lon="9.7981311"><ele>264.0</ele><time>2026-04-27T11:19:36.033Z</time></trkpt><trkpt lat="32.9019221" lon="9.7979106"><ele>264.0</ele><time>2026-04-27T11:19:37.029Z</time></trkpt><trkpt lat="32.9019685" lon="9.79769"><ele>265.0</ele><time>2026-04-27T11:19:38.043Z</time></trkpt><trkpt lat="32.9020143" lon="9.7974725"><ele>266.0</ele><time>2026-04-27T11:19:39.023Z</time></trkpt><trkpt lat="32.9020625" lon="9.7972599"><ele>267.0</ele><time>2026-04-27T11:19:40.021Z</time></trkpt><trkpt lat="32.9021146" lon="9.7970532"><ele>267.0</ele><time>2026-04-27T11:19:41.043Z</time></trkpt><trkpt lat="32.9021626" lon="9.7968435"><ele>267.0</ele><time>2026-04-27T11:19:42.025Z</time></trkpt><trkpt lat="32.9021978" lon="9.7966321"><ele>267.0</ele><time>2026-04-27T11:19:43.026Z</time></trkpt><trkpt lat="32.9022309" lon="9.7964181"><ele>267.6666666666667</ele><time>2026-04-27T11:19:44.027Z</time></trkpt><trkpt lat="32.9022624" lon="9.7962072"><ele>268.33333333333337</ele><time>2026-04-27T11:19:45.029Z</time></trkpt><trkpt lat="32.9022873" lon="9.7959949"><ele>269.0</ele><time>2026-04-27T11:19:46.02Z</time></trkpt><trkpt lat="32.9023084" lon="9.7957793"><ele>270.33333333333337</ele><time>2026-04-27T11:19:47.026Z</time></trkpt><trkpt lat="32.9023283" lon="9.7955665"><ele>271.6666666666667</ele><time>2026-04-27T11:19:48.027Z</time></trkpt><trkpt lat="32.9023372" lon="9.7953567"><ele>273.0</ele><time>2026-04-27T11:19:49.029Z</time></trkpt><trkpt lat="32.9023548" lon="9.7949296"><ele>274.6666666666667</ele><time>2026-04-27T11:19:51.024Z</time></trkpt><trkpt lat="32.9023621" lon="9.7947185"><ele>276.33333333333337</ele><time>2026-04-27T11:19:52.026Z</time></trkpt><trkpt lat="32.902361" lon="9.7945076"><ele>278.0</ele><time>2026-04-27T11:19:53.032Z</time></trkpt><trkpt lat="32.9023572" lon="9.7942996"><ele>280.0</ele><time>2026-04-27T11:19:54.027Z</time></trkpt><trkpt lat="32.9023443" lon="9.794093"><ele>282.0</ele><time>2026-04-27T11:19:55.031Z</time></trkpt><trkpt lat="32.9023295" lon="9.7938855"><ele>284.0</ele><time>2026-04-27T11:19:56.032Z</time></trkpt><trkpt lat="32.9023117" lon="9.7936828"><ele>285.6666666666667</ele><time>2026-04-27T11:19:57.029Z</time></trkpt><trkpt lat="32.9022953" lon="9.7934791"><ele>287.3333333333333</ele><time>2026-04-27T11:19:58.038Z</time></trkpt><trkpt lat="32.9022796" lon="9.7932697"><ele>289.0</ele><time>2026-04-27T11:19:59.033Z</time></trkpt><trkpt lat="32.9022564" lon="9.793064"><ele>289.0</ele><time>2026-04-27T11:20:00.028Z</time></trkpt><trkpt lat="32.902237" lon="9.7928455"><ele>289.0</ele><time>2026-04-27T11:20:01.012Z</time></trkpt><trkpt lat="32.9022202" lon="9.7926346"><ele>289.0</ele><time>2026-04-27T11:20:02.021Z</time></trkpt><trkpt lat="32.9022028" lon="9.7924231"><ele>289.66666666666663</ele><time>2026-04-27T11:20:03.023Z</time></trkpt><trkpt lat="32.902191" lon="9.792218"><ele>290.3333333333333</ele><time>2026-04-27T11:20:04.023Z</time></trkpt><trkpt lat="32.9021751" lon="9.7920339"><ele>291.0</ele><time>2026-04-27T11:20:05.015Z</time></trkpt><trkpt lat="32.9021639" lon="9.7918538"><ele>291.0</ele><time>2026-04-27T11:20:06.017Z</time></trkpt><trkpt lat="32.9021609" lon="9.7916713"><ele>291.0</ele><time>2026-04-27T11:20:07.026Z</time></trkpt><trkpt lat="32.9021702" lon="9.7914919"><ele>291.0</ele><time>2026-04-27T11:20:08.024Z</time></trkpt><trkpt lat="32.9021881" lon="9.7913105"><ele>292.0</ele><time>2026-04-27T11:20:09.065Z</time></trkpt><trkpt lat="32.9022737" lon="9.7905688"><ele>292.0</ele><time>2026-04-27T11:20:13.062Z</time></trkpt><trkpt lat="32.9023" lon="9.7903766"><ele>292.0</ele><time>2026-04-27T11:20:14.02Z</time></trkpt><trkpt lat="32.902324" lon="9.7901851"><ele>292.0</ele><time>2026-04-27T11:20:15.027Z</time></trkpt><trkpt lat="32.9023484" lon="9.7899969"><ele>292.3333333333333</ele><time>2026-04-27T11:20:16.03Z</time></trkpt><trkpt lat="32.9023761" lon="9.789805"><ele>292.6666666666667</ele><time>2026-04-27T11:20:17.032Z</time></trkpt><trkpt lat="32.9024073" lon="9.7896097"><ele>293.0</ele><time>2026-04-27T11:20:18.047Z</time></trkpt><trkpt lat="32.902437" lon="9.7894188"><ele>293.0</ele><time>2026-04-27T11:20:19.036Z</time></trkpt><trkpt lat="32.9024687" lon="9.7892291"><ele>293.0</ele><time>2026-04-27T11:20:20.071Z</time></trkpt><trkpt lat="32.9025041" lon="9.7890328"><ele>293.0</ele><time>2026-04-27T11:20:21.035Z</time></trkpt><trkpt lat="32.9025328" lon="9.7888386"><ele>293.0</ele><time>2026-04-27T11:20:22.057Z</time></trkpt><trkpt lat="32.9025672" lon="9.7886426"><ele>293.0</ele><time>2026-04-27T11:20:23.035Z</time></trkpt><trkpt lat="32.9026093" lon="9.7884428"><ele>293.0</ele><time>2026-04-27T11:20:24.055Z</time></trkpt><trkpt lat="32.9026578" lon="9.7882429"><ele>293.33333333333337</ele><time>2026-04-27T11:20:25.076Z</time></trkpt><trkpt lat="32.9027019" lon="9.7880444"><ele>293.6666666666667</ele><time>2026-04-27T11:20:26.047Z</time></trkpt><trkpt lat="32.9027436" lon="9.7878475"><ele>294.0</ele><time>2026-04-27T11:20:27.062Z</time></trkpt><trkpt lat="32.9027864" lon="9.7876475"><ele>293.0</ele><time>2026-04-27T11:20:28.021Z</time></trkpt><trkpt lat="32.9028685" lon="9.7872412"><ele>292.0</ele><time>2026-04-27T11:20:30.05Z</time></trkpt><trkpt lat="32.9030198" lon="9.7866439"><ele>292.0</ele><time>2026-04-27T11:20:33.037Z</time></trkpt><trkpt lat="32.9030655" lon="9.7864468"><ele>292.0</ele><time>2026-04-27T11:20:34.025Z</time></trkpt><trkpt lat="32.9031018" lon="9.7862449"><ele>292.0</ele><time>2026-04-27T11:20:35.04Z</time></trkpt><trkpt lat="32.9031446" lon="9.7860427"><ele>292.0</ele><time>2026-04-27T11:20:36.015Z</time></trkpt><trkpt lat="32.903188" lon="9.7858341"><ele>292.0</ele><time>2026-04-27T11:20:37.07Z</time></trkpt><trkpt lat="32.9032297" lon="9.7856328"><ele>292.0</ele><time>2026-04-27T11:20:38.018Z</time></trkpt><trkpt lat="32.9032734" lon="9.7854377"><ele>292.0</ele><time>2026-04-27T11:20:39.029Z</time></trkpt><trkpt lat="32.9033086" lon="9.7852439"><ele>292.0</ele><time>2026-04-27T11:20:40.067Z</time></trkpt><trkpt lat="32.9033484" lon="9.7850483"><ele>292.0</ele><time>2026-04-27T11:20:41.038Z</time></trkpt><trkpt lat="32.9033833" lon="9.7848561"><ele>293.0</ele><time>2026-04-27T11:20:42.074Z</time></trkpt><trkpt lat="32.9034227" lon="9.784665"><ele>294.0</ele><time>2026-04-27T11:20:43.062Z</time></trkpt><trkpt lat="32.903467" lon="9.784474"><ele>295.0</ele><time>2026-04-27T11:20:44.082Z</time></trkpt><trkpt lat="32.9035057" lon="9.7842882"><ele>295.3333333333333</ele><time>2026-04-27T11:20:45.059Z</time></trkpt><trkpt lat="32.9035409" lon="9.7841026"><ele>295.6666666666667</ele><time>2026-04-27T11:20:46.089Z</time></trkpt><trkpt lat="32.9035782" lon="9.7839239"><ele>296.0</ele><time>2026-04-27T11:20:47.022Z</time></trkpt><trkpt lat="32.9036105" lon="9.7837478"><ele>296.0</ele><time>2026-04-27T11:20:48.071Z</time></trkpt><trkpt lat="32.9036423" lon="9.7835675"><ele>296.0</ele><time>2026-04-27T11:20:49.06Z</time></trkpt><trkpt lat="32.9036746" lon="9.7833809"><ele>296.0</ele><time>2026-04-27T11:20:50.06Z</time></trkpt><trkpt lat="32.9037183" lon="9.7831855"><ele>296.33333333333337</ele><time>2026-04-27T11:20:51.091Z</time></trkpt><trkpt lat="32.9037693" lon="9.7829877"><ele>296.6666666666667</ele><time>2026-04-27T11:20:52.067Z</time></trkpt><trkpt lat="32.9038195" lon="9.7827867"><ele>297.0</ele><time>2026-04-27T11:20:53.069Z</time></trkpt><trkpt lat="32.903865" lon="9.7825732"><ele>297.0</ele><time>2026-04-27T11:20:54.012Z</time></trkpt><trkpt lat="32.9039163" lon="9.7823557"><ele>297.0</ele><time>2026-04-27T11:20:55.052Z</time></trkpt><trkpt lat="32.9039682" lon="9.7821358"><ele>297.0</ele><time>2026-04-27T11:20:56.049Z</time></trkpt><trkpt lat="32.9040214" lon="9.7819211"><ele>296.6666666666667</ele><time>2026-04-27T11:20:57.036Z</time></trkpt><trkpt lat="32.9040765" lon="9.7817057"><ele>296.33333333333337</ele><time>2026-04-27T11:20:58.022Z</time></trkpt><trkpt lat="32.9041296" lon="9.781488"><ele>296.0</ele><time>2026-04-27T11:20:59.049Z</time></trkpt><trkpt lat="32.9041822" lon="9.7812685"><ele>296.0</ele><time>2026-04-27T11:21:00.023Z</time></trkpt><trkpt lat="32.9042371" lon="9.7810433"><ele>296.0</ele><time>2026-04-27T11:21:01.04Z</time></trkpt><trkpt lat="32.90429" lon="9.7808152"><ele>296.0</ele><time>2026-04-27T11:21:02.066Z</time></trkpt><trkpt lat="32.904342" lon="9.780589"><ele>294.33333333333337</ele><time>2026-04-27T11:21:03.059Z</time></trkpt><trkpt lat="32.9043967" lon="9.7803644"><ele>292.6666666666667</ele><time>2026-04-27T11:21:04.084Z</time></trkpt><trkpt lat="32.9044537" lon="9.7801362"><ele>291.0</ele><time>2026-04-27T11:21:05.038Z</time></trkpt><trkpt lat="32.9045107" lon="9.7799107"><ele>290.6666666666667</ele><time>2026-04-27T11:21:06.009Z</time></trkpt><trkpt lat="32.9045662" lon="9.7796773"><ele>290.33333333333337</ele><time>2026-04-27T11:21:07.018Z</time></trkpt><trkpt lat="32.9046233" lon="9.7794487"><ele>290.0</ele><time>2026-04-27T11:21:08.033Z</time></trkpt><trkpt lat="32.9046775" lon="9.7792154"><ele>289.33333333333337</ele><time>2026-04-27T11:21:09.021Z</time></trkpt><trkpt lat="32.9047271" lon="9.7789812"><ele>288.6666666666667</ele><time>2026-04-27T11:21:10.057Z</time></trkpt><trkpt lat="32.9047746" lon="9.7787472"><ele>288.0</ele><time>2026-04-27T11:21:11.048Z</time></trkpt><trkpt lat="32.9048285" lon="9.7785194"><ele>287.6666666666667</ele><time>2026-04-27T11:21:12.071Z</time></trkpt><trkpt lat="32.9048864" lon="9.7782934"><ele>287.33333333333337</ele><time>2026-04-27T11:21:13.077Z</time></trkpt><trkpt lat="32.9049447" lon="9.7780599"><ele>287.0</ele><time>2026-04-27T11:21:14.084Z</time></trkpt><trkpt lat="32.9049987" lon="9.7778289"><ele>287.6666666666667</ele><time>2026-04-27T11:21:15.058Z</time></trkpt><trkpt lat="32.9050571" lon="9.7775968"><ele>288.3333333333333</ele><time>2026-04-27T11:21:16.08Z</time></trkpt><trkpt lat="32.9051121" lon="9.7773618"><ele>289.0</ele><time>2026-04-27T11:21:17.055Z</time></trkpt><trkpt lat="32.9051617" lon="9.7771308"><ele>289.66666666666663</ele><time>2026-04-27T11:21:18.052Z</time></trkpt><trkpt lat="32.9052136" lon="9.776899"><ele>290.3333333333333</ele><time>2026-04-27T11:21:19.073Z</time></trkpt><trkpt lat="32.9052741" lon="9.7766762"><ele>291.0</ele><time>2026-04-27T11:21:20.074Z</time></trkpt><trkpt lat="32.9053316" lon="9.7764504"><ele>288.6666666666667</ele><time>2026-04-27T11:21:21.08Z</time></trkpt><trkpt lat="32.9053897" lon="9.7762256"><ele>286.33333333333337</ele><time>2026-04-27T11:21:22.078Z</time></trkpt><trkpt lat="32.9054443" lon="9.7759962"><ele>284.0</ele><time>2026-04-27T11:21:23.04Z</time></trkpt><trkpt lat="32.9054993" lon="9.7757669"><ele>283.33333333333337</ele><time>2026-04-27T11:21:24.021Z</time></trkpt><trkpt lat="32.9055544" lon="9.7755363"><ele>282.6666666666667</ele><time>2026-04-27T11:21:25.032Z</time></trkpt><trkpt lat="32.9056095" lon="9.7753038"><ele>282.0</ele><time>2026-04-27T11:21:26.07Z</time></trkpt><trkpt lat="32.9056606" lon="9.7750703"><ele>282.0</ele><time>2026-04-27T11:21:27.035Z</time></trkpt><trkpt lat="32.9057052" lon="9.77484"><ele>282.0</ele><time>2026-04-27T11:21:28.021Z</time></trkpt><trkpt lat="32.9057426" lon="9.7746027"><ele>282.0</ele><time>2026-04-27T11:21:29.06Z</time></trkpt><trkpt lat="32.9057706" lon="9.7743624"><ele>282.0</ele><time>2026-04-27T11:21:30.056Z</time></trkpt><trkpt lat="32.9057894" lon="9.7741205"><ele>282.0</ele><time>2026-04-27T11:21:31.07Z</time></trkpt><trkpt lat="32.9057908" lon="9.7738779"><ele>282.0</ele><time>2026-04-27T11:21:32.075Z</time></trkpt><trkpt lat="32.9057924" lon="9.7736391"><ele>281.6666666666667</ele><time>2026-04-27T11:21:33.031Z</time></trkpt><trkpt lat="32.9057962" lon="9.7733958"><ele>281.33333333333337</ele><time>2026-04-27T11:21:34.059Z</time></trkpt><trkpt lat="32.9057942" lon="9.7731504"><ele>281.0</ele><time>2026-04-27T11:21:35.046Z</time></trkpt><trkpt lat="32.9057916" lon="9.7729082"><ele>281.0</ele><time>2026-04-27T11:21:36.085Z</time></trkpt><trkpt lat="32.9057838" lon="9.7726648"><ele>281.0</ele><time>2026-04-27T11:21:37.077Z</time></trkpt><trkpt lat="32.9057758" lon="9.7724187"><ele>281.0</ele><time>2026-04-27T11:21:38.078Z</time></trkpt><trkpt lat="32.9057699" lon="9.7721746"><ele>281.0</ele><time>2026-04-27T11:21:39.099Z</time></trkpt><trkpt lat="32.9057686" lon="9.7719304"><ele>281.0</ele><time>2026-04-27T11:21:40.074Z</time></trkpt><trkpt lat="32.9057614" lon="9.7716941"><ele>281.0</ele><time>2026-04-27T11:21:41.077Z</time></trkpt><trkpt lat="32.9057609" lon="9.7714548"><ele>280.6666666666667</ele><time>2026-04-27T11:21:42.077Z</time></trkpt><trkpt lat="32.9057662" lon="9.7712093"><ele>280.3333333333333</ele><time>2026-04-27T11:21:43.087Z</time></trkpt><trkpt lat="32.9057818" lon="9.770962"><ele>280.0</ele><time>2026-04-27T11:21:44.074Z</time></trkpt><trkpt lat="32.9057974" lon="9.770727"><ele>280.0</ele><time>2026-04-27T11:21:45.06Z</time></trkpt><trkpt lat="32.9058163" lon="9.7705173"><ele>280.0</ele><time>2026-04-27T11:21:46.081Z</time></trkpt><trkpt lat="32.9058515" lon="9.7703164"><ele>280.0</ele><time>2026-04-27T11:21:47.032Z</time></trkpt><trkpt lat="32.905893" lon="9.770125"><ele>279.25</ele><time>2026-04-27T11:21:48.087Z</time></trkpt><trkpt lat="32.9059191" lon="9.7699371"><ele>278.5</ele><time>2026-04-27T11:21:49.08Z</time></trkpt><trkpt lat="32.9059406" lon="9.7697663"><ele>277.75</ele><time>2026-04-27T11:21:50.073Z</time></trkpt><trkpt lat="32.9059489" lon="9.7696049"><ele>277.0</ele><time>2026-04-27T11:21:51.079Z</time></trkpt><trkpt lat="32.9059639" lon="9.7694386"><ele>277.5</ele><time>2026-04-27T11:21:52.09Z</time></trkpt><trkpt lat="32.9059769" lon="9.7692832"><ele>278.0</ele><time>2026-04-27T11:21:53.063Z</time></trkpt><trkpt lat="32.9059978" lon="9.7691143"><ele>278.5</ele><time>2026-04-27T11:21:54.032Z</time></trkpt><trkpt lat="32.9060112" lon="9.7689451"><ele>279.0</ele><time>2026-04-27T11:21:55.047Z</time></trkpt><trkpt lat="32.9060369" lon="9.768774"><ele>279.0</ele><time>2026-04-27T11:21:56.045Z</time></trkpt><trkpt lat="32.9060682" lon="9.7685951"><ele>279.0</ele><time>2026-04-27T11:21:57.032Z</time></trkpt><trkpt lat="32.906104" lon="9.7682155"><ele>279.0</ele><time>2026-04-27T11:21:59.034Z</time></trkpt><trkpt lat="32.9061202" lon="9.7680151"><ele>279.0</ele><time>2026-04-27T11:22:00.039Z</time></trkpt><trkpt lat="32.9061385" lon="9.7678032"><ele>279.0</ele><time>2026-04-27T11:22:01.041Z</time></trkpt><trkpt lat="32.9061641" lon="9.7675906"><ele>278.0</ele><time>2026-04-27T11:22:02.035Z</time></trkpt><trkpt lat="32.9061931" lon="9.7673808"><ele>277.0</ele><time>2026-04-27T11:22:03.041Z</time></trkpt><trkpt lat="32.9062142" lon="9.7671721"><ele>276.0</ele><time>2026-04-27T11:22:04.068Z</time></trkpt><trkpt lat="32.9062314" lon="9.7669772"><ele>275.0</ele><time>2026-04-27T11:22:05.058Z</time></trkpt><trkpt lat="32.9062501" lon="9.7667745"><ele>274.0</ele><time>2026-04-27T11:22:06.021Z</time></trkpt><trkpt lat="32.9062682" lon="9.7665694"><ele>273.0</ele><time>2026-04-27T11:22:07.034Z</time></trkpt><trkpt lat="32.9062786" lon="9.766358"><ele>273.0</ele><time>2026-04-27T11:22:08.049Z</time></trkpt><trkpt lat="32.9062959" lon="9.7661487"><ele>273.0</ele><time>2026-04-27T11:22:09.064Z</time></trkpt><trkpt lat="32.9063197" lon="9.7659419"><ele>273.0</ele><time>2026-04-27T11:22:10.051Z</time></trkpt><trkpt lat="32.9063434" lon="9.7657348"><ele>273.0</ele><time>2026-04-27T11:22:11.059Z</time></trkpt><trkpt lat="32.9063654" lon="9.7655209"><ele>273.0</ele><time>2026-04-27T11:22:12.058Z</time></trkpt><trkpt lat="32.906391" lon="9.7653132"><ele>273.0</ele><time>2026-04-27T11:22:13.088Z</time></trkpt><trkpt lat="32.9064189" lon="9.7651101"><ele>272.6666666666667</ele><time>2026-04-27T11:22:14.072Z</time></trkpt><trkpt lat="32.9064409" lon="9.7649037"><ele>272.33333333333337</ele><time>2026-04-27T11:22:15.029Z</time></trkpt><trkpt lat="32.9064601" lon="9.764694"><ele>272.0</ele><time>2026-04-27T11:22:16.058Z</time></trkpt><trkpt lat="32.9064793" lon="9.7644822"><ele>271.0</ele><time>2026-04-27T11:22:17.021Z</time></trkpt><trkpt lat="32.9064976" lon="9.7642723"><ele>270.0</ele><time>2026-04-27T11:22:18.042Z</time></trkpt><trkpt lat="32.9065204" lon="9.764058"><ele>269.0</ele><time>2026-04-27T11:22:19.021Z</time></trkpt><trkpt lat="32.9065568" lon="9.7636381"><ele>268.6666666666667</ele><time>2026-04-27T11:22:21.035Z</time></trkpt><trkpt lat="32.9065746" lon="9.7634228"><ele>268.3333333333333</ele><time>2026-04-27T11:22:22.026Z</time></trkpt><trkpt lat="32.906594" lon="9.7632042"><ele>268.0</ele><time>2026-04-27T11:22:23.026Z</time></trkpt><trkpt lat="32.9066122" lon="9.7629939"><ele>268.0</ele><time>2026-04-27T11:22:24.023Z</time></trkpt><trkpt lat="32.906639" lon="9.7627765"><ele>268.0</ele><time>2026-04-27T11:22:25.03Z</time></trkpt><trkpt lat="32.9066687" lon="9.7625628"><ele>268.0</ele><time>2026-04-27T11:22:26.033Z</time></trkpt><trkpt lat="32.9066979" lon="9.7623489"><ele>268.66666666666663</ele><time>2026-04-27T11:22:27.037Z</time></trkpt><trkpt lat="32.9067295" lon="9.7621471"><ele>269.3333333333333</ele><time>2026-04-27T11:22:28.059Z</time></trkpt><trkpt lat="32.9067612" lon="9.7619375"><ele>270.0</ele><time>2026-04-27T11:22:29.07Z</time></trkpt><trkpt lat="32.906789" lon="9.7617264"><ele>270.0</ele><time>2026-04-27T11:22:30.042Z</time></trkpt><trkpt lat="32.9068157" lon="9.7615165"><ele>270.0</ele><time>2026-04-27T11:22:31.022Z</time></trkpt><trkpt lat="32.9068432" lon="9.7613057"><ele>270.0</ele><time>2026-04-27T11:22:32.075Z</time></trkpt><trkpt lat="32.9068755" lon="9.7610997"><ele>269.3333333333333</ele><time>2026-04-27T11:22:33.075Z</time></trkpt><trkpt lat="32.9069041" lon="9.7608946"><ele>268.66666666666663</ele><time>2026-04-27T11:22:34.055Z</time></trkpt><trkpt lat="32.9069364" lon="9.7606889"><ele>268.0</ele><time>2026-04-27T11:22:35.06Z</time></trkpt><trkpt lat="32.906965" lon="9.760488"><ele>268.0</ele><time>2026-04-27T11:22:36.035Z</time></trkpt><trkpt lat="32.906999" lon="9.7602765"><ele>268.0</ele><time>2026-04-27T11:22:37.068Z</time></trkpt><trkpt lat="32.9070328" lon="9.7600737"><ele>268.0</ele><time>2026-04-27T11:22:38.083Z</time></trkpt><trkpt lat="32.9070651" lon="9.7598629"><ele>268.3333333333333</ele><time>2026-04-27T11:22:39.07Z</time></trkpt><trkpt lat="32.9070972" lon="9.7596495"><ele>268.6666666666667</ele><time>2026-04-27T11:22:40.041Z</time></trkpt><trkpt lat="32.9071286" lon="9.7594392"><ele>269.0</ele><time>2026-04-27T11:22:41.036Z</time></trkpt><trkpt lat="32.9071583" lon="9.7592269"><ele>269.6666666666667</ele><time>2026-04-27T11:22:42.046Z</time></trkpt><trkpt lat="32.9071818" lon="9.7590137"><ele>270.3333333333333</ele><time>2026-04-27T11:22:43.063Z</time></trkpt><trkpt lat="32.9072134" lon="9.758799"><ele>271.0</ele><time>2026-04-27T11:22:44.068Z</time></trkpt><trkpt lat="32.9072506" lon="9.7585857"><ele>271.0</ele><time>2026-04-27T11:22:45.08Z</time></trkpt><trkpt lat="32.9072836" lon="9.7583646"><ele>271.0</ele><time>2026-04-27T11:22:46.064Z</time></trkpt><trkpt lat="32.9073095" lon="9.7581455"><ele>271.0</ele><time>2026-04-27T11:22:47.028Z</time></trkpt><trkpt lat="32.9073346" lon="9.7579272"><ele>271.0</ele><time>2026-04-27T11:22:48.073Z</time></trkpt><trkpt lat="32.9073562" lon="9.757706"><ele>271.0</ele><time>2026-04-27T11:22:49.052Z</time></trkpt><trkpt lat="32.9073796" lon="9.7574862"><ele>271.0</ele><time>2026-04-27T11:22:50.079Z</time></trkpt><trkpt lat="32.9074024" lon="9.757264"><ele>270.66666666666663</ele><time>2026-04-27T11:22:51.076Z</time></trkpt><trkpt lat="32.9074213" lon="9.7570408"><ele>270.3333333333333</ele><time>2026-04-27T11:22:52.103Z</time></trkpt><trkpt lat="32.9074458" lon="9.7568155"><ele>270.0</ele><time>2026-04-27T11:22:53.029Z</time></trkpt><trkpt lat="32.9074675" lon="9.7565925"><ele>270.6666666666667</ele><time>2026-04-27T11:22:54.102Z</time></trkpt><trkpt lat="32.9074851" lon="9.7563716"><ele>271.33333333333337</ele><time>2026-04-27T11:22:55.056Z</time></trkpt><trkpt lat="32.9074995" lon="9.7561491"><ele>272.0</ele><time>2026-04-27T11:22:56.039Z</time></trkpt><trkpt lat="32.9075127" lon="9.7559267"><ele>272.6666666666667</ele><time>2026-04-27T11:22:57.134Z</time></trkpt><trkpt lat="32.9075269" lon="9.7556989"><ele>273.3333333333333</ele><time>2026-04-27T11:22:58.106Z</time></trkpt><trkpt lat="32.9075545" lon="9.7554794"><ele>274.0</ele><time>2026-04-27T11:22:59.079Z</time></trkpt><trkpt lat="32.9075914" lon="9.7552593"><ele>274.66666666666663</ele><time>2026-04-27T11:23:00.066Z</time></trkpt><trkpt lat="32.9076329" lon="9.7550457"><ele>275.3333333333333</ele><time>2026-04-27T11:23:01.058Z</time></trkpt><trkpt lat="32.9076742" lon="9.7548384"><ele>276.0</ele><time>2026-04-27T11:23:02.051Z</time></trkpt><trkpt lat="32.9077232" lon="9.7546272"><ele>276.0</ele><time>2026-04-27T11:23:03.049Z</time></trkpt><trkpt lat="32.9077717" lon="9.7544214"><ele>276.0</ele><time>2026-04-27T11:23:04.065Z</time></trkpt><trkpt lat="32.9078287" lon="9.7542142"><ele>276.0</ele><time>2026-04-27T11:23:05.059Z</time></trkpt><trkpt lat="32.9078864" lon="9.7540172"><ele>277.6666666666667</ele><time>2026-04-27T11:23:06.063Z</time></trkpt><trkpt lat="32.9079573" lon="9.7538231"><ele>279.33333333333337</ele><time>2026-04-27T11:23:07.045Z</time></trkpt><trkpt lat="32.9080367" lon="9.7536381"><ele>281.0</ele><time>2026-04-27T11:23:08.07Z</time></trkpt><trkpt lat="32.9081237" lon="9.7534565"><ele>281.6666666666667</ele><time>2026-04-27T11:23:09.071Z</time></trkpt><trkpt lat="32.9082185" lon="9.7532715"><ele>282.3333333333333</ele><time>2026-04-27T11:23:10.079Z</time></trkpt><trkpt lat="32.9083189" lon="9.7531005"><ele>283.0</ele><time>2026-04-27T11:23:11.075Z</time></trkpt><trkpt lat="32.9084274" lon="9.7529334"><ele>283.0</ele><time>2026-04-27T11:23:12.087Z</time></trkpt><trkpt lat="32.9085306" lon="9.7527691"><ele>283.0</ele><time>2026-04-27T11:23:13.086Z</time></trkpt><trkpt lat="32.9086355" lon="9.7526033"><ele>283.0</ele><time>2026-04-27T11:23:14.065Z</time></trkpt><trkpt lat="32.9087416" lon="9.752436"><ele>283.66666666666663</ele><time>2026-04-27T11:23:15.079Z</time></trkpt><trkpt lat="32.9088456" lon="9.7522665"><ele>284.3333333333333</ele><time>2026-04-27T11:23:16.063Z</time></trkpt><trkpt lat="32.908952" lon="9.7521034"><ele>285.0</ele><time>2026-04-27T11:23:17.032Z</time></trkpt><trkpt lat="32.9090535" lon="9.7519415"><ele>285.3333333333333</ele><time>2026-04-27T11:23:18.088Z</time></trkpt><trkpt lat="32.9091457" lon="9.7517881"><ele>285.66666666666663</ele><time>2026-04-27T11:23:19.017Z</time></trkpt><trkpt lat="32.9092377" lon="9.7516311"><ele>286.0</ele><time>2026-04-27T11:23:20.064Z</time></trkpt><trkpt lat="32.9093249" lon="9.7514839"><ele>286.0</ele><time>2026-04-27T11:23:21.016Z</time></trkpt><trkpt lat="32.909414" lon="9.7513371"><ele>286.0</ele><time>2026-04-27T11:23:22.071Z</time></trkpt><trkpt lat="32.9094925" lon="9.751195"><ele>286.0</ele><time>2026-04-27T11:23:23.081Z</time></trkpt><trkpt lat="32.9095604" lon="9.7510584"><ele>286.0</ele><time>2026-04-27T11:23:24.031Z</time></trkpt><trkpt lat="32.9096214" lon="9.7509289"><ele>285.8</ele><time>2026-04-27T11:23:25.047Z</time></trkpt><trkpt lat="32.9096766" lon="9.750807"><ele>285.6</ele><time>2026-04-27T11:23:26.072Z</time></trkpt><trkpt lat="32.9097236" lon="9.7507016"><ele>285.4</ele><time>2026-04-27T11:23:27.054Z</time></trkpt><trkpt lat="32.9097641" lon="9.7506084"><ele>285.2</ele><time>2026-04-27T11:23:28.083Z</time></trkpt><trkpt lat="32.9097956" lon="9.7505374"><ele>285.0</ele><time>2026-04-27T11:23:29.053Z</time></trkpt><trkpt lat="32.9098335" lon="9.750436"><ele>285.0</ele><time>2026-04-27T11:23:31.074Z</time></trkpt><trkpt lat="32.9098293" lon="9.7503397"><ele>285.0</ele><time>2026-04-27T11:23:43.031Z</time></trkpt><trkpt lat="32.9098241" lon="9.7502638"><ele>285.0</ele><time>2026-04-27T11:23:46.075Z</time></trkpt><trkpt lat="32.9099035" lon="9.7501813"><ele>285.0</ele><time>2026-04-27T11:44:38.062Z</time></trkpt><trkpt lat="32.9099568" lon="9.7501111"><ele>285.0</ele><time>2026-04-27T11:44:41.043Z</time></trkpt><trkpt lat="32.9100155" lon="9.7500308"><ele>285.0</ele><time>2026-04-27T11:44:43.031Z</time></trkpt><trkpt lat="32.9100773" lon="9.7499346"><ele>284.5</ele><time>2026-04-27T11:44:45.035Z</time></trkpt><trkpt lat="32.9101366" lon="9.749815"><ele>284.0</ele><time>2026-04-27T11:44:47.019Z</time></trkpt><trkpt lat="32.9101701" lon="9.7497515"><ele>283.5</ele><time>2026-04-27T11:44:48.026Z</time></trkpt><trkpt lat="32.9102087" lon="9.7496828"><ele>283.0</ele><time>2026-04-27T11:44:49.043Z</time></trkpt><trkpt lat="32.9102494" lon="9.7496109"><ele>282.5</ele><time>2026-04-27T11:44:50.037Z</time></trkpt><trkpt lat="32.9102894" lon="9.7495374"><ele>282.0</ele><time>2026-04-27T11:44:51.016Z</time></trkpt><trkpt lat="32.9103265" lon="9.7494714"><ele>282.2</ele><time>2026-04-27T11:44:52.046Z</time></trkpt><trkpt lat="32.9103972" lon="9.7493409"><ele>282.4</ele><time>2026-04-27T11:44:54.024Z</time></trkpt><trkpt lat="32.9104377" lon="9.7492542"><ele>282.6</ele><time>2026-04-27T11:44:55.012Z</time></trkpt><trkpt lat="32.9104855" lon="9.7491693"><ele>282.8</ele><time>2026-04-27T11:44:56.044Z</time></trkpt><trkpt lat="32.9105473" lon="9.7490879"><ele>283.0</ele><time>2026-04-27T11:44:57.074Z</time></trkpt><trkpt lat="32.9106024" lon="9.7490052"><ele>283.0</ele><time>2026-04-27T11:44:58.051Z</time></trkpt><trkpt lat="32.9106555" lon="9.7489162"><ele>283.0</ele><time>2026-04-27T11:44:59.019Z</time></trkpt><trkpt lat="32.910714" lon="9.7488275"><ele>283.0</ele><time>2026-04-27T11:45:00.03Z</time></trkpt><trkpt lat="32.9107626" lon="9.7487357"><ele>283.0</ele><time>2026-04-27T11:45:01.033Z</time></trkpt><trkpt lat="32.9108055" lon="9.7486537"><ele>283.0</ele><time>2026-04-27T11:45:02.036Z</time></trkpt><trkpt lat="32.9108403" lon="9.7485665"><ele>283.0</ele><time>2026-04-27T11:45:03.032Z</time></trkpt><trkpt lat="32.9108733" lon="9.7484985"><ele>282.6</ele><time>2026-04-27T11:45:04.026Z</time></trkpt><trkpt lat="32.9109309" lon="9.7483725"><ele>282.20000000000005</ele><time>2026-04-27T11:45:06.026Z</time></trkpt><trkpt lat="32.910976" lon="9.7482791"><ele>281.8</ele><time>2026-04-27T11:45:08.07Z</time></trkpt><trkpt lat="32.9110216" lon="9.7481978"><ele>281.40000000000003</ele><time>2026-04-27T11:45:11.057Z</time></trkpt><trkpt lat="32.9110677" lon="9.7480945"><ele>281.0</ele><time>2026-04-27T11:45:20.04Z</time></trkpt><trkpt lat="32.9111246" lon="9.7479902"><ele>281.0</ele><time>2026-04-27T11:45:22.053Z</time></trkpt><trkpt lat="32.9111965" lon="9.7478891"><ele>281.0</ele><time>2026-04-27T11:45:24.027Z</time></trkpt><trkpt lat="32.9112862" lon="9.7478217"><ele>281.0</ele><time>2026-04-27T11:45:26.055Z</time></trkpt><trkpt lat="32.9113668" lon="9.7477087"><ele>281.0</ele><time>2026-04-27T11:45:28.039Z</time></trkpt><trkpt lat="32.9114212" lon="9.7475915"><ele>281.1666666666667</ele><time>2026-04-27T11:45:30.046Z</time></trkpt><trkpt lat="32.9114598" lon="9.7474638"><ele>281.33333333333337</ele><time>2026-04-27T11:45:32.059Z</time></trkpt><trkpt lat="32.9114663" lon="9.747389"><ele>281.5</ele><time>2026-04-27T11:45:33.034Z</time></trkpt><trkpt lat="32.9114808" lon="9.7473008"><ele>281.6666666666667</ele><time>2026-04-27T11:45:34.053Z</time></trkpt><trkpt lat="32.9115009" lon="9.7472172"><ele>281.8333333333333</ele><time>2026-04-27T11:45:35.036Z</time></trkpt><trkpt lat="32.9115256" lon="9.747131"><ele>282.0</ele><time>2026-04-27T11:45:36.049Z</time></trkpt><trkpt lat="32.9115596" lon="9.7470399"><ele>282.0</ele><time>2026-04-27T11:45:37.032Z</time></trkpt><trkpt lat="32.9115987" lon="9.7469513"><ele>282.0</ele><time>2026-04-27T11:45:38.052Z</time></trkpt><trkpt lat="32.9116394" lon="9.7468624"><ele>282.0</ele><time>2026-04-27T11:45:39.058Z</time></trkpt><trkpt lat="32.9116788" lon="9.746783"><ele>282.0</ele><time>2026-04-27T11:45:40.055Z</time></trkpt><trkpt lat="32.9117199" lon="9.7467115"><ele>282.0</ele><time>2026-04-27T11:45:41.058Z</time></trkpt><trkpt lat="32.911759" lon="9.7466384"><ele>282.0</ele><time>2026-04-27T11:45:42.042Z</time></trkpt><trkpt lat="32.9117971" lon="9.7465611"><ele>281.8</ele><time>2026-04-27T11:45:43.049Z</time></trkpt><trkpt lat="32.9118391" lon="9.7464733"><ele>281.6</ele><time>2026-04-27T11:45:44.022Z</time></trkpt><trkpt lat="32.9118819" lon="9.7463867"><ele>281.40000000000003</ele><time>2026-04-27T11:45:45.047Z</time></trkpt><trkpt lat="32.911926" lon="9.7463015"><ele>281.2</ele><time>2026-04-27T11:45:46.064Z</time></trkpt><trkpt lat="32.9119749" lon="9.7462105"><ele>281.0</ele><time>2026-04-27T11:45:47.144Z</time></trkpt><trkpt lat="32.9120702" lon="9.7460519"><ele>280.83333333333337</ele><time>2026-04-27T11:45:49.045Z</time></trkpt><trkpt lat="32.9121203" lon="9.7459816"><ele>280.6666666666667</ele><time>2026-04-27T11:45:50.047Z</time></trkpt><trkpt lat="32.9121798" lon="9.7458997"><ele>280.5</ele><time>2026-04-27T11:45:51.037Z</time></trkpt><trkpt lat="32.9122364" lon="9.7458282"><ele>280.3333333333333</ele><time>2026-04-27T11:45:52.04Z</time></trkpt><trkpt lat="32.9122911" lon="9.7457544"><ele>280.16666666666663</ele><time>2026-04-27T11:45:53.04Z</time></trkpt><trkpt lat="32.9123531" lon="9.7456802"><ele>280.0</ele><time>2026-04-27T11:45:54.033Z</time></trkpt><trkpt lat="32.9124189" lon="9.7456073"><ele>280.0</ele><time>2026-04-27T11:45:55.02Z</time></trkpt><trkpt lat="32.9124794" lon="9.7455372"><ele>280.0</ele><time>2026-04-27T11:45:56.043Z</time></trkpt><trkpt lat="32.912601" lon="9.745421"><ele>280.0</ele><time>2026-04-27T11:45:58.043Z</time></trkpt><trkpt lat="32.9126632" lon="9.7453658"><ele>280.0</ele><time>2026-04-27T11:45:59.037Z</time></trkpt><trkpt lat="32.912727" lon="9.7453074"><ele>280.0</ele><time>2026-04-27T11:46:00.032Z</time></trkpt><trkpt lat="32.9127892" lon="9.7452398"><ele>279.8333333333333</ele><time>2026-04-27T11:46:01.028Z</time></trkpt><trkpt lat="32.9128478" lon="9.7451767"><ele>279.66666666666663</ele><time>2026-04-27T11:46:02.028Z</time></trkpt><trkpt lat="32.9129076" lon="9.7451141"><ele>279.5</ele><time>2026-04-27T11:46:03.017Z</time></trkpt><trkpt lat="32.9129673" lon="9.7450481"><ele>279.3333333333333</ele><time>2026-04-27T11:46:04.025Z</time></trkpt><trkpt lat="32.9130247" lon="9.7449757"><ele>279.1666666666667</ele><time>2026-04-27T11:46:05.045Z</time></trkpt><trkpt lat="32.9130872" lon="9.7448983"><ele>279.0</ele><time>2026-04-27T11:46:06.023Z</time></trkpt><trkpt lat="32.9131555" lon="9.7448212"><ele>279.0</ele><time>2026-04-27T11:46:07.033Z</time></trkpt><trkpt lat="32.9132144" lon="9.7447442"><ele>279.0</ele><time>2026-04-27T11:46:08.036Z</time></trkpt><trkpt lat="32.9132792" lon="9.7446692"><ele>279.0</ele><time>2026-04-27T11:46:09.091Z</time></trkpt><trkpt lat="32.9133441" lon="9.744586"><ele>279.0</ele><time>2026-04-27T11:46:10.03Z</time></trkpt><trkpt lat="32.9134734" lon="9.7444254"><ele>278.6666666666667</ele><time>2026-04-27T11:46:12.048Z</time></trkpt><trkpt lat="32.9135313" lon="9.7443476"><ele>278.3333333333333</ele><time>2026-04-27T11:46:13.017Z</time></trkpt><trkpt lat="32.9135834" lon="9.7442774"><ele>278.0</ele><time>2026-04-27T11:46:14.053Z</time></trkpt><trkpt lat="32.9136417" lon="9.7442075"><ele>277.66666666666663</ele><time>2026-04-27T11:46:15.02Z</time></trkpt><trkpt lat="32.9136966" lon="9.7441364"><ele>277.3333333333333</ele><time>2026-04-27T11:46:16.053Z</time></trkpt><trkpt lat="32.9137552" lon="9.7440522"><ele>277.0</ele><time>2026-04-27T11:46:17.034Z</time></trkpt><trkpt lat="32.9138139" lon="9.7439637"><ele>277.0</ele><time>2026-04-27T11:46:18.043Z</time></trkpt><trkpt lat="32.9138653" lon="9.7438671"><ele>277.0</ele><time>2026-04-27T11:46:19.042Z</time></trkpt><trkpt lat="32.9139136" lon="9.7437682"><ele>277.0</ele><time>2026-04-27T11:46:20.048Z</time></trkpt><trkpt lat="32.913959" lon="9.7436607"><ele>277.0</ele><time>2026-04-27T11:46:21.032Z</time></trkpt><trkpt lat="32.9140039" lon="9.7435527"><ele>277.0</ele><time>2026-04-27T11:46:22.04Z</time></trkpt><trkpt lat="32.9140519" lon="9.7434424"><ele>276.8</ele><time>2026-04-27T11:46:23.05Z</time></trkpt><trkpt lat="32.9140964" lon="9.7433322"><ele>276.6</ele><time>2026-04-27T11:46:24.045Z</time></trkpt><trkpt lat="32.9141371" lon="9.7432172"><ele>276.40000000000003</ele><time>2026-04-27T11:46:25.04Z</time></trkpt><trkpt lat="32.9141773" lon="9.7430983"><ele>276.2</ele><time>2026-04-27T11:46:26.044Z</time></trkpt><trkpt lat="32.9142149" lon="9.7429786"><ele>276.0</ele><time>2026-04-27T11:46:27.031Z</time></trkpt><trkpt lat="32.9142481" lon="9.7428623"><ele>276.0</ele><time>2026-04-27T11:46:28.042Z</time></trkpt><trkpt lat="32.9142853" lon="9.7427403"><ele>276.0</ele><time>2026-04-27T11:46:29.032Z</time></trkpt><trkpt lat="32.9143274" lon="9.7426214"><ele>276.0</ele><time>2026-04-27T11:46:30.033Z</time></trkpt><trkpt lat="32.9143729" lon="9.7425027"><ele>276.0</ele><time>2026-04-27T11:46:31.056Z</time></trkpt><trkpt lat="32.9144193" lon="9.7423824"><ele>276.0</ele><time>2026-04-27T11:46:32.066Z</time></trkpt><trkpt lat="32.9144615" lon="9.7422677"><ele>276.0</ele><time>2026-04-27T11:46:33.047Z</time></trkpt><trkpt lat="32.9145007" lon="9.7421571"><ele>276.0</ele><time>2026-04-27T11:46:34.062Z</time></trkpt><trkpt lat="32.9145407" lon="9.7420422"><ele>276.0</ele><time>2026-04-27T11:46:35.09Z</time></trkpt><trkpt lat="32.9145848" lon="9.7419345"><ele>276.0</ele><time>2026-04-27T11:46:36.044Z</time></trkpt><trkpt lat="32.9146269" lon="9.7418226"><ele>276.0</ele><time>2026-04-27T11:46:37.047Z</time></trkpt><trkpt lat="32.9146666" lon="9.7417121"><ele>276.0</ele><time>2026-04-27T11:46:38.06Z</time></trkpt><trkpt lat="32.9147089" lon="9.7415909"><ele>276.0</ele><time>2026-04-27T11:46:39.059Z</time></trkpt><trkpt lat="32.9147515" lon="9.7414705"><ele>276.0</ele><time>2026-04-27T11:46:40.061Z</time></trkpt><trkpt lat="32.9147925" lon="9.7413485"><ele>276.0</ele><time>2026-04-27T11:46:41.034Z</time></trkpt><trkpt lat="32.9148284" lon="9.741224"><ele>276.0</ele><time>2026-04-27T11:46:42.087Z</time></trkpt><trkpt lat="32.9148611" lon="9.7410977"><ele>275.40000000000003</ele><time>2026-04-27T11:46:43.063Z</time></trkpt><trkpt lat="32.9149" lon="9.7409712"><ele>274.8</ele><time>2026-04-27T11:46:44.067Z</time></trkpt><trkpt lat="32.9149414" lon="9.7408449"><ele>274.20000000000005</ele><time>2026-04-27T11:46:45.051Z</time></trkpt><trkpt lat="32.9149878" lon="9.7407286"><ele>273.6</ele><time>2026-04-27T11:46:46.077Z</time></trkpt><trkpt lat="32.9150345" lon="9.7406147"><ele>273.0</ele><time>2026-04-27T11:46:47.026Z</time></trkpt><trkpt lat="32.9150842" lon="9.7404996"><ele>273.0</ele><time>2026-04-27T11:46:48.059Z</time></trkpt><trkpt lat="32.9151366" lon="9.740384"><ele>273.0</ele><time>2026-04-27T11:46:49.056Z</time></trkpt><trkpt lat="32.9151844" lon="9.7402651"><ele>273.0</ele><time>2026-04-27T11:46:50.065Z</time></trkpt><trkpt lat="32.9152317" lon="9.7401477"><ele>273.0</ele><time>2026-04-27T11:46:51.069Z</time></trkpt><trkpt lat="32.9152736" lon="9.7400248"><ele>273.0</ele><time>2026-04-27T11:46:52.046Z</time></trkpt><trkpt lat="32.9153176" lon="9.7399057"><ele>273.4</ele><time>2026-04-27T11:46:53.064Z</time></trkpt><trkpt lat="32.91536" lon="9.7397927"><ele>273.8</ele><time>2026-04-27T11:46:54.043Z</time></trkpt><trkpt lat="32.915396" lon="9.7396708"><ele>274.2</ele><time>2026-04-27T11:46:55.06Z</time></trkpt><trkpt lat="32.9154389" lon="9.7395499"><ele>274.6</ele><time>2026-04-27T11:46:56.077Z</time></trkpt><trkpt lat="32.9154865" lon="9.7394305"><ele>275.0</ele><time>2026-04-27T11:46:57.06Z</time></trkpt><trkpt lat="32.9155336" lon="9.7393108"><ele>275.0</ele><time>2026-04-27T11:46:58.069Z</time></trkpt><trkpt lat="32.9155764" lon="9.7391934"><ele>275.0</ele><time>2026-04-27T11:46:59.045Z</time></trkpt><trkpt lat="32.9156172" lon="9.739076"><ele>275.0</ele><time>2026-04-27T11:47:00.029Z</time></trkpt><trkpt lat="32.915656" lon="9.7389617"><ele>275.0</ele><time>2026-04-27T11:47:01.064Z</time></trkpt><trkpt lat="32.915693" lon="9.7388474"><ele>275.0</ele><time>2026-04-27T11:47:02.085Z</time></trkpt><trkpt lat="32.9157294" lon="9.738732"><ele>275.0</ele><time>2026-04-27T11:47:03.066Z</time></trkpt><trkpt lat="32.9157714" lon="9.7386086"><ele>275.0</ele><time>2026-04-27T11:47:04.03Z</time></trkpt><trkpt lat="32.9158154" lon="9.7384892"><ele>275.0</ele><time>2026-04-27T11:47:05.063Z</time></trkpt><trkpt lat="32.9158573" lon="9.7383702"><ele>275.0</ele><time>2026-04-27T11:47:06.058Z</time></trkpt><trkpt lat="32.9159004" lon="9.7382594"><ele>275.0</ele><time>2026-04-27T11:47:07.039Z</time></trkpt><trkpt lat="32.9159464" lon="9.7381409"><ele>274.8</ele><time>2026-04-27T11:47:08.056Z</time></trkpt><trkpt lat="32.9159938" lon="9.7380249"><ele>274.6</ele><time>2026-04-27T11:47:09.059Z</time></trkpt><trkpt lat="32.9160374" lon="9.7379084"><ele>274.4</ele><time>2026-04-27T11:47:10.061Z</time></trkpt><trkpt lat="32.9160756" lon="9.7377976"><ele>274.2</ele><time>2026-04-27T11:47:11.028Z</time></trkpt><trkpt lat="32.9161106" lon="9.7376831"><ele>274.0</ele><time>2026-04-27T11:47:12.068Z</time></trkpt><trkpt lat="32.9161524" lon="9.7375706"><ele>274.0</ele><time>2026-04-27T11:47:13.018Z</time></trkpt><trkpt lat="32.9161896" lon="9.7374541"><ele>274.0</ele><time>2026-04-27T11:47:14.063Z</time></trkpt><trkpt lat="32.9162288" lon="9.7373332"><ele>274.0</ele><time>2026-04-27T11:47:15.064Z</time></trkpt><trkpt lat="32.9162699" lon="9.7372137"><ele>274.0</ele><time>2026-04-27T11:47:16.063Z</time></trkpt><trkpt lat="32.9163146" lon="9.737099"><ele>274.0</ele><time>2026-04-27T11:47:17.067Z</time></trkpt><trkpt lat="32.9163521" lon="9.7369804"><ele>273.8</ele><time>2026-04-27T11:47:18.014Z</time></trkpt><trkpt lat="32.9163939" lon="9.7368644"><ele>273.59999999999997</ele><time>2026-04-27T11:47:19.03Z</time></trkpt><trkpt lat="32.9164417" lon="9.7367508"><ele>273.4</ele><time>2026-04-27T11:47:20.087Z</time></trkpt><trkpt lat="32.9164843" lon="9.7366426"><ele>273.2</ele><time>2026-04-27T11:47:21.059Z</time></trkpt><trkpt lat="32.9165286" lon="9.736528"><ele>273.0</ele><time>2026-04-27T11:47:22.056Z</time></trkpt><trkpt lat="32.9165738" lon="9.7364062"><ele>273.0</ele><time>2026-04-27T11:47:23.076Z</time></trkpt><trkpt lat="32.9166178" lon="9.7362938"><ele>273.0</ele><time>2026-04-27T11:47:24.035Z</time></trkpt><trkpt lat="32.9166654" lon="9.7361717"><ele>273.0</ele><time>2026-04-27T11:47:25.04Z</time></trkpt><trkpt lat="32.9167115" lon="9.736055"><ele>273.0</ele><time>2026-04-27T11:47:26.016Z</time></trkpt><trkpt lat="32.9167553" lon="9.7359383"><ele>273.0</ele><time>2026-04-27T11:47:27.034Z</time></trkpt><trkpt lat="32.9167996" lon="9.73582"><ele>273.3333333333333</ele><time>2026-04-27T11:47:28.051Z</time></trkpt><trkpt lat="32.9169259" lon="9.7354553"><ele>273.66666666666663</ele><time>2026-04-27T11:47:31.026Z</time></trkpt><trkpt lat="32.916968" lon="9.7353409"><ele>274.0</ele><time>2026-04-27T11:47:32.027Z</time></trkpt><trkpt lat="32.9170073" lon="9.7352239"><ele>273.59999999999997</ele><time>2026-04-27T11:47:33.014Z</time></trkpt><trkpt lat="32.9170446" lon="9.7351132"><ele>273.2</ele><time>2026-04-27T11:47:34.032Z</time></trkpt><trkpt lat="32.9170832" lon="9.7350034"><ele>272.79999999999995</ele><time>2026-04-27T11:47:35.018Z</time></trkpt><trkpt lat="32.9171299" lon="9.7348972"><ele>272.4</ele><time>2026-04-27T11:47:36.012Z</time></trkpt><trkpt lat="32.917176" lon="9.7347878"><ele>272.0</ele><time>2026-04-27T11:47:37.048Z</time></trkpt><trkpt lat="32.9172622" lon="9.7345661"><ele>272.0</ele><time>2026-04-27T11:47:39.038Z</time></trkpt><trkpt lat="32.9172995" lon="9.7344543"><ele>272.0</ele><time>2026-04-27T11:47:40.059Z</time></trkpt><trkpt lat="32.9173356" lon="9.7343469"><ele>272.0</ele><time>2026-04-27T11:47:41.013Z</time></trkpt><trkpt lat="32.9173863" lon="9.7342352"><ele>272.0</ele><time>2026-04-27T11:47:42.074Z</time></trkpt><trkpt lat="32.9174826" lon="9.7340369"><ele>272.5</ele><time>2026-04-27T11:47:44.021Z</time></trkpt><trkpt lat="32.9175182" lon="9.7339373"><ele>273.0</ele><time>2026-04-27T11:47:45.056Z</time></trkpt><trkpt lat="32.917577" lon="9.7337259"><ele>273.5</ele><time>2026-04-27T11:47:47.056Z</time></trkpt><trkpt lat="32.9176139" lon="9.7336242"><ele>274.0</ele><time>2026-04-27T11:47:48.029Z</time></trkpt><trkpt lat="32.9177043" lon="9.7334059"><ele>274.0</ele><time>2026-04-27T11:47:50.014Z</time></trkpt><trkpt lat="32.9177508" lon="9.7332985"><ele>274.0</ele><time>2026-04-27T11:47:51.024Z</time></trkpt><trkpt lat="32.9177998" lon="9.7331933"><ele>274.0</ele><time>2026-04-27T11:47:52.032Z</time></trkpt><trkpt lat="32.9178458" lon="9.7330893"><ele>274.0</ele><time>2026-04-27T11:47:53.064Z</time></trkpt><trkpt lat="32.9178833" lon="9.7329816"><ele>274.0</ele><time>2026-04-27T11:47:54.072Z</time></trkpt><trkpt lat="32.9179234" lon="9.7328687"><ele>274.0</ele><time>2026-04-27T11:47:55.026Z</time></trkpt><trkpt lat="32.9179475" lon="9.7327697"><ele>274.0</ele><time>2026-04-27T11:47:56.015Z</time></trkpt><trkpt lat="32.9179674" lon="9.7326739"><ele>274.0</ele><time>2026-04-27T11:47:57.013Z</time></trkpt><trkpt lat="32.9179864" lon="9.732577"><ele>274.0</ele><time>2026-04-27T11:47:58.036Z</time></trkpt><trkpt lat="32.9180042" lon="9.7324801"><ele>274.0</ele><time>2026-04-27T11:47:59.041Z</time></trkpt><trkpt lat="32.9180325" lon="9.7323862"><ele>274.0</ele><time>2026-04-27T11:48:00.044Z</time></trkpt><trkpt lat="32.9180663" lon="9.7322853"><ele>273.8</ele><time>2026-04-27T11:48:01.034Z</time></trkpt><trkpt lat="32.9181084" lon="9.7321828"><ele>273.59999999999997</ele><time>2026-04-27T11:48:02.063Z</time></trkpt><trkpt lat="32.9181485" lon="9.7320859"><ele>273.4</ele><time>2026-04-27T11:48:03.044Z</time></trkpt><trkpt lat="32.9181857" lon="9.7319932"><ele>273.2</ele><time>2026-04-27T11:48:04.075Z</time></trkpt><trkpt lat="32.9182264" lon="9.731901"><ele>273.0</ele><time>2026-04-27T11:48:05.091Z</time></trkpt><trkpt lat="32.9182659" lon="9.731804"><ele>272.8</ele><time>2026-04-27T11:48:06.066Z</time></trkpt><trkpt lat="32.9182955" lon="9.7317138"><ele>272.6</ele><time>2026-04-27T11:48:07.028Z</time></trkpt><trkpt lat="32.9183279" lon="9.7316177"><ele>272.4</ele><time>2026-04-27T11:48:08.02Z</time></trkpt><trkpt lat="32.9183589" lon="9.7315229"><ele>272.2</ele><time>2026-04-27T11:48:09.052Z</time></trkpt><trkpt lat="32.9184322" lon="9.7313291"><ele>272.0</ele><time>2026-04-27T11:48:11.03Z</time></trkpt><trkpt lat="32.9184702" lon="9.7312307"><ele>272.0</ele><time>2026-04-27T11:48:12.066Z</time></trkpt><trkpt lat="32.9185609" lon="9.7310629"><ele>272.0</ele><time>2026-04-27T11:48:14.016Z</time></trkpt><trkpt lat="32.9186039" lon="9.7309718"><ele>272.0</ele><time>2026-04-27T11:48:15.031Z</time></trkpt><trkpt lat="32.9186371" lon="9.7308708"><ele>272.0</ele><time>2026-04-27T11:48:16.02Z</time></trkpt><trkpt lat="32.9186706" lon="9.7307692"><ele>272.0</ele><time>2026-04-27T11:48:17.017Z</time></trkpt><trkpt lat="32.9187074" lon="9.730668"><ele>272.0</ele><time>2026-04-27T11:48:18.018Z</time></trkpt><trkpt lat="32.9187386" lon="9.7305646"><ele>272.0</ele><time>2026-04-27T11:48:19.019Z</time></trkpt><trkpt lat="32.9187753" lon="9.7304618"><ele>272.0</ele><time>2026-04-27T11:48:20.008Z</time></trkpt><trkpt lat="32.9188147" lon="9.7303607"><ele>272.0</ele><time>2026-04-27T11:48:21.019Z</time></trkpt><trkpt lat="32.9188517" lon="9.7302568"><ele>272.0</ele><time>2026-04-27T11:48:22.029Z</time></trkpt><trkpt lat="32.9188876" lon="9.7301597"><ele>271.0</ele><time>2026-04-27T11:48:23.034Z</time></trkpt><trkpt lat="32.9189215" lon="9.7300695"><ele>270.0</ele><time>2026-04-27T11:48:24.062Z</time></trkpt><trkpt lat="32.9190166" lon="9.7297963"><ele>269.0</ele><time>2026-04-27T11:48:27.028Z</time></trkpt><trkpt lat="32.9190851" lon="9.7296159"><ele>269.0</ele><time>2026-04-27T11:48:29.043Z</time></trkpt><trkpt lat="32.9191121" lon="9.7295352"><ele>269.0</ele><time>2026-04-27T11:48:30.013Z</time></trkpt><trkpt lat="32.9191405" lon="9.7294588"><ele>269.0</ele><time>2026-04-27T11:48:31.02Z</time></trkpt><trkpt lat="32.919171" lon="9.7293893"><ele>269.0</ele><time>2026-04-27T11:48:32.028Z</time></trkpt><trkpt lat="32.9192062" lon="9.729313"><ele>269.0</ele><time>2026-04-27T11:48:33.042Z</time></trkpt><trkpt lat="32.9192428" lon="9.7292286"><ele>269.0</ele><time>2026-04-27T11:48:34.022Z</time></trkpt><trkpt lat="32.9193537" lon="9.7289649"><ele>269.0</ele><time>2026-04-27T11:48:37.093Z</time></trkpt><trkpt lat="32.9193893" lon="9.7288843"><ele>269.0</ele><time>2026-04-27T11:48:38.08Z</time></trkpt><trkpt lat="32.9194212" lon="9.7288007"><ele>269.0</ele><time>2026-04-27T11:48:39.036Z</time></trkpt><trkpt lat="32.9194544" lon="9.7287152"><ele>269.0</ele><time>2026-04-27T11:48:40.016Z</time></trkpt><trkpt lat="32.919502" lon="9.728579"><ele>269.0</ele><time>2026-04-27T11:48:42.019Z</time></trkpt><trkpt lat="32.9195423" lon="9.7284614"><ele>269.0</ele><time>2026-04-27T11:48:44.009Z</time></trkpt><trkpt lat="32.9195906" lon="9.7283484"><ele>269.0</ele><time>2026-04-27T11:48:46.061Z</time></trkpt><trkpt lat="32.9196247" lon="9.7282245"><ele>269.0</ele><time>2026-04-27T11:48:48.034Z</time></trkpt><trkpt lat="32.91966" lon="9.7281321"><ele>269.0</ele><time>2026-04-27T11:48:50.054Z</time></trkpt><trkpt lat="32.9196871" lon="9.728055"><ele>269.0</ele><time>2026-04-27T11:48:52.043Z</time></trkpt><trkpt lat="32.9197167" lon="9.7279559"><ele>269.0</ele><time>2026-04-27T11:48:54.008Z</time></trkpt><trkpt lat="32.919742" lon="9.7278841"><ele>269.0</ele><time>2026-04-27T11:48:55.026Z</time></trkpt><trkpt lat="32.9197679" lon="9.7278079"><ele>269.0</ele><time>2026-04-27T11:48:56.034Z</time></trkpt><trkpt lat="32.9198419" lon="9.7276109"><ele>269.0</ele><time>2026-04-27T11:48:58.024Z</time></trkpt><trkpt lat="32.9199165" lon="9.7274048"><ele>269.0</ele><time>2026-04-27T11:49:00.025Z</time></trkpt><trkpt lat="32.919949" lon="9.7273046"><ele>269.0</ele><time>2026-04-27T11:49:01.023Z</time></trkpt><trkpt lat="32.9200089" lon="9.7271004"><ele>269.0</ele><time>2026-04-27T11:49:03.046Z</time></trkpt><trkpt lat="32.9200465" lon="9.7270079"><ele>269.0</ele><time>2026-04-27T11:49:04.045Z</time></trkpt><trkpt lat="32.9201263" lon="9.7268041"><ele>268.5</ele><time>2026-04-27T11:49:06.017Z</time></trkpt><trkpt lat="32.920182" lon="9.7266699"><ele>268.0</ele><time>2026-04-27T11:49:07.061Z</time></trkpt><trkpt lat="32.9202446" lon="9.7265256"><ele>267.5</ele><time>2026-04-27T11:49:08.039Z</time></trkpt><trkpt lat="32.9203041" lon="9.7263938"><ele>267.0</ele><time>2026-04-27T11:49:09.027Z</time></trkpt><trkpt lat="32.9203527" lon="9.7262742"><ele>267.0</ele><time>2026-04-27T11:49:10.012Z</time></trkpt><trkpt lat="32.9203973" lon="9.7261547"><ele>267.0</ele><time>2026-04-27T11:49:11.036Z</time></trkpt><trkpt lat="32.9204393" lon="9.7260334"><ele>267.0</ele><time>2026-04-27T11:49:12.018Z</time></trkpt><trkpt lat="32.9204805" lon="9.7259252"><ele>267.0</ele><time>2026-04-27T11:49:13.023Z</time></trkpt><trkpt lat="32.9205219" lon="9.7258211"><ele>267.0</ele><time>2026-04-27T11:49:14.026Z</time></trkpt><trkpt lat="32.9205639" lon="9.7257145"><ele>266.5</ele><time>2026-04-27T11:49:15.018Z</time></trkpt><trkpt lat="32.9206564" lon="9.7254768"><ele>266.0</ele><time>2026-04-27T11:49:17.033Z</time></trkpt><trkpt lat="32.9208043" lon="9.7250708"><ele>265.75</ele><time>2026-04-27T11:49:20.026Z</time></trkpt><trkpt lat="32.9208442" lon="9.7249439"><ele>265.5</ele><time>2026-04-27T11:49:21.036Z</time></trkpt><trkpt lat="32.9208846" lon="9.7248122"><ele>265.25</ele><time>2026-04-27T11:49:22.023Z</time></trkpt><trkpt lat="32.9209352" lon="9.7246831"><ele>265.0</ele><time>2026-04-27T11:49:23.062Z</time></trkpt><trkpt lat="32.920996" lon="9.7245581"><ele>265.0</ele><time>2026-04-27T11:49:24.048Z</time></trkpt><trkpt lat="32.921057" lon="9.7244405"><ele>265.0</ele><time>2026-04-27T11:49:25.038Z</time></trkpt><trkpt lat="32.9211156" lon="9.7243209"><ele>265.0</ele><time>2026-04-27T11:49:26.016Z</time></trkpt><trkpt lat="32.9211703" lon="9.7241975"><ele>265.0</ele><time>2026-04-27T11:49:27.025Z</time></trkpt><trkpt lat="32.9212197" lon="9.7240625"><ele>265.0</ele><time>2026-04-27T11:49:28.019Z</time></trkpt><trkpt lat="32.9212699" lon="9.7239358"><ele>265.0</ele><time>2026-04-27T11:49:29.063Z</time></trkpt><trkpt lat="32.9213175" lon="9.7238096"><ele>265.0</ele><time>2026-04-27T11:49:30.019Z</time></trkpt><trkpt lat="32.9213626" lon="9.7236776"><ele>265.0</ele><time>2026-04-27T11:49:31.06Z</time></trkpt><trkpt lat="32.9214019" lon="9.7235481"><ele>264.5</ele><time>2026-04-27T11:49:32.099Z</time></trkpt><trkpt lat="32.9214811" lon="9.7232919"><ele>264.0</ele><time>2026-04-27T11:49:34.079Z</time></trkpt><trkpt lat="32.9215719" lon="9.7230437"><ele>264.0</ele><time>2026-04-27T11:49:36.037Z</time></trkpt><trkpt lat="32.9216171" lon="9.7229213"><ele>264.0</ele><time>2026-04-27T11:49:37.035Z</time></trkpt><trkpt lat="32.9216572" lon="9.7228004"><ele>264.0</ele><time>2026-04-27T11:49:38.055Z</time></trkpt><trkpt lat="32.9216919" lon="9.7226778"><ele>264.0</ele><time>2026-04-27T11:49:39.048Z</time></trkpt><trkpt lat="32.9217239" lon="9.7225572"><ele>264.0</ele><time>2026-04-27T11:49:40.064Z</time></trkpt><trkpt lat="32.9218792" lon="9.7221765"><ele>264.25</ele><time>2026-04-27T11:49:44.065Z</time></trkpt><trkpt lat="32.9219406" lon="9.7219783"><ele>264.5</ele><time>2026-04-27T11:49:46.015Z</time></trkpt><trkpt lat="32.921976" lon="9.7218637"><ele>264.75</ele><time>2026-04-27T11:49:47.023Z</time></trkpt><trkpt lat="32.9220128" lon="9.7217535"><ele>265.0</ele><time>2026-04-27T11:49:48.015Z</time></trkpt><trkpt lat="32.9220533" lon="9.7216468"><ele>265.0</ele><time>2026-04-27T11:49:49.029Z</time></trkpt><trkpt lat="32.9220817" lon="9.7215387"><ele>265.0</ele><time>2026-04-27T11:49:50.024Z</time></trkpt><trkpt lat="32.9221165" lon="9.7214433"><ele>265.0</ele><time>2026-04-27T11:49:51.079Z</time></trkpt><trkpt lat="32.9222454" lon="9.721186"><ele>265.0</ele><time>2026-04-27T11:49:54.068Z</time></trkpt><trkpt lat="32.9222956" lon="9.7211132"><ele>264.8333333333333</ele><time>2026-04-27T11:49:55.013Z</time></trkpt><trkpt lat="32.9223495" lon="9.7210389"><ele>264.66666666666663</ele><time>2026-04-27T11:49:56.022Z</time></trkpt><trkpt lat="32.9224088" lon="9.7209695"><ele>264.5</ele><time>2026-04-27T11:49:57.03Z</time></trkpt><trkpt lat="32.9224697" lon="9.7209046"><ele>264.3333333333333</ele><time>2026-04-27T11:49:58.022Z</time></trkpt><trkpt lat="32.9225436" lon="9.720836"><ele>264.1666666666667</ele><time>2026-04-27T11:49:59.114Z</time></trkpt><trkpt lat="32.9226318" lon="9.72077"><ele>264.0</ele><time>2026-04-27T11:50:00.046Z</time></trkpt><trkpt lat="32.9227183" lon="9.7207053"><ele>263.2</ele><time>2026-04-27T11:50:01.024Z</time></trkpt><trkpt lat="32.9228011" lon="9.7206411"><ele>262.4</ele><time>2026-04-27T11:50:02.089Z</time></trkpt><trkpt lat="32.9228794" lon="9.7205737"><ele>261.6</ele><time>2026-04-27T11:50:03.021Z</time></trkpt><trkpt lat="32.9229525" lon="9.7205072"><ele>260.8</ele><time>2026-04-27T11:50:04.017Z</time></trkpt><trkpt lat="32.9230237" lon="9.7204416"><ele>260.0</ele><time>2026-04-27T11:50:05.026Z</time></trkpt><trkpt lat="32.923088" lon="9.7203801"><ele>260.0</ele><time>2026-04-27T11:50:06.047Z</time></trkpt><trkpt lat="32.9231469" lon="9.7203248"><ele>260.0</ele><time>2026-04-27T11:50:07.023Z</time></trkpt><trkpt lat="32.9232073" lon="9.7202759"><ele>260.0</ele><time>2026-04-27T11:50:08.036Z</time></trkpt><trkpt lat="32.9232663" lon="9.7202267"><ele>260.0</ele><time>2026-04-27T11:50:09.009Z</time></trkpt><trkpt lat="32.9233236" lon="9.7201749"><ele>260.0</ele><time>2026-04-27T11:50:10.019Z</time></trkpt><trkpt lat="32.9233858" lon="9.7201272"><ele>260.0</ele><time>2026-04-27T11:50:11.018Z</time></trkpt><trkpt lat="32.9235618" lon="9.7200163"><ele>260.5</ele><time>2026-04-27T11:50:14.033Z</time></trkpt><trkpt lat="32.9236238" lon="9.7199745"><ele>261.0</ele><time>2026-04-27T11:50:15.084Z</time></trkpt><trkpt lat="32.9236827" lon="9.7199295"><ele>261.5</ele><time>2026-04-27T11:50:16.044Z</time></trkpt><trkpt lat="32.9237457" lon="9.7198717"><ele>262.0</ele><time>2026-04-27T11:50:17.047Z</time></trkpt><trkpt lat="32.9238062" lon="9.7198273"><ele>262.5</ele><time>2026-04-27T11:50:18.042Z</time></trkpt><trkpt lat="32.9238725" lon="9.7197601"><ele>263.0</ele><time>2026-04-27T11:50:19.057Z</time></trkpt><trkpt lat="32.9239414" lon="9.7196919"><ele>263.0</ele><time>2026-04-27T11:50:20.028Z</time></trkpt><trkpt lat="32.9240028" lon="9.7196367"><ele>263.0</ele><time>2026-04-27T11:50:21.011Z</time></trkpt><trkpt lat="32.9240605" lon="9.7195745"><ele>263.0</ele><time>2026-04-27T11:50:22.044Z</time></trkpt><trkpt lat="32.9241183" lon="9.7195077"><ele>263.0</ele><time>2026-04-27T11:50:23.021Z</time></trkpt><trkpt lat="32.9242423" lon="9.7193658"><ele>263.0</ele><time>2026-04-27T11:50:25.046Z</time></trkpt><trkpt lat="32.9243154" lon="9.7193019"><ele>263.0</ele><time>2026-04-27T11:50:26.034Z</time></trkpt><trkpt lat="32.9243913" lon="9.7192405"><ele>263.0</ele><time>2026-04-27T11:50:27.03Z</time></trkpt><trkpt lat="32.9244635" lon="9.7191748"><ele>263.0</ele><time>2026-04-27T11:50:28.022Z</time></trkpt><trkpt lat="32.9245435" lon="9.719107"><ele>263.0</ele><time>2026-04-27T11:50:29.039Z</time></trkpt><trkpt lat="32.9246122" lon="9.7190308"><ele>263.0</ele><time>2026-04-27T11:50:30.047Z</time></trkpt><trkpt lat="32.9247603" lon="9.7188942"><ele>263.0</ele><time>2026-04-27T11:50:32.012Z</time></trkpt><trkpt lat="32.9249076" lon="9.718784"><ele>263.0</ele><time>2026-04-27T11:50:34.009Z</time></trkpt><trkpt lat="32.9249841" lon="9.7187366"><ele>263.0</ele><time>2026-04-27T11:50:35.018Z</time></trkpt><trkpt lat="32.9250563" lon="9.7186864"><ele>263.0</ele><time>2026-04-27T11:50:36.026Z</time></trkpt><trkpt lat="32.925127" lon="9.7186273"><ele>263.0</ele><time>2026-04-27T11:50:37.027Z</time></trkpt><trkpt lat="32.925193" lon="9.7185741"><ele>262.6</ele><time>2026-04-27T11:50:38.05Z</time></trkpt><trkpt lat="32.9252626" lon="9.7185105"><ele>262.20000000000005</ele><time>2026-04-27T11:50:39.032Z</time></trkpt><trkpt lat="32.9253342" lon="9.7184415"><ele>261.8</ele><time>2026-04-27T11:50:40.072Z</time></trkpt><trkpt lat="32.9254094" lon="9.7183801"><ele>261.40000000000003</ele><time>2026-04-27T11:50:41.083Z</time></trkpt><trkpt lat="32.9254927" lon="9.7183229"><ele>261.0</ele><time>2026-04-27T11:50:42.046Z</time></trkpt><trkpt lat="32.9255695" lon="9.7182588"><ele>261.0</ele><time>2026-04-27T11:50:43.049Z</time></trkpt><trkpt lat="32.9256305" lon="9.7181975"><ele>261.0</ele><time>2026-04-27T11:50:44.087Z</time></trkpt><trkpt lat="32.9256878" lon="9.7181317"><ele>261.0</ele><time>2026-04-27T11:50:45.066Z</time></trkpt><trkpt lat="32.9257499" lon="9.718072"><ele>261.0</ele><time>2026-04-27T11:50:46.064Z</time></trkpt><trkpt lat="32.9258174" lon="9.7180024"><ele>261.0</ele><time>2026-04-27T11:50:47.018Z</time></trkpt><trkpt lat="32.9258941" lon="9.717928"><ele>261.0</ele><time>2026-04-27T11:50:48.028Z</time></trkpt><trkpt lat="32.9259806" lon="9.7178463"><ele>261.0</ele><time>2026-04-27T11:50:49.061Z</time></trkpt><trkpt lat="32.9260734" lon="9.7177682"><ele>261.0</ele><time>2026-04-27T11:50:50.014Z</time></trkpt><trkpt lat="32.9261733" lon="9.7176905"><ele>261.0</ele><time>2026-04-27T11:50:51.027Z</time></trkpt><trkpt lat="32.9262714" lon="9.7176062"><ele>261.0</ele><time>2026-04-27T11:50:52.053Z</time></trkpt><trkpt lat="32.926431" lon="9.7174619"><ele>261.0</ele><time>2026-04-27T11:50:54.022Z</time></trkpt><trkpt lat="32.9265004" lon="9.717387"><ele>261.0</ele><time>2026-04-27T11:50:55.055Z</time></trkpt><trkpt lat="32.9265642" lon="9.7173204"><ele>261.0</ele><time>2026-04-27T11:50:56.047Z</time></trkpt><trkpt lat="32.9266344" lon="9.7172551"><ele>261.0</ele><time>2026-04-27T11:50:57.029Z</time></trkpt><trkpt lat="32.9266951" lon="9.7172051"><ele>261.0</ele><time>2026-04-27T11:50:58.011Z</time></trkpt><trkpt lat="32.9268203" lon="9.7170939"><ele>260.8</ele><time>2026-04-27T11:51:00.039Z</time></trkpt><trkpt lat="32.9268821" lon="9.7170367"><ele>260.6</ele><time>2026-04-27T11:51:01.014Z</time></trkpt><trkpt lat="32.9269474" lon="9.7169739"><ele>260.4</ele><time>2026-04-27T11:51:02.018Z</time></trkpt><trkpt lat="32.9270155" lon="9.7169126"><ele>260.2</ele><time>2026-04-27T11:51:03.042Z</time></trkpt><trkpt lat="32.927129" lon="9.7168199"><ele>260.0</ele><time>2026-04-27T11:51:05.038Z</time></trkpt><trkpt lat="32.9271811" lon="9.7167731"><ele>259.6666666666667</ele><time>2026-04-27T11:51:06.023Z</time></trkpt><trkpt lat="32.9272786" lon="9.7167114"><ele>259.33333333333337</ele><time>2026-04-27T11:51:08.035Z</time></trkpt><trkpt lat="32.9273571" lon="9.7166478"><ele>259.0</ele><time>2026-04-27T11:51:10.028Z</time></trkpt><trkpt lat="32.9274315" lon="9.7165943"><ele>258.6666666666667</ele><time>2026-04-27T11:51:12.041Z</time></trkpt><trkpt lat="32.9274939" lon="9.7165494"><ele>258.3333333333333</ele><time>2026-04-27T11:51:14.056Z</time></trkpt><trkpt lat="32.9275615" lon="9.7164929"><ele>258.0</ele><time>2026-04-27T11:51:16.029Z</time></trkpt><trkpt lat="32.9276522" lon="9.7164264"><ele>258.0</ele><time>2026-04-27T11:51:18.019Z</time></trkpt><trkpt lat="32.9277652" lon="9.7163488"><ele>258.0</ele><time>2026-04-27T11:51:20.012Z</time></trkpt><trkpt lat="32.9278191" lon="9.7163022"><ele>258.0</ele><time>2026-04-27T11:51:21.043Z</time></trkpt><trkpt lat="32.9279377" lon="9.7161888"><ele>258.0</ele><time>2026-04-27T11:51:23.032Z</time></trkpt><trkpt lat="32.9281546" lon="9.7160216"><ele>258.0</ele><time>2026-04-27T11:51:26.021Z</time></trkpt><trkpt lat="32.9282331" lon="9.7159705"><ele>258.0</ele><time>2026-04-27T11:51:27.016Z</time></trkpt><trkpt lat="32.9283132" lon="9.715912"><ele>258.0</ele><time>2026-04-27T11:51:28.015Z</time></trkpt><trkpt lat="32.9283868" lon="9.715852"><ele>258.0</ele><time>2026-04-27T11:51:29.019Z</time></trkpt><trkpt lat="32.9284581" lon="9.715791"><ele>258.0</ele><time>2026-04-27T11:51:30.026Z</time></trkpt><trkpt lat="32.9285313" lon="9.7157229"><ele>257.6</ele><time>2026-04-27T11:51:31.025Z</time></trkpt><trkpt lat="32.9286047" lon="9.7156533"><ele>257.20000000000005</ele><time>2026-04-27T11:51:32.041Z</time></trkpt><trkpt lat="32.9286815" lon="9.7155858"><ele>256.8</ele><time>2026-04-27T11:51:33.019Z</time></trkpt><trkpt lat="32.9287623" lon="9.715519"><ele>256.40000000000003</ele><time>2026-04-27T11:51:34.007Z</time></trkpt><trkpt lat="32.9288377" lon="9.7154608"><ele>256.0</ele><time>2026-04-27T11:51:35.008Z</time></trkpt><trkpt lat="32.928915" lon="9.715401"><ele>256.0</ele><time>2026-04-27T11:51:36.033Z</time></trkpt><trkpt lat="32.9289941" lon="9.7153444"><ele>256.0</ele><time>2026-04-27T11:51:37.043Z</time></trkpt><trkpt lat="32.9290767" lon="9.7152913"><ele>256.0</ele><time>2026-04-27T11:51:38.053Z</time></trkpt><trkpt lat="32.9292167" lon="9.71519"><ele>256.0</ele><time>2026-04-27T11:51:40.075Z</time></trkpt><trkpt lat="32.9293008" lon="9.7151288"><ele>256.0</ele><time>2026-04-27T11:51:41.028Z</time></trkpt><trkpt lat="32.9293808" lon="9.7150722"><ele>256.40000000000003</ele><time>2026-04-27T11:51:42.022Z</time></trkpt><trkpt lat="32.9294531" lon="9.7150178"><ele>256.8</ele><time>2026-04-27T11:51:43.008Z</time></trkpt><trkpt lat="32.9295198" lon="9.7149683"><ele>257.20000000000005</ele><time>2026-04-27T11:51:44.025Z</time></trkpt><trkpt lat="32.9296336" lon="9.7148819"><ele>257.6</ele><time>2026-04-27T11:51:46.025Z</time></trkpt><trkpt lat="32.9297382" lon="9.7148003"><ele>258.0</ele><time>2026-04-27T11:51:49.015Z</time></trkpt><trkpt lat="32.9297981" lon="9.7147487"><ele>258.0</ele><time>2026-04-27T11:52:12.022Z</time></trkpt><trkpt lat="32.9299016" lon="9.7146494"><ele>258.0</ele><time>2026-04-27T11:52:14.06Z</time></trkpt><trkpt lat="32.9299587" lon="9.7145968"><ele>258.0</ele><time>2026-04-27T11:52:15.064Z</time></trkpt><trkpt lat="32.9300095" lon="9.7145451"><ele>258.0</ele><time>2026-04-27T11:52:16.037Z</time></trkpt><trkpt lat="32.9300603" lon="9.7145002"><ele>258.0</ele><time>2026-04-27T11:52:17.045Z</time></trkpt><trkpt lat="32.9302353" lon="9.7143433"><ele>257.6</ele><time>2026-04-27T11:52:20.056Z</time></trkpt><trkpt lat="32.9302945" lon="9.714272"><ele>257.20000000000005</ele><time>2026-04-27T11:52:21.02Z</time></trkpt><trkpt lat="32.9304125" lon="9.7141252"><ele>256.8</ele><time>2026-04-27T11:52:23.022Z</time></trkpt><trkpt lat="32.9304699" lon="9.7140518"><ele>256.40000000000003</ele><time>2026-04-27T11:52:24.012Z</time></trkpt><trkpt lat="32.9305268" lon="9.713975"><ele>256.0</ele><time>2026-04-27T11:52:25.029Z</time></trkpt><trkpt lat="32.9305916" lon="9.7139045"><ele>256.0</ele><time>2026-04-27T11:52:26.028Z</time></trkpt><trkpt lat="32.930727" lon="9.7137542"><ele>256.0</ele><time>2026-04-27T11:52:28.005Z</time></trkpt><trkpt lat="32.9308034" lon="9.7136809"><ele>256.0</ele><time>2026-04-27T11:52:29.019Z</time></trkpt><trkpt lat="32.9308929" lon="9.7136068"><ele>256.0</ele><time>2026-04-27T11:52:30.033Z</time></trkpt><trkpt lat="32.9309753" lon="9.7135409"><ele>256.0</ele><time>2026-04-27T11:52:31.026Z</time></trkpt><trkpt lat="32.9310513" lon="9.7134764"><ele>256.0</ele><time>2026-04-27T11:52:32.017Z</time></trkpt><trkpt lat="32.9311314" lon="9.7134146"><ele>256.0</ele><time>2026-04-27T11:52:33.015Z</time></trkpt><trkpt lat="32.9312104" lon="9.7133577"><ele>256.0</ele><time>2026-04-27T11:52:34.011Z</time></trkpt><trkpt lat="32.931294" lon="9.7132988"><ele>256.0</ele><time>2026-04-27T11:52:35.03Z</time></trkpt><trkpt lat="32.93144" lon="9.7131949"><ele>256.0</ele><time>2026-04-27T11:52:37.062Z</time></trkpt><trkpt lat="32.9315144" lon="9.7131333"><ele>256.0</ele><time>2026-04-27T11:52:38.058Z</time></trkpt><trkpt lat="32.9316634" lon="9.7130058"><ele>256.0</ele><time>2026-04-27T11:52:40.036Z</time></trkpt><trkpt lat="32.9317307" lon="9.7129488"><ele>256.0</ele><time>2026-04-27T11:52:41.014Z</time></trkpt><trkpt lat="32.9318058" lon="9.7128893"><ele>256.0</ele><time>2026-04-27T11:52:42.026Z</time></trkpt><trkpt lat="32.9318879" lon="9.71283"><ele>256.0</ele><time>2026-04-27T11:52:43.035Z</time></trkpt><trkpt lat="32.9319692" lon="9.7127677"><ele>256.0</ele><time>2026-04-27T11:52:44.034Z</time></trkpt><trkpt lat="32.9320565" lon="9.7127063"><ele>256.0</ele><time>2026-04-27T11:52:45.021Z</time></trkpt><trkpt lat="32.9321447" lon="9.7126428"><ele>256.0</ele><time>2026-04-27T11:52:46.064Z</time></trkpt><trkpt lat="32.9322293" lon="9.7125827"><ele>256.0</ele><time>2026-04-27T11:52:47.04Z</time></trkpt><trkpt lat="32.9323145" lon="9.7125236"><ele>256.0</ele><time>2026-04-27T11:52:48.067Z</time></trkpt><trkpt lat="32.9324018" lon="9.7124682"><ele>256.0</ele><time>2026-04-27T11:52:49.019Z</time></trkpt><trkpt lat="32.9324883" lon="9.7124102"><ele>256.0</ele><time>2026-04-27T11:52:50.021Z</time></trkpt><trkpt lat="32.9325722" lon="9.7123531"><ele>256.0</ele><time>2026-04-27T11:52:51.03Z</time></trkpt><trkpt lat="32.9327354" lon="9.7122325"><ele>256.40000000000003</ele><time>2026-04-27T11:52:53.067Z</time></trkpt><trkpt lat="32.9328179" lon="9.7121739"><ele>256.8</ele><time>2026-04-27T11:52:54.029Z</time></trkpt><trkpt lat="32.9329058" lon="9.7121123"><ele>257.20000000000005</ele><time>2026-04-27T11:52:55.031Z</time></trkpt><trkpt lat="32.9329899" lon="9.7120561"><ele>257.6</ele><time>2026-04-27T11:52:56.028Z</time></trkpt><trkpt lat="32.9330705" lon="9.7120065"><ele>258.0</ele><time>2026-04-27T11:52:57.016Z</time></trkpt><trkpt lat="32.9331441" lon="9.7119598"><ele>258.0</ele><time>2026-04-27T11:52:58.052Z</time></trkpt><trkpt lat="32.9332204" lon="9.7119089"><ele>258.0</ele><time>2026-04-27T11:52:59.029Z</time></trkpt><trkpt lat="32.9332899" lon="9.7118615"><ele>258.0</ele><time>2026-04-27T11:53:00.023Z</time></trkpt><trkpt lat="32.9335028" lon="9.7117162"><ele>258.0</ele><time>2026-04-27T11:53:03.049Z</time></trkpt><trkpt lat="32.9335726" lon="9.7116579"><ele>257.75</ele><time>2026-04-27T11:53:04.09Z</time></trkpt><trkpt lat="32.9336435" lon="9.7116058"><ele>257.5</ele><time>2026-04-27T11:53:05.071Z</time></trkpt><trkpt lat="32.9337786" lon="9.7114901"><ele>257.25</ele><time>2026-04-27T11:53:07.046Z</time></trkpt><trkpt lat="32.9338458" lon="9.711438"><ele>257.0</ele><time>2026-04-27T11:53:08.06Z</time></trkpt><trkpt lat="32.9339731" lon="9.7113468"><ele>257.0</ele><time>2026-04-27T11:53:10.015Z</time></trkpt><trkpt lat="32.9340449" lon="9.7113011"><ele>257.0</ele><time>2026-04-27T11:53:11.022Z</time></trkpt><trkpt lat="32.9341207" lon="9.7112623"><ele>257.0</ele><time>2026-04-27T11:53:12.022Z</time></trkpt><trkpt lat="32.9342039" lon="9.7112194"><ele>257.0</ele><time>2026-04-27T11:53:13.039Z</time></trkpt><trkpt lat="32.9342825" lon="9.7111791"><ele>257.0</ele><time>2026-04-27T11:53:14.023Z</time></trkpt><trkpt lat="32.934363" lon="9.7111427"><ele>257.0</ele><time>2026-04-27T11:53:15.017Z</time></trkpt><trkpt lat="32.9344443" lon="9.7111074"><ele>256.5</ele><time>2026-04-27T11:53:16.041Z</time></trkpt><trkpt lat="32.9345362" lon="9.7110747"><ele>256.0</ele><time>2026-04-27T11:53:17.028Z</time></trkpt><trkpt lat="32.9346453" lon="9.7110193"><ele>255.5</ele><time>2026-04-27T11:53:18.02Z</time></trkpt><trkpt lat="32.9347715" lon="9.7109511"><ele>255.0</ele><time>2026-04-27T11:53:19.033Z</time></trkpt><trkpt lat="32.9348949" lon="9.7108762"><ele>255.0</ele><time>2026-04-27T11:53:20.018Z</time></trkpt><trkpt lat="32.9349984" lon="9.7108083"><ele>255.0</ele><time>2026-04-27T11:53:21.034Z</time></trkpt><trkpt lat="32.9350816" lon="9.7107536"><ele>255.0</ele><time>2026-04-27T11:53:22.049Z</time></trkpt><trkpt lat="32.9351492" lon="9.7107042"><ele>255.0</ele><time>2026-04-27T11:53:23.008Z</time></trkpt><trkpt lat="32.9352067" lon="9.7106519"><ele>255.0</ele><time>2026-04-27T11:53:24.064Z</time></trkpt><trkpt lat="32.9352631" lon="9.7105994"><ele>255.0</ele><time>2026-04-27T11:53:25.03Z</time></trkpt><trkpt lat="32.9353214" lon="9.7105497"><ele>254.5</ele><time>2026-04-27T11:53:26.035Z</time></trkpt><trkpt lat="32.9354249" lon="9.7104554"><ele>254.0</ele><time>2026-04-27T11:53:28.078Z</time></trkpt><trkpt lat="32.9355381" lon="9.7103463"><ele>253.5</ele><time>2026-04-27T11:53:30.093Z</time></trkpt><trkpt lat="32.9356637" lon="9.7102311"><ele>253.0</ele><time>2026-04-27T11:53:32.026Z</time></trkpt><trkpt lat="32.9357285" lon="9.7101615"><ele>252.75</ele><time>2026-04-27T11:53:33.009Z</time></trkpt><trkpt lat="32.9357971" lon="9.7100743"><ele>252.5</ele><time>2026-04-27T11:53:34.033Z</time></trkpt><trkpt lat="32.9359398" lon="9.7099165"><ele>252.25</ele><time>2026-04-27T11:53:36.009Z</time></trkpt><trkpt lat="32.935989" lon="9.7098598"><ele>252.0</ele><time>2026-04-27T11:53:37.043Z</time></trkpt><trkpt lat="32.9361576" lon="9.7097255"><ele>252.0</ele><time>2026-04-27T11:53:40.041Z</time></trkpt><trkpt lat="32.9362344" lon="9.7096665"><ele>252.0</ele><time>2026-04-27T11:53:41.058Z</time></trkpt><trkpt lat="32.9363135" lon="9.7096261"><ele>252.0</ele><time>2026-04-27T11:53:42.072Z</time></trkpt><trkpt lat="32.9363898" lon="9.7095809"><ele>252.0</ele><time>2026-04-27T11:53:43.027Z</time></trkpt><trkpt lat="32.936476" lon="9.7095258"><ele>252.0</ele><time>2026-04-27T11:53:44.029Z</time></trkpt><trkpt lat="32.9365484" lon="9.7094752"><ele>252.0</ele><time>2026-04-27T11:53:45.04Z</time></trkpt><trkpt lat="32.9366225" lon="9.709421"><ele>252.0</ele><time>2026-04-27T11:53:46.032Z</time></trkpt><trkpt lat="32.9366972" lon="9.7093743"><ele>252.0</ele><time>2026-04-27T11:53:47.068Z</time></trkpt><trkpt lat="32.9368252" lon="9.7092878"><ele>252.0</ele><time>2026-04-27T11:53:49.084Z</time></trkpt><trkpt lat="32.9369214" lon="9.7092065"><ele>252.0</ele><time>2026-04-27T11:53:51.02Z</time></trkpt><trkpt lat="32.9369945" lon="9.7091678"><ele>252.0</ele><time>2026-04-27T11:53:52.021Z</time></trkpt><trkpt lat="32.9370657" lon="9.7091217"><ele>252.0</ele><time>2026-04-27T11:53:53.013Z</time></trkpt><trkpt lat="32.9371244" lon="9.7090812"><ele>252.0</ele><time>2026-04-27T11:53:54.06Z</time></trkpt><trkpt lat="32.9372249" lon="9.7090027"><ele>252.0</ele><time>2026-04-27T11:53:56.022Z</time></trkpt><trkpt lat="32.937317" lon="9.7089458"><ele>252.0</ele><time>2026-04-27T11:53:59.012Z</time></trkpt><trkpt lat="32.9374033" lon="9.7088873"><ele>252.0</ele><time>2026-04-27T11:54:10.057Z</time></trkpt><trkpt lat="32.9374625" lon="9.708854"><ele>252.0</ele><time>2026-04-27T11:54:11.05Z</time></trkpt><trkpt lat="32.9375288" lon="9.7088229"><ele>252.0</ele><time>2026-04-27T11:54:12.059Z</time></trkpt><trkpt lat="32.9375911" lon="9.7087938"><ele>252.0</ele><time>2026-04-27T11:54:13.05Z</time></trkpt><trkpt lat="32.9376985" lon="9.7087345"><ele>252.0</ele><time>2026-04-27T11:54:15.028Z</time></trkpt><trkpt lat="32.9377667" lon="9.7087019"><ele>252.0</ele><time>2026-04-27T11:54:16.027Z</time></trkpt><trkpt lat="32.9379025" lon="9.7086354"><ele>251.8</ele><time>2026-04-27T11:54:18.047Z</time></trkpt><trkpt lat="32.9379643" lon="9.7086007"><ele>251.6</ele><time>2026-04-27T11:54:19.043Z</time></trkpt><trkpt lat="32.9380909" lon="9.708524"><ele>251.40000000000003</ele><time>2026-04-27T11:54:21.055Z</time></trkpt><trkpt lat="32.9381471" lon="9.7084797"><ele>251.20000000000002</ele><time>2026-04-27T11:54:22.008Z</time></trkpt><trkpt lat="32.9381991" lon="9.7084289"><ele>251.0</ele><time>2026-04-27T11:54:23.03Z</time></trkpt><trkpt lat="32.9383045" lon="9.7083569"><ele>250.99999999999997</ele><time>2026-04-27T11:54:25.016Z</time></trkpt><trkpt lat="32.9383606" lon="9.7083121"><ele>251.0</ele><time>2026-04-27T11:54:26.02Z</time></trkpt><trkpt lat="32.9384193" lon="9.7082658"><ele>250.99999999999997</ele><time>2026-04-27T11:54:27.034Z</time></trkpt><trkpt lat="32.9384793" lon="9.7082158"><ele>250.99999999999997</ele><time>2026-04-27T11:54:28.037Z</time></trkpt><trkpt lat="32.9385349" lon="9.7081619"><ele>251.0</ele><time>2026-04-27T11:54:29.052Z</time></trkpt><trkpt lat="32.9385899" lon="9.7081057"><ele>250.99999999999997</ele><time>2026-04-27T11:54:30.022Z</time></trkpt><trkpt lat="32.9386454" lon="9.7080477"><ele>250.99999999999997</ele><time>2026-04-27T11:54:31.014Z</time></trkpt><trkpt lat="32.9386968" lon="9.7079934"><ele>251.20000000000002</ele><time>2026-04-27T11:54:32.034Z</time></trkpt><trkpt lat="32.9387472" lon="9.7079326"><ele>251.40000000000003</ele><time>2026-04-27T11:54:33.061Z</time></trkpt><trkpt lat="32.9388011" lon="9.7078636"><ele>251.6</ele><time>2026-04-27T11:54:34.036Z</time></trkpt><trkpt lat="32.9388477" lon="9.7077795"><ele>251.8</ele><time>2026-04-27T11:54:35.15Z</time></trkpt><trkpt lat="32.9389644" lon="9.7076131"><ele>252.0</ele><time>2026-04-27T11:54:37.094Z</time></trkpt><trkpt lat="32.9390433" lon="9.7074423"><ele>252.0</ele><time>2026-04-27T11:54:39.037Z</time></trkpt><trkpt lat="32.9390809" lon="9.7073579"><ele>252.0</ele><time>2026-04-27T11:54:40.013Z</time></trkpt><trkpt lat="32.9391564" lon="9.7071829"><ele>252.0</ele><time>2026-04-27T11:54:42.018Z</time></trkpt><trkpt lat="32.9392039" lon="9.7071135"><ele>252.0</ele><time>2026-04-27T11:54:43.011Z</time></trkpt><trkpt lat="32.9392525" lon="9.7070381"><ele>252.0</ele><time>2026-04-27T11:54:44.015Z</time></trkpt><trkpt lat="32.9392999" lon="9.7069761"><ele>251.5</ele><time>2026-04-27T11:54:45.033Z</time></trkpt><trkpt lat="32.9393494" lon="9.7069102"><ele>251.0</ele><time>2026-04-27T11:54:46.012Z</time></trkpt><trkpt lat="32.9394002" lon="9.7068366"><ele>250.5</ele><time>2026-04-27T11:54:47.033Z</time></trkpt><trkpt lat="32.9394511" lon="9.7067623"><ele>250.0</ele><time>2026-04-27T11:54:48.043Z</time></trkpt><trkpt lat="32.9394928" lon="9.7066829"><ele>249.5</ele><time>2026-04-27T11:54:49.026Z</time></trkpt><trkpt lat="32.9395325" lon="9.7066052"><ele>249.0</ele><time>2026-04-27T11:54:50.008Z</time></trkpt><trkpt lat="32.9395731" lon="9.7065248"><ele>249.0</ele><time>2026-04-27T11:54:51.021Z</time></trkpt><trkpt lat="32.9396436" lon="9.7063797"><ele>249.0</ele><time>2026-04-27T11:54:53.045Z</time></trkpt><trkpt lat="32.9396721" lon="9.7063026"><ele>249.0</ele><time>2026-04-27T11:54:54.054Z</time></trkpt><trkpt lat="32.9396974" lon="9.7062246"><ele>249.0</ele><time>2026-04-27T11:54:55.036Z</time></trkpt><trkpt lat="32.9397345" lon="9.7061444"><ele>249.0</ele><time>2026-04-27T11:54:56.037Z</time></trkpt><trkpt lat="32.9397641" lon="9.7060684"><ele>249.0</ele><time>2026-04-27T11:54:57.019Z</time></trkpt><trkpt lat="32.9397963" lon="9.7059928"><ele>249.16666666666666</ele><time>2026-04-27T11:54:58.022Z</time></trkpt><trkpt lat="32.9398314" lon="9.7059103"><ele>249.33333333333331</ele><time>2026-04-27T11:54:59.051Z</time></trkpt><trkpt lat="32.9398698" lon="9.7058322"><ele>249.5</ele><time>2026-04-27T11:55:00.028Z</time></trkpt><trkpt lat="32.9399115" lon="9.7057576"><ele>249.66666666666666</ele><time>2026-04-27T11:55:01.018Z</time></trkpt><trkpt lat="32.9399559" lon="9.7056831"><ele>249.83333333333331</ele><time>2026-04-27T11:55:02.005Z</time></trkpt><trkpt lat="32.939998" lon="9.7056002"><ele>250.0</ele><time>2026-04-27T11:55:03.061Z</time></trkpt><trkpt lat="32.9400303" lon="9.7055237"><ele>249.85714285714283</ele><time>2026-04-27T11:55:04.026Z</time></trkpt><trkpt lat="32.9400617" lon="9.7054461"><ele>249.71428571428572</ele><time>2026-04-27T11:55:05.051Z</time></trkpt><trkpt lat="32.9400864" lon="9.7053606"><ele>249.57142857142856</ele><time>2026-04-27T11:55:06.035Z</time></trkpt><trkpt lat="32.9401148" lon="9.7052841"><ele>249.42857142857142</ele><time>2026-04-27T11:55:07.033Z</time></trkpt><trkpt lat="32.9401425" lon="9.7052073"><ele>249.28571428571428</ele><time>2026-04-27T11:55:08.017Z</time></trkpt><trkpt lat="32.9401719" lon="9.7051282"><ele>249.14285714285714</ele><time>2026-04-27T11:55:09.041Z</time></trkpt><trkpt lat="32.9402028" lon="9.7050446"><ele>249.0</ele><time>2026-04-27T11:55:10.048Z</time></trkpt><trkpt lat="32.9402622" lon="9.7048852"><ele>249.28571428571428</ele><time>2026-04-27T11:55:12.025Z</time></trkpt><trkpt lat="32.9402936" lon="9.7048083"><ele>249.57142857142856</ele><time>2026-04-27T11:55:13.022Z</time></trkpt><trkpt lat="32.9403258" lon="9.7047288"><ele>249.85714285714283</ele><time>2026-04-27T11:55:14.039Z</time></trkpt><trkpt lat="32.9403566" lon="9.7046563"><ele>250.1428571428571</ele><time>2026-04-27T11:55:15.013Z</time></trkpt><trkpt lat="32.9403898" lon="9.7045825"><ele>250.42857142857142</ele><time>2026-04-27T11:55:16.015Z</time></trkpt><trkpt lat="32.9404207" lon="9.7045092"><ele>250.71428571428567</ele><time>2026-04-27T11:55:17.04Z</time></trkpt><trkpt lat="32.9404665" lon="9.7044405"><ele>250.99999999999997</ele><time>2026-04-27T11:55:18.027Z</time></trkpt><trkpt lat="32.9406537" lon="9.7041199"><ele>251.00000000000003</ele><time>2026-04-27T11:55:22.025Z</time></trkpt><trkpt lat="32.9406959" lon="9.7040367"><ele>251.0</ele><time>2026-04-27T11:55:23.016Z</time></trkpt><trkpt lat="32.9407395" lon="9.7039553"><ele>251.0</ele><time>2026-04-27T11:55:24.054Z</time></trkpt><trkpt lat="32.940782" lon="9.7038643"><ele>251.0</ele><time>2026-04-27T11:55:25.092Z</time></trkpt><trkpt lat="32.9408226" lon="9.7037752"><ele>251.00000000000003</ele><time>2026-04-27T11:55:26.023Z</time></trkpt><trkpt lat="32.9408749" lon="9.7036886"><ele>251.0</ele><time>2026-04-27T11:55:27.049Z</time></trkpt><trkpt lat="32.940965" lon="9.7035304"><ele>250.5</ele><time>2026-04-27T11:55:29.068Z</time></trkpt><trkpt lat="32.9410098" lon="9.7034538"><ele>250.0</ele><time>2026-04-27T11:55:30.044Z</time></trkpt><trkpt lat="32.9411178" lon="9.7032398"><ele>249.5</ele><time>2026-04-27T11:55:33.011Z</time></trkpt><trkpt lat="32.9411714" lon="9.7031183"><ele>249.0</ele><time>2026-04-27T11:55:35.032Z</time></trkpt><trkpt lat="32.9412224" lon="9.703011"><ele>249.0</ele><time>2026-04-27T11:55:37.02Z</time></trkpt><trkpt lat="32.9412653" lon="9.7029201"><ele>248.99999999999997</ele><time>2026-04-27T11:55:39.017Z</time></trkpt><trkpt lat="32.9413128" lon="9.7028184"><ele>248.99999999999997</ele><time>2026-04-27T11:55:41.02Z</time></trkpt><trkpt lat="32.9413495" lon="9.7027521"><ele>249.0</ele><time>2026-04-27T11:55:42.066Z</time></trkpt><trkpt lat="32.941451" lon="9.7026182"><ele>249.0</ele><time>2026-04-27T11:55:44.09Z</time></trkpt><trkpt lat="32.9415108" lon="9.702539"><ele>249.0</ele><time>2026-04-27T11:55:45.068Z</time></trkpt><trkpt lat="32.9415708" lon="9.7024542"><ele>248.99999999999997</ele><time>2026-04-27T11:55:46.016Z</time></trkpt><trkpt lat="32.9416325" lon="9.7023637"><ele>248.99999999999997</ele><time>2026-04-27T11:55:47.026Z</time></trkpt><trkpt lat="32.941699" lon="9.702276"><ele>249.0</ele><time>2026-04-27T11:55:48.026Z</time></trkpt><trkpt lat="32.9417673" lon="9.7021816"><ele>249.0</ele><time>2026-04-27T11:55:49.008Z</time></trkpt><trkpt lat="32.9418886" lon="9.7019916"><ele>248.66666666666669</ele><time>2026-04-27T11:55:51.13Z</time></trkpt><trkpt lat="32.9420758" lon="9.7016898"><ele>248.33333333333334</ele><time>2026-04-27T11:55:54.031Z</time></trkpt><trkpt lat="32.9421347" lon="9.7015845"><ele>248.0</ele><time>2026-04-27T11:55:55.08Z</time></trkpt><trkpt lat="32.9421945" lon="9.7014773"><ele>248.0</ele><time>2026-04-27T11:55:56.026Z</time></trkpt><trkpt lat="32.942258" lon="9.7013721"><ele>248.0</ele><time>2026-04-27T11:55:57.021Z</time></trkpt><trkpt lat="32.9423133" lon="9.7012807"><ele>248.0</ele><time>2026-04-27T11:55:58.037Z</time></trkpt><trkpt lat="32.9423684" lon="9.7012001"><ele>248.0</ele><time>2026-04-27T11:55:59.066Z</time></trkpt><trkpt lat="32.9424307" lon="9.7011168"><ele>248.0</ele><time>2026-04-27T11:56:00.026Z</time></trkpt><trkpt lat="32.9424921" lon="9.7010385"><ele>248.00000000000003</ele><time>2026-04-27T11:56:01.041Z</time></trkpt><trkpt lat="32.9425524" lon="9.7009649"><ele>248.0</ele><time>2026-04-27T11:56:02.021Z</time></trkpt><trkpt lat="32.9426166" lon="9.7008867"><ele>248.0</ele><time>2026-04-27T11:56:03.053Z</time></trkpt><trkpt lat="32.9426816" lon="9.7008059"><ele>248.0</ele><time>2026-04-27T11:56:04.054Z</time></trkpt><trkpt lat="32.9427481" lon="9.7007239"><ele>248.00000000000003</ele><time>2026-04-27T11:56:05.067Z</time></trkpt><trkpt lat="32.9428044" lon="9.7006583"><ele>248.0</ele><time>2026-04-27T11:56:06.066Z</time></trkpt><trkpt lat="32.9428801" lon="9.7005687"><ele>248.0</ele><time>2026-04-27T11:56:08.061Z</time></trkpt><trkpt lat="32.9429195" lon="9.7005058"><ele>248.0</ele><time>2026-04-27T11:56:09.034Z</time></trkpt><trkpt lat="32.9429719" lon="9.7004267"><ele>248.0</ele><time>2026-04-27T11:56:10.047Z</time></trkpt><trkpt lat="32.9430271" lon="9.7003479"><ele>248.0</ele><time>2026-04-27T11:56:11.028Z</time></trkpt><trkpt lat="32.9431309" lon="9.700184"><ele>248.0</ele><time>2026-04-27T11:56:13.04Z</time></trkpt><trkpt lat="32.943194" lon="9.7000786"><ele>248.16666666666669</ele><time>2026-04-27T11:56:15.062Z</time></trkpt><trkpt lat="32.9432347" lon="9.6999874"><ele>248.33333333333334</ele><time>2026-04-27T11:59:54.07Z</time></trkpt><trkpt lat="32.9432683" lon="9.6998823"><ele>248.5</ele><time>2026-04-27T11:59:56.072Z</time></trkpt><trkpt lat="32.9433087" lon="9.6997552"><ele>248.66666666666669</ele><time>2026-04-27T11:59:58.029Z</time></trkpt><trkpt lat="32.9433473" lon="9.6996824"><ele>248.83333333333334</ele><time>2026-04-27T11:59:59.038Z</time></trkpt><trkpt lat="32.9433867" lon="9.6996013"><ele>249.0</ele><time>2026-04-27T12:00:00.044Z</time></trkpt><trkpt lat="32.943423" lon="9.6995119"><ele>249.0</ele><time>2026-04-27T12:00:01.043Z</time></trkpt><trkpt lat="32.9434678" lon="9.6994212"><ele>248.99999999999997</ele><time>2026-04-27T12:00:02.041Z</time></trkpt><trkpt lat="32.9435166" lon="9.699322"><ele>248.99999999999997</ele><time>2026-04-27T12:00:03.042Z</time></trkpt><trkpt lat="32.9436201" lon="9.6991544"><ele>249.0</ele><time>2026-04-27T12:00:05.018Z</time></trkpt><trkpt lat="32.9436714" lon="9.6990681"><ele>249.0</ele><time>2026-04-27T12:00:07.024Z</time></trkpt><trkpt lat="32.9437055" lon="9.698988"><ele>249.0</ele><time>2026-04-27T12:01:11.075Z</time></trkpt><trkpt lat="32.9437563" lon="9.6989299"><ele>249.0</ele><time>2026-04-27T12:01:14.056Z</time></trkpt><trkpt lat="32.9438399" lon="9.6988452"><ele>249.0</ele><time>2026-04-27T12:01:28.051Z</time></trkpt><trkpt lat="32.9438877" lon="9.6987888"><ele>249.0</ele><time>2026-04-27T12:01:29.061Z</time></trkpt><trkpt lat="32.9439426" lon="9.698722"><ele>249.0</ele><time>2026-04-27T12:01:30.063Z</time></trkpt><trkpt lat="32.9439982" lon="9.6986469"><ele>249.0</ele><time>2026-04-27T12:01:31.062Z</time></trkpt><trkpt lat="32.9440518" lon="9.698558"><ele>249.0</ele><time>2026-04-27T12:01:32.067Z</time></trkpt><trkpt lat="32.9440954" lon="9.698478"><ele>249.0</ele><time>2026-04-27T12:01:33.012Z</time></trkpt><trkpt lat="32.9441394" lon="9.6984018"><ele>249.0</ele><time>2026-04-27T12:01:34.069Z</time></trkpt><trkpt lat="32.9441812" lon="9.6983293"><ele>249.0</ele><time>2026-04-27T12:01:35.049Z</time></trkpt><trkpt lat="32.9442229" lon="9.6982544"><ele>249.0</ele><time>2026-04-27T12:01:36.085Z</time></trkpt><trkpt lat="32.9442608" lon="9.6981786"><ele>249.0</ele><time>2026-04-27T12:01:37.043Z</time></trkpt><trkpt lat="32.9442969" lon="9.6980989"><ele>249.0</ele><time>2026-04-27T12:01:38.058Z</time></trkpt><trkpt lat="32.9443321" lon="9.6980175"><ele>248.99999999999997</ele><time>2026-04-27T12:01:39.06Z</time></trkpt><trkpt lat="32.9443611" lon="9.6979419"><ele>249.0</ele><time>2026-04-27T12:01:40.088Z</time></trkpt><trkpt lat="32.9443903" lon="9.6978703"><ele>249.0</ele><time>2026-04-27T12:01:41.075Z</time></trkpt><trkpt lat="32.9444309" lon="9.6977994"><ele>248.99999999999997</ele><time>2026-04-27T12:01:42.073Z</time></trkpt><trkpt lat="32.9444755" lon="9.6977353"><ele>249.0</ele><time>2026-04-27T12:01:43.067Z</time></trkpt><trkpt lat="32.9445209" lon="9.6976757"><ele>249.0</ele><time>2026-04-27T12:01:44.071Z</time></trkpt><trkpt lat="32.9445645" lon="9.6976114"><ele>249.14285714285714</ele><time>2026-04-27T12:01:45.092Z</time></trkpt><trkpt lat="32.9446069" lon="9.6975483"><ele>249.28571428571428</ele><time>2026-04-27T12:01:46.072Z</time></trkpt><trkpt lat="32.9446477" lon="9.6974813"><ele>249.42857142857142</ele><time>2026-04-27T12:01:47.081Z</time></trkpt><trkpt lat="32.944684" lon="9.6974149"><ele>249.57142857142856</ele><time>2026-04-27T12:01:48.076Z</time></trkpt><trkpt lat="32.9447266" lon="9.6973462"><ele>249.71428571428572</ele><time>2026-04-27T12:01:49.086Z</time></trkpt><trkpt lat="32.9447562" lon="9.6972788"><ele>249.85714285714283</ele><time>2026-04-27T12:01:50.069Z</time></trkpt><trkpt lat="32.9447895" lon="9.6972037"><ele>250.0</ele><time>2026-04-27T12:01:51.042Z</time></trkpt><trkpt lat="32.9448306" lon="9.6971161"><ele>249.99999999999997</ele><time>2026-04-27T12:01:52.076Z</time></trkpt><trkpt lat="32.9448761" lon="9.6970227"><ele>250.0</ele><time>2026-04-27T12:01:53.056Z</time></trkpt><trkpt lat="32.9449162" lon="9.6969333"><ele>250.0</ele><time>2026-04-27T12:01:54.06Z</time></trkpt><trkpt lat="32.9449552" lon="9.6968526"><ele>250.0</ele><time>2026-04-27T12:01:55.058Z</time></trkpt><trkpt lat="32.9449871" lon="9.6967733"><ele>249.99999999999997</ele><time>2026-04-27T12:01:56.025Z</time></trkpt><trkpt lat="32.9450228" lon="9.6966949"><ele>250.0</ele><time>2026-04-27T12:01:57.065Z</time></trkpt><trkpt lat="32.9450594" lon="9.6966198"><ele>249.6</ele><time>2026-04-27T12:01:58.016Z</time></trkpt><trkpt lat="32.9450975" lon="9.6965453"><ele>249.2</ele><time>2026-04-27T12:01:59.067Z</time></trkpt><trkpt lat="32.9451325" lon="9.6964685"><ele>248.8</ele><time>2026-04-27T12:02:00.012Z</time></trkpt><trkpt lat="32.9452295" lon="9.6962287"><ele>248.4</ele><time>2026-04-27T12:02:03.045Z</time></trkpt><trkpt lat="32.9452743" lon="9.6961555"><ele>248.0</ele><time>2026-04-27T12:02:04.05Z</time></trkpt><trkpt lat="32.9453257" lon="9.6960939"><ele>248.14285714285717</ele><time>2026-04-27T12:02:05.041Z</time></trkpt><trkpt lat="32.9453837" lon="9.6960424"><ele>248.2857142857143</ele><time>2026-04-27T12:02:06.006Z</time></trkpt><trkpt lat="32.9454458" lon="9.6959983"><ele>248.42857142857144</ele><time>2026-04-27T12:02:07.004Z</time></trkpt><trkpt lat="32.9455024" lon="9.6959614"><ele>248.57142857142856</ele><time>2026-04-27T12:02:08.019Z</time></trkpt><trkpt lat="32.9455542" lon="9.695915"><ele>248.7142857142857</ele><time>2026-04-27T12:02:09.019Z</time></trkpt><trkpt lat="32.9456007" lon="9.6958587"><ele>248.85714285714283</ele><time>2026-04-27T12:02:10.006Z</time></trkpt><trkpt lat="32.9456438" lon="9.6958014"><ele>249.0</ele><time>2026-04-27T12:02:11.011Z</time></trkpt><trkpt lat="32.9456894" lon="9.6957352"><ele>249.0</ele><time>2026-04-27T12:02:12.023Z</time></trkpt><trkpt lat="32.9457369" lon="9.6956531"><ele>249.0</ele><time>2026-04-27T12:02:13.021Z</time></trkpt><trkpt lat="32.9457856" lon="9.6955696"><ele>249.0</ele><time>2026-04-27T12:02:14.023Z</time></trkpt><trkpt lat="32.9458258" lon="9.6954879"><ele>249.0</ele><time>2026-04-27T12:02:15.036Z</time></trkpt><trkpt lat="32.9458608" lon="9.6954013"><ele>249.0</ele><time>2026-04-27T12:02:16.029Z</time></trkpt><trkpt lat="32.9459012" lon="9.6953212"><ele>249.0</ele><time>2026-04-27T12:02:17.037Z</time></trkpt><trkpt lat="32.9459457" lon="9.6952368"><ele>249.0</ele><time>2026-04-27T12:02:18.053Z</time></trkpt><trkpt lat="32.9459944" lon="9.6951542"><ele>248.99999999999997</ele><time>2026-04-27T12:02:19.023Z</time></trkpt><trkpt lat="32.9460488" lon="9.6950631"><ele>248.99999999999997</ele><time>2026-04-27T12:02:20.062Z</time></trkpt><trkpt lat="32.9461019" lon="9.6949697"><ele>249.0</ele><time>2026-04-27T12:02:21.049Z</time></trkpt><trkpt lat="32.9461526" lon="9.6948736"><ele>249.0</ele><time>2026-04-27T12:02:22.039Z</time></trkpt><trkpt lat="32.946207" lon="9.6947758"><ele>249.0</ele><time>2026-04-27T12:02:23.034Z</time></trkpt><trkpt lat="32.9462604" lon="9.6946757"><ele>248.99999999999997</ele><time>2026-04-27T12:02:24.038Z</time></trkpt><trkpt lat="32.9463138" lon="9.6945766"><ele>248.99999999999997</ele><time>2026-04-27T12:02:25.039Z</time></trkpt><trkpt lat="32.9463619" lon="9.6944752"><ele>249.0</ele><time>2026-04-27T12:02:26.026Z</time></trkpt><trkpt lat="32.9464033" lon="9.6943741"><ele>249.0</ele><time>2026-04-27T12:02:27.045Z</time></trkpt><trkpt lat="32.9464421" lon="9.6942788"><ele>248.83333333333334</ele><time>2026-04-27T12:02:28.03Z</time></trkpt><trkpt lat="32.9464807" lon="9.6941872"><ele>248.66666666666669</ele><time>2026-04-27T12:02:29.044Z</time></trkpt><trkpt lat="32.9465281" lon="9.6940977"><ele>248.5</ele><time>2026-04-27T12:02:30.061Z</time></trkpt><trkpt lat="32.9465776" lon="9.6940091"><ele>248.33333333333334</ele><time>2026-04-27T12:02:31.026Z</time></trkpt><trkpt lat="32.9466252" lon="9.6939173"><ele>248.16666666666669</ele><time>2026-04-27T12:02:32.027Z</time></trkpt><trkpt lat="32.9466732" lon="9.693826"><ele>248.0</ele><time>2026-04-27T12:02:33.029Z</time></trkpt><trkpt lat="32.946717" lon="9.6937352"><ele>248.0</ele><time>2026-04-27T12:02:34.036Z</time></trkpt><trkpt lat="32.9467491" lon="9.6936425"><ele>248.0</ele><time>2026-04-27T12:02:35.045Z</time></trkpt><trkpt lat="32.9467761" lon="9.6935361"><ele>248.0</ele><time>2026-04-27T12:02:36.029Z</time></trkpt><trkpt lat="32.9468051" lon="9.6934322"><ele>248.0</ele><time>2026-04-27T12:02:37.039Z</time></trkpt><trkpt lat="32.9468382" lon="9.6933259"><ele>248.0</ele><time>2026-04-27T12:02:38.022Z</time></trkpt><trkpt lat="32.9468755" lon="9.6932322"><ele>248.00000000000003</ele><time>2026-04-27T12:02:39.031Z</time></trkpt><trkpt lat="32.9469203" lon="9.6931409"><ele>248.0</ele><time>2026-04-27T12:02:40.05Z</time></trkpt><trkpt lat="32.946976" lon="9.6930665"><ele>248.0</ele><time>2026-04-27T12:02:41.036Z</time></trkpt><trkpt lat="32.9470338" lon="9.693003"><ele>248.0</ele><time>2026-04-27T12:02:42.058Z</time></trkpt><trkpt lat="32.9470894" lon="9.6929301"><ele>248.00000000000003</ele><time>2026-04-27T12:02:43.039Z</time></trkpt><trkpt lat="32.9471392" lon="9.6928489"><ele>248.0</ele><time>2026-04-27T12:02:44.033Z</time></trkpt><trkpt lat="32.9471908" lon="9.6927553"><ele>247.66666666666669</ele><time>2026-04-27T12:02:45.04Z</time></trkpt><trkpt lat="32.9472329" lon="9.6926664"><ele>247.33333333333334</ele><time>2026-04-27T12:02:46.039Z</time></trkpt><trkpt lat="32.9472713" lon="9.6925766"><ele>247.0</ele><time>2026-04-27T12:02:47.029Z</time></trkpt><trkpt lat="32.9472996" lon="9.6924753"><ele>246.66666666666669</ele><time>2026-04-27T12:02:48.021Z</time></trkpt><trkpt lat="32.947324" lon="9.6923707"><ele>246.33333333333334</ele><time>2026-04-27T12:02:49.034Z</time></trkpt><trkpt lat="32.9473429" lon="9.6922672"><ele>246.0</ele><time>2026-04-27T12:02:50.047Z</time></trkpt><trkpt lat="32.9473657" lon="9.6921613"><ele>246.0</ele><time>2026-04-27T12:02:51Z</time></trkpt><trkpt lat="32.9473962" lon="9.6920587"><ele>246.0</ele><time>2026-04-27T12:02:52.001Z</time></trkpt><trkpt lat="32.9474189" lon="9.6919611"><ele>246.0</ele><time>2026-04-27T12:02:53.012Z</time></trkpt><trkpt lat="32.9474653" lon="9.6917648"><ele>246.0</ele><time>2026-04-27T12:02:55.024Z</time></trkpt><trkpt lat="32.947543" lon="9.6915923"><ele>246.0</ele><time>2026-04-27T12:02:57.024Z</time></trkpt><trkpt lat="32.9476533" lon="9.6914248"><ele>246.0</ele><time>2026-04-27T12:02:58.999Z</time></trkpt><trkpt lat="32.9477097" lon="9.6913422"><ele>246.0</ele><time>2026-04-27T12:03:00.027Z</time></trkpt><trkpt lat="32.9477697" lon="9.6912619"><ele>246.0</ele><time>2026-04-27T12:03:01.032Z</time></trkpt><trkpt lat="32.9478254" lon="9.6911743"><ele>246.33333333333334</ele><time>2026-04-27T12:03:02.028Z</time></trkpt><trkpt lat="32.9478828" lon="9.6910875"><ele>246.66666666666669</ele><time>2026-04-27T12:03:03.027Z</time></trkpt><trkpt lat="32.9479353" lon="9.6910066"><ele>247.0</ele><time>2026-04-27T12:03:04.025Z</time></trkpt><trkpt lat="32.9479865" lon="9.6909268"><ele>247.33333333333334</ele><time>2026-04-27T12:03:05.061Z</time></trkpt><trkpt lat="32.9480346" lon="9.6908406"><ele>247.66666666666669</ele><time>2026-04-27T12:03:06.056Z</time></trkpt><trkpt lat="32.9480851" lon="9.6907563"><ele>248.0</ele><time>2026-04-27T12:03:07.032Z</time></trkpt><trkpt lat="32.9481309" lon="9.6906742"><ele>248.00000000000003</ele><time>2026-04-27T12:03:08.004Z</time></trkpt><trkpt lat="32.9481781" lon="9.690592"><ele>248.0</ele><time>2026-04-27T12:03:09.064Z</time></trkpt><trkpt lat="32.9482192" lon="9.6905126"><ele>248.0</ele><time>2026-04-27T12:03:10.081Z</time></trkpt><trkpt lat="32.9482635" lon="9.6904316"><ele>248.0</ele><time>2026-04-27T12:03:11.014Z</time></trkpt><trkpt lat="32.9483063" lon="9.6903349"><ele>248.00000000000003</ele><time>2026-04-27T12:03:12.058Z</time></trkpt><trkpt lat="32.9483344" lon="9.6902375"><ele>248.0</ele><time>2026-04-27T12:03:13.059Z</time></trkpt><trkpt lat="32.9483635" lon="9.6901426"><ele>247.25</ele><time>2026-04-27T12:03:14.014Z</time></trkpt><trkpt lat="32.948398" lon="9.6900497"><ele>246.5</ele><time>2026-04-27T12:03:15.032Z</time></trkpt><trkpt lat="32.9484319" lon="9.6899654"><ele>245.75</ele><time>2026-04-27T12:03:16.025Z</time></trkpt><trkpt lat="32.9485415" lon="9.689697"><ele>245.0</ele><time>2026-04-27T12:03:19.017Z</time></trkpt><trkpt lat="32.9486184" lon="9.6895281"><ele>245.00000000000003</ele><time>2026-04-27T12:03:21.03Z</time></trkpt><trkpt lat="32.9486586" lon="9.689437"><ele>245.0</ele><time>2026-04-27T12:03:22.008Z</time></trkpt><trkpt lat="32.9486988" lon="9.6893487"><ele>245.0</ele><time>2026-04-27T12:03:23.001Z</time></trkpt><trkpt lat="32.9487374" lon="9.6892755"><ele>245.0</ele><time>2026-04-27T12:03:24.013Z</time></trkpt><trkpt lat="32.9487693" lon="9.6892056"><ele>245.00000000000003</ele><time>2026-04-27T12:03:25.012Z</time></trkpt><trkpt lat="32.9487958" lon="9.6891265"><ele>245.0</ele><time>2026-04-27T12:03:26.034Z</time></trkpt><trkpt lat="32.9488246" lon="9.6890455"><ele>245.00000000000003</ele><time>2026-04-27T12:03:27.003Z</time></trkpt><trkpt lat="32.9488536" lon="9.6889626"><ele>245.0</ele><time>2026-04-27T12:03:28.013Z</time></trkpt><trkpt lat="32.9488863" lon="9.688882"><ele>245.0</ele><time>2026-04-27T12:03:29.033Z</time></trkpt><trkpt lat="32.9489212" lon="9.6888118"><ele>245.0</ele><time>2026-04-27T12:03:30.049Z</time></trkpt><trkpt lat="32.9489633" lon="9.6887492"><ele>245.00000000000003</ele><time>2026-04-27T12:03:31.036Z</time></trkpt><trkpt lat="32.9490374" lon="9.6886341"><ele>245.0</ele><time>2026-04-27T12:03:33.043Z</time></trkpt><trkpt lat="32.9490729" lon="9.68856"><ele>244.85714285714286</ele><time>2026-04-27T12:03:34.045Z</time></trkpt><trkpt lat="32.9491035" lon="9.6884746"><ele>244.71428571428572</ele><time>2026-04-27T12:03:35.041Z</time></trkpt><trkpt lat="32.9491356" lon="9.6883868"><ele>244.57142857142856</ele><time>2026-04-27T12:03:36.033Z</time></trkpt><trkpt lat="32.949164" lon="9.6883057"><ele>244.42857142857142</ele><time>2026-04-27T12:03:37.044Z</time></trkpt><trkpt lat="32.9491884" lon="9.6882307"><ele>244.28571428571428</ele><time>2026-04-27T12:03:38.05Z</time></trkpt><trkpt lat="32.949213" lon="9.6881587"><ele>244.1428571428571</ele><time>2026-04-27T12:03:39.033Z</time></trkpt><trkpt lat="32.949235" lon="9.6880883"><ele>243.99999999999997</ele><time>2026-04-27T12:03:40.039Z</time></trkpt><trkpt lat="32.9492592" lon="9.6880137"><ele>243.85714285714283</ele><time>2026-04-27T12:03:41.062Z</time></trkpt><trkpt lat="32.9492844" lon="9.687934"><ele>243.71428571428572</ele><time>2026-04-27T12:03:42.051Z</time></trkpt><trkpt lat="32.9493199" lon="9.6878586"><ele>243.57142857142856</ele><time>2026-04-27T12:03:43.039Z</time></trkpt><trkpt lat="32.9493581" lon="9.6877811"><ele>243.42857142857142</ele><time>2026-04-27T12:03:44.037Z</time></trkpt><trkpt lat="32.9493976" lon="9.6877018"><ele>243.28571428571428</ele><time>2026-04-27T12:03:45.038Z</time></trkpt><trkpt lat="32.9494301" lon="9.6876241"><ele>243.14285714285714</ele><time>2026-04-27T12:03:46.043Z</time></trkpt><trkpt lat="32.9494603" lon="9.6875537"><ele>243.0</ele><time>2026-04-27T12:03:47.032Z</time></trkpt><trkpt lat="32.9494923" lon="9.687443"><ele>242.8</ele><time>2026-04-27T12:03:49.052Z</time></trkpt><trkpt lat="32.9495032" lon="9.6873006"><ele>242.60000000000002</ele><time>2026-04-27T12:03:51.048Z</time></trkpt><trkpt lat="32.9495244" lon="9.6872018"><ele>242.39999999999998</ele><time>2026-04-27T12:03:52.032Z</time></trkpt><trkpt lat="32.9495518" lon="9.6871139"><ele>242.2</ele><time>2026-04-27T12:03:53.041Z</time></trkpt><trkpt lat="32.9495798" lon="9.6870132"><ele>242.0</ele><time>2026-04-27T12:03:54.001Z</time></trkpt><trkpt lat="32.9495991" lon="9.6869082"><ele>242.0</ele><time>2026-04-27T12:03:55.01Z</time></trkpt><trkpt lat="32.9496181" lon="9.6868016"><ele>242.0</ele><time>2026-04-27T12:03:56.029Z</time></trkpt><trkpt lat="32.9496429" lon="9.6866995"><ele>242.0</ele><time>2026-04-27T12:03:57.017Z</time></trkpt><trkpt lat="32.9497191" lon="9.6863716"><ele>242.0</ele><time>2026-04-27T12:04:00.038Z</time></trkpt><trkpt lat="32.9497389" lon="9.6862716"><ele>242.0</ele><time>2026-04-27T12:04:01.024Z</time></trkpt><trkpt lat="32.9497611" lon="9.6861721"><ele>242.0</ele><time>2026-04-27T12:04:02.003Z</time></trkpt><trkpt lat="32.9497817" lon="9.6860793"><ele>242.0</ele><time>2026-04-27T12:04:03.049Z</time></trkpt><trkpt lat="32.9498212" lon="9.6859144"><ele>242.0</ele><time>2026-04-27T12:04:05.038Z</time></trkpt><trkpt lat="32.9498635" lon="9.6857812"><ele>241.8</ele><time>2026-04-27T12:04:07.035Z</time></trkpt><trkpt lat="32.949912" lon="9.6856439"><ele>241.6</ele><time>2026-04-27T12:04:09.007Z</time></trkpt><trkpt lat="32.949961" lon="9.6855184"><ele>241.40000000000003</ele><time>2026-04-27T12:04:11.067Z</time></trkpt><trkpt lat="32.9500013" lon="9.685385"><ele>241.20000000000002</ele><time>2026-04-27T12:04:13.068Z</time></trkpt><trkpt lat="32.9500155" lon="9.6853107"><ele>241.0</ele><time>2026-04-27T12:04:14.028Z</time></trkpt><trkpt lat="32.9500325" lon="9.6852299"><ele>240.49999999999997</ele><time>2026-04-27T12:04:15.071Z</time></trkpt><trkpt lat="32.9500511" lon="9.6851438"><ele>240.0</ele><time>2026-04-27T12:04:16.06Z</time></trkpt><trkpt lat="32.9500718" lon="9.6850633"><ele>239.5</ele><time>2026-04-27T12:04:17.066Z</time></trkpt><trkpt lat="32.9500927" lon="9.68499"><ele>239.0</ele><time>2026-04-27T12:04:18.07Z</time></trkpt><trkpt lat="32.9501109" lon="9.684918"><ele>238.49999999999997</ele><time>2026-04-27T12:04:19.02Z</time></trkpt><trkpt lat="32.9501778" lon="9.6847929"><ele>238.0</ele><time>2026-04-27T12:04:21.041Z</time></trkpt><trkpt lat="32.950221" lon="9.6847243"><ele>238.0</ele><time>2026-04-27T12:04:22.064Z</time></trkpt><trkpt lat="32.9502638" lon="9.6846543"><ele>238.0</ele><time>2026-04-27T12:04:23.07Z</time></trkpt><trkpt lat="32.950303" lon="9.6845863"><ele>238.0</ele><time>2026-04-27T12:04:24.027Z</time></trkpt><trkpt lat="32.9503666" lon="9.6844569"><ele>238.0</ele><time>2026-04-27T12:04:26.052Z</time></trkpt><trkpt lat="32.9504357" lon="9.6843394"><ele>238.0</ele><time>2026-04-27T12:04:28.061Z</time></trkpt><trkpt lat="32.9505226" lon="9.684252"><ele>238.33333333333331</ele><time>2026-04-27T12:04:30.065Z</time></trkpt><trkpt lat="32.950573" lon="9.6842025"><ele>238.66666666666666</ele><time>2026-04-27T12:04:31.09Z</time></trkpt><trkpt lat="32.950676" lon="9.6841012"><ele>239.0</ele><time>2026-04-27T12:04:33.066Z</time></trkpt><trkpt lat="32.9507344" lon="9.6840533"><ele>239.33333333333331</ele><time>2026-04-27T12:04:34.063Z</time></trkpt><trkpt lat="32.9507949" lon="9.6840156"><ele>239.66666666666666</ele><time>2026-04-27T12:04:35.046Z</time></trkpt><trkpt lat="32.9508593" lon="9.6839823"><ele>240.0</ele><time>2026-04-27T12:04:36.07Z</time></trkpt><trkpt lat="32.9509222" lon="9.6839521"><ele>240.0</ele><time>2026-04-27T12:04:37.081Z</time></trkpt><trkpt lat="32.9509811" lon="9.6839231"><ele>240.0</ele><time>2026-04-27T12:04:38.044Z</time></trkpt><trkpt lat="32.9510815" lon="9.6838792"><ele>240.0</ele><time>2026-04-27T12:04:40.053Z</time></trkpt><trkpt lat="32.9511769" lon="9.6838434"><ele>240.0</ele><time>2026-04-27T12:04:42.047Z</time></trkpt><trkpt lat="32.9512869" lon="9.683795"><ele>240.0</ele><time>2026-04-27T12:04:44.029Z</time></trkpt><trkpt lat="32.9514037" lon="9.6837571"><ele>240.0</ele><time>2026-04-27T12:04:46.076Z</time></trkpt><trkpt lat="32.9514681" lon="9.6837187"><ele>240.0</ele><time>2026-04-27T12:04:47.071Z</time></trkpt><trkpt lat="32.9515322" lon="9.6836836"><ele>240.0</ele><time>2026-04-27T12:04:48.074Z</time></trkpt><trkpt lat="32.9515992" lon="9.6836502"><ele>240.0</ele><time>2026-04-27T12:04:49.058Z</time></trkpt><trkpt lat="32.9516681" lon="9.683616"><ele>240.0</ele><time>2026-04-27T12:04:50.032Z</time></trkpt><trkpt lat="32.951732" lon="9.6835802"><ele>240.0</ele><time>2026-04-27T12:04:51.055Z</time></trkpt><trkpt lat="32.9517984" lon="9.6835385"><ele>240.0</ele><time>2026-04-27T12:04:52.032Z</time></trkpt><trkpt lat="32.9518641" lon="9.6835014"><ele>239.4</ele><time>2026-04-27T12:04:53.054Z</time></trkpt><trkpt lat="32.9519585" lon="9.6834204"><ele>238.8</ele><time>2026-04-27T12:04:55.065Z</time></trkpt><trkpt lat="32.952048" lon="9.6833195"><ele>238.2</ele><time>2026-04-27T12:04:57.048Z</time></trkpt><trkpt lat="32.9521238" lon="9.6832144"><ele>237.6</ele><time>2026-04-27T12:04:59.012Z</time></trkpt><trkpt lat="32.9521701" lon="9.6831598"><ele>237.0</ele><time>2026-04-27T12:05:00.012Z</time></trkpt><trkpt lat="32.9522454" lon="9.6830744"><ele>237.0</ele><time>2026-04-27T12:05:02.031Z</time></trkpt><trkpt lat="32.9523285" lon="9.6829882"><ele>237.0</ele><time>2026-04-27T12:05:04.024Z</time></trkpt><trkpt lat="32.9523771" lon="9.6829352"><ele>237.0</ele><time>2026-04-27T12:05:05.007Z</time></trkpt><trkpt lat="32.9524557" lon="9.6828322"><ele>237.0</ele><time>2026-04-27T12:05:07.005Z</time></trkpt><trkpt lat="32.9525234" lon="9.6827241"><ele>237.0</ele><time>2026-04-27T12:05:09.058Z</time></trkpt><trkpt lat="32.9525949" lon="9.6826179"><ele>236.83333333333334</ele><time>2026-04-27T12:05:11.06Z</time></trkpt><trkpt lat="32.9526391" lon="9.6825582"><ele>236.66666666666669</ele><time>2026-04-27T12:05:12.05Z</time></trkpt><trkpt lat="32.9526818" lon="9.6824925"><ele>236.5</ele><time>2026-04-27T12:05:13.043Z</time></trkpt><trkpt lat="32.9527257" lon="9.6824275"><ele>236.33333333333334</ele><time>2026-04-27T12:05:14.046Z</time></trkpt><trkpt lat="32.9527675" lon="9.6823689"><ele>236.16666666666669</ele><time>2026-04-27T12:05:15.057Z</time></trkpt><trkpt lat="32.9528412" lon="9.6822773"><ele>236.0</ele><time>2026-04-27T12:05:17.065Z</time></trkpt><trkpt lat="32.9529037" lon="9.6821769"><ele>236.0</ele><time>2026-04-27T12:05:19.01Z</time></trkpt><trkpt lat="32.9529527" lon="9.682063"><ele>236.0</ele><time>2026-04-27T12:05:21.008Z</time></trkpt><trkpt lat="32.9530801" lon="9.6819099"><ele>236.0</ele><time>2026-04-27T12:05:24.025Z</time></trkpt><trkpt lat="32.9531812" lon="9.6817696"><ele>236.0</ele><time>2026-04-27T12:05:26.08Z</time></trkpt><trkpt lat="32.9532259" lon="9.6816943"><ele>236.33333333333334</ele><time>2026-04-27T12:05:27Z</time></trkpt><trkpt lat="32.9532771" lon="9.6816165"><ele>236.66666666666669</ele><time>2026-04-27T12:05:28Z</time></trkpt><trkpt lat="32.9533267" lon="9.6815466"><ele>237.0</ele><time>2026-04-27T12:05:29.05Z</time></trkpt><trkpt lat="32.9533684" lon="9.681485"><ele>237.33333333333331</ele><time>2026-04-27T12:05:30.013Z</time></trkpt><trkpt lat="32.9534121" lon="9.6814254"><ele>237.66666666666666</ele><time>2026-04-27T12:05:31.031Z</time></trkpt><trkpt lat="32.9534492" lon="9.6813646"><ele>238.0</ele><time>2026-04-27T12:05:32.012Z</time></trkpt><trkpt lat="32.953531" lon="9.6812584"><ele>237.99999999999997</ele><time>2026-04-27T12:05:34.01Z</time></trkpt><trkpt lat="32.9535702" lon="9.6811984"><ele>238.0</ele><time>2026-04-27T12:05:35Z</time></trkpt><trkpt lat="32.9536459" lon="9.6810981"><ele>238.0</ele><time>2026-04-27T12:05:37.006Z</time></trkpt><trkpt lat="32.9536906" lon="9.6810446"><ele>238.0</ele><time>2026-04-27T12:05:38.001Z</time></trkpt><trkpt lat="32.9537347" lon="9.6809775"><ele>237.99999999999997</ele><time>2026-04-27T12:05:39.007Z</time></trkpt><trkpt lat="32.9537761" lon="9.6808994"><ele>238.0</ele><time>2026-04-27T12:05:40.003Z</time></trkpt><trkpt lat="32.9538497" lon="9.6807362"><ele>237.8</ele><time>2026-04-27T12:05:42.052Z</time></trkpt><trkpt lat="32.953879" lon="9.6806632"><ele>237.60000000000002</ele><time>2026-04-27T12:05:43.033Z</time></trkpt><trkpt lat="32.9539128" lon="9.6805963"><ele>237.39999999999998</ele><time>2026-04-27T12:05:44.027Z</time></trkpt><trkpt lat="32.9539742" lon="9.6804579"><ele>237.2</ele><time>2026-04-27T12:05:46.049Z</time></trkpt><trkpt lat="32.9540262" lon="9.6803243"><ele>237.0</ele><time>2026-04-27T12:05:48.009Z</time></trkpt><trkpt lat="32.9540683" lon="9.68019"><ele>237.0</ele><time>2026-04-27T12:05:50.051Z</time></trkpt><trkpt lat="32.9541911" lon="9.6798445"><ele>237.0</ele><time>2026-04-27T12:05:54.024Z</time></trkpt><trkpt lat="32.9542228" lon="9.6797571"><ele>237.0</ele><time>2026-04-27T12:05:55.021Z</time></trkpt><trkpt lat="32.954254" lon="9.6796639"><ele>237.16666666666666</ele><time>2026-04-27T12:05:56.017Z</time></trkpt><trkpt lat="32.9542805" lon="9.6795718"><ele>237.33333333333331</ele><time>2026-04-27T12:05:57.01Z</time></trkpt><trkpt lat="32.9543057" lon="9.6794806"><ele>237.5</ele><time>2026-04-27T12:05:58.01Z</time></trkpt><trkpt lat="32.9543296" lon="9.6793857"><ele>237.66666666666666</ele><time>2026-04-27T12:05:59.054Z</time></trkpt><trkpt lat="32.9543524" lon="9.6792908"><ele>237.83333333333331</ele><time>2026-04-27T12:06:00.011Z</time></trkpt><trkpt lat="32.9543775" lon="9.6792042"><ele>238.0</ele><time>2026-04-27T12:06:01.032Z</time></trkpt><trkpt lat="32.9543956" lon="9.6791313"><ele>237.66666666666666</ele><time>2026-04-27T12:06:02.02Z</time></trkpt><trkpt lat="32.9544217" lon="9.6790492"><ele>237.33333333333331</ele><time>2026-04-27T12:06:03.001Z</time></trkpt><trkpt lat="32.9544566" lon="9.6789683"><ele>237.0</ele><time>2026-04-27T12:06:04.023Z</time></trkpt><trkpt lat="32.9544912" lon="9.6788783"><ele>236.66666666666669</ele><time>2026-04-27T12:06:05.042Z</time></trkpt><trkpt lat="32.9545281" lon="9.6787907"><ele>236.33333333333334</ele><time>2026-04-27T12:06:06.048Z</time></trkpt><trkpt lat="32.9545623" lon="9.6787175"><ele>236.0</ele><time>2026-04-27T12:06:07.051Z</time></trkpt><trkpt lat="32.9545944" lon="9.6786433"><ele>235.83333333333334</ele><time>2026-04-27T12:06:08.029Z</time></trkpt><trkpt lat="32.9546706" lon="9.6784834"><ele>235.66666666666669</ele><time>2026-04-27T12:06:11.094Z</time></trkpt><trkpt lat="32.9547026" lon="9.6784139"><ele>235.5</ele><time>2026-04-27T12:06:12.055Z</time></trkpt><trkpt lat="32.9547416" lon="9.6783435"><ele>235.33333333333331</ele><time>2026-04-27T12:06:13.02Z</time></trkpt><trkpt lat="32.9547781" lon="9.678271"><ele>235.16666666666666</ele><time>2026-04-27T12:06:14.03Z</time></trkpt><trkpt lat="32.9548162" lon="9.6781942"><ele>235.0</ele><time>2026-04-27T12:06:15.028Z</time></trkpt><trkpt lat="32.9548594" lon="9.6781129"><ele>235.0</ele><time>2026-04-27T12:06:16.03Z</time></trkpt><trkpt lat="32.9548972" lon="9.6780297"><ele>234.99999999999997</ele><time>2026-04-27T12:06:17.016Z</time></trkpt><trkpt lat="32.9549346" lon="9.677954"><ele>235.0</ele><time>2026-04-27T12:06:18.019Z</time></trkpt><trkpt lat="32.9549765" lon="9.6778695"><ele>235.0</ele><time>2026-04-27T12:06:19.004Z</time></trkpt><trkpt lat="32.9550153" lon="9.6777983"><ele>234.99999999999997</ele><time>2026-04-27T12:06:20.019Z</time></trkpt><trkpt lat="32.9550564" lon="9.6777347"><ele>235.0</ele><time>2026-04-27T12:06:21.05Z</time></trkpt><trkpt lat="32.9550894" lon="9.6776669"><ele>235.0</ele><time>2026-04-27T12:06:22.003Z</time></trkpt><trkpt lat="32.9551543" lon="9.6775616"><ele>234.99999999999997</ele><time>2026-04-27T12:06:24.011Z</time></trkpt><trkpt lat="32.9552276" lon="9.677442"><ele>235.0</ele><time>2026-04-27T12:06:26.015Z</time></trkpt><trkpt lat="32.9552636" lon="9.6773796"><ele>235.0</ele><time>2026-04-27T12:06:27.003Z</time></trkpt><trkpt lat="32.9552972" lon="9.6773131"><ele>235.0</ele><time>2026-04-27T12:06:28.014Z</time></trkpt><trkpt lat="32.955338" lon="9.6772453"><ele>234.99999999999997</ele><time>2026-04-27T12:06:29.038Z</time></trkpt><trkpt lat="32.9553752" lon="9.6771739"><ele>235.0</ele><time>2026-04-27T12:06:30.064Z</time></trkpt><trkpt lat="32.9554175" lon="9.6770955"><ele>234.5</ele><time>2026-04-27T12:06:31.016Z</time></trkpt><trkpt lat="32.955557" lon="9.676792"><ele>234.0</ele><time>2026-04-27T12:06:35.026Z</time></trkpt><trkpt lat="32.95559" lon="9.6767108"><ele>233.5</ele><time>2026-04-27T12:06:36.011Z</time></trkpt><trkpt lat="32.9556226" lon="9.6766268"><ele>233.0</ele><time>2026-04-27T12:06:37.07Z</time></trkpt><trkpt lat="32.9556554" lon="9.6765457"><ele>233.0</ele><time>2026-04-27T12:06:38.024Z</time></trkpt><trkpt lat="32.9557501" lon="9.6763325"><ele>233.0</ele><time>2026-04-27T12:06:41.026Z</time></trkpt><trkpt lat="32.9558019" lon="9.6762087"><ele>233.0</ele><time>2026-04-27T12:06:43.004Z</time></trkpt><trkpt lat="32.9558513" lon="9.6760882"><ele>233.0</ele><time>2026-04-27T12:06:45.059Z</time></trkpt><trkpt lat="32.9559051" lon="9.6759492"><ele>233.33333333333334</ele><time>2026-04-27T12:06:47.061Z</time></trkpt><trkpt lat="32.9559506" lon="9.6758136"><ele>233.66666666666669</ele><time>2026-04-27T12:06:49.076Z</time></trkpt><trkpt lat="32.9559754" lon="9.6757375"><ele>234.0</ele><time>2026-04-27T12:06:50.082Z</time></trkpt><trkpt lat="32.9560022" lon="9.6756619"><ele>234.33333333333331</ele><time>2026-04-27T12:06:51.07Z</time></trkpt><trkpt lat="32.9560347" lon="9.6755807"><ele>234.66666666666666</ele><time>2026-04-27T12:06:52.052Z</time></trkpt><trkpt lat="32.9560627" lon="9.6755035"><ele>235.0</ele><time>2026-04-27T12:06:53.047Z</time></trkpt><trkpt lat="32.9560947" lon="9.6754208"><ele>234.99999999999997</ele><time>2026-04-27T12:06:54.046Z</time></trkpt><trkpt lat="32.9561275" lon="9.6753395"><ele>235.0</ele><time>2026-04-27T12:06:55.054Z</time></trkpt><trkpt lat="32.9561664" lon="9.6752546"><ele>235.0</ele><time>2026-04-27T12:06:56.045Z</time></trkpt><trkpt lat="32.9562071" lon="9.6751704"><ele>235.0</ele><time>2026-04-27T12:06:57.015Z</time></trkpt><trkpt lat="32.9562462" lon="9.6750835"><ele>234.99999999999997</ele><time>2026-04-27T12:06:58.042Z</time></trkpt><trkpt lat="32.9562858" lon="9.675008"><ele>235.0</ele><time>2026-04-27T12:06:59.028Z</time></trkpt><trkpt lat="32.9563265" lon="9.6749406"><ele>234.99999999999997</ele><time>2026-04-27T12:07:00.024Z</time></trkpt><trkpt lat="32.9563608" lon="9.6748668"><ele>235.0</ele><time>2026-04-27T12:07:01.044Z</time></trkpt><trkpt lat="32.9563981" lon="9.6747968"><ele>235.0</ele><time>2026-04-27T12:07:02.051Z</time></trkpt><trkpt lat="32.9564364" lon="9.6747277"><ele>235.0</ele><time>2026-04-27T12:07:03.029Z</time></trkpt><trkpt lat="32.9565044" lon="9.6746183"><ele>234.99999999999997</ele><time>2026-04-27T12:07:05.025Z</time></trkpt><trkpt lat="32.956567" lon="9.6745045"><ele>235.0</ele><time>2026-04-27T12:07:07.051Z</time></trkpt><trkpt lat="32.9566238" lon="9.6744036"><ele>234.99999999999997</ele><time>2026-04-27T12:07:09.004Z</time></trkpt><trkpt lat="32.9567162" lon="9.6743132"><ele>235.0</ele><time>2026-04-27T12:07:11.012Z</time></trkpt><trkpt lat="32.9567699" lon="9.6742573"><ele>235.0</ele><time>2026-04-27T12:07:12.013Z</time></trkpt><trkpt lat="32.9568237" lon="9.6741991"><ele>235.0</ele><time>2026-04-27T12:07:13.002Z</time></trkpt><trkpt lat="32.9568737" lon="9.6741336"><ele>234.99999999999997</ele><time>2026-04-27T12:07:14.025Z</time></trkpt><trkpt lat="32.9569252" lon="9.6740694"><ele>235.0</ele><time>2026-04-27T12:07:15.003Z</time></trkpt><trkpt lat="32.9569702" lon="9.674003"><ele>234.99999999999997</ele><time>2026-04-27T12:07:16.01Z</time></trkpt><trkpt lat="32.9570092" lon="9.673944"><ele>235.0</ele><time>2026-04-27T12:07:17.01Z</time></trkpt><trkpt lat="32.9570459" lon="9.6738808"><ele>235.0</ele><time>2026-04-27T12:07:18.004Z</time></trkpt><trkpt lat="32.9570844" lon="9.6738113"><ele>235.0</ele><time>2026-04-27T12:07:19.002Z</time></trkpt><trkpt lat="32.9571322" lon="9.6737435"><ele>234.99999999999997</ele><time>2026-04-27T12:07:20.013Z</time></trkpt><trkpt lat="32.9571727" lon="9.6736689"><ele>235.0</ele><time>2026-04-27T12:07:21.031Z</time></trkpt><trkpt lat="32.9572479" lon="9.6735351"><ele>234.83333333333331</ele><time>2026-04-27T12:07:23.062Z</time></trkpt><trkpt lat="32.9572844" lon="9.6734633"><ele>234.66666666666666</ele><time>2026-04-27T12:07:24.06Z</time></trkpt><trkpt lat="32.9573218" lon="9.673384"><ele>234.5</ele><time>2026-04-27T12:07:25.027Z</time></trkpt><trkpt lat="32.9573714" lon="9.6733035"><ele>234.33333333333331</ele><time>2026-04-27T12:07:26.022Z</time></trkpt><trkpt lat="32.9574229" lon="9.6732311"><ele>234.16666666666666</ele><time>2026-04-27T12:07:27.026Z</time></trkpt><trkpt lat="32.9574795" lon="9.6731591"><ele>234.0</ele><time>2026-04-27T12:07:28.013Z</time></trkpt><trkpt lat="32.9575358" lon="9.6730811"><ele>233.66666666666666</ele><time>2026-04-27T12:07:29.007Z</time></trkpt><trkpt lat="32.9575887" lon="9.6730122"><ele>233.33333333333331</ele><time>2026-04-27T12:07:30.006Z</time></trkpt><trkpt lat="32.9576389" lon="9.672941"><ele>233.0</ele><time>2026-04-27T12:07:31.034Z</time></trkpt><trkpt lat="32.9576919" lon="9.6728673"><ele>232.66666666666666</ele><time>2026-04-27T12:07:31.999Z</time></trkpt><trkpt lat="32.9577373" lon="9.6727922"><ele>232.33333333333331</ele><time>2026-04-27T12:07:33.005Z</time></trkpt><trkpt lat="32.9577761" lon="9.6727211"><ele>232.0</ele><time>2026-04-27T12:07:34.013Z</time></trkpt><trkpt lat="32.957811" lon="9.6726547"><ele>231.42857142857144</ele><time>2026-04-27T12:07:35.006Z</time></trkpt><trkpt lat="32.9578404" lon="9.6725751"><ele>230.85714285714286</ele><time>2026-04-27T12:07:36.015Z</time></trkpt><trkpt lat="32.9578642" lon="9.6724962"><ele>230.28571428571428</ele><time>2026-04-27T12:07:37.017Z</time></trkpt><trkpt lat="32.957888" lon="9.6724179"><ele>229.71428571428572</ele><time>2026-04-27T12:07:38.002Z</time></trkpt><trkpt lat="32.9579185" lon="9.6723442"><ele>229.1428571428571</ele><time>2026-04-27T12:07:39.014Z</time></trkpt><trkpt lat="32.9579562" lon="9.6722704"><ele>228.57142857142856</ele><time>2026-04-27T12:07:40.022Z</time></trkpt><trkpt lat="32.9579898" lon="9.6721986"><ele>228.0</ele><time>2026-04-27T12:07:41.023Z</time></trkpt><trkpt lat="32.9580222" lon="9.6721307"><ele>228.0</ele><time>2026-04-27T12:07:42.001Z</time></trkpt><trkpt lat="32.9580573" lon="9.6720549"><ele>228.0</ele><time>2026-04-27T12:07:43.03Z</time></trkpt><trkpt lat="32.9581" lon="9.6719817"><ele>228.0</ele><time>2026-04-27T12:07:44.08Z</time></trkpt><trkpt lat="32.9582409" lon="9.6717882"><ele>228.0</ele><time>2026-04-27T12:07:47.056Z</time></trkpt><trkpt lat="32.9582837" lon="9.6717297"><ele>228.0</ele><time>2026-04-27T12:07:48.015Z</time></trkpt><trkpt lat="32.9583537" lon="9.6716078"><ele>228.16666666666666</ele><time>2026-04-27T12:07:50.02Z</time></trkpt><trkpt lat="32.958402" lon="9.6715493"><ele>228.33333333333331</ele><time>2026-04-27T12:07:51.016Z</time></trkpt><trkpt lat="32.9584456" lon="9.6714905"><ele>228.5</ele><time>2026-04-27T12:07:52.01Z</time></trkpt><trkpt lat="32.9584959" lon="9.6714319"><ele>228.66666666666666</ele><time>2026-04-27T12:07:53.007Z</time></trkpt><trkpt lat="32.9585521" lon="9.6713693"><ele>228.83333333333331</ele><time>2026-04-27T12:07:54.026Z</time></trkpt><trkpt lat="32.9586074" lon="9.6713074"><ele>229.0</ele><time>2026-04-27T12:07:55.021Z</time></trkpt><trkpt lat="32.9587006" lon="9.6712089"><ele>228.99999999999997</ele><time>2026-04-27T12:07:57.019Z</time></trkpt><trkpt lat="32.9588041" lon="9.6711311"><ele>229.0</ele><time>2026-04-27T12:07:59.027Z</time></trkpt><trkpt lat="32.9588628" lon="9.6710872"><ele>229.0</ele><time>2026-04-27T12:08:00.03Z</time></trkpt><trkpt lat="32.9589152" lon="9.6710319"><ele>229.0</ele><time>2026-04-27T12:08:01.036Z</time></trkpt><trkpt lat="32.9589732" lon="9.6709737"><ele>228.99999999999997</ele><time>2026-04-27T12:08:02.031Z</time></trkpt><trkpt lat="32.9590291" lon="9.6708974"><ele>229.0</ele><time>2026-04-27T12:08:03.032Z</time></trkpt><trkpt lat="32.9590846" lon="9.6708272"><ele>229.0</ele><time>2026-04-27T12:08:04.086Z</time></trkpt><trkpt lat="32.9591297" lon="9.6707698"><ele>229.0</ele><time>2026-04-27T12:08:05.011Z</time></trkpt><trkpt lat="32.9591699" lon="9.6707054"><ele>229.0</ele><time>2026-04-27T12:08:06.021Z</time></trkpt><trkpt lat="32.9592091" lon="9.6706374"><ele>229.0</ele><time>2026-04-27T12:08:07.013Z</time></trkpt><trkpt lat="32.9592496" lon="9.6705648"><ele>229.0</ele><time>2026-04-27T12:08:08.034Z</time></trkpt><trkpt lat="32.9592921" lon="9.6704906"><ele>229.0</ele><time>2026-04-27T12:08:09.025Z</time></trkpt><trkpt lat="32.9593362" lon="9.6704189"><ele>229.0</ele><time>2026-04-27T12:08:10.009Z</time></trkpt><trkpt lat="32.9593831" lon="9.6703439"><ele>228.99999999999997</ele><time>2026-04-27T12:08:11.075Z</time></trkpt><trkpt lat="32.9594256" lon="9.67027"><ele>229.0</ele><time>2026-04-27T12:08:12.03Z</time></trkpt><trkpt lat="32.9594667" lon="9.6701995"><ele>229.0</ele><time>2026-04-27T12:08:13.014Z</time></trkpt><trkpt lat="32.9595137" lon="9.6701282"><ele>229.0</ele><time>2026-04-27T12:08:14.046Z</time></trkpt><trkpt lat="32.9595657" lon="9.6700593"><ele>228.99999999999997</ele><time>2026-04-27T12:08:15.013Z</time></trkpt><trkpt lat="32.9596164" lon="9.6699828"><ele>229.0</ele><time>2026-04-27T12:08:16.059Z</time></trkpt><trkpt lat="32.9597137" lon="9.6698419"><ele>229.0</ele><time>2026-04-27T12:08:18.049Z</time></trkpt><trkpt lat="32.9597578" lon="9.6697735"><ele>229.0</ele><time>2026-04-27T12:08:19.062Z</time></trkpt><trkpt lat="32.9598063" lon="9.6697025"><ele>229.0</ele><time>2026-04-27T12:08:20.031Z</time></trkpt><trkpt lat="32.9598511" lon="9.6696379"><ele>229.0</ele><time>2026-04-27T12:08:21.014Z</time></trkpt><trkpt lat="32.9598933" lon="9.6695653"><ele>229.0</ele><time>2026-04-27T12:08:22.005Z</time></trkpt><trkpt lat="32.9599324" lon="9.6694988"><ele>229.0</ele><time>2026-04-27T12:08:23.039Z</time></trkpt><trkpt lat="32.9599768" lon="9.6694326"><ele>229.0</ele><time>2026-04-27T12:08:24.062Z</time></trkpt><trkpt lat="32.9600247" lon="9.669356"><ele>228.75</ele><time>2026-04-27T12:08:25.026Z</time></trkpt><trkpt lat="32.9600746" lon="9.669283"><ele>228.5</ele><time>2026-04-27T12:08:26.02Z</time></trkpt><trkpt lat="32.9601271" lon="9.6692103"><ele>228.25</ele><time>2026-04-27T12:08:27.044Z</time></trkpt><trkpt lat="32.9602769" lon="9.6689975"><ele>228.0</ele><time>2026-04-27T12:08:30.032Z</time></trkpt><trkpt lat="32.9603277" lon="9.6689308"><ele>228.0</ele><time>2026-04-27T12:08:31.069Z</time></trkpt><trkpt lat="32.9603785" lon="9.6688599"><ele>228.0</ele><time>2026-04-27T12:08:32.025Z</time></trkpt><trkpt lat="32.960428" lon="9.6687873"><ele>228.0</ele><time>2026-04-27T12:08:33.01Z</time></trkpt><trkpt lat="32.9604855" lon="9.6687191"><ele>228.0</ele><time>2026-04-27T12:08:34.024Z</time></trkpt><trkpt lat="32.9605383" lon="9.6686483"><ele>228.0</ele><time>2026-04-27T12:08:35.029Z</time></trkpt><trkpt lat="32.9605892" lon="9.6685809"><ele>228.0</ele><time>2026-04-27T12:08:36.003Z</time></trkpt><trkpt lat="32.9606442" lon="9.668515"><ele>227.83333333333334</ele><time>2026-04-27T12:08:37.011Z</time></trkpt><trkpt lat="32.9607004" lon="9.6684431"><ele>227.66666666666669</ele><time>2026-04-27T12:08:38.049Z</time></trkpt><trkpt lat="32.9607549" lon="9.668373"><ele>227.5</ele><time>2026-04-27T12:08:39.009Z</time></trkpt><trkpt lat="32.9608068" lon="9.6683034"><ele>227.33333333333334</ele><time>2026-04-27T12:08:40.012Z</time></trkpt><trkpt lat="32.9608576" lon="9.6682383"><ele>227.16666666666669</ele><time>2026-04-27T12:08:41.013Z</time></trkpt><trkpt lat="32.9609091" lon="9.6681736"><ele>227.0</ele><time>2026-04-27T12:08:42.009Z</time></trkpt><trkpt lat="32.9609607" lon="9.668101"><ele>227.0</ele><time>2026-04-27T12:08:43.019Z</time></trkpt><trkpt lat="32.9610153" lon="9.6680248"><ele>227.0</ele><time>2026-04-27T12:08:44.019Z</time></trkpt><trkpt lat="32.9610668" lon="9.6679586"><ele>227.0</ele><time>2026-04-27T12:08:45.09Z</time></trkpt><trkpt lat="32.9612301" lon="9.6677553"><ele>227.0</ele><time>2026-04-27T12:08:48.049Z</time></trkpt><trkpt lat="32.9612874" lon="9.667679"><ele>226.66666666666669</ele><time>2026-04-27T12:08:49.055Z</time></trkpt><trkpt lat="32.9613397" lon="9.6676067"><ele>226.33333333333334</ele><time>2026-04-27T12:08:50.054Z</time></trkpt><trkpt lat="32.9613954" lon="9.6675368"><ele>226.0</ele><time>2026-04-27T12:08:51.019Z</time></trkpt><trkpt lat="32.9614534" lon="9.6674709"><ele>225.66666666666669</ele><time>2026-04-27T12:08:52.017Z</time></trkpt><trkpt lat="32.961504" lon="9.6674068"><ele>225.33333333333334</ele><time>2026-04-27T12:08:53.036Z</time></trkpt><trkpt lat="32.9615514" lon="9.6673335"><ele>225.0</ele><time>2026-04-27T12:08:54.012Z</time></trkpt><trkpt lat="32.9616072" lon="9.6672569"><ele>225.0</ele><time>2026-04-27T12:08:55.045Z</time></trkpt><trkpt lat="32.9617042" lon="9.6671202"><ele>225.0</ele><time>2026-04-27T12:08:57.036Z</time></trkpt><trkpt lat="32.9617701" lon="9.6670467"><ele>225.0</ele><time>2026-04-27T12:08:58.037Z</time></trkpt><trkpt lat="32.9618344" lon="9.6669765"><ele>225.0</ele><time>2026-04-27T12:08:59.033Z</time></trkpt><trkpt lat="32.9618992" lon="9.6669069"><ele>225.0</ele><time>2026-04-27T12:09:00.054Z</time></trkpt><trkpt lat="32.9619626" lon="9.666851"><ele>225.0</ele><time>2026-04-27T12:09:01.027Z</time></trkpt><trkpt lat="32.9620257" lon="9.6667922"><ele>225.0</ele><time>2026-04-27T12:09:02.029Z</time></trkpt><trkpt lat="32.9620992" lon="9.6667396"><ele>225.0</ele><time>2026-04-27T12:09:03.034Z</time></trkpt><trkpt lat="32.9621789" lon="9.6666699"><ele>225.0</ele><time>2026-04-27T12:09:04.047Z</time></trkpt><trkpt lat="32.96225" lon="9.6666128"><ele>225.0</ele><time>2026-04-27T12:09:05.036Z</time></trkpt><trkpt lat="32.9623174" lon="9.6665631"><ele>225.0</ele><time>2026-04-27T12:09:06.019Z</time></trkpt><trkpt lat="32.9623839" lon="9.6665093"><ele>225.0</ele><time>2026-04-27T12:09:07.053Z</time></trkpt><trkpt lat="32.9624473" lon="9.6664524"><ele>225.0</ele><time>2026-04-27T12:09:08.049Z</time></trkpt><trkpt lat="32.962507" lon="9.666401"><ele>225.0</ele><time>2026-04-27T12:09:09.058Z</time></trkpt><trkpt lat="32.9625629" lon="9.6663449"><ele>225.0</ele><time>2026-04-27T12:09:10.059Z</time></trkpt><trkpt lat="32.9626204" lon="9.6662899"><ele>225.0</ele><time>2026-04-27T12:09:11.033Z</time></trkpt><trkpt lat="32.962679" lon="9.6662379"><ele>225.0</ele><time>2026-04-27T12:09:12.06Z</time></trkpt><trkpt lat="32.9627716" lon="9.6661336"><ele>225.0</ele><time>2026-04-27T12:09:14.004Z</time></trkpt><trkpt lat="32.9628289" lon="9.6660791"><ele>225.0</ele><time>2026-04-27T12:09:15.027Z</time></trkpt><trkpt lat="32.9629483" lon="9.6659382"><ele>225.0</ele><time>2026-04-27T12:09:18.056Z</time></trkpt><trkpt lat="32.9629928" lon="9.6658829"><ele>225.0</ele><time>2026-04-27T12:09:21.02Z</time></trkpt><trkpt lat="32.9630377" lon="9.6658267"><ele>225.0</ele><time>2026-04-27T12:09:52.007Z</time></trkpt><trkpt lat="32.9631257" lon="9.6657252"><ele>225.0</ele><time>2026-04-27T12:09:54.035Z</time></trkpt><trkpt lat="32.9632523" lon="9.6655854"><ele>225.0</ele><time>2026-04-27T12:09:57.008Z</time></trkpt><trkpt lat="32.9632961" lon="9.6655312"><ele>225.0</ele><time>2026-04-27T12:09:58.03Z</time></trkpt><trkpt lat="32.9634783" lon="9.6652915"><ele>224.4</ele><time>2026-04-27T12:10:03.035Z</time></trkpt><trkpt lat="32.9635159" lon="9.6652204"><ele>223.8</ele><time>2026-04-27T12:10:06.038Z</time></trkpt><trkpt lat="32.9635898" lon="9.6651753"><ele>223.2</ele><time>2026-04-27T12:18:00.079Z</time></trkpt><trkpt lat="32.9636541" lon="9.6650919"><ele>222.6</ele><time>2026-04-27T12:18:02.038Z</time></trkpt><trkpt lat="32.9637313" lon="9.6650025"><ele>222.0</ele><time>2026-04-27T12:18:04.013Z</time></trkpt><trkpt lat="32.963808" lon="9.6649112"><ele>222.0</ele><time>2026-04-27T12:18:06.02Z</time></trkpt><trkpt lat="32.9638747" lon="9.6648236"><ele>222.0</ele><time>2026-04-27T12:18:08.027Z</time></trkpt><trkpt lat="32.9639479" lon="9.6647302"><ele>222.0</ele><time>2026-04-27T12:18:10.048Z</time></trkpt><trkpt lat="32.9640113" lon="9.6646359"><ele>222.0</ele><time>2026-04-27T12:18:12.028Z</time></trkpt><trkpt lat="32.9640703" lon="9.6645442"><ele>222.0</ele><time>2026-04-27T12:18:14.039Z</time></trkpt><trkpt lat="32.9641215" lon="9.6644536"><ele>222.0</ele><time>2026-04-27T12:18:16.045Z</time></trkpt><trkpt lat="32.9641894" lon="9.6643446"><ele>222.0</ele><time>2026-04-27T12:18:18.031Z</time></trkpt><trkpt lat="32.9642663" lon="9.6642349"><ele>222.0</ele><time>2026-04-27T12:18:20.028Z</time></trkpt><trkpt lat="32.9643377" lon="9.6641451"><ele>222.0</ele><time>2026-04-27T12:18:22.044Z</time></trkpt><trkpt lat="32.9644174" lon="9.6640783"><ele>222.0</ele><time>2026-04-27T12:18:24.04Z</time></trkpt><trkpt lat="32.9645016" lon="9.6640175"><ele>222.2</ele><time>2026-04-27T12:18:26.011Z</time></trkpt><trkpt lat="32.9645792" lon="9.6639496"><ele>222.39999999999998</ele><time>2026-04-27T12:18:28.04Z</time></trkpt><trkpt lat="32.9646661" lon="9.6638537"><ele>222.60000000000002</ele><time>2026-04-27T12:18:31.104Z</time></trkpt><trkpt lat="32.9647294" lon="9.6637656"><ele>222.8</ele><time>2026-04-27T12:18:33.014Z</time></trkpt><trkpt lat="32.964809" lon="9.6636567"><ele>223.0</ele><time>2026-04-27T12:18:35.024Z</time></trkpt><trkpt lat="32.9648857" lon="9.6635392"><ele>223.0</ele><time>2026-04-27T12:18:37.02Z</time></trkpt><trkpt lat="32.9649461" lon="9.6634257"><ele>223.0</ele><time>2026-04-27T12:18:39.013Z</time></trkpt><trkpt lat="32.9650229" lon="9.6633238"><ele>223.0</ele><time>2026-04-27T12:18:41.055Z</time></trkpt><trkpt lat="32.9651082" lon="9.6632392"><ele>223.0</ele><time>2026-04-27T12:18:43.02Z</time></trkpt><trkpt lat="32.965188" lon="9.6631444"><ele>222.75</ele><time>2026-04-27T12:18:45.08Z</time></trkpt><trkpt lat="32.9653143" lon="9.6630112"><ele>222.5</ele><time>2026-04-27T12:18:48.032Z</time></trkpt><trkpt lat="32.9654069" lon="9.6629242"><ele>222.25</ele><time>2026-04-27T12:18:50.029Z</time></trkpt><trkpt lat="32.9655079" lon="9.6628415"><ele>222.0</ele><time>2026-04-27T12:18:52.026Z</time></trkpt><trkpt lat="32.965606" lon="9.6627645"><ele>221.8</ele><time>2026-04-27T12:18:54.007Z</time></trkpt><trkpt lat="32.9657465" lon="9.6626623"><ele>221.6</ele><time>2026-04-27T12:18:57.051Z</time></trkpt><trkpt lat="32.9658427" lon="9.6625932"><ele>221.40000000000003</ele><time>2026-04-27T12:18:59.086Z</time></trkpt><trkpt lat="32.9659269" lon="9.6625274"><ele>221.20000000000002</ele><time>2026-04-27T12:19:01.002Z</time></trkpt><trkpt lat="32.9659793" lon="9.6624811"><ele>221.0</ele><time>2026-04-27T12:19:02.022Z</time></trkpt><trkpt lat="32.9660406" lon="9.6624382"><ele>221.00000000000003</ele><time>2026-04-27T12:19:03.042Z</time></trkpt><trkpt lat="32.9660989" lon="9.6623946"><ele>221.0</ele><time>2026-04-27T12:19:04.02Z</time></trkpt><trkpt lat="32.9661583" lon="9.6623483"><ele>221.0</ele><time>2026-04-27T12:19:05.025Z</time></trkpt><trkpt lat="32.9662245" lon="9.6623025"><ele>221.0</ele><time>2026-04-27T12:19:06.075Z</time></trkpt><trkpt lat="32.9662894" lon="9.6622605"><ele>221.0</ele><time>2026-04-27T12:19:07.04Z</time></trkpt><trkpt lat="32.9663492" lon="9.6622181"><ele>221.00000000000003</ele><time>2026-04-27T12:19:08.042Z</time></trkpt><trkpt lat="32.9664066" lon="9.6621778"><ele>221.0</ele><time>2026-04-27T12:19:09.021Z</time></trkpt><trkpt lat="32.9664999" lon="9.6620814"><ele>221.00000000000003</ele><time>2026-04-27T12:19:11.047Z</time></trkpt><trkpt lat="32.9665474" lon="9.6620262"><ele>221.0</ele><time>2026-04-27T12:19:12.032Z</time></trkpt><trkpt lat="32.9665966" lon="9.6619727"><ele>221.0</ele><time>2026-04-27T12:19:13.039Z</time></trkpt><trkpt lat="32.9666545" lon="9.6619258"><ele>221.0</ele><time>2026-04-27T12:19:14.036Z</time></trkpt><trkpt lat="32.9667047" lon="9.6618756"><ele>221.00000000000003</ele><time>2026-04-27T12:19:15.027Z</time></trkpt><trkpt lat="32.9667607" lon="9.6618307"><ele>221.0</ele><time>2026-04-27T12:19:16.002Z</time></trkpt><trkpt lat="32.9669275" lon="9.6617045"><ele>220.50000000000003</ele><time>2026-04-27T12:19:19.103Z</time></trkpt><trkpt lat="32.9669939" lon="9.6616661"><ele>220.0</ele><time>2026-04-27T12:19:20.024Z</time></trkpt><trkpt lat="32.9670518" lon="9.6616236"><ele>219.5</ele><time>2026-04-27T12:19:21.089Z</time></trkpt><trkpt lat="32.9671126" lon="9.661584"><ele>219.0</ele><time>2026-04-27T12:19:22.024Z</time></trkpt><trkpt lat="32.9672351" lon="9.6615075"><ele>218.50000000000003</ele><time>2026-04-27T12:19:24.002Z</time></trkpt><trkpt lat="32.9672916" lon="9.6614634"><ele>218.0</ele><time>2026-04-27T12:19:25.011Z</time></trkpt><trkpt lat="32.9673501" lon="9.6614221"><ele>218.0</ele><time>2026-04-27T12:19:26.046Z</time></trkpt><trkpt lat="32.9674705" lon="9.6613411"><ele>218.0</ele><time>2026-04-27T12:19:28.045Z</time></trkpt><trkpt lat="32.9676151" lon="9.661251"><ele>218.0</ele><time>2026-04-27T12:19:31.017Z</time></trkpt><trkpt lat="32.9677135" lon="9.6611927"><ele>218.0</ele><time>2026-04-27T12:19:33.046Z</time></trkpt><trkpt lat="32.9677884" lon="9.661146"><ele>218.00000000000003</ele><time>2026-04-27T12:19:35.007Z</time></trkpt><trkpt lat="32.9678425" lon="9.6610943"><ele>218.0</ele><time>2026-04-27T12:20:04.06Z</time></trkpt><trkpt lat="32.9679061" lon="9.6610256"><ele>218.0</ele><time>2026-04-27T12:20:06.044Z</time></trkpt><trkpt lat="32.9679593" lon="9.6609678"><ele>218.0</ele><time>2026-04-27T12:20:07.013Z</time></trkpt><trkpt lat="32.9680143" lon="9.6609254"><ele>218.00000000000003</ele><time>2026-04-27T12:20:08.035Z</time></trkpt><trkpt lat="32.9680964" lon="9.660826"><ele>218.0</ele><time>2026-04-27T12:20:10.056Z</time></trkpt><trkpt lat="32.9681431" lon="9.6607618"><ele>218.00000000000003</ele><time>2026-04-27T12:20:11.045Z</time></trkpt><trkpt lat="32.9682022" lon="9.6606882"><ele>218.0</ele><time>2026-04-27T12:20:12.042Z</time></trkpt><trkpt lat="32.9682667" lon="9.6606029"><ele>218.0</ele><time>2026-04-27T12:20:13.022Z</time></trkpt><trkpt lat="32.9683373" lon="9.660534"><ele>218.0</ele><time>2026-04-27T12:20:14.07Z</time></trkpt><trkpt lat="32.9684008" lon="9.6604635"><ele>218.00000000000003</ele><time>2026-04-27T12:20:15.033Z</time></trkpt><trkpt lat="32.968456" lon="9.6603965"><ele>218.0</ele><time>2026-04-27T12:20:16.065Z</time></trkpt><trkpt lat="32.9685156" lon="9.6603432"><ele>218.2</ele><time>2026-04-27T12:20:17.088Z</time></trkpt><trkpt lat="32.9685789" lon="9.6602895"><ele>218.4</ele><time>2026-04-27T12:20:18.065Z</time></trkpt><trkpt lat="32.9686392" lon="9.6602416"><ele>218.59999999999997</ele><time>2026-04-27T12:20:19.061Z</time></trkpt><trkpt lat="32.9687299" lon="9.6601794"><ele>218.79999999999998</ele><time>2026-04-27T12:20:21.061Z</time></trkpt><trkpt lat="32.9688017" lon="9.6601068"><ele>219.0</ele><time>2026-04-27T12:20:43.066Z</time></trkpt><trkpt lat="32.9688956" lon="9.6600017"><ele>219.16666666666666</ele><time>2026-04-27T12:20:45.061Z</time></trkpt><trkpt lat="32.9689464" lon="9.659951"><ele>219.33333333333331</ele><time>2026-04-27T12:20:46.081Z</time></trkpt><trkpt lat="32.9689943" lon="9.6598961"><ele>219.5</ele><time>2026-04-27T12:20:47.039Z</time></trkpt><trkpt lat="32.9690903" lon="9.6597999"><ele>219.66666666666666</ele><time>2026-04-27T12:20:49.022Z</time></trkpt><trkpt lat="32.9691536" lon="9.6597542"><ele>219.83333333333331</ele><time>2026-04-27T12:20:51.041Z</time></trkpt><trkpt lat="32.9692094" lon="9.6596649"><ele>220.0</ele><time>2026-04-27T12:21:20.055Z</time></trkpt><trkpt lat="32.9692482" lon="9.6596013"><ele>219.57142857142856</ele><time>2026-04-27T12:21:21.076Z</time></trkpt><trkpt lat="32.9692909" lon="9.6595334"><ele>219.14285714285714</ele><time>2026-04-27T12:21:22.035Z</time></trkpt><trkpt lat="32.969341" lon="9.6594657"><ele>218.71428571428572</ele><time>2026-04-27T12:21:23.047Z</time></trkpt><trkpt lat="32.9693859" lon="9.6594044"><ele>218.28571428571428</ele><time>2026-04-27T12:21:24.07Z</time></trkpt><trkpt lat="32.9694385" lon="9.6593412"><ele>217.85714285714286</ele><time>2026-04-27T12:21:25.071Z</time></trkpt><trkpt lat="32.969491" lon="9.65928"><ele>217.42857142857142</ele><time>2026-04-27T12:21:26.071Z</time></trkpt><trkpt lat="32.9695465" lon="9.6592051"><ele>217.0</ele><time>2026-04-27T12:21:27.075Z</time></trkpt><trkpt lat="32.9696208" lon="9.6591328"><ele>216.8</ele><time>2026-04-27T12:21:28.078Z</time></trkpt><trkpt lat="32.9696889" lon="9.6590637"><ele>216.6</ele><time>2026-04-27T12:21:29.015Z</time></trkpt><trkpt lat="32.9697425" lon="9.6590095"><ele>216.40000000000003</ele><time>2026-04-27T12:21:30.016Z</time></trkpt><trkpt lat="32.9697959" lon="9.6589666"><ele>216.20000000000002</ele><time>2026-04-27T12:21:31.03Z</time></trkpt><trkpt lat="32.9699573" lon="9.6588631"><ele>216.0</ele><time>2026-04-27T12:21:34.039Z</time></trkpt><trkpt lat="32.9700541" lon="9.6587875"><ele>216.0</ele><time>2026-04-27T12:21:36.115Z</time></trkpt><trkpt lat="32.9701297" lon="9.6586836"><ele>216.0</ele><time>2026-04-27T12:21:38.007Z</time></trkpt><trkpt lat="32.9702077" lon="9.6585862"><ele>216.0</ele><time>2026-04-27T12:21:40.021Z</time></trkpt><trkpt lat="32.9702796" lon="9.6584858"><ele>216.0</ele><time>2026-04-27T12:21:42.03Z</time></trkpt><trkpt lat="32.9703415" lon="9.6583664"><ele>216.25</ele><time>2026-04-27T12:21:44.035Z</time></trkpt><trkpt lat="32.9704131" lon="9.6582589"><ele>216.5</ele><time>2026-04-27T12:21:46.023Z</time></trkpt><trkpt lat="32.9704778" lon="9.6581403"><ele>216.75</ele><time>2026-04-27T12:21:48.015Z</time></trkpt><trkpt lat="32.9705484" lon="9.6580196"><ele>217.0</ele><time>2026-04-27T12:21:50.015Z</time></trkpt><trkpt lat="32.9706089" lon="9.6579087"><ele>217.0</ele><time>2026-04-27T12:21:52.01Z</time></trkpt><trkpt lat="32.9706683" lon="9.6578193"><ele>217.0</ele><time>2026-04-27T12:21:54.018Z</time></trkpt><trkpt lat="32.9707302" lon="9.6577223"><ele>217.0</ele><time>2026-04-27T12:21:56.039Z</time></trkpt><trkpt lat="32.9708041" lon="9.6576241"><ele>217.0</ele><time>2026-04-27T12:21:58.02Z</time></trkpt><trkpt lat="32.970879" lon="9.6575217"><ele>217.0</ele><time>2026-04-27T12:22:00.038Z</time></trkpt><trkpt lat="32.9709488" lon="9.6574339"><ele>216.8</ele><time>2026-04-27T12:22:02.026Z</time></trkpt><trkpt lat="32.9710163" lon="9.6573392"><ele>216.6</ele><time>2026-04-27T12:22:04.026Z</time></trkpt><trkpt lat="32.9710875" lon="9.657241"><ele>216.40000000000003</ele><time>2026-04-27T12:22:06.021Z</time></trkpt><trkpt lat="32.971169" lon="9.6571354"><ele>216.20000000000002</ele><time>2026-04-27T12:22:08.015Z</time></trkpt><trkpt lat="32.9712136" lon="9.6570818"><ele>216.0</ele><time>2026-04-27T12:22:09.02Z</time></trkpt><trkpt lat="32.9712952" lon="9.6569752"><ele>215.83333333333334</ele><time>2026-04-27T12:22:11.029Z</time></trkpt><trkpt lat="32.9713816" lon="9.656866"><ele>215.66666666666669</ele><time>2026-04-27T12:22:13.022Z</time></trkpt><trkpt lat="32.971427" lon="9.6568004"><ele>215.5</ele><time>2026-04-27T12:22:14.025Z</time></trkpt><trkpt lat="32.9714709" lon="9.6567414"><ele>215.33333333333334</ele><time>2026-04-27T12:22:15.013Z</time></trkpt><trkpt lat="32.971518" lon="9.6566861"><ele>215.16666666666669</ele><time>2026-04-27T12:22:16.026Z</time></trkpt><trkpt lat="32.9715587" lon="9.6566257"><ele>215.0</ele><time>2026-04-27T12:22:17.019Z</time></trkpt><trkpt lat="32.9716006" lon="9.6565603"><ele>215.00000000000003</ele><time>2026-04-27T12:22:18.02Z</time></trkpt><trkpt lat="32.9716687" lon="9.6564347"><ele>215.0</ele><time>2026-04-27T12:22:20.018Z</time></trkpt><trkpt lat="32.9717304" lon="9.6563297"><ele>215.0</ele><time>2026-04-27T12:22:22.033Z</time></trkpt><trkpt lat="32.9717708" lon="9.6562696"><ele>215.0</ele><time>2026-04-27T12:22:23.011Z</time></trkpt><trkpt lat="32.9718097" lon="9.6562009"><ele>215.00000000000003</ele><time>2026-04-27T12:22:24.035Z</time></trkpt><trkpt lat="32.9718482" lon="9.6561236"><ele>215.0</ele><time>2026-04-27T12:22:25.019Z</time></trkpt><trkpt lat="32.9718908" lon="9.656053"><ele>215.0</ele><time>2026-04-27T12:22:26.013Z</time></trkpt><trkpt lat="32.9719299" lon="9.6559742"><ele>215.0</ele><time>2026-04-27T12:22:27.028Z</time></trkpt><trkpt lat="32.9719666" lon="9.6558979"><ele>215.0</ele><time>2026-04-27T12:22:28.043Z</time></trkpt><trkpt lat="32.9720301" lon="9.6557551"><ele>215.0</ele><time>2026-04-27T12:22:30.025Z</time></trkpt><trkpt lat="32.9720584" lon="9.6556779"><ele>215.0</ele><time>2026-04-27T12:22:31.037Z</time></trkpt><trkpt lat="32.9721174" lon="9.6555401"><ele>215.00000000000003</ele><time>2026-04-27T12:22:33.035Z</time></trkpt><trkpt lat="32.9721511" lon="9.6554541"><ele>215.0</ele><time>2026-04-27T12:22:34.03Z</time></trkpt><trkpt lat="32.9721832" lon="9.6553676"><ele>215.0</ele><time>2026-04-27T12:22:35.018Z</time></trkpt><trkpt lat="32.9722154" lon="9.6552776"><ele>215.0</ele><time>2026-04-27T12:22:36.006Z</time></trkpt><trkpt lat="32.9722414" lon="9.6551888"><ele>215.00000000000003</ele><time>2026-04-27T12:22:36.999Z</time></trkpt><trkpt lat="32.9722696" lon="9.655106"><ele>215.0</ele><time>2026-04-27T12:22:38.005Z</time></trkpt><trkpt lat="32.9723005" lon="9.6550162"><ele>214.83333333333334</ele><time>2026-04-27T12:22:39.018Z</time></trkpt><trkpt lat="32.9723345" lon="9.6549225"><ele>214.66666666666669</ele><time>2026-04-27T12:22:40.006Z</time></trkpt><trkpt lat="32.9723683" lon="9.654829"><ele>214.5</ele><time>2026-04-27T12:22:41.022Z</time></trkpt><trkpt lat="32.9723994" lon="9.6547351"><ele>214.33333333333331</ele><time>2026-04-27T12:22:42.011Z</time></trkpt><trkpt lat="32.9724293" lon="9.6546417"><ele>214.16666666666666</ele><time>2026-04-27T12:22:43.012Z</time></trkpt><trkpt lat="32.9724599" lon="9.6545423"><ele>214.0</ele><time>2026-04-27T12:22:44.008Z</time></trkpt><trkpt lat="32.9724937" lon="9.654446"><ele>213.83333333333331</ele><time>2026-04-27T12:22:45.028Z</time></trkpt><trkpt lat="32.9725324" lon="9.6543499"><ele>213.66666666666666</ele><time>2026-04-27T12:22:46.016Z</time></trkpt><trkpt lat="32.9725714" lon="9.6542561"><ele>213.5</ele><time>2026-04-27T12:22:47.02Z</time></trkpt><trkpt lat="32.97261" lon="9.6541612"><ele>213.33333333333331</ele><time>2026-04-27T12:22:48.02Z</time></trkpt><trkpt lat="32.972642" lon="9.6540659"><ele>213.16666666666666</ele><time>2026-04-27T12:22:49.014Z</time></trkpt><trkpt lat="32.9726684" lon="9.653976"><ele>213.0</ele><time>2026-04-27T12:22:49.999Z</time></trkpt><trkpt lat="32.9726924" lon="9.6538895"><ele>213.0</ele><time>2026-04-27T12:22:51.018Z</time></trkpt><trkpt lat="32.9727125" lon="9.6538003"><ele>213.0</ele><time>2026-04-27T12:22:52.022Z</time></trkpt><trkpt lat="32.972732" lon="9.6537034"><ele>213.0</ele><time>2026-04-27T12:22:53.011Z</time></trkpt><trkpt lat="32.9727548" lon="9.6536044"><ele>213.0</ele><time>2026-04-27T12:22:54.017Z</time></trkpt><trkpt lat="32.9727787" lon="9.6535117"><ele>213.0</ele><time>2026-04-27T12:22:55.016Z</time></trkpt><trkpt lat="32.9728097" lon="9.6534122"><ele>213.0</ele><time>2026-04-27T12:22:55.996Z</time></trkpt><trkpt lat="32.972839" lon="9.6533115"><ele>213.0</ele><time>2026-04-27T12:22:57.017Z</time></trkpt><trkpt lat="32.9728703" lon="9.6532072"><ele>213.0</ele><time>2026-04-27T12:22:58.017Z</time></trkpt><trkpt lat="32.9729146" lon="9.6531063"><ele>213.0</ele><time>2026-04-27T12:22:59.021Z</time></trkpt><trkpt lat="32.9729612" lon="9.6530126"><ele>213.0</ele><time>2026-04-27T12:23:00.023Z</time></trkpt><trkpt lat="32.9730137" lon="9.6529197"><ele>213.0</ele><time>2026-04-27T12:23:01.014Z</time></trkpt><trkpt lat="32.9730897" lon="9.6528075"><ele>213.0</ele><time>2026-04-27T12:23:02.002Z</time></trkpt><trkpt lat="32.9731831" lon="9.6526662"><ele>213.0</ele><time>2026-04-27T12:23:03.022Z</time></trkpt><trkpt lat="32.9732822" lon="9.6525169"><ele>213.0</ele><time>2026-04-27T12:23:04.006Z</time></trkpt><trkpt lat="32.9735118" lon="9.6521865"><ele>212.8</ele><time>2026-04-27T12:23:07.037Z</time></trkpt><trkpt lat="32.9735757" lon="9.6520904"><ele>212.60000000000002</ele><time>2026-04-27T12:23:08.029Z</time></trkpt><trkpt lat="32.9736477" lon="9.6519871"><ele>212.39999999999998</ele><time>2026-04-27T12:23:09.023Z</time></trkpt><trkpt lat="32.9737172" lon="9.6518888"><ele>212.2</ele><time>2026-04-27T12:23:10.022Z</time></trkpt><trkpt lat="32.9737784" lon="9.6517788"><ele>212.0</ele><time>2026-04-27T12:23:11.013Z</time></trkpt><trkpt lat="32.9738453" lon="9.6516654"><ele>212.0</ele><time>2026-04-27T12:23:12.018Z</time></trkpt><trkpt lat="32.9739069" lon="9.6515618"><ele>212.0</ele><time>2026-04-27T12:23:13.02Z</time></trkpt><trkpt lat="32.9739627" lon="9.6514582"><ele>212.0</ele><time>2026-04-27T12:23:14.001Z</time></trkpt><trkpt lat="32.9740141" lon="9.6513362"><ele>212.0</ele><time>2026-04-27T12:23:15.002Z</time></trkpt><trkpt lat="32.9740679" lon="9.6511976"><ele>211.8</ele><time>2026-04-27T12:23:16.009Z</time></trkpt><trkpt lat="32.9741161" lon="9.6510823"><ele>211.6</ele><time>2026-04-27T12:23:17.008Z</time></trkpt><trkpt lat="32.9741636" lon="9.650977"><ele>211.4</ele><time>2026-04-27T12:23:18.01Z</time></trkpt><trkpt lat="32.97422" lon="9.6508847"><ele>211.20000000000002</ele><time>2026-04-27T12:23:19.012Z</time></trkpt><trkpt lat="32.97428" lon="9.6507848"><ele>211.0</ele><time>2026-04-27T12:23:20.012Z</time></trkpt><trkpt lat="32.9743376" lon="9.6506959"><ele>211.0</ele><time>2026-04-27T12:23:21.019Z</time></trkpt><trkpt lat="32.9743962" lon="9.6505978"><ele>211.0</ele><time>2026-04-27T12:23:22.021Z</time></trkpt><trkpt lat="32.974457" lon="9.6505"><ele>211.0</ele><time>2026-04-27T12:23:23.041Z</time></trkpt><trkpt lat="32.9745222" lon="9.6504025"><ele>211.0</ele><time>2026-04-27T12:23:24.008Z</time></trkpt><trkpt lat="32.9745807" lon="9.6502986"><ele>211.0</ele><time>2026-04-27T12:23:25.067Z</time></trkpt><trkpt lat="32.9746404" lon="9.6501952"><ele>211.0</ele><time>2026-04-27T12:23:26.001Z</time></trkpt><trkpt lat="32.9747074" lon="9.650091"><ele>211.0</ele><time>2026-04-27T12:23:27.021Z</time></trkpt><trkpt lat="32.974774" lon="9.6499891"><ele>211.0</ele><time>2026-04-27T12:23:28.014Z</time></trkpt><trkpt lat="32.9748436" lon="9.649888"><ele>211.0</ele><time>2026-04-27T12:23:29.012Z</time></trkpt><trkpt lat="32.9749061" lon="9.6497881"><ele>211.0</ele><time>2026-04-27T12:23:30.007Z</time></trkpt><trkpt lat="32.9749696" lon="9.6496916"><ele>210.8</ele><time>2026-04-27T12:23:31.014Z</time></trkpt><trkpt lat="32.9750223" lon="9.6495989"><ele>210.60000000000002</ele><time>2026-04-27T12:23:32.024Z</time></trkpt><trkpt lat="32.9750765" lon="9.6495051"><ele>210.4</ele><time>2026-04-27T12:23:33.012Z</time></trkpt><trkpt lat="32.9751353" lon="9.6494095"><ele>210.2</ele><time>2026-04-27T12:23:34.025Z</time></trkpt><trkpt lat="32.9751961" lon="9.649312"><ele>210.0</ele><time>2026-04-27T12:23:35.012Z</time></trkpt><trkpt lat="32.9752673" lon="9.6491793"><ele>210.0</ele><time>2026-04-27T12:23:36.02Z</time></trkpt><trkpt lat="32.9753442" lon="9.6490387"><ele>210.0</ele><time>2026-04-27T12:23:37.016Z</time></trkpt><trkpt lat="32.9754093" lon="9.6489253"><ele>210.0</ele><time>2026-04-27T12:23:38.023Z</time></trkpt><trkpt lat="32.9754587" lon="9.6488064"><ele>210.0</ele><time>2026-04-27T12:23:39.024Z</time></trkpt><trkpt lat="32.9755111" lon="9.6486766"><ele>209.75</ele><time>2026-04-27T12:23:40.044Z</time></trkpt><trkpt lat="32.9755616" lon="9.6485185"><ele>209.5</ele><time>2026-04-27T12:23:41.018Z</time></trkpt><trkpt lat="32.9756191" lon="9.6483585"><ele>209.25</ele><time>2026-04-27T12:23:42.02Z</time></trkpt><trkpt lat="32.9756698" lon="9.6482109"><ele>209.0</ele><time>2026-04-27T12:23:43.014Z</time></trkpt><trkpt lat="32.9757118" lon="9.6480781"><ele>209.0</ele><time>2026-04-27T12:23:44.009Z</time></trkpt><trkpt lat="32.9757501" lon="9.6479554"><ele>209.0</ele><time>2026-04-27T12:23:45.012Z</time></trkpt><trkpt lat="32.9757919" lon="9.6478456"><ele>209.0</ele><time>2026-04-27T12:23:46.018Z</time></trkpt><trkpt lat="32.9758269" lon="9.6477374"><ele>209.0</ele><time>2026-04-27T12:23:47.016Z</time></trkpt><trkpt lat="32.9758641" lon="9.647636"><ele>209.0</ele><time>2026-04-27T12:23:48.014Z</time></trkpt><trkpt lat="32.9758967" lon="9.6475476"><ele>208.79999999999998</ele><time>2026-04-27T12:23:48.994Z</time></trkpt><trkpt lat="32.9759268" lon="9.6474708"><ele>208.6</ele><time>2026-04-27T12:23:50.011Z</time></trkpt><trkpt lat="32.9759584" lon="9.6473929"><ele>208.4</ele><time>2026-04-27T12:23:51.02Z</time></trkpt><trkpt lat="32.9760149" lon="9.6472711"><ele>208.2</ele><time>2026-04-27T12:23:53.013Z</time></trkpt><trkpt lat="32.9760695" lon="9.6471637"><ele>208.0</ele><time>2026-04-27T12:23:55.02Z</time></trkpt><trkpt lat="32.9761343" lon="9.6470867"><ele>207.99999999999997</ele><time>2026-04-27T12:23:57.02Z</time></trkpt><trkpt lat="32.9762187" lon="9.6470292"><ele>208.0</ele><time>2026-04-27T12:23:59.032Z</time></trkpt><trkpt lat="32.9762907" lon="9.6469718"><ele>208.0</ele><time>2026-04-27T12:24:01.02Z</time></trkpt><trkpt lat="32.9763372" lon="9.6469179"><ele>208.0</ele><time>2026-04-27T12:24:04.018Z</time></trkpt><trkpt lat="32.9764099" lon="9.6468204"><ele>207.99999999999997</ele><time>2026-04-27T12:24:08Z</time></trkpt><trkpt lat="32.9764543" lon="9.646766"><ele>208.0</ele><time>2026-04-27T12:24:09.02Z</time></trkpt><trkpt lat="32.9765387" lon="9.6466863"><ele>208.33333333333331</ele><time>2026-04-27T12:24:11.015Z</time></trkpt><trkpt lat="32.9765858" lon="9.6466319"><ele>208.66666666666666</ele><time>2026-04-27T12:24:12.006Z</time></trkpt><trkpt lat="32.9766345" lon="9.6465806"><ele>209.0</ele><time>2026-04-27T12:24:13Z</time></trkpt><trkpt lat="32.9766945" lon="9.646516"><ele>209.33333333333331</ele><time>2026-04-27T12:24:13.991Z</time></trkpt><trkpt lat="32.9767645" lon="9.6464443"><ele>209.66666666666666</ele><time>2026-04-27T12:24:15.025Z</time></trkpt><trkpt lat="32.9768369" lon="9.6463755"><ele>210.0</ele><time>2026-04-27T12:24:15.992Z</time></trkpt><trkpt lat="32.976915" lon="9.646306"><ele>210.0</ele><time>2026-04-27T12:24:16.995Z</time></trkpt><trkpt lat="32.9769928" lon="9.6462446"><ele>210.0</ele><time>2026-04-27T12:24:18.015Z</time></trkpt><trkpt lat="32.9770633" lon="9.6461927"><ele>210.0</ele><time>2026-04-27T12:24:19.016Z</time></trkpt><trkpt lat="32.9771317" lon="9.646157"><ele>210.0</ele><time>2026-04-27T12:24:20.023Z</time></trkpt><trkpt lat="32.9772001" lon="9.6461325"><ele>210.0</ele><time>2026-04-27T12:24:21.02Z</time></trkpt><trkpt lat="32.977272" lon="9.6461232"><ele>210.0</ele><time>2026-04-27T12:24:22.013Z</time></trkpt><trkpt lat="32.9773422" lon="9.646114"><ele>210.0</ele><time>2026-04-27T12:24:23.017Z</time></trkpt><trkpt lat="32.9774143" lon="9.6461108"><ele>210.0</ele><time>2026-04-27T12:24:24.017Z</time></trkpt><trkpt lat="32.977485" lon="9.6461128"><ele>210.0</ele><time>2026-04-27T12:24:25.015Z</time></trkpt><trkpt lat="32.9775558" lon="9.6461179"><ele>210.0</ele><time>2026-04-27T12:24:26.012Z</time></trkpt><trkpt lat="32.9776291" lon="9.6461187"><ele>210.0</ele><time>2026-04-27T12:24:27.011Z</time></trkpt><trkpt lat="32.9777081" lon="9.6461106"><ele>210.0</ele><time>2026-04-27T12:24:28.038Z</time></trkpt><trkpt lat="32.9777755" lon="9.6460939"><ele>210.0</ele><time>2026-04-27T12:24:29.02Z</time></trkpt><trkpt lat="32.9778352" lon="9.6460582"><ele>210.0</ele><time>2026-04-27T12:24:30.015Z</time></trkpt><trkpt lat="32.9779318" lon="9.6459506"><ele>210.0</ele><time>2026-04-27T12:24:32.018Z</time></trkpt><trkpt lat="32.9779709" lon="9.6458679"><ele>210.0</ele><time>2026-04-27T12:24:33.021Z</time></trkpt><trkpt lat="32.9780105" lon="9.6457783"><ele>210.0</ele><time>2026-04-27T12:24:34.02Z</time></trkpt><trkpt lat="32.9780558" lon="9.6456796"><ele>210.0</ele><time>2026-04-27T12:24:35.019Z</time></trkpt><trkpt lat="32.9781049" lon="9.6455794"><ele>210.0</ele><time>2026-04-27T12:24:36.02Z</time></trkpt><trkpt lat="32.9781522" lon="9.645484"><ele>210.0</ele><time>2026-04-27T12:24:37.015Z</time></trkpt><trkpt lat="32.9781982" lon="9.6453883"><ele>210.0</ele><time>2026-04-27T12:24:38.013Z</time></trkpt><trkpt lat="32.9782483" lon="9.6453022"><ele>210.0</ele><time>2026-04-27T12:24:39.027Z</time></trkpt><trkpt lat="32.9782942" lon="9.6452058"><ele>210.0</ele><time>2026-04-27T12:24:40.014Z</time></trkpt><trkpt lat="32.9783429" lon="9.6451006"><ele>209.6</ele><time>2026-04-27T12:24:41.015Z</time></trkpt><trkpt lat="32.9783944" lon="9.6449974"><ele>209.2</ele><time>2026-04-27T12:24:42.013Z</time></trkpt><trkpt lat="32.9784436" lon="9.6448954"><ele>208.8</ele><time>2026-04-27T12:24:43.007Z</time></trkpt><trkpt lat="32.9785027" lon="9.6447989"><ele>208.4</ele><time>2026-04-27T12:24:44.012Z</time></trkpt><trkpt lat="32.978562" lon="9.6447004"><ele>208.0</ele><time>2026-04-27T12:24:45.01Z</time></trkpt><trkpt lat="32.9786127" lon="9.6445961"><ele>208.0</ele><time>2026-04-27T12:24:46.014Z</time></trkpt><trkpt lat="32.9786635" lon="9.6444918"><ele>208.0</ele><time>2026-04-27T12:24:47.013Z</time></trkpt><trkpt lat="32.9787168" lon="9.6443831"><ele>208.0</ele><time>2026-04-27T12:24:48.037Z</time></trkpt><trkpt lat="32.9787691" lon="9.6442824"><ele>208.0</ele><time>2026-04-27T12:24:49.007Z</time></trkpt><trkpt lat="32.9788289" lon="9.6441799"><ele>208.0</ele><time>2026-04-27T12:24:50.011Z</time></trkpt><trkpt lat="32.9788868" lon="9.6440725"><ele>208.5</ele><time>2026-04-27T12:24:51.018Z</time></trkpt><trkpt lat="32.9789438" lon="9.6439596"><ele>209.0</ele><time>2026-04-27T12:24:52.013Z</time></trkpt><trkpt lat="32.9790024" lon="9.6438505"><ele>209.5</ele><time>2026-04-27T12:24:53.012Z</time></trkpt><trkpt lat="32.9790605" lon="9.6437323"><ele>210.0</ele><time>2026-04-27T12:24:54.023Z</time></trkpt><trkpt lat="32.9791155" lon="9.6436073"><ele>210.0</ele><time>2026-04-27T12:24:55.008Z</time></trkpt><trkpt lat="32.9791697" lon="9.6434801"><ele>210.0</ele><time>2026-04-27T12:24:56.065Z</time></trkpt><trkpt lat="32.9792215" lon="9.6433512"><ele>210.0</ele><time>2026-04-27T12:24:57.012Z</time></trkpt><trkpt lat="32.9792729" lon="9.6432224"><ele>210.0</ele><time>2026-04-27T12:24:58.033Z</time></trkpt><trkpt lat="32.9793193" lon="9.643091"><ele>210.25</ele><time>2026-04-27T12:24:59.016Z</time></trkpt><trkpt lat="32.9793662" lon="9.6429687"><ele>210.5</ele><time>2026-04-27T12:25:00.007Z</time></trkpt><trkpt lat="32.9794192" lon="9.6428487"><ele>210.75</ele><time>2026-04-27T12:25:01.009Z</time></trkpt><trkpt lat="32.9794786" lon="9.6427354"><ele>211.0</ele><time>2026-04-27T12:25:02.005Z</time></trkpt><trkpt lat="32.9795469" lon="9.6426276"><ele>210.0</ele><time>2026-04-27T12:25:03.047Z</time></trkpt><trkpt lat="32.979638" lon="9.642522"><ele>209.0</ele><time>2026-04-27T12:25:04.013Z</time></trkpt><trkpt lat="32.9797305" lon="9.6424272"><ele>208.0</ele><time>2026-04-27T12:25:05.017Z</time></trkpt><trkpt lat="32.9798228" lon="9.6423253"><ele>207.0</ele><time>2026-04-27T12:25:06.02Z</time></trkpt><trkpt lat="32.9799155" lon="9.6422247"><ele>207.0</ele><time>2026-04-27T12:25:07.017Z</time></trkpt><trkpt lat="32.9800095" lon="9.6421311"><ele>207.0</ele><time>2026-04-27T12:25:08.008Z</time></trkpt><trkpt lat="32.9801079" lon="9.6420285"><ele>207.0</ele><time>2026-04-27T12:25:09.018Z</time></trkpt><trkpt lat="32.9802092" lon="9.6419294"><ele>207.0</ele><time>2026-04-27T12:25:10.023Z</time></trkpt><trkpt lat="32.9803098" lon="9.6418349"><ele>208.25</ele><time>2026-04-27T12:25:11.014Z</time></trkpt><trkpt lat="32.9804085" lon="9.6417377"><ele>209.5</ele><time>2026-04-27T12:25:12.023Z</time></trkpt><trkpt lat="32.9805083" lon="9.6416385"><ele>210.75</ele><time>2026-04-27T12:25:13.013Z</time></trkpt><trkpt lat="32.9806059" lon="9.6415347"><ele>212.0</ele><time>2026-04-27T12:25:14.015Z</time></trkpt><trkpt lat="32.9807039" lon="9.6414223"><ele>212.0</ele><time>2026-04-27T12:25:15.019Z</time></trkpt><trkpt lat="32.9807976" lon="9.6413156"><ele>212.0</ele><time>2026-04-27T12:25:16.006Z</time></trkpt><trkpt lat="32.980887" lon="9.6412007"><ele>212.0</ele><time>2026-04-27T12:25:17.012Z</time></trkpt><trkpt lat="32.9809671" lon="9.6410794"><ele>212.0</ele><time>2026-04-27T12:25:18.043Z</time></trkpt><trkpt lat="32.9810341" lon="9.6409517"><ele>212.33333333333334</ele><time>2026-04-27T12:25:19.017Z</time></trkpt><trkpt lat="32.9811565" lon="9.6406738"><ele>212.66666666666669</ele><time>2026-04-27T12:25:21.071Z</time></trkpt><trkpt lat="32.9812214" lon="9.6405192"><ele>213.0</ele><time>2026-04-27T12:25:22.05Z</time></trkpt><trkpt lat="32.9812811" lon="9.6403635"><ele>212.5</ele><time>2026-04-27T12:25:23.052Z</time></trkpt><trkpt lat="32.9814559" lon="9.6399048"><ele>212.0</ele><time>2026-04-27T12:25:26.008Z</time></trkpt><trkpt lat="32.9815196" lon="9.6397471"><ele>212.0</ele><time>2026-04-27T12:25:27.006Z</time></trkpt><trkpt lat="32.9817957" lon="9.6391025"><ele>212.0</ele><time>2026-04-27T12:25:31.039Z</time></trkpt><trkpt lat="32.9818616" lon="9.638936"><ele>212.0</ele><time>2026-04-27T12:25:32.088Z</time></trkpt><trkpt lat="32.9819237" lon="9.6387767"><ele>212.0</ele><time>2026-04-27T12:25:33.019Z</time></trkpt><trkpt lat="32.9819845" lon="9.6386123"><ele>211.33333333333334</ele><time>2026-04-27T12:25:34.011Z</time></trkpt><trkpt lat="32.9820515" lon="9.6384545"><ele>210.66666666666669</ele><time>2026-04-27T12:25:35.035Z</time></trkpt><trkpt lat="32.9821126" lon="9.6382853"><ele>210.0</ele><time>2026-04-27T12:25:36.034Z</time></trkpt><trkpt lat="32.9821754" lon="9.6381246"><ele>210.0</ele><time>2026-04-27T12:25:37.014Z</time></trkpt><trkpt lat="32.9822387" lon="9.6379666"><ele>210.0</ele><time>2026-04-27T12:25:38.01Z</time></trkpt><trkpt lat="32.9823029" lon="9.6378035"><ele>210.0</ele><time>2026-04-27T12:25:39.009Z</time></trkpt><trkpt lat="32.9823659" lon="9.6376421"><ele>210.0</ele><time>2026-04-27T12:25:40.005Z</time></trkpt><trkpt lat="32.982426" lon="9.6374811"><ele>210.25</ele><time>2026-04-27T12:25:41.006Z</time></trkpt><trkpt lat="32.982491" lon="9.6373243"><ele>210.5</ele><time>2026-04-27T12:25:42.009Z</time></trkpt><trkpt lat="32.9825575" lon="9.6371667"><ele>210.75</ele><time>2026-04-27T12:25:43.008Z</time></trkpt><trkpt lat="32.9826161" lon="9.6370182"><ele>211.0</ele><time>2026-04-27T12:25:44.014Z</time></trkpt><trkpt lat="32.9826706" lon="9.6368762"><ele>211.5</ele><time>2026-04-27T12:25:45.007Z</time></trkpt><trkpt lat="32.9827252" lon="9.6367412"><ele>212.0</ele><time>2026-04-27T12:25:46.01Z</time></trkpt><trkpt lat="32.9827842" lon="9.6366091"><ele>212.5</ele><time>2026-04-27T12:25:47.016Z</time></trkpt><trkpt lat="32.9828365" lon="9.6364887"><ele>213.0</ele><time>2026-04-27T12:25:48.046Z</time></trkpt><trkpt lat="32.9828737" lon="9.636383"><ele>213.0</ele><time>2026-04-27T12:25:49.01Z</time></trkpt><trkpt lat="32.9829091" lon="9.6362855"><ele>213.0</ele><time>2026-04-27T12:25:50.018Z</time></trkpt><trkpt lat="32.9829396" lon="9.6362008"><ele>213.0</ele><time>2026-04-27T12:25:51.015Z</time></trkpt><trkpt lat="32.9829811" lon="9.6361014"><ele>213.0</ele><time>2026-04-27T12:25:53.015Z</time></trkpt><trkpt lat="32.9830289" lon="9.6360521"><ele>213.0</ele><time>2026-04-27T12:26:14.044Z</time></trkpt><trkpt lat="32.9831046" lon="9.6360474"><ele>213.0</ele><time>2026-04-27T12:26:17.029Z</time></trkpt><trkpt lat="32.9831818" lon="9.6360784"><ele>213.0</ele><time>2026-04-27T12:26:19.059Z</time></trkpt><trkpt lat="32.9832873" lon="9.6361252"><ele>213.0</ele><time>2026-04-27T12:26:21.055Z</time></trkpt><trkpt lat="32.9833458" lon="9.6361575"><ele>213.0</ele><time>2026-04-27T12:26:22.056Z</time></trkpt><trkpt lat="32.9834541" lon="9.6362075"><ele>213.0</ele><time>2026-04-27T12:26:24.049Z</time></trkpt><trkpt lat="32.983542" lon="9.6362562"><ele>213.0</ele><time>2026-04-27T12:26:26.059Z</time></trkpt><trkpt lat="32.9836215" lon="9.6363048"><ele>212.66666666666666</ele><time>2026-04-27T12:26:28.042Z</time></trkpt><trkpt lat="32.9837386" lon="9.6363679"><ele>212.33333333333331</ele><time>2026-04-27T12:26:30.037Z</time></trkpt><trkpt lat="32.983805" lon="9.6363978"><ele>212.0</ele><time>2026-04-27T12:26:31Z</time></trkpt><trkpt lat="32.9838646" lon="9.6364267"><ele>211.66666666666666</ele><time>2026-04-27T12:26:32.021Z</time></trkpt><trkpt lat="32.9839267" lon="9.6364622"><ele>211.33333333333331</ele><time>2026-04-27T12:26:33.07Z</time></trkpt><trkpt lat="32.9839963" lon="9.6364981"><ele>211.0</ele><time>2026-04-27T12:26:34.044Z</time></trkpt><trkpt lat="32.9840614" lon="9.63654"><ele>210.99999999999997</ele><time>2026-04-27T12:26:35.035Z</time></trkpt><trkpt lat="32.9841274" lon="9.6365869"><ele>211.0</ele><time>2026-04-27T12:26:36.076Z</time></trkpt><trkpt lat="32.9841964" lon="9.6366306"><ele>211.0</ele><time>2026-04-27T12:26:37.06Z</time></trkpt><trkpt lat="32.9842606" lon="9.6366664"><ele>211.0</ele><time>2026-04-27T12:26:38.062Z</time></trkpt><trkpt lat="32.9843299" lon="9.6366992"><ele>210.99999999999997</ele><time>2026-04-27T12:26:39.051Z</time></trkpt><trkpt lat="32.984399" lon="9.6367327"><ele>211.0</ele><time>2026-04-27T12:26:40.062Z</time></trkpt><trkpt lat="32.9844714" lon="9.6367688"><ele>210.85714285714286</ele><time>2026-04-27T12:26:41.052Z</time></trkpt><trkpt lat="32.9845455" lon="9.6368073"><ele>210.71428571428572</ele><time>2026-04-27T12:26:42.062Z</time></trkpt><trkpt lat="32.984615" lon="9.6368446"><ele>210.57142857142856</ele><time>2026-04-27T12:26:43.016Z</time></trkpt><trkpt lat="32.98468" lon="9.6368812"><ele>210.42857142857144</ele><time>2026-04-27T12:26:44.044Z</time></trkpt><trkpt lat="32.9847436" lon="9.6369144"><ele>210.28571428571428</ele><time>2026-04-27T12:26:45.055Z</time></trkpt><trkpt lat="32.9848029" lon="9.6369498"><ele>210.14285714285714</ele><time>2026-04-27T12:26:46.087Z</time></trkpt><trkpt lat="32.9848639" lon="9.6369809"><ele>210.0</ele><time>2026-04-27T12:26:47.072Z</time></trkpt><trkpt lat="32.9849285" lon="9.637018"><ele>210.33333333333334</ele><time>2026-04-27T12:26:48.057Z</time></trkpt><trkpt lat="32.9849997" lon="9.6370542"><ele>210.66666666666669</ele><time>2026-04-27T12:26:49.031Z</time></trkpt><trkpt lat="32.9850764" lon="9.6370918"><ele>211.0</ele><time>2026-04-27T12:26:50.066Z</time></trkpt><trkpt lat="32.9851507" lon="9.6371321"><ele>211.33333333333334</ele><time>2026-04-27T12:26:51.034Z</time></trkpt><trkpt lat="32.9852278" lon="9.6371772"><ele>211.66666666666669</ele><time>2026-04-27T12:26:52.067Z</time></trkpt><trkpt lat="32.9853017" lon="9.6372227"><ele>212.0</ele><time>2026-04-27T12:26:53.025Z</time></trkpt><trkpt lat="32.9853776" lon="9.6372737"><ele>212.33333333333334</ele><time>2026-04-27T12:26:54.045Z</time></trkpt><trkpt lat="32.9854587" lon="9.6373256"><ele>212.66666666666669</ele><time>2026-04-27T12:26:55.068Z</time></trkpt><trkpt lat="32.9855357" lon="9.6373724"><ele>213.0</ele><time>2026-04-27T12:26:56.065Z</time></trkpt><trkpt lat="32.9856167" lon="9.6374121"><ele>213.33333333333331</ele><time>2026-04-27T12:26:57.016Z</time></trkpt><trkpt lat="32.9856938" lon="9.6374428"><ele>213.66666666666666</ele><time>2026-04-27T12:26:58.075Z</time></trkpt><trkpt lat="32.9857487" lon="9.6374845"><ele>214.0</ele><time>2026-04-27T12:26:59.043Z</time></trkpt><trkpt lat="32.9858291" lon="9.6375389"><ele>213.66666666666666</ele><time>2026-04-27T12:27:01.07Z</time></trkpt><trkpt lat="32.9859269" lon="9.6375806"><ele>213.33333333333331</ele><time>2026-04-27T12:27:03.059Z</time></trkpt><trkpt lat="32.9859868" lon="9.6376137"><ele>213.0</ele><time>2026-04-27T12:27:04.075Z</time></trkpt><trkpt lat="32.98605" lon="9.637646"><ele>212.66666666666669</ele><time>2026-04-27T12:27:05.061Z</time></trkpt><trkpt lat="32.9861147" lon="9.637685"><ele>212.33333333333334</ele><time>2026-04-27T12:27:06.058Z</time></trkpt><trkpt lat="32.9861816" lon="9.6377198"><ele>212.0</ele><time>2026-04-27T12:27:07.043Z</time></trkpt><trkpt lat="32.9862471" lon="9.6377574"><ele>212.00000000000003</ele><time>2026-04-27T12:27:08.074Z</time></trkpt><trkpt lat="32.9863145" lon="9.6377941"><ele>212.0</ele><time>2026-04-27T12:27:09.065Z</time></trkpt><trkpt lat="32.9863834" lon="9.6378278"><ele>212.0</ele><time>2026-04-27T12:27:10.046Z</time></trkpt><trkpt lat="32.986452" lon="9.6378673"><ele>212.0</ele><time>2026-04-27T12:27:11.062Z</time></trkpt><trkpt lat="32.9865101" lon="9.6379004"><ele>212.00000000000003</ele><time>2026-04-27T12:27:12.037Z</time></trkpt><trkpt lat="32.98657" lon="9.6379301"><ele>212.0</ele><time>2026-04-27T12:27:13.064Z</time></trkpt><trkpt lat="32.9866636" lon="9.6379827"><ele>213.0</ele><time>2026-04-27T12:27:15.057Z</time></trkpt><trkpt lat="32.9867317" lon="9.638005"><ele>213.0</ele><time>2026-04-27T12:27:17.042Z</time></trkpt><trkpt lat="32.9868054" lon="9.637977"><ele>213.0</ele><time>2026-04-27T12:27:20.051Z</time></trkpt><trkpt lat="32.9868699" lon="9.6379176"><ele>213.0</ele><time>2026-04-27T12:27:23.066Z</time></trkpt><trkpt lat="32.9869228" lon="9.637854"><ele>213.0</ele><time>2026-04-27T12:27:26.04Z</time></trkpt><trkpt lat="32.9869803" lon="9.6377839"><ele>211.0</ele><time>2026-04-27T12:27:30.094Z</time></trkpt></trkseg></trk></gpx>